<?xml version='1.0' encoding='UTF-8'?><gpx version="1.1" creator="JPX - https://github.com/jenetics/jpx" xmlns="http://www.topografix.com/GPX/1/1"><trk><trkseg><trkpt lat="44.40214724887248" lon="8.980087023881348"><ele>53.00000000000001</ele><time>2026-04-07T07:29:29.999Z</time></trkpt><trkpt lat="44.40208748489607" lon="8.98012742374558"><ele>53.0</ele><time>2026-04-07T07:29:30.999Z</time></trkpt><trkpt lat="44.402013282781965" lon="8.980149400845875"><ele>53.0</ele><time>2026-04-07T07:29:31.999Z</time></trkpt><trkpt lat="44.40192914300986" lon="8.980176899064244"><ele>53.0</ele><time>2026-04-07T07:29:32.999Z</time></trkpt><trkpt lat="44.401835496729326" lon="8.980189165942939"><ele>53.00000000000001</ele><time>2026-04-07T07:29:33.999Z</time></trkpt><trkpt lat="44.401756841525604" lon="8.980219224279706"><ele>53.0</ele><time>2026-04-07T07:29:34.999Z</time></trkpt><trkpt lat="44.4016662205523" lon="8.980257606317839"><ele>53.0</ele><time>2026-04-07T07:29:35.999Z</time></trkpt><trkpt lat="44.40157355794069" lon="8.980305037234963"><ele>53.0</ele><time>2026-04-07T07:29:36.999Z</time></trkpt><trkpt lat="44.401521957073534" lon="8.980453434700914"><ele>53.0</ele><time>2026-04-07T07:29:38.999Z</time></trkpt><trkpt lat="44.40156578176446" lon="8.980598064119544"><ele>53.0</ele><time>2026-04-07T07:29:40.999Z</time></trkpt><trkpt lat="44.40160373814185" lon="8.980671043407915"><ele>53.0</ele><time>2026-04-07T07:29:41.999Z</time></trkpt><trkpt lat="44.40166183713461" lon="8.980716664027382"><ele>53.0</ele><time>2026-04-07T07:29:42.999Z</time></trkpt><trkpt lat="44.40174239664191" lon="8.980704100083248"><ele>53.0</ele><time>2026-04-07T07:29:43.999Z</time></trkpt><trkpt lat="44.40183014228562" lon="8.980674572351711"><ele>53.0</ele><time>2026-04-07T07:29:44.999Z</time></trkpt><trkpt lat="44.40197288924893" lon="8.980599964401886"><ele>53.0</ele><time>2026-04-07T07:29:45.999Z</time></trkpt><trkpt lat="44.40209471665167" lon="8.9805529097518"><ele>54.599999999999994</ele><time>2026-04-07T07:29:46.999Z</time></trkpt><trkpt lat="44.402190863647135" lon="8.98050652640189"><ele>56.199999999999996</ele><time>2026-04-07T07:29:47.999Z</time></trkpt><trkpt lat="44.402288189706965" lon="8.980485040215264"><ele>57.8</ele><time>2026-04-07T07:29:48.999Z</time></trkpt><trkpt lat="44.40237095240343" lon="8.980473416681802"><ele>59.4</ele><time>2026-04-07T07:29:49.999Z</time></trkpt><trkpt lat="44.40245969332984" lon="8.980483098709579"><ele>61.0</ele><time>2026-04-07T07:29:50.999Z</time></trkpt><trkpt lat="44.40254865188926" lon="8.980462077705566"><ele>61.0</ele><time>2026-04-07T07:29:51.999Z</time></trkpt><trkpt lat="44.40264380680765" lon="8.980444266711073"><ele>60.99999999999999</ele><time>2026-04-07T07:29:52.999Z</time></trkpt><trkpt lat="44.402734567101554" lon="8.980401487961995"><ele>60.99999999999999</ele><time>2026-04-07T07:29:53.999Z</time></trkpt><trkpt lat="44.40284747276052" lon="8.980358942030541"><ele>61.0</ele><time>2026-04-07T07:29:54.999Z</time></trkpt><trkpt lat="44.40294408272197" lon="8.980289993279046"><ele>61.0</ele><time>2026-04-07T07:29:55.999Z</time></trkpt><trkpt lat="44.403043930216704" lon="8.980239329128146"><ele>61.199999999999996</ele><time>2026-04-07T07:29:56.999Z</time></trkpt><trkpt lat="44.403133934322696" lon="8.980176069109328"><ele>61.39999999999999</ele><time>2026-04-07T07:29:57.999Z</time></trkpt><trkpt lat="44.403213722008935" lon="8.980120835164481"><ele>61.6</ele><time>2026-04-07T07:29:58.999Z</time></trkpt><trkpt lat="44.40329480961249" lon="8.980050365532309"><ele>61.8</ele><time>2026-04-07T07:29:59.999Z</time></trkpt><trkpt lat="44.40337720996046" lon="8.97995912832018"><ele>62.0</ele><time>2026-04-07T07:30:00.999Z</time></trkpt><trkpt lat="44.40344132996362" lon="8.979882735001501"><ele>62.00000000000001</ele><time>2026-04-07T07:30:01.999Z</time></trkpt><trkpt lat="44.403488115145755" lon="8.97979963439851"><ele>62.0</ele><time>2026-04-07T07:30:02.999Z</time></trkpt><trkpt lat="44.40356303531035" lon="8.979656428967365"><ele>62.0</ele><time>2026-04-07T07:30:04.999Z</time></trkpt><trkpt lat="44.403612038186424" lon="8.979578873852986"><ele>62.0</ele><time>2026-04-07T07:30:06.999Z</time></trkpt><trkpt lat="44.403640830547914" lon="8.979487705574206"><ele>62.00000000000001</ele><time>2026-04-07T07:30:09Z</time></trkpt><trkpt lat="44.4036910344424" lon="8.97939716911342"><ele>62.0</ele><time>2026-04-07T07:30:11Z</time></trkpt><trkpt lat="44.40369363747383" lon="8.979298402236939"><ele>62.0</ele><time>2026-04-07T07:30:14Z</time></trkpt><trkpt lat="44.40377637301961" lon="8.979266927152494"><ele>62.0</ele><time>2026-04-07T07:30:18Z</time></trkpt><trkpt lat="44.403840501703755" lon="8.979286126230367"><ele>62.0</ele><time>2026-04-07T07:30:19Z</time></trkpt><trkpt lat="44.40394148315877" lon="8.979301097049488"><ele>62.0</ele><time>2026-04-07T07:30:21Z</time></trkpt><trkpt lat="44.40405900754622" lon="8.979295351064094"><ele>62.0</ele><time>2026-04-07T07:30:23Z</time></trkpt><trkpt lat="44.40414320710457" lon="8.979276799010634"><ele>61.400000000000006</ele><time>2026-04-07T07:30:25Z</time></trkpt><trkpt lat="44.40423697605185" lon="8.979246853902978"><ele>60.800000000000004</ele><time>2026-04-07T07:30:27Z</time></trkpt><trkpt lat="44.40434203094272" lon="8.979188316723265"><ele>60.2</ele><time>2026-04-07T07:30:29Z</time></trkpt><trkpt lat="44.40444069234457" lon="8.979121369674072"><ele>59.6</ele><time>2026-04-07T07:30:31Z</time></trkpt><trkpt lat="44.40454179473335" lon="8.979092461289"><ele>59.0</ele><time>2026-04-07T07:30:33Z</time></trkpt><trkpt lat="44.40464675904455" lon="8.979101358720301"><ele>57.6</ele><time>2026-04-07T07:30:35Z</time></trkpt><trkpt lat="44.40475565060528" lon="8.979116919423328"><ele>56.2</ele><time>2026-04-07T07:30:37Z</time></trkpt><trkpt lat="44.404836386493855" lon="8.979125033073302"><ele>54.800000000000004</ele><time>2026-04-07T07:30:39Z</time></trkpt><trkpt lat="44.40491901122053" lon="8.979137020819106"><ele>53.400000000000006</ele><time>2026-04-07T07:30:41Z</time></trkpt><trkpt lat="44.40500874467462" lon="8.979165081925087"><ele>52.0</ele><time>2026-04-07T07:30:43Z</time></trkpt><trkpt lat="44.40509503264796" lon="8.979118812763117"><ele>52.0</ele><time>2026-04-07T07:30:45Z</time></trkpt><trkpt lat="44.40511814257378" lon="8.979007865869223"><ele>52.0</ele><time>2026-04-07T07:30:46Z</time></trkpt><trkpt lat="44.40513157211834" lon="8.978873949039107"><ele>52.0</ele><time>2026-04-07T07:30:48Z</time></trkpt><trkpt lat="44.40518612913652" lon="8.978791017922955"><ele>52.0</ele><time>2026-04-07T07:30:52Z</time></trkpt><trkpt lat="44.405264169280315" lon="8.978702187291042"><ele>52.0</ele><time>2026-04-07T07:30:54Z</time></trkpt><trkpt lat="44.405307146091644" lon="8.978578087241674"><ele>51.99999999999999</ele><time>2026-04-07T07:30:56Z</time></trkpt><trkpt lat="44.40533746073481" lon="8.978490551132358"><ele>52.0</ele><time>2026-04-07T07:30:57Z</time></trkpt><trkpt lat="44.405373382334666" lon="8.978386824650473"><ele>52.0</ele><time>2026-04-07T07:30:58Z</time></trkpt><trkpt lat="44.40540116594226" lon="8.978306597153448"><ele>52.0</ele><time>2026-04-07T07:30:59Z</time></trkpt><trkpt lat="44.405451692802224" lon="8.978148452731176"><ele>51.99999999999999</ele><time>2026-04-07T07:31:01Z</time></trkpt><trkpt lat="44.40548649954171" lon="8.97800308488207"><ele>52.0</ele><time>2026-04-07T07:31:03Z</time></trkpt><trkpt lat="44.40554202735289" lon="8.977872232946405"><ele>54.0</ele><time>2026-04-07T07:31:05Z</time></trkpt><trkpt lat="44.4055406321607" lon="8.977783119807631"><ele>56.0</ele><time>2026-04-07T07:31:07Z</time></trkpt><trkpt lat="44.40573285642396" lon="8.9777666004874"><ele>58.0</ele><time>2026-04-07T07:31:11Z</time></trkpt><trkpt lat="44.40584537057529" lon="8.977773208974133"><ele>60.0</ele><time>2026-04-07T07:31:12Z</time></trkpt><trkpt lat="44.40596532840067" lon="8.977786304708427"><ele>60.0</ele><time>2026-04-07T07:31:13Z</time></trkpt><trkpt lat="44.40608315745954" lon="8.977773665129739"><ele>60.0</ele><time>2026-04-07T07:31:13.999Z</time></trkpt><trkpt lat="44.40620966265284" lon="8.977770969942814"><ele>60.0</ele><time>2026-04-07T07:31:14.999Z</time></trkpt><trkpt lat="44.40634218825083" lon="8.977771976014447"><ele>60.0</ele><time>2026-04-07T07:31:15.999Z</time></trkpt><trkpt lat="44.40649205513441" lon="8.977776775190641"><ele>60.5</ele><time>2026-04-07T07:31:16.999Z</time></trkpt><trkpt lat="44.40663006424162" lon="8.97777207806212"><ele>61.0</ele><time>2026-04-07T07:31:17.999Z</time></trkpt><trkpt lat="44.406754011892055" lon="8.977764162040158"><ele>61.5</ele><time>2026-04-07T07:31:18.999Z</time></trkpt><trkpt lat="44.4068678864314" lon="8.977762309663431"><ele>62.0</ele><time>2026-04-07T07:31:19.999Z</time></trkpt><trkpt lat="44.406968771734206" lon="8.977758931745408"><ele>62.0</ele><time>2026-04-07T07:31:20.999Z</time></trkpt><trkpt lat="44.40706787642052" lon="8.977752310251631"><ele>62.0</ele><time>2026-04-07T07:31:21.999Z</time></trkpt><trkpt lat="44.40717435871772" lon="8.977756079835167"><ele>62.0</ele><time>2026-04-07T07:31:22.999Z</time></trkpt><trkpt lat="44.407265266259564" lon="8.977748268053707"><ele>62.0</ele><time>2026-04-07T07:31:23.999Z</time></trkpt><trkpt lat="44.40732970926771" lon="8.97775619834178"><ele>62.0</ele><time>2026-04-07T07:31:24.999Z</time></trkpt><trkpt lat="44.40742610760618" lon="8.977761130827028"><ele>62.0</ele><time>2026-04-07T07:31:26.999Z</time></trkpt><trkpt lat="44.40753184601657" lon="8.977979503640158"><ele>62.0</ele><time>2026-04-07T07:31:29.999Z</time></trkpt><trkpt lat="44.40749704451997" lon="8.978063538427264"><ele>62.0</ele><time>2026-04-07T07:31:31.999Z</time></trkpt><trkpt lat="44.40747144955721" lon="8.978279235324143"><ele>62.0</ele><time>2026-04-07T07:39:42.999Z</time></trkpt><trkpt lat="44.40743051172506" lon="8.978396370875236"><ele>62.0</ele><time>2026-04-07T07:39:43.999Z</time></trkpt><trkpt lat="44.40736048729466" lon="8.978531771478476"><ele>62.0</ele><time>2026-04-07T07:39:44.999Z</time></trkpt><trkpt lat="44.40729006887657" lon="8.978664371265102"><ele>62.0</ele><time>2026-04-07T07:39:45.999Z</time></trkpt><trkpt lat="44.40722349421562" lon="8.978800678810327"><ele>62.0</ele><time>2026-04-07T07:39:46.999Z</time></trkpt><trkpt lat="44.40715733355354" lon="8.978930610148927"><ele>61.0</ele><time>2026-04-07T07:39:47.999Z</time></trkpt><trkpt lat="44.40708421995994" lon="8.979068577239119"><ele>60.0</ele><time>2026-04-07T07:39:48.999Z</time></trkpt><trkpt lat="44.40701236891248" lon="8.979206509196803"><ele>59.0</ele><time>2026-04-07T07:39:49.999Z</time></trkpt><trkpt lat="44.406938773842" lon="8.97933103963365"><ele>58.0</ele><time>2026-04-07T07:39:50.999Z</time></trkpt><trkpt lat="44.40686167380933" lon="8.97944804639909"><ele>58.0</ele><time>2026-04-07T07:39:51.999Z</time></trkpt><trkpt lat="44.406787726836264" lon="8.979560813393375"><ele>58.0</ele><time>2026-04-07T07:39:52.999Z</time></trkpt><trkpt lat="44.406703540376014" lon="8.979677870034154"><ele>58.0</ele><time>2026-04-07T07:39:53.999Z</time></trkpt><trkpt lat="44.40661274823588" lon="8.979786071014413"><ele>58.0</ele><time>2026-04-07T07:39:54.999Z</time></trkpt><trkpt lat="44.40651620729242" lon="8.979891708809681"><ele>58.0</ele><time>2026-04-07T07:39:55.999Z</time></trkpt><trkpt lat="44.40642850319548" lon="8.979989165765561"><ele>58.0</ele><time>2026-04-07T07:39:56.999Z</time></trkpt><trkpt lat="44.406348605610404" lon="8.980073406142587"><ele>58.0</ele><time>2026-04-07T07:39:57.999Z</time></trkpt><trkpt lat="44.406262180665756" lon="8.980157445400764"><ele>58.0</ele><time>2026-04-07T07:39:58.999Z</time></trkpt><trkpt lat="44.406179094601164" lon="8.98024537909994"><ele>58.0</ele><time>2026-04-07T07:39:59.999Z</time></trkpt><trkpt lat="44.406095667662164" lon="8.980337142327446"><ele>57.599999999999994</ele><time>2026-04-07T07:40:00.999Z</time></trkpt><trkpt lat="44.4060040646396" lon="8.9804283661038"><ele>57.199999999999996</ele><time>2026-04-07T07:40:01.999Z</time></trkpt><trkpt lat="44.40591028504321" lon="8.980517469286866"><ele>56.8</ele><time>2026-04-07T07:40:02.999Z</time></trkpt><trkpt lat="44.40582472861181" lon="8.98060106029517"><ele>56.4</ele><time>2026-04-07T07:40:03.999Z</time></trkpt><trkpt lat="44.405745105449064" lon="8.980671857364227"><ele>56.0</ele><time>2026-04-07T07:40:04.999Z</time></trkpt><trkpt lat="44.405674035850666" lon="8.980741200011638"><ele>56.00000000000001</ele><time>2026-04-07T07:40:05.999Z</time></trkpt><trkpt lat="44.405608265961305" lon="8.980801521522924"><ele>56.0</ele><time>2026-04-07T07:40:06.999Z</time></trkpt><trkpt lat="44.40554747430939" lon="8.980856982458988"><ele>56.0</ele><time>2026-04-07T07:40:07.999Z</time></trkpt><trkpt lat="44.40548098807163" lon="8.980923911503075"><ele>56.0</ele><time>2026-04-07T07:40:08.999Z</time></trkpt><trkpt lat="44.40540512084859" lon="8.98100216660883"><ele>56.00000000000001</ele><time>2026-04-07T07:40:09.999Z</time></trkpt><trkpt lat="44.405324148210646" lon="8.981082174480235"><ele>56.0</ele><time>2026-04-07T07:40:10.999Z</time></trkpt><trkpt lat="44.4052368860994" lon="8.9811669596101"><ele>55.4</ele><time>2026-04-07T07:40:11.999Z</time></trkpt><trkpt lat="44.40514698682128" lon="8.981255926392217"><ele>54.8</ele><time>2026-04-07T07:40:12.999Z</time></trkpt><trkpt lat="44.40505544415168" lon="8.98134846188564"><ele>54.199999999999996</ele><time>2026-04-07T07:40:13.999Z</time></trkpt><trkpt lat="44.40496972992219" lon="8.9814359192342"><ele>53.599999999999994</ele><time>2026-04-07T07:40:14.999Z</time></trkpt><trkpt lat="44.40488979217082" lon="8.981522478509163"><ele>53.0</ele><time>2026-04-07T07:40:15.999Z</time></trkpt><trkpt lat="44.4048089852423" lon="8.981605094383832"><ele>52.0</ele><time>2026-04-07T07:40:16.999Z</time></trkpt><trkpt lat="44.40472054614377" lon="8.981691196618781"><ele>51.0</ele><time>2026-04-07T07:40:17.999Z</time></trkpt><trkpt lat="44.404626990162846" lon="8.98178313368084"><ele>50.0</ele><time>2026-04-07T07:40:18.999Z</time></trkpt><trkpt lat="44.404531505614614" lon="8.981879530419782"><ele>49.0</ele><time>2026-04-07T07:40:19.999Z</time></trkpt><trkpt lat="44.40444880118692" lon="8.981958370939212"><ele>48.0</ele><time>2026-04-07T07:40:20.999Z</time></trkpt><trkpt lat="44.40436939307642" lon="8.982030930469296"><ele>48.0</ele><time>2026-04-07T07:40:21.999Z</time></trkpt><trkpt lat="44.404292462841454" lon="8.982105990470002"><ele>48.0</ele><time>2026-04-07T07:40:22.999Z</time></trkpt><trkpt lat="44.404214735092275" lon="8.982180960098502"><ele>48.0</ele><time>2026-04-07T07:40:23.999Z</time></trkpt><trkpt lat="44.40413767766422" lon="8.98225766235841"><ele>48.0</ele><time>2026-04-07T07:40:24.999Z</time></trkpt><trkpt lat="44.404064345616355" lon="8.982324369632005"><ele>48.0</ele><time>2026-04-07T07:40:25.999Z</time></trkpt><trkpt lat="44.4039874655602" lon="8.982393807212896"><ele>48.0</ele><time>2026-04-07T07:40:26.999Z</time></trkpt><trkpt lat="44.40390920957106" lon="8.982463067322554"><ele>48.0</ele><time>2026-04-07T07:40:27.999Z</time></trkpt><trkpt lat="44.40382900158353" lon="8.98253831378493"><ele>48.0</ele><time>2026-04-07T07:40:28.999Z</time></trkpt><trkpt lat="44.40376120467432" lon="8.98260837507458"><ele>48.0</ele><time>2026-04-07T07:40:29.999Z</time></trkpt><trkpt lat="44.40369439315816" lon="8.982669258656545"><ele>48.0</ele><time>2026-04-07T07:40:30.999Z</time></trkpt><trkpt lat="44.40363252319648" lon="8.982733599443732"><ele>48.0</ele><time>2026-04-07T07:40:31.999Z</time></trkpt><trkpt lat="44.40356545204927" lon="8.982805046957107"><ele>48.5</ele><time>2026-04-07T07:40:32.999Z</time></trkpt><trkpt lat="44.40350416034847" lon="8.982877189589686"><ele>49.0</ele><time>2026-04-07T07:40:33.999Z</time></trkpt><trkpt lat="44.4034452040776" lon="8.982942589886289"><ele>49.5</ele><time>2026-04-07T07:40:34.999Z</time></trkpt><trkpt lat="44.403397856886926" lon="8.983016507986221"><ele>50.0</ele><time>2026-04-07T07:40:35.999Z</time></trkpt><trkpt lat="44.40334409640611" lon="8.983087270122184"><ele>50.5</ele><time>2026-04-07T07:40:36.999Z</time></trkpt><trkpt lat="44.40329858940633" lon="8.983153594422948"><ele>51.0</ele><time>2026-04-07T07:40:38Z</time></trkpt><trkpt lat="44.403212723783646" lon="8.98328181017804"><ele>50.0</ele><time>2026-04-07T07:40:40Z</time></trkpt><trkpt lat="44.40316881670943" lon="8.983354402632813"><ele>49.0</ele><time>2026-04-07T07:40:41Z</time></trkpt><trkpt lat="44.40312555362358" lon="8.983427126528683"><ele>48.0</ele><time>2026-04-07T07:40:42Z</time></trkpt><trkpt lat="44.403075681611995" lon="8.983520684563564"><ele>47.0</ele><time>2026-04-07T07:40:43Z</time></trkpt><trkpt lat="44.40300548196411" lon="8.983653153797967"><ele>46.0</ele><time>2026-04-07T07:40:44Z</time></trkpt><trkpt lat="44.40292047758041" lon="8.983784945992687"><ele>45.333333333333336</ele><time>2026-04-07T07:40:45Z</time></trkpt><trkpt lat="44.40286837355999" lon="8.98388829960739"><ele>44.66666666666667</ele><time>2026-04-07T07:40:46Z</time></trkpt><trkpt lat="44.402822196960855" lon="8.98398496561882"><ele>44.0</ele><time>2026-04-07T07:40:47Z</time></trkpt><trkpt lat="44.40278749806335" lon="8.984072336469822"><ele>43.333333333333336</ele><time>2026-04-07T07:40:48Z</time></trkpt><trkpt lat="44.4027569106091" lon="8.984153521843739"><ele>42.666666666666664</ele><time>2026-04-07T07:40:49Z</time></trkpt><trkpt lat="44.40272773917962" lon="8.98424019489735"><ele>42.0</ele><time>2026-04-07T07:40:50Z</time></trkpt><trkpt lat="44.4026651473239" lon="8.984414116717458"><ele>41.2</ele><time>2026-04-07T07:40:52Z</time></trkpt><trkpt lat="44.402618943449106" lon="8.984556662743511"><ele>40.400000000000006</ele><time>2026-04-07T07:40:53Z</time></trkpt><trkpt lat="44.40258743790763" lon="8.984658706404781"><ele>39.599999999999994</ele><time>2026-04-07T07:40:54Z</time></trkpt><trkpt lat="44.402560221017396" lon="8.984741239878472"><ele>38.8</ele><time>2026-04-07T07:40:55Z</time></trkpt><trkpt lat="44.402517815477474" lon="8.984874947676996"><ele>38.0</ele><time>2026-04-07T07:40:57Z</time></trkpt><trkpt lat="44.402450575250825" lon="8.985002559803384"><ele>36.83333333333333</ele><time>2026-04-07T07:40:59Z</time></trkpt><trkpt lat="44.40240999920249" lon="8.98510377151928"><ele>35.666666666666664</ele><time>2026-04-07T07:41:00Z</time></trkpt><trkpt lat="44.40236436255721" lon="8.985216836711443"><ele>34.5</ele><time>2026-04-07T07:41:01Z</time></trkpt><trkpt lat="44.402320233536116" lon="8.985331101673339"><ele>33.333333333333336</ele><time>2026-04-07T07:41:02Z</time></trkpt><trkpt lat="44.40228139920016" lon="8.985430118911939"><ele>32.16666666666667</ele><time>2026-04-07T07:41:03Z</time></trkpt><trkpt lat="44.40223214677548" lon="8.985534841515769"><ele>31.0</ele><time>2026-04-07T07:41:04Z</time></trkpt><trkpt lat="44.40219072825062" lon="8.9856387254539"><ele>30.0</ele><time>2026-04-07T07:41:05Z</time></trkpt><trkpt lat="44.402151076977" lon="8.98573958140553"><ele>29.0</ele><time>2026-04-07T07:41:06Z</time></trkpt><trkpt lat="44.402107948554665" lon="8.98584334097493"><ele>28.0</ele><time>2026-04-07T07:41:07Z</time></trkpt><trkpt lat="44.40205700221991" lon="8.985947916545024"><ele>27.0</ele><time>2026-04-07T07:41:08Z</time></trkpt><trkpt lat="44.40200330150383" lon="8.986063171468937"><ele>26.0</ele><time>2026-04-07T07:41:09Z</time></trkpt><trkpt lat="44.40194940644891" lon="8.986186170333452"><ele>27.0</ele><time>2026-04-07T07:41:10Z</time></trkpt><trkpt lat="44.40189425246987" lon="8.986318455628792"><ele>28.0</ele><time>2026-04-07T07:41:11Z</time></trkpt><trkpt lat="44.40184029000465" lon="8.986454205056441"><ele>29.0</ele><time>2026-04-07T07:41:12Z</time></trkpt><trkpt lat="44.40178189899353" lon="8.986597797321545"><ele>30.0</ele><time>2026-04-07T07:41:13Z</time></trkpt><trkpt lat="44.40172085802913" lon="8.986743287672777"><ele>30.0</ele><time>2026-04-07T07:41:14Z</time></trkpt><trkpt lat="44.401659829847" lon="8.986887437003254"><ele>30.0</ele><time>2026-04-07T07:41:15Z</time></trkpt><trkpt lat="44.40160085799833" lon="8.987031600479297"><ele>30.0</ele><time>2026-04-07T07:41:16Z</time></trkpt><trkpt lat="44.401540984364935" lon="8.987179389621899"><ele>30.0</ele><time>2026-04-07T07:41:17Z</time></trkpt><trkpt lat="44.40146895850571" lon="8.987323821578613"><ele>30.0</ele><time>2026-04-07T07:41:18Z</time></trkpt><trkpt lat="44.40138606754474" lon="8.987450096653767"><ele>30.0</ele><time>2026-04-07T07:41:19Z</time></trkpt><trkpt lat="44.401296013642295" lon="8.98755893280762"><ele>30.0</ele><time>2026-04-07T07:41:20Z</time></trkpt><trkpt lat="44.40119912131361" lon="8.987658938546765"><ele>30.0</ele><time>2026-04-07T07:41:21Z</time></trkpt><trkpt lat="44.401096817734945" lon="8.9877408524673"><ele>33.25</ele><time>2026-04-07T07:41:22Z</time></trkpt><trkpt lat="44.40098536955626" lon="8.987798485255412"><ele>36.5</ele><time>2026-04-07T07:41:23Z</time></trkpt><trkpt lat="44.400869088609255" lon="8.987841178263723"><ele>39.75</ele><time>2026-04-07T07:41:24Z</time></trkpt><trkpt lat="44.400756492181834" lon="8.987884957281718"><ele>43.0</ele><time>2026-04-07T07:41:25Z</time></trkpt><trkpt lat="44.40064600241686" lon="8.98792870972457"><ele>43.0</ele><time>2026-04-07T07:41:26Z</time></trkpt><trkpt lat="44.40053828282666" lon="8.98797488108671"><ele>43.0</ele><time>2026-04-07T07:41:27Z</time></trkpt><trkpt lat="44.40043245127647" lon="8.988012940548375"><ele>43.0</ele><time>2026-04-07T07:41:28Z</time></trkpt><trkpt lat="44.400330674323" lon="8.988056125262895"><ele>43.0</ele><time>2026-04-07T07:41:29Z</time></trkpt><trkpt lat="44.400235916031434" lon="8.988110397699483"><ele>43.0</ele><time>2026-04-07T07:41:30Z</time></trkpt><trkpt lat="44.400142522359815" lon="8.988170425754213"><ele>41.4</ele><time>2026-04-07T07:41:31Z</time></trkpt><trkpt lat="44.40005281845336" lon="8.988236191030056"><ele>39.8</ele><time>2026-04-07T07:41:32Z</time></trkpt><trkpt lat="44.3999697522681" lon="8.988319219551636"><ele>38.2</ele><time>2026-04-07T07:41:33Z</time></trkpt><trkpt lat="44.39989819714578" lon="8.988420810642333"><ele>36.6</ele><time>2026-04-07T07:41:34Z</time></trkpt><trkpt lat="44.39984201697724" lon="8.98852009423331"><ele>35.0</ele><time>2026-04-07T07:41:35Z</time></trkpt><trkpt lat="44.39979876054797" lon="8.988597534300274"><ele>34.0</ele><time>2026-04-07T07:41:36Z</time></trkpt><trkpt lat="44.399751917649176" lon="8.988669018474567"><ele>33.0</ele><time>2026-04-07T07:41:38Z</time></trkpt><trkpt lat="44.39966040179927" lon="8.988828135487857"><ele>32.0</ele><time>2026-04-07T07:41:54.999Z</time></trkpt><trkpt lat="44.39959462273118" lon="8.988914175810782"><ele>31.0</ele><time>2026-04-07T07:41:55.999Z</time></trkpt><trkpt lat="44.399530744337085" lon="8.989015969709"><ele>30.0</ele><time>2026-04-07T07:41:56.999Z</time></trkpt><trkpt lat="44.39947377231793" lon="8.989102272325294"><ele>30.0</ele><time>2026-04-07T07:41:57.999Z</time></trkpt><trkpt lat="44.39942131691456" lon="8.989171090910942"><ele>30.0</ele><time>2026-04-07T07:41:58.999Z</time></trkpt><trkpt lat="44.39938108820528" lon="8.989243640217106"><ele>30.0</ele><time>2026-04-07T07:41:59.999Z</time></trkpt><trkpt lat="44.399329596651405" lon="8.98931911995719"><ele>30.0</ele><time>2026-04-07T07:42:00.999Z</time></trkpt><trkpt lat="44.3992794880478" lon="8.989408051503581"><ele>30.0</ele><time>2026-04-07T07:42:01.999Z</time></trkpt><trkpt lat="44.39922994630903" lon="8.98949914436532"><ele>30.0</ele><time>2026-04-07T07:42:02.999Z</time></trkpt><trkpt lat="44.39917979840842" lon="8.989584704963546"><ele>32.0</ele><time>2026-04-07T07:42:03.999Z</time></trkpt><trkpt lat="44.39912910059999" lon="8.989667969105597"><ele>34.0</ele><time>2026-04-07T07:42:04.999Z</time></trkpt><trkpt lat="44.399079308424135" lon="8.989759494716326"><ele>36.0</ele><time>2026-04-07T07:42:05.999Z</time></trkpt><trkpt lat="44.399019982772195" lon="8.98987626683553"><ele>38.0</ele><time>2026-04-07T07:42:06.999Z</time></trkpt><trkpt lat="44.398971070946644" lon="8.989976574225343"><ele>40.0</ele><time>2026-04-07T07:42:07.999Z</time></trkpt><trkpt lat="44.398913569408556" lon="8.990091440606474"><ele>40.8</ele><time>2026-04-07T07:42:08.999Z</time></trkpt><trkpt lat="44.39886692584154" lon="8.990220749579354"><ele>41.6</ele><time>2026-04-07T07:42:09.999Z</time></trkpt><trkpt lat="44.398828269881285" lon="8.990351790201116"><ele>42.400000000000006</ele><time>2026-04-07T07:42:10.999Z</time></trkpt><trkpt lat="44.39880086237522" lon="8.990475681924176"><ele>43.2</ele><time>2026-04-07T07:42:11.999Z</time></trkpt><trkpt lat="44.398778180284374" lon="8.99060597686852"><ele>44.0</ele><time>2026-04-07T07:42:12.999Z</time></trkpt><trkpt lat="44.398757826331405" lon="8.990741952383784"><ele>42.400000000000006</ele><time>2026-04-07T07:42:13.999Z</time></trkpt><trkpt lat="44.398745277390034" lon="8.99088734703966"><ele>40.800000000000004</ele><time>2026-04-07T07:42:14.999Z</time></trkpt><trkpt lat="44.39873206895689" lon="8.991037747982121"><ele>39.2</ele><time>2026-04-07T07:42:15.999Z</time></trkpt><trkpt lat="44.39872406516007" lon="8.991188221866105"><ele>37.6</ele><time>2026-04-07T07:42:16.999Z</time></trkpt><trkpt lat="44.39871599667877" lon="8.99132677665881"><ele>36.0</ele><time>2026-04-07T07:42:17.999Z</time></trkpt><trkpt lat="44.39870817783717" lon="8.99147021922667"><ele>36.0</ele><time>2026-04-07T07:42:18.999Z</time></trkpt><trkpt lat="44.398700714870024" lon="8.991623808123718"><ele>36.0</ele><time>2026-04-07T07:42:19.999Z</time></trkpt><trkpt lat="44.39869636805967" lon="8.991773827446208"><ele>36.0</ele><time>2026-04-07T07:42:20.999Z</time></trkpt><trkpt lat="44.398690876262414" lon="8.991929734744545"><ele>36.0</ele><time>2026-04-07T07:42:21.999Z</time></trkpt><trkpt lat="44.39868682735403" lon="8.992112154282333"><ele>35.75</ele><time>2026-04-07T07:42:22.999Z</time></trkpt><trkpt lat="44.3986819885121" lon="8.992290367296699"><ele>35.5</ele><time>2026-04-07T07:42:23.999Z</time></trkpt><trkpt lat="44.39867233393725" lon="8.99247515038977"><ele>35.25</ele><time>2026-04-07T07:42:24.999Z</time></trkpt><trkpt lat="44.39865195216645" lon="8.992658923012922"><ele>35.0</ele><time>2026-04-07T07:42:25.999Z</time></trkpt><trkpt lat="44.39861350380865" lon="8.992824260008428"><ele>36.0</ele><time>2026-04-07T07:42:26.999Z</time></trkpt><trkpt lat="44.39855385536584" lon="8.99298964591966"><ele>37.0</ele><time>2026-04-07T07:42:27.999Z</time></trkpt><trkpt lat="44.398472940358886" lon="8.993148923892226"><ele>38.0</ele><time>2026-04-07T07:42:28.999Z</time></trkpt><trkpt lat="44.398374243236155" lon="8.993293560322925"><ele>39.0</ele><time>2026-04-07T07:42:29.999Z</time></trkpt><trkpt lat="44.39825969957805" lon="8.993410086661246"><ele>41.5</ele><time>2026-04-07T07:42:30.999Z</time></trkpt><trkpt lat="44.39814292855008" lon="8.993502986053263"><ele>44.0</ele><time>2026-04-07T07:42:31.999Z</time></trkpt><trkpt lat="44.398010774508286" lon="8.993554366181613"><ele>46.5</ele><time>2026-04-07T07:42:32.999Z</time></trkpt><trkpt lat="44.39787422594213" lon="8.993578208506836"><ele>49.0</ele><time>2026-04-07T07:42:33.999Z</time></trkpt><trkpt lat="44.39773740293496" lon="8.993572401935594"><ele>49.0</ele><time>2026-04-07T07:42:34.999Z</time></trkpt><trkpt lat="44.397599659184664" lon="8.993548962177858"><ele>49.0</ele><time>2026-04-07T07:42:35.999Z</time></trkpt><trkpt lat="44.397462280653876" lon="8.993524259627302"><ele>49.0</ele><time>2026-04-07T07:42:36.999Z</time></trkpt><trkpt lat="44.397318546234835" lon="8.993500238432258"><ele>49.0</ele><time>2026-04-07T07:42:37.999Z</time></trkpt><trkpt lat="44.39716879372583" lon="8.993478065859579"><ele>50.0</ele><time>2026-04-07T07:42:38.999Z</time></trkpt><trkpt lat="44.39703308787521" lon="8.993461572262639"><ele>51.0</ele><time>2026-04-07T07:42:39.999Z</time></trkpt><trkpt lat="44.39690006453064" lon="8.993446042137913"><ele>52.0</ele><time>2026-04-07T07:42:40.999Z</time></trkpt><trkpt lat="44.39677064144583" lon="8.993434286133018"><ele>53.0</ele><time>2026-04-07T07:42:41.999Z</time></trkpt><trkpt lat="44.396636247895" lon="8.993416675002747"><ele>53.0</ele><time>2026-04-07T07:42:42.999Z</time></trkpt><trkpt lat="44.39649991062187" lon="8.993398793392336"><ele>53.0</ele><time>2026-04-07T07:42:44Z</time></trkpt><trkpt lat="44.39636017760502" lon="8.993383228775514"><ele>53.0</ele><time>2026-04-07T07:42:45Z</time></trkpt><trkpt lat="44.39621966461544" lon="8.993368424030256"><ele>53.0</ele><time>2026-04-07T07:42:46Z</time></trkpt><trkpt lat="44.3960852581954" lon="8.993354206603538"><ele>52.5</ele><time>2026-04-07T07:42:47Z</time></trkpt><trkpt lat="44.39596008991038" lon="8.993341258519054"><ele>52.0</ele><time>2026-04-07T07:42:48Z</time></trkpt><trkpt lat="44.395831342733466" lon="8.993347440302625"><ele>51.5</ele><time>2026-04-07T07:42:49Z</time></trkpt><trkpt lat="44.39570621967948" lon="8.993377018471978"><ele>51.0</ele><time>2026-04-07T07:42:50Z</time></trkpt><trkpt lat="44.39558486742455" lon="8.993419235654894"><ele>51.0</ele><time>2026-04-07T07:42:51Z</time></trkpt><trkpt lat="44.395463613589506" lon="8.9934815030858"><ele>51.0</ele><time>2026-04-07T07:42:52Z</time></trkpt><trkpt lat="44.39534420305082" lon="8.993559874983719"><ele>51.0</ele><time>2026-04-07T07:42:53Z</time></trkpt><trkpt lat="44.395227321569365" lon="8.993663722681505"><ele>51.0</ele><time>2026-04-07T07:42:54Z</time></trkpt><trkpt lat="44.395117509860476" lon="8.993794747156338"><ele>51.0</ele><time>2026-04-07T07:42:55Z</time></trkpt><trkpt lat="44.39502074136059" lon="8.993952151826921"><ele>51.0</ele><time>2026-04-07T07:42:56Z</time></trkpt><trkpt lat="44.39493269397934" lon="8.99409208336484"><ele>51.0</ele><time>2026-04-07T07:42:57Z</time></trkpt><trkpt lat="44.394872596318336" lon="8.994243859363122"><ele>51.0</ele><time>2026-04-07T07:42:58Z</time></trkpt><trkpt lat="44.394822221907646" lon="8.99440142448762"><ele>52.0</ele><time>2026-04-07T07:42:59Z</time></trkpt><trkpt lat="44.39477848521947" lon="8.994570585264423"><ele>53.0</ele><time>2026-04-07T07:43:00Z</time></trkpt><trkpt lat="44.39474427775888" lon="8.994745640888128"><ele>54.0</ele><time>2026-04-07T07:43:01Z</time></trkpt><trkpt lat="44.39471925193149" lon="8.994929237823207"><ele>55.0</ele><time>2026-04-07T07:43:02Z</time></trkpt><trkpt lat="44.39468989163979" lon="8.995123922062199"><ele>53.75</ele><time>2026-04-07T07:43:03Z</time></trkpt><trkpt lat="44.3946630394247" lon="8.995315650683242"><ele>52.5</ele><time>2026-04-07T07:43:04Z</time></trkpt><trkpt lat="44.394635580360834" lon="8.995502578743231"><ele>51.25</ele><time>2026-04-07T07:43:05Z</time></trkpt><trkpt lat="44.39461182206025" lon="8.995693411247359"><ele>50.0</ele><time>2026-04-07T07:43:06Z</time></trkpt><trkpt lat="44.39458626949205" lon="8.995882927383988"><ele>48.75</ele><time>2026-04-07T07:43:07Z</time></trkpt><trkpt lat="44.39455864271338" lon="8.996060240525365"><ele>47.5</ele><time>2026-04-07T07:43:08Z</time></trkpt><trkpt lat="44.394531890366494" lon="8.996239599063877"><ele>46.25</ele><time>2026-04-07T07:43:09Z</time></trkpt><trkpt lat="44.39450417722962" lon="8.996419530783301"><ele>45.0</ele><time>2026-04-07T07:43:10Z</time></trkpt><trkpt lat="44.394478739155446" lon="8.996601175175279"><ele>44.75</ele><time>2026-04-07T07:43:11Z</time></trkpt><trkpt lat="44.39445413902824" lon="8.996780165744543"><ele>44.5</ele><time>2026-04-07T07:43:12Z</time></trkpt><trkpt lat="44.39443137026212" lon="8.996960685293605"><ele>44.25</ele><time>2026-04-07T07:43:13Z</time></trkpt><trkpt lat="44.39440857117912" lon="8.997141424937757"><ele>44.0</ele><time>2026-04-07T07:43:14Z</time></trkpt><trkpt lat="44.394386099887626" lon="8.997328934528268"><ele>42.5</ele><time>2026-04-07T07:43:15Z</time></trkpt><trkpt lat="44.39436158314093" lon="8.997520636224737"><ele>41.0</ele><time>2026-04-07T07:43:16Z</time></trkpt><trkpt lat="44.394329123649875" lon="8.997718010779016"><ele>39.5</ele><time>2026-04-07T07:43:17Z</time></trkpt><trkpt lat="44.394302189011256" lon="8.997905531024474"><ele>38.0</ele><time>2026-04-07T07:43:18Z</time></trkpt><trkpt lat="44.394271251067316" lon="8.99809585157253"><ele>38.0</ele><time>2026-04-07T07:43:19Z</time></trkpt><trkpt lat="44.39424157134014" lon="8.998295148444113"><ele>38.0</ele><time>2026-04-07T07:43:20Z</time></trkpt><trkpt lat="44.39421252017177" lon="8.99849923746343"><ele>38.0</ele><time>2026-04-07T07:43:21Z</time></trkpt><trkpt lat="44.39418341882339" lon="8.998693134351123"><ele>38.0</ele><time>2026-04-07T07:43:22Z</time></trkpt><trkpt lat="44.39415392826828" lon="8.998880229124731"><ele>38.5</ele><time>2026-04-07T07:43:23Z</time></trkpt><trkpt lat="44.39412226937846" lon="8.999071944195615"><ele>39.0</ele><time>2026-04-07T07:43:24Z</time></trkpt><trkpt lat="44.394094568807084" lon="8.999274789630174"><ele>39.5</ele><time>2026-04-07T07:43:25Z</time></trkpt><trkpt lat="44.39408081102905" lon="8.99948677286114"><ele>40.0</ele><time>2026-04-07T07:43:26Z</time></trkpt><trkpt lat="44.394080837578215" lon="8.999686516244084"><ele>42.0</ele><time>2026-04-07T07:43:27Z</time></trkpt><trkpt lat="44.39408737559294" lon="8.999873649281348"><ele>44.0</ele><time>2026-04-07T07:43:28Z</time></trkpt><trkpt lat="44.39410265070829" lon="9.000061872346556"><ele>46.0</ele><time>2026-04-07T07:43:29Z</time></trkpt><trkpt lat="44.39412758576598" lon="9.000255474406739"><ele>48.0</ele><time>2026-04-07T07:43:30Z</time></trkpt><trkpt lat="44.39416424201559" lon="9.000450773023127"><ele>48.0</ele><time>2026-04-07T07:43:31Z</time></trkpt><trkpt lat="44.39421220988703" lon="9.000640945472092"><ele>48.0</ele><time>2026-04-07T07:43:32Z</time></trkpt><trkpt lat="44.39427140507899" lon="9.000824425491842"><ele>48.0</ele><time>2026-04-07T07:43:33Z</time></trkpt><trkpt lat="44.394336205324265" lon="9.00100617096592"><ele>48.0</ele><time>2026-04-07T07:43:34Z</time></trkpt><trkpt lat="44.39440962601329" lon="9.001181693976218"><ele>47.75</ele><time>2026-04-07T07:43:35Z</time></trkpt><trkpt lat="44.39448616186328" lon="9.001353542861908"><ele>47.5</ele><time>2026-04-07T07:43:36Z</time></trkpt><trkpt lat="44.39456708046897" lon="9.001521064297513"><ele>47.25</ele><time>2026-04-07T07:43:37Z</time></trkpt><trkpt lat="44.39464714616999" lon="9.001679409656484"><ele>47.0</ele><time>2026-04-07T07:43:38Z</time></trkpt><trkpt lat="44.39471786618955" lon="9.001839057199911"><ele>48.25</ele><time>2026-04-07T07:43:39Z</time></trkpt><trkpt lat="44.39477855731488" lon="9.002005542316931"><ele>49.5</ele><time>2026-04-07T07:43:40Z</time></trkpt><trkpt lat="44.39481703954732" lon="9.002182688964893"><ele>50.75</ele><time>2026-04-07T07:43:41Z</time></trkpt><trkpt lat="44.39483195008939" lon="9.002365914602061"><ele>52.0</ele><time>2026-04-07T07:43:42Z</time></trkpt><trkpt lat="44.394823186256026" lon="9.002543891800396"><ele>53.25</ele><time>2026-04-07T07:43:43Z</time></trkpt><trkpt lat="44.39479978618271" lon="9.002728193823682"><ele>54.5</ele><time>2026-04-07T07:43:44Z</time></trkpt><trkpt lat="44.39477526815832" lon="9.002917700713455"><ele>55.75</ele><time>2026-04-07T07:43:45Z</time></trkpt><trkpt lat="44.39476368447878" lon="9.003113964292693"><ele>57.0</ele><time>2026-04-07T07:43:46Z</time></trkpt><trkpt lat="44.39474649363797" lon="9.003308586454567"><ele>57.0</ele><time>2026-04-07T07:43:47Z</time></trkpt><trkpt lat="44.39472360259264" lon="9.003504249373627"><ele>57.0</ele><time>2026-04-07T07:43:48Z</time></trkpt><trkpt lat="44.39470003817393" lon="9.003699848081268"><ele>57.0</ele><time>2026-04-07T07:43:49Z</time></trkpt><trkpt lat="44.39467064111118" lon="9.003897354900188"><ele>57.0</ele><time>2026-04-07T07:43:49.999Z</time></trkpt><trkpt lat="44.394634053004154" lon="9.004094968337395"><ele>52.75</ele><time>2026-04-07T07:43:50.999Z</time></trkpt><trkpt lat="44.39458899395222" lon="9.004288019411895"><ele>48.5</ele><time>2026-04-07T07:43:51.999Z</time></trkpt><trkpt lat="44.394543342965676" lon="9.004461060858954"><ele>44.25</ele><time>2026-04-07T07:43:52.999Z</time></trkpt><trkpt lat="44.394494765907055" lon="9.004620140632008"><ele>40.0</ele><time>2026-04-07T07:43:53.999Z</time></trkpt><trkpt lat="44.39444723434752" lon="9.004760516826058"><ele>40.0</ele><time>2026-04-07T07:43:54.999Z</time></trkpt><trkpt lat="44.39440162944667" lon="9.004883906681588"><ele>40.0</ele><time>2026-04-07T07:43:55.999Z</time></trkpt><trkpt lat="44.39438819687714" lon="9.005024165315518"><ele>40.0</ele><time>2026-04-07T07:43:56.999Z</time></trkpt><trkpt lat="44.39434420466112" lon="9.005143289077052"><ele>40.0</ele><time>2026-04-07T07:43:57.999Z</time></trkpt><trkpt lat="44.39423569765815" lon="9.005207986496547"><ele>40.0</ele><time>2026-04-07T07:43:58.999Z</time></trkpt><trkpt lat="44.394167905065814" lon="9.005309615168757"><ele>41.6</ele><time>2026-04-07T07:43:59.999Z</time></trkpt><trkpt lat="44.39409349336842" lon="9.005409144326567"><ele>43.2</ele><time>2026-04-07T07:44:00.999Z</time></trkpt><trkpt lat="44.39401678508813" lon="9.005515993003339"><ele>44.8</ele><time>2026-04-07T07:44:01.999Z</time></trkpt><trkpt lat="44.39393839814512" lon="9.005622311838936"><ele>46.4</ele><time>2026-04-07T07:44:02.999Z</time></trkpt><trkpt lat="44.393858509093725" lon="9.005730877554216"><ele>48.0</ele><time>2026-04-07T07:44:03.999Z</time></trkpt><trkpt lat="44.39378302180608" lon="9.005843394311123"><ele>49.333333333333336</ele><time>2026-04-07T07:44:04.999Z</time></trkpt><trkpt lat="44.39372060761079" lon="9.005940535041622"><ele>50.66666666666667</ele><time>2026-04-07T07:44:05.999Z</time></trkpt><trkpt lat="44.39366648189513" lon="9.006021897432815"><ele>52.0</ele><time>2026-04-07T07:44:06.999Z</time></trkpt><trkpt lat="44.393607825170925" lon="9.006105802886593"><ele>53.333333333333336</ele><time>2026-04-07T07:44:07.999Z</time></trkpt><trkpt lat="44.39353965479812" lon="9.006202412356261"><ele>54.66666666666667</ele><time>2026-04-07T07:44:08.999Z</time></trkpt><trkpt lat="44.393491983736666" lon="9.006272910106802"><ele>56.0</ele><time>2026-04-07T07:44:09.999Z</time></trkpt><trkpt lat="44.39342091213564" lon="9.006399088425917"><ele>56.00000000000001</ele><time>2026-04-07T07:44:11.999Z</time></trkpt><trkpt lat="44.393410113866615" lon="9.006520780310774"><ele>56.0</ele><time>2026-04-07T07:44:13.999Z</time></trkpt><trkpt lat="44.393442817777995" lon="9.00664927211697"><ele>56.0</ele><time>2026-04-07T07:44:15.999Z</time></trkpt><trkpt lat="44.39348914341109" lon="9.006713382873556"><ele>56.0</ele><time>2026-04-07T07:44:16.999Z</time></trkpt><trkpt lat="44.39354608324705" lon="9.006774933263227"><ele>56.00000000000001</ele><time>2026-04-07T07:44:17.999Z</time></trkpt><trkpt lat="44.393613034415885" lon="9.006841345309736"><ele>56.0</ele><time>2026-04-07T07:44:18.999Z</time></trkpt><trkpt lat="44.39368301319184" lon="9.006917261760586"><ele>57.16666666666667</ele><time>2026-04-07T07:44:19.999Z</time></trkpt><trkpt lat="44.393729321360105" lon="9.00699804407556"><ele>58.333333333333336</ele><time>2026-04-07T07:44:20.999Z</time></trkpt><trkpt lat="44.39376219960325" lon="9.007102704946025"><ele>59.5</ele><time>2026-04-07T07:44:21.999Z</time></trkpt><trkpt lat="44.39378666732935" lon="9.007230466021953"><ele>60.66666666666667</ele><time>2026-04-07T07:44:22.999Z</time></trkpt><trkpt lat="44.393804690568516" lon="9.00736748435459"><ele>61.833333333333336</ele><time>2026-04-07T07:44:23.999Z</time></trkpt><trkpt lat="44.393811438781995" lon="9.007491152407924"><ele>63.0</ele><time>2026-04-07T07:44:24.999Z</time></trkpt><trkpt lat="44.3938115922005" lon="9.007618160623721"><ele>63.0</ele><time>2026-04-07T07:44:25.999Z</time></trkpt><trkpt lat="44.3938081301013" lon="9.007744088189037"><ele>63.0</ele><time>2026-04-07T07:44:26.999Z</time></trkpt><trkpt lat="44.39379619124762" lon="9.007873439625273"><ele>63.0</ele><time>2026-04-07T07:44:27.999Z</time></trkpt><trkpt lat="44.393767748176266" lon="9.00800499403916"><ele>63.0</ele><time>2026-04-07T07:44:28.999Z</time></trkpt><trkpt lat="44.393727903065106" lon="9.008115048325887"><ele>63.0</ele><time>2026-04-07T07:44:29.999Z</time></trkpt><trkpt lat="44.39368522320183" lon="9.008221934252674"><ele>63.166666666666664</ele><time>2026-04-07T07:44:30.999Z</time></trkpt><trkpt lat="44.39364034571662" lon="9.00832991625315"><ele>63.33333333333333</ele><time>2026-04-07T07:44:31.999Z</time></trkpt><trkpt lat="44.39359683287498" lon="9.008437798974514"><ele>63.5</ele><time>2026-04-07T07:44:32.999Z</time></trkpt><trkpt lat="44.39355950963196" lon="9.00852953962439"><ele>63.666666666666664</ele><time>2026-04-07T07:44:33.999Z</time></trkpt><trkpt lat="44.39352615013363" lon="9.00861302085749"><ele>63.83333333333333</ele><time>2026-04-07T07:44:34.999Z</time></trkpt><trkpt lat="44.393495579633914" lon="9.008710049610883"><ele>64.0</ele><time>2026-04-07T07:44:35.999Z</time></trkpt><trkpt lat="44.393471222079974" lon="9.008822201720438"><ele>64.0</ele><time>2026-04-07T07:44:36.999Z</time></trkpt><trkpt lat="44.39345801347897" lon="9.008946952216316"><ele>64.0</ele><time>2026-04-07T07:44:37.999Z</time></trkpt><trkpt lat="44.393458782648736" lon="9.009085852562935"><ele>64.0</ele><time>2026-04-07T07:44:38.999Z</time></trkpt><trkpt lat="44.393479918086065" lon="9.009222414921593"><ele>64.0</ele><time>2026-04-07T07:44:39.999Z</time></trkpt><trkpt lat="44.393510681152875" lon="9.009344278727205"><ele>64.0</ele><time>2026-04-07T07:44:40.999Z</time></trkpt><trkpt lat="44.39355735044124" lon="9.009460199450466"><ele>64.5</ele><time>2026-04-07T07:44:41.999Z</time></trkpt><trkpt lat="44.393613715113524" lon="9.00958000943037"><ele>65.0</ele><time>2026-04-07T07:44:42.999Z</time></trkpt><trkpt lat="44.3936787669358" lon="9.009711238697001"><ele>65.5</ele><time>2026-04-07T07:44:43.999Z</time></trkpt><trkpt lat="44.393746611806606" lon="9.009861770763333"><ele>66.0</ele><time>2026-04-07T07:44:44.999Z</time></trkpt><trkpt lat="44.39381861050877" lon="9.010022391027778"><ele>73.5</ele><time>2026-04-07T07:44:45.999Z</time></trkpt><trkpt lat="44.39388748958331" lon="9.01016679497573"><ele>81.0</ele><time>2026-04-07T07:44:46.999Z</time></trkpt><trkpt lat="44.39395819997991" lon="9.01031360715724"><ele>88.5</ele><time>2026-04-07T07:44:47.999Z</time></trkpt><trkpt lat="44.39403120595927" lon="9.010469708008074"><ele>96.0</ele><time>2026-04-07T07:44:48.999Z</time></trkpt><trkpt lat="44.39410803961602" lon="9.010630266985157"><ele>96.0</ele><time>2026-04-07T07:44:50Z</time></trkpt><trkpt lat="44.39418983591438" lon="9.010797596442387"><ele>96.0</ele><time>2026-04-07T07:44:51Z</time></trkpt><trkpt lat="44.39426978209438" lon="9.010964338003078"><ele>96.0</ele><time>2026-04-07T07:44:52Z</time></trkpt><trkpt lat="44.39434099061274" lon="9.011113448813417"><ele>96.0</ele><time>2026-04-07T07:44:53Z</time></trkpt><trkpt lat="44.39441484969281" lon="9.011268057354084"><ele>93.75</ele><time>2026-04-07T07:44:54Z</time></trkpt><trkpt lat="44.394501148089034" lon="9.011409950977773"><ele>91.5</ele><time>2026-04-07T07:44:55Z</time></trkpt><trkpt lat="44.39459147801843" lon="9.011545963747983"><ele>89.25</ele><time>2026-04-07T07:44:56Z</time></trkpt><trkpt lat="44.39467403891496" lon="9.011671854430611"><ele>87.0</ele><time>2026-04-07T07:44:57Z</time></trkpt><trkpt lat="44.39476135908213" lon="9.01179755294856"><ele>92.25</ele><time>2026-04-07T07:44:58Z</time></trkpt><trkpt lat="44.39485778209867" lon="9.011913854022024"><ele>97.5</ele><time>2026-04-07T07:44:59Z</time></trkpt><trkpt lat="44.394947874725204" lon="9.012015494875772"><ele>102.75</ele><time>2026-04-07T07:45:00Z</time></trkpt><trkpt lat="44.39504530917612" lon="9.012118529457176"><ele>108.0</ele><time>2026-04-07T07:45:01Z</time></trkpt><trkpt lat="44.39514755834276" lon="9.012224310871492"><ele>108.0</ele><time>2026-04-07T07:45:02Z</time></trkpt><trkpt lat="44.39525630198311" lon="9.012328722359422"><ele>108.0</ele><time>2026-04-07T07:45:03Z</time></trkpt><trkpt lat="44.39537045725535" lon="9.012435730234133"><ele>108.0</ele><time>2026-04-07T07:45:04Z</time></trkpt><trkpt lat="44.395488736680335" lon="9.012546462212914"><ele>108.0</ele><time>2026-04-07T07:45:05Z</time></trkpt><trkpt lat="44.39559941851363" lon="9.012650748484033"><ele>111.75</ele><time>2026-04-07T07:45:06Z</time></trkpt><trkpt lat="44.395704606011066" lon="9.012752009238152"><ele>115.5</ele><time>2026-04-07T07:45:07Z</time></trkpt><trkpt lat="44.395812016993425" lon="9.012851655136938"><ele>119.25</ele><time>2026-04-07T07:45:08Z</time></trkpt><trkpt lat="44.39591688744477" lon="9.012952766853672"><ele>123.0</ele><time>2026-04-07T07:45:09Z</time></trkpt><trkpt lat="44.396021017815286" lon="9.013051925141061"><ele>123.0</ele><time>2026-04-07T07:45:10Z</time></trkpt><trkpt lat="44.39612570819844" lon="9.013149373946675"><ele>123.0</ele><time>2026-04-07T07:45:11Z</time></trkpt><trkpt lat="44.39622671410771" lon="9.013248084104614"><ele>123.0</ele><time>2026-04-07T07:45:12Z</time></trkpt><trkpt lat="44.396318038030515" lon="9.013334221470792"><ele>123.0</ele><time>2026-04-07T07:45:13Z</time></trkpt><trkpt lat="44.39639875861434" lon="9.013411155361075"><ele>123.0</ele><time>2026-04-07T07:45:14Z</time></trkpt><trkpt lat="44.39648160338299" lon="9.013487293222804"><ele>123.00000000000001</ele><time>2026-04-07T07:45:15Z</time></trkpt><trkpt lat="44.396572863409915" lon="9.013577559221686"><ele>123.00000000000001</ele><time>2026-04-07T07:45:16Z</time></trkpt><trkpt lat="44.396658365264166" lon="9.013675110236735"><ele>123.0</ele><time>2026-04-07T07:45:17Z</time></trkpt><trkpt lat="44.396733437057804" lon="9.013770389209972"><ele>123.0</ele><time>2026-04-07T07:45:18Z</time></trkpt><trkpt lat="44.396810187196124" lon="9.013879301497257"><ele>123.0</ele><time>2026-04-07T07:45:19Z</time></trkpt><trkpt lat="44.396886059193456" lon="9.013999146776232"><ele>123.0</ele><time>2026-04-07T07:45:20Z</time></trkpt><trkpt lat="44.396962058863465" lon="9.01413028892605"><ele>123.0</ele><time>2026-04-07T07:45:21Z</time></trkpt><trkpt lat="44.397038049329645" lon="9.014259540789908"><ele>123.0</ele><time>2026-04-07T07:45:22Z</time></trkpt><trkpt lat="44.39710978141852" lon="9.014380609717088"><ele>123.25</ele><time>2026-04-07T07:45:23Z</time></trkpt><trkpt lat="44.397183826789295" lon="9.01451042873144"><ele>123.5</ele><time>2026-04-07T07:45:24Z</time></trkpt><trkpt lat="44.3972615196806" lon="9.014644776783841"><ele>123.75</ele><time>2026-04-07T07:45:25Z</time></trkpt><trkpt lat="44.3973327467649" lon="9.01476154386383"><ele>124.0</ele><time>2026-04-07T07:45:26Z</time></trkpt><trkpt lat="44.397400470468135" lon="9.014879800315324"><ele>123.83333333333334</ele><time>2026-04-07T07:45:27Z</time></trkpt><trkpt lat="44.39746712354481" lon="9.01499555459626"><ele>123.66666666666667</ele><time>2026-04-07T07:45:28Z</time></trkpt><trkpt lat="44.39752781481942" lon="9.015101506260367"><ele>123.5</ele><time>2026-04-07T07:45:29Z</time></trkpt><trkpt lat="44.397576625314564" lon="9.015194757354013"><ele>123.33333333333334</ele><time>2026-04-07T07:45:30Z</time></trkpt><trkpt lat="44.39762965235981" lon="9.0152782015724"><ele>123.16666666666667</ele><time>2026-04-07T07:45:31Z</time></trkpt><trkpt lat="44.39769714786956" lon="9.015332933892067"><ele>123.0</ele><time>2026-04-07T07:45:32Z</time></trkpt><trkpt lat="44.397772517995016" lon="9.01537002987861"><ele>123.0</ele><time>2026-04-07T07:45:33Z</time></trkpt><trkpt lat="44.397855118718" lon="9.015374535183334"><ele>123.0</ele><time>2026-04-07T07:45:34Z</time></trkpt><trkpt lat="44.39793938666525" lon="9.015350550658736"><ele>123.0</ele><time>2026-04-07T07:45:35Z</time></trkpt><trkpt lat="44.39802675056895" lon="9.015294497594917"><ele>123.0</ele><time>2026-04-07T07:45:36Z</time></trkpt><trkpt lat="44.398090498506335" lon="9.01521359719139"><ele>123.0</ele><time>2026-04-07T07:45:37Z</time></trkpt><trkpt lat="44.39813438694115" lon="9.015118543675507"><ele>123.0</ele><time>2026-04-07T07:45:38Z</time></trkpt><trkpt lat="44.398156175767454" lon="9.015011675723612"><ele>123.16666666666667</ele><time>2026-04-07T07:45:39Z</time></trkpt><trkpt lat="44.398156294232535" lon="9.014882454328212"><ele>123.33333333333334</ele><time>2026-04-07T07:45:40Z</time></trkpt><trkpt lat="44.39813471293" lon="9.01475880516639"><ele>123.5</ele><time>2026-04-07T07:45:41Z</time></trkpt><trkpt lat="44.39809484518115" lon="9.014646205996968"><ele>123.66666666666667</ele><time>2026-04-07T07:45:42Z</time></trkpt><trkpt lat="44.398036445463276" lon="9.014577597109604"><ele>123.83333333333334</ele><time>2026-04-07T07:45:43Z</time></trkpt><trkpt lat="44.39799610435192" lon="9.01446782671424"><ele>124.0</ele><time>2026-04-07T07:45:44Z</time></trkpt><trkpt lat="44.397942203733486" lon="9.014379215821366"><ele>124.00000000000001</ele><time>2026-04-07T07:45:45Z</time></trkpt><trkpt lat="44.39790640001087" lon="9.014298551056422"><ele>124.0</ele><time>2026-04-07T07:45:46Z</time></trkpt><trkpt lat="44.39785948042347" lon="9.014198396829306"><ele>124.0</ele><time>2026-04-07T07:45:48Z</time></trkpt><trkpt lat="44.39781118835758" lon="9.014102305140446"><ele>124.0</ele><time>2026-04-07T07:46:02.999Z</time></trkpt><trkpt lat="44.39776804792899" lon="9.014029020180635"><ele>124.00000000000001</ele><time>2026-04-07T07:46:03.999Z</time></trkpt><trkpt lat="44.39770085378797" lon="9.013976369500108"><ele>124.0</ele><time>2026-04-07T07:46:04.999Z</time></trkpt><trkpt lat="44.39762776781339" lon="9.013890614834052"><ele>123.80000000000001</ele><time>2026-04-07T07:46:05.999Z</time></trkpt><trkpt lat="44.3975326471886" lon="9.013828681210326"><ele>123.60000000000001</ele><time>2026-04-07T07:46:06.999Z</time></trkpt><trkpt lat="44.39744415884987" lon="9.013797986316836"><ele>123.4</ele><time>2026-04-07T07:46:07.999Z</time></trkpt><trkpt lat="44.39736956054524" lon="9.013801023172316"><ele>123.2</ele><time>2026-04-07T07:46:08.999Z</time></trkpt><trkpt lat="44.39726297535646" lon="9.013805053210975"><ele>123.0</ele><time>2026-04-07T07:46:10.999Z</time></trkpt><trkpt lat="44.39715094775282" lon="9.013826293115674"><ele>123.0</ele><time>2026-04-07T07:46:12.999Z</time></trkpt><trkpt lat="44.39708255193434" lon="9.013840976313785"><ele>123.0</ele><time>2026-04-07T07:46:13.999Z</time></trkpt><trkpt lat="44.39696670950201" lon="9.013634518796676"><ele>123.0</ele><time>2026-04-07T07:46:14.999Z</time></trkpt><trkpt lat="44.39685204721311" lon="9.013533842607508"><ele>123.0</ele><time>2026-04-07T07:46:15.999Z</time></trkpt><trkpt lat="44.39673167413932" lon="9.013417245890299"><ele>123.0</ele><time>2026-04-07T07:46:16.999Z</time></trkpt><trkpt lat="44.39660364689786" lon="9.01327854357711"><ele>123.0</ele><time>2026-04-07T07:46:17.999Z</time></trkpt><trkpt lat="44.39649398444827" lon="9.013153111308425"><ele>123.0</ele><time>2026-04-07T07:46:18.999Z</time></trkpt><trkpt lat="44.396395786195825" lon="9.01303057062288"><ele>123.0</ele><time>2026-04-07T07:46:19.999Z</time></trkpt><trkpt lat="44.396303184587254" lon="9.01290640467824"><ele>123.0</ele><time>2026-04-07T07:46:20.999Z</time></trkpt><trkpt lat="44.396207835167864" lon="9.012773655766711"><ele>123.0</ele><time>2026-04-07T07:46:21.999Z</time></trkpt><trkpt lat="44.39610384723641" lon="9.012624791577393"><ele>123.0</ele><time>2026-04-07T07:46:22.999Z</time></trkpt><trkpt lat="44.39601044812959" lon="9.012497109564835"><ele>123.0</ele><time>2026-04-07T07:46:23.999Z</time></trkpt><trkpt lat="44.39592619739291" lon="9.0123717104917"><ele>128.0</ele><time>2026-04-07T07:46:24.999Z</time></trkpt><trkpt lat="44.39584268889493" lon="9.012246065737623"><ele>133.0</ele><time>2026-04-07T07:46:25.999Z</time></trkpt><trkpt lat="44.395759580569525" lon="9.01212436724865"><ele>138.0</ele><time>2026-04-07T07:46:26.999Z</time></trkpt><trkpt lat="44.39567461435028" lon="9.011998091745555"><ele>143.0</ele><time>2026-04-07T07:46:27.999Z</time></trkpt><trkpt lat="44.39558488405773" lon="9.011870867535597"><ele>136.75</ele><time>2026-04-07T07:46:28.999Z</time></trkpt><trkpt lat="44.395485060738416" lon="9.011737522991949"><ele>130.5</ele><time>2026-04-07T07:46:29.999Z</time></trkpt><trkpt lat="44.395392528343365" lon="9.011605235261536"><ele>124.25</ele><time>2026-04-07T07:46:30.999Z</time></trkpt><trkpt lat="44.3953081368023" lon="9.01148508982655"><ele>118.0</ele><time>2026-04-07T07:46:31.999Z</time></trkpt><trkpt lat="44.39524311483627" lon="9.011366279237148"><ele>118.0</ele><time>2026-04-07T07:46:32.999Z</time></trkpt><trkpt lat="44.39520100243874" lon="9.011220899411088"><ele>118.0</ele><time>2026-04-07T07:46:33.999Z</time></trkpt><trkpt lat="44.39516584966294" lon="9.011064013156322"><ele>118.0</ele><time>2026-04-07T07:46:34.999Z</time></trkpt><trkpt lat="44.39513770594909" lon="9.010895865752746"><ele>118.0</ele><time>2026-04-07T07:46:35.999Z</time></trkpt><trkpt lat="44.39510597567177" lon="9.010731589924479"><ele>118.2</ele><time>2026-04-07T07:46:36.999Z</time></trkpt><trkpt lat="44.39508597437903" lon="9.010585945485019"><ele>118.4</ele><time>2026-04-07T07:46:37.999Z</time></trkpt><trkpt lat="44.39507577516171" lon="9.010451160394462"><ele>118.60000000000001</ele><time>2026-04-07T07:46:38.999Z</time></trkpt><trkpt lat="44.395063294424695" lon="9.010316168891361"><ele>118.80000000000001</ele><time>2026-04-07T07:46:39.999Z</time></trkpt><trkpt lat="44.395059519164924" lon="9.010171927755296"><ele>119.0</ele><time>2026-04-07T07:46:40.999Z</time></trkpt><trkpt lat="44.39506179765595" lon="9.010013437048826"><ele>117.66666666666666</ele><time>2026-04-07T07:46:41.999Z</time></trkpt><trkpt lat="44.3950582642588" lon="9.009880169831808"><ele>116.33333333333333</ele><time>2026-04-07T07:46:42.999Z</time></trkpt><trkpt lat="44.395056390094844" lon="9.009762038329209"><ele>115.0</ele><time>2026-04-07T07:46:43.999Z</time></trkpt><trkpt lat="44.395066267964985" lon="9.009669884883944"><ele>113.66666666666666</ele><time>2026-04-07T07:46:44.999Z</time></trkpt><trkpt lat="44.395101567737925" lon="9.009571555957807"><ele>112.33333333333333</ele><time>2026-04-07T07:46:45.999Z</time></trkpt><trkpt lat="44.39515923530688" lon="9.00949201099698"><ele>111.0</ele><time>2026-04-07T07:46:46.999Z</time></trkpt><trkpt lat="44.39522219085097" lon="9.009438891870955"><ele>111.0</ele><time>2026-04-07T07:46:47.999Z</time></trkpt><trkpt lat="44.39534540306521" lon="9.009419753636644"><ele>111.0</ele><time>2026-04-07T07:46:49.999Z</time></trkpt><trkpt lat="44.395408536375925" lon="9.009446883382887"><ele>111.0</ele><time>2026-04-07T07:46:50.999Z</time></trkpt><trkpt lat="44.395467536202965" lon="9.009492788109696"><ele>111.0</ele><time>2026-04-07T07:46:51.999Z</time></trkpt><trkpt lat="44.39552354075892" lon="9.00955850976773"><ele>111.0</ele><time>2026-04-07T07:46:52.999Z</time></trkpt><trkpt lat="44.39556433789121" lon="9.009638659674444"><ele>111.0</ele><time>2026-04-07T07:46:53.999Z</time></trkpt><trkpt lat="44.39558389153082" lon="9.009728048866238"><ele>112.6</ele><time>2026-04-07T07:46:54.999Z</time></trkpt><trkpt lat="44.3955874631598" lon="9.009818689893521"><ele>114.19999999999999</ele><time>2026-04-07T07:46:56Z</time></trkpt><trkpt lat="44.39556909722768" lon="9.009928757004626"><ele>115.80000000000001</ele><time>2026-04-07T07:46:57Z</time></trkpt><trkpt lat="44.395543935693674" lon="9.01007517328524"><ele>117.4</ele><time>2026-04-07T07:46:58Z</time></trkpt><trkpt lat="44.395520011736046" lon="9.010281517326803"><ele>119.0</ele><time>2026-04-07T07:46:59Z</time></trkpt><trkpt lat="44.395496388821726" lon="9.010497961018183"><ele>119.0</ele><time>2026-04-07T07:47:00Z</time></trkpt><trkpt lat="44.39547424763267" lon="9.010760516571045"><ele>119.0</ele><time>2026-04-07T07:47:01Z</time></trkpt><trkpt lat="44.39544608908045" lon="9.011041367524172"><ele>119.0</ele><time>2026-04-07T07:47:02Z</time></trkpt><trkpt lat="44.39540333983383" lon="9.01130004986099"><ele>118.5</ele><time>2026-04-07T07:47:03Z</time></trkpt><trkpt lat="44.3953807127946" lon="9.011637775524912"><ele>118.0</ele><time>2026-04-07T07:47:04Z</time></trkpt><trkpt lat="44.39536617585747" lon="9.011954373039126"><ele>113.0</ele><time>2026-04-07T07:47:05Z</time></trkpt><trkpt lat="44.395349564670916" lon="9.012274513177823"><ele>108.0</ele><time>2026-04-07T07:47:06Z</time></trkpt><trkpt lat="44.3953336513124" lon="9.012595785093474"><ele>100.0</ele><time>2026-04-07T07:47:07Z</time></trkpt><trkpt lat="44.39531549751934" lon="9.012927665254546"><ele>92.0</ele><time>2026-04-07T07:47:08Z</time></trkpt><trkpt lat="44.39529443489594" lon="9.013271369337875"><ele>91.5</ele><time>2026-04-07T07:47:09Z</time></trkpt><trkpt lat="44.395271471032295" lon="9.01362469998047"><ele>91.0</ele><time>2026-04-07T07:47:10Z</time></trkpt><trkpt lat="44.39524446271588" lon="9.01399405849766"><ele>107.5</ele><time>2026-04-07T07:47:11Z</time></trkpt><trkpt lat="44.395214596894604" lon="9.014375044270944"><ele>124.0</ele><time>2026-04-07T07:47:12Z</time></trkpt><trkpt lat="44.39518327547242" lon="9.014773040630981"><ele>140.0</ele><time>2026-04-07T07:47:13Z</time></trkpt><trkpt lat="44.3951491276712" lon="9.015182445432155"><ele>156.0</ele><time>2026-04-07T07:47:14Z</time></trkpt><trkpt lat="44.39510935385493" lon="9.01559376394339"><ele>170.5</ele><time>2026-04-07T07:47:15Z</time></trkpt><trkpt lat="44.39506443792834" lon="9.015986852222222"><ele>185.0</ele><time>2026-04-07T07:47:16Z</time></trkpt><trkpt lat="44.39502091598933" lon="9.016366343114088"><ele>202.5</ele><time>2026-04-07T07:47:17Z</time></trkpt><trkpt lat="44.394976763473444" lon="9.016757118900301"><ele>220.0</ele><time>2026-04-07T07:47:18.016Z</time></trkpt><trkpt lat="44.39493903299105" lon="9.017141355826043"><ele>223.5</ele><time>2026-04-07T07:47:19.017Z</time></trkpt><trkpt lat="44.39489905462762" lon="9.017527032134103"><ele>227.0</ele><time>2026-04-07T07:47:20.018Z</time></trkpt><trkpt lat="44.39486670790305" lon="9.0179031705187"><ele>227.0</ele><time>2026-04-07T07:47:21.015Z</time></trkpt><trkpt lat="44.394824284954474" lon="9.0182688750697"><ele>227.0</ele><time>2026-04-07T07:47:22.016Z</time></trkpt><trkpt lat="44.394781578217525" lon="9.018646050409162"><ele>143.0</ele><time>2026-04-07T07:47:23.017Z</time></trkpt><trkpt lat="44.39455166463218" lon="9.019664833330568"><ele>143.0</ele><time>2026-04-07T07:47:28Z</time></trkpt><trkpt lat="44.394491420473884" lon="9.01996845033437"><ele>143.0</ele><time>2026-04-07T07:47:29Z</time></trkpt><trkpt lat="44.39443160876383" lon="9.020283636686331"><ele>143.5</ele><time>2026-04-07T07:47:30Z</time></trkpt><trkpt lat="44.39437497149436" lon="9.020596068709771"><ele>144.0</ele><time>2026-04-07T07:47:31Z</time></trkpt><trkpt lat="44.39431846532947" lon="9.020909408663139"><ele>144.0</ele><time>2026-04-07T07:47:32Z</time></trkpt><trkpt lat="44.39425815386515" lon="9.02123705050005"><ele>144.0</ele><time>2026-04-07T07:47:33Z</time></trkpt><trkpt lat="44.394174650024176" lon="9.021592578863432"><ele>154.0</ele><time>2026-04-07T07:47:34Z</time></trkpt><trkpt lat="44.394118994483435" lon="9.021943621898345"><ele>164.0</ele><time>2026-04-07T07:47:35Z</time></trkpt><trkpt lat="44.39405722884342" lon="9.022309338534473"><ele>178.0</ele><time>2026-04-07T07:47:36Z</time></trkpt><trkpt lat="44.3939926541122" lon="9.022704247786494"><ele>192.0</ele><time>2026-04-07T07:47:37Z</time></trkpt><trkpt lat="44.39392572743737" lon="9.02313945771672"><ele>210.0</ele><time>2026-04-07T07:47:38.017Z</time></trkpt><trkpt lat="44.39385869048088" lon="9.023599303693956"><ele>228.0</ele><time>2026-04-07T07:47:39.015Z</time></trkpt><trkpt lat="44.39378960171218" lon="9.024098701211113"><ele>264.0</ele><time>2026-04-07T07:47:40.017Z</time></trkpt><trkpt lat="44.393721153963625" lon="9.024623899703254"><ele>300.0</ele><time>2026-04-07T07:47:41.017Z</time></trkpt><trkpt lat="44.39363104434165" lon="9.02518616062376"><ele>314.5</ele><time>2026-04-07T07:47:42.014Z</time></trkpt><trkpt lat="44.393584550649514" lon="9.02577507052227"><ele>329.0</ele><time>2026-04-07T07:47:43.014Z</time></trkpt><trkpt lat="44.392827929150855" lon="9.029235058726973"><ele>283.0</ele><time>2026-04-07T07:47:47.36Z</time></trkpt><trkpt lat="44.39258481184605" lon="9.030573370659043"><ele>283.0</ele><time>2026-04-07T07:47:48.36Z</time></trkpt><trkpt lat="44.3925506" lon="9.0307617"><ele>283.0</ele><time>2026-04-07T07:47:49.359Z</time></trkpt><trkpt lat="44.392210682895396" lon="9.03381356970317"><ele>218.5</ele><time>2026-04-07T07:48:02.999Z</time></trkpt><trkpt lat="44.392184932918575" lon="9.03423058350281"><ele>154.0</ele><time>2026-04-07T07:48:03.999Z</time></trkpt><trkpt lat="44.39216809059803" lon="9.034660685474092"><ele>153.5</ele><time>2026-04-07T07:48:04.999Z</time></trkpt><trkpt lat="44.3921844812707" lon="9.035087236668701"><ele>153.0</ele><time>2026-04-07T07:48:05.999Z</time></trkpt><trkpt lat="44.392206602494106" lon="9.035519429700745"><ele>165.0</ele><time>2026-04-07T07:48:06.999Z</time></trkpt><trkpt lat="44.39223236276058" lon="9.035957792187716"><ele>177.0</ele><time>2026-04-07T07:48:07.999Z</time></trkpt><trkpt lat="44.392231851389795" lon="9.036400399752253"><ele>186.0</ele><time>2026-04-07T07:48:08.999Z</time></trkpt><trkpt lat="44.392246814151584" lon="9.03683584236412"><ele>195.0</ele><time>2026-04-07T07:48:09.999Z</time></trkpt><trkpt lat="44.39225920794952" lon="9.03727803119668"><ele>157.0</ele><time>2026-04-07T07:48:11.017Z</time></trkpt><trkpt lat="44.39235765956751" lon="9.038303168498945"><ele>157.0</ele><time>2026-04-07T07:48:12.999Z</time></trkpt><trkpt lat="44.392383741615944" lon="9.038796317749116"><ele>157.0</ele><time>2026-04-07T07:48:13.999Z</time></trkpt><trkpt lat="44.39239671866355" lon="9.039315251088649"><ele>149.5</ele><time>2026-04-07T07:48:14.999Z</time></trkpt><trkpt lat="44.39241908049517" lon="9.039770006288144"><ele>142.0</ele><time>2026-04-07T07:48:15.999Z</time></trkpt><trkpt lat="44.392445800152075" lon="9.040185357460905"><ele>131.0</ele><time>2026-04-07T07:48:16.999Z</time></trkpt><trkpt lat="44.392466375057026" lon="9.040599328598336"><ele>120.0</ele><time>2026-04-07T07:48:17.999Z</time></trkpt><trkpt lat="44.39249062261488" lon="9.041026710229913"><ele>95.5</ele><time>2026-04-07T07:48:18.999Z</time></trkpt><trkpt lat="44.39250961233913" lon="9.041453299546824"><ele>71.0</ele><time>2026-04-07T07:48:19.999Z</time></trkpt><trkpt lat="44.392529653289984" lon="9.04187309338909"><ele>68.5</ele><time>2026-04-07T07:48:20.999Z</time></trkpt><trkpt lat="44.39255161388348" lon="9.042300570760005"><ele>66.0</ele><time>2026-04-07T07:48:21.999Z</time></trkpt><trkpt lat="44.39257388167416" lon="9.042732254339953"><ele>66.0</ele><time>2026-04-07T07:48:22.999Z</time></trkpt><trkpt lat="44.392592270114704" lon="9.04316803109414"><ele>66.0</ele><time>2026-04-07T07:48:23.999Z</time></trkpt><trkpt lat="44.39262073076506" lon="9.043599345153238"><ele>76.5</ele><time>2026-04-07T07:48:24.999Z</time></trkpt><trkpt lat="44.39264575074856" lon="9.044030426663516"><ele>87.0</ele><time>2026-04-07T07:48:25.999Z</time></trkpt><trkpt lat="44.392670750328065" lon="9.04446213486386"><ele>103.5</ele><time>2026-04-07T07:48:26.999Z</time></trkpt><trkpt lat="44.39269450840035" lon="9.044898029364237"><ele>120.0</ele><time>2026-04-07T07:48:27.999Z</time></trkpt><trkpt lat="44.39270756864762" lon="9.045328374848657"><ele>134.5</ele><time>2026-04-07T07:48:28.999Z</time></trkpt><trkpt lat="44.392722069485174" lon="9.045764196190204"><ele>149.0</ele><time>2026-04-07T07:48:29.999Z</time></trkpt><trkpt lat="44.39273850246641" lon="9.046199382908002"><ele>156.5</ele><time>2026-04-07T07:48:30.999Z</time></trkpt><trkpt lat="44.39273907183269" lon="9.046629617881502"><ele>164.0</ele><time>2026-04-07T07:48:31.999Z</time></trkpt><trkpt lat="44.3927431834928" lon="9.04706556755484"><ele>174.0</ele><time>2026-04-07T07:48:32.999Z</time></trkpt><trkpt lat="44.39272546706658" lon="9.047494058993554"><ele>184.0</ele><time>2026-04-07T07:48:33.999Z</time></trkpt><trkpt lat="44.392716896726995" lon="9.047924613007527"><ele>192.5</ele><time>2026-04-07T07:48:34.999Z</time></trkpt><trkpt lat="44.39270779993921" lon="9.048363690705992"><ele>201.0</ele><time>2026-04-07T07:48:36.019Z</time></trkpt><trkpt lat="44.39256749445809" lon="9.049791509179704"><ele>199.0</ele><time>2026-04-07T07:48:39.019Z</time></trkpt><trkpt lat="44.392530977507725" lon="9.050257421892521"><ele>197.0</ele><time>2026-04-07T07:48:40.016Z</time></trkpt><trkpt lat="44.388951522696786" lon="9.068158973562227"><ele>182.0</ele><time>2026-04-07T07:49:18.828Z</time></trkpt><trkpt lat="44.3886867212545" lon="9.067929256715875"><ele>167.0</ele><time>2026-04-07T07:49:19.999Z</time></trkpt><trkpt lat="44.38866666181163" lon="9.068308481256791"><ele>158.5</ele><time>2026-04-07T07:49:20.999Z</time></trkpt><trkpt lat="44.388644477419334" lon="9.068707345480403"><ele>150.0</ele><time>2026-04-07T07:49:21.999Z</time></trkpt><trkpt lat="44.38867127778576" lon="9.069103055096448"><ele>141.5</ele><time>2026-04-07T07:49:22.999Z</time></trkpt><trkpt lat="44.38869887818288" lon="9.069505462242049"><ele>133.0</ele><time>2026-04-07T07:49:23.999Z</time></trkpt><trkpt lat="44.388719791934214" lon="9.069905645983862"><ele>135.5</ele><time>2026-04-07T07:49:24.999Z</time></trkpt><trkpt lat="44.38873407418244" lon="9.07032852686515"><ele>138.0</ele><time>2026-04-07T07:49:26Z</time></trkpt><trkpt lat="44.388752651810215" lon="9.070766959919217"><ele>154.5</ele><time>2026-04-07T07:49:27Z</time></trkpt><trkpt lat="44.38877061034541" lon="9.071190668781702"><ele>171.0</ele><time>2026-04-07T07:49:28Z</time></trkpt><trkpt lat="44.388783332502356" lon="9.071613364688863"><ele>191.5</ele><time>2026-04-07T07:49:29Z</time></trkpt><trkpt lat="44.38879738666071" lon="9.072046512790704"><ele>212.0</ele><time>2026-04-07T07:49:30.02Z</time></trkpt><trkpt lat="44.38881159781953" lon="9.072468549903553"><ele>226.0</ele><time>2026-04-07T07:49:31.018Z</time></trkpt><trkpt lat="44.388813499524176" lon="9.072896728283334"><ele>240.0</ele><time>2026-04-07T07:49:32.018Z</time></trkpt><trkpt lat="44.38882080585069" lon="9.073322410607195"><ele>254.0</ele><time>2026-04-07T07:49:33.018Z</time></trkpt><trkpt lat="44.38902076830007" lon="9.076135470239427"><ele>184.0</ele><time>2026-04-07T07:49:36.359Z</time></trkpt><trkpt lat="44.38911340203545" lon="9.07822449692439"><ele>172.5</ele><time>2026-04-07T07:49:43Z</time></trkpt><trkpt lat="44.38913635505824" lon="9.078698048586805"><ele>161.0</ele><time>2026-04-07T07:49:44Z</time></trkpt><trkpt lat="44.38921073062094" lon="9.079107708965996"><ele>157.5</ele><time>2026-04-07T07:49:45Z</time></trkpt><trkpt lat="44.38922344495077" lon="9.079527355857701"><ele>154.0</ele><time>2026-04-07T07:49:46Z</time></trkpt><trkpt lat="44.389217154394245" lon="9.079959786730305"><ele>150.0</ele><time>2026-04-07T07:49:47Z</time></trkpt><trkpt lat="44.389233490710204" lon="9.080388662244024"><ele>146.0</ele><time>2026-04-07T07:49:48Z</time></trkpt><trkpt lat="44.38925136461046" lon="9.080824092016908"><ele>143.0</ele><time>2026-04-07T07:49:49Z</time></trkpt><trkpt lat="44.389269604640766" lon="9.081254503143512"><ele>140.0</ele><time>2026-04-07T07:49:50Z</time></trkpt><trkpt lat="44.38929009838402" lon="9.081689551218318"><ele>140.0</ele><time>2026-04-07T07:49:51Z</time></trkpt><trkpt lat="44.38930697725813" lon="9.082123915376142"><ele>140.0</ele><time>2026-04-07T07:49:52Z</time></trkpt><trkpt lat="44.38932282086421" lon="9.082552671104954"><ele>153.5</ele><time>2026-04-07T07:49:53Z</time></trkpt><trkpt lat="44.389325807657066" lon="9.082980463615872"><ele>167.0</ele><time>2026-04-07T07:49:54Z</time></trkpt><trkpt lat="44.38931931356378" lon="9.08341332225344"><ele>186.0</ele><time>2026-04-07T07:49:55Z</time></trkpt><trkpt lat="44.38931006766511" lon="9.083856894039135"><ele>205.0</ele><time>2026-04-07T07:49:56.017Z</time></trkpt><trkpt lat="44.389301434645276" lon="9.084290980743441"><ele>223.0</ele><time>2026-04-07T07:49:57.017Z</time></trkpt><trkpt lat="44.38923578676732" lon="9.084710835484179"><ele>241.0</ele><time>2026-04-07T07:49:58.019Z</time></trkpt><trkpt lat="44.389178580129204" lon="9.085135836254066"><ele>259.0</ele><time>2026-04-07T07:49:59.02Z</time></trkpt><trkpt lat="44.3891104838486" lon="9.085554767574527"><ele>277.0</ele><time>2026-04-07T07:50:00.02Z</time></trkpt><trkpt lat="44.38851394771275" lon="9.087915095630011"><ele>438.0</ele><time>2026-04-07T07:50:03.358Z</time></trkpt><trkpt lat="44.3883464639052" lon="9.088631601010933"><ele>445.0</ele><time>2026-04-07T07:50:04.359Z</time></trkpt><trkpt lat="44.3881790985805" lon="9.08934750830694"><ele>415.0</ele><time>2026-04-07T07:50:05.359Z</time></trkpt><trkpt lat="44.388011794302095" lon="9.090063438940819"><ele>367.0</ele><time>2026-04-07T07:50:06.358Z</time></trkpt><trkpt lat="44.38784451271115" lon="9.09077938617088"><ele>367.0</ele><time>2026-04-07T07:50:07.358Z</time></trkpt><trkpt lat="44.38767732905836" lon="9.091495279903203"><ele>330.0</ele><time>2026-04-07T07:50:08.358Z</time></trkpt><trkpt lat="44.387511021098994" lon="9.092211748524415"><ele>291.0</ele><time>2026-04-07T07:50:09.358Z</time></trkpt><trkpt lat="44.387344762539314" lon="9.092928004327598"><ele>255.0</ele><time>2026-04-07T07:50:10.358Z</time></trkpt><trkpt lat="44.387178441758884" lon="9.093644506747632"><ele>270.0</ele><time>2026-04-07T07:50:11.358Z</time></trkpt><trkpt lat="44.3870113684871" lon="9.094360535055268"><ele>271.0</ele><time>2026-04-07T07:50:12.358Z</time></trkpt><trkpt lat="44.386844295235235" lon="9.095076563277546"><ele>263.0</ele><time>2026-04-07T07:50:13.358Z</time></trkpt><trkpt lat="44.38667708674017" lon="9.095792516702469"><ele>263.0</ele><time>2026-04-07T07:50:14.358Z</time></trkpt><trkpt lat="44.38651003195026" lon="9.096508544305282"><ele>255.0</ele><time>2026-04-07T07:50:15.358Z</time></trkpt><trkpt lat="44.38634312542641" lon="9.097224635662622"><ele>204.0</ele><time>2026-04-07T07:50:16.358Z</time></trkpt><trkpt lat="44.38615598511629" lon="9.097930456217428"><ele>166.0</ele><time>2026-04-07T07:50:17.358Z</time></trkpt><trkpt lat="44.38582241539321" lon="9.098947914325723"><ele>177.5</ele><time>2026-04-07T07:50:31.999Z</time></trkpt><trkpt lat="44.38567848708291" lon="9.099282772259057"><ele>189.0</ele><time>2026-04-07T07:50:32.999Z</time></trkpt><trkpt lat="44.38549253012201" lon="9.099581714266261"><ele>189.0</ele><time>2026-04-07T07:50:33.999Z</time></trkpt><trkpt lat="44.385321172427126" lon="9.099891552763268"><ele>189.0</ele><time>2026-04-07T07:50:34.999Z</time></trkpt><trkpt lat="44.38513931482817" lon="9.100197452856357"><ele>177.5</ele><time>2026-04-07T07:50:35.999Z</time></trkpt><trkpt lat="44.384934549720235" lon="9.100493950225616"><ele>166.0</ele><time>2026-04-07T07:50:36.999Z</time></trkpt><trkpt lat="44.38472531599793" lon="9.10079497958894"><ele>169.0</ele><time>2026-04-07T07:50:37.999Z</time></trkpt><trkpt lat="44.384527163068995" lon="9.10109943720123"><ele>172.0</ele><time>2026-04-07T07:50:38.999Z</time></trkpt><trkpt lat="44.38433097114891" lon="9.101418393480214"><ele>155.5</ele><time>2026-04-07T07:50:39.999Z</time></trkpt><trkpt lat="44.38413196629932" lon="9.10173859075837"><ele>139.0</ele><time>2026-04-07T07:50:40.999Z</time></trkpt><trkpt lat="44.38393109236087" lon="9.102055442467359"><ele>147.5</ele><time>2026-04-07T07:50:41.999Z</time></trkpt><trkpt lat="44.38371590860093" lon="9.102357182553929"><ele>156.0</ele><time>2026-04-07T07:50:42.999Z</time></trkpt><trkpt lat="44.38348116667307" lon="9.102630610323937"><ele>156.0</ele><time>2026-04-07T07:50:43.999Z</time></trkpt><trkpt lat="44.38322959206436" lon="9.102879440023832"><ele>156.0</ele><time>2026-04-07T07:50:44.999Z</time></trkpt><trkpt lat="44.38297273614777" lon="9.10311179313213"><ele>152.0</ele><time>2026-04-07T07:50:45.999Z</time></trkpt><trkpt lat="44.38270971060628" lon="9.10333280541985"><ele>148.0</ele><time>2026-04-07T07:50:46.999Z</time></trkpt><trkpt lat="44.38244155477275" lon="9.103539100790728"><ele>156.5</ele><time>2026-04-07T07:50:47.999Z</time></trkpt><trkpt lat="44.38217596397285" lon="9.103724023167402"><ele>165.0</ele><time>2026-04-07T07:50:48.999Z</time></trkpt><trkpt lat="44.38193364293077" lon="9.103911476384265"><ele>150.0</ele><time>2026-04-07T07:50:49.999Z</time></trkpt><trkpt lat="44.38171736620638" lon="9.104103633682088"><ele>135.0</ele><time>2026-04-07T07:50:50.999Z</time></trkpt><trkpt lat="44.38151529697718" lon="9.10431435106258"><ele>152.0</ele><time>2026-04-07T07:50:51.999Z</time></trkpt><trkpt lat="44.3813327687338" lon="9.104546953949077"><ele>169.0</ele><time>2026-04-07T07:50:52.999Z</time></trkpt><trkpt lat="44.38116524468275" lon="9.104798648788709"><ele>155.5</ele><time>2026-04-07T07:50:53.999Z</time></trkpt><trkpt lat="44.380996970930184" lon="9.105069979060776"><ele>142.0</ele><time>2026-04-07T07:50:54.999Z</time></trkpt><trkpt lat="44.380847713032054" lon="9.105346871377822"><ele>142.0</ele><time>2026-04-07T07:50:55.999Z</time></trkpt><trkpt lat="44.380714399073625" lon="9.105632478940308"><ele>142.0</ele><time>2026-04-07T07:50:56.999Z</time></trkpt><trkpt lat="44.3805940906232" lon="9.10593630672765"><ele>133.5</ele><time>2026-04-07T07:50:57.999Z</time></trkpt><trkpt lat="44.38048818610811" lon="9.106257155455111"><ele>125.0</ele><time>2026-04-07T07:50:58.999Z</time></trkpt><trkpt lat="44.380396920693514" lon="9.106592912632706"><ele>113.5</ele><time>2026-04-07T07:50:59.999Z</time></trkpt><trkpt lat="44.38031790981427" lon="9.106938279585483"><ele>102.0</ele><time>2026-04-07T07:51:00.999Z</time></trkpt><trkpt lat="44.38025187439518" lon="9.107293529780579"><ele>86.5</ele><time>2026-04-07T07:51:01.999Z</time></trkpt><trkpt lat="44.3802096818918" lon="9.107652481432828"><ele>71.0</ele><time>2026-04-07T07:51:02.999Z</time></trkpt><trkpt lat="44.380181095658756" lon="9.108014118673943"><ele>57.0</ele><time>2026-04-07T07:51:03.999Z</time></trkpt><trkpt lat="44.38016005420996" lon="9.108383006907886"><ele>43.0</ele><time>2026-04-07T07:51:04.999Z</time></trkpt><trkpt lat="44.38012973563183" lon="9.108747113871289"><ele>40.0</ele><time>2026-04-07T07:51:05.999Z</time></trkpt><trkpt lat="44.38009577152778" lon="9.10911629104387"><ele>37.0</ele><time>2026-04-07T07:51:06.999Z</time></trkpt><trkpt lat="44.38005945420831" lon="9.109502282389528"><ele>49.0</ele><time>2026-04-07T07:51:07.999Z</time></trkpt><trkpt lat="44.380018327242574" lon="9.109920335780398"><ele>61.0</ele><time>2026-04-07T07:51:08.999Z</time></trkpt><trkpt lat="44.37997956843874" lon="9.110354959083695"><ele>78.5</ele><time>2026-04-07T07:51:09.999Z</time></trkpt><trkpt lat="44.37994300328713" lon="9.110806744171551"><ele>96.0</ele><time>2026-04-07T07:51:10.999Z</time></trkpt><trkpt lat="44.37990837819462" lon="9.111268963378514"><ele>110.0</ele><time>2026-04-07T07:51:11.999Z</time></trkpt><trkpt lat="44.37987131315451" lon="9.111742377411622"><ele>124.0</ele><time>2026-04-07T07:51:12.999Z</time></trkpt><trkpt lat="44.37983326590264" lon="9.112218626465568"><ele>124.0</ele><time>2026-04-07T07:51:13.999Z</time></trkpt><trkpt lat="44.379789941937474" lon="9.11269522175493"><ele>124.0</ele><time>2026-04-07T07:51:14.999Z</time></trkpt><trkpt lat="44.37974897963455" lon="9.113178814461259"><ele>121.5</ele><time>2026-04-07T07:51:15.999Z</time></trkpt><trkpt lat="44.37970549024018" lon="9.11365722741402"><ele>119.0</ele><time>2026-04-07T07:51:16.999Z</time></trkpt><trkpt lat="44.37966332970258" lon="9.11413349517643"><ele>140.5</ele><time>2026-04-07T07:51:17.999Z</time></trkpt><trkpt lat="44.37962454939752" lon="9.114608306698393"><ele>162.0</ele><time>2026-04-07T07:51:18.999Z</time></trkpt><trkpt lat="44.37958348568401" lon="9.115079038381959"><ele>161.5</ele><time>2026-04-07T07:51:19.999Z</time></trkpt><trkpt lat="44.37954095472283" lon="9.115548206041415"><ele>161.0</ele><time>2026-04-07T07:51:20.999Z</time></trkpt><trkpt lat="44.379498803639294" lon="9.116017626584306"><ele>161.0</ele><time>2026-04-07T07:51:21.999Z</time></trkpt><trkpt lat="44.37945082197093" lon="9.11648274924108"><ele>161.0</ele><time>2026-04-07T07:51:22.999Z</time></trkpt><trkpt lat="44.37939603932197" lon="9.116947511702467"><ele>161.0</ele><time>2026-04-07T07:51:23.999Z</time></trkpt><trkpt lat="44.37931993164283" lon="9.117401217069022"><ele>161.0</ele><time>2026-04-07T07:51:24.999Z</time></trkpt><trkpt lat="44.37924561526567" lon="9.11786190055702"><ele>165.5</ele><time>2026-04-07T07:51:25.999Z</time></trkpt><trkpt lat="44.37917658815165" lon="9.118334666443987"><ele>170.0</ele><time>2026-04-07T07:51:27.017Z</time></trkpt><trkpt lat="44.37911005149291" lon="9.118798667824803"><ele>184.0</ele><time>2026-04-07T07:51:28.021Z</time></trkpt><trkpt lat="44.37904628307341" lon="9.119261642083236"><ele>198.0</ele><time>2026-04-07T07:51:29.017Z</time></trkpt><trkpt lat="44.37901981751412" lon="9.119729355364207"><ele>213.0</ele><time>2026-04-07T07:51:30.015Z</time></trkpt><trkpt lat="44.378926374708065" lon="9.120186768503745"><ele>228.0</ele><time>2026-04-07T07:51:31.015Z</time></trkpt><trkpt lat="44.37718633100798" lon="9.14231395349758"><ele>183.0</ele><time>2026-04-07T07:52:23.998Z</time></trkpt><trkpt lat="44.377152194571664" lon="9.142681278669405"><ele>138.0</ele><time>2026-04-07T07:52:24.998Z</time></trkpt><trkpt lat="44.377103645972596" lon="9.142998232353763"><ele>130.5</ele><time>2026-04-07T07:52:25.998Z</time></trkpt><trkpt lat="44.377071324146534" lon="9.143311978950589"><ele>123.0</ele><time>2026-04-07T07:52:26.998Z</time></trkpt><trkpt lat="44.3770499524002" lon="9.143669986288963"><ele>120.5</ele><time>2026-04-07T07:52:27.998Z</time></trkpt><trkpt lat="44.376994852432084" lon="9.14404952569845"><ele>118.0</ele><time>2026-04-07T07:52:28.998Z</time></trkpt><trkpt lat="44.376928594689325" lon="9.144424322130815"><ele>118.0</ele><time>2026-04-07T07:52:29.998Z</time></trkpt><trkpt lat="44.376837513473035" lon="9.144777426692473"><ele>118.0</ele><time>2026-04-07T07:52:30.998Z</time></trkpt><trkpt lat="44.37675645520216" lon="9.145122226616598"><ele>115.0</ele><time>2026-04-07T07:52:32Z</time></trkpt><trkpt lat="44.37660101876307" lon="9.145439523958233"><ele>112.0</ele><time>2026-04-07T07:52:33Z</time></trkpt><trkpt lat="44.37645767485311" lon="9.14576093544081"><ele>122.0</ele><time>2026-04-07T07:52:34Z</time></trkpt><trkpt lat="44.37630218837104" lon="9.146074325210165"><ele>132.0</ele><time>2026-04-07T07:52:35Z</time></trkpt><trkpt lat="44.37612491354842" lon="9.146388006630078"><ele>115.5</ele><time>2026-04-07T07:52:36Z</time></trkpt><trkpt lat="44.375942505808126" lon="9.146693999105143"><ele>99.0</ele><time>2026-04-07T07:52:37Z</time></trkpt><trkpt lat="44.37575302845711" lon="9.147005973129003"><ele>99.0</ele><time>2026-04-07T07:52:38Z</time></trkpt><trkpt lat="44.37556621727278" lon="9.147328677104264"><ele>99.0</ele><time>2026-04-07T07:52:39Z</time></trkpt><trkpt lat="44.37538774462458" lon="9.147658321832527"><ele>95.0</ele><time>2026-04-07T07:52:40Z</time></trkpt><trkpt lat="44.375219779986715" lon="9.147996161948324"><ele>91.0</ele><time>2026-04-07T07:52:41Z</time></trkpt><trkpt lat="44.37505633818495" lon="9.14834252262461"><ele>91.0</ele><time>2026-04-07T07:52:42Z</time></trkpt><trkpt lat="44.374899966566275" lon="9.148695333766115"><ele>91.0</ele><time>2026-04-07T07:52:43Z</time></trkpt><trkpt lat="44.374747577297335" lon="9.149052695579249"><ele>71.5</ele><time>2026-04-07T07:52:44Z</time></trkpt><trkpt lat="44.37460077512584" lon="9.14941199877635"><ele>52.0</ele><time>2026-04-07T07:52:45Z</time></trkpt><trkpt lat="44.37445113184538" lon="9.149772050902264"><ele>42.0</ele><time>2026-04-07T07:52:46Z</time></trkpt><trkpt lat="44.374293690756716" lon="9.150121783525957"><ele>32.0</ele><time>2026-04-07T07:52:47Z</time></trkpt><trkpt lat="44.37411946911253" lon="9.150463349680784"><ele>28.5</ele><time>2026-04-07T07:52:48Z</time></trkpt><trkpt lat="44.37393572260164" lon="9.150785083830181"><ele>25.0</ele><time>2026-04-07T07:52:49Z</time></trkpt><trkpt lat="44.373740732348224" lon="9.151098840426945"><ele>25.0</ele><time>2026-04-07T07:52:50Z</time></trkpt><trkpt lat="44.373540760529124" lon="9.15139927030704"><ele>25.0</ele><time>2026-04-07T07:52:51Z</time></trkpt><trkpt lat="44.37332642011878" lon="9.151693575294935"><ele>27.0</ele><time>2026-04-07T07:52:52Z</time></trkpt><trkpt lat="44.37310541896116" lon="9.151973772024638"><ele>29.0</ele><time>2026-04-07T07:52:53Z</time></trkpt><trkpt lat="44.37288745736942" lon="9.15221740686784"><ele>43.5</ele><time>2026-04-07T07:52:54Z</time></trkpt><trkpt lat="44.37267422706354" lon="9.15243538141207"><ele>58.0</ele><time>2026-04-07T07:52:55Z</time></trkpt><trkpt lat="44.37244435438165" lon="9.15263867722351"><ele>58.0</ele><time>2026-04-07T07:52:56Z</time></trkpt><trkpt lat="44.37219876892931" lon="9.15284305434545"><ele>58.0</ele><time>2026-04-07T07:52:57Z</time></trkpt><trkpt lat="44.37193602621498" lon="9.15304608860628"><ele>72.5</ele><time>2026-04-07T07:52:58Z</time></trkpt><trkpt lat="44.371663888125845" lon="9.153241807366435"><ele>87.0</ele><time>2026-04-07T07:52:59Z</time></trkpt><trkpt lat="44.37141810586114" lon="9.15340975675774"><ele>83.5</ele><time>2026-04-07T07:53:00Z</time></trkpt><trkpt lat="44.37118737893672" lon="9.15358008152355"><ele>80.0</ele><time>2026-04-07T07:53:01Z</time></trkpt><trkpt lat="44.37096872168847" lon="9.153763304383668"><ele>80.0</ele><time>2026-04-07T07:53:02Z</time></trkpt><trkpt lat="44.3707482651283" lon="9.153976253406315"><ele>80.0</ele><time>2026-04-07T07:53:03Z</time></trkpt><trkpt lat="44.37054994980336" lon="9.154203575582127"><ele>87.0</ele><time>2026-04-07T07:53:04Z</time></trkpt><trkpt lat="44.37035306898431" lon="9.154454967711965"><ele>94.0</ele><time>2026-04-07T07:53:05Z</time></trkpt><trkpt lat="44.37017738929485" lon="9.154717869925394"><ele>100.5</ele><time>2026-04-07T07:53:06Z</time></trkpt><trkpt lat="44.37001655140283" lon="9.15500161598326"><ele>107.0</ele><time>2026-04-07T07:53:07Z</time></trkpt><trkpt lat="44.36986826454907" lon="9.15530311179506"><ele>107.0</ele><time>2026-04-07T07:53:08Z</time></trkpt><trkpt lat="44.36973230480846" lon="9.155629799100272"><ele>107.0</ele><time>2026-04-07T07:53:09Z</time></trkpt><trkpt lat="44.36961317502594" lon="9.15596746622633"><ele>96.0</ele><time>2026-04-07T07:53:10Z</time></trkpt><trkpt lat="44.3695110909481" lon="9.156319194641602"><ele>85.0</ele><time>2026-04-07T07:53:11Z</time></trkpt><trkpt lat="44.36942637707671" lon="9.156679730699858"><ele>85.0</ele><time>2026-04-07T07:53:12Z</time></trkpt><trkpt lat="44.36936288534459" lon="9.157048760346951"><ele>85.0</ele><time>2026-04-07T07:53:13Z</time></trkpt><trkpt lat="44.36931314577756" lon="9.157428050211598"><ele>94.0</ele><time>2026-04-07T07:53:14Z</time></trkpt><trkpt lat="44.36926608248677" lon="9.157804064052817"><ele>103.0</ele><time>2026-04-07T07:53:15Z</time></trkpt><trkpt lat="44.36922002301904" lon="9.15818359771898"><ele>109.0</ele><time>2026-04-07T07:53:16Z</time></trkpt><trkpt lat="44.36916863141332" lon="9.158562073831577"><ele>115.0</ele><time>2026-04-07T07:53:17Z</time></trkpt><trkpt lat="44.369105494567734" lon="9.158947767290524"><ele>117.5</ele><time>2026-04-07T07:53:18Z</time></trkpt><trkpt lat="44.36902683405254" lon="9.159359697244033"><ele>120.0</ele><time>2026-04-07T07:53:19Z</time></trkpt><trkpt lat="44.36893128554" lon="9.15978278565232"><ele>119.0</ele><time>2026-04-07T07:53:20Z</time></trkpt><trkpt lat="44.368832817474775" lon="9.160224038476237"><ele>118.0</ele><time>2026-04-07T07:53:21Z</time></trkpt><trkpt lat="44.368735967804625" lon="9.160695242957706"><ele>123.5</ele><time>2026-04-07T07:53:22Z</time></trkpt><trkpt lat="44.36864198892839" lon="9.161170690033078"><ele>129.0</ele><time>2026-04-07T07:53:23Z</time></trkpt><trkpt lat="44.36855905809064" lon="9.161598482238123"><ele>137.0</ele><time>2026-04-07T07:53:24Z</time></trkpt><trkpt lat="44.36847761268505" lon="9.162002494840655"><ele>145.0</ele><time>2026-04-07T07:53:25Z</time></trkpt><trkpt lat="44.36839570424109" lon="9.162414622458249"><ele>161.5</ele><time>2026-04-07T07:53:26Z</time></trkpt><trkpt lat="44.3683107565283" lon="9.16283796180683"><ele>178.0</ele><time>2026-04-07T07:53:27.019Z</time></trkpt><trkpt lat="44.368226749714495" lon="9.163252963722321"><ele>199.5</ele><time>2026-04-07T07:53:28.02Z</time></trkpt><trkpt lat="44.36814245687423" lon="9.163662815723793"><ele>221.0</ele><time>2026-04-07T07:53:29.017Z</time></trkpt><trkpt lat="44.36805838671938" lon="9.164077260569654"><ele>344.0</ele><time>2026-04-07T07:53:30.02Z</time></trkpt><trkpt lat="44.36746826122411" lon="9.166781815360414"><ele>371.0</ele><time>2026-04-07T07:53:33.357Z</time></trkpt><trkpt lat="44.36719602559566" lon="9.168108150567374"><ele>455.0</ele><time>2026-04-07T07:53:34.357Z</time></trkpt><trkpt lat="44.36692256243707" lon="9.169434328150572"><ele>530.0</ele><time>2026-04-07T07:53:35.357Z</time></trkpt><trkpt lat="44.36664813172874" lon="9.170760231524152"><ele>553.0</ele><time>2026-04-07T07:53:36.357Z</time></trkpt><trkpt lat="44.3663787510478" lon="9.172088135309695"><ele>497.0</ele><time>2026-04-07T07:53:37.357Z</time></trkpt><trkpt lat="44.36610344426006" lon="9.173414235175372"><ele>458.0</ele><time>2026-04-07T07:53:38.357Z</time></trkpt><trkpt lat="44.365833082679245" lon="9.174741710334319"><ele>385.0</ele><time>2026-04-07T07:53:39.357Z</time></trkpt><trkpt lat="44.36555911823934" lon="9.17606731090968"><ele>346.0</ele><time>2026-04-07T07:53:40.357Z</time></trkpt><trkpt lat="44.36528765292828" lon="9.177394598070602"><ele>318.0</ele><time>2026-04-07T07:53:41.357Z</time></trkpt><trkpt lat="44.36501449827933" lon="9.178720698114544"><ele>254.0</ele><time>2026-04-07T07:53:42.357Z</time></trkpt><trkpt lat="44.364740815388046" lon="9.18004684447231"><ele>246.0</ele><time>2026-04-07T07:53:43.357Z</time></trkpt><trkpt lat="44.36446628183216" lon="9.181372597718086"><ele>158.0</ele><time>2026-04-07T07:53:44.357Z</time></trkpt><trkpt lat="44.36418903808847" lon="9.182697433248471"><ele>133.0</ele><time>2026-04-07T07:53:45.357Z</time></trkpt><trkpt lat="44.36400189068575" lon="9.18349566870293"><ele>133.0</ele><time>2026-04-07T07:54:19.999Z</time></trkpt><trkpt lat="44.36390777648258" lon="9.183806976999835"><ele>133.0</ele><time>2026-04-07T07:54:20.999Z</time></trkpt><trkpt lat="44.363791384917235" lon="9.184121707887693"><ele>128.0</ele><time>2026-04-07T07:54:21.999Z</time></trkpt><trkpt lat="44.36363735025221" lon="9.184418658687242"><ele>123.0</ele><time>2026-04-07T07:54:22.999Z</time></trkpt><trkpt lat="44.36347723867521" lon="9.184704802525083"><ele>121.5</ele><time>2026-04-07T07:54:23.999Z</time></trkpt><trkpt lat="44.36330822044034" lon="9.184995418543751"><ele>120.0</ele><time>2026-04-07T07:54:24.999Z</time></trkpt><trkpt lat="44.36314697408833" lon="9.185311676108109"><ele>123.5</ele><time>2026-04-07T07:54:25.999Z</time></trkpt><trkpt lat="44.36299592051948" lon="9.185646180852702"><ele>127.0</ele><time>2026-04-07T07:54:26.999Z</time></trkpt><trkpt lat="44.36287264930149" lon="9.185979514144856"><ele>117.0</ele><time>2026-04-07T07:54:27.999Z</time></trkpt><trkpt lat="44.36277131720295" lon="9.186310876788744"><ele>107.0</ele><time>2026-04-07T07:54:28.999Z</time></trkpt><trkpt lat="44.36268758238963" lon="9.18665845902583"><ele>105.0</ele><time>2026-04-07T07:54:29.999Z</time></trkpt><trkpt lat="44.36261646265636" lon="9.18702698904258"><ele>103.0</ele><time>2026-04-07T07:54:30.999Z</time></trkpt><trkpt lat="44.3625469276017" lon="9.187412654304921"><ele>103.0</ele><time>2026-04-07T07:54:31.999Z</time></trkpt><trkpt lat="44.36247817932787" lon="9.187799041189642"><ele>103.0</ele><time>2026-04-07T07:54:32.999Z</time></trkpt><trkpt lat="44.36240851234316" lon="9.188197055855609"><ele>104.0</ele><time>2026-04-07T07:54:33.999Z</time></trkpt><trkpt lat="44.36233623270947" lon="9.18859857714643"><ele>105.0</ele><time>2026-04-07T07:54:34.999Z</time></trkpt><trkpt lat="44.36226362916557" lon="9.18900266279844"><ele>89.0</ele><time>2026-04-07T07:54:35.999Z</time></trkpt><trkpt lat="44.362191805463446" lon="9.189411210059783"><ele>73.0</ele><time>2026-04-07T07:54:36.999Z</time></trkpt><trkpt lat="44.36212014352481" lon="9.189825282198502"><ele>74.0</ele><time>2026-04-07T07:54:38Z</time></trkpt><trkpt lat="44.36204447705229" lon="9.190237720768087"><ele>75.0</ele><time>2026-04-07T07:54:39Z</time></trkpt><trkpt lat="44.361964511896474" lon="9.190676201757498"><ele>76.0</ele><time>2026-04-07T07:54:40Z</time></trkpt><trkpt lat="44.36188029120789" lon="9.191140990543095"><ele>77.0</ele><time>2026-04-07T07:54:41Z</time></trkpt><trkpt lat="44.36179168942296" lon="9.191621928487708"><ele>78.5</ele><time>2026-04-07T07:54:42Z</time></trkpt><trkpt lat="44.36170501530821" lon="9.192094066748833"><ele>80.0</ele><time>2026-04-07T07:54:43Z</time></trkpt><trkpt lat="44.36162640962572" lon="9.19252722912142"><ele>80.0</ele><time>2026-04-07T07:54:44Z</time></trkpt><trkpt lat="44.36155070202738" lon="9.192934432752288"><ele>80.0</ele><time>2026-04-07T07:54:45Z</time></trkpt><trkpt lat="44.36148521571045" lon="9.193314483882977"><ele>87.0</ele><time>2026-04-07T07:54:46Z</time></trkpt><trkpt lat="44.36143051273927" lon="9.193690361894465"><ele>94.0</ele><time>2026-04-07T07:54:47Z</time></trkpt><trkpt lat="44.361364078802666" lon="9.194076783050802"><ele>94.0</ele><time>2026-04-07T07:54:48Z</time></trkpt><trkpt lat="44.361293118696146" lon="9.194476134331595"><ele>94.0</ele><time>2026-04-07T07:54:49Z</time></trkpt><trkpt lat="44.361219094354595" lon="9.194874970868748"><ele>88.5</ele><time>2026-04-07T07:54:50Z</time></trkpt><trkpt lat="44.36120094776685" lon="9.195284868972577"><ele>83.0</ele><time>2026-04-07T07:54:51Z</time></trkpt><trkpt lat="44.36120599657193" lon="9.195704559089599"><ele>75.0</ele><time>2026-04-07T07:54:52Z</time></trkpt><trkpt lat="44.361158713796286" lon="9.19609951246799"><ele>67.0</ele><time>2026-04-07T07:54:53Z</time></trkpt><trkpt lat="44.36110572898948" lon="9.19649922461043"><ele>66.0</ele><time>2026-04-07T07:54:54Z</time></trkpt><trkpt lat="44.36103624537843" lon="9.196890232280145"><ele>65.0</ele><time>2026-04-07T07:54:55Z</time></trkpt><trkpt lat="44.36094643788279" lon="9.197269827763021"><ele>67.0</ele><time>2026-04-07T07:54:56Z</time></trkpt><trkpt lat="44.36084601647863" lon="9.197643948756536"><ele>69.0</ele><time>2026-04-07T07:54:57Z</time></trkpt><trkpt lat="44.360746510712936" lon="9.198018646187784"><ele>73.0</ele><time>2026-04-07T07:54:58Z</time></trkpt><trkpt lat="44.3606541901789" lon="9.198401326766232"><ele>77.0</ele><time>2026-04-07T07:54:59Z</time></trkpt><trkpt lat="44.36057712812367" lon="9.198792244980375"><ele>70.0</ele><time>2026-04-07T07:55:00Z</time></trkpt><trkpt lat="44.36051784367344" lon="9.1991846122174"><ele>63.0</ele><time>2026-04-07T07:55:01Z</time></trkpt><trkpt lat="44.360479880138286" lon="9.199592939807816"><ele>57.5</ele><time>2026-04-07T07:55:02Z</time></trkpt><trkpt lat="44.36045986574843" lon="9.199997742881292"><ele>52.0</ele><time>2026-04-07T07:55:03Z</time></trkpt><trkpt lat="44.360445379248205" lon="9.200407541871247"><ele>49.0</ele><time>2026-04-07T07:55:04Z</time></trkpt><trkpt lat="44.3604230975634" lon="9.200818079498207"><ele>46.0</ele><time>2026-04-07T07:55:05Z</time></trkpt><trkpt lat="44.36039834982853" lon="9.201235717867105"><ele>48.5</ele><time>2026-04-07T07:55:06Z</time></trkpt><trkpt lat="44.36037366573806" lon="9.201658846574352"><ele>51.0</ele><time>2026-04-07T07:55:07Z</time></trkpt><trkpt lat="44.36035097972111" lon="9.202082405763688"><ele>50.0</ele><time>2026-04-07T07:55:08Z</time></trkpt><trkpt lat="44.360329042003" lon="9.202508076033345"><ele>49.0</ele><time>2026-04-07T07:55:09Z</time></trkpt><trkpt lat="44.36030681637449" lon="9.202935485239008"><ele>47.5</ele><time>2026-04-07T07:55:10Z</time></trkpt><trkpt lat="44.360281155836" lon="9.203364198877862"><ele>46.0</ele><time>2026-04-07T07:55:11Z</time></trkpt><trkpt lat="44.36024819175866" lon="9.203797058588059"><ele>46.0</ele><time>2026-04-07T07:55:12Z</time></trkpt><trkpt lat="44.360195973196085" lon="9.20422532243334"><ele>46.0</ele><time>2026-04-07T07:55:13Z</time></trkpt><trkpt lat="44.360129414933034" lon="9.204650672504993"><ele>47.5</ele><time>2026-04-07T07:55:14Z</time></trkpt><trkpt lat="44.36003877620294" lon="9.205064022064144"><ele>49.0</ele><time>2026-04-07T07:55:15Z</time></trkpt><trkpt lat="44.35992969547501" lon="9.205478012508639"><ele>46.5</ele><time>2026-04-07T07:55:16Z</time></trkpt><trkpt lat="44.35981027155798" lon="9.205880196643266"><ele>44.0</ele><time>2026-04-07T07:55:17Z</time></trkpt><trkpt lat="44.35968396293635" lon="9.20627748529167"><ele>40.5</ele><time>2026-04-07T07:55:18Z</time></trkpt><trkpt lat="44.3595600758629" lon="9.2066754203631"><ele>37.0</ele><time>2026-04-07T07:55:19Z</time></trkpt><trkpt lat="44.359439214393355" lon="9.207074303901305"><ele>37.0</ele><time>2026-04-07T07:55:20Z</time></trkpt><trkpt lat="44.35923887871792" lon="9.207425062263818"><ele>37.0</ele><time>2026-04-07T07:55:21Z</time></trkpt><trkpt lat="44.35919850597464" lon="9.207873921350185"><ele>33.0</ele><time>2026-04-07T07:55:22Z</time></trkpt><trkpt lat="44.35908049795428" lon="9.208273410124697"><ele>29.0</ele><time>2026-04-07T07:55:23Z</time></trkpt><trkpt lat="44.358963649091024" lon="9.20867608322076"><ele>26.5</ele><time>2026-04-07T07:55:24Z</time></trkpt><trkpt lat="44.3588432064396" lon="9.209075408764022"><ele>24.0</ele><time>2026-04-07T07:55:25Z</time></trkpt><trkpt lat="44.358720966151424" lon="9.209469292762488"><ele>23.0</ele><time>2026-04-07T07:55:26Z</time></trkpt><trkpt lat="44.35859851072705" lon="9.20986325022902"><ele>22.0</ele><time>2026-04-07T07:55:27Z</time></trkpt><trkpt lat="44.35847300845049" lon="9.21025788627797"><ele>22.0</ele><time>2026-04-07T07:55:28Z</time></trkpt><trkpt lat="44.358359209751924" lon="9.210651888224664"><ele>22.0</ele><time>2026-04-07T07:55:29Z</time></trkpt><trkpt lat="44.35825439925206" lon="9.211037311142567"><ele>22.0</ele><time>2026-04-07T07:55:30Z</time></trkpt><trkpt lat="44.35816535279372" lon="9.211403015304628"><ele>22.0</ele><time>2026-04-07T07:55:31Z</time></trkpt><trkpt lat="44.358080885630315" lon="9.211760194021174"><ele>18.0</ele><time>2026-04-07T07:55:32Z</time></trkpt><trkpt lat="44.35799735136696" lon="9.212128573810288"><ele>14.0</ele><time>2026-04-07T07:55:33Z</time></trkpt><trkpt lat="44.35792068096485" lon="9.21251000095047"><ele>13.5</ele><time>2026-04-07T07:55:34Z</time></trkpt><trkpt lat="44.35785185341346" lon="9.21289191724843"><ele>13.0</ele><time>2026-04-07T07:55:35Z</time></trkpt><trkpt lat="44.35780012437234" lon="9.2132764294362"><ele>12.5</ele><time>2026-04-07T07:55:36Z</time></trkpt><trkpt lat="44.35775377283046" lon="9.21362801748417"><ele>12.0</ele><time>2026-04-07T07:55:37Z</time></trkpt><trkpt lat="44.357711623132474" lon="9.213975440801756"><ele>16.0</ele><time>2026-04-07T07:55:38Z</time></trkpt><trkpt lat="44.357673350952595" lon="9.214343983690586"><ele>20.0</ele><time>2026-04-07T07:55:39Z</time></trkpt><trkpt lat="44.357648112511924" lon="9.214745538704273"><ele>32.5</ele><time>2026-04-07T07:55:40Z</time></trkpt><trkpt lat="44.357614841862556" lon="9.215167436627018"><ele>45.0</ele><time>2026-04-07T07:55:41Z</time></trkpt><trkpt lat="44.35757844436991" lon="9.21558242122423"><ele>53.0</ele><time>2026-04-07T07:55:42Z</time></trkpt><trkpt lat="44.35754188871787" lon="9.21600010382368"><ele>61.0</ele><time>2026-04-07T07:55:43.017Z</time></trkpt><trkpt lat="44.35750603148414" lon="9.216404634531836"><ele>59.5</ele><time>2026-04-07T07:55:44.016Z</time></trkpt><trkpt lat="44.35746940925099" lon="9.216802525538895"><ele>58.0</ele><time>2026-04-07T07:55:45.017Z</time></trkpt><trkpt lat="44.35742547949654" lon="9.217199650121872"><ele>49.0</ele><time>2026-04-07T07:55:46.017Z</time></trkpt><trkpt lat="44.35738234677074" lon="9.21760075152671"><ele>40.0</ele><time>2026-04-07T07:55:47.018Z</time></trkpt><trkpt lat="44.357358436141496" lon="9.218035815292241"><ele>35.5</ele><time>2026-04-07T07:55:48Z</time></trkpt><trkpt lat="44.35734470044202" lon="9.218409616302749"><ele>31.0</ele><time>2026-04-07T07:55:48.999Z</time></trkpt><trkpt lat="44.35734411246744" lon="9.21881725847935"><ele>32.5</ele><time>2026-04-07T07:55:49.999Z</time></trkpt><trkpt lat="44.35739853266567" lon="9.21921268210643"><ele>34.0</ele><time>2026-04-07T07:55:50.999Z</time></trkpt><trkpt lat="44.357440008350885" lon="9.219596410139994"><ele>38.0</ele><time>2026-04-07T07:55:51.999Z</time></trkpt><trkpt lat="44.357486314287485" lon="9.219973238172445"><ele>42.0</ele><time>2026-04-07T07:55:52.999Z</time></trkpt><trkpt lat="44.35753843102368" lon="9.220345433837347"><ele>44.5</ele><time>2026-04-07T07:55:53.999Z</time></trkpt><trkpt lat="44.35759973516595" lon="9.22070546838574"><ele>47.0</ele><time>2026-04-07T07:55:54.999Z</time></trkpt><trkpt lat="44.35766176024376" lon="9.221061497009348"><ele>47.0</ele><time>2026-04-07T07:55:55.999Z</time></trkpt><trkpt lat="44.35772690528402" lon="9.221414818804346"><ele>47.0</ele><time>2026-04-07T07:55:56.999Z</time></trkpt><trkpt lat="44.35779144517846" lon="9.221766049649107"><ele>49.0</ele><time>2026-04-07T07:55:57.999Z</time></trkpt><trkpt lat="44.35785106284693" lon="9.222115449610197"><ele>51.0</ele><time>2026-04-07T07:55:58.999Z</time></trkpt><trkpt lat="44.35791085750286" lon="9.222457729575403"><ele>51.5</ele><time>2026-04-07T07:55:59.999Z</time></trkpt><trkpt lat="44.35796851242409" lon="9.222797841899466"><ele>52.0</ele><time>2026-04-07T07:56:00.999Z</time></trkpt><trkpt lat="44.3580236422875" lon="9.223132001325233"><ele>45.5</ele><time>2026-04-07T07:56:01.999Z</time></trkpt><trkpt lat="44.35807829010513" lon="9.223466994143575"><ele>39.0</ele><time>2026-04-07T07:56:02.999Z</time></trkpt><trkpt lat="44.35813313782967" lon="9.223797478159195"><ele>41.0</ele><time>2026-04-07T07:56:03.999Z</time></trkpt><trkpt lat="44.35818533430705" lon="9.224131692908248"><ele>43.0</ele><time>2026-04-07T07:56:04.999Z</time></trkpt><trkpt lat="44.35823354431113" lon="9.224472136178225"><ele>43.0</ele><time>2026-04-07T07:56:05.999Z</time></trkpt><trkpt lat="44.358284620170906" lon="9.224807280847243"><ele>43.0</ele><time>2026-04-07T07:56:06.999Z</time></trkpt><trkpt lat="44.35833377339571" lon="9.225144190302965"><ele>49.0</ele><time>2026-04-07T07:56:07.999Z</time></trkpt><trkpt lat="44.35838597545326" lon="9.225481698844064"><ele>55.0</ele><time>2026-04-07T07:56:08.999Z</time></trkpt><trkpt lat="44.358439193584" lon="9.22581406212372"><ele>57.0</ele><time>2026-04-07T07:56:09.999Z</time></trkpt><trkpt lat="44.358492369518196" lon="9.226143837187553"><ele>59.0</ele><time>2026-04-07T07:56:10.999Z</time></trkpt><trkpt lat="44.35854513427729" lon="9.226480526517548"><ele>59.0</ele><time>2026-04-07T07:56:12.019Z</time></trkpt><trkpt lat="44.35859969329156" lon="9.226813111626557"><ele>59.0</ele><time>2026-04-07T07:56:13.017Z</time></trkpt><trkpt lat="44.35865443622389" lon="9.227151833145834"><ele>58.0</ele><time>2026-04-07T07:56:14.016Z</time></trkpt><trkpt lat="44.35870632380508" lon="9.227486491231456"><ele>57.0</ele><time>2026-04-07T07:56:15.02Z</time></trkpt><trkpt lat="44.35890431054342" lon="9.228523168721448"><ele>68.5</ele><time>2026-04-07T07:56:16.999Z</time></trkpt><trkpt lat="44.358951868891104" lon="9.228932638661046"><ele>80.0</ele><time>2026-04-07T07:56:17.999Z</time></trkpt><trkpt lat="44.359014327112455" lon="9.22936653983706"><ele>82.5</ele><time>2026-04-07T07:56:18.999Z</time></trkpt><trkpt lat="44.35908287420645" lon="9.229766346289313"><ele>85.0</ele><time>2026-04-07T07:56:19.999Z</time></trkpt><trkpt lat="44.35915159339395" lon="9.230165599904895"><ele>96.5</ele><time>2026-04-07T07:56:21.016Z</time></trkpt><trkpt lat="44.359220018460235" lon="9.230563496614536"><ele>108.0</ele><time>2026-04-07T07:56:22.017Z</time></trkpt><trkpt lat="44.35928758883076" lon="9.230955526603932"><ele>124.0</ele><time>2026-04-07T07:56:23.021Z</time></trkpt><trkpt lat="44.35935354505658" lon="9.231334567868672"><ele>140.0</ele><time>2026-04-07T07:56:24.018Z</time></trkpt><trkpt lat="44.359269216697996" lon="9.233881551780955"><ele>91.0</ele><time>2026-04-07T07:56:30.999Z</time></trkpt><trkpt lat="44.35922220477319" lon="9.234221879728599"><ele>42.0</ele><time>2026-04-07T07:56:31.999Z</time></trkpt><trkpt lat="44.35912127971934" lon="9.234525956257507"><ele>35.5</ele><time>2026-04-07T07:56:32.999Z</time></trkpt><trkpt lat="44.359040735461924" lon="9.234853609297605"><ele>29.0</ele><time>2026-04-07T07:56:33.999Z</time></trkpt><trkpt lat="44.358951184680315" lon="9.235162185552378"><ele>27.5</ele><time>2026-04-07T07:56:34.999Z</time></trkpt><trkpt lat="44.358846046820766" lon="9.23546242100522"><ele>26.0</ele><time>2026-04-07T07:56:35.999Z</time></trkpt><trkpt lat="44.35872679026264" lon="9.235757762637347"><ele>38.5</ele><time>2026-04-07T07:56:36.999Z</time></trkpt><trkpt lat="44.35859090073326" lon="9.236043286161175"><ele>51.0</ele><time>2026-04-07T07:56:37.999Z</time></trkpt><trkpt lat="44.35844197509383" lon="9.236320750209195"><ele>66.5</ele><time>2026-04-07T07:56:38.999Z</time></trkpt><trkpt lat="44.35828319841356" lon="9.236594384927107"><ele>82.0</ele><time>2026-04-07T07:56:39.999Z</time></trkpt><trkpt lat="44.358114350566325" lon="9.2368602380546"><ele>81.0</ele><time>2026-04-07T07:56:40.999Z</time></trkpt><trkpt lat="44.35793210390886" lon="9.237116715400072"><ele>80.0</ele><time>2026-04-07T07:56:41.999Z</time></trkpt><trkpt lat="44.35774790110441" lon="9.237373784621724"><ele>92.5</ele><time>2026-04-07T07:56:42.999Z</time></trkpt><trkpt lat="44.35755897125777" lon="9.237639099356926"><ele>105.0</ele><time>2026-04-07T07:56:44Z</time></trkpt><trkpt lat="44.35737013727666" lon="9.23791050713714"><ele>103.0</ele><time>2026-04-07T07:56:45.02Z</time></trkpt><trkpt lat="44.35718544749671" lon="9.238175012465769"><ele>101.0</ele><time>2026-04-07T07:56:46.019Z</time></trkpt><trkpt lat="44.35699994562366" lon="9.238434081272384"><ele>101.0</ele><time>2026-04-07T07:56:47.018Z</time></trkpt><trkpt lat="44.3568047225581" lon="9.238702816918163"><ele>101.0</ele><time>2026-04-07T07:56:48.018Z</time></trkpt><trkpt lat="44.35660839858543" lon="9.238979671362292"><ele>146.0</ele><time>2026-04-07T07:56:49.018Z</time></trkpt><trkpt lat="44.35509693112469" lon="9.240851063188382"><ele>112.0</ele><time>2026-04-07T07:56:52.355Z</time></trkpt><trkpt lat="44.35444148868594" lon="9.24170881843168"><ele>83.0</ele><time>2026-04-07T07:56:53.354Z</time></trkpt><trkpt lat="44.35393141121077" lon="9.24235523679223"><ele>68.5</ele><time>2026-04-07T07:57:04Z</time></trkpt><trkpt lat="44.35376150901447" lon="9.242592033650395"><ele>54.0</ele><time>2026-04-07T07:57:05Z</time></trkpt><trkpt lat="44.35362854594693" lon="9.242855870073845"><ele>47.0</ele><time>2026-04-07T07:57:06Z</time></trkpt><trkpt lat="44.35337281159946" lon="9.243155234991466"><ele>40.0</ele><time>2026-04-07T07:57:07Z</time></trkpt><trkpt lat="44.35314113358214" lon="9.243457744531286"><ele>43.0</ele><time>2026-04-07T07:57:08Z</time></trkpt><trkpt lat="44.35290475761578" lon="9.243754316898302"><ele>46.0</ele><time>2026-04-07T07:57:09Z</time></trkpt><trkpt lat="44.352661614407765" lon="9.244050960217947"><ele>59.5</ele><time>2026-04-07T07:57:10Z</time></trkpt><trkpt lat="44.35241992184269" lon="9.244355942978968"><ele>73.0</ele><time>2026-04-07T07:57:11Z</time></trkpt><trkpt lat="44.35217236385817" lon="9.244676376686083"><ele>86.5</ele><time>2026-04-07T07:57:12Z</time></trkpt><trkpt lat="44.35193251640928" lon="9.245007708753942"><ele>100.0</ele><time>2026-04-07T07:57:13Z</time></trkpt><trkpt lat="44.35167743971639" lon="9.245344368394287"><ele>112.5</ele><time>2026-04-07T07:57:14Z</time></trkpt><trkpt lat="44.35140817727608" lon="9.24569071686113"><ele>125.0</ele><time>2026-04-07T07:57:15Z</time></trkpt><trkpt lat="44.35113371553896" lon="9.246039910917105"><ele>125.0</ele><time>2026-04-07T07:57:16Z</time></trkpt><trkpt lat="44.35085105913579" lon="9.24639202532293"><ele>125.0</ele><time>2026-04-07T07:57:17.014Z</time></trkpt><trkpt lat="44.350573980974566" lon="9.246739181143543"><ele>111.5</ele><time>2026-04-07T07:57:18.018Z</time></trkpt><trkpt lat="44.35029886373884" lon="9.247097637779568"><ele>98.0</ele><time>2026-04-07T07:57:19.016Z</time></trkpt><trkpt lat="44.35002187018595" lon="9.247448838282887"><ele>98.0</ele><time>2026-04-07T07:57:20Z</time></trkpt><trkpt lat="44.34995065791578" lon="9.24762151155082"><ele>98.0</ele><time>2026-04-07T07:57:21Z</time></trkpt><trkpt lat="44.349747957746146" lon="9.24787644574063"><ele>98.0</ele><time>2026-04-07T07:57:22Z</time></trkpt><trkpt lat="44.34957119412314" lon="9.248142933851016"><ele>99.5</ele><time>2026-04-07T07:57:23Z</time></trkpt><trkpt lat="44.349419775669716" lon="9.248418111562188"><ele>101.0</ele><time>2026-04-07T07:57:24Z</time></trkpt><trkpt lat="44.34928988289513" lon="9.24870103606999"><ele>105.0</ele><time>2026-04-07T07:57:25Z</time></trkpt><trkpt lat="44.34917381004994" lon="9.248989217858055"><ele>109.0</ele><time>2026-04-07T07:57:26Z</time></trkpt><trkpt lat="44.349070858192235" lon="9.249289795759998"><ele>109.0</ele><time>2026-04-07T07:57:27Z</time></trkpt><trkpt lat="44.348989732315765" lon="9.249604528489868"><ele>109.0</ele><time>2026-04-07T07:57:28Z</time></trkpt><trkpt lat="44.34892109021635" lon="9.249914912444197"><ele>97.5</ele><time>2026-04-07T07:57:29Z</time></trkpt><trkpt lat="44.348866448462076" lon="9.250231740774414"><ele>86.0</ele><time>2026-04-07T07:57:30Z</time></trkpt><trkpt lat="44.34882374138967" lon="9.25055597506353"><ele>89.5</ele><time>2026-04-07T07:57:31Z</time></trkpt><trkpt lat="44.348799096873236" lon="9.25088706917755"><ele>93.0</ele><time>2026-04-07T07:57:32Z</time></trkpt><trkpt lat="44.34877365105709" lon="9.251213767702023"><ele>93.5</ele><time>2026-04-07T07:57:33Z</time></trkpt><trkpt lat="44.34874888025179" lon="9.251542882853103"><ele>94.0</ele><time>2026-04-07T07:57:34Z</time></trkpt><trkpt lat="44.348720501397246" lon="9.25187438676117"><ele>94.0</ele><time>2026-04-07T07:57:35Z</time></trkpt><trkpt lat="44.34868898356373" lon="9.252211599276276"><ele>94.0</ele><time>2026-04-07T07:57:36Z</time></trkpt><trkpt lat="44.34865239960145" lon="9.252549576098943"><ele>96.0</ele><time>2026-04-07T07:57:37Z</time></trkpt><trkpt lat="44.34860680816704" lon="9.252887227231366"><ele>98.0</ele><time>2026-04-07T07:57:38Z</time></trkpt><trkpt lat="44.34854863745483" lon="9.253229501281938"><ele>103.0</ele><time>2026-04-07T07:57:39Z</time></trkpt><trkpt lat="44.34847573989194" lon="9.253566955282341"><ele>108.0</ele><time>2026-04-07T07:57:40Z</time></trkpt><trkpt lat="44.34840087920466" lon="9.25390458672383"><ele>117.5</ele><time>2026-04-07T07:57:41Z</time></trkpt><trkpt lat="44.34832261185564" lon="9.254246954406161"><ele>127.0</ele><time>2026-04-07T07:57:42Z</time></trkpt><trkpt lat="44.348248961777216" lon="9.254589084806664"><ele>140.5</ele><time>2026-04-07T07:57:43Z</time></trkpt><trkpt lat="44.34818220340489" lon="9.254935711341302"><ele>154.0</ele><time>2026-04-07T07:57:44Z</time></trkpt><trkpt lat="44.34811724630881" lon="9.255277319056379"><ele>171.0</ele><time>2026-04-07T07:57:45Z</time></trkpt><trkpt lat="44.34805225241229" lon="9.255624760840805"><ele>188.0</ele><time>2026-04-07T07:57:46.019Z</time></trkpt><trkpt lat="44.34798945643772" lon="9.255967131207301"><ele>202.5</ele><time>2026-04-07T07:57:47.015Z</time></trkpt><trkpt lat="44.34792500299624" lon="9.25631186854995"><ele>217.0</ele><time>2026-04-07T07:57:48.018Z</time></trkpt><trkpt lat="44.34786261224092" lon="9.256655643364674"><ele>231.0</ele><time>2026-04-07T07:57:49.019Z</time></trkpt><trkpt lat="44.34779816531803" lon="9.256997022713492"><ele>245.0</ele><time>2026-04-07T07:57:50.014Z</time></trkpt><trkpt lat="44.347155602824024" lon="9.259676480293669"><ele>331.0</ele><time>2026-04-07T07:57:53.355Z</time></trkpt><trkpt lat="44.34687278707756" lon="9.260997511088974"><ele>351.0</ele><time>2026-04-07T07:57:54.354Z</time></trkpt><trkpt lat="44.346588539144236" lon="9.262319753935707"><ele>308.0</ele><time>2026-04-07T07:57:55.355Z</time></trkpt><trkpt lat="44.346303931446" lon="9.263641098168781"><ele>321.0</ele><time>2026-04-07T07:57:56.355Z</time></trkpt><trkpt lat="44.346017203808614" lon="9.264961487045541"><ele>333.0</ele><time>2026-04-07T07:57:57.355Z</time></trkpt><trkpt lat="44.345730842419144" lon="9.266281986631812"><ele>254.0</ele><time>2026-04-07T07:57:58.355Z</time></trkpt><trkpt lat="44.345445818108715" lon="9.267602958019337"><ele>245.0</ele><time>2026-04-07T07:57:59.355Z</time></trkpt><trkpt lat="44.345161005321835" lon="9.268923969245513"><ele>213.0</ele><time>2026-04-07T07:58:00.354Z</time></trkpt><trkpt lat="44.34487743442266" lon="9.270245495358974"><ele>114.0</ele><time>2026-04-07T07:58:01.354Z</time></trkpt><trkpt lat="44.34456548193261" lon="9.271554628369048"><ele>88.0</ele><time>2026-04-07T07:58:02.355Z</time></trkpt><trkpt lat="44.34430978265064" lon="9.272304531195454"><ele>88.0</ele><time>2026-04-07T07:58:32.999Z</time></trkpt><trkpt lat="44.34421141028746" lon="9.272589822662765"><ele>88.0</ele><time>2026-04-07T07:58:33.999Z</time></trkpt><trkpt lat="44.34409186509554" lon="9.27286717419637"><ele>81.33333333333333</ele><time>2026-04-07T07:58:34.999Z</time></trkpt><trkpt lat="44.34400528969668" lon="9.273115352227418"><ele>74.66666666666667</ele><time>2026-04-07T07:58:35.999Z</time></trkpt><trkpt lat="44.34391218751893" lon="9.273378646572413"><ele>68.0</ele><time>2026-04-07T07:58:36.999Z</time></trkpt><trkpt lat="44.34382042933285" lon="9.273676755387939"><ele>85.5</ele><time>2026-04-07T07:58:37.999Z</time></trkpt><trkpt lat="44.34371758181822" lon="9.273985498527233"><ele>103.0</ele><time>2026-04-07T07:58:38.999Z</time></trkpt><trkpt lat="44.34360501212786" lon="9.274308230580463"><ele>103.0</ele><time>2026-04-07T07:58:39.999Z</time></trkpt><trkpt lat="44.34348755627293" lon="9.27464281333692"><ele>103.0</ele><time>2026-04-07T07:58:40.999Z</time></trkpt><trkpt lat="44.34336706669533" lon="9.274982271587367"><ele>115.0</ele><time>2026-04-07T07:58:41.999Z</time></trkpt><trkpt lat="44.34323761978056" lon="9.275320573348163"><ele>127.0</ele><time>2026-04-07T07:58:42.999Z</time></trkpt><trkpt lat="44.34308120706873" lon="9.27564307500287"><ele>133.5</ele><time>2026-04-07T07:58:43.999Z</time></trkpt><trkpt lat="44.34290710476318" lon="9.275956995734404"><ele>140.0</ele><time>2026-04-07T07:58:44.999Z</time></trkpt><trkpt lat="44.342727958077965" lon="9.27626192930852"><ele>147.5</ele><time>2026-04-07T07:58:45.999Z</time></trkpt><trkpt lat="44.342552368840984" lon="9.276567949621636"><ele>155.0</ele><time>2026-04-07T07:58:46.999Z</time></trkpt><trkpt lat="44.34237664976282" lon="9.276896990100607"><ele>182.0</ele><time>2026-04-07T07:58:47.999Z</time></trkpt><trkpt lat="44.34219897548346" lon="9.277233986711902"><ele>209.0</ele><time>2026-04-07T07:58:48.999Z</time></trkpt><trkpt lat="44.342019012159334" lon="9.277575145702006"><ele>216.0</ele><time>2026-04-07T07:58:50.017Z</time></trkpt><trkpt lat="44.34184204409876" lon="9.277909670711134"><ele>223.0</ele><time>2026-04-07T07:58:51.018Z</time></trkpt><trkpt lat="44.34167022461894" lon="9.278236246482873"><ele>241.5</ele><time>2026-04-07T07:58:52.019Z</time></trkpt><trkpt lat="44.34149942906953" lon="9.278560163443487"><ele>260.0</ele><time>2026-04-07T07:58:53.017Z</time></trkpt><trkpt lat="44.341321319522315" lon="9.278898135631493"><ele>339.0</ele><time>2026-04-07T07:58:54.016Z</time></trkpt><trkpt lat="44.34016245282283" lon="9.281209825741959"><ele>325.0</ele><time>2026-04-07T07:58:57.354Z</time></trkpt><trkpt lat="44.33969719012472" lon="9.282133620379728"><ele>349.0</ele><time>2026-04-07T07:58:58.354Z</time></trkpt><trkpt lat="44.33923309113679" lon="9.283058503061985"><ele>358.0</ele><time>2026-04-07T07:58:59.354Z</time></trkpt><trkpt lat="44.33876893113215" lon="9.283983286644057"><ele>364.0</ele><time>2026-04-07T07:59:00.354Z</time></trkpt><trkpt lat="44.33830269410023" lon="9.284905953034736"><ele>342.0</ele><time>2026-04-07T07:59:01.354Z</time></trkpt><trkpt lat="44.33783697900358" lon="9.285829110993076"><ele>337.0</ele><time>2026-04-07T07:59:02.354Z</time></trkpt><trkpt lat="44.33737267197402" lon="9.286753906706133"><ele>302.0</ele><time>2026-04-07T07:59:03.354Z</time></trkpt><trkpt lat="44.33690887570095" lon="9.28767901180274"><ele>255.0</ele><time>2026-04-07T07:59:04.354Z</time></trkpt><trkpt lat="44.33644251811786" lon="9.288601920760755"><ele>225.0</ele><time>2026-04-07T07:59:05.354Z</time></trkpt><trkpt lat="44.3359635846407" lon="9.289511885417777"><ele>206.0</ele><time>2026-04-07T07:59:06.354Z</time></trkpt><trkpt lat="44.33544958609398" lon="9.290383770886228"><ele>157.0</ele><time>2026-04-07T07:59:07.354Z</time></trkpt><trkpt lat="44.334386992309554" lon="9.291766136893342"><ele>157.0</ele><time>2026-04-07T07:59:35Z</time></trkpt><trkpt lat="44.33418620124413" lon="9.29199286631768"><ele>157.0</ele><time>2026-04-07T07:59:36Z</time></trkpt><trkpt lat="44.3339732336266" lon="9.29220446327778"><ele>149.5</ele><time>2026-04-07T07:59:37Z</time></trkpt><trkpt lat="44.333751683270506" lon="9.29241261292729"><ele>142.0</ele><time>2026-04-07T07:59:38Z</time></trkpt><trkpt lat="44.33352420641828" lon="9.292623505965885"><ele>142.0</ele><time>2026-04-07T07:59:39Z</time></trkpt><trkpt lat="44.33329343495855" lon="9.292825430242862"><ele>142.0</ele><time>2026-04-07T07:59:40Z</time></trkpt><trkpt lat="44.33305563405848" lon="9.293038975330882"><ele>143.0</ele><time>2026-04-07T07:59:41Z</time></trkpt><trkpt lat="44.33282605261981" lon="9.29326899684607"><ele>144.0</ele><time>2026-04-07T07:59:42Z</time></trkpt><trkpt lat="44.33261950882192" lon="9.293498080406302"><ele>144.0</ele><time>2026-04-07T07:59:43Z</time></trkpt><trkpt lat="44.33244148436763" lon="9.293742844513204"><ele>144.0</ele><time>2026-04-07T07:59:44Z</time></trkpt><trkpt lat="44.332277265337034" lon="9.29400703836445"><ele>151.0</ele><time>2026-04-07T07:59:45Z</time></trkpt><trkpt lat="44.332119988917796" lon="9.294292619627807"><ele>158.0</ele><time>2026-04-07T07:59:46Z</time></trkpt><trkpt lat="44.33196738795345" lon="9.294592405970242"><ele>145.5</ele><time>2026-04-07T07:59:47Z</time></trkpt><trkpt lat="44.33182723927448" lon="9.294906935736668"><ele>133.0</ele><time>2026-04-07T07:59:48Z</time></trkpt><trkpt lat="44.33170120088534" lon="9.295232050632828"><ele>133.0</ele><time>2026-04-07T07:59:49Z</time></trkpt><trkpt lat="44.331588105452376" lon="9.295569809847159"><ele>133.0</ele><time>2026-04-07T07:59:50Z</time></trkpt><trkpt lat="44.331488664007765" lon="9.295916649405019"><ele>139.0</ele><time>2026-04-07T07:59:51Z</time></trkpt><trkpt lat="44.33138560186344" lon="9.296265427322238"><ele>145.0</ele><time>2026-04-07T07:59:52Z</time></trkpt><trkpt lat="44.331284564599144" lon="9.296614025304768"><ele>145.0</ele><time>2026-04-07T07:59:53Z</time></trkpt><trkpt lat="44.331182889440264" lon="9.296970816569326"><ele>145.0</ele><time>2026-04-07T07:59:54Z</time></trkpt><trkpt lat="44.33108270890191" lon="9.297329147466435"><ele>141.0</ele><time>2026-04-07T07:59:55Z</time></trkpt><trkpt lat="44.33099205955684" lon="9.297693316089767"><ele>137.0</ele><time>2026-04-07T07:59:56Z</time></trkpt><trkpt lat="44.330924758416565" lon="9.298066146970394"><ele>133.0</ele><time>2026-04-07T07:59:57Z</time></trkpt><trkpt lat="44.33088053814438" lon="9.298447477469674"><ele>129.0</ele><time>2026-04-07T07:59:58Z</time></trkpt><trkpt lat="44.33085756359748" lon="9.29883089254254"><ele>120.5</ele><time>2026-04-07T07:59:59Z</time></trkpt><trkpt lat="44.33084588282996" lon="9.299217788871504"><ele>112.0</ele><time>2026-04-07T08:00:00Z</time></trkpt><trkpt lat="44.330848044972" lon="9.299605937303344"><ele>108.5</ele><time>2026-04-07T08:00:01Z</time></trkpt><trkpt lat="44.33086521239518" lon="9.299991488272886"><ele>105.0</ele><time>2026-04-07T08:00:02Z</time></trkpt><trkpt lat="44.330897931763076" lon="9.300369308121669"><ele>105.0</ele><time>2026-04-07T08:00:03Z</time></trkpt><trkpt lat="44.33094173457031" lon="9.300743063316357"><ele>105.0</ele><time>2026-04-07T08:00:03.999Z</time></trkpt><trkpt lat="44.330983264129415" lon="9.301103423228342"><ele>107.5</ele><time>2026-04-07T08:00:04.999Z</time></trkpt><trkpt lat="44.33101728926469" lon="9.301463105285395"><ele>110.0</ele><time>2026-04-07T08:00:05.999Z</time></trkpt><trkpt lat="44.331034551888905" lon="9.301835317912488"><ele>110.0</ele><time>2026-04-07T08:00:06.999Z</time></trkpt><trkpt lat="44.33103290314234" lon="9.302221055309404"><ele>110.0</ele><time>2026-04-07T08:00:07.999Z</time></trkpt><trkpt lat="44.331010490947605" lon="9.302606234996695"><ele>111.0</ele><time>2026-04-07T08:00:08.999Z</time></trkpt><trkpt lat="44.33097980983094" lon="9.302998598924013"><ele>112.0</ele><time>2026-04-07T08:00:09.999Z</time></trkpt><trkpt lat="44.330949334879676" lon="9.30338810082968"><ele>110.0</ele><time>2026-04-07T08:00:10.999Z</time></trkpt><trkpt lat="44.33092359699426" lon="9.303785427009405"><ele>108.0</ele><time>2026-04-07T08:00:11.999Z</time></trkpt><trkpt lat="44.330914778572556" lon="9.304186811815129"><ele>106.0</ele><time>2026-04-07T08:00:12.999Z</time></trkpt><trkpt lat="44.33092694565601" lon="9.304584684641203"><ele>104.0</ele><time>2026-04-07T08:00:13.999Z</time></trkpt><trkpt lat="44.33095612579252" lon="9.304981496588699"><ele>104.0</ele><time>2026-04-07T08:00:14.999Z</time></trkpt><trkpt lat="44.33099749813015" lon="9.305358234683673"><ele>104.0</ele><time>2026-04-07T08:00:15.999Z</time></trkpt><trkpt lat="44.33104224023336" lon="9.30571255113842"><ele>107.0</ele><time>2026-04-07T08:00:16.999Z</time></trkpt><trkpt lat="44.33108257281656" lon="9.306051317347178"><ele>110.0</ele><time>2026-04-07T08:00:17.999Z</time></trkpt><trkpt lat="44.331111677019756" lon="9.306399992985035"><ele>110.0</ele><time>2026-04-07T08:00:18.999Z</time></trkpt><trkpt lat="44.331130848903996" lon="9.306757447532632"><ele>110.0</ele><time>2026-04-07T08:00:19.999Z</time></trkpt><trkpt lat="44.33112633748736" lon="9.307117231711146"><ele>106.0</ele><time>2026-04-07T08:00:20.999Z</time></trkpt><trkpt lat="44.331093050185125" lon="9.307472048319328"><ele>102.0</ele><time>2026-04-07T08:00:21.999Z</time></trkpt><trkpt lat="44.33104306202903" lon="9.307820576999973"><ele>97.5</ele><time>2026-04-07T08:00:22.999Z</time></trkpt><trkpt lat="44.33098057298827" lon="9.3081609993772"><ele>93.0</ele><time>2026-04-07T08:00:23.999Z</time></trkpt><trkpt lat="44.330911349468536" lon="9.308502601966095"><ele>93.0</ele><time>2026-04-07T08:00:24.999Z</time></trkpt><trkpt lat="44.3308419092192" lon="9.308840508745407"><ele>93.0</ele><time>2026-04-07T08:00:25.999Z</time></trkpt><trkpt lat="44.330770710155704" lon="9.309175212802263"><ele>83.5</ele><time>2026-04-07T08:00:26.999Z</time></trkpt><trkpt lat="44.330700899268614" lon="9.309516107768594"><ele>74.0</ele><time>2026-04-07T08:00:27.999Z</time></trkpt><trkpt lat="44.33063072380998" lon="9.3098684054418"><ele>77.0</ele><time>2026-04-07T08:00:28.999Z</time></trkpt><trkpt lat="44.330558576137584" lon="9.310219626186779"><ele>80.0</ele><time>2026-04-07T08:00:29.999Z</time></trkpt><trkpt lat="44.330481067118384" lon="9.310573429271923"><ele>79.0</ele><time>2026-04-07T08:00:30.999Z</time></trkpt><trkpt lat="44.33040680308025" lon="9.310921915759668"><ele>78.0</ele><time>2026-04-07T08:00:31.999Z</time></trkpt><trkpt lat="44.33033512029666" lon="9.311248928655749"><ele>78.5</ele><time>2026-04-07T08:00:32.999Z</time></trkpt><trkpt lat="44.33026216467385" lon="9.311572908027502"><ele>79.0</ele><time>2026-04-07T08:00:33.999Z</time></trkpt><trkpt lat="44.33018129436256" lon="9.311899479013734"><ele>72.5</ele><time>2026-04-07T08:00:34.999Z</time></trkpt><trkpt lat="44.33009097381558" lon="9.312246575513917"><ele>66.0</ele><time>2026-04-07T08:00:35.999Z</time></trkpt><trkpt lat="44.32999668657011" lon="9.312598665632919"><ele>66.0</ele><time>2026-04-07T08:00:36.999Z</time></trkpt><trkpt lat="44.32989910729704" lon="9.312953868707538"><ele>66.0</ele><time>2026-04-07T08:00:37.999Z</time></trkpt><trkpt lat="44.329795743627635" lon="9.313314540570202"><ele>71.0</ele><time>2026-04-07T08:00:38.999Z</time></trkpt><trkpt lat="44.329683399136385" lon="9.313671128058502"><ele>76.0</ele><time>2026-04-07T08:00:39.999Z</time></trkpt><trkpt lat="44.329568147677044" lon="9.31402191005303"><ele>76.0</ele><time>2026-04-07T08:00:40.999Z</time></trkpt><trkpt lat="44.32944902441199" lon="9.314372813541839"><ele>76.0</ele><time>2026-04-07T08:00:41.999Z</time></trkpt><trkpt lat="44.3293325295026" lon="9.314720332854316"><ele>73.5</ele><time>2026-04-07T08:00:42.999Z</time></trkpt><trkpt lat="44.32922049602965" lon="9.315047867594968"><ele>71.0</ele><time>2026-04-07T08:00:43.999Z</time></trkpt><trkpt lat="44.329112141262875" lon="9.315378653821345"><ele>74.5</ele><time>2026-04-07T08:00:44.999Z</time></trkpt><trkpt lat="44.32899943659758" lon="9.315715028500088"><ele>78.0</ele><time>2026-04-07T08:00:45.999Z</time></trkpt><trkpt lat="44.328888396737945" lon="9.316054520059804"><ele>80.0</ele><time>2026-04-07T08:00:46.999Z</time></trkpt><trkpt lat="44.328775761575145" lon="9.31640045611873"><ele>82.0</ele><time>2026-04-07T08:00:48.016Z</time></trkpt><trkpt lat="44.32866650470031" lon="9.316740757457268"><ele>82.0</ele><time>2026-04-07T08:00:49.016Z</time></trkpt><trkpt lat="44.328560862142794" lon="9.317087994297015"><ele>82.0</ele><time>2026-04-07T08:00:50.02Z</time></trkpt><trkpt lat="44.32845091380589" lon="9.317420311331835"><ele>69.5</ele><time>2026-04-07T08:00:50.999Z</time></trkpt><trkpt lat="44.32834272179642" lon="9.317760266630005"><ele>57.0</ele><time>2026-04-07T08:00:51.999Z</time></trkpt><trkpt lat="44.32820559950703" lon="9.318238812879603"><ele>48.0</ele><time>2026-04-07T08:00:52.999Z</time></trkpt><trkpt lat="44.328083340291506" lon="9.318576033915388"><ele>39.0</ele><time>2026-04-07T08:00:53.999Z</time></trkpt><trkpt lat="44.327959431028894" lon="9.318872167414728"><ele>29.5</ele><time>2026-04-07T08:00:54.999Z</time></trkpt><trkpt lat="44.32782143132113" lon="9.3191784692591"><ele>20.0</ele><time>2026-04-07T08:00:55.999Z</time></trkpt><trkpt lat="44.32767470016825" lon="9.319484174050078"><ele>18.0</ele><time>2026-04-07T08:00:57Z</time></trkpt><trkpt lat="44.32752672143123" lon="9.319794997006385"><ele>16.0</ele><time>2026-04-07T08:00:58Z</time></trkpt><trkpt lat="44.32738240322015" lon="9.320109499064483"><ele>16.0</ele><time>2026-04-07T08:00:59Z</time></trkpt><trkpt lat="44.32724237982537" lon="9.320436391538673"><ele>16.0</ele><time>2026-04-07T08:01:00Z</time></trkpt><trkpt lat="44.327104505026" lon="9.320756168060711"><ele>16.0</ele><time>2026-04-07T08:01:01Z</time></trkpt><trkpt lat="44.32697404965569" lon="9.321087954280907"><ele>16.0</ele><time>2026-04-07T08:01:02Z</time></trkpt><trkpt lat="44.32685505843022" lon="9.321426347301026"><ele>16.0</ele><time>2026-04-07T08:01:03Z</time></trkpt><trkpt lat="44.32674845407894" lon="9.321774088266253"><ele>16.0</ele><time>2026-04-07T08:01:04Z</time></trkpt><trkpt lat="44.326653867219754" lon="9.322125290070371"><ele>22.0</ele><time>2026-04-07T08:01:05Z</time></trkpt><trkpt lat="44.326574341441194" lon="9.322484019288563"><ele>28.0</ele><time>2026-04-07T08:01:06Z</time></trkpt><trkpt lat="44.32650246784961" lon="9.322845874150248"><ele>32.5</ele><time>2026-04-07T08:01:07Z</time></trkpt><trkpt lat="44.32644061704132" lon="9.323211059133738"><ele>37.0</ele><time>2026-04-07T08:01:08Z</time></trkpt><trkpt lat="44.32637105035501" lon="9.323573432847327"><ele>37.0</ele><time>2026-04-07T08:01:09Z</time></trkpt><trkpt lat="44.32630818540615" lon="9.323937113042668"><ele>37.0</ele><time>2026-04-07T08:01:10Z</time></trkpt><trkpt lat="44.32624242314682" lon="9.324300626825478"><ele>37.0</ele><time>2026-04-07T08:01:11Z</time></trkpt><trkpt lat="44.32617684662943" lon="9.324663166437311"><ele>37.0</ele><time>2026-04-07T08:01:12Z</time></trkpt><trkpt lat="44.32610821554" lon="9.325029431562445"><ele>40.5</ele><time>2026-04-07T08:01:13Z</time></trkpt><trkpt lat="44.32604125580728" lon="9.32539661049204"><ele>44.0</ele><time>2026-04-07T08:01:14Z</time></trkpt><trkpt lat="44.3259746505882" lon="9.32576562182442"><ele>44.0</ele><time>2026-04-07T08:01:15Z</time></trkpt><trkpt lat="44.325912678272495" lon="9.326138154978741"><ele>44.0</ele><time>2026-04-07T08:01:16Z</time></trkpt><trkpt lat="44.32584404767142" lon="9.326510174481822"><ele>41.0</ele><time>2026-04-07T08:01:17Z</time></trkpt><trkpt lat="44.32577401089703" lon="9.326882539400046"><ele>38.0</ele><time>2026-04-07T08:01:18Z</time></trkpt><trkpt lat="44.32570141997306" lon="9.327252301408944"><ele>37.5</ele><time>2026-04-07T08:01:19Z</time></trkpt><trkpt lat="44.32562638449059" lon="9.327624911352636"><ele>37.0</ele><time>2026-04-07T08:01:20Z</time></trkpt><trkpt lat="44.32554594833826" lon="9.327998030046572"><ele>42.0</ele><time>2026-04-07T08:01:21Z</time></trkpt><trkpt lat="44.32546067183638" lon="9.328366334181647"><ele>47.0</ele><time>2026-04-07T08:01:22Z</time></trkpt><trkpt lat="44.32537159966119" lon="9.328733090421679"><ele>60.0</ele><time>2026-04-07T08:01:23Z</time></trkpt><trkpt lat="44.32528221843617" lon="9.329100324406324"><ele>73.0</ele><time>2026-04-07T08:01:24Z</time></trkpt><trkpt lat="44.325195268345674" lon="9.329474910288642"><ele>84.0</ele><time>2026-04-07T08:01:25Z</time></trkpt><trkpt lat="44.32510827788776" lon="9.329848644854264"><ele>95.0</ele><time>2026-04-07T08:01:26Z</time></trkpt><trkpt lat="44.32502061789626" lon="9.330228018033857"><ele>103.0</ele><time>2026-04-07T08:01:27.016Z</time></trkpt><trkpt lat="44.32493292367462" lon="9.330599893186905"><ele>111.0</ele><time>2026-04-07T08:01:28.016Z</time></trkpt><trkpt lat="44.324846015524216" lon="9.330974371045787"><ele>111.0</ele><time>2026-04-07T08:01:29.015Z</time></trkpt><trkpt lat="44.32475984975818" lon="9.331349576926032"><ele>111.0</ele><time>2026-04-07T08:01:30.015Z</time></trkpt><trkpt lat="44.32364269163862" lon="9.33403045871233"><ele>80.0</ele><time>2026-04-07T08:01:37Z</time></trkpt><trkpt lat="44.32349790061501" lon="9.334391647263201"><ele>49.0</ele><time>2026-04-07T08:01:38Z</time></trkpt><trkpt lat="44.323336407012704" lon="9.334777337562686"><ele>48.0</ele><time>2026-04-07T08:01:39Z</time></trkpt><trkpt lat="44.323179620221694" lon="9.335112464215598"><ele>47.0</ele><time>2026-04-07T08:01:40Z</time></trkpt><trkpt lat="44.323040476725765" lon="9.335445620271962"><ele>43.0</ele><time>2026-04-07T08:01:41Z</time></trkpt><trkpt lat="44.322913903541874" lon="9.335755750223695"><ele>39.0</ele><time>2026-04-07T08:01:42Z</time></trkpt><trkpt lat="44.32278755560061" lon="9.336078699797692"><ele>48.0</ele><time>2026-04-07T08:01:43Z</time></trkpt><trkpt lat="44.322651125193985" lon="9.33640470054724"><ele>57.0</ele><time>2026-04-07T08:01:44Z</time></trkpt><trkpt lat="44.32251693715385" lon="9.336721806766494"><ele>57.0</ele><time>2026-04-07T08:01:45Z</time></trkpt><trkpt lat="44.32238504954245" lon="9.337047168198689"><ele>57.0</ele><time>2026-04-07T08:01:46Z</time></trkpt><trkpt lat="44.32224614270827" lon="9.337373620752514"><ele>57.0</ele><time>2026-04-07T08:01:47Z</time></trkpt><trkpt lat="44.32210778123724" lon="9.33770607680599"><ele>57.0</ele><time>2026-04-07T08:01:48.014Z</time></trkpt><trkpt lat="44.321961196985434" lon="9.338061110138268"><ele>52.0</ele><time>2026-04-07T08:01:49.019Z</time></trkpt><trkpt lat="44.3218229714364" lon="9.338407154973613"><ele>47.0</ele><time>2026-04-07T08:01:50.022Z</time></trkpt><trkpt lat="44.321685451651916" lon="9.338753542591"><ele>45.0</ele><time>2026-04-07T08:01:51.021Z</time></trkpt><trkpt lat="44.32160551198229" lon="9.339148867884035"><ele>43.0</ele><time>2026-04-07T08:01:52Z</time></trkpt><trkpt lat="44.32148544829204" lon="9.339486260805844"><ele>35.0</ele><time>2026-04-07T08:01:53Z</time></trkpt><trkpt lat="44.32136933446348" lon="9.339822714819267"><ele>27.0</ele><time>2026-04-07T08:01:54Z</time></trkpt><trkpt lat="44.32125586955566" lon="9.340164126184751"><ele>27.0</ele><time>2026-04-07T08:01:55Z</time></trkpt><trkpt lat="44.32113527784101" lon="9.340509903185986"><ele>27.0</ele><time>2026-04-07T08:01:56Z</time></trkpt><trkpt lat="44.32100406433882" lon="9.340859926795174"><ele>23.5</ele><time>2026-04-07T08:01:57Z</time></trkpt><trkpt lat="44.32087610024699" lon="9.341212730462896"><ele>20.0</ele><time>2026-04-07T08:01:58Z</time></trkpt><trkpt lat="44.3207506914816" lon="9.341565320301552"><ele>15.0</ele><time>2026-04-07T08:01:59Z</time></trkpt><trkpt lat="44.3206260106757" lon="9.341917024194963"><ele>10.0</ele><time>2026-04-07T08:02:00Z</time></trkpt><trkpt lat="44.320485631868856" lon="9.342268240565296"><ele>9.0</ele><time>2026-04-07T08:02:01Z</time></trkpt><trkpt lat="44.32035812280907" lon="9.342619928893692"><ele>8.0</ele><time>2026-04-07T08:02:02Z</time></trkpt><trkpt lat="44.320223954229164" lon="9.342971516152552"><ele>9.0</ele><time>2026-04-07T08:02:03Z</time></trkpt><trkpt lat="44.320094660036844" lon="9.343322877212795"><ele>10.0</ele><time>2026-04-07T08:02:04Z</time></trkpt><trkpt lat="44.31997005627258" lon="9.343668084504635"><ele>9.0</ele><time>2026-04-07T08:02:05Z</time></trkpt><trkpt lat="44.319857427838144" lon="9.343987063428887"><ele>8.0</ele><time>2026-04-07T08:02:06Z</time></trkpt><trkpt lat="44.31974377172808" lon="9.344301400797963"><ele>7.5</ele><time>2026-04-07T08:02:07Z</time></trkpt><trkpt lat="44.319628769145936" lon="9.344615381992787"><ele>7.0</ele><time>2026-04-07T08:02:08Z</time></trkpt><trkpt lat="44.31951226865067" lon="9.344933520724123"><ele>7.0</ele><time>2026-04-07T08:02:09Z</time></trkpt><trkpt lat="44.3193952457033" lon="9.345255559073754"><ele>7.0</ele><time>2026-04-07T08:02:10Z</time></trkpt><trkpt lat="44.31928240740166" lon="9.34557436082246"><ele>7.0</ele><time>2026-04-07T08:02:11Z</time></trkpt><trkpt lat="44.31916085495163" lon="9.345905991814167"><ele>7.0</ele><time>2026-04-07T08:02:11.999Z</time></trkpt><trkpt lat="44.319039486105225" lon="9.346237162396365"><ele>7.0</ele><time>2026-04-07T08:02:12.999Z</time></trkpt><trkpt lat="44.31892237847307" lon="9.346559417015905"><ele>7.0</ele><time>2026-04-07T08:02:13.999Z</time></trkpt><trkpt lat="44.318803827934566" lon="9.346893421524312"><ele>17.0</ele><time>2026-04-07T08:02:14.999Z</time></trkpt><trkpt lat="44.31868513016126" lon="9.347233716275792"><ele>27.0</ele><time>2026-04-07T08:02:15.999Z</time></trkpt><trkpt lat="44.31856536559483" lon="9.347584907287514"><ele>27.0</ele><time>2026-04-07T08:02:16.999Z</time></trkpt><trkpt lat="44.31844022248795" lon="9.347936305724788"><ele>27.0</ele><time>2026-04-07T08:02:17.999Z</time></trkpt><trkpt lat="44.318312583919585" lon="9.348286618636253"><ele>31.0</ele><time>2026-04-07T08:02:18.999Z</time></trkpt><trkpt lat="44.318193670078145" lon="9.348616100281363"><ele>35.0</ele><time>2026-04-07T08:02:19.999Z</time></trkpt><trkpt lat="44.318073070645326" lon="9.3489325078694"><ele>39.5</ele><time>2026-04-07T08:02:20.999Z</time></trkpt><trkpt lat="44.31794362112806" lon="9.349250320103744"><ele>44.0</ele><time>2026-04-07T08:02:21.999Z</time></trkpt><trkpt lat="44.31780639775336" lon="9.34957737798596"><ele>44.0</ele><time>2026-04-07T08:02:22.999Z</time></trkpt><trkpt lat="44.317654207644665" lon="9.349902672750753"><ele>44.0</ele><time>2026-04-07T08:02:23.999Z</time></trkpt><trkpt lat="44.317506098569574" lon="9.350219499266656"><ele>42.5</ele><time>2026-04-07T08:02:24.999Z</time></trkpt><trkpt lat="44.3173563167754" lon="9.3505474455798"><ele>41.0</ele><time>2026-04-07T08:02:25.999Z</time></trkpt><trkpt lat="44.31720974475902" lon="9.350881359824022"><ele>36.5</ele><time>2026-04-07T08:02:26.999Z</time></trkpt><trkpt lat="44.317060754935056" lon="9.351216470669698"><ele>32.0</ele><time>2026-04-07T08:02:27.999Z</time></trkpt><trkpt lat="44.31691542747237" lon="9.35154863330156"><ele>32.0</ele><time>2026-04-07T08:02:28.999Z</time></trkpt><trkpt lat="44.31676045579575" lon="9.351878388440163"><ele>32.0</ele><time>2026-04-07T08:02:29.999Z</time></trkpt><trkpt lat="44.31661074932483" lon="9.352197152404624"><ele>34.0</ele><time>2026-04-07T08:02:30.999Z</time></trkpt><trkpt lat="44.316449004521125" lon="9.352520546403996"><ele>36.0</ele><time>2026-04-07T08:02:31.999Z</time></trkpt><trkpt lat="44.31629550620883" lon="9.352837030245606"><ele>33.5</ele><time>2026-04-07T08:02:32.999Z</time></trkpt><trkpt lat="44.31614174843864" lon="9.353119556914754"><ele>31.0</ele><time>2026-04-07T08:02:33.999Z</time></trkpt><trkpt lat="44.315983166974384" lon="9.353390726855963"><ele>31.0</ele><time>2026-04-07T08:02:34.999Z</time></trkpt><trkpt lat="44.3158113847388" lon="9.353656625745035"><ele>31.0</ele><time>2026-04-07T08:02:35.999Z</time></trkpt><trkpt lat="44.31561652057259" lon="9.353935597935441"><ele>34.0</ele><time>2026-04-07T08:02:36.999Z</time></trkpt><trkpt lat="44.31541480550111" lon="9.354227790635662"><ele>37.0</ele><time>2026-04-07T08:02:37.999Z</time></trkpt><trkpt lat="44.31521333108539" lon="9.354514246632005"><ele>37.5</ele><time>2026-04-07T08:02:38.999Z</time></trkpt><trkpt lat="44.31502704054126" lon="9.354770495315279"><ele>38.0</ele><time>2026-04-07T08:02:39.999Z</time></trkpt><trkpt lat="44.3148453134716" lon="9.355025947029695"><ele>46.5</ele><time>2026-04-07T08:02:40.999Z</time></trkpt><trkpt lat="44.31466099660561" lon="9.355279239880144"><ele>55.0</ele><time>2026-04-07T08:02:41.999Z</time></trkpt><trkpt lat="44.314475740135656" lon="9.355541413250407"><ele>56.0</ele><time>2026-04-07T08:02:42.999Z</time></trkpt><trkpt lat="44.31429211998784" lon="9.355805751314595"><ele>57.0</ele><time>2026-04-07T08:02:43.999Z</time></trkpt><trkpt lat="44.314102865064356" lon="9.356071929515208"><ele>57.0</ele><time>2026-04-07T08:02:44.999Z</time></trkpt><trkpt lat="44.31390745144906" lon="9.356336645890888"><ele>57.0</ele><time>2026-04-07T08:02:45.999Z</time></trkpt><trkpt lat="44.31371179070232" lon="9.356607281434263"><ele>57.0</ele><time>2026-04-07T08:02:47.021Z</time></trkpt><trkpt lat="44.313521032495714" lon="9.356870991642152"><ele>57.0</ele><time>2026-04-07T08:02:48.019Z</time></trkpt><trkpt lat="44.31333551075296" lon="9.357134449320242"><ele>58.0</ele><time>2026-04-07T08:02:49.018Z</time></trkpt><trkpt lat="44.31314404597993" lon="9.357398968330035"><ele>59.0</ele><time>2026-04-07T08:02:50.015Z</time></trkpt><trkpt lat="44.3129530344035" lon="9.357666127225166"><ele>48.0</ele><time>2026-04-07T08:02:51.017Z</time></trkpt><trkpt lat="44.31271809623047" lon="9.358063470580948"><ele>37.0</ele><time>2026-04-07T08:02:51.999Z</time></trkpt><trkpt lat="44.312515874711416" lon="9.3583556764834"><ele>37.0</ele><time>2026-04-07T08:02:52.999Z</time></trkpt><trkpt lat="44.31232114797693" lon="9.358646021323263"><ele>37.0</ele><time>2026-04-07T08:02:53.999Z</time></trkpt><trkpt lat="44.3121202820453" lon="9.358940772108035"><ele>39.5</ele><time>2026-04-07T08:02:54.999Z</time></trkpt><trkpt lat="44.31191729591253" lon="9.35923358326712"><ele>42.0</ele><time>2026-04-07T08:02:55.999Z</time></trkpt><trkpt lat="44.31172419199157" lon="9.35950915817324"><ele>42.5</ele><time>2026-04-07T08:02:56.999Z</time></trkpt><trkpt lat="44.31154771082801" lon="9.35976461810018"><ele>43.0</ele><time>2026-04-07T08:02:57.999Z</time></trkpt><trkpt lat="44.31137407469499" lon="9.360015561744099"><ele>56.0</ele><time>2026-04-07T08:02:58.999Z</time></trkpt><trkpt lat="44.31119737050949" lon="9.3602640001246"><ele>69.0</ele><time>2026-04-07T08:02:59.999Z</time></trkpt><trkpt lat="44.311019169451946" lon="9.360510584656994"><ele>63.5</ele><time>2026-04-07T08:03:00.999Z</time></trkpt><trkpt lat="44.310842307021005" lon="9.360758782426428"><ele>58.0</ele><time>2026-04-07T08:03:01.999Z</time></trkpt><trkpt lat="44.31066630942452" lon="9.36100349261703"><ele>56.0</ele><time>2026-04-07T08:03:03Z</time></trkpt><trkpt lat="44.31049197949264" lon="9.361250138829739"><ele>54.0</ele><time>2026-04-07T08:03:04Z</time></trkpt><trkpt lat="44.31031794922044" lon="9.361504099867108"><ele>54.0</ele><time>2026-04-07T08:03:05Z</time></trkpt><trkpt lat="44.310138520925584" lon="9.361731304250595"><ele>54.0</ele><time>2026-04-07T08:03:06Z</time></trkpt><trkpt lat="44.30997515327255" lon="9.361985281803195"><ele>53.0</ele><time>2026-04-07T08:03:07Z</time></trkpt><trkpt lat="44.30980907631007" lon="9.362247598665183"><ele>52.0</ele><time>2026-04-07T08:03:08Z</time></trkpt><trkpt lat="44.309634776243584" lon="9.362493702554625"><ele>52.0</ele><time>2026-04-07T08:03:09Z</time></trkpt><trkpt lat="44.309459857989694" lon="9.362743912538454"><ele>52.0</ele><time>2026-04-07T08:03:10Z</time></trkpt><trkpt lat="44.309282676353845" lon="9.362996197185065"><ele>56.5</ele><time>2026-04-07T08:03:11Z</time></trkpt><trkpt lat="44.30910590521867" lon="9.36325075799289"><ele>61.0</ele><time>2026-04-07T08:03:12Z</time></trkpt><trkpt lat="44.308927065007786" lon="9.363506675567033"><ele>65.5</ele><time>2026-04-07T08:03:13Z</time></trkpt><trkpt lat="44.308751324725634" lon="9.363762067378001"><ele>70.0</ele><time>2026-04-07T08:03:14Z</time></trkpt><trkpt lat="44.30858525138223" lon="9.364010812288715"><ele>70.0</ele><time>2026-04-07T08:03:15Z</time></trkpt><trkpt lat="44.308437036056944" lon="9.364232123758558"><ele>70.0</ele><time>2026-04-07T08:03:16Z</time></trkpt><trkpt lat="44.30830063914523" lon="9.3644545314917"><ele>70.0</ele><time>2026-04-07T08:03:17Z</time></trkpt><trkpt lat="44.30816687779416" lon="9.36468060110949"><ele>81.5</ele><time>2026-04-07T08:03:18Z</time></trkpt><trkpt lat="44.308019613796596" lon="9.364941198395439"><ele>93.0</ele><time>2026-04-07T08:03:19Z</time></trkpt><trkpt lat="44.30787304222918" lon="9.365204746200204"><ele>93.0</ele><time>2026-04-07T08:03:20Z</time></trkpt><trkpt lat="44.30773396467005" lon="9.36543705192712"><ele>93.0</ele><time>2026-04-07T08:03:21Z</time></trkpt><trkpt lat="44.30758670268785" lon="9.365675061096155"><ele>93.0</ele><time>2026-04-07T08:03:22Z</time></trkpt><trkpt lat="44.30743312017487" lon="9.365946179750289"><ele>89.66666666666667</ele><time>2026-04-07T08:03:23Z</time></trkpt><trkpt lat="44.30728722918349" lon="9.366191626536462"><ele>86.33333333333334</ele><time>2026-04-07T08:03:24Z</time></trkpt><trkpt lat="44.30715677791941" lon="9.366424357188402"><ele>83.0</ele><time>2026-04-07T08:03:25Z</time></trkpt><trkpt lat="44.307023244943814" lon="9.366667614360122"><ele>93.5</ele><time>2026-04-07T08:03:26Z</time></trkpt><trkpt lat="44.306888089624195" lon="9.366921826707987"><ele>104.0</ele><time>2026-04-07T08:03:27Z</time></trkpt><trkpt lat="44.30674508367304" lon="9.367178428626996"><ele>102.0</ele><time>2026-04-07T08:03:28Z</time></trkpt><trkpt lat="44.306589485716444" lon="9.36742712480524"><ele>100.0</ele><time>2026-04-07T08:03:29Z</time></trkpt><trkpt lat="44.30646029755415" lon="9.367703718835024"><ele>110.0</ele><time>2026-04-07T08:03:30Z</time></trkpt><trkpt lat="44.306323737986716" lon="9.367970346911543"><ele>120.0</ele><time>2026-04-07T08:03:31Z</time></trkpt><trkpt lat="44.30618582891213" lon="9.368241390338909"><ele>120.0</ele><time>2026-04-07T08:03:32Z</time></trkpt><trkpt lat="44.30604807703914" lon="9.368520104222483"><ele>120.0</ele><time>2026-04-07T08:03:33.02Z</time></trkpt><trkpt lat="44.305913466400355" lon="9.368796442587627"><ele>126.5</ele><time>2026-04-07T08:03:34.02Z</time></trkpt><trkpt lat="44.30576957201326" lon="9.369065435749222"><ele>133.0</ele><time>2026-04-07T08:03:35.015Z</time></trkpt><trkpt lat="44.30564075378038" lon="9.36932879665522"><ele>137.5</ele><time>2026-04-07T08:03:36.019Z</time></trkpt><trkpt lat="44.30551652499538" lon="9.369577596608611"><ele>142.0</ele><time>2026-04-07T08:03:37.019Z</time></trkpt><trkpt lat="44.30258466866268" lon="9.381793979564106"><ele>126.0</ele><time>2026-04-07T08:04:14Z</time></trkpt><trkpt lat="44.30245141800276" lon="9.382099288477514"><ele>110.0</ele><time>2026-04-07T08:04:14.999Z</time></trkpt><trkpt lat="44.30226601692412" lon="9.382389188794605"><ele>103.5</ele><time>2026-04-07T08:04:15.999Z</time></trkpt><trkpt lat="44.30208377798374" lon="9.38265102257608"><ele>97.0</ele><time>2026-04-07T08:04:16.999Z</time></trkpt><trkpt lat="44.30189035892721" lon="9.382912864239668"><ele>101.5</ele><time>2026-04-07T08:04:17.999Z</time></trkpt><trkpt lat="44.3016841809502" lon="9.383152373690884"><ele>106.0</ele><time>2026-04-07T08:04:18.999Z</time></trkpt><trkpt lat="44.30147206921126" lon="9.383356945057475"><ele>96.5</ele><time>2026-04-07T08:04:19.999Z</time></trkpt><trkpt lat="44.301259466754274" lon="9.383519780616686"><ele>87.0</ele><time>2026-04-07T08:04:20.999Z</time></trkpt><trkpt lat="44.301039754818305" lon="9.383662910931179"><ele>87.0</ele><time>2026-04-07T08:04:21.999Z</time></trkpt><trkpt lat="44.30081094823004" lon="9.383785531480536"><ele>87.0</ele><time>2026-04-07T08:04:22.999Z</time></trkpt><trkpt lat="44.30056596889627" lon="9.383889960973978"><ele>95.5</ele><time>2026-04-07T08:04:23.999Z</time></trkpt><trkpt lat="44.300316627163745" lon="9.383981463975367"><ele>104.0</ele><time>2026-04-07T08:04:24.999Z</time></trkpt><trkpt lat="44.300061254495375" lon="9.384043777871776"><ele>104.0</ele><time>2026-04-07T08:04:25.999Z</time></trkpt><trkpt lat="44.29980628668978" lon="9.38407950562647"><ele>104.0</ele><time>2026-04-07T08:04:26.999Z</time></trkpt><trkpt lat="44.299549997790095" lon="9.38408126954054"><ele>104.5</ele><time>2026-04-07T08:04:27.999Z</time></trkpt><trkpt lat="44.29929974650781" lon="9.384056939299704"><ele>105.0</ele><time>2026-04-07T08:04:28.999Z</time></trkpt><trkpt lat="44.29903559582168" lon="9.384020022688583"><ele>107.5</ele><time>2026-04-07T08:04:29.999Z</time></trkpt><trkpt lat="44.29878461073184" lon="9.383972767601232"><ele>110.0</ele><time>2026-04-07T08:04:30.999Z</time></trkpt><trkpt lat="44.298530997803724" lon="9.383930335455794"><ele>110.0</ele><time>2026-04-07T08:04:31.999Z</time></trkpt><trkpt lat="44.2982728257268" lon="9.383888691767236"><ele>110.0</ele><time>2026-04-07T08:04:32.999Z</time></trkpt><trkpt lat="44.29800673358124" lon="9.383849966303263"><ele>94.0</ele><time>2026-04-07T08:04:33.999Z</time></trkpt><trkpt lat="44.29774856072574" lon="9.383813760243628"><ele>78.0</ele><time>2026-04-07T08:04:34.999Z</time></trkpt><trkpt lat="44.29748324780214" lon="9.38378356325729"><ele>72.5</ele><time>2026-04-07T08:04:35.999Z</time></trkpt><trkpt lat="44.29722222050028" lon="9.383750762113978"><ele>67.0</ele><time>2026-04-07T08:04:36.999Z</time></trkpt><trkpt lat="44.29695673366131" lon="9.38371596869474"><ele>67.0</ele><time>2026-04-07T08:04:37.999Z</time></trkpt><trkpt lat="44.29669385473211" lon="9.38368781982141"><ele>67.0</ele><time>2026-04-07T08:04:38.999Z</time></trkpt><trkpt lat="44.29643246828779" lon="9.383673758562704"><ele>67.5</ele><time>2026-04-07T08:04:39.999Z</time></trkpt><trkpt lat="44.29617141132023" lon="9.383683270384761"><ele>68.0</ele><time>2026-04-07T08:04:40.999Z</time></trkpt><trkpt lat="44.29590544566609" lon="9.383716507856866"><ele>68.0</ele><time>2026-04-07T08:04:41.999Z</time></trkpt><trkpt lat="44.29564887714261" lon="9.383766217981421"><ele>68.0</ele><time>2026-04-07T08:04:42.999Z</time></trkpt><trkpt lat="44.29538930509091" lon="9.383825819894023"><ele>81.0</ele><time>2026-04-07T08:04:43.999Z</time></trkpt><trkpt lat="44.295131068560536" lon="9.38390237978815"><ele>94.0</ele><time>2026-04-07T08:04:44.999Z</time></trkpt><trkpt lat="44.29487420799914" lon="9.384003301038314"><ele>97.0</ele><time>2026-04-07T08:04:45.999Z</time></trkpt><trkpt lat="44.294627230536705" lon="9.38411559015669"><ele>100.0</ele><time>2026-04-07T08:04:46.999Z</time></trkpt><trkpt lat="44.2943842450924" lon="9.38424384725538"><ele>100.0</ele><time>2026-04-07T08:04:47.999Z</time></trkpt><trkpt lat="44.294141457043494" lon="9.384393654568454"><ele>100.0</ele><time>2026-04-07T08:04:48.999Z</time></trkpt><trkpt lat="44.29390667597294" lon="9.38455670178081"><ele>100.0</ele><time>2026-04-07T08:04:49.999Z</time></trkpt><trkpt lat="44.293678359832306" lon="9.384736221415071"><ele>100.0</ele><time>2026-04-07T08:04:50.999Z</time></trkpt><trkpt lat="44.293455863274616" lon="9.384926862250172"><ele>100.0</ele><time>2026-04-07T08:04:51.999Z</time></trkpt><trkpt lat="44.29324047252578" lon="9.385128206364632"><ele>100.0</ele><time>2026-04-07T08:04:52.999Z</time></trkpt><trkpt lat="44.293031185804935" lon="9.385348881957041"><ele>96.5</ele><time>2026-04-07T08:04:53.999Z</time></trkpt><trkpt lat="44.29283684431588" lon="9.38558716396011"><ele>93.0</ele><time>2026-04-07T08:04:54.999Z</time></trkpt><trkpt lat="44.29264126343571" lon="9.385829016022361"><ele>93.0</ele><time>2026-04-07T08:04:55.999Z</time></trkpt><trkpt lat="44.29245375195205" lon="9.386061687868784"><ele>93.0</ele><time>2026-04-07T08:04:56.999Z</time></trkpt><trkpt lat="44.292258937086615" lon="9.386289200034254"><ele>98.5</ele><time>2026-04-07T08:04:57.999Z</time></trkpt><trkpt lat="44.292066157246296" lon="9.386511658000954"><ele>104.0</ele><time>2026-04-07T08:04:58.999Z</time></trkpt><trkpt lat="44.29187003297618" lon="9.386737084245071"><ele>104.0</ele><time>2026-04-07T08:04:59.999Z</time></trkpt><trkpt lat="44.29167808461458" lon="9.386971219612922"><ele>104.0</ele><time>2026-04-07T08:05:00.999Z</time></trkpt><trkpt lat="44.29149350800055" lon="9.387230574715872"><ele>126.0</ele><time>2026-04-07T08:05:01.999Z</time></trkpt><trkpt lat="44.291316753424134" lon="9.38749668208188"><ele>148.0</ele><time>2026-04-07T08:05:02.999Z</time></trkpt><trkpt lat="44.2911359125552" lon="9.387765095845396"><ele>153.0</ele><time>2026-04-07T08:05:03.999Z</time></trkpt><trkpt lat="44.29095391214384" lon="9.388025256635286"><ele>158.0</ele><time>2026-04-07T08:05:04.999Z</time></trkpt><trkpt lat="44.2907657707404" lon="9.388287815846073"><ele>171.5</ele><time>2026-04-07T08:05:06.019Z</time></trkpt><trkpt lat="44.29058328432006" lon="9.388544168616352"><ele>185.0</ele><time>2026-04-07T08:05:07.016Z</time></trkpt><trkpt lat="44.290408651962096" lon="9.388795819348616"><ele>193.0</ele><time>2026-04-07T08:05:08.021Z</time></trkpt><trkpt lat="44.2902276603891" lon="9.389050788719759"><ele>201.0</ele><time>2026-04-07T08:05:09.019Z</time></trkpt><trkpt lat="44.290039841198436" lon="9.389314679175456"><ele>201.0</ele><time>2026-04-07T08:05:10.019Z</time></trkpt><trkpt lat="44.289856645626955" lon="9.38957400841144"><ele>201.0</ele><time>2026-04-07T08:05:11.015Z</time></trkpt><trkpt lat="44.28846227280433" lon="9.391622814433717"><ele>209.5</ele><time>2026-04-07T08:05:14.351Z</time></trkpt><trkpt lat="44.2883898" lon="9.3917279"><ele>218.0</ele><time>2026-04-07T08:05:15.351Z</time></trkpt><trkpt lat="44.28770172115525" lon="9.392718488174014"><ele>156.0</ele><time>2026-04-07T08:05:16.351Z</time></trkpt><trkpt lat="44.287013250481486" lon="9.393708544210241"><ele>102.0</ele><time>2026-04-07T08:05:17.351Z</time></trkpt><trkpt lat="44.28632496028302" lon="9.394698850413283"><ele>109.0</ele><time>2026-04-07T08:05:18.351Z</time></trkpt><trkpt lat="44.28565312057212" lon="9.395709820826516"><ele>142.0</ele><time>2026-04-07T08:05:19.351Z</time></trkpt><trkpt lat="44.285160638916956" lon="9.396899515295198"><ele>110.0</ele><time>2026-04-07T08:05:20.351Z</time></trkpt><trkpt lat="44.28491481839312" lon="9.398230275737992"><ele>109.0</ele><time>2026-04-07T08:05:21.351Z</time></trkpt><trkpt lat="44.28564046116584" lon="9.395767531287063"><ele>118.0</ele><time>2026-04-07T08:05:32.999Z</time></trkpt><trkpt lat="44.2854980122858" lon="9.396025564038199"><ele>127.0</ele><time>2026-04-07T08:05:33.999Z</time></trkpt><trkpt lat="44.28537034031204" lon="9.396291388095063"><ele>134.5</ele><time>2026-04-07T08:05:34.999Z</time></trkpt><trkpt lat="44.28522834083085" lon="9.396574209403846"><ele>142.0</ele><time>2026-04-07T08:05:36.015Z</time></trkpt><trkpt lat="44.285101312268566" lon="9.396856577225448"><ele>142.0</ele><time>2026-04-07T08:05:37.018Z</time></trkpt><trkpt lat="44.28501869514539" lon="9.397160677957709"><ele>142.0</ele><time>2026-04-07T08:05:38.016Z</time></trkpt><trkpt lat="44.28495122525701" lon="9.397474765910498"><ele>136.0</ele><time>2026-04-07T08:05:39.02Z</time></trkpt><trkpt lat="44.28490286946043" lon="9.397776663810385"><ele>130.0</ele><time>2026-04-07T08:05:40.019Z</time></trkpt><trkpt lat="44.28488581911128" lon="9.398926002913527"><ele>115.5</ele><time>2026-04-07T08:05:41.999Z</time></trkpt><trkpt lat="44.284841147041156" lon="9.399345226777154"><ele>101.0</ele><time>2026-04-07T08:05:42.999Z</time></trkpt><trkpt lat="44.28477782068546" lon="9.399757672086166"><ele>92.0</ele><time>2026-04-07T08:05:43.999Z</time></trkpt><trkpt lat="44.284734255711726" lon="9.40015422152464"><ele>83.0</ele><time>2026-04-07T08:05:45Z</time></trkpt><trkpt lat="44.28469640820528" lon="9.400518915217228"><ele>79.5</ele><time>2026-04-07T08:05:46Z</time></trkpt><trkpt lat="44.28465533864989" lon="9.400871810470445"><ele>76.0</ele><time>2026-04-07T08:05:47Z</time></trkpt><trkpt lat="44.284608742733745" lon="9.401268055178686"><ele>71.0</ele><time>2026-04-07T08:05:48Z</time></trkpt><trkpt lat="44.28456142237542" lon="9.40166310906153"><ele>66.0</ele><time>2026-04-07T08:05:49Z</time></trkpt><trkpt lat="44.28451749357624" lon="9.402067450929003"><ele>69.5</ele><time>2026-04-07T08:05:50Z</time></trkpt><trkpt lat="44.284475303365454" lon="9.40247665967313"><ele>73.0</ele><time>2026-04-07T08:05:51Z</time></trkpt><trkpt lat="44.28443411183577" lon="9.402886660078352"><ele>75.0</ele><time>2026-04-07T08:05:52Z</time></trkpt><trkpt lat="44.28439430980639" lon="9.40329478086478"><ele>77.0</ele><time>2026-04-07T08:05:53Z</time></trkpt><trkpt lat="44.28435552420994" lon="9.403678042339067"><ele>70.5</ele><time>2026-04-07T08:05:54Z</time></trkpt><trkpt lat="44.28431690653249" lon="9.404048290565614"><ele>64.0</ele><time>2026-04-07T08:05:55Z</time></trkpt><trkpt lat="44.28427711231218" lon="9.404425135269584"><ele>64.0</ele><time>2026-04-07T08:05:56Z</time></trkpt><trkpt lat="44.28423363761752" lon="9.404809417909338"><ele>64.0</ele><time>2026-04-07T08:05:57Z</time></trkpt><trkpt lat="44.284191159268005" lon="9.405203080453708"><ele>70.0</ele><time>2026-04-07T08:05:58Z</time></trkpt><trkpt lat="44.284146627666416" lon="9.405598186323163"><ele>76.0</ele><time>2026-04-07T08:05:59Z</time></trkpt><trkpt lat="44.28410553264517" lon="9.406001110107965"><ele>78.0</ele><time>2026-04-07T08:06:00Z</time></trkpt><trkpt lat="44.28405878904532" lon="9.406394817816434"><ele>80.0</ele><time>2026-04-07T08:06:01Z</time></trkpt><trkpt lat="44.28400571382534" lon="9.406761672816085"><ele>77.5</ele><time>2026-04-07T08:06:02Z</time></trkpt><trkpt lat="44.28393002536035" lon="9.407127326758024"><ele>75.0</ele><time>2026-04-07T08:06:03Z</time></trkpt><trkpt lat="44.283827123698416" lon="9.407483039325488"><ele>67.0</ele><time>2026-04-07T08:06:04Z</time></trkpt><trkpt lat="44.283701818075244" lon="9.407823530942306"><ele>59.0</ele><time>2026-04-07T08:06:05Z</time></trkpt><trkpt lat="44.28356735605834" lon="9.408134690907383"><ele>59.0</ele><time>2026-04-07T08:06:06Z</time></trkpt><trkpt lat="44.28342060558341" lon="9.408435324515716"><ele>59.0</ele><time>2026-04-07T08:06:07Z</time></trkpt><trkpt lat="44.28325660204564" lon="9.408717236603259"><ele>52.5</ele><time>2026-04-07T08:06:08Z</time></trkpt><trkpt lat="44.28306942209127" lon="9.40898579919842"><ele>46.0</ele><time>2026-04-07T08:06:09Z</time></trkpt><trkpt lat="44.282859582722175" lon="9.40924631034483"><ele>46.0</ele><time>2026-04-07T08:06:10Z</time></trkpt><trkpt lat="44.28263137725637" lon="9.409499087691716"><ele>46.0</ele><time>2026-04-07T08:06:11Z</time></trkpt><trkpt lat="44.28239391071431" lon="9.409741982437032"><ele>45.0</ele><time>2026-04-07T08:06:12Z</time></trkpt><trkpt lat="44.28215082804381" lon="9.409994442700734"><ele>44.0</ele><time>2026-04-07T08:06:13Z</time></trkpt><trkpt lat="44.28192774621908" lon="9.410236892840661"><ele>44.0</ele><time>2026-04-07T08:06:14Z</time></trkpt><trkpt lat="44.281710849644256" lon="9.410476118471925"><ele>44.0</ele><time>2026-04-07T08:06:15Z</time></trkpt><trkpt lat="44.2814980338715" lon="9.410715324590727"><ele>38.5</ele><time>2026-04-07T08:06:16Z</time></trkpt><trkpt lat="44.28129630608649" lon="9.410955250144927"><ele>33.0</ele><time>2026-04-07T08:06:17Z</time></trkpt><trkpt lat="44.28110984123782" lon="9.411214694355362"><ele>36.5</ele><time>2026-04-07T08:06:18Z</time></trkpt><trkpt lat="44.28094254115247" lon="9.411503539794515"><ele>40.0</ele><time>2026-04-07T08:06:19Z</time></trkpt><trkpt lat="44.2807863393503" lon="9.411821546177077"><ele>40.0</ele><time>2026-04-07T08:06:20Z</time></trkpt><trkpt lat="44.280642466337554" lon="9.412154914058286"><ele>40.0</ele><time>2026-04-07T08:06:21Z</time></trkpt><trkpt lat="44.28050152643667" lon="9.412498552580923"><ele>33.5</ele><time>2026-04-07T08:06:22Z</time></trkpt><trkpt lat="44.28036037622578" lon="9.412850736677235"><ele>27.0</ele><time>2026-04-07T08:06:23Z</time></trkpt><trkpt lat="44.28021252659152" lon="9.413200351739365"><ele>27.0</ele><time>2026-04-07T08:06:24Z</time></trkpt><trkpt lat="44.280061074147305" lon="9.413546532199078"><ele>27.0</ele><time>2026-04-07T08:06:25Z</time></trkpt><trkpt lat="44.27990911831617" lon="9.413892079308816"><ele>43.0</ele><time>2026-04-07T08:06:26Z</time></trkpt><trkpt lat="44.2797530635417" lon="9.414249453890784"><ele>59.0</ele><time>2026-04-07T08:06:27Z</time></trkpt><trkpt lat="44.2795936059644" lon="9.414592909045611"><ele>57.0</ele><time>2026-04-07T08:06:28Z</time></trkpt><trkpt lat="44.279439391548976" lon="9.414915371299156"><ele>55.0</ele><time>2026-04-07T08:06:29Z</time></trkpt><trkpt lat="44.279284301122466" lon="9.41522090652515"><ele>45.0</ele><time>2026-04-07T08:06:30Z</time></trkpt><trkpt lat="44.27912503619469" lon="9.41553275894003"><ele>35.0</ele><time>2026-04-07T08:06:31Z</time></trkpt><trkpt lat="44.27898065100464" lon="9.415898866899669"><ele>33.0</ele><time>2026-04-07T08:06:32Z</time></trkpt><trkpt lat="44.278805148883094" lon="9.416187023112151"><ele>31.0</ele><time>2026-04-07T08:06:33Z</time></trkpt><trkpt lat="44.27860756426744" lon="9.416451402382354"><ele>31.0</ele><time>2026-04-07T08:06:34Z</time></trkpt><trkpt lat="44.278384198232665" lon="9.416703441161184"><ele>31.0</ele><time>2026-04-07T08:06:35Z</time></trkpt><trkpt lat="44.278155771483966" lon="9.416942716027705"><ele>24.0</ele><time>2026-04-07T08:06:36Z</time></trkpt><trkpt lat="44.277935115489605" lon="9.417187496931886"><ele>17.0</ele><time>2026-04-07T08:06:37Z</time></trkpt><trkpt lat="44.27771954495329" lon="9.417448763309267"><ele>17.0</ele><time>2026-04-07T08:06:38Z</time></trkpt><trkpt lat="44.27749636150478" lon="9.417710539889942"><ele>17.0</ele><time>2026-04-07T08:06:39Z</time></trkpt><trkpt lat="44.277274708913204" lon="9.417974291964374"><ele>15.0</ele><time>2026-04-07T08:06:40Z</time></trkpt><trkpt lat="44.27706500409184" lon="9.41823001661615"><ele>13.0</ele><time>2026-04-07T08:06:41Z</time></trkpt><trkpt lat="44.276864470827725" lon="9.418465428634175"><ele>13.0</ele><time>2026-04-07T08:06:42Z</time></trkpt><trkpt lat="44.27666128809809" lon="9.418702711782755"><ele>13.0</ele><time>2026-04-07T08:06:43Z</time></trkpt><trkpt lat="44.27645534473323" lon="9.4189412672804"><ele>14.5</ele><time>2026-04-07T08:06:44Z</time></trkpt><trkpt lat="44.27624427920915" lon="9.419181989749365"><ele>16.0</ele><time>2026-04-07T08:06:45Z</time></trkpt><trkpt lat="44.276041287043306" lon="9.4194226715382"><ele>16.5</ele><time>2026-04-07T08:06:46Z</time></trkpt><trkpt lat="44.27584248661254" lon="9.419660981627098"><ele>17.0</ele><time>2026-04-07T08:06:47Z</time></trkpt><trkpt lat="44.27564152501045" lon="9.41990170573746"><ele>17.0</ele><time>2026-04-07T08:06:48Z</time></trkpt><trkpt lat="44.27544255936402" lon="9.420142496271101"><ele>17.0</ele><time>2026-04-07T08:06:49Z</time></trkpt><trkpt lat="44.275243811342385" lon="9.42037864928714"><ele>17.0</ele><time>2026-04-07T08:06:50Z</time></trkpt><trkpt lat="44.275035223961" lon="9.420610703971914"><ele>17.0</ele><time>2026-04-07T08:06:51Z</time></trkpt><trkpt lat="44.27484336543914" lon="9.420842973570606"><ele>16.5</ele><time>2026-04-07T08:06:52Z</time></trkpt><trkpt lat="44.274635761055954" lon="9.421079733703737"><ele>16.0</ele><time>2026-04-07T08:06:53Z</time></trkpt><trkpt lat="44.27443778548468" lon="9.421309438915692"><ele>16.5</ele><time>2026-04-07T08:06:54Z</time></trkpt><trkpt lat="44.27423478143639" lon="9.421544904711874"><ele>17.0</ele><time>2026-04-07T08:06:55Z</time></trkpt><trkpt lat="44.27403835991023" lon="9.421778028335785"><ele>20.0</ele><time>2026-04-07T08:06:56Z</time></trkpt><trkpt lat="44.27384254175804" lon="9.422014015999252"><ele>23.0</ele><time>2026-04-07T08:06:57Z</time></trkpt><trkpt lat="44.273647519681525" lon="9.422254245729182"><ele>24.5</ele><time>2026-04-07T08:06:58Z</time></trkpt><trkpt lat="44.27344886628086" lon="9.42249984168732"><ele>26.0</ele><time>2026-04-07T08:06:59Z</time></trkpt><trkpt lat="44.273251414547886" lon="9.422740447849257"><ele>25.0</ele><time>2026-04-07T08:06:59.999Z</time></trkpt><trkpt lat="44.273052213826574" lon="9.422979193783336"><ele>24.0</ele><time>2026-04-07T08:07:00.999Z</time></trkpt><trkpt lat="44.2728517071595" lon="9.423221202299464"><ele>24.0</ele><time>2026-04-07T08:07:01.999Z</time></trkpt><trkpt lat="44.27265215844155" lon="9.423463548505648"><ele>24.0</ele><time>2026-04-07T08:07:02.999Z</time></trkpt><trkpt lat="44.2724525272147" lon="9.423704004409924"><ele>20.5</ele><time>2026-04-07T08:07:03.999Z</time></trkpt><trkpt lat="44.27225148856088" lon="9.423947263594526"><ele>17.0</ele><time>2026-04-07T08:07:04.999Z</time></trkpt><trkpt lat="44.272049123780235" lon="9.424188786258192"><ele>17.0</ele><time>2026-04-07T08:07:05.999Z</time></trkpt><trkpt lat="44.271838836976336" lon="9.42443308656042"><ele>17.0</ele><time>2026-04-07T08:07:06.999Z</time></trkpt><trkpt lat="44.27162255521142" lon="9.424681937888941"><ele>16.5</ele><time>2026-04-07T08:07:07.999Z</time></trkpt><trkpt lat="44.271404548047784" lon="9.424928919735134"><ele>16.0</ele><time>2026-04-07T08:07:08.999Z</time></trkpt><trkpt lat="44.27117337734591" lon="9.425169942041697"><ele>16.0</ele><time>2026-04-07T08:07:09.999Z</time></trkpt><trkpt lat="44.27093943577541" lon="9.425412846057599"><ele>16.0</ele><time>2026-04-07T08:07:10.999Z</time></trkpt><trkpt lat="44.27069842771229" lon="9.425667499918415"><ele>14.0</ele><time>2026-04-07T08:07:11.999Z</time></trkpt><trkpt lat="44.27046290597166" lon="9.425925168565719"><ele>12.0</ele><time>2026-04-07T08:07:12.999Z</time></trkpt><trkpt lat="44.27024259173673" lon="9.426151172203317"><ele>13.0</ele><time>2026-04-07T08:07:13.999Z</time></trkpt><trkpt lat="44.27003285759431" lon="9.426368412069593"><ele>14.0</ele><time>2026-04-07T08:07:14.999Z</time></trkpt><trkpt lat="44.269826390606326" lon="9.426592903841893"><ele>13.0</ele><time>2026-04-07T08:07:15.999Z</time></trkpt><trkpt lat="44.26962022987943" lon="9.426832064600415"><ele>12.0</ele><time>2026-04-07T08:07:16.999Z</time></trkpt><trkpt lat="44.26941467407989" lon="9.427080583143749"><ele>12.5</ele><time>2026-04-07T08:07:17.999Z</time></trkpt><trkpt lat="44.26922151897199" lon="9.427344950246471"><ele>13.0</ele><time>2026-04-07T08:07:18.999Z</time></trkpt><trkpt lat="44.2690427906387" lon="9.427622736825034"><ele>13.5</ele><time>2026-04-07T08:07:19.999Z</time></trkpt><trkpt lat="44.2688713244726" lon="9.427913835770713"><ele>14.0</ele><time>2026-04-07T08:07:20.999Z</time></trkpt><trkpt lat="44.268708838434044" lon="9.428213928402181"><ele>14.0</ele><time>2026-04-07T08:07:21.999Z</time></trkpt><trkpt lat="44.268562487054474" lon="9.428516560921947"><ele>14.0</ele><time>2026-04-07T08:07:22.999Z</time></trkpt><trkpt lat="44.26843416475507" lon="9.428809103684138"><ele>16.0</ele><time>2026-04-07T08:07:23.999Z</time></trkpt><trkpt lat="44.26831644987873" lon="9.429113028443942"><ele>18.0</ele><time>2026-04-07T08:07:24.999Z</time></trkpt><trkpt lat="44.268208482432236" lon="9.429436035687372"><ele>27.0</ele><time>2026-04-07T08:07:25.999Z</time></trkpt><trkpt lat="44.26810285842342" lon="9.429772195092943"><ele>36.0</ele><time>2026-04-07T08:07:26.999Z</time></trkpt><trkpt lat="44.26801074498432" lon="9.43011596065262"><ele>36.0</ele><time>2026-04-07T08:07:27.999Z</time></trkpt><trkpt lat="44.26792956006703" lon="9.430462346774728"><ele>36.0</ele><time>2026-04-07T08:07:28.999Z</time></trkpt><trkpt lat="44.26785753848066" lon="9.430793244152696"><ele>40.5</ele><time>2026-04-07T08:07:29.999Z</time></trkpt><trkpt lat="44.26779954354945" lon="9.431105244277742"><ele>45.0</ele><time>2026-04-07T08:07:30.999Z</time></trkpt><trkpt lat="44.267742372179626" lon="9.431430348676907"><ele>45.0</ele><time>2026-04-07T08:07:31.999Z</time></trkpt><trkpt lat="44.267705895017485" lon="9.43175524760142"><ele>45.0</ele><time>2026-04-07T08:07:32.999Z</time></trkpt><trkpt lat="44.26769247277288" lon="9.432093146611336"><ele>44.5</ele><time>2026-04-07T08:07:33.999Z</time></trkpt><trkpt lat="44.26768724916139" lon="9.43243126486668"><ele>44.0</ele><time>2026-04-07T08:07:34.999Z</time></trkpt><trkpt lat="44.26768770063006" lon="9.432770176715941"><ele>45.0</ele><time>2026-04-07T08:07:35.999Z</time></trkpt><trkpt lat="44.26770096898056" lon="9.433108498214153"><ele>46.0</ele><time>2026-04-07T08:07:36.999Z</time></trkpt><trkpt lat="44.26772419791689" lon="9.4334457312804"><ele>46.0</ele><time>2026-04-07T08:07:37.999Z</time></trkpt><trkpt lat="44.267756540419875" lon="9.433781982038887"><ele>46.0</ele><time>2026-04-07T08:07:38.999Z</time></trkpt><trkpt lat="44.2678008210746" lon="9.434119954309068"><ele>47.5</ele><time>2026-04-07T08:07:39.999Z</time></trkpt><trkpt lat="44.26785030941139" lon="9.43445020121379"><ele>49.0</ele><time>2026-04-07T08:07:40.999Z</time></trkpt><trkpt lat="44.26790049701451" lon="9.434791830506938"><ele>49.0</ele><time>2026-04-07T08:07:41.999Z</time></trkpt><trkpt lat="44.26794952898775" lon="9.435136173010253"><ele>49.0</ele><time>2026-04-07T08:07:42.999Z</time></trkpt><trkpt lat="44.26800164513941" lon="9.435487264960855"><ele>49.5</ele><time>2026-04-07T08:07:43.999Z</time></trkpt><trkpt lat="44.268045889117694" lon="9.435829723107902"><ele>50.0</ele><time>2026-04-07T08:07:44.999Z</time></trkpt><trkpt lat="44.26809238666886" lon="9.436179431760289"><ele>45.0</ele><time>2026-04-07T08:07:45.999Z</time></trkpt><trkpt lat="44.26813995939127" lon="9.436527331991776"><ele>40.0</ele><time>2026-04-07T08:07:46.999Z</time></trkpt><trkpt lat="44.26819157117652" lon="9.436872401569325"><ele>43.5</ele><time>2026-04-07T08:07:47.999Z</time></trkpt><trkpt lat="44.26823999484596" lon="9.437219443476415"><ele>47.0</ele><time>2026-04-07T08:07:48.999Z</time></trkpt><trkpt lat="44.26829312100324" lon="9.437568084997158"><ele>47.0</ele><time>2026-04-07T08:07:49.999Z</time></trkpt><trkpt lat="44.26835032977446" lon="9.437918156967914"><ele>47.0</ele><time>2026-04-07T08:07:51Z</time></trkpt><trkpt lat="44.2683970882711" lon="9.438266124710088"><ele>50.5</ele><time>2026-04-07T08:07:52Z</time></trkpt><trkpt lat="44.268442357138184" lon="9.438613531928418"><ele>54.0</ele><time>2026-04-07T08:07:53Z</time></trkpt><trkpt lat="44.26849107089975" lon="9.438960665898826"><ele>58.5</ele><time>2026-04-07T08:07:54Z</time></trkpt><trkpt lat="44.26854006376372" lon="9.439291200605002"><ele>63.0</ele><time>2026-04-07T08:07:55Z</time></trkpt><trkpt lat="44.26858766101527" lon="9.439594994190138"><ele>61.0</ele><time>2026-04-07T08:07:56Z</time></trkpt><trkpt lat="44.26862762516438" lon="9.439883864881676"><ele>59.0</ele><time>2026-04-07T08:07:57Z</time></trkpt><trkpt lat="44.26866865214153" lon="9.440170400560717"><ele>57.0</ele><time>2026-04-07T08:07:58Z</time></trkpt><trkpt lat="44.26870086860836" lon="9.440471960086663"><ele>45.5</ele><time>2026-04-07T08:07:59Z</time></trkpt><trkpt lat="44.268730892591755" lon="9.440787586264864"><ele>34.0</ele><time>2026-04-07T08:08:00Z</time></trkpt><trkpt lat="44.268752476786574" lon="9.441110924920375"><ele>37.0</ele><time>2026-04-07T08:08:01Z</time></trkpt><trkpt lat="44.268770276296365" lon="9.441431031814467"><ele>40.0</ele><time>2026-04-07T08:08:02Z</time></trkpt><trkpt lat="44.268781662451964" lon="9.441755414134656"><ele>40.0</ele><time>2026-04-07T08:08:03Z</time></trkpt><trkpt lat="44.26878376033797" lon="9.442085551151097"><ele>40.0</ele><time>2026-04-07T08:08:04Z</time></trkpt><trkpt lat="44.26877608510055" lon="9.44242350182748"><ele>55.0</ele><time>2026-04-07T08:08:05Z</time></trkpt><trkpt lat="44.268762438999445" lon="9.442771820387449"><ele>70.0</ele><time>2026-04-07T08:08:06Z</time></trkpt><trkpt lat="44.2687362187697" lon="9.443128033950321"><ele>74.5</ele><time>2026-04-07T08:08:07Z</time></trkpt><trkpt lat="44.26870106894159" lon="9.443494976087466"><ele>79.0</ele><time>2026-04-07T08:08:08Z</time></trkpt><trkpt lat="44.26865996359745" lon="9.4438406019211"><ele>79.0</ele><time>2026-04-07T08:08:09Z</time></trkpt><trkpt lat="44.268609112765276" lon="9.444169248969557"><ele>79.0</ele><time>2026-04-07T08:08:10Z</time></trkpt><trkpt lat="44.26855414896883" lon="9.444501905422268"><ele>77.5</ele><time>2026-04-07T08:08:11Z</time></trkpt><trkpt lat="44.268489841830416" lon="9.44484009729139"><ele>76.0</ele><time>2026-04-07T08:08:12Z</time></trkpt><trkpt lat="44.268421269592835" lon="9.445159044960002"><ele>76.0</ele><time>2026-04-07T08:08:13Z</time></trkpt><trkpt lat="44.268360537588315" lon="9.4454547013009"><ele>76.0</ele><time>2026-04-07T08:08:14Z</time></trkpt><trkpt lat="44.268299746201514" lon="9.445750435402863"><ele>76.0</ele><time>2026-04-07T08:08:15Z</time></trkpt><trkpt lat="44.2682505439367" lon="9.446043350174778"><ele>69.0</ele><time>2026-04-07T08:08:16Z</time></trkpt><trkpt lat="44.26820325197513" lon="9.44634203119364"><ele>62.0</ele><time>2026-04-07T08:08:17Z</time></trkpt><trkpt lat="44.268155343817924" lon="9.44664079129301"><ele>55.0</ele><time>2026-04-07T08:08:18Z</time></trkpt><trkpt lat="44.26811780694074" lon="9.446946540369225"><ele>62.33333333333333</ele><time>2026-04-07T08:08:19Z</time></trkpt><trkpt lat="44.26808585727031" lon="9.447248452206736"><ele>69.66666666666667</ele><time>2026-04-07T08:08:20Z</time></trkpt><trkpt lat="44.268060645288024" lon="9.447557848290709"><ele>77.0</ele><time>2026-04-07T08:08:21Z</time></trkpt><trkpt lat="44.26803954244198" lon="9.447869325288373"><ele>67.5</ele><time>2026-04-07T08:08:22Z</time></trkpt><trkpt lat="44.268027880439895" lon="9.448186412458876"><ele>58.0</ele><time>2026-04-07T08:08:23Z</time></trkpt><trkpt lat="44.26802565260729" lon="9.44850141422731"><ele>49.0</ele><time>2026-04-07T08:08:24Z</time></trkpt><trkpt lat="44.268031458516624" lon="9.448819702082966"><ele>40.0</ele><time>2026-04-07T08:08:25Z</time></trkpt><trkpt lat="44.268046829151515" lon="9.449145108573529"><ele>40.0</ele><time>2026-04-07T08:08:26Z</time></trkpt><trkpt lat="44.26806188187932" lon="9.449476522444257"><ele>40.0</ele><time>2026-04-07T08:08:27Z</time></trkpt><trkpt lat="44.26809157616944" lon="9.44980692315491"><ele>43.5</ele><time>2026-04-07T08:08:28Z</time></trkpt><trkpt lat="44.26813015296783" lon="9.450140655754685"><ele>47.0</ele><time>2026-04-07T08:08:29Z</time></trkpt><trkpt lat="44.268180922514055" lon="9.450471537838254"><ele>57.5</ele><time>2026-04-07T08:08:30Z</time></trkpt><trkpt lat="44.26823921448529" lon="9.450806504381791"><ele>68.0</ele><time>2026-04-07T08:08:31Z</time></trkpt><trkpt lat="44.26830332783209" lon="9.451148316865366"><ele>77.0</ele><time>2026-04-07T08:08:32Z</time></trkpt><trkpt lat="44.268371843188326" lon="9.451487660632267"><ele>86.0</ele><time>2026-04-07T08:08:33Z</time></trkpt><trkpt lat="44.268440150324544" lon="9.451840905686142"><ele>96.5</ele><time>2026-04-07T08:08:34Z</time></trkpt><trkpt lat="44.26850711864848" lon="9.452204442106098"><ele>107.0</ele><time>2026-04-07T08:08:35Z</time></trkpt><trkpt lat="44.26857458788357" lon="9.452582126454285"><ele>107.0</ele><time>2026-04-07T08:08:36.02Z</time></trkpt><trkpt lat="44.26863949788629" lon="9.45294907663045"><ele>107.0</ele><time>2026-04-07T08:08:37.017Z</time></trkpt><trkpt lat="44.26870873287112" lon="9.453323095969784"><ele>111.0</ele><time>2026-04-07T08:08:38.015Z</time></trkpt><trkpt lat="44.26877570315373" lon="9.453683281212255"><ele>115.0</ele><time>2026-04-07T08:08:39.017Z</time></trkpt><trkpt lat="44.2688414060708" lon="9.454028191210364"><ele>115.0</ele><time>2026-04-07T08:08:40Z</time></trkpt><trkpt lat="44.268909724048434" lon="9.4543759949923"><ele>115.0</ele><time>2026-04-07T08:08:41Z</time></trkpt><trkpt lat="44.269069354204106" lon="9.454762510079515"><ele>102.5</ele><time>2026-04-07T08:08:42Z</time></trkpt><trkpt lat="44.26914561460786" lon="9.455177692288556"><ele>90.0</ele><time>2026-04-07T08:08:43Z</time></trkpt><trkpt lat="44.26922116772983" lon="9.455548326036125"><ele>90.0</ele><time>2026-04-07T08:08:44Z</time></trkpt><trkpt lat="44.269293187106726" lon="9.45589437427772"><ele>90.0</ele><time>2026-04-07T08:08:45Z</time></trkpt><trkpt lat="44.26936353735515" lon="9.456234331801019"><ele>92.0</ele><time>2026-04-07T08:08:46Z</time></trkpt><trkpt lat="44.26943315070696" lon="9.456585438221067"><ele>94.0</ele><time>2026-04-07T08:08:47Z</time></trkpt><trkpt lat="44.26949181708498" lon="9.456945684577747"><ele>88.0</ele><time>2026-04-07T08:08:48Z</time></trkpt><trkpt lat="44.26955137268454" lon="9.45731116551681"><ele>82.0</ele><time>2026-04-07T08:08:49Z</time></trkpt><trkpt lat="44.269606626344846" lon="9.457676056129097"><ele>72.0</ele><time>2026-04-07T08:08:50Z</time></trkpt><trkpt lat="44.26965497856144" lon="9.458043229651555"><ele>62.0</ele><time>2026-04-07T08:08:51Z</time></trkpt><trkpt lat="44.269714810138424" lon="9.458416560663988"><ele>55.0</ele><time>2026-04-07T08:08:52Z</time></trkpt><trkpt lat="44.2697745048697" lon="9.45880126025864"><ele>48.0</ele><time>2026-04-07T08:08:53Z</time></trkpt><trkpt lat="44.26983685142647" lon="9.45918909682773"><ele>48.0</ele><time>2026-04-07T08:08:54Z</time></trkpt><trkpt lat="44.26989900569545" lon="9.459587408783896"><ele>48.0</ele><time>2026-04-07T08:08:55Z</time></trkpt><trkpt lat="44.269962668358936" lon="9.45998706416788"><ele>53.5</ele><time>2026-04-07T08:08:56Z</time></trkpt><trkpt lat="44.27002113467096" lon="9.460369460533729"><ele>59.0</ele><time>2026-04-07T08:08:57Z</time></trkpt><trkpt lat="44.270081038771316" lon="9.460731407298516"><ele>64.5</ele><time>2026-04-07T08:08:58Z</time></trkpt><trkpt lat="44.2701387826586" lon="9.46109262998556"><ele>70.0</ele><time>2026-04-07T08:08:59Z</time></trkpt><trkpt lat="44.2701960629028" lon="9.461452301024424"><ele>77.0</ele><time>2026-04-07T08:09:00Z</time></trkpt><trkpt lat="44.27025269335051" lon="9.461807862783226"><ele>84.0</ele><time>2026-04-07T08:09:01Z</time></trkpt><trkpt lat="44.270310031858706" lon="9.46216845757829"><ele>93.5</ele><time>2026-04-07T08:09:02Z</time></trkpt><trkpt lat="44.270368700753195" lon="9.462535452839647"><ele>103.0</ele><time>2026-04-07T08:09:03Z</time></trkpt><trkpt lat="44.27042578010231" lon="9.462905341414451"><ele>115.0</ele><time>2026-04-07T08:09:04Z</time></trkpt><trkpt lat="44.27048066712169" lon="9.463272156857672"><ele>127.0</ele><time>2026-04-07T08:09:05Z</time></trkpt><trkpt lat="44.27053646549484" lon="9.463643145828204"><ele>124.0</ele><time>2026-04-07T08:09:06Z</time></trkpt><trkpt lat="44.270607362178126" lon="9.464021164813838"><ele>121.0</ele><time>2026-04-07T08:09:06.999Z</time></trkpt><trkpt lat="44.270672202003446" lon="9.464408176811233"><ele>116.0</ele><time>2026-04-07T08:09:07.999Z</time></trkpt><trkpt lat="44.27073451091205" lon="9.46479213499419"><ele>111.0</ele><time>2026-04-07T08:09:08.999Z</time></trkpt><trkpt lat="44.270793541412566" lon="9.465171959064099"><ele>109.5</ele><time>2026-04-07T08:09:09.999Z</time></trkpt><trkpt lat="44.27084001244732" lon="9.465526664976942"><ele>108.0</ele><time>2026-04-07T08:09:10.999Z</time></trkpt><trkpt lat="44.27087790822108" lon="9.46586795125743"><ele>108.0</ele><time>2026-04-07T08:09:11.999Z</time></trkpt><trkpt lat="44.27092500696349" lon="9.466210990180118"><ele>108.0</ele><time>2026-04-07T08:09:12.999Z</time></trkpt><trkpt lat="44.27096721541352" lon="9.466556829108159"><ele>108.5</ele><time>2026-04-07T08:09:13.999Z</time></trkpt><trkpt lat="44.27100576352109" lon="9.466900992910235"><ele>109.0</ele><time>2026-04-07T08:09:14.999Z</time></trkpt><trkpt lat="44.2710355991806" lon="9.467253898973441"><ele>113.5</ele><time>2026-04-07T08:09:15.999Z</time></trkpt><trkpt lat="44.27105574515402" lon="9.467607525384981"><ele>118.0</ele><time>2026-04-07T08:09:16.999Z</time></trkpt><trkpt lat="44.27106296762437" lon="9.46796373758742"><ele>123.5</ele><time>2026-04-07T08:09:17.999Z</time></trkpt><trkpt lat="44.27105728257151" lon="9.46833077013588"><ele>129.0</ele><time>2026-04-07T08:09:18.999Z</time></trkpt><trkpt lat="44.271046462423904" lon="9.468693962193438"><ele>126.5</ele><time>2026-04-07T08:09:19.999Z</time></trkpt><trkpt lat="44.27102655147611" lon="9.46905585361151"><ele>124.0</ele><time>2026-04-07T08:09:20.999Z</time></trkpt><trkpt lat="44.270999818217916" lon="9.469392999276513"><ele>113.5</ele><time>2026-04-07T08:09:21.999Z</time></trkpt><trkpt lat="44.27096501211168" lon="9.469718343147115"><ele>103.0</ele><time>2026-04-07T08:09:22.999Z</time></trkpt><trkpt lat="44.27091955079372" lon="9.4700496109488"><ele>103.0</ele><time>2026-04-07T08:09:23.999Z</time></trkpt><trkpt lat="44.2708640321804" lon="9.470382315941688"><ele>103.0</ele><time>2026-04-07T08:09:24.999Z</time></trkpt><trkpt lat="44.27080715843465" lon="9.470711298915054"><ele>102.5</ele><time>2026-04-07T08:09:25.999Z</time></trkpt><trkpt lat="44.27074184293423" lon="9.471037288657074"><ele>102.0</ele><time>2026-04-07T08:09:26.999Z</time></trkpt><trkpt lat="44.270668773772265" lon="9.471360211106848"><ele>121.5</ele><time>2026-04-07T08:09:27.999Z</time></trkpt><trkpt lat="44.27058372483299" lon="9.471682200999604"><ele>141.0</ele><time>2026-04-07T08:09:28.999Z</time></trkpt><trkpt lat="44.270490922637464" lon="9.472007428483897"><ele>158.0</ele><time>2026-04-07T08:09:29.999Z</time></trkpt><trkpt lat="44.270391699751315" lon="9.472331792106585"><ele>175.0</ele><time>2026-04-07T08:09:30.999Z</time></trkpt><trkpt lat="44.270290230692396" lon="9.472662151524203"><ele>186.5</ele><time>2026-04-07T08:09:32.016Z</time></trkpt><trkpt lat="44.27018839062247" lon="9.472986777248737"><ele>198.0</ele><time>2026-04-07T08:09:33.021Z</time></trkpt><trkpt lat="44.27009026342325" lon="9.473309873702364"><ele>198.0</ele><time>2026-04-07T08:09:34.018Z</time></trkpt><trkpt lat="44.26996406512431" lon="9.473611381678742"><ele>198.0</ele><time>2026-04-07T08:09:35.019Z</time></trkpt><trkpt lat="44.26983510359271" lon="9.473913729368345"><ele>177.0</ele><time>2026-04-07T08:09:36.016Z</time></trkpt><trkpt lat="44.26874225781539" lon="9.476289607309482"><ele>142.0</ele><time>2026-04-07T08:09:39.348Z</time></trkpt><trkpt lat="44.2682518383933" lon="9.477340479070383"><ele>147.5</ele><time>2026-04-07T08:09:40.349Z</time></trkpt><trkpt lat="44.26798878241728" lon="9.477785127246266"><ele>153.0</ele><time>2026-04-07T08:09:48.999Z</time></trkpt><trkpt lat="44.26783844043207" lon="9.478060118408678"><ele>153.0</ele><time>2026-04-07T08:09:49.999Z</time></trkpt><trkpt lat="44.26772310568376" lon="9.478359832204879"><ele>153.0</ele><time>2026-04-07T08:09:50.999Z</time></trkpt><trkpt lat="44.267567255146375" lon="9.47860607679425"><ele>143.0</ele><time>2026-04-07T08:09:51.999Z</time></trkpt><trkpt lat="44.26740551036771" lon="9.478863926837688"><ele>133.0</ele><time>2026-04-07T08:09:52.999Z</time></trkpt><trkpt lat="44.267244088885654" lon="9.47911885537531"><ele>140.0</ele><time>2026-04-07T08:09:53.999Z</time></trkpt><trkpt lat="44.2670739688167" lon="9.479371624546376"><ele>147.0</ele><time>2026-04-07T08:09:54.999Z</time></trkpt><trkpt lat="44.26690028347953" lon="9.479632458778473"><ele>147.0</ele><time>2026-04-07T08:09:55.999Z</time></trkpt><trkpt lat="44.26669949374536" lon="9.479896783667634"><ele>147.0</ele><time>2026-04-07T08:09:57Z</time></trkpt><trkpt lat="44.266512614840025" lon="9.480142107521273"><ele>147.5</ele><time>2026-04-07T08:09:58Z</time></trkpt><trkpt lat="44.26632838054182" lon="9.480373776480835"><ele>148.0</ele><time>2026-04-07T08:09:59Z</time></trkpt><trkpt lat="44.26614204105996" lon="9.480608825735546"><ele>148.0</ele><time>2026-04-07T08:10:00Z</time></trkpt><trkpt lat="44.265954691374525" lon="9.480832418275254"><ele>148.0</ele><time>2026-04-07T08:10:01Z</time></trkpt><trkpt lat="44.2657716197949" lon="9.481049918667106"><ele>145.5</ele><time>2026-04-07T08:10:02Z</time></trkpt><trkpt lat="44.26557976352601" lon="9.481258800436867"><ele>143.0</ele><time>2026-04-07T08:10:03Z</time></trkpt><trkpt lat="44.26538960793535" lon="9.481472047212304"><ele>136.0</ele><time>2026-04-07T08:10:04Z</time></trkpt><trkpt lat="44.26520041223108" lon="9.481682863235976"><ele>129.0</ele><time>2026-04-07T08:10:05Z</time></trkpt><trkpt lat="44.265009143574304" lon="9.481886197166467"><ele>129.0</ele><time>2026-04-07T08:10:06Z</time></trkpt><trkpt lat="44.26481625980981" lon="9.482089730797929"><ele>129.0</ele><time>2026-04-07T08:10:07Z</time></trkpt><trkpt lat="44.26462263927826" lon="9.482289261270534"><ele>138.5</ele><time>2026-04-07T08:10:08Z</time></trkpt><trkpt lat="44.264424243693455" lon="9.482487508952904"><ele>148.0</ele><time>2026-04-07T08:10:09Z</time></trkpt><trkpt lat="44.264230107009276" lon="9.482681226844962"><ele>148.0</ele><time>2026-04-07T08:10:10Z</time></trkpt><trkpt lat="44.26403693494557" lon="9.482893965314759"><ele>148.0</ele><time>2026-04-07T08:10:11Z</time></trkpt><trkpt lat="44.263822988620106" lon="9.483079554447677"><ele>159.0</ele><time>2026-04-07T08:10:12Z</time></trkpt><trkpt lat="44.26360416521452" lon="9.483245379290945"><ele>170.0</ele><time>2026-04-07T08:10:13Z</time></trkpt><trkpt lat="44.26337821895241" lon="9.483397562992508"><ele>170.0</ele><time>2026-04-07T08:10:14Z</time></trkpt><trkpt lat="44.26314372190666" lon="9.48353523680237"><ele>170.0</ele><time>2026-04-07T08:10:15Z</time></trkpt><trkpt lat="44.26289039480879" lon="9.483662654081382"><ele>168.0</ele><time>2026-04-07T08:10:16Z</time></trkpt><trkpt lat="44.26261917914073" lon="9.483774192756997"><ele>166.0</ele><time>2026-04-07T08:10:17Z</time></trkpt><trkpt lat="44.26233171380996" lon="9.48386835883987"><ele>170.0</ele><time>2026-04-07T08:10:18Z</time></trkpt><trkpt lat="44.26204052070681" lon="9.483938751117366"><ele>174.0</ele><time>2026-04-07T08:10:19Z</time></trkpt><trkpt lat="44.26177626730938" lon="9.483972886281"><ele>174.0</ele><time>2026-04-07T08:10:20Z</time></trkpt><trkpt lat="44.26151942642132" lon="9.48399003736386"><ele>174.0</ele><time>2026-04-07T08:10:21Z</time></trkpt><trkpt lat="44.26126252282222" lon="9.484016614905903"><ele>193.0</ele><time>2026-04-07T08:10:22Z</time></trkpt><trkpt lat="44.26100445193814" lon="9.484057412359114"><ele>212.0</ele><time>2026-04-07T08:10:23Z</time></trkpt><trkpt lat="44.26074678893046" lon="9.484100447080413"><ele>234.5</ele><time>2026-04-07T08:10:24Z</time></trkpt><trkpt lat="44.26048563822193" lon="9.484144725560368"><ele>257.0</ele><time>2026-04-07T08:10:25.019Z</time></trkpt><trkpt lat="44.260227514547495" lon="9.484187246087078"><ele>257.0</ele><time>2026-04-07T08:10:26.017Z</time></trkpt><trkpt lat="44.25996874601877" lon="9.484230346280738"><ele>257.0</ele><time>2026-04-07T08:10:27.021Z</time></trkpt><trkpt lat="44.259711683790854" lon="9.484273051762667"><ele>289.0</ele><time>2026-04-07T08:10:28.017Z</time></trkpt><trkpt lat="44.25777378443724" lon="9.484977642149639"><ele>302.0</ele><time>2026-04-07T08:10:31.348Z</time></trkpt><trkpt lat="44.25733173417522" lon="9.48591593385076"><ele>186.0</ele><time>2026-04-07T08:10:41.976Z</time></trkpt><trkpt lat="44.25519539978751" lon="9.488645978280799"><ele>181.5</ele><time>2026-04-07T08:10:51Z</time></trkpt><trkpt lat="44.25508615366489" lon="9.488947952796542"><ele>177.0</ele><time>2026-04-07T08:10:52Z</time></trkpt><trkpt lat="44.2549618801069" lon="9.489280209664948"><ele>184.0</ele><time>2026-04-07T08:10:53Z</time></trkpt><trkpt lat="44.25488047166983" lon="9.489615165175667"><ele>191.0</ele><time>2026-04-07T08:10:54Z</time></trkpt><trkpt lat="44.25481806806265" lon="9.48995747234851"><ele>176.0</ele><time>2026-04-07T08:10:55Z</time></trkpt><trkpt lat="44.25475821603354" lon="9.490301180868144"><ele>161.0</ele><time>2026-04-07T08:10:56Z</time></trkpt><trkpt lat="44.25471104235811" lon="9.490650670363495"><ele>161.0</ele><time>2026-04-07T08:10:57Z</time></trkpt><trkpt lat="44.254666859918444" lon="9.490999180963327"><ele>161.0</ele><time>2026-04-07T08:10:58Z</time></trkpt><trkpt lat="44.25463283647647" lon="9.491350755944016"><ele>163.0</ele><time>2026-04-07T08:10:59Z</time></trkpt><trkpt lat="44.25461652514412" lon="9.491707728656388"><ele>165.0</ele><time>2026-04-07T08:11:00Z</time></trkpt><trkpt lat="44.254606271447315" lon="9.492065533810763"><ele>173.0</ele><time>2026-04-07T08:11:01Z</time></trkpt><trkpt lat="44.254620256642546" lon="9.492422595943628"><ele>181.0</ele><time>2026-04-07T08:11:02Z</time></trkpt><trkpt lat="44.25463363837781" lon="9.49276148904409"><ele>188.0</ele><time>2026-04-07T08:11:03Z</time></trkpt><trkpt lat="44.25464109326597" lon="9.493061245968088"><ele>195.0</ele><time>2026-04-07T08:11:04Z</time></trkpt><trkpt lat="44.25464908406414" lon="9.493354899324066"><ele>202.0</ele><time>2026-04-07T08:11:05Z</time></trkpt><trkpt lat="44.25465846406837" lon="9.493671401309683"><ele>199.0</ele><time>2026-04-07T08:11:06Z</time></trkpt><trkpt lat="44.25466788889369" lon="9.49400002618475"><ele>196.0</ele><time>2026-04-07T08:11:07.02Z</time></trkpt><trkpt lat="44.25470845312276" lon="9.495042543867132"><ele>183.0</ele><time>2026-04-07T08:11:10Z</time></trkpt><trkpt lat="44.25472117853205" lon="9.49540296652939"><ele>170.0</ele><time>2026-04-07T08:11:10.999Z</time></trkpt><trkpt lat="44.25473530007909" lon="9.49581416168838"><ele>167.5</ele><time>2026-04-07T08:11:11.999Z</time></trkpt><trkpt lat="44.254745002307885" lon="9.496164619395744"><ele>165.0</ele><time>2026-04-07T08:11:12.999Z</time></trkpt><trkpt lat="44.254761279507235" lon="9.496486733210277"><ele>171.0</ele><time>2026-04-07T08:11:13.999Z</time></trkpt><trkpt lat="44.25477029835649" lon="9.496837544069828"><ele>177.0</ele><time>2026-04-07T08:11:14.999Z</time></trkpt><trkpt lat="44.25478358808591" lon="9.497188703246662"><ele>196.5</ele><time>2026-04-07T08:11:15.999Z</time></trkpt><trkpt lat="44.25479418309212" lon="9.497545052057529"><ele>216.0</ele><time>2026-04-07T08:11:16.999Z</time></trkpt><trkpt lat="44.25479937977136" lon="9.497900171459715"><ele>222.5</ele><time>2026-04-07T08:11:17.999Z</time></trkpt><trkpt lat="44.25480538386235" lon="9.49825768693699"><ele>229.0</ele><time>2026-04-07T08:11:18.999Z</time></trkpt><trkpt lat="44.25481255676101" lon="9.498616095685604"><ele>242.5</ele><time>2026-04-07T08:11:19.999Z</time></trkpt><trkpt lat="44.2548191695752" lon="9.498978666270533"><ele>256.0</ele><time>2026-04-07T08:11:20.999Z</time></trkpt><trkpt lat="44.25482552599063" lon="9.499341960415698"><ele>267.5</ele><time>2026-04-07T08:11:21.999Z</time></trkpt><trkpt lat="44.25483219762458" lon="9.499711829440285"><ele>279.0</ele><time>2026-04-07T08:11:23.021Z</time></trkpt><trkpt lat="44.25483674244946" lon="9.500075226280321"><ele>289.5</ele><time>2026-04-07T08:11:24.019Z</time></trkpt><trkpt lat="44.25484241011928" lon="9.5004390329827"><ele>300.0</ele><time>2026-04-07T08:11:25.019Z</time></trkpt><trkpt lat="44.254848584930635" lon="9.500805133899908"><ele>234.0</ele><time>2026-04-07T08:11:26.022Z</time></trkpt><trkpt lat="44.25468373117168" lon="9.503614688224728"><ele>211.0</ele><time>2026-04-07T08:11:29.348Z</time></trkpt><trkpt lat="44.25465585668036" lon="9.504475202420265"><ele>210.5</ele><time>2026-04-07T08:11:35.999Z</time></trkpt><trkpt lat="44.25462546848726" lon="9.504836220147283"><ele>210.0</ele><time>2026-04-07T08:11:36.999Z</time></trkpt><trkpt lat="44.254556249416524" lon="9.505200807976417"><ele>215.5</ele><time>2026-04-07T08:11:37.999Z</time></trkpt><trkpt lat="44.25452464812264" lon="9.505573526688785"><ele>221.0</ele><time>2026-04-07T08:11:38.999Z</time></trkpt><trkpt lat="44.254481557340874" lon="9.505957957825288"><ele>225.5</ele><time>2026-04-07T08:11:39.999Z</time></trkpt><trkpt lat="44.25443386340104" lon="9.506343407439294"><ele>230.0</ele><time>2026-04-07T08:11:40.999Z</time></trkpt><trkpt lat="44.25437843217464" lon="9.506735137374612"><ele>228.0</ele><time>2026-04-07T08:11:41.999Z</time></trkpt><trkpt lat="44.254312796186696" lon="9.507120660748896"><ele>226.0</ele><time>2026-04-07T08:11:42.999Z</time></trkpt><trkpt lat="44.254234843486216" lon="9.507491050811502"><ele>226.0</ele><time>2026-04-07T08:11:43.999Z</time></trkpt><trkpt lat="44.25416907489976" lon="9.507828836506311"><ele>226.0</ele><time>2026-04-07T08:11:44.999Z</time></trkpt><trkpt lat="44.25410940645633" lon="9.508168120888635"><ele>231.0</ele><time>2026-04-07T08:11:45.999Z</time></trkpt><trkpt lat="44.254046774787135" lon="9.508513816129028"><ele>236.0</ele><time>2026-04-07T08:11:46.999Z</time></trkpt><trkpt lat="44.25397545141278" lon="9.508862153604445"><ele>242.5</ele><time>2026-04-07T08:11:47.999Z</time></trkpt><trkpt lat="44.253898840674744" lon="9.509206316421464"><ele>249.0</ele><time>2026-04-07T08:11:48.999Z</time></trkpt><trkpt lat="44.25381821876756" lon="9.50954812494111"><ele>260.5</ele><time>2026-04-07T08:11:49.999Z</time></trkpt><trkpt lat="44.253731641016394" lon="9.50989505959574"><ele>272.0</ele><time>2026-04-07T08:11:51.018Z</time></trkpt><trkpt lat="44.253647367120664" lon="9.510234802465844"><ele>282.5</ele><time>2026-04-07T08:11:52.017Z</time></trkpt><trkpt lat="44.25356394091483" lon="9.510574878323395"><ele>293.0</ele><time>2026-04-07T08:11:53.016Z</time></trkpt><trkpt lat="44.2534853230532" lon="9.510905531135204"><ele>289.0</ele><time>2026-04-07T08:11:54.014Z</time></trkpt><trkpt lat="44.253402633123024" lon="9.511245900400064"><ele>285.0</ele><time>2026-04-07T08:11:55.019Z</time></trkpt><trkpt lat="44.25261230677762" lon="9.513602675878921"><ele>265.0</ele><time>2026-04-07T08:12:01.999Z</time></trkpt><trkpt lat="44.25249731620255" lon="9.513920514881555"><ele>245.0</ele><time>2026-04-07T08:12:02.999Z</time></trkpt><trkpt lat="44.25238067065153" lon="9.514236458378118"><ele>238.0</ele><time>2026-04-07T08:12:03.999Z</time></trkpt><trkpt lat="44.25226212954383" lon="9.514546153419476"><ele>231.0</ele><time>2026-04-07T08:12:04.999Z</time></trkpt><trkpt lat="44.252133530029646" lon="9.514847041102199"><ele>231.0</ele><time>2026-04-07T08:12:05.999Z</time></trkpt><trkpt lat="44.25200852757858" lon="9.515147601859576"><ele>231.0</ele><time>2026-04-07T08:12:06.999Z</time></trkpt><trkpt lat="44.2519049630035" lon="9.515408748058777"><ele>233.0</ele><time>2026-04-07T08:12:08Z</time></trkpt><trkpt lat="44.251793139540155" lon="9.515666238830171"><ele>235.0</ele><time>2026-04-07T08:12:09Z</time></trkpt><trkpt lat="44.25167155831015" lon="9.515926317188761"><ele>237.0</ele><time>2026-04-07T08:12:10Z</time></trkpt><trkpt lat="44.251546073037474" lon="9.516193075485779"><ele>236.0</ele><time>2026-04-07T08:12:11Z</time></trkpt><trkpt lat="44.25141710771538" lon="9.516448477392256"><ele>235.0</ele><time>2026-04-07T08:12:12Z</time></trkpt><trkpt lat="44.25128735649381" lon="9.516710757256913"><ele>235.0</ele><time>2026-04-07T08:12:13Z</time></trkpt><trkpt lat="44.251147002101085" lon="9.516996152721418"><ele>235.0</ele><time>2026-04-07T08:12:14Z</time></trkpt><trkpt lat="44.25100526868987" lon="9.517253581821198"><ele>239.66666666666666</ele><time>2026-04-07T08:12:15Z</time></trkpt><trkpt lat="44.25087419676702" lon="9.517481940569686"><ele>244.33333333333331</ele><time>2026-04-07T08:12:16Z</time></trkpt><trkpt lat="44.25074776868631" lon="9.517707205912782"><ele>249.0</ele><time>2026-04-07T08:12:17Z</time></trkpt><trkpt lat="44.25061651185899" lon="9.517944789924947"><ele>251.0</ele><time>2026-04-07T08:12:18Z</time></trkpt><trkpt lat="44.25047214261905" lon="9.518194425131762"><ele>253.0</ele><time>2026-04-07T08:12:19Z</time></trkpt><trkpt lat="44.250321420412995" lon="9.518459730341533"><ele>260.0</ele><time>2026-04-07T08:12:20Z</time></trkpt><trkpt lat="44.25015930792702" lon="9.518736208508091"><ele>267.0</ele><time>2026-04-07T08:12:21Z</time></trkpt><trkpt lat="44.24998821035493" lon="9.519014510608631"><ele>267.0</ele><time>2026-04-07T08:12:22Z</time></trkpt><trkpt lat="44.249819816877384" lon="9.519297809128068"><ele>267.0</ele><time>2026-04-07T08:12:23Z</time></trkpt><trkpt lat="44.24965558949432" lon="9.519556188217607"><ele>267.5</ele><time>2026-04-07T08:12:24Z</time></trkpt><trkpt lat="44.249489842719996" lon="9.519819211013893"><ele>268.0</ele><time>2026-04-07T08:12:25Z</time></trkpt><trkpt lat="44.24932617725228" lon="9.520088874117047"><ele>268.0</ele><time>2026-04-07T08:12:26Z</time></trkpt><trkpt lat="44.24916203887566" lon="9.520364673743748"><ele>268.0</ele><time>2026-04-07T08:12:27Z</time></trkpt><trkpt lat="44.24900239454897" lon="9.520648288301674"><ele>298.5</ele><time>2026-04-07T08:12:28Z</time></trkpt><trkpt lat="44.248873895614025" lon="9.520931612740586"><ele>329.0</ele><time>2026-04-07T08:12:29Z</time></trkpt><trkpt lat="44.248754659319324" lon="9.521216492083923"><ele>340.0</ele><time>2026-04-07T08:12:30Z</time></trkpt><trkpt lat="44.24864076844977" lon="9.521512328292541"><ele>351.0</ele><time>2026-04-07T08:12:31.019Z</time></trkpt><trkpt lat="44.24850915744383" lon="9.52178822706003"><ele>354.0</ele><time>2026-04-07T08:12:32.023Z</time></trkpt><trkpt lat="44.2484027474272" lon="9.52208631527968"><ele>357.0</ele><time>2026-04-07T08:12:33.021Z</time></trkpt><trkpt lat="44.24827793968571" lon="9.522371864683835"><ele>357.0</ele><time>2026-04-07T08:12:34.02Z</time></trkpt><trkpt lat="44.24816600986902" lon="9.522659828730879"><ele>357.0</ele><time>2026-04-07T08:12:35.019Z</time></trkpt><trkpt lat="44.2474444" lon="9.5251465"><ele>490.0</ele><time>2026-04-07T08:12:38.347Z</time></trkpt><trkpt lat="44.24725805133154" lon="9.526371370234479"><ele>536.0</ele><time>2026-04-07T08:12:40.347Z</time></trkpt><trkpt lat="44.24708248813162" lon="9.527599241730888"><ele>593.0</ele><time>2026-04-07T08:12:41.347Z</time></trkpt><trkpt lat="44.24690691580621" lon="9.528827177049994"><ele>573.0</ele><time>2026-04-07T08:12:42.347Z</time></trkpt><trkpt lat="44.246731332576275" lon="9.53005518863429"><ele>519.0</ele><time>2026-04-07T08:12:43.347Z</time></trkpt><trkpt lat="44.246569965444756" lon="9.531286806052611"><ele>483.0</ele><time>2026-04-07T08:12:44.347Z</time></trkpt><trkpt lat="44.24638854824232" lon="9.532513236484343"><ele>462.0</ele><time>2026-04-07T08:12:45.347Z</time></trkpt><trkpt lat="44.24620758717277" lon="9.533739616966724"><ele>440.0</ele><time>2026-04-07T08:12:46.347Z</time></trkpt><trkpt lat="44.24602942166005" lon="9.534966657423956"><ele>402.0</ele><time>2026-04-07T08:12:47.347Z</time></trkpt><trkpt lat="44.24585144380988" lon="9.536194013760733"><ele>337.0</ele><time>2026-04-07T08:12:48.347Z</time></trkpt><trkpt lat="44.245677751625536" lon="9.53742230838756"><ele>282.0</ele><time>2026-04-07T08:12:49.347Z</time></trkpt><trkpt lat="44.24549208958097" lon="9.538836563014927"><ele>282.0</ele><time>2026-04-07T08:13:19.999Z</time></trkpt><trkpt lat="44.24544201325622" lon="9.539175885199475"><ele>282.0</ele><time>2026-04-07T08:13:20.999Z</time></trkpt><trkpt lat="44.24536246879924" lon="9.539522813471974"><ele>285.5</ele><time>2026-04-07T08:13:21.999Z</time></trkpt><trkpt lat="44.24531539076529" lon="9.53986899280119"><ele>289.0</ele><time>2026-04-07T08:13:22.999Z</time></trkpt><trkpt lat="44.24526735132382" lon="9.540217879128054"><ele>288.5</ele><time>2026-04-07T08:13:23.999Z</time></trkpt><trkpt lat="44.245223055865466" lon="9.540564895206998"><ele>288.0</ele><time>2026-04-07T08:13:24.999Z</time></trkpt><trkpt lat="44.2451750349966" lon="9.540915033911388"><ele>279.5</ele><time>2026-04-07T08:13:25.999Z</time></trkpt><trkpt lat="44.2451253439507" lon="9.541262637797951"><ele>271.0</ele><time>2026-04-07T08:13:26.999Z</time></trkpt><trkpt lat="44.24506130101307" lon="9.541607185508923"><ele>271.0</ele><time>2026-04-07T08:13:27.999Z</time></trkpt><trkpt lat="44.24499939905531" lon="9.541953301191555"><ele>271.0</ele><time>2026-04-07T08:13:28.999Z</time></trkpt><trkpt lat="44.24492057221207" lon="9.542289717138528"><ele>271.0</ele><time>2026-04-07T08:13:29.999Z</time></trkpt><trkpt lat="44.2448403150873" lon="9.542617304635897"><ele>271.0</ele><time>2026-04-07T08:13:30.999Z</time></trkpt><trkpt lat="44.244745198649134" lon="9.542944071817569"><ele>263.5</ele><time>2026-04-07T08:13:31.999Z</time></trkpt><trkpt lat="44.24464118113656" lon="9.543266859178779"><ele>256.0</ele><time>2026-04-07T08:13:32.999Z</time></trkpt><trkpt lat="44.24453080078874" lon="9.543583343084359"><ele>268.5</ele><time>2026-04-07T08:13:33.999Z</time></trkpt><trkpt lat="44.24441516582218" lon="9.54389705107481"><ele>281.0</ele><time>2026-04-07T08:13:34.999Z</time></trkpt><trkpt lat="44.24428959646124" lon="9.54420487672427"><ele>281.0</ele><time>2026-04-07T08:13:35.999Z</time></trkpt><trkpt lat="44.24415788853064" lon="9.54451351528777"><ele>281.0</ele><time>2026-04-07T08:13:36.999Z</time></trkpt><trkpt lat="44.24402013145488" lon="9.544823869835243"><ele>289.5</ele><time>2026-04-07T08:13:37.999Z</time></trkpt><trkpt lat="44.243884546183864" lon="9.545127712141245"><ele>298.0</ele><time>2026-04-07T08:13:38.999Z</time></trkpt><trkpt lat="44.24374414151092" lon="9.545439641342321"><ele>302.5</ele><time>2026-04-07T08:13:39.999Z</time></trkpt><trkpt lat="44.243604826603175" lon="9.545753676461098"><ele>307.0</ele><time>2026-04-07T08:13:40.999Z</time></trkpt><trkpt lat="44.243465645343804" lon="9.546067243356413"><ele>312.0</ele><time>2026-04-07T08:13:41.999Z</time></trkpt><trkpt lat="44.24332416289401" lon="9.546382441387516"><ele>317.0</ele><time>2026-04-07T08:13:42.999Z</time></trkpt><trkpt lat="44.243180348785344" lon="9.546698487870827"><ele>309.0</ele><time>2026-04-07T08:13:43.999Z</time></trkpt><trkpt lat="44.24304113174691" lon="9.547016505568964"><ele>301.0</ele><time>2026-04-07T08:13:44.999Z</time></trkpt><trkpt lat="44.24290325076878" lon="9.547341312550273"><ele>301.0</ele><time>2026-04-07T08:13:45.999Z</time></trkpt><trkpt lat="44.24277175219451" lon="9.54766821177608"><ele>301.0</ele><time>2026-04-07T08:13:46.999Z</time></trkpt><trkpt lat="44.242645652896854" lon="9.547999271190061"><ele>306.5</ele><time>2026-04-07T08:13:47.999Z</time></trkpt><trkpt lat="44.24252801352944" lon="9.548336961494055"><ele>312.0</ele><time>2026-04-07T08:13:48.999Z</time></trkpt><trkpt lat="44.24242045511199" lon="9.548682424853737"><ele>321.5</ele><time>2026-04-07T08:13:49.999Z</time></trkpt><trkpt lat="44.24232820911397" lon="9.549029198543565"><ele>331.0</ele><time>2026-04-07T08:13:50.999Z</time></trkpt><trkpt lat="44.24224299805252" lon="9.5493812194725"><ele>345.5</ele><time>2026-04-07T08:13:51.999Z</time></trkpt><trkpt lat="44.24215830853299" lon="9.549731758727049"><ele>360.0</ele><time>2026-04-07T08:13:52.999Z</time></trkpt><trkpt lat="44.24207245641433" lon="9.550088749983367"><ele>361.0</ele><time>2026-04-07T08:13:54.018Z</time></trkpt><trkpt lat="44.241986598701" lon="9.550438400047732"><ele>362.0</ele><time>2026-04-07T08:13:55.019Z</time></trkpt><trkpt lat="44.24190076552511" lon="9.550788912831006"><ele>362.0</ele><time>2026-04-07T08:13:56.018Z</time></trkpt><trkpt lat="44.241859127058156" lon="9.551152810500644"><ele>362.0</ele><time>2026-04-07T08:13:57.018Z</time></trkpt><trkpt lat="44.241823981922096" lon="9.551511279471832"><ele>411.0</ele><time>2026-04-07T08:13:58.018Z</time></trkpt><trkpt lat="44.24191639313289" lon="9.554329704415306"><ele>387.0</ele><time>2026-04-07T08:14:01.346Z</time></trkpt><trkpt lat="44.24206143845371" lon="9.555565475752468"><ele>347.0</ele><time>2026-04-07T08:14:02.347Z</time></trkpt><trkpt lat="44.24221612993605" lon="9.556798383102345"><ele>321.0</ele><time>2026-04-07T08:14:03.346Z</time></trkpt><trkpt lat="44.24233232163288" lon="9.557856777691802"><ele>308.0</ele><time>2026-04-07T08:14:14.999Z</time></trkpt><trkpt lat="44.24237915259338" lon="9.55823222260562"><ele>295.0</ele><time>2026-04-07T08:14:15.999Z</time></trkpt><trkpt lat="44.24239689547574" lon="9.558625805516199"><ele>283.0</ele><time>2026-04-07T08:14:16.999Z</time></trkpt><trkpt lat="44.24246354160777" lon="9.558993780076046"><ele>271.0</ele><time>2026-04-07T08:14:17.999Z</time></trkpt><trkpt lat="44.24252249717389" lon="9.559366291631493"><ele>273.5</ele><time>2026-04-07T08:14:18.999Z</time></trkpt><trkpt lat="44.242570315091434" lon="9.559741561375578"><ele>276.0</ele><time>2026-04-07T08:14:19.999Z</time></trkpt><trkpt lat="44.2426141413017" lon="9.560094401730675"><ele>286.5</ele><time>2026-04-07T08:14:21Z</time></trkpt><trkpt lat="44.242652669833596" lon="9.56043644453805"><ele>297.0</ele><time>2026-04-07T08:14:22Z</time></trkpt><trkpt lat="44.24269076954517" lon="9.560787036555084"><ele>297.0</ele><time>2026-04-07T08:14:23Z</time></trkpt><trkpt lat="44.24272273419903" lon="9.561142719199202"><ele>297.0</ele><time>2026-04-07T08:14:24Z</time></trkpt><trkpt lat="44.24274464973551" lon="9.561499134760876"><ele>312.0</ele><time>2026-04-07T08:14:25Z</time></trkpt><trkpt lat="44.24275358140834" lon="9.561858383547337"><ele>327.0</ele><time>2026-04-07T08:14:26Z</time></trkpt><trkpt lat="44.2427481455133" lon="9.562215335712455"><ele>343.5</ele><time>2026-04-07T08:14:27Z</time></trkpt><trkpt lat="44.24272644244245" lon="9.562575235229522"><ele>360.0</ele><time>2026-04-07T08:14:28Z</time></trkpt><trkpt lat="44.24269674231963" lon="9.56294041233192"><ele>382.0</ele><time>2026-04-07T08:14:29.014Z</time></trkpt><trkpt lat="44.2426712473237" lon="9.563300147563258"><ele>404.0</ele><time>2026-04-07T08:14:30.013Z</time></trkpt><trkpt lat="44.242638730473395" lon="9.563659207544527"><ele>427.5</ele><time>2026-04-07T08:14:31.019Z</time></trkpt><trkpt lat="44.2426129619455" lon="9.564015324510793"><ele>451.0</ele><time>2026-04-07T08:14:32.015Z</time></trkpt><trkpt lat="44.242554868134356" lon="9.564364736317357"><ele>385.0</ele><time>2026-04-07T08:14:33.02Z</time></trkpt><trkpt lat="44.24161110875351" lon="9.566838415816573"><ele>322.0</ele><time>2026-04-07T08:14:36.346Z</time></trkpt><trkpt lat="44.240876468871015" lon="9.5682444702923"><ele>322.0</ele><time>2026-04-07T08:14:45Z</time></trkpt><trkpt lat="44.24071403919329" lon="9.568549119974287"><ele>322.0</ele><time>2026-04-07T08:14:46Z</time></trkpt><trkpt lat="44.240551398511094" lon="9.568836154462797"><ele>317.0</ele><time>2026-04-07T08:14:47Z</time></trkpt><trkpt lat="44.24040369513617" lon="9.569122467629802"><ele>312.0</ele><time>2026-04-07T08:14:48Z</time></trkpt><trkpt lat="44.240255093873955" lon="9.569412955428847"><ele>316.5</ele><time>2026-04-07T08:14:49Z</time></trkpt><trkpt lat="44.240112211624954" lon="9.569711985780788"><ele>321.0</ele><time>2026-04-07T08:14:50Z</time></trkpt><trkpt lat="44.239969389025326" lon="9.570014137878296"><ele>321.0</ele><time>2026-04-07T08:14:51Z</time></trkpt><trkpt lat="44.239832777349015" lon="9.570319509052641"><ele>321.0</ele><time>2026-04-07T08:14:52Z</time></trkpt><trkpt lat="44.239701314464746" lon="9.570625002071397"><ele>321.5</ele><time>2026-04-07T08:14:53Z</time></trkpt><trkpt lat="44.23957392519281" lon="9.570936255560294"><ele>322.0</ele><time>2026-04-07T08:14:54Z</time></trkpt><trkpt lat="44.23944834993268" lon="9.571251303165406"><ele>332.0</ele><time>2026-04-07T08:14:55Z</time></trkpt><trkpt lat="44.23933392417438" lon="9.571562887891087"><ele>342.0</ele><time>2026-04-07T08:14:56Z</time></trkpt><trkpt lat="44.239226139072365" lon="9.57187462374763"><ele>355.0</ele><time>2026-04-07T08:14:57Z</time></trkpt><trkpt lat="44.23911757628447" lon="9.572190996329"><ele>368.0</ele><time>2026-04-07T08:14:58.017Z</time></trkpt><trkpt lat="44.239015321091195" lon="9.572499661109132"><ele>372.5</ele><time>2026-04-07T08:14:59.018Z</time></trkpt><trkpt lat="44.23890807767028" lon="9.572810917129253"><ele>377.0</ele><time>2026-04-07T08:15:00.02Z</time></trkpt><trkpt lat="44.23879680274711" lon="9.573123830754373"><ele>394.5</ele><time>2026-04-07T08:15:01.019Z</time></trkpt><trkpt lat="44.23869107009421" lon="9.57343350067013"><ele>412.0</ele><time>2026-04-07T08:15:02.017Z</time></trkpt><trkpt lat="44.23829483899575" lon="9.576205633969547"><ele>533.0</ele><time>2026-04-07T08:15:05.346Z</time></trkpt><trkpt lat="44.23820807486151" lon="9.577451874647133"><ele>586.0</ele><time>2026-04-07T08:15:06.346Z</time></trkpt><trkpt lat="44.23819632049183" lon="9.578703033556462"><ele>603.0</ele><time>2026-04-07T08:15:07.346Z</time></trkpt><trkpt lat="44.238257606881774" lon="9.579951586729413"><ele>583.0</ele><time>2026-04-07T08:15:08.346Z</time></trkpt><trkpt lat="44.23836133548669" lon="9.581194258670267"><ele>572.0</ele><time>2026-04-07T08:15:09.345Z</time></trkpt><trkpt lat="44.23846218175942" lon="9.582438881292163"><ele>543.0</ele><time>2026-04-07T08:15:10.346Z</time></trkpt><trkpt lat="44.2385689464999" lon="9.583681894815511"><ele>526.0</ele><time>2026-04-07T08:15:11.346Z</time></trkpt><trkpt lat="44.238674625403846" lon="9.58492382803196"><ele>513.0</ele><time>2026-04-07T08:15:12.345Z</time></trkpt><trkpt lat="44.23877755395334" lon="9.586168566774155"><ele>469.0</ele><time>2026-04-07T08:15:13.346Z</time></trkpt><trkpt lat="44.238882238644294" lon="9.587411867195309"><ele>451.0</ele><time>2026-04-07T08:15:14.346Z</time></trkpt><trkpt lat="44.23898763008397" lon="9.588655066188053"><ele>437.0</ele><time>2026-04-07T08:15:15.346Z</time></trkpt><trkpt lat="44.239098485033324" lon="9.589897319147852"><ele>423.0</ele><time>2026-04-07T08:15:16.346Z</time></trkpt><trkpt lat="44.23919916598274" lon="9.59114111826949"><ele>374.0</ele><time>2026-04-07T08:15:17.346Z</time></trkpt><trkpt lat="44.23922069127365" lon="9.592392211475122"><ele>353.0</ele><time>2026-04-07T08:15:18.346Z</time></trkpt><trkpt lat="44.239267311100136" lon="9.593101926156871"><ele>353.0</ele><time>2026-04-07T08:15:55.999Z</time></trkpt><trkpt lat="44.23923465989599" lon="9.59347015545006"><ele>353.0</ele><time>2026-04-07T08:15:56.999Z</time></trkpt><trkpt lat="44.2390907088515" lon="9.593846309093747"><ele>350.0</ele><time>2026-04-07T08:15:57.999Z</time></trkpt><trkpt lat="44.239046271713526" lon="9.594189238312573"><ele>347.0</ele><time>2026-04-07T08:15:58.999Z</time></trkpt><trkpt lat="44.23896801943667" lon="9.594552674142937"><ele>348.5</ele><time>2026-04-07T08:15:59.999Z</time></trkpt><trkpt lat="44.23889263671627" lon="9.594906330423578"><ele>350.0</ele><time>2026-04-07T08:16:00.999Z</time></trkpt><trkpt lat="44.238809435964924" lon="9.59525233705181"><ele>345.0</ele><time>2026-04-07T08:16:01.999Z</time></trkpt><trkpt lat="44.238716170723116" lon="9.595593532387866"><ele>340.0</ele><time>2026-04-07T08:16:02.999Z</time></trkpt><trkpt lat="44.23860916750541" lon="9.595927757230102"><ele>338.5</ele><time>2026-04-07T08:16:03.999Z</time></trkpt><trkpt lat="44.23849520372052" lon="9.596259677847213"><ele>337.0</ele><time>2026-04-07T08:16:04.999Z</time></trkpt><trkpt lat="44.23837657694394" lon="9.596580821354799"><ele>337.0</ele><time>2026-04-07T08:16:05.999Z</time></trkpt><trkpt lat="44.2382484212068" lon="9.596893829927579"><ele>337.0</ele><time>2026-04-07T08:16:06.999Z</time></trkpt><trkpt lat="44.238113472718986" lon="9.597196315912637"><ele>337.5</ele><time>2026-04-07T08:16:07.999Z</time></trkpt><trkpt lat="44.237967847375856" lon="9.597487060207998"><ele>338.0</ele><time>2026-04-07T08:16:08.999Z</time></trkpt><trkpt lat="44.23781729188868" lon="9.597768911747808"><ele>338.5</ele><time>2026-04-07T08:16:09.999Z</time></trkpt><trkpt lat="44.237658896359086" lon="9.59804022860204"><ele>339.0</ele><time>2026-04-07T08:16:10.999Z</time></trkpt><trkpt lat="44.237496304836526" lon="9.598303297876177"><ele>339.0</ele><time>2026-04-07T08:16:11.999Z</time></trkpt><trkpt lat="44.23732512786909" lon="9.598563958045304"><ele>339.0</ele><time>2026-04-07T08:16:12.999Z</time></trkpt><trkpt lat="44.237145578776484" lon="9.598818114296568"><ele>346.0</ele><time>2026-04-07T08:16:13.999Z</time></trkpt><trkpt lat="44.23695921983269" lon="9.599061811409753"><ele>353.0</ele><time>2026-04-07T08:16:14.999Z</time></trkpt><trkpt lat="44.23676045234515" lon="9.599288109177811"><ele>352.0</ele><time>2026-04-07T08:16:15.999Z</time></trkpt><trkpt lat="44.23655360742103" lon="9.599504924339396"><ele>351.0</ele><time>2026-04-07T08:16:16.999Z</time></trkpt><trkpt lat="44.23633985329955" lon="9.599712300761201"><ele>351.0</ele><time>2026-04-07T08:16:17.999Z</time></trkpt><trkpt lat="44.236121894009855" lon="9.599913765467793"><ele>351.0</ele><time>2026-04-07T08:16:18.999Z</time></trkpt><trkpt lat="44.23590493222683" lon="9.600110328624027"><ele>351.0</ele><time>2026-04-07T08:16:19.999Z</time></trkpt><trkpt lat="44.23568704459867" lon="9.600311332841983"><ele>351.0</ele><time>2026-04-07T08:16:20.999Z</time></trkpt><trkpt lat="44.23546419080016" lon="9.600509958229246"><ele>378.0</ele><time>2026-04-07T08:16:21.999Z</time></trkpt><trkpt lat="44.235234212407185" lon="9.600710757506025"><ele>405.0</ele><time>2026-04-07T08:16:22.999Z</time></trkpt><trkpt lat="44.23500042638243" lon="9.600910626729783"><ele>405.0</ele><time>2026-04-07T08:16:23.999Z</time></trkpt><trkpt lat="44.23475995622453" lon="9.60111726565064"><ele>405.0</ele><time>2026-04-07T08:16:25.019Z</time></trkpt><trkpt lat="44.234522489559765" lon="9.601322177288521"><ele>402.5</ele><time>2026-04-07T08:16:26.016Z</time></trkpt><trkpt lat="44.234281665050545" lon="9.601529300337729"><ele>400.0</ele><time>2026-04-07T08:16:27.019Z</time></trkpt><trkpt lat="44.23404175945301" lon="9.601740287660705"><ele>387.5</ele><time>2026-04-07T08:16:28.015Z</time></trkpt><trkpt lat="44.23379939980574" lon="9.601953991421274"><ele>375.0</ele><time>2026-04-07T08:16:29.02Z</time></trkpt><trkpt lat="44.233011729125145" lon="9.60276215338111"><ele>362.5</ele><time>2026-04-07T08:16:32.999Z</time></trkpt><trkpt lat="44.232799808967506" lon="9.602989279680719"><ele>350.0</ele><time>2026-04-07T08:16:33.999Z</time></trkpt><trkpt lat="44.2325981100959" lon="9.603244227896912"><ele>350.0</ele><time>2026-04-07T08:16:35Z</time></trkpt><trkpt lat="44.232402881687236" lon="9.603488097584318"><ele>350.0</ele><time>2026-04-07T08:16:36Z</time></trkpt><trkpt lat="44.23221401457222" lon="9.603740591760504"><ele>353.5</ele><time>2026-04-07T08:16:37Z</time></trkpt><trkpt lat="44.23204944360883" lon="9.60400084946316"><ele>357.0</ele><time>2026-04-07T08:16:38Z</time></trkpt><trkpt lat="44.231866177362335" lon="9.604246100392793"><ele>345.0</ele><time>2026-04-07T08:16:39Z</time></trkpt><trkpt lat="44.23170747909248" lon="9.604498586737213"><ele>333.0</ele><time>2026-04-07T08:16:40Z</time></trkpt><trkpt lat="44.23155053573676" lon="9.604752422297313"><ele>329.0</ele><time>2026-04-07T08:16:41Z</time></trkpt><trkpt lat="44.23139519718673" lon="9.605004834387318"><ele>325.0</ele><time>2026-04-07T08:16:42Z</time></trkpt><trkpt lat="44.2312429964267" lon="9.605258288913406"><ele>318.0</ele><time>2026-04-07T08:16:43Z</time></trkpt><trkpt lat="44.23108731022004" lon="9.60552050087101"><ele>311.0</ele><time>2026-04-07T08:16:44Z</time></trkpt><trkpt lat="44.23093425513766" lon="9.605789649816506"><ele>311.0</ele><time>2026-04-07T08:16:45Z</time></trkpt><trkpt lat="44.230778804564544" lon="9.606064256825249"><ele>311.0</ele><time>2026-04-07T08:16:46Z</time></trkpt><trkpt lat="44.23062116323568" lon="9.606339170489196"><ele>316.0</ele><time>2026-04-07T08:16:47Z</time></trkpt><trkpt lat="44.23046176120828" lon="9.606612597534605"><ele>321.0</ele><time>2026-04-07T08:16:48Z</time></trkpt><trkpt lat="44.23029874442709" lon="9.606889320982397"><ele>326.5</ele><time>2026-04-07T08:16:49Z</time></trkpt><trkpt lat="44.230138000430536" lon="9.607165491545027"><ele>332.0</ele><time>2026-04-07T08:16:50Z</time></trkpt><trkpt lat="44.22997439680879" lon="9.607447572371054"><ele>332.0</ele><time>2026-04-07T08:16:51Z</time></trkpt><trkpt lat="44.22981051186676" lon="9.607730708954664"><ele>332.0</ele><time>2026-04-07T08:16:52Z</time></trkpt><trkpt lat="44.229644659063375" lon="9.608017650781488"><ele>329.0</ele><time>2026-04-07T08:16:53Z</time></trkpt><trkpt lat="44.22947643033572" lon="9.608309433300327"><ele>326.0</ele><time>2026-04-07T08:16:54Z</time></trkpt><trkpt lat="44.22930650124573" lon="9.608601688653215"><ele>319.5</ele><time>2026-04-07T08:16:55Z</time></trkpt><trkpt lat="44.229134223272744" lon="9.608897799789643"><ele>313.0</ele><time>2026-04-07T08:16:56Z</time></trkpt><trkpt lat="44.228961110107356" lon="9.60919453390939"><ele>323.0</ele><time>2026-04-07T08:16:57Z</time></trkpt><trkpt lat="44.22878802075678" lon="9.609496455554515"><ele>333.0</ele><time>2026-04-07T08:16:58Z</time></trkpt><trkpt lat="44.22862257745388" lon="9.609803063086403"><ele>333.0</ele><time>2026-04-07T08:16:59Z</time></trkpt><trkpt lat="44.22847904264721" lon="9.610096769938215"><ele>333.0</ele><time>2026-04-07T08:17:00Z</time></trkpt><trkpt lat="44.228347196501815" lon="9.61038844943252"><ele>351.0</ele><time>2026-04-07T08:17:01Z</time></trkpt><trkpt lat="44.22822137090331" lon="9.610691438706084"><ele>369.0</ele><time>2026-04-07T08:17:02Z</time></trkpt><trkpt lat="44.228092843508755" lon="9.61099958293818"><ele>396.5</ele><time>2026-04-07T08:17:03Z</time></trkpt><trkpt lat="44.22795596541236" lon="9.611304686206035"><ele>424.0</ele><time>2026-04-07T08:17:04.016Z</time></trkpt><trkpt lat="44.227824950748136" lon="9.611611201565506"><ele>424.0</ele><time>2026-04-07T08:17:05.014Z</time></trkpt><trkpt lat="44.22769444178048" lon="9.611922719360892"><ele>424.0</ele><time>2026-04-07T08:17:06.018Z</time></trkpt><trkpt lat="44.22756862732994" lon="9.612236343485149"><ele>421.5</ele><time>2026-04-07T08:17:07.02Z</time></trkpt><trkpt lat="44.227442600741604" lon="9.612548111029687"><ele>419.0</ele><time>2026-04-07T08:17:08.02Z</time></trkpt><trkpt lat="44.22764467079586" lon="9.616088708871617"><ele>363.0</ele><time>2026-04-07T08:17:17Z</time></trkpt><trkpt lat="44.22767776156675" lon="9.616461835308538"><ele>307.0</ele><time>2026-04-07T08:17:18Z</time></trkpt><trkpt lat="44.22774796641425" lon="9.616831324725325"><ele>311.5</ele><time>2026-04-07T08:17:19Z</time></trkpt><trkpt lat="44.227816263260614" lon="9.617198891065495"><ele>316.0</ele><time>2026-04-07T08:17:20Z</time></trkpt><trkpt lat="44.22791198791153" lon="9.617569028238393"><ele>331.0</ele><time>2026-04-07T08:17:21Z</time></trkpt><trkpt lat="44.228018031111745" lon="9.617938777114983"><ele>346.0</ele><time>2026-04-07T08:17:22Z</time></trkpt><trkpt lat="44.22812165068954" lon="9.618275847015337"><ele>331.0</ele><time>2026-04-07T08:17:23Z</time></trkpt><trkpt lat="44.228226698128275" lon="9.618610925051629"><ele>316.0</ele><time>2026-04-07T08:17:24Z</time></trkpt><trkpt lat="44.228335604767665" lon="9.618932081557638"><ele>316.0</ele><time>2026-04-07T08:17:25Z</time></trkpt><trkpt lat="44.22844377324728" lon="9.61926643634648"><ele>316.0</ele><time>2026-04-07T08:17:26Z</time></trkpt><trkpt lat="44.228549381440985" lon="9.61960305814296"><ele>318.5</ele><time>2026-04-07T08:17:27Z</time></trkpt><trkpt lat="44.22865432709844" lon="9.619938587828536"><ele>321.0</ele><time>2026-04-07T08:17:28Z</time></trkpt><trkpt lat="44.228761154471194" lon="9.620272104420442"><ele>329.5</ele><time>2026-04-07T08:17:29Z</time></trkpt><trkpt lat="44.22886041300615" lon="9.6206107376078"><ele>338.0</ele><time>2026-04-07T08:17:30Z</time></trkpt><trkpt lat="44.22895711467862" lon="9.62095509172438"><ele>317.0</ele><time>2026-04-07T08:17:31Z</time></trkpt><trkpt lat="44.229044283907385" lon="9.621308816976992"><ele>296.0</ele><time>2026-04-07T08:17:32Z</time></trkpt><trkpt lat="44.22912177594276" lon="9.621673289998983"><ele>298.0</ele><time>2026-04-07T08:17:33Z</time></trkpt><trkpt lat="44.22918436620667" lon="9.622040686674893"><ele>300.0</ele><time>2026-04-07T08:17:34Z</time></trkpt><trkpt lat="44.229240952267375" lon="9.622410345952364"><ele>300.0</ele><time>2026-04-07T08:17:35Z</time></trkpt><trkpt lat="44.2292949530799" lon="9.622785335068492"><ele>300.0</ele><time>2026-04-07T08:17:36Z</time></trkpt><trkpt lat="44.229326975244646" lon="9.623167827907"><ele>295.0</ele><time>2026-04-07T08:17:37Z</time></trkpt><trkpt lat="44.22935048947218" lon="9.623555465266874"><ele>290.0</ele><time>2026-04-07T08:17:38Z</time></trkpt><trkpt lat="44.22937426886684" lon="9.623931776691936"><ele>290.0</ele><time>2026-04-07T08:17:39Z</time></trkpt><trkpt lat="44.22938103815428" lon="9.624320173181916"><ele>290.0</ele><time>2026-04-07T08:17:40Z</time></trkpt><trkpt lat="44.229387897451254" lon="9.624708124642977"><ele>298.5</ele><time>2026-04-07T08:17:41Z</time></trkpt><trkpt lat="44.22939515192054" lon="9.625095566024305"><ele>307.0</ele><time>2026-04-07T08:17:42Z</time></trkpt><trkpt lat="44.22939333394418" lon="9.625483347667178"><ele>311.0</ele><time>2026-04-07T08:17:43Z</time></trkpt><trkpt lat="44.22941911301496" lon="9.625874521012475"><ele>315.0</ele><time>2026-04-07T08:17:44Z</time></trkpt><trkpt lat="44.22946160385686" lon="9.626261796599973"><ele>316.5</ele><time>2026-04-07T08:17:44.999Z</time></trkpt><trkpt lat="44.2295153094721" lon="9.62664525752075"><ele>318.0</ele><time>2026-04-07T08:17:45.999Z</time></trkpt><trkpt lat="44.2295771173735" lon="9.627028287357351"><ele>322.0</ele><time>2026-04-07T08:17:46.999Z</time></trkpt><trkpt lat="44.22964844387508" lon="9.627403068244673"><ele>326.0</ele><time>2026-04-07T08:17:47.999Z</time></trkpt><trkpt lat="44.22973326193237" lon="9.627776482497659"><ele>303.0</ele><time>2026-04-07T08:17:48.999Z</time></trkpt><trkpt lat="44.22983356338672" lon="9.628147527898522"><ele>280.0</ele><time>2026-04-07T08:17:49.999Z</time></trkpt><trkpt lat="44.2299497506166" lon="9.628512255402553"><ele>285.5</ele><time>2026-04-07T08:17:50.999Z</time></trkpt><trkpt lat="44.23006927657696" lon="9.628866381856783"><ele>291.0</ele><time>2026-04-07T08:17:51.999Z</time></trkpt><trkpt lat="44.23019806753689" lon="9.629215309977113"><ele>298.0</ele><time>2026-04-07T08:17:52.999Z</time></trkpt><trkpt lat="44.23032966577365" lon="9.629560076557084"><ele>305.0</ele><time>2026-04-07T08:17:53.999Z</time></trkpt><trkpt lat="44.23046856534973" lon="9.629899924662555"><ele>305.0</ele><time>2026-04-07T08:17:54.999Z</time></trkpt><trkpt lat="44.23059762205054" lon="9.630220432310322"><ele>305.0</ele><time>2026-04-07T08:17:55.999Z</time></trkpt><trkpt lat="44.23072052451075" lon="9.630541922025277"><ele>303.0</ele><time>2026-04-07T08:17:56.999Z</time></trkpt><trkpt lat="44.23085127909876" lon="9.63087227567653"><ele>301.0</ele><time>2026-04-07T08:17:57.999Z</time></trkpt><trkpt lat="44.23099262560843" lon="9.631210688381088"><ele>301.0</ele><time>2026-04-07T08:17:58.999Z</time></trkpt><trkpt lat="44.23113757816269" lon="9.631559892960242"><ele>301.0</ele><time>2026-04-07T08:17:59.999Z</time></trkpt><trkpt lat="44.2312788408275" lon="9.631897145970605"><ele>308.5</ele><time>2026-04-07T08:18:00.999Z</time></trkpt><trkpt lat="44.23140506602717" lon="9.632213634045739"><ele>316.0</ele><time>2026-04-07T08:18:01.999Z</time></trkpt><trkpt lat="44.231530146088964" lon="9.632548038301964"><ele>296.5</ele><time>2026-04-07T08:18:02.999Z</time></trkpt><trkpt lat="44.231656911653985" lon="9.632911725215774"><ele>277.0</ele><time>2026-04-07T08:18:03.999Z</time></trkpt><trkpt lat="44.23178168078519" lon="9.633276580502162"><ele>280.5</ele><time>2026-04-07T08:18:04.999Z</time></trkpt><trkpt lat="44.23190691472774" lon="9.633658469695481"><ele>284.0</ele><time>2026-04-07T08:18:05.999Z</time></trkpt><trkpt lat="44.23202887523657" lon="9.63404457627847"><ele>284.0</ele><time>2026-04-07T08:18:06.999Z</time></trkpt><trkpt lat="44.2321501684746" lon="9.634436261796036"><ele>284.0</ele><time>2026-04-07T08:18:07.999Z</time></trkpt><trkpt lat="44.232261372349214" lon="9.63483815622667"><ele>275.0</ele><time>2026-04-07T08:18:08.999Z</time></trkpt><trkpt lat="44.23236236264102" lon="9.635243259111137"><ele>266.0</ele><time>2026-04-07T08:18:09.999Z</time></trkpt><trkpt lat="44.23246154454282" lon="9.635650480927632"><ele>266.0</ele><time>2026-04-07T08:18:10.999Z</time></trkpt><trkpt lat="44.232565903908615" lon="9.636058653758864"><ele>266.0</ele><time>2026-04-07T08:18:11.999Z</time></trkpt><trkpt lat="44.23265454427325" lon="9.636445246538157"><ele>266.0</ele><time>2026-04-07T08:18:12.999Z</time></trkpt><trkpt lat="44.232732186072795" lon="9.636818461701942"><ele>266.0</ele><time>2026-04-07T08:18:13.999Z</time></trkpt><trkpt lat="44.23281018947398" lon="9.63719834877512"><ele>262.0</ele><time>2026-04-07T08:18:14.999Z</time></trkpt><trkpt lat="44.23287891723747" lon="9.63757612159919"><ele>258.0</ele><time>2026-04-07T08:18:15.999Z</time></trkpt><trkpt lat="44.232944934206884" lon="9.637953786755572"><ele>249.0</ele><time>2026-04-07T08:18:16.999Z</time></trkpt><trkpt lat="44.23300764007042" lon="9.63831494373008"><ele>240.0</ele><time>2026-04-07T08:18:17.999Z</time></trkpt><trkpt lat="44.23306629611673" lon="9.638672232777926"><ele>230.0</ele><time>2026-04-07T08:18:18.999Z</time></trkpt><trkpt lat="44.23313510191633" lon="9.639034194595167"><ele>220.0</ele><time>2026-04-07T08:18:19.999Z</time></trkpt><trkpt lat="44.23320533287015" lon="9.639398387980135"><ele>214.0</ele><time>2026-04-07T08:18:20.999Z</time></trkpt><trkpt lat="44.233276352228884" lon="9.639760598919462"><ele>208.0</ele><time>2026-04-07T08:18:21.999Z</time></trkpt><trkpt lat="44.23335146086024" lon="9.64012108195887"><ele>206.5</ele><time>2026-04-07T08:18:22.999Z</time></trkpt><trkpt lat="44.233435326176306" lon="9.640483841509262"><ele>205.0</ele><time>2026-04-07T08:18:23.999Z</time></trkpt><trkpt lat="44.23352593143787" lon="9.640847491576238"><ele>213.0</ele><time>2026-04-07T08:18:24.999Z</time></trkpt><trkpt lat="44.23361974165606" lon="9.641216454269475"><ele>221.0</ele><time>2026-04-07T08:18:25.999Z</time></trkpt><trkpt lat="44.23371910706672" lon="9.641586726518755"><ele>221.0</ele><time>2026-04-07T08:18:26.999Z</time></trkpt><trkpt lat="44.23382552121794" lon="9.641960428684039"><ele>221.0</ele><time>2026-04-07T08:18:27.999Z</time></trkpt><trkpt lat="44.23393361595803" lon="9.642331850639746"><ele>224.0</ele><time>2026-04-07T08:18:28.999Z</time></trkpt><trkpt lat="44.23404649746838" lon="9.642703502993308"><ele>227.0</ele><time>2026-04-07T08:18:29.999Z</time></trkpt><trkpt lat="44.23416730972167" lon="9.643081079175262"><ele>237.0</ele><time>2026-04-07T08:18:30.999Z</time></trkpt><trkpt lat="44.23429084528547" lon="9.643452836605409"><ele>247.0</ele><time>2026-04-07T08:18:31.999Z</time></trkpt><trkpt lat="44.234416272453046" lon="9.643819314295829"><ele>266.5</ele><time>2026-04-07T08:18:32.999Z</time></trkpt><trkpt lat="44.234542385286" lon="9.644184770801148"><ele>286.0</ele><time>2026-04-07T08:18:33.999Z</time></trkpt><trkpt lat="44.23466825447611" lon="9.64455038519648"><ele>300.5</ele><time>2026-04-07T08:18:35.016Z</time></trkpt><trkpt lat="44.23478738716243" lon="9.644905096550147"><ele>315.0</ele><time>2026-04-07T08:18:36.015Z</time></trkpt><trkpt lat="44.234919642785364" lon="9.645273997161159"><ele>321.0</ele><time>2026-04-07T08:18:37.016Z</time></trkpt><trkpt lat="44.23503566412935" lon="9.645623575585422"><ele>327.0</ele><time>2026-04-07T08:18:38.016Z</time></trkpt><trkpt lat="44.23515117158907" lon="9.64596562831506"><ele>312.5</ele><time>2026-04-07T08:18:39.018Z</time></trkpt><trkpt lat="44.23526743112896" lon="9.646321527178237"><ele>298.0</ele><time>2026-04-07T08:18:40.019Z</time></trkpt><trkpt lat="44.23538721341854" lon="9.64668261887991"><ele>234.0</ele><time>2026-04-07T08:18:41.021Z</time></trkpt><trkpt lat="44.235786306712995" lon="9.64766602032785"><ele>235.33333333333331</ele><time>2026-04-07T08:18:43.999Z</time></trkpt><trkpt lat="44.23590015932991" lon="9.648006229347278"><ele>236.66666666666666</ele><time>2026-04-07T08:18:44.999Z</time></trkpt><trkpt lat="44.23588039191202" lon="9.648120055579069"><ele>238.0</ele><time>2026-04-07T08:18:45.999Z</time></trkpt><trkpt lat="44.235938725258656" lon="9.64840866147594"><ele>238.5</ele><time>2026-04-07T08:18:46.999Z</time></trkpt><trkpt lat="44.23599160611916" lon="9.648747668522578"><ele>239.0</ele><time>2026-04-07T08:18:47.999Z</time></trkpt><trkpt lat="44.23603535801736" lon="9.649073467659445"><ele>239.0</ele><time>2026-04-07T08:18:48.999Z</time></trkpt><trkpt lat="44.23604630959087" lon="9.649428737844945"><ele>239.0</ele><time>2026-04-07T08:18:50Z</time></trkpt><trkpt lat="44.236037708568624" lon="9.649792997274654"><ele>238.0</ele><time>2026-04-07T08:18:51Z</time></trkpt><trkpt lat="44.236027998323976" lon="9.65015736137412"><ele>237.0</ele><time>2026-04-07T08:18:52Z</time></trkpt><trkpt lat="44.236002808824004" lon="9.650534529672836"><ele>231.0</ele><time>2026-04-07T08:18:53Z</time></trkpt><trkpt lat="44.235970017818346" lon="9.65091796056207"><ele>225.0</ele><time>2026-04-07T08:18:54Z</time></trkpt><trkpt lat="44.23592397439517" lon="9.651296628683507"><ele>222.5</ele><time>2026-04-07T08:18:55Z</time></trkpt><trkpt lat="44.235868199906655" lon="9.65166769829632"><ele>220.0</ele><time>2026-04-07T08:18:56Z</time></trkpt><trkpt lat="44.23580744704959" lon="9.652045856811057"><ele>217.0</ele><time>2026-04-07T08:18:57Z</time></trkpt><trkpt lat="44.23574462193551" lon="9.652423622781527"><ele>214.0</ele><time>2026-04-07T08:18:58Z</time></trkpt><trkpt lat="44.235680286402676" lon="9.65280035330642"><ele>229.5</ele><time>2026-04-07T08:18:59Z</time></trkpt><trkpt lat="44.23562034971812" lon="9.653181100952088"><ele>245.0</ele><time>2026-04-07T08:19:00Z</time></trkpt><trkpt lat="44.23556119737835" lon="9.653538850917185"><ele>241.0</ele><time>2026-04-07T08:19:01Z</time></trkpt><trkpt lat="44.23550848835344" lon="9.653880482998982"><ele>237.0</ele><time>2026-04-07T08:19:02Z</time></trkpt><trkpt lat="44.235460894628986" lon="9.654221887733893"><ele>238.5</ele><time>2026-04-07T08:19:03Z</time></trkpt><trkpt lat="44.235420242968736" lon="9.654568343383344"><ele>240.0</ele><time>2026-04-07T08:19:04Z</time></trkpt><trkpt lat="44.2353879866973" lon="9.654907168842579"><ele>240.0</ele><time>2026-04-07T08:19:05Z</time></trkpt><trkpt lat="44.2353605988384" lon="9.655255226436285"><ele>240.0</ele><time>2026-04-07T08:19:06Z</time></trkpt><trkpt lat="44.23535915340516" lon="9.655595627428038"><ele>251.5</ele><time>2026-04-07T08:19:07Z</time></trkpt><trkpt lat="44.2353613450766" lon="9.655929836038935"><ele>263.0</ele><time>2026-04-07T08:19:08Z</time></trkpt><trkpt lat="44.23536711690287" lon="9.656273350400854"><ele>271.5</ele><time>2026-04-07T08:19:09.021Z</time></trkpt><trkpt lat="44.23537273928771" lon="9.656610902023782"><ele>280.0</ele><time>2026-04-07T08:19:10.019Z</time></trkpt><trkpt lat="44.235382455248335" lon="9.65695400642095"><ele>281.0</ele><time>2026-04-07T08:19:11.02Z</time></trkpt><trkpt lat="44.23538379802288" lon="9.657292752113133"><ele>282.0</ele><time>2026-04-07T08:19:12.02Z</time></trkpt><trkpt lat="44.23538183991984" lon="9.657627203254954"><ele>282.0</ele><time>2026-04-07T08:19:13.015Z</time></trkpt><trkpt lat="44.235365" lon="9.6569824"><ele>227.0</ele><time>2026-04-07T08:19:16.344Z</time></trkpt><trkpt lat="44.236340140965055" lon="9.66158987023836"><ele>227.0</ele><time>2026-04-07T08:19:24Z</time></trkpt><trkpt lat="44.236457304644276" lon="9.66190397116579"><ele>227.0</ele><time>2026-04-07T08:19:25Z</time></trkpt><trkpt lat="44.236571316576004" lon="9.662209279789947"><ele>213.0</ele><time>2026-04-07T08:19:26Z</time></trkpt><trkpt lat="44.23669229009906" lon="9.662520930614706"><ele>199.0</ele><time>2026-04-07T08:19:27Z</time></trkpt><trkpt lat="44.23681606592859" lon="9.662829720726867"><ele>198.0</ele><time>2026-04-07T08:19:28Z</time></trkpt><trkpt lat="44.23694015999066" lon="9.66314052231474"><ele>197.0</ele><time>2026-04-07T08:19:29Z</time></trkpt><trkpt lat="44.23706683470952" lon="9.663453761658067"><ele>198.0</ele><time>2026-04-07T08:19:30Z</time></trkpt><trkpt lat="44.23719135780667" lon="9.663766475700227"><ele>199.0</ele><time>2026-04-07T08:19:31Z</time></trkpt><trkpt lat="44.237317140632804" lon="9.664074074440519"><ele>199.0</ele><time>2026-04-07T08:19:32Z</time></trkpt><trkpt lat="44.237440312735885" lon="9.66438400883618"><ele>199.0</ele><time>2026-04-07T08:19:33Z</time></trkpt><trkpt lat="44.23756515131918" lon="9.664692503733969"><ele>206.5</ele><time>2026-04-07T08:19:34Z</time></trkpt><trkpt lat="44.237686940413276" lon="9.66500192266066"><ele>214.0</ele><time>2026-04-07T08:19:35Z</time></trkpt><trkpt lat="44.23779445887584" lon="9.665311083942568"><ele>220.5</ele><time>2026-04-07T08:19:36Z</time></trkpt><trkpt lat="44.23789413083135" lon="9.665632573091777"><ele>227.0</ele><time>2026-04-07T08:19:37Z</time></trkpt><trkpt lat="44.237980848650544" lon="9.665945275864683"><ele>236.0</ele><time>2026-04-07T08:19:38Z</time></trkpt><trkpt lat="44.23805625866787" lon="9.666246864769976"><ele>245.0</ele><time>2026-04-07T08:19:39Z</time></trkpt><trkpt lat="44.23812521512258" lon="9.666556664440687"><ele>232.5</ele><time>2026-04-07T08:19:40Z</time></trkpt><trkpt lat="44.238192160948685" lon="9.666880894010495"><ele>220.0</ele><time>2026-04-07T08:19:41Z</time></trkpt><trkpt lat="44.23825998033713" lon="9.66722417357339"><ele>220.0</ele><time>2026-04-07T08:19:42Z</time></trkpt><trkpt lat="44.23831469550165" lon="9.667574766227714"><ele>220.0</ele><time>2026-04-07T08:19:43Z</time></trkpt><trkpt lat="44.238355708386734" lon="9.66792834079334"><ele>229.5</ele><time>2026-04-07T08:19:44Z</time></trkpt><trkpt lat="44.23838847627697" lon="9.668256333437016"><ele>239.0</ele><time>2026-04-07T08:19:45Z</time></trkpt><trkpt lat="44.238424702636834" lon="9.668560501595465"><ele>248.66666666666669</ele><time>2026-04-07T08:19:46Z</time></trkpt><trkpt lat="44.2384462483439" lon="9.6688667292602"><ele>258.3333333333333</ele><time>2026-04-07T08:19:47.021Z</time></trkpt><trkpt lat="44.238476817186644" lon="9.669172349784535"><ele>268.0</ele><time>2026-04-07T08:19:48.019Z</time></trkpt><trkpt lat="44.238505900384965" lon="9.669475600268193"><ele>249.5</ele><time>2026-04-07T08:19:49.019Z</time></trkpt><trkpt lat="44.23853313730312" lon="9.66977717505317"><ele>231.0</ele><time>2026-04-07T08:19:50.019Z</time></trkpt><trkpt lat="44.23956755087174" lon="9.678448559725357"><ele>240.0</ele><time>2026-04-07T08:20:13.999Z</time></trkpt><trkpt lat="44.239688981778315" lon="9.678805693178568"><ele>249.0</ele><time>2026-04-07T08:20:14.999Z</time></trkpt><trkpt lat="44.23978130277986" lon="9.67916300720741"><ele>231.5</ele><time>2026-04-07T08:20:15.999Z</time></trkpt><trkpt lat="44.2398921593265" lon="9.6795287480602"><ele>214.0</ele><time>2026-04-07T08:20:16.999Z</time></trkpt><trkpt lat="44.23999672817227" lon="9.679912728249489"><ele>215.5</ele><time>2026-04-07T08:20:17.999Z</time></trkpt><trkpt lat="44.24011729316829" lon="9.680302545240316"><ele>217.0</ele><time>2026-04-07T08:20:18.999Z</time></trkpt><trkpt lat="44.24020202578044" lon="9.680665014357755"><ele>217.0</ele><time>2026-04-07T08:20:19.999Z</time></trkpt><trkpt lat="44.24028861094562" lon="9.681037428972292"><ele>217.0</ele><time>2026-04-07T08:20:20.999Z</time></trkpt><trkpt lat="44.240366252597475" lon="9.681419735402491"><ele>217.0</ele><time>2026-04-07T08:20:21.999Z</time></trkpt><trkpt lat="44.24043398023864" lon="9.681809706450139"><ele>217.0</ele><time>2026-04-07T08:20:22.999Z</time></trkpt><trkpt lat="44.2405022520829" lon="9.682200376804367"><ele>219.5</ele><time>2026-04-07T08:20:23.999Z</time></trkpt><trkpt lat="44.2405658842668" lon="9.682591928208986"><ele>222.0</ele><time>2026-04-07T08:20:24.999Z</time></trkpt><trkpt lat="44.24062486417199" lon="9.682974857110144"><ele>211.0</ele><time>2026-04-07T08:20:25.999Z</time></trkpt><trkpt lat="44.24069419996022" lon="9.683362789756266"><ele>200.0</ele><time>2026-04-07T08:20:26.999Z</time></trkpt><trkpt lat="44.24075268925957" lon="9.683703499158268"><ele>200.0</ele><time>2026-04-07T08:20:27.999Z</time></trkpt><trkpt lat="44.24081062162606" lon="9.68401023825578"><ele>200.0</ele><time>2026-04-07T08:20:28.999Z</time></trkpt><trkpt lat="44.24086167324194" lon="9.684311254700111"><ele>200.0</ele><time>2026-04-07T08:20:29.999Z</time></trkpt><trkpt lat="44.240909666131316" lon="9.684603560546147"><ele>200.66666666666669</ele><time>2026-04-07T08:20:30.999Z</time></trkpt><trkpt lat="44.240945175799226" lon="9.684891177778573"><ele>201.33333333333331</ele><time>2026-04-07T08:20:31.999Z</time></trkpt><trkpt lat="44.240969634292476" lon="9.685186526665083"><ele>202.0</ele><time>2026-04-07T08:20:32.999Z</time></trkpt><trkpt lat="44.24098546791359" lon="9.685490169283902"><ele>208.33333333333331</ele><time>2026-04-07T08:20:33.999Z</time></trkpt><trkpt lat="44.24100267610823" lon="9.685799655174147"><ele>214.66666666666669</ele><time>2026-04-07T08:20:34.999Z</time></trkpt><trkpt lat="44.241013016928044" lon="9.686108365867268"><ele>221.0</ele><time>2026-04-07T08:20:35.999Z</time></trkpt><trkpt lat="44.24102339921398" lon="9.686419264084606"><ele>229.33333333333334</ele><time>2026-04-07T08:20:37.017Z</time></trkpt><trkpt lat="44.2410336557707" lon="9.686723212383058"><ele>237.66666666666669</ele><time>2026-04-07T08:20:38.019Z</time></trkpt><trkpt lat="44.240994157036745" lon="9.687018442285732"><ele>246.0</ele><time>2026-04-07T08:20:39.018Z</time></trkpt><trkpt lat="44.24095184875097" lon="9.687295356362414"><ele>245.5</ele><time>2026-04-07T08:20:40.018Z</time></trkpt><trkpt lat="44.24089973544876" lon="9.687567453016428"><ele>245.0</ele><time>2026-04-07T08:20:41.019Z</time></trkpt><trkpt lat="44.23988669753001" lon="9.690013231125615"><ele>242.0</ele><time>2026-04-07T08:20:44.343Z</time></trkpt><trkpt lat="44.23937009331831" lon="9.691038251297837"><ele>210.0</ele><time>2026-04-07T08:20:45.343Z</time></trkpt><trkpt lat="44.23885012717202" lon="9.692059997513095"><ele>186.0</ele><time>2026-04-07T08:20:46.343Z</time></trkpt><trkpt lat="44.23820553351588" lon="9.69336189330527"><ele>191.5</ele><time>2026-04-07T08:20:58.999Z</time></trkpt><trkpt lat="44.238058452349335" lon="9.693644937544265"><ele>197.0</ele><time>2026-04-07T08:20:59.999Z</time></trkpt><trkpt lat="44.23793727725195" lon="9.693934705197767"><ele>197.0</ele><time>2026-04-07T08:21:00.999Z</time></trkpt><trkpt lat="44.23779005249222" lon="9.69422285747145"><ele>197.0</ele><time>2026-04-07T08:21:01.999Z</time></trkpt><trkpt lat="44.23766439410299" lon="9.694526848960168"><ele>189.0</ele><time>2026-04-07T08:21:02.999Z</time></trkpt><trkpt lat="44.23755425720069" lon="9.694851400302644"><ele>181.0</ele><time>2026-04-07T08:21:03.999Z</time></trkpt><trkpt lat="44.237450739606615" lon="9.695188355451624"><ele>178.5</ele><time>2026-04-07T08:21:05Z</time></trkpt><trkpt lat="44.23736887706025" lon="9.695526711283723"><ele>176.0</ele><time>2026-04-07T08:21:06Z</time></trkpt><trkpt lat="44.23730174035363" lon="9.695864823099372"><ele>197.5</ele><time>2026-04-07T08:21:07Z</time></trkpt><trkpt lat="44.23724615899315" lon="9.696209341399339"><ele>219.0</ele><time>2026-04-07T08:21:08Z</time></trkpt><trkpt lat="44.23720104386182" lon="9.696561095332259"><ele>219.0</ele><time>2026-04-07T08:21:09Z</time></trkpt><trkpt lat="44.23717685173224" lon="9.696916592964069"><ele>219.0</ele><time>2026-04-07T08:21:10Z</time></trkpt><trkpt lat="44.237166548638264" lon="9.69728338320164"><ele>217.0</ele><time>2026-04-07T08:21:11Z</time></trkpt><trkpt lat="44.237173027842026" lon="9.697662499851987"><ele>215.0</ele><time>2026-04-07T08:21:12Z</time></trkpt><trkpt lat="44.23719316251035" lon="9.698041228633935"><ele>213.5</ele><time>2026-04-07T08:21:13Z</time></trkpt><trkpt lat="44.237224096010664" lon="9.698423876512376"><ele>212.0</ele><time>2026-04-07T08:21:14Z</time></trkpt><trkpt lat="44.23725796641029" lon="9.698803375473096"><ele>212.0</ele><time>2026-04-07T08:21:15Z</time></trkpt><trkpt lat="44.237289231850106" lon="9.69918327081117"><ele>212.0</ele><time>2026-04-07T08:21:16Z</time></trkpt><trkpt lat="44.237313771760384" lon="9.699561650601341"><ele>212.0</ele><time>2026-04-07T08:21:17.016Z</time></trkpt><trkpt lat="44.23733136088707" lon="9.699915140462572"><ele>212.0</ele><time>2026-04-07T08:21:18.019Z</time></trkpt><trkpt lat="44.23735496993442" lon="9.700281810083764"><ele>215.5</ele><time>2026-04-07T08:21:19.018Z</time></trkpt><trkpt lat="44.237381198198904" lon="9.700649836708044"><ele>219.0</ele><time>2026-04-07T08:21:20.02Z</time></trkpt><trkpt lat="44.23737569787083" lon="9.704687036956303"><ele>179.0</ele><time>2026-04-07T08:21:24.343Z</time></trkpt><trkpt lat="44.23716927093818" lon="9.705905423103179"><ele>144.0</ele><time>2026-04-07T08:21:25.343Z</time></trkpt><trkpt lat="44.23691635489858" lon="9.707382135102252"><ele>144.0</ele><time>2026-04-07T08:21:38Z</time></trkpt><trkpt lat="44.236853495464686" lon="9.707722316418137"><ele>144.0</ele><time>2026-04-07T08:21:39Z</time></trkpt><trkpt lat="44.236770420590624" lon="9.70805718144621"><ele>139.5</ele><time>2026-04-07T08:21:40Z</time></trkpt><trkpt lat="44.23671432140809" lon="9.708404749077005"><ele>135.0</ele><time>2026-04-07T08:21:41Z</time></trkpt><trkpt lat="44.23665724489551" lon="9.708753048460599"><ele>128.5</ele><time>2026-04-07T08:21:42Z</time></trkpt><trkpt lat="44.236592888603546" lon="9.709107848852382"><ele>122.0</ele><time>2026-04-07T08:21:43Z</time></trkpt><trkpt lat="44.23653257400421" lon="9.70946345735309"><ele>118.0</ele><time>2026-04-07T08:21:44Z</time></trkpt><trkpt lat="44.23647169454543" lon="9.709820665534119"><ele>114.0</ele><time>2026-04-07T08:21:45Z</time></trkpt><trkpt lat="44.23641115761609" lon="9.710179881980682"><ele>109.5</ele><time>2026-04-07T08:21:46Z</time></trkpt><trkpt lat="44.236348631617794" lon="9.710542393972203"><ele>105.0</ele><time>2026-04-07T08:21:47Z</time></trkpt><trkpt lat="44.23628718373184" lon="9.71090541890173"><ele>107.0</ele><time>2026-04-07T08:21:48Z</time></trkpt><trkpt lat="44.23622357345217" lon="9.711270547643567"><ele>109.0</ele><time>2026-04-07T08:21:49Z</time></trkpt><trkpt lat="44.23615336132908" lon="9.711635589482778"><ele>112.5</ele><time>2026-04-07T08:21:50Z</time></trkpt><trkpt lat="44.23607526681059" lon="9.711994391846671"><ele>116.0</ele><time>2026-04-07T08:21:51Z</time></trkpt><trkpt lat="44.23599460410993" lon="9.712329074225968"><ele>116.0</ele><time>2026-04-07T08:21:52Z</time></trkpt><trkpt lat="44.23590734806701" lon="9.712651218536672"><ele>116.0</ele><time>2026-04-07T08:21:53Z</time></trkpt><trkpt lat="44.23581395994473" lon="9.712974208826571"><ele>118.0</ele><time>2026-04-07T08:21:54Z</time></trkpt><trkpt lat="44.235716230145535" lon="9.713289535910711"><ele>120.0</ele><time>2026-04-07T08:21:55Z</time></trkpt><trkpt lat="44.235616031937155" lon="9.713604215403803"><ele>120.0</ele><time>2026-04-07T08:21:56Z</time></trkpt><trkpt lat="44.23551425403659" lon="9.713911560472894"><ele>120.0</ele><time>2026-04-07T08:21:57Z</time></trkpt><trkpt lat="44.235407552185855" lon="9.714212268678732"><ele>120.0</ele><time>2026-04-07T08:21:58Z</time></trkpt><trkpt lat="44.23529324521199" lon="9.71451628030734"><ele>120.0</ele><time>2026-04-07T08:21:59Z</time></trkpt><trkpt lat="44.23516979146619" lon="9.714824051052966"><ele>120.0</ele><time>2026-04-07T08:22:00Z</time></trkpt><trkpt lat="44.235037084097364" lon="9.71513547819472"><ele>120.0</ele><time>2026-04-07T08:22:01Z</time></trkpt><trkpt lat="44.23490049248967" lon="9.715446911602086"><ele>117.0</ele><time>2026-04-07T08:22:02Z</time></trkpt><trkpt lat="44.234752728441016" lon="9.715758686693233"><ele>114.0</ele><time>2026-04-07T08:22:03Z</time></trkpt><trkpt lat="44.23459512941923" lon="9.716070616057284"><ele>111.5</ele><time>2026-04-07T08:22:04Z</time></trkpt><trkpt lat="44.23442963875997" lon="9.716384733285969"><ele>109.0</ele><time>2026-04-07T08:22:05Z</time></trkpt><trkpt lat="44.23425663693169" lon="9.71670157328902"><ele>109.0</ele><time>2026-04-07T08:22:06Z</time></trkpt><trkpt lat="44.23408897745665" lon="9.71698804598842"><ele>109.0</ele><time>2026-04-07T08:22:07Z</time></trkpt><trkpt lat="44.23393241332402" lon="9.717264393222607"><ele>108.5</ele><time>2026-04-07T08:22:08Z</time></trkpt><trkpt lat="44.233771100440975" lon="9.717541182045958"><ele>108.0</ele><time>2026-04-07T08:22:09Z</time></trkpt><trkpt lat="44.2336091516915" lon="9.717825067551201"><ele>108.0</ele><time>2026-04-07T08:22:10Z</time></trkpt><trkpt lat="44.23344734377144" lon="9.718110884278673"><ele>108.0</ele><time>2026-04-07T08:22:11Z</time></trkpt><trkpt lat="44.233285259289275" lon="9.718400372960348"><ele>106.5</ele><time>2026-04-07T08:22:12Z</time></trkpt><trkpt lat="44.23311886277106" lon="9.718692171157961"><ele>105.0</ele><time>2026-04-07T08:22:13Z</time></trkpt><trkpt lat="44.232950665321056" lon="9.718984376458678"><ele>105.0</ele><time>2026-04-07T08:22:14Z</time></trkpt><trkpt lat="44.23278424714018" lon="9.719278254501294"><ele>105.0</ele><time>2026-04-07T08:22:15Z</time></trkpt><trkpt lat="44.232614804178525" lon="9.719575846446535"><ele>105.0</ele><time>2026-04-07T08:22:16Z</time></trkpt><trkpt lat="44.23244637132877" lon="9.719873276587174"><ele>105.0</ele><time>2026-04-07T08:22:17Z</time></trkpt><trkpt lat="44.232277055545715" lon="9.720169737931029"><ele>103.5</ele><time>2026-04-07T08:22:18Z</time></trkpt><trkpt lat="44.232107245816714" lon="9.720467345686481"><ele>102.0</ele><time>2026-04-07T08:22:19Z</time></trkpt><trkpt lat="44.23193771265863" lon="9.720771383919178"><ele>102.0</ele><time>2026-04-07T08:22:20Z</time></trkpt><trkpt lat="44.23177185212297" lon="9.721073596323066"><ele>102.0</ele><time>2026-04-07T08:22:21Z</time></trkpt><trkpt lat="44.23160449303594" lon="9.721371493977806"><ele>102.0</ele><time>2026-04-07T08:22:21.999Z</time></trkpt><trkpt lat="44.2314339435649" lon="9.721668667575907"><ele>102.0</ele><time>2026-04-07T08:22:22.999Z</time></trkpt><trkpt lat="44.23126461603983" lon="9.72196286729828"><ele>101.5</ele><time>2026-04-07T08:22:23.999Z</time></trkpt><trkpt lat="44.23109632365615" lon="9.72225571611462"><ele>101.0</ele><time>2026-04-07T08:22:24.999Z</time></trkpt><trkpt lat="44.230928196423065" lon="9.722546849575913"><ele>101.5</ele><time>2026-04-07T08:22:25.999Z</time></trkpt><trkpt lat="44.23076119369515" lon="9.722841337335872"><ele>102.0</ele><time>2026-04-07T08:22:26.999Z</time></trkpt><trkpt lat="44.2305974442459" lon="9.723133385975737"><ele>102.0</ele><time>2026-04-07T08:22:27.999Z</time></trkpt><trkpt lat="44.23043294392541" lon="9.72342485408601"><ele>102.0</ele><time>2026-04-07T08:22:28.999Z</time></trkpt><trkpt lat="44.230265082394716" lon="9.72371991555163"><ele>102.0</ele><time>2026-04-07T08:22:29.999Z</time></trkpt><trkpt lat="44.23009704627506" lon="9.7240133375502"><ele>102.0</ele><time>2026-04-07T08:22:30.999Z</time></trkpt><trkpt lat="44.22992989670682" lon="9.72430735391303"><ele>102.0</ele><time>2026-04-07T08:22:31.999Z</time></trkpt><trkpt lat="44.229763016425416" lon="9.72459711314818"><ele>102.0</ele><time>2026-04-07T08:22:32.999Z</time></trkpt><trkpt lat="44.22959648669478" lon="9.724886331153828"><ele>102.0</ele><time>2026-04-07T08:22:33.999Z</time></trkpt><trkpt lat="44.22942980586992" lon="9.725176210651687"><ele>102.0</ele><time>2026-04-07T08:22:34.999Z</time></trkpt><trkpt lat="44.229264896539405" lon="9.725465783005898"><ele>102.0</ele><time>2026-04-07T08:22:35.999Z</time></trkpt><trkpt lat="44.22910480974722" lon="9.725750770647648"><ele>102.0</ele><time>2026-04-07T08:22:36.999Z</time></trkpt><trkpt lat="44.228944141366725" lon="9.726037104252118"><ele>102.5</ele><time>2026-04-07T08:22:37.999Z</time></trkpt><trkpt lat="44.2287838959593" lon="9.726320985525776"><ele>103.0</ele><time>2026-04-07T08:22:38.999Z</time></trkpt><trkpt lat="44.22862372403805" lon="9.726603074248208"><ele>103.0</ele><time>2026-04-07T08:22:39.999Z</time></trkpt><trkpt lat="44.228464929163735" lon="9.726883111420419"><ele>103.0</ele><time>2026-04-07T08:22:40.999Z</time></trkpt><trkpt lat="44.22830454884042" lon="9.727164061198323"><ele>103.5</ele><time>2026-04-07T08:22:41.999Z</time></trkpt><trkpt lat="44.22814596706127" lon="9.72744420964362"><ele>104.0</ele><time>2026-04-07T08:22:42.999Z</time></trkpt><trkpt lat="44.227985699386785" lon="9.7277262935499"><ele>103.0</ele><time>2026-04-07T08:22:43.999Z</time></trkpt><trkpt lat="44.2278289479641" lon="9.728006251337481"><ele>102.0</ele><time>2026-04-07T08:22:44.999Z</time></trkpt><trkpt lat="44.22766919393637" lon="9.728284122382668"><ele>102.5</ele><time>2026-04-07T08:22:45.999Z</time></trkpt><trkpt lat="44.22750942433128" lon="9.728563683626739"><ele>103.0</ele><time>2026-04-07T08:22:46.999Z</time></trkpt><trkpt lat="44.22734779536044" lon="9.72884164230265"><ele>103.5</ele><time>2026-04-07T08:22:47.999Z</time></trkpt><trkpt lat="44.2271881607962" lon="9.729124241778996"><ele>104.0</ele><time>2026-04-07T08:22:48.999Z</time></trkpt><trkpt lat="44.22702535737785" lon="9.729412508944572"><ele>105.5</ele><time>2026-04-07T08:22:49.999Z</time></trkpt><trkpt lat="44.22686076607171" lon="9.729701212536735"><ele>107.0</ele><time>2026-04-07T08:22:50.999Z</time></trkpt><trkpt lat="44.226693192536594" lon="9.729994881007372"><ele>107.0</ele><time>2026-04-07T08:22:51.999Z</time></trkpt><trkpt lat="44.22652665261968" lon="9.730287289617802"><ele>107.0</ele><time>2026-04-07T08:22:52.999Z</time></trkpt><trkpt lat="44.226365623026695" lon="9.730571695534307"><ele>105.5</ele><time>2026-04-07T08:22:53.999Z</time></trkpt><trkpt lat="44.22621126553007" lon="9.730841071813416"><ele>104.0</ele><time>2026-04-07T08:22:54.999Z</time></trkpt><trkpt lat="44.22605821543331" lon="9.731107134999156"><ele>103.5</ele><time>2026-04-07T08:22:55.999Z</time></trkpt><trkpt lat="44.225904990303725" lon="9.731382074168023"><ele>103.0</ele><time>2026-04-07T08:22:56.999Z</time></trkpt><trkpt lat="44.225748567492694" lon="9.731656112904268"><ele>101.5</ele><time>2026-04-07T08:22:57.999Z</time></trkpt><trkpt lat="44.225589176137554" lon="9.731935657328853"><ele>100.0</ele><time>2026-04-07T08:22:58.999Z</time></trkpt><trkpt lat="44.225424608649675" lon="9.732222912334187"><ele>100.0</ele><time>2026-04-07T08:22:59.999Z</time></trkpt><trkpt lat="44.22526252723433" lon="9.732511720694434"><ele>100.0</ele><time>2026-04-07T08:23:00.999Z</time></trkpt><trkpt lat="44.22510008190266" lon="9.732801981783886"><ele>101.0</ele><time>2026-04-07T08:23:01.999Z</time></trkpt><trkpt lat="44.22493368479286" lon="9.733099232110701"><ele>102.0</ele><time>2026-04-07T08:23:02.999Z</time></trkpt><trkpt lat="44.22477145091366" lon="9.733399164790654"><ele>100.0</ele><time>2026-04-07T08:23:03.999Z</time></trkpt><trkpt lat="44.22461447272668" lon="9.733707806535739"><ele>98.0</ele><time>2026-04-07T08:23:04.999Z</time></trkpt><trkpt lat="44.224467723514834" lon="9.734027405949918"><ele>98.0</ele><time>2026-04-07T08:23:05.999Z</time></trkpt><trkpt lat="44.2243387898419" lon="9.734360027666982"><ele>98.0</ele><time>2026-04-07T08:23:06.999Z</time></trkpt><trkpt lat="44.22422816791744" lon="9.734702617782293"><ele>99.0</ele><time>2026-04-07T08:23:07.999Z</time></trkpt><trkpt lat="44.224124153097186" lon="9.735051775557084"><ele>100.0</ele><time>2026-04-07T08:23:08.999Z</time></trkpt><trkpt lat="44.22404101140465" lon="9.735400064499286"><ele>96.0</ele><time>2026-04-07T08:23:09.999Z</time></trkpt><trkpt lat="44.22397281670051" lon="9.735754405649898"><ele>92.0</ele><time>2026-04-07T08:23:11Z</time></trkpt><trkpt lat="44.223923426774576" lon="9.736108257650951"><ele>91.5</ele><time>2026-04-07T08:23:12Z</time></trkpt><trkpt lat="44.22388844524632" lon="9.736455346381431"><ele>91.0</ele><time>2026-04-07T08:23:13Z</time></trkpt><trkpt lat="44.2238639885733" lon="9.736802676445427"><ele>90.5</ele><time>2026-04-07T08:23:14Z</time></trkpt><trkpt lat="44.22385388882285" lon="9.737149865670451"><ele>90.0</ele><time>2026-04-07T08:23:15Z</time></trkpt><trkpt lat="44.223856123892766" lon="9.737507814737368"><ele>89.0</ele><time>2026-04-07T08:23:16Z</time></trkpt><trkpt lat="44.22387206734857" lon="9.737856456791395"><ele>88.0</ele><time>2026-04-07T08:23:17Z</time></trkpt><trkpt lat="44.223895720172976" lon="9.738203614480245"><ele>88.0</ele><time>2026-04-07T08:23:18Z</time></trkpt><trkpt lat="44.22393554674859" lon="9.738546645808647"><ele>88.0</ele><time>2026-04-07T08:23:19Z</time></trkpt><trkpt lat="44.2239919168706" lon="9.73888809003143"><ele>89.5</ele><time>2026-04-07T08:23:20Z</time></trkpt><trkpt lat="44.22406193998497" lon="9.73922692211969"><ele>91.0</ele><time>2026-04-07T08:23:21Z</time></trkpt><trkpt lat="44.224140308753604" lon="9.739568076830583"><ele>91.0</ele><time>2026-04-07T08:23:22Z</time></trkpt><trkpt lat="44.224224453246556" lon="9.739913357072227"><ele>91.0</ele><time>2026-04-07T08:23:23Z</time></trkpt><trkpt lat="44.22430855554587" lon="9.740266113774705"><ele>90.5</ele><time>2026-04-07T08:23:24Z</time></trkpt><trkpt lat="44.22439204284522" lon="9.74062045108455"><ele>90.0</ele><time>2026-04-07T08:23:25Z</time></trkpt><trkpt lat="44.22447707340122" lon="9.74097433605535"><ele>89.5</ele><time>2026-04-07T08:23:26Z</time></trkpt><trkpt lat="44.22456144129845" lon="9.741328818117413"><ele>89.0</ele><time>2026-04-07T08:23:27Z</time></trkpt><trkpt lat="44.224643673952215" lon="9.741686008413243"><ele>88.5</ele><time>2026-04-07T08:23:28Z</time></trkpt><trkpt lat="44.224727669982876" lon="9.742043017261684"><ele>88.0</ele><time>2026-04-07T08:23:29Z</time></trkpt><trkpt lat="44.22481149866472" lon="9.742399973444723"><ele>88.0</ele><time>2026-04-07T08:23:30Z</time></trkpt><trkpt lat="44.224890833432674" lon="9.742757036191948"><ele>88.0</ele><time>2026-04-07T08:23:31Z</time></trkpt><trkpt lat="44.22495667333433" lon="9.743118253919905"><ele>88.0</ele><time>2026-04-07T08:23:32Z</time></trkpt><trkpt lat="44.225005363292894" lon="9.743482825797345"><ele>88.0</ele><time>2026-04-07T08:23:33Z</time></trkpt><trkpt lat="44.22503421909193" lon="9.743848516906638"><ele>88.5</ele><time>2026-04-07T08:23:34Z</time></trkpt><trkpt lat="44.22504554605348" lon="9.744209918989277"><ele>89.0</ele><time>2026-04-07T08:23:35Z</time></trkpt><trkpt lat="44.22504264660702" lon="9.744567237579858"><ele>89.0</ele><time>2026-04-07T08:23:36Z</time></trkpt><trkpt lat="44.22502811298417" lon="9.744920924457267"><ele>89.0</ele><time>2026-04-07T08:23:37Z</time></trkpt><trkpt lat="44.22500270300564" lon="9.74527181926109"><ele>89.0</ele><time>2026-04-07T08:23:38Z</time></trkpt><trkpt lat="44.22496661277649" lon="9.745616975320953"><ele>89.0</ele><time>2026-04-07T08:23:39Z</time></trkpt><trkpt lat="44.22491742029279" lon="9.74595567619334"><ele>87.5</ele><time>2026-04-07T08:23:40Z</time></trkpt><trkpt lat="44.224859518985085" lon="9.746288592098775"><ele>86.0</ele><time>2026-04-07T08:23:41Z</time></trkpt><trkpt lat="44.22479751893346" lon="9.746621520609839"><ele>87.5</ele><time>2026-04-07T08:23:42Z</time></trkpt><trkpt lat="44.22473409602354" lon="9.746949185037916"><ele>89.0</ele><time>2026-04-07T08:23:43Z</time></trkpt><trkpt lat="44.22467362812046" lon="9.74728234095846"><ele>89.0</ele><time>2026-04-07T08:23:44Z</time></trkpt><trkpt lat="44.22461374026901" lon="9.747615714616545"><ele>89.0</ele><time>2026-04-07T08:23:45Z</time></trkpt><trkpt lat="44.22455510096582" lon="9.74794850711116"><ele>89.0</ele><time>2026-04-07T08:23:46Z</time></trkpt><trkpt lat="44.22449411324009" lon="9.748282060407355"><ele>89.0</ele><time>2026-04-07T08:23:47Z</time></trkpt><trkpt lat="44.22443316076805" lon="9.748613982705965"><ele>89.0</ele><time>2026-04-07T08:23:48Z</time></trkpt><trkpt lat="44.22437182733151" lon="9.748947039594691"><ele>89.0</ele><time>2026-04-07T08:23:49Z</time></trkpt><trkpt lat="44.22431070871884" lon="9.749282382862893"><ele>89.5</ele><time>2026-04-07T08:23:50Z</time></trkpt><trkpt lat="44.224246203814374" lon="9.749619706977517"><ele>90.0</ele><time>2026-04-07T08:23:51Z</time></trkpt><trkpt lat="44.22418221724189" lon="9.74995669574042"><ele>88.5</ele><time>2026-04-07T08:23:52Z</time></trkpt><trkpt lat="44.22411521541793" lon="9.7502942583627"><ele>87.0</ele><time>2026-04-07T08:23:53Z</time></trkpt><trkpt lat="44.224035234963495" lon="9.75062913480776"><ele>96.0</ele><time>2026-04-07T08:23:54Z</time></trkpt><trkpt lat="44.223939420074295" lon="9.750958431316018"><ele>105.0</ele><time>2026-04-07T08:23:55Z</time></trkpt><trkpt lat="44.223829889298244" lon="9.75127884656105"><ele>105.0</ele><time>2026-04-07T08:23:56Z</time></trkpt><trkpt lat="44.22371081338645" lon="9.751592594335273"><ele>105.0</ele><time>2026-04-07T08:23:57Z</time></trkpt><trkpt lat="44.22358507282423" lon="9.751904706862234"><ele>98.0</ele><time>2026-04-07T08:23:58Z</time></trkpt><trkpt lat="44.22345103548371" lon="9.752207613111265"><ele>91.0</ele><time>2026-04-07T08:23:59Z</time></trkpt><trkpt lat="44.22330402135155" lon="9.752500776981172"><ele>89.0</ele><time>2026-04-07T08:24:00Z</time></trkpt><trkpt lat="44.22314778795488" lon="9.752777103753132"><ele>87.0</ele><time>2026-04-07T08:24:01Z</time></trkpt><trkpt lat="44.22297984829182" lon="9.753042393668116"><ele>96.0</ele><time>2026-04-07T08:24:02Z</time></trkpt><trkpt lat="44.22280706575397" lon="9.753295195179456"><ele>105.0</ele><time>2026-04-07T08:24:03Z</time></trkpt><trkpt lat="44.222627688965716" lon="9.75353616969871"><ele>97.5</ele><time>2026-04-07T08:24:04Z</time></trkpt><trkpt lat="44.222443146436255" lon="9.75376676600263"><ele>90.0</ele><time>2026-04-07T08:24:05Z</time></trkpt><trkpt lat="44.22225093835481" lon="9.75399148011558"><ele>90.0</ele><time>2026-04-07T08:24:06Z</time></trkpt><trkpt lat="44.22205550034908" lon="9.754205819722097"><ele>90.0</ele><time>2026-04-07T08:24:07Z</time></trkpt><trkpt lat="44.22186077454104" lon="9.754418542080794"><ele>86.5</ele><time>2026-04-07T08:24:08Z</time></trkpt><trkpt lat="44.221668474432384" lon="9.754639444779896"><ele>83.0</ele><time>2026-04-07T08:24:09Z</time></trkpt><trkpt lat="44.221481259365426" lon="9.754858084042628"><ele>82.5</ele><time>2026-04-07T08:24:10Z</time></trkpt><trkpt lat="44.22128611792061" lon="9.755080841652106"><ele>82.0</ele><time>2026-04-07T08:24:11Z</time></trkpt><trkpt lat="44.22109364485685" lon="9.755301030783793"><ele>85.5</ele><time>2026-04-07T08:24:12Z</time></trkpt><trkpt lat="44.22089503912816" lon="9.755525084854108"><ele>89.0</ele><time>2026-04-07T08:24:13Z</time></trkpt><trkpt lat="44.220698334376685" lon="9.75574764599643"><ele>89.5</ele><time>2026-04-07T08:24:14Z</time></trkpt><trkpt lat="44.22050594789115" lon="9.755963893275265"><ele>90.0</ele><time>2026-04-07T08:24:15Z</time></trkpt><trkpt lat="44.22031415833461" lon="9.756182651017532"><ele>92.0</ele><time>2026-04-07T08:24:16Z</time></trkpt><trkpt lat="44.22011992364494" lon="9.756402130175113"><ele>94.0</ele><time>2026-04-07T08:24:17Z</time></trkpt><trkpt lat="44.21993615197574" lon="9.756624241467136"><ele>95.0</ele><time>2026-04-07T08:24:18Z</time></trkpt><trkpt lat="44.21974601870167" lon="9.756850678700603"><ele>96.0</ele><time>2026-04-07T08:24:19Z</time></trkpt><trkpt lat="44.21956832694745" lon="9.757084951479614"><ele>100.5</ele><time>2026-04-07T08:24:20Z</time></trkpt><trkpt lat="44.21939345335913" lon="9.757329646446925"><ele>105.0</ele><time>2026-04-07T08:24:21Z</time></trkpt><trkpt lat="44.21922633649484" lon="9.757578906589863"><ele>112.0</ele><time>2026-04-07T08:24:22Z</time></trkpt><trkpt lat="44.219058535640386" lon="9.757832786872079"><ele>119.0</ele><time>2026-04-07T08:24:23Z</time></trkpt><trkpt lat="44.21890502453606" lon="9.758090072976715"><ele>141.0</ele><time>2026-04-07T08:24:24Z</time></trkpt><trkpt lat="44.21874196396778" lon="9.758354699230964"><ele>163.0</ele><time>2026-04-07T08:24:25Z</time></trkpt><trkpt lat="44.21857402487889" lon="9.758627135173958"><ele>177.0</ele><time>2026-04-07T08:24:26.02Z</time></trkpt><trkpt lat="44.21840779131795" lon="9.758892944560369"><ele>191.0</ele><time>2026-04-07T08:24:27.02Z</time></trkpt><trkpt lat="44.21823623109001" lon="9.759161388148256"><ele>209.5</ele><time>2026-04-07T08:24:28.017Z</time></trkpt><trkpt lat="44.21804426118987" lon="9.759449935436255"><ele>228.0</ele><time>2026-04-07T08:24:29.02Z</time></trkpt><trkpt lat="44.21789678788597" lon="9.75970841124878"><ele>134.0</ele><time>2026-04-07T08:24:30.015Z</time></trkpt><trkpt lat="44.216481021570544" lon="9.761720580495092"><ele>121.0</ele><time>2026-04-07T08:24:33.342Z</time></trkpt><trkpt lat="44.21587143855155" lon="9.762640710696072"><ele>91.0</ele><time>2026-04-07T08:24:34.342Z</time></trkpt><trkpt lat="44.215369415510644" lon="9.763435609647784"><ele>95.5</ele><time>2026-04-07T08:24:42.999Z</time></trkpt><trkpt lat="44.21518426664453" lon="9.763716165555405"><ele>100.0</ele><time>2026-04-07T08:24:43.999Z</time></trkpt><trkpt lat="44.21503091996904" lon="9.763978220841901"><ele>100.0</ele><time>2026-04-07T08:24:44.999Z</time></trkpt><trkpt lat="44.21485881104445" lon="9.764224009912258"><ele>100.0</ele><time>2026-04-07T08:24:45.999Z</time></trkpt><trkpt lat="44.21469186589082" lon="9.764477381561395"><ele>96.0</ele><time>2026-04-07T08:24:46.999Z</time></trkpt><trkpt lat="44.214518229927194" lon="9.764743820017879"><ele>92.0</ele><time>2026-04-07T08:24:47.999Z</time></trkpt><trkpt lat="44.214336523661125" lon="9.765018668684913"><ele>90.5</ele><time>2026-04-07T08:24:48.999Z</time></trkpt><trkpt lat="44.21415521871622" lon="9.765296348607409"><ele>89.0</ele><time>2026-04-07T08:24:49.999Z</time></trkpt><trkpt lat="44.21398467827106" lon="9.765551919506072"><ele>89.0</ele><time>2026-04-07T08:24:50.999Z</time></trkpt><trkpt lat="44.213819944157294" lon="9.76578178522743"><ele>89.0</ele><time>2026-04-07T08:24:51.999Z</time></trkpt><trkpt lat="44.21365383332916" lon="9.76602586457904"><ele>100.0</ele><time>2026-04-07T08:24:52.999Z</time></trkpt><trkpt lat="44.21348532201192" lon="9.766270464735126"><ele>111.0</ele><time>2026-04-07T08:24:53.999Z</time></trkpt><trkpt lat="44.21331856026612" lon="9.766520923243531"><ele>110.5</ele><time>2026-04-07T08:24:54.999Z</time></trkpt><trkpt lat="44.21315225651592" lon="9.766773036873985"><ele>110.0</ele><time>2026-04-07T08:24:55.999Z</time></trkpt><trkpt lat="44.212983468224394" lon="9.767026522719314"><ele>130.5</ele><time>2026-04-07T08:24:56.999Z</time></trkpt><trkpt lat="44.212817548934275" lon="9.767282954362788"><ele>151.0</ele><time>2026-04-07T08:24:57.999Z</time></trkpt><trkpt lat="44.21266341333672" lon="9.767545262444036"><ele>170.0</ele><time>2026-04-07T08:24:58.999Z</time></trkpt><trkpt lat="44.212511035121445" lon="9.76780840607612"><ele>189.0</ele><time>2026-04-07T08:24:59.999Z</time></trkpt><trkpt lat="44.21235568311037" lon="9.768080565578533"><ele>182.0</ele><time>2026-04-07T08:25:01.019Z</time></trkpt><trkpt lat="44.21220278474813" lon="9.768343324774264"><ele>175.0</ele><time>2026-04-07T08:25:02.016Z</time></trkpt><trkpt lat="44.212028280101705" lon="9.768583616749225"><ele>193.5</ele><time>2026-04-07T08:25:03.019Z</time></trkpt><trkpt lat="44.211861740663494" lon="9.768835333417039"><ele>212.0</ele><time>2026-04-07T08:25:04.021Z</time></trkpt><trkpt lat="44.209833654143345" lon="9.771768066140476"><ele>321.0</ele><time>2026-04-07T08:25:08.341Z</time></trkpt><trkpt lat="44.20922366943245" lon="9.77268851832087"><ele>381.0</ele><time>2026-04-07T08:25:09.341Z</time></trkpt><trkpt lat="44.20862076322431" lon="9.773616867026243"><ele>350.0</ele><time>2026-04-07T08:25:10.341Z</time></trkpt><trkpt lat="44.20806987025727" lon="9.774605709042168"><ele>312.0</ele><time>2026-04-07T08:25:11.341Z</time></trkpt><trkpt lat="44.207568636946014" lon="9.775645148276231"><ele>267.0</ele><time>2026-04-07T08:25:12.341Z</time></trkpt><trkpt lat="44.20712383502764" lon="9.776732396409026"><ele>211.0</ele><time>2026-04-07T08:25:13.341Z</time></trkpt><trkpt lat="44.20674392736828" lon="9.77786629892669"><ele>185.0</ele><time>2026-04-07T08:25:14.341Z</time></trkpt><trkpt lat="44.20641825686232" lon="9.779032429771965"><ele>117.0</ele><time>2026-04-07T08:25:15.341Z</time></trkpt><trkpt lat="44.20616131751268" lon="9.780231078335056"><ele>99.0</ele><time>2026-04-07T08:25:16.341Z</time></trkpt><trkpt lat="44.20605163094048" lon="9.781186552727391"><ele>99.0</ele><time>2026-04-07T08:25:45.999Z</time></trkpt><trkpt lat="44.20600795086332" lon="9.781536510212195"><ele>99.0</ele><time>2026-04-07T08:25:46.999Z</time></trkpt><trkpt lat="44.20587481842198" lon="9.782207398287637"><ele>93.0</ele><time>2026-04-07T08:25:47.999Z</time></trkpt><trkpt lat="44.205834278308615" lon="9.7825665795377"><ele>87.0</ele><time>2026-04-07T08:25:48.999Z</time></trkpt><trkpt lat="44.20580488156435" lon="9.782927743887754"><ele>84.5</ele><time>2026-04-07T08:25:49.999Z</time></trkpt><trkpt lat="44.205792300563424" lon="9.78328910318139"><ele>82.0</ele><time>2026-04-07T08:25:50.999Z</time></trkpt><trkpt lat="44.205779460004464" lon="9.783649886979944"><ele>80.0</ele><time>2026-04-07T08:25:52Z</time></trkpt><trkpt lat="44.20576212607923" lon="9.784014706704879"><ele>78.0</ele><time>2026-04-07T08:25:53Z</time></trkpt><trkpt lat="44.20575194705901" lon="9.78438662592645"><ele>76.5</ele><time>2026-04-07T08:25:54Z</time></trkpt><trkpt lat="44.20574014838318" lon="9.784760172615993"><ele>75.0</ele><time>2026-04-07T08:25:55Z</time></trkpt><trkpt lat="44.20572369383799" lon="9.785136736786212"><ele>73.5</ele><time>2026-04-07T08:25:56Z</time></trkpt><trkpt lat="44.20570927123796" lon="9.785509242651178"><ele>72.0</ele><time>2026-04-07T08:25:57Z</time></trkpt><trkpt lat="44.205691885580244" lon="9.785860093420503"><ele>71.5</ele><time>2026-04-07T08:25:58Z</time></trkpt><trkpt lat="44.20568238260899" lon="9.786216326751731"><ele>71.0</ele><time>2026-04-07T08:25:59Z</time></trkpt><trkpt lat="44.20567114634959" lon="9.786574757993945"><ele>67.5</ele><time>2026-04-07T08:26:00Z</time></trkpt><trkpt lat="44.20566113768241" lon="9.7869358413483"><ele>64.0</ele><time>2026-04-07T08:26:01Z</time></trkpt><trkpt lat="44.205647957184986" lon="9.787294908408485"><ele>64.0</ele><time>2026-04-07T08:26:02Z</time></trkpt><trkpt lat="44.205635390366844" lon="9.7876495182597"><ele>64.0</ele><time>2026-04-07T08:26:03Z</time></trkpt><trkpt lat="44.205624214714135" lon="9.788010680372683"><ele>64.5</ele><time>2026-04-07T08:26:04Z</time></trkpt><trkpt lat="44.2056134415525" lon="9.788379450199503"><ele>65.0</ele><time>2026-04-07T08:26:05Z</time></trkpt><trkpt lat="44.20560150327287" lon="9.788752360148322"><ele>64.5</ele><time>2026-04-07T08:26:06Z</time></trkpt><trkpt lat="44.205586559407806" lon="9.789129641837222"><ele>64.0</ele><time>2026-04-07T08:26:07Z</time></trkpt><trkpt lat="44.20557265237788" lon="9.78950782114556"><ele>64.0</ele><time>2026-04-07T08:26:08Z</time></trkpt><trkpt lat="44.205559009012966" lon="9.789890182029268"><ele>64.0</ele><time>2026-04-07T08:26:09Z</time></trkpt><trkpt lat="44.2055432716848" lon="9.790273859589306"><ele>62.5</ele><time>2026-04-07T08:26:10Z</time></trkpt><trkpt lat="44.20553035211813" lon="9.790662260312779"><ele>61.0</ele><time>2026-04-07T08:26:11Z</time></trkpt><trkpt lat="44.20551878619752" lon="9.79105326175576"><ele>60.0</ele><time>2026-04-07T08:26:12Z</time></trkpt><trkpt lat="44.205503636412075" lon="9.791444477228687"><ele>59.0</ele><time>2026-04-07T08:26:13Z</time></trkpt><trkpt lat="44.205489680120486" lon="9.791834957018223"><ele>58.5</ele><time>2026-04-07T08:26:14Z</time></trkpt><trkpt lat="44.205472781626355" lon="9.792236004478195"><ele>58.0</ele><time>2026-04-07T08:26:15Z</time></trkpt><trkpt lat="44.20545646964059" lon="9.792629432814703"><ele>57.0</ele><time>2026-04-07T08:26:16Z</time></trkpt><trkpt lat="44.205442480324365" lon="9.793032808481051"><ele>56.0</ele><time>2026-04-07T08:26:17Z</time></trkpt><trkpt lat="44.205429384612" lon="9.793406136429649"><ele>56.0</ele><time>2026-04-07T08:26:18Z</time></trkpt><trkpt lat="44.20542051289196" lon="9.793762350918001"><ele>56.0</ele><time>2026-04-07T08:26:19Z</time></trkpt><trkpt lat="44.20540512936809" lon="9.794104749785378"><ele>56.0</ele><time>2026-04-07T08:26:20Z</time></trkpt><trkpt lat="44.20539041838099" lon="9.79445446915322"><ele>56.0</ele><time>2026-04-07T08:26:21Z</time></trkpt><trkpt lat="44.20537826315621" lon="9.794810695004093"><ele>56.0</ele><time>2026-04-07T08:26:22Z</time></trkpt><trkpt lat="44.2053679548118" lon="9.795166023201269"><ele>56.0</ele><time>2026-04-07T08:26:23Z</time></trkpt><trkpt lat="44.20535431117403" lon="9.795525527765186"><ele>56.5</ele><time>2026-04-07T08:26:24Z</time></trkpt><trkpt lat="44.20533996567833" lon="9.79588096770525"><ele>57.0</ele><time>2026-04-07T08:26:25Z</time></trkpt><trkpt lat="44.20532477793614" lon="9.796234414990403"><ele>57.0</ele><time>2026-04-07T08:26:26Z</time></trkpt><trkpt lat="44.20530021749399" lon="9.79658990185552"><ele>57.0</ele><time>2026-04-07T08:26:27Z</time></trkpt><trkpt lat="44.205265782558904" lon="9.79694164591415"><ele>56.5</ele><time>2026-04-07T08:26:28Z</time></trkpt><trkpt lat="44.20521640131254" lon="9.797289193198376"><ele>56.0</ele><time>2026-04-07T08:26:29Z</time></trkpt><trkpt lat="44.205148438622096" lon="9.797634117697921"><ele>56.0</ele><time>2026-04-07T08:26:30Z</time></trkpt><trkpt lat="44.205065957526315" lon="9.79797966121473"><ele>56.0</ele><time>2026-04-07T08:26:31Z</time></trkpt><trkpt lat="44.20496884797412" lon="9.798320251389237"><ele>56.0</ele><time>2026-04-07T08:26:32Z</time></trkpt><trkpt lat="44.20485676796426" lon="9.798658487622431"><ele>56.0</ele><time>2026-04-07T08:26:33Z</time></trkpt><trkpt lat="44.20473307219179" lon="9.798982140745995"><ele>55.0</ele><time>2026-04-07T08:26:34Z</time></trkpt><trkpt lat="44.20459537281195" lon="9.799299626438216"><ele>54.0</ele><time>2026-04-07T08:26:35Z</time></trkpt><trkpt lat="44.20444811178593" lon="9.79960795903397"><ele>53.5</ele><time>2026-04-07T08:26:36Z</time></trkpt><trkpt lat="44.20429530193445" lon="9.79990563221985"><ele>53.0</ele><time>2026-04-07T08:26:37Z</time></trkpt><trkpt lat="44.20413466316872" lon="9.800207911875074"><ele>52.5</ele><time>2026-04-07T08:26:38Z</time></trkpt><trkpt lat="44.20397990401239" lon="9.800514470489405"><ele>52.0</ele><time>2026-04-07T08:26:39Z</time></trkpt><trkpt lat="44.20383042212573" lon="9.800822960270594"><ele>53.0</ele><time>2026-04-07T08:26:40Z</time></trkpt><trkpt lat="44.20367927347306" lon="9.80113312535434"><ele>54.0</ele><time>2026-04-07T08:26:41Z</time></trkpt><trkpt lat="44.20352756261087" lon="9.801439288225316"><ele>54.0</ele><time>2026-04-07T08:26:42Z</time></trkpt><trkpt lat="44.203372824648596" lon="9.801746524559187"><ele>54.0</ele><time>2026-04-07T08:26:43Z</time></trkpt><trkpt lat="44.203216899147314" lon="9.802054656137146"><ele>54.5</ele><time>2026-04-07T08:26:44Z</time></trkpt><trkpt lat="44.203059991187565" lon="9.802369099098465"><ele>55.0</ele><time>2026-04-07T08:26:45Z</time></trkpt><trkpt lat="44.202899552244816" lon="9.802689681706758"><ele>55.5</ele><time>2026-04-07T08:26:46Z</time></trkpt><trkpt lat="44.20272839860071" lon="9.803042355214169"><ele>56.0</ele><time>2026-04-07T08:26:47Z</time></trkpt><trkpt lat="44.20254594242086" lon="9.803410458872715"><ele>57.0</ele><time>2026-04-07T08:26:48Z</time></trkpt><trkpt lat="44.20235176848419" lon="9.803796968724129"><ele>58.0</ele><time>2026-04-07T08:26:49Z</time></trkpt><trkpt lat="44.2021525546606" lon="9.804198841206928"><ele>58.0</ele><time>2026-04-07T08:26:50Z</time></trkpt><trkpt lat="44.20194953408759" lon="9.804613929687513"><ele>58.0</ele><time>2026-04-07T08:26:51Z</time></trkpt><trkpt lat="44.20174107061647" lon="9.805033362613575"><ele>57.0</ele><time>2026-04-07T08:26:52Z</time></trkpt><trkpt lat="44.201553211679716" lon="9.805413138111287"><ele>56.0</ele><time>2026-04-07T08:26:53Z</time></trkpt><trkpt lat="44.20138783018487" lon="9.805752918292402"><ele>57.0</ele><time>2026-04-07T08:26:54Z</time></trkpt><trkpt lat="44.20122871372604" lon="9.80607536456826"><ele>58.0</ele><time>2026-04-07T08:26:55Z</time></trkpt><trkpt lat="44.20107385044763" lon="9.806386031753293"><ele>58.0</ele><time>2026-04-07T08:26:56Z</time></trkpt><trkpt lat="44.20091416294345" lon="9.80670424201372"><ele>58.0</ele><time>2026-04-07T08:26:57Z</time></trkpt><trkpt lat="44.20075132500673" lon="9.807027236465505"><ele>57.5</ele><time>2026-04-07T08:26:58Z</time></trkpt><trkpt lat="44.20059082650544" lon="9.807356078546285"><ele>57.0</ele><time>2026-04-07T08:26:59Z</time></trkpt><trkpt lat="44.20042975421004" lon="9.807684463689604"><ele>57.0</ele><time>2026-04-07T08:27:00Z</time></trkpt><trkpt lat="44.20026527309421" lon="9.808018034220847"><ele>57.0</ele><time>2026-04-07T08:27:01Z</time></trkpt><trkpt lat="44.20010007726506" lon="9.808351950842622"><ele>56.5</ele><time>2026-04-07T08:27:02Z</time></trkpt><trkpt lat="44.19993421207018" lon="9.808688005922367"><ele>56.0</ele><time>2026-04-07T08:27:03Z</time></trkpt><trkpt lat="44.199767298908945" lon="9.809021191063891"><ele>57.0</ele><time>2026-04-07T08:27:04Z</time></trkpt><trkpt lat="44.19959906979124" lon="9.809357892305885"><ele>58.0</ele><time>2026-04-07T08:27:05Z</time></trkpt><trkpt lat="44.19943371845637" lon="9.809691753390183"><ele>58.0</ele><time>2026-04-07T08:27:06Z</time></trkpt><trkpt lat="44.19926775192194" lon="9.81002130571152"><ele>58.0</ele><time>2026-04-07T08:27:07Z</time></trkpt><trkpt lat="44.199099585452046" lon="9.810355093783429"><ele>56.0</ele><time>2026-04-07T08:27:08Z</time></trkpt><trkpt lat="44.19893791432853" lon="9.81068718696751"><ele>54.0</ele><time>2026-04-07T08:27:09Z</time></trkpt><trkpt lat="44.198791920840094" lon="9.811025781371383"><ele>54.0</ele><time>2026-04-07T08:27:10Z</time></trkpt><trkpt lat="44.198658164724534" lon="9.811357304220616"><ele>54.0</ele><time>2026-04-07T08:27:11Z</time></trkpt><trkpt lat="44.198542312302926" lon="9.811679993772573"><ele>54.0</ele><time>2026-04-07T08:27:12Z</time></trkpt><trkpt lat="44.19844491206442" lon="9.812017963964642"><ele>54.0</ele><time>2026-04-07T08:27:13Z</time></trkpt><trkpt lat="44.19835735208698" lon="9.812371549660327"><ele>53.0</ele><time>2026-04-07T08:27:13.999Z</time></trkpt><trkpt lat="44.198285539455256" lon="9.812736957314486"><ele>52.0</ele><time>2026-04-07T08:27:14.999Z</time></trkpt><trkpt lat="44.19822847496869" lon="9.81311089342625"><ele>51.5</ele><time>2026-04-07T08:27:15.999Z</time></trkpt><trkpt lat="44.19819292206709" lon="9.813491364040619"><ele>51.0</ele><time>2026-04-07T08:27:16.999Z</time></trkpt><trkpt lat="44.198165289193305" lon="9.813880012389953"><ele>51.5</ele><time>2026-04-07T08:27:17.999Z</time></trkpt><trkpt lat="44.198154025324385" lon="9.814275120383975"><ele>52.0</ele><time>2026-04-07T08:27:18.999Z</time></trkpt><trkpt lat="44.19815739821109" lon="9.814672955733071"><ele>52.0</ele><time>2026-04-07T08:27:19.999Z</time></trkpt><trkpt lat="44.19817551040433" lon="9.815077113884726"><ele>52.0</ele><time>2026-04-07T08:27:20.999Z</time></trkpt><trkpt lat="44.19820642507545" lon="9.815483139032738"><ele>52.0</ele><time>2026-04-07T08:27:21.999Z</time></trkpt><trkpt lat="44.19824071736784" lon="9.81588596431931"><ele>52.0</ele><time>2026-04-07T08:27:22.999Z</time></trkpt><trkpt lat="44.198267772063424" lon="9.816295142656529"><ele>52.5</ele><time>2026-04-07T08:27:23.999Z</time></trkpt><trkpt lat="44.19829397988805" lon="9.8166993598612"><ele>53.0</ele><time>2026-04-07T08:27:24.999Z</time></trkpt><trkpt lat="44.198319181673554" lon="9.81710110760159"><ele>53.5</ele><time>2026-04-07T08:27:25.999Z</time></trkpt><trkpt lat="44.19834399271065" lon="9.817506922922695"><ele>54.0</ele><time>2026-04-07T08:27:26.999Z</time></trkpt><trkpt lat="44.19837232095351" lon="9.817912065248235"><ele>54.0</ele><time>2026-04-07T08:27:27.999Z</time></trkpt><trkpt lat="44.19840027061058" lon="9.8183186883223"><ele>54.0</ele><time>2026-04-07T08:27:28.999Z</time></trkpt><trkpt lat="44.198430313852505" lon="9.818724333735187"><ele>54.5</ele><time>2026-04-07T08:27:29.999Z</time></trkpt><trkpt lat="44.19845308083557" lon="9.819132026126798"><ele>55.0</ele><time>2026-04-07T08:27:30.999Z</time></trkpt><trkpt lat="44.19848084457157" lon="9.819533658259104"><ele>55.0</ele><time>2026-04-07T08:27:31.999Z</time></trkpt><trkpt lat="44.198502983227144" lon="9.819940029098266"><ele>55.0</ele><time>2026-04-07T08:27:32.999Z</time></trkpt><trkpt lat="44.19852836790984" lon="9.820341947411896"><ele>53.5</ele><time>2026-04-07T08:27:33.999Z</time></trkpt><trkpt lat="44.1985548452659" lon="9.820745988151135"><ele>52.0</ele><time>2026-04-07T08:27:34.999Z</time></trkpt><trkpt lat="44.19857700424487" lon="9.821145545062162"><ele>52.0</ele><time>2026-04-07T08:27:35.999Z</time></trkpt><trkpt lat="44.19860865958841" lon="9.821551799887175"><ele>52.0</ele><time>2026-04-07T08:27:36.999Z</time></trkpt><trkpt lat="44.19864136122643" lon="9.8219651588479"><ele>52.0</ele><time>2026-04-07T08:27:37.999Z</time></trkpt><trkpt lat="44.19867055358871" lon="9.822377965888776"><ele>52.0</ele><time>2026-04-07T08:27:38.999Z</time></trkpt><trkpt lat="44.19869797010185" lon="9.822791823147359"><ele>51.0</ele><time>2026-04-07T08:27:39.999Z</time></trkpt><trkpt lat="44.198727012715835" lon="9.82322675230212"><ele>50.0</ele><time>2026-04-07T08:27:40.999Z</time></trkpt><trkpt lat="44.198754353604514" lon="9.823678323809162"><ele>50.0</ele><time>2026-04-07T08:27:41.999Z</time></trkpt><trkpt lat="44.198783533486235" lon="9.824136563577031"><ele>50.0</ele><time>2026-04-07T08:27:42.999Z</time></trkpt><trkpt lat="44.198811759298884" lon="9.824600939560009"><ele>50.5</ele><time>2026-04-07T08:27:43.999Z</time></trkpt><trkpt lat="44.19884098990101" lon="9.825064514024115"><ele>51.0</ele><time>2026-04-07T08:27:44.999Z</time></trkpt><trkpt lat="44.19887079020693" lon="9.825498433795087"><ele>51.0</ele><time>2026-04-07T08:27:45.999Z</time></trkpt><trkpt lat="44.19889541744386" lon="9.82590881372793"><ele>51.0</ele><time>2026-04-07T08:27:46.999Z</time></trkpt><trkpt lat="44.19892150355051" lon="9.826313305171594"><ele>50.5</ele><time>2026-04-07T08:27:47.999Z</time></trkpt><trkpt lat="44.19895112870023" lon="9.826732499188315"><ele>50.0</ele><time>2026-04-07T08:27:48.999Z</time></trkpt><trkpt lat="44.19898067498928" lon="9.827182964630623"><ele>52.5</ele><time>2026-04-07T08:27:49.999Z</time></trkpt><trkpt lat="44.199008441904894" lon="9.827655476642144"><ele>55.0</ele><time>2026-04-07T08:27:50.999Z</time></trkpt><trkpt lat="44.19903724935329" lon="9.828098484578481"><ele>54.5</ele><time>2026-04-07T08:27:51.999Z</time></trkpt><trkpt lat="44.199061781826714" lon="9.828513397783981"><ele>54.0</ele><time>2026-04-07T08:27:52.999Z</time></trkpt><trkpt lat="44.1990869961585" lon="9.828925723124286"><ele>53.5</ele><time>2026-04-07T08:27:53.999Z</time></trkpt><trkpt lat="44.19911190927611" lon="9.829341025143767"><ele>53.0</ele><time>2026-04-07T08:27:54.999Z</time></trkpt><trkpt lat="44.19913413969719" lon="9.829754012696807"><ele>53.5</ele><time>2026-04-07T08:27:55.999Z</time></trkpt><trkpt lat="44.19915670774085" lon="9.830161711831863"><ele>54.0</ele><time>2026-04-07T08:27:56.999Z</time></trkpt><trkpt lat="44.19917531361046" lon="9.830564486572916"><ele>54.0</ele><time>2026-04-07T08:27:58Z</time></trkpt><trkpt lat="44.19919650686983" lon="9.83096247415049"><ele>54.0</ele><time>2026-04-07T08:27:59Z</time></trkpt><trkpt lat="44.199217338312074" lon="9.831359034705242"><ele>53.5</ele><time>2026-04-07T08:28:00Z</time></trkpt><trkpt lat="44.19924120890045" lon="9.831752512177504"><ele>53.0</ele><time>2026-04-07T08:28:01Z</time></trkpt><trkpt lat="44.19926531454272" lon="9.83214289265838"><ele>51.5</ele><time>2026-04-07T08:28:02Z</time></trkpt><trkpt lat="44.19928801444745" lon="9.832530963098177"><ele>50.0</ele><time>2026-04-07T08:28:03Z</time></trkpt><trkpt lat="44.19931199294912" lon="9.832913064847663"><ele>49.0</ele><time>2026-04-07T08:28:04Z</time></trkpt><trkpt lat="44.19933270479088" lon="9.83329437810662"><ele>48.0</ele><time>2026-04-07T08:28:05Z</time></trkpt><trkpt lat="44.19935968221696" lon="9.833675743775789"><ele>47.0</ele><time>2026-04-07T08:28:06Z</time></trkpt><trkpt lat="44.1993843411297" lon="9.834062044945897"><ele>46.0</ele><time>2026-04-07T08:28:07Z</time></trkpt><trkpt lat="44.19941051119148" lon="9.834449627171233"><ele>45.5</ele><time>2026-04-07T08:28:08Z</time></trkpt><trkpt lat="44.19943377807138" lon="9.83484348401562"><ele>45.0</ele><time>2026-04-07T08:28:09Z</time></trkpt><trkpt lat="44.19945902087162" lon="9.835238157882241"><ele>45.0</ele><time>2026-04-07T08:28:10Z</time></trkpt><trkpt lat="44.199485291450245" lon="9.835636831576553"><ele>45.0</ele><time>2026-04-07T08:28:11Z</time></trkpt><trkpt lat="44.19950713636244" lon="9.836035793882493"><ele>45.0</ele><time>2026-04-07T08:28:12Z</time></trkpt><trkpt lat="44.19953071838733" lon="9.836435116493583"><ele>45.0</ele><time>2026-04-07T08:28:13Z</time></trkpt><trkpt lat="44.19955489878177" lon="9.836835758300172"><ele>45.0</ele><time>2026-04-07T08:28:14Z</time></trkpt><trkpt lat="44.19958105258241" lon="9.837241109480571"><ele>45.0</ele><time>2026-04-07T08:28:15Z</time></trkpt><trkpt lat="44.19960852138424" lon="9.837650296457221"><ele>44.0</ele><time>2026-04-07T08:28:16Z</time></trkpt><trkpt lat="44.19963564921638" lon="9.838053837464493"><ele>43.0</ele><time>2026-04-07T08:28:17Z</time></trkpt><trkpt lat="44.199659560019306" lon="9.83846293805811"><ele>43.5</ele><time>2026-04-07T08:28:18Z</time></trkpt><trkpt lat="44.19968183989921" lon="9.838871001527412"><ele>44.0</ele><time>2026-04-07T08:28:19Z</time></trkpt><trkpt lat="44.19970006536864" lon="9.83928408015216"><ele>43.5</ele><time>2026-04-07T08:28:20Z</time></trkpt><trkpt lat="44.199708898101576" lon="9.839695817742173"><ele>43.0</ele><time>2026-04-07T08:28:21Z</time></trkpt><trkpt lat="44.19970663894375" lon="9.840110414583695"><ele>43.5</ele><time>2026-04-07T08:28:22Z</time></trkpt><trkpt lat="44.19970138987196" lon="9.840522548295233"><ele>44.0</ele><time>2026-04-07T08:28:23Z</time></trkpt><trkpt lat="44.199694554991694" lon="9.840936621279724"><ele>44.0</ele><time>2026-04-07T08:28:24Z</time></trkpt><trkpt lat="44.1996797715477" lon="9.84134914423081"><ele>44.0</ele><time>2026-04-07T08:28:25Z</time></trkpt><trkpt lat="44.199658175613706" lon="9.841764026685992"><ele>43.0</ele><time>2026-04-07T08:28:26Z</time></trkpt><trkpt lat="44.19962909615114" lon="9.8421748117673"><ele>42.0</ele><time>2026-04-07T08:28:27Z</time></trkpt><trkpt lat="44.19959472183631" lon="9.84258520316037"><ele>42.5</ele><time>2026-04-07T08:28:28Z</time></trkpt><trkpt lat="44.19955452422865" lon="9.842996573707183"><ele>43.0</ele><time>2026-04-07T08:28:29Z</time></trkpt><trkpt lat="44.199507142541016" lon="9.843404090035515"><ele>44.0</ele><time>2026-04-07T08:28:30Z</time></trkpt><trkpt lat="44.199456806791595" lon="9.843813739714587"><ele>45.0</ele><time>2026-04-07T08:28:31Z</time></trkpt><trkpt lat="44.1994083500402" lon="9.844216126209252"><ele>44.5</ele><time>2026-04-07T08:28:32Z</time></trkpt><trkpt lat="44.199357632567946" lon="9.844619556330251"><ele>44.0</ele><time>2026-04-07T08:28:33Z</time></trkpt><trkpt lat="44.199311466528265" lon="9.84503575219269"><ele>44.5</ele><time>2026-04-07T08:28:34Z</time></trkpt><trkpt lat="44.19926433816536" lon="9.845466901119332"><ele>45.0</ele><time>2026-04-07T08:28:35Z</time></trkpt><trkpt lat="44.199212916770364" lon="9.845909711252462"><ele>45.5</ele><time>2026-04-07T08:28:36Z</time></trkpt><trkpt lat="44.19915484074567" lon="9.846370849217177"><ele>46.0</ele><time>2026-04-07T08:28:37Z</time></trkpt><trkpt lat="44.19909706673327" lon="9.846843178742425"><ele>47.5</ele><time>2026-04-07T08:28:38Z</time></trkpt><trkpt lat="44.19904082468588" lon="9.847327339701922"><ele>49.0</ele><time>2026-04-07T08:28:39Z</time></trkpt><trkpt lat="44.19898369281225" lon="9.84782344209731"><ele>44.5</ele><time>2026-04-07T08:28:40Z</time></trkpt><trkpt lat="44.19893167165517" lon="9.848295330423692"><ele>40.0</ele><time>2026-04-07T08:28:41Z</time></trkpt><trkpt lat="44.19888168849586" lon="9.848730000649583"><ele>39.0</ele><time>2026-04-07T08:28:42Z</time></trkpt><trkpt lat="44.198836549018175" lon="9.849132046088709"><ele>38.0</ele><time>2026-04-07T08:28:43Z</time></trkpt><trkpt lat="44.19879256611858" lon="9.849513680033189"><ele>38.0</ele><time>2026-04-07T08:28:44Z</time></trkpt><trkpt lat="44.198747445380526" lon="9.849884129588586"><ele>38.0</ele><time>2026-04-07T08:28:45Z</time></trkpt><trkpt lat="44.19870220871625" lon="9.85026832256335"><ele>37.5</ele><time>2026-04-07T08:28:46Z</time></trkpt><trkpt lat="44.19865623534124" lon="9.850653512735247"><ele>37.0</ele><time>2026-04-07T08:28:47Z</time></trkpt><trkpt lat="44.1986076082666" lon="9.851044121792011"><ele>38.5</ele><time>2026-04-07T08:28:48Z</time></trkpt><trkpt lat="44.198559430839765" lon="9.851432322448513"><ele>40.0</ele><time>2026-04-07T08:28:49Z</time></trkpt><trkpt lat="44.198513583763585" lon="9.85182264270399"><ele>41.0</ele><time>2026-04-07T08:28:50Z</time></trkpt><trkpt lat="44.19846917943114" lon="9.852215269779933"><ele>42.0</ele><time>2026-04-07T08:28:51Z</time></trkpt><trkpt lat="44.19842226169132" lon="9.852609541458945"><ele>42.5</ele><time>2026-04-07T08:28:52Z</time></trkpt><trkpt lat="44.1983666997971" lon="9.85299550695731"><ele>43.0</ele><time>2026-04-07T08:28:53Z</time></trkpt><trkpt lat="44.198305318550965" lon="9.853356665439675"><ele>42.0</ele><time>2026-04-07T08:28:54Z</time></trkpt><trkpt lat="44.19822958083935" lon="9.853706621169653"><ele>41.0</ele><time>2026-04-07T08:28:55Z</time></trkpt><trkpt lat="44.198130616024976" lon="9.854070537357197"><ele>42.0</ele><time>2026-04-07T08:28:56Z</time></trkpt><trkpt lat="44.198011110418264" lon="9.854440037868052"><ele>43.0</ele><time>2026-04-07T08:28:57Z</time></trkpt><trkpt lat="44.19787227685838" lon="9.854810816226589"><ele>43.0</ele><time>2026-04-07T08:28:58Z</time></trkpt><trkpt lat="44.19771498953606" lon="9.855181869410206"><ele>43.0</ele><time>2026-04-07T08:28:59Z</time></trkpt><trkpt lat="44.19754350383684" lon="9.855525015508345"><ele>43.0</ele><time>2026-04-07T08:29:00Z</time></trkpt><trkpt lat="44.1973694960732" lon="9.855816455153285"><ele>43.0</ele><time>2026-04-07T08:29:01Z</time></trkpt><trkpt lat="44.197189152773355" lon="9.856087173078336"><ele>42.5</ele><time>2026-04-07T08:29:02Z</time></trkpt><trkpt lat="44.19699727538689" lon="9.856343488040334"><ele>42.0</ele><time>2026-04-07T08:29:03Z</time></trkpt><trkpt lat="44.19678951227087" lon="9.856598217934396"><ele>43.0</ele><time>2026-04-07T08:29:04Z</time></trkpt><trkpt lat="44.19656838903349" lon="9.856837699984636"><ele>44.0</ele><time>2026-04-07T08:29:05Z</time></trkpt><trkpt lat="44.196352981158256" lon="9.857050107774658"><ele>44.0</ele><time>2026-04-07T08:29:06Z</time></trkpt><trkpt lat="44.196131489293506" lon="9.857239136217544"><ele>44.0</ele><time>2026-04-07T08:29:07Z</time></trkpt><trkpt lat="44.195901626309976" lon="9.85741959479261"><ele>43.0</ele><time>2026-04-07T08:29:08Z</time></trkpt><trkpt lat="44.19566725027248" lon="9.857569878883645"><ele>42.0</ele><time>2026-04-07T08:29:09Z</time></trkpt><trkpt lat="44.19541598962877" lon="9.857718754031563"><ele>42.0</ele><time>2026-04-07T08:29:10Z</time></trkpt><trkpt lat="44.19515037782184" lon="9.857852470333125"><ele>42.0</ele><time>2026-04-07T08:29:11Z</time></trkpt><trkpt lat="44.19487209014317" lon="9.85797140455272"><ele>43.0</ele><time>2026-04-07T08:29:12Z</time></trkpt><trkpt lat="44.19458412900615" lon="9.858099429187659"><ele>44.0</ele><time>2026-04-07T08:29:13Z</time></trkpt><trkpt lat="44.19429234477643" lon="9.858228182998648"><ele>43.5</ele><time>2026-04-07T08:29:14Z</time></trkpt><trkpt lat="44.193997543266896" lon="9.858354981860549"><ele>43.0</ele><time>2026-04-07T08:29:15Z</time></trkpt><trkpt lat="44.193699654007965" lon="9.858481424669787"><ele>43.0</ele><time>2026-04-07T08:29:16Z</time></trkpt><trkpt lat="44.19340660458553" lon="9.85861307065641"><ele>43.0</ele><time>2026-04-07T08:29:17Z</time></trkpt><trkpt lat="44.193134861821754" lon="9.858735062261331"><ele>41.0</ele><time>2026-04-07T08:29:18Z</time></trkpt><trkpt lat="44.192866289688666" lon="9.858853937871384"><ele>39.0</ele><time>2026-04-07T08:29:19Z</time></trkpt><trkpt lat="44.19259483674237" lon="9.858974286178647"><ele>38.5</ele><time>2026-04-07T08:29:20Z</time></trkpt><trkpt lat="44.19231902189742" lon="9.859096895926513"><ele>38.0</ele><time>2026-04-07T08:29:21Z</time></trkpt><trkpt lat="44.192042227825084" lon="9.859226836670384"><ele>38.0</ele><time>2026-04-07T08:29:22Z</time></trkpt><trkpt lat="44.191761598921744" lon="9.859355427712389"><ele>38.0</ele><time>2026-04-07T08:29:22.999Z</time></trkpt><trkpt lat="44.19147798707904" lon="9.859483940332375"><ele>38.0</ele><time>2026-04-07T08:29:23.999Z</time></trkpt><trkpt lat="44.19119140549678" lon="9.85961018275003"><ele>38.0</ele><time>2026-04-07T08:29:24.999Z</time></trkpt><trkpt lat="44.190902164358654" lon="9.859737117227429"><ele>37.0</ele><time>2026-04-07T08:29:25.999Z</time></trkpt><trkpt lat="44.19061214189048" lon="9.859864361246371"><ele>36.0</ele><time>2026-04-07T08:29:26.999Z</time></trkpt><trkpt lat="44.19031976598551" lon="9.859992632640381"><ele>35.5</ele><time>2026-04-07T08:29:27.999Z</time></trkpt><trkpt lat="44.19002869051448" lon="9.860122664710316"><ele>35.0</ele><time>2026-04-07T08:29:28.999Z</time></trkpt><trkpt lat="44.18974182313434" lon="9.860254632547088"><ele>35.0</ele><time>2026-04-07T08:29:29.999Z</time></trkpt><trkpt lat="44.18945386930108" lon="9.86038835869367"><ele>35.0</ele><time>2026-04-07T08:29:30.999Z</time></trkpt><trkpt lat="44.18916596381703" lon="9.86051694213268"><ele>36.0</ele><time>2026-04-07T08:29:31.999Z</time></trkpt><trkpt lat="44.188885483922206" lon="9.860640848200502"><ele>37.0</ele><time>2026-04-07T08:29:32.999Z</time></trkpt><trkpt lat="44.18862070942086" lon="9.860757841616254"><ele>37.0</ele><time>2026-04-07T08:29:33.999Z</time></trkpt><trkpt lat="44.18835049392713" lon="9.860876821964862"><ele>37.0</ele><time>2026-04-07T08:29:34.999Z</time></trkpt><trkpt lat="44.18807828387604" lon="9.860992045237227"><ele>36.0</ele><time>2026-04-07T08:29:35.999Z</time></trkpt><trkpt lat="44.187799181725204" lon="9.861105708869912"><ele>35.0</ele><time>2026-04-07T08:29:36.999Z</time></trkpt><trkpt lat="44.18751523527826" lon="9.861222849062335"><ele>34.5</ele><time>2026-04-07T08:29:37.999Z</time></trkpt><trkpt lat="44.18723253061365" lon="9.861349720158378"><ele>34.0</ele><time>2026-04-07T08:29:38.999Z</time></trkpt><trkpt lat="44.1869554115283" lon="9.86147052258434"><ele>34.0</ele><time>2026-04-07T08:29:39.999Z</time></trkpt><trkpt lat="44.18667578805939" lon="9.861595361376844"><ele>34.0</ele><time>2026-04-07T08:29:40.999Z</time></trkpt><trkpt lat="44.18639321622249" lon="9.861719818587664"><ele>34.5</ele><time>2026-04-07T08:29:41.999Z</time></trkpt><trkpt lat="44.18611771354213" lon="9.861837770847698"><ele>35.0</ele><time>2026-04-07T08:29:42.999Z</time></trkpt><trkpt lat="44.185844697149335" lon="9.861964003395155"><ele>34.5</ele><time>2026-04-07T08:29:43.999Z</time></trkpt><trkpt lat="44.18556861420935" lon="9.86208643451691"><ele>34.0</ele><time>2026-04-07T08:29:44.999Z</time></trkpt><trkpt lat="44.1852915049774" lon="9.862204606740308"><ele>34.0</ele><time>2026-04-07T08:29:45.999Z</time></trkpt><trkpt lat="44.185019420964444" lon="9.862323199255046"><ele>34.0</ele><time>2026-04-07T08:29:46.999Z</time></trkpt><trkpt lat="44.18474608682812" lon="9.862445189446033"><ele>34.5</ele><time>2026-04-07T08:29:47.999Z</time></trkpt><trkpt lat="44.184472392758245" lon="9.862566998485589"><ele>35.0</ele><time>2026-04-07T08:29:48.999Z</time></trkpt><trkpt lat="44.18419904256207" lon="9.862692176242502"><ele>40.5</ele><time>2026-04-07T08:29:49.999Z</time></trkpt><trkpt lat="44.183925083928855" lon="9.862814756229957"><ele>46.0</ele><time>2026-04-07T08:29:50.999Z</time></trkpt><trkpt lat="44.18365086637265" lon="9.862939072130775"><ele>46.0</ele><time>2026-04-07T08:29:51.999Z</time></trkpt><trkpt lat="44.18337895006254" lon="9.86306861887883"><ele>46.0</ele><time>2026-04-07T08:29:52.999Z</time></trkpt><trkpt lat="44.18310869303208" lon="9.863202364835532"><ele>43.5</ele><time>2026-04-07T08:29:53.999Z</time></trkpt><trkpt lat="44.18284076958522" lon="9.863343080424755"><ele>41.0</ele><time>2026-04-07T08:29:54.999Z</time></trkpt><trkpt lat="44.18257574438808" lon="9.863494726761134"><ele>38.5</ele><time>2026-04-07T08:29:55.999Z</time></trkpt><trkpt lat="44.182311016430624" lon="9.863647799692199"><ele>36.0</ele><time>2026-04-07T08:29:56.999Z</time></trkpt><trkpt lat="44.18205058648221" lon="9.863806785103677"><ele>36.0</ele><time>2026-04-07T08:29:57.999Z</time></trkpt><trkpt lat="44.181787992963905" lon="9.863972787805016"><ele>36.0</ele><time>2026-04-07T08:29:58.999Z</time></trkpt><trkpt lat="44.18153137268433" lon="9.86413724740401"><ele>37.0</ele><time>2026-04-07T08:29:59.999Z</time></trkpt><trkpt lat="44.18127604849672" lon="9.864309115873532"><ele>38.0</ele><time>2026-04-07T08:30:00.999Z</time></trkpt><trkpt lat="44.18102568457519" lon="9.864487179099882"><ele>38.0</ele><time>2026-04-07T08:30:01.999Z</time></trkpt><trkpt lat="44.18077649387252" lon="9.864671014741324"><ele>38.0</ele><time>2026-04-07T08:30:02.999Z</time></trkpt><trkpt lat="44.18052439693009" lon="9.864853490492647"><ele>35.5</ele><time>2026-04-07T08:30:04Z</time></trkpt><trkpt lat="44.18027208284129" lon="9.865035304114626"><ele>33.0</ele><time>2026-04-07T08:30:05Z</time></trkpt><trkpt lat="44.18002048132904" lon="9.865213243610075"><ele>34.0</ele><time>2026-04-07T08:30:06Z</time></trkpt><trkpt lat="44.17976938115391" lon="9.865392367199062"><ele>35.0</ele><time>2026-04-07T08:30:07Z</time></trkpt><trkpt lat="44.17951738409569" lon="9.86557043284318"><ele>35.0</ele><time>2026-04-07T08:30:08Z</time></trkpt><trkpt lat="44.17926570198356" lon="9.865749699082677"><ele>35.0</ele><time>2026-04-07T08:30:09Z</time></trkpt><trkpt lat="44.17901344826783" lon="9.865930455772652"><ele>33.0</ele><time>2026-04-07T08:30:10Z</time></trkpt><trkpt lat="44.17876282389154" lon="9.866111838822032"><ele>31.0</ele><time>2026-04-07T08:30:11Z</time></trkpt><trkpt lat="44.17850875350637" lon="9.866294073791991"><ele>31.0</ele><time>2026-04-07T08:30:12Z</time></trkpt><trkpt lat="44.1782529041332" lon="9.866477511500085"><ele>31.0</ele><time>2026-04-07T08:30:13Z</time></trkpt><trkpt lat="44.177996376432034" lon="9.86665819129078"><ele>30.5</ele><time>2026-04-07T08:30:14Z</time></trkpt><trkpt lat="44.17773806461231" lon="9.86684001497915"><ele>30.0</ele><time>2026-04-07T08:30:15Z</time></trkpt><trkpt lat="44.17748046871154" lon="9.86702124954348"><ele>29.5</ele><time>2026-04-07T08:30:16Z</time></trkpt><trkpt lat="44.17721999944668" lon="9.867204169545031"><ele>29.0</ele><time>2026-04-07T08:30:17Z</time></trkpt><trkpt lat="44.17696261397859" lon="9.867387584738191"><ele>29.0</ele><time>2026-04-07T08:30:18Z</time></trkpt><trkpt lat="44.17670416296204" lon="9.867572580740374"><ele>29.0</ele><time>2026-04-07T08:30:19Z</time></trkpt><trkpt lat="44.17644971209684" lon="9.86775837922904"><ele>29.0</ele><time>2026-04-07T08:30:20Z</time></trkpt><trkpt lat="44.176213901202374" lon="9.867925564754932"><ele>29.0</ele><time>2026-04-07T08:30:21Z</time></trkpt><trkpt lat="44.17599551577464" lon="9.86808025494309"><ele>29.0</ele><time>2026-04-07T08:30:22Z</time></trkpt><trkpt lat="44.17577464015288" lon="9.868233857624483"><ele>29.0</ele><time>2026-04-07T08:30:23Z</time></trkpt><trkpt lat="44.17554971903228" lon="9.868390263332412"><ele>29.0</ele><time>2026-04-07T08:30:24Z</time></trkpt><trkpt lat="44.17531914219384" lon="9.86855511297086"><ele>29.0</ele><time>2026-04-07T08:30:25Z</time></trkpt><trkpt lat="44.17508605225918" lon="9.868721700268607"><ele>28.0</ele><time>2026-04-07T08:30:26Z</time></trkpt><trkpt lat="44.17485384220032" lon="9.868889882733727"><ele>27.0</ele><time>2026-04-07T08:30:27Z</time></trkpt><trkpt lat="44.17461882255946" lon="9.869059802550368"><ele>27.0</ele><time>2026-04-07T08:30:28Z</time></trkpt><trkpt lat="44.174380371288066" lon="9.869229833136677"><ele>27.0</ele><time>2026-04-07T08:30:29Z</time></trkpt><trkpt lat="44.17414229496115" lon="9.869400602661944"><ele>26.5</ele><time>2026-04-07T08:30:30Z</time></trkpt><trkpt lat="44.173904616558495" lon="9.869575011915327"><ele>26.0</ele><time>2026-04-07T08:30:31Z</time></trkpt><trkpt lat="44.173663705517626" lon="9.86974646705602"><ele>26.0</ele><time>2026-04-07T08:30:32Z</time></trkpt><trkpt lat="44.173429841529234" lon="9.869912333045813"><ele>26.0</ele><time>2026-04-07T08:30:33Z</time></trkpt><trkpt lat="44.17320770273283" lon="9.870067563685478"><ele>26.0</ele><time>2026-04-07T08:30:34Z</time></trkpt><trkpt lat="44.172984830713915" lon="9.870222034191453"><ele>26.0</ele><time>2026-04-07T08:30:35Z</time></trkpt><trkpt lat="44.172756833768396" lon="9.870381612792379"><ele>26.0</ele><time>2026-04-07T08:30:36Z</time></trkpt><trkpt lat="44.17253062795829" lon="9.870544410664428"><ele>26.0</ele><time>2026-04-07T08:30:37Z</time></trkpt><trkpt lat="44.17230500682739" lon="9.870712016744813"><ele>26.0</ele><time>2026-04-07T08:30:38Z</time></trkpt><trkpt lat="44.17208304817082" lon="9.870882711804738"><ele>26.0</ele><time>2026-04-07T08:30:39Z</time></trkpt><trkpt lat="44.171863038858774" lon="9.871049918087296"><ele>26.0</ele><time>2026-04-07T08:30:40Z</time></trkpt><trkpt lat="44.17164936420689" lon="9.87121236650196"><ele>26.0</ele><time>2026-04-07T08:30:41Z</time></trkpt><trkpt lat="44.17143570496094" lon="9.871383622812242"><ele>26.0</ele><time>2026-04-07T08:30:42Z</time></trkpt><trkpt lat="44.171220944000225" lon="9.871560775610444"><ele>26.0</ele><time>2026-04-07T08:30:43Z</time></trkpt><trkpt lat="44.171003290990335" lon="9.871744232046503"><ele>26.0</ele><time>2026-04-07T08:30:44Z</time></trkpt><trkpt lat="44.17078213326298" lon="9.871932902250062"><ele>26.0</ele><time>2026-04-07T08:30:45Z</time></trkpt><trkpt lat="44.17055186646933" lon="9.872130553203684"><ele>26.0</ele><time>2026-04-07T08:30:46Z</time></trkpt><trkpt lat="44.1703155720561" lon="9.872339156091781"><ele>26.0</ele><time>2026-04-07T08:30:47Z</time></trkpt><trkpt lat="44.17007874841893" lon="9.872553033324364"><ele>26.0</ele><time>2026-04-07T08:30:48Z</time></trkpt><trkpt lat="44.16983675668792" lon="9.87277864429297"><ele>26.0</ele><time>2026-04-07T08:30:49Z</time></trkpt><trkpt lat="44.16959641788357" lon="9.873007011991811"><ele>26.0</ele><time>2026-04-07T08:30:50Z</time></trkpt><trkpt lat="44.16935890085049" lon="9.873235900712915"><ele>26.0</ele><time>2026-04-07T08:30:51Z</time></trkpt><trkpt lat="44.169140232716025" lon="9.87344879352519"><ele>26.0</ele><time>2026-04-07T08:30:52Z</time></trkpt><trkpt lat="44.16893020714836" lon="9.87366204754489"><ele>26.0</ele><time>2026-04-07T08:30:53Z</time></trkpt><trkpt lat="44.168718539040285" lon="9.873881326928409"><ele>26.0</ele><time>2026-04-07T08:30:54Z</time></trkpt><trkpt lat="44.168507767857044" lon="9.874105864322134"><ele>26.0</ele><time>2026-04-07T08:30:55Z</time></trkpt><trkpt lat="44.16829936760327" lon="9.874328769187898"><ele>25.0</ele><time>2026-04-07T08:30:56Z</time></trkpt><trkpt lat="44.1680919537614" lon="9.87455473528467"><ele>24.0</ele><time>2026-04-07T08:30:57Z</time></trkpt><trkpt lat="44.16788684673343" lon="9.874782384234718"><ele>24.0</ele><time>2026-04-07T08:30:58Z</time></trkpt><trkpt lat="44.16768393347007" lon="9.875013316488126"><ele>24.0</ele><time>2026-04-07T08:30:59Z</time></trkpt><trkpt lat="44.167482978231824" lon="9.875247580264759"><ele>23.5</ele><time>2026-04-07T08:31:00Z</time></trkpt><trkpt lat="44.16728430845086" lon="9.87548409545745"><ele>23.0</ele><time>2026-04-07T08:31:01Z</time></trkpt><trkpt lat="44.167084522542865" lon="9.87572547578802"><ele>24.0</ele><time>2026-04-07T08:31:02Z</time></trkpt><trkpt lat="44.16688875352554" lon="9.875970221950526"><ele>25.0</ele><time>2026-04-07T08:31:03Z</time></trkpt><trkpt lat="44.16669097644046" lon="9.876225512430615"><ele>24.0</ele><time>2026-04-07T08:31:04Z</time></trkpt><trkpt lat="44.16649566617066" lon="9.876479945870647"><ele>23.0</ele><time>2026-04-07T08:31:05Z</time></trkpt><trkpt lat="44.16629974550461" lon="9.876733000905968"><ele>24.0</ele><time>2026-04-07T08:31:06Z</time></trkpt><trkpt lat="44.16610526646659" lon="9.876988336059785"><ele>25.0</ele><time>2026-04-07T08:31:07Z</time></trkpt><trkpt lat="44.16591457762667" lon="9.877251680580006"><ele>25.0</ele><time>2026-04-07T08:31:08Z</time></trkpt><trkpt lat="44.16572487262467" lon="9.87751721134851"><ele>25.0</ele><time>2026-04-07T08:31:09Z</time></trkpt><trkpt lat="44.16553459204427" lon="9.877785518397726"><ele>24.0</ele><time>2026-04-07T08:31:10Z</time></trkpt><trkpt lat="44.16534748582052" lon="9.878055635760209"><ele>23.0</ele><time>2026-04-07T08:31:11Z</time></trkpt><trkpt lat="44.16516376798852" lon="9.878329155625229"><ele>23.0</ele><time>2026-04-07T08:31:12Z</time></trkpt><trkpt lat="44.16498214519148" lon="9.878603527777198"><ele>23.0</ele><time>2026-04-07T08:31:13Z</time></trkpt><trkpt lat="44.16480250248473" lon="9.878879190848734"><ele>23.0</ele><time>2026-04-07T08:31:14Z</time></trkpt><trkpt lat="44.16462796324932" lon="9.879151270377308"><ele>23.0</ele><time>2026-04-07T08:31:15Z</time></trkpt><trkpt lat="44.16445505075723" lon="9.879429755728749"><ele>23.0</ele><time>2026-04-07T08:31:16Z</time></trkpt><trkpt lat="44.16428633211807" lon="9.879707581513292"><ele>23.0</ele><time>2026-04-07T08:31:17Z</time></trkpt><trkpt lat="44.164123924505354" lon="9.879985633619436"><ele>22.5</ele><time>2026-04-07T08:31:18Z</time></trkpt><trkpt lat="44.163959212595344" lon="9.880265144875121"><ele>22.0</ele><time>2026-04-07T08:31:19Z</time></trkpt><trkpt lat="44.16379633787748" lon="9.880546128069572"><ele>22.0</ele><time>2026-04-07T08:31:20Z</time></trkpt><trkpt lat="44.16363389461589" lon="9.880828404699972"><ele>22.0</ele><time>2026-04-07T08:31:21Z</time></trkpt><trkpt lat="44.16347251291002" lon="9.88111718366177"><ele>22.5</ele><time>2026-04-07T08:31:22Z</time></trkpt><trkpt lat="44.1633075316289" lon="9.881414383175635"><ele>23.0</ele><time>2026-04-07T08:31:23Z</time></trkpt><trkpt lat="44.16313800677023" lon="9.881726099041462"><ele>23.0</ele><time>2026-04-07T08:31:24Z</time></trkpt><trkpt lat="44.16298130740675" lon="9.882030711839452"><ele>23.0</ele><time>2026-04-07T08:31:25Z</time></trkpt><trkpt lat="44.16282277033763" lon="9.882349563857293"><ele>22.0</ele><time>2026-04-07T08:31:26Z</time></trkpt><trkpt lat="44.16266660287692" lon="9.88267253976057"><ele>21.0</ele><time>2026-04-07T08:31:26.999Z</time></trkpt><trkpt lat="44.16251271427044" lon="9.882991417666142"><ele>21.0</ele><time>2026-04-07T08:31:27.999Z</time></trkpt><trkpt lat="44.16235792122831" lon="9.883321407741159"><ele>21.0</ele><time>2026-04-07T08:31:28.999Z</time></trkpt><trkpt lat="44.16220310086067" lon="9.883650051774225"><ele>21.0</ele><time>2026-04-07T08:31:29.999Z</time></trkpt><trkpt lat="44.162049655187204" lon="9.883981956657314"><ele>21.0</ele><time>2026-04-07T08:31:30.999Z</time></trkpt><trkpt lat="44.16190000453004" lon="9.884317038387344"><ele>21.0</ele><time>2026-04-07T08:31:31.999Z</time></trkpt><trkpt lat="44.16175355983082" lon="9.884653389897748"><ele>21.0</ele><time>2026-04-07T08:31:32.999Z</time></trkpt><trkpt lat="44.16161044963887" lon="9.88499387665373"><ele>21.5</ele><time>2026-04-07T08:31:33.999Z</time></trkpt><trkpt lat="44.16147104375661" lon="9.885335967185569"><ele>22.0</ele><time>2026-04-07T08:31:34.999Z</time></trkpt><trkpt lat="44.16133065417475" lon="9.885679405692514"><ele>21.5</ele><time>2026-04-07T08:31:35.999Z</time></trkpt><trkpt lat="44.16119354447487" lon="9.88602175923743"><ele>21.0</ele><time>2026-04-07T08:31:36.999Z</time></trkpt><trkpt lat="44.1610583261126" lon="9.886363924612269"><ele>21.0</ele><time>2026-04-07T08:31:37.999Z</time></trkpt><trkpt lat="44.16093112654453" lon="9.886692023423537"><ele>21.0</ele><time>2026-04-07T08:31:38.999Z</time></trkpt><trkpt lat="44.16081067492019" lon="9.887004935811252"><ele>20.5</ele><time>2026-04-07T08:31:39.999Z</time></trkpt><trkpt lat="44.160688576285914" lon="9.887326445171414"><ele>20.0</ele><time>2026-04-07T08:31:40.999Z</time></trkpt><trkpt lat="44.160565462071325" lon="9.887652548085034"><ele>20.0</ele><time>2026-04-07T08:31:41.999Z</time></trkpt><trkpt lat="44.1604392701494" lon="9.887982267890893"><ele>20.0</ele><time>2026-04-07T08:31:42.999Z</time></trkpt><trkpt lat="44.1603141316058" lon="9.8883074516917"><ele>21.5</ele><time>2026-04-07T08:31:43.999Z</time></trkpt><trkpt lat="44.16018825143183" lon="9.888634680715013"><ele>23.0</ele><time>2026-04-07T08:31:44.999Z</time></trkpt><trkpt lat="44.160065030184455" lon="9.888963259042498"><ele>23.0</ele><time>2026-04-07T08:31:45.999Z</time></trkpt><trkpt lat="44.159940095688356" lon="9.889291755487317"><ele>23.0</ele><time>2026-04-07T08:31:46.999Z</time></trkpt><trkpt lat="44.15982152914227" lon="9.889604781662328"><ele>22.5</ele><time>2026-04-07T08:31:47.999Z</time></trkpt><trkpt lat="44.15970288320859" lon="9.889909633331575"><ele>22.0</ele><time>2026-04-07T08:31:48.999Z</time></trkpt><trkpt lat="44.159586223157085" lon="9.890208351096412"><ele>21.5</ele><time>2026-04-07T08:31:49.999Z</time></trkpt><trkpt lat="44.15946949494883" lon="9.890512782616181"><ele>21.0</ele><time>2026-04-07T08:31:50.999Z</time></trkpt><trkpt lat="44.15934855109549" lon="9.890820836374212"><ele>21.5</ele><time>2026-04-07T08:31:51.999Z</time></trkpt><trkpt lat="44.15923415586396" lon="9.89112347382111"><ele>22.0</ele><time>2026-04-07T08:31:52.999Z</time></trkpt><trkpt lat="44.15911793314396" lon="9.891426265510807"><ele>21.0</ele><time>2026-04-07T08:31:53.999Z</time></trkpt><trkpt lat="44.15899957641897" lon="9.891727868166896"><ele>20.0</ele><time>2026-04-07T08:31:54.999Z</time></trkpt><trkpt lat="44.15887909888592" lon="9.892035161017006"><ele>20.0</ele><time>2026-04-07T08:31:55.999Z</time></trkpt><trkpt lat="44.15875869407373" lon="9.892342589838288"><ele>20.0</ele><time>2026-04-07T08:31:56.999Z</time></trkpt><trkpt lat="44.158640272499206" lon="9.892652031340132"><ele>20.5</ele><time>2026-04-07T08:31:57.999Z</time></trkpt><trkpt lat="44.158521222679106" lon="9.892964892725933"><ele>21.0</ele><time>2026-04-07T08:31:58.999Z</time></trkpt><trkpt lat="44.15839812504628" lon="9.89328105480165"><ele>21.5</ele><time>2026-04-07T08:31:59.999Z</time></trkpt><trkpt lat="44.15827645817636" lon="9.893598656933014"><ele>22.0</ele><time>2026-04-07T08:32:00.999Z</time></trkpt><trkpt lat="44.15815418450121" lon="9.893914103253572"><ele>22.5</ele><time>2026-04-07T08:32:01.999Z</time></trkpt><trkpt lat="44.15802863246883" lon="9.894235764896994"><ele>23.0</ele><time>2026-04-07T08:32:02.999Z</time></trkpt><trkpt lat="44.15790419593324" lon="9.894556867764521"><ele>23.0</ele><time>2026-04-07T08:32:03.999Z</time></trkpt><trkpt lat="44.15778110598299" lon="9.894883444377857"><ele>23.0</ele><time>2026-04-07T08:32:04.999Z</time></trkpt><trkpt lat="44.157656920970666" lon="9.895212519737495"><ele>23.5</ele><time>2026-04-07T08:32:05.999Z</time></trkpt><trkpt lat="44.15753162388114" lon="9.895540287428153"><ele>24.0</ele><time>2026-04-07T08:32:06.999Z</time></trkpt><trkpt lat="44.157404558689706" lon="9.89586912705404"><ele>23.0</ele><time>2026-04-07T08:32:07.999Z</time></trkpt><trkpt lat="44.15727672427612" lon="9.896190994788112"><ele>22.0</ele><time>2026-04-07T08:32:08.999Z</time></trkpt><trkpt lat="44.15715607827401" lon="9.896496288258652"><ele>22.5</ele><time>2026-04-07T08:32:10Z</time></trkpt><trkpt lat="44.15703892983848" lon="9.896782338092295"><ele>23.0</ele><time>2026-04-07T08:32:11Z</time></trkpt><trkpt lat="44.15691571847465" lon="9.897078972339804"><ele>23.0</ele><time>2026-04-07T08:32:12Z</time></trkpt><trkpt lat="44.156778634253016" lon="9.897392166427393"><ele>23.0</ele><time>2026-04-07T08:32:13Z</time></trkpt><trkpt lat="44.156632765296195" lon="9.897704812149872"><ele>22.0</ele><time>2026-04-07T08:32:14Z</time></trkpt><trkpt lat="44.156488888196705" lon="9.898001599296313"><ele>21.0</ele><time>2026-04-07T08:32:15Z</time></trkpt><trkpt lat="44.15634794736235" lon="9.89828015908843"><ele>21.5</ele><time>2026-04-07T08:32:16Z</time></trkpt><trkpt lat="44.156202412992684" lon="9.898562191832896"><ele>22.0</ele><time>2026-04-07T08:32:17Z</time></trkpt><trkpt lat="44.15604984575589" lon="9.898841773259402"><ele>22.0</ele><time>2026-04-07T08:32:18Z</time></trkpt><trkpt lat="44.15589276635464" lon="9.899124234537455"><ele>22.0</ele><time>2026-04-07T08:32:19Z</time></trkpt><trkpt lat="44.15573003175463" lon="9.89939512242877"><ele>22.0</ele><time>2026-04-07T08:32:20Z</time></trkpt><trkpt lat="44.15556618979508" lon="9.899666561808612"><ele>22.0</ele><time>2026-04-07T08:32:21Z</time></trkpt><trkpt lat="44.15539418311201" lon="9.899932291734872"><ele>23.5</ele><time>2026-04-07T08:32:22Z</time></trkpt><trkpt lat="44.15521664996014" lon="9.900200437820168"><ele>25.0</ele><time>2026-04-07T08:32:23Z</time></trkpt><trkpt lat="44.155036540475514" lon="9.900465721831631"><ele>24.5</ele><time>2026-04-07T08:32:24Z</time></trkpt><trkpt lat="44.15485523752758" lon="9.900728244537543"><ele>24.0</ele><time>2026-04-07T08:32:25Z</time></trkpt><trkpt lat="44.15467637065844" lon="9.900989180432404"><ele>24.0</ele><time>2026-04-07T08:32:26Z</time></trkpt><trkpt lat="44.154484966546065" lon="9.901246092470286"><ele>24.0</ele><time>2026-04-07T08:32:27Z</time></trkpt><trkpt lat="44.154290537367736" lon="9.901492467922433"><ele>24.0</ele><time>2026-04-07T08:32:28Z</time></trkpt><trkpt lat="44.154086736554184" lon="9.9017323161273"><ele>24.0</ele><time>2026-04-07T08:32:29Z</time></trkpt><trkpt lat="44.153880979180784" lon="9.901969058818427"><ele>23.0</ele><time>2026-04-07T08:32:30Z</time></trkpt><trkpt lat="44.15367495008919" lon="9.902206762433709"><ele>22.0</ele><time>2026-04-07T08:32:31Z</time></trkpt><trkpt lat="44.15346899302465" lon="9.902443104795381"><ele>21.0</ele><time>2026-04-07T08:32:32Z</time></trkpt><trkpt lat="44.15325914195502" lon="9.902671187941769"><ele>20.0</ele><time>2026-04-07T08:32:33Z</time></trkpt><trkpt lat="44.15305333994687" lon="9.902878563989415"><ele>20.0</ele><time>2026-04-07T08:32:34Z</time></trkpt><trkpt lat="44.15285933302946" lon="9.903068617727529"><ele>20.0</ele><time>2026-04-07T08:32:35Z</time></trkpt><trkpt lat="44.152655031539986" lon="9.903247301809559"><ele>19.5</ele><time>2026-04-07T08:32:36Z</time></trkpt><trkpt lat="44.15245051255621" lon="9.903433689075172"><ele>19.0</ele><time>2026-04-07T08:32:37Z</time></trkpt><trkpt lat="44.152238924629096" lon="9.903620329008707"><ele>21.5</ele><time>2026-04-07T08:32:38Z</time></trkpt><trkpt lat="44.152028057663834" lon="9.90380520922534"><ele>24.0</ele><time>2026-04-07T08:32:39Z</time></trkpt><trkpt lat="44.151812494839604" lon="9.90399024761771"><ele>24.0</ele><time>2026-04-07T08:32:40Z</time></trkpt><trkpt lat="44.15159170347082" lon="9.904165479110462"><ele>24.0</ele><time>2026-04-07T08:32:41Z</time></trkpt><trkpt lat="44.15137278668444" lon="9.904336033853854"><ele>21.0</ele><time>2026-04-07T08:32:42Z</time></trkpt><trkpt lat="44.15115095179114" lon="9.904507789317158"><ele>18.0</ele><time>2026-04-07T08:32:43Z</time></trkpt><trkpt lat="44.15092884837046" lon="9.90468100543117"><ele>18.0</ele><time>2026-04-07T08:32:44Z</time></trkpt><trkpt lat="44.15070859851702" lon="9.904854521604019"><ele>18.0</ele><time>2026-04-07T08:32:45Z</time></trkpt><trkpt lat="44.150487364975746" lon="9.90502837206068"><ele>17.5</ele><time>2026-04-07T08:32:46Z</time></trkpt><trkpt lat="44.15026234904523" lon="9.90520399521267"><ele>17.0</ele><time>2026-04-07T08:32:47Z</time></trkpt><trkpt lat="44.15003887606677" lon="9.90537648587249"><ele>16.0</ele><time>2026-04-07T08:32:48Z</time></trkpt><trkpt lat="44.14981354136848" lon="9.905549533960876"><ele>15.0</ele><time>2026-04-07T08:32:49Z</time></trkpt><trkpt lat="44.14959101454041" lon="9.905721448147421"><ele>15.0</ele><time>2026-04-07T08:32:50Z</time></trkpt><trkpt lat="44.14936928246237" lon="9.905896435362138"><ele>15.0</ele><time>2026-04-07T08:32:51Z</time></trkpt><trkpt lat="44.1491504491032" lon="9.906071043963708"><ele>15.0</ele><time>2026-04-07T08:32:52Z</time></trkpt><trkpt lat="44.14892847918131" lon="9.906244867479169"><ele>15.0</ele><time>2026-04-07T08:32:53Z</time></trkpt><trkpt lat="44.148701670809714" lon="9.906419187320875"><ele>15.0</ele><time>2026-04-07T08:32:54Z</time></trkpt><trkpt lat="44.14847254957987" lon="9.906593250268905"><ele>15.0</ele><time>2026-04-07T08:32:55Z</time></trkpt><trkpt lat="44.148242755533246" lon="9.906767535160249"><ele>15.0</ele><time>2026-04-07T08:32:56Z</time></trkpt><trkpt lat="44.1480142632674" lon="9.9069438336084"><ele>15.0</ele><time>2026-04-07T08:32:57Z</time></trkpt><trkpt lat="44.14778893574691" lon="9.90712246604091"><ele>15.0</ele><time>2026-04-07T08:32:58Z</time></trkpt><trkpt lat="44.14756816581134" lon="9.907298192787382"><ele>15.0</ele><time>2026-04-07T08:32:59Z</time></trkpt><trkpt lat="44.147360978789216" lon="9.907457489208278"><ele>14.5</ele><time>2026-04-07T08:33:00Z</time></trkpt><trkpt lat="44.147154027839626" lon="9.907616720654985"><ele>14.0</ele><time>2026-04-07T08:33:01Z</time></trkpt><trkpt lat="44.14694568472078" lon="9.907781325294966"><ele>14.0</ele><time>2026-04-07T08:33:02Z</time></trkpt><trkpt lat="44.146734771906836" lon="9.907946496781326"><ele>14.0</ele><time>2026-04-07T08:33:03Z</time></trkpt><trkpt lat="44.14652441101404" lon="9.908108482397257"><ele>13.5</ele><time>2026-04-07T08:33:04Z</time></trkpt><trkpt lat="44.14631378250519" lon="9.908272348191227"><ele>13.0</ele><time>2026-04-07T08:33:05Z</time></trkpt><trkpt lat="44.14610477969097" lon="9.908433778205957"><ele>12.5</ele><time>2026-04-07T08:33:06Z</time></trkpt><trkpt lat="44.14589290948246" lon="9.9085985738512"><ele>12.0</ele><time>2026-04-07T08:33:07Z</time></trkpt><trkpt lat="44.145680311857625" lon="9.908762211049517"><ele>13.5</ele><time>2026-04-07T08:33:08Z</time></trkpt><trkpt lat="44.14546847865623" lon="9.908925652949796"><ele>15.0</ele><time>2026-04-07T08:33:09Z</time></trkpt><trkpt lat="44.14525334536546" lon="9.909091031344957"><ele>15.0</ele><time>2026-04-07T08:33:10Z</time></trkpt><trkpt lat="44.14504016502203" lon="9.909259563841816"><ele>15.0</ele><time>2026-04-07T08:33:11Z</time></trkpt><trkpt lat="44.14482542788017" lon="9.909431375909131"><ele>15.5</ele><time>2026-04-07T08:33:12Z</time></trkpt><trkpt lat="44.144609204401924" lon="9.909601193093332"><ele>16.0</ele><time>2026-04-07T08:33:13Z</time></trkpt><trkpt lat="44.14438967339449" lon="9.909768242860629"><ele>16.0</ele><time>2026-04-07T08:33:14Z</time></trkpt><trkpt lat="44.144171208389935" lon="9.909932692944174"><ele>16.0</ele><time>2026-04-07T08:33:15Z</time></trkpt><trkpt lat="44.14394759993266" lon="9.910109040438396"><ele>18.0</ele><time>2026-04-07T08:33:16Z</time></trkpt><trkpt lat="44.14372439908161" lon="9.910287413099143"><ele>20.0</ele><time>2026-04-07T08:33:17Z</time></trkpt><trkpt lat="44.14349942847078" lon="9.91046392033857"><ele>20.0</ele><time>2026-04-07T08:33:18Z</time></trkpt><trkpt lat="44.14327116932978" lon="9.910643110974169"><ele>20.0</ele><time>2026-04-07T08:33:19Z</time></trkpt><trkpt lat="44.143041876298234" lon="9.910821733453407"><ele>19.0</ele><time>2026-04-07T08:33:20Z</time></trkpt><trkpt lat="44.14281106236245" lon="9.91100278952331"><ele>18.0</ele><time>2026-04-07T08:33:21Z</time></trkpt><trkpt lat="44.14258280898507" lon="9.911180289815265"><ele>17.0</ele><time>2026-04-07T08:33:22Z</time></trkpt><trkpt lat="44.142351134288624" lon="9.911360728290115"><ele>16.0</ele><time>2026-04-07T08:33:23Z</time></trkpt><trkpt lat="44.142117022009586" lon="9.911537812076531"><ele>16.0</ele><time>2026-04-07T08:33:24Z</time></trkpt><trkpt lat="44.141893923628544" lon="9.911709464160648"><ele>16.0</ele><time>2026-04-07T08:33:25Z</time></trkpt><trkpt lat="44.14168431420811" lon="9.911871300137896"><ele>15.5</ele><time>2026-04-07T08:33:26Z</time></trkpt><trkpt lat="44.14148500529347" lon="9.912035901727162"><ele>15.0</ele><time>2026-04-07T08:33:27Z</time></trkpt><trkpt lat="44.14128242787878" lon="9.912208119130282"><ele>15.0</ele><time>2026-04-07T08:33:28Z</time></trkpt><trkpt lat="44.14107842988924" lon="9.912392729457496"><ele>15.0</ele><time>2026-04-07T08:33:29Z</time></trkpt><trkpt lat="44.140876473738864" lon="9.91257686046684"><ele>15.5</ele><time>2026-04-07T08:33:30Z</time></trkpt><trkpt lat="44.140673396725404" lon="9.912768829009684"><ele>16.0</ele><time>2026-04-07T08:33:31Z</time></trkpt><trkpt lat="44.140468277318774" lon="9.912968314746355"><ele>16.0</ele><time>2026-04-07T08:33:32Z</time></trkpt><trkpt lat="44.14027045086974" lon="9.913162581580526"><ele>16.0</ele><time>2026-04-07T08:33:33Z</time></trkpt><trkpt lat="44.140072049285756" lon="9.913363463832335"><ele>15.666666666666666</ele><time>2026-04-07T08:33:34Z</time></trkpt><trkpt lat="44.13989543767591" lon="9.913548289068242"><ele>15.333333333333332</ele><time>2026-04-07T08:33:34.999Z</time></trkpt><trkpt lat="44.139725074996186" lon="9.91372451624666"><ele>15.0</ele><time>2026-04-07T08:33:35.999Z</time></trkpt><trkpt lat="44.13956802488111" lon="9.91388680953271"><ele>14.666666666666668</ele><time>2026-04-07T08:33:36.999Z</time></trkpt><trkpt lat="44.13941506850799" lon="9.914057881439001"><ele>14.333333333333334</ele><time>2026-04-07T08:33:37.999Z</time></trkpt><trkpt lat="44.13926053340315" lon="9.914227759427563"><ele>14.0</ele><time>2026-04-07T08:33:38.999Z</time></trkpt><trkpt lat="44.1391240742274" lon="9.91438771050013"><ele>14.0</ele><time>2026-04-07T08:33:39.999Z</time></trkpt><trkpt lat="44.138996240570854" lon="9.914530953352362"><ele>14.0</ele><time>2026-04-07T08:33:40.999Z</time></trkpt><trkpt lat="44.13888559361828" lon="9.914660997809584"><ele>14.0</ele><time>2026-04-07T08:33:41.999Z</time></trkpt><trkpt lat="44.13877133692241" lon="9.914800397955505"><ele>14.0</ele><time>2026-04-07T08:33:42.999Z</time></trkpt><trkpt lat="44.138666639412975" lon="9.914917238107586"><ele>14.0</ele><time>2026-04-07T08:33:43.999Z</time></trkpt><trkpt lat="44.138536441118525" lon="9.915079141788468"><ele>14.0</ele><time>2026-04-07T08:33:44.999Z</time></trkpt><trkpt lat="44.138414736095534" lon="9.915201856336685"><ele>14.0</ele><time>2026-04-07T08:33:45.999Z</time></trkpt><trkpt lat="44.138294115909" lon="9.915311173090931"><ele>14.0</ele><time>2026-04-07T08:33:46.999Z</time></trkpt><trkpt lat="44.13818266922991" lon="9.91541165534622"><ele>14.0</ele><time>2026-04-07T08:33:47.999Z</time></trkpt><trkpt lat="44.1380812023626" lon="9.91550105638229"><ele>14.0</ele><time>2026-04-07T08:33:48.999Z</time></trkpt><trkpt lat="44.13799155574945" lon="9.915590316134592"><ele>14.0</ele><time>2026-04-07T08:33:49.999Z</time></trkpt><trkpt lat="44.137910957870076" lon="9.915679505919305"><ele>14.0</ele><time>2026-04-07T08:33:50.999Z</time></trkpt><trkpt lat="44.13781543075215" lon="9.915759537452042"><ele>14.0</ele><time>2026-04-07T08:33:51.999Z</time></trkpt><trkpt lat="44.13770097662962" lon="9.915911112806787"><ele>14.0</ele><time>2026-04-07T08:33:52.999Z</time></trkpt><trkpt lat="44.137609079357716" lon="9.915984999034713"><ele>14.0</ele><time>2026-04-07T08:33:53.999Z</time></trkpt><trkpt lat="44.1375179148229" lon="9.916068875084298"><ele>13.999999999999998</ele><time>2026-04-07T08:33:54.999Z</time></trkpt><trkpt lat="44.137437834079186" lon="9.916134511006264"><ele>13.999999999999998</ele><time>2026-04-07T08:33:55.999Z</time></trkpt><trkpt lat="44.137369747841085" lon="9.916177355134584"><ele>14.0</ele><time>2026-04-07T08:33:56.999Z</time></trkpt><trkpt lat="44.13730077873683" lon="9.916219556093438"><ele>14.0</ele><time>2026-04-07T08:33:58.999Z</time></trkpt><trkpt lat="44.1372348955544" lon="9.916112418901665"><ele>14.000000000000002</ele><time>2026-04-07T08:34:11.999Z</time></trkpt><trkpt lat="44.13727517272481" lon="9.916025361481955"><ele>14.0</ele><time>2026-04-07T08:36:12.999Z</time></trkpt><trkpt lat="44.13732492899102" lon="9.915962632344318"><ele>14.0</ele><time>2026-04-07T08:36:20.999Z</time></trkpt><trkpt lat="44.13731285384021" lon="9.915838611958598"><ele>14.0</ele><time>2026-04-07T08:36:26Z</time></trkpt><trkpt lat="44.13736133057271" lon="9.915762452730789"><ele>14.000000000000002</ele><time>2026-04-07T08:36:34Z</time></trkpt><trkpt lat="44.137417678141084" lon="9.915693395456977"><ele>14.0</ele><time>2026-04-07T08:37:37Z</time></trkpt><trkpt lat="44.13748720512289" lon="9.915654510043131"><ele>14.0</ele><time>2026-04-07T08:37:39Z</time></trkpt><trkpt lat="44.13754286226231" lon="9.915611292631105"><ele>13.999999999999998</ele><time>2026-04-07T08:37:44.019Z</time></trkpt><trkpt lat="44.13736217295853" lon="9.915784197312123"><ele>13.999999999999998</ele><time>2026-04-07T08:37:55.33Z</time></trkpt><trkpt lat="44.137290201084916" lon="9.91582058106988"><ele>14.0</ele><time>2026-04-07T08:42:39Z</time></trkpt><trkpt lat="44.13724501896668" lon="9.915883063554496"><ele>14.0</ele><time>2026-04-07T08:42:43Z</time></trkpt><trkpt lat="44.13719546172276" lon="9.915957356306215"><ele>14.0</ele><time>2026-04-07T08:42:47Z</time></trkpt><trkpt lat="44.137159452231245" lon="9.916046411519439"><ele>14.0</ele><time>2026-04-07T08:42:56Z</time></trkpt><trkpt lat="44.13720387517372" lon="9.916112184461584"><ele>14.0</ele><time>2026-04-07T08:49:17Z</time></trkpt><trkpt lat="44.137153403120934" lon="9.916232481238797"><ele>14.0</ele><time>2026-04-07T08:49:30Z</time></trkpt><trkpt lat="44.137102121113735" lon="9.91629487330077"><ele>14.0</ele><time>2026-04-07T08:49:32Z</time></trkpt><trkpt lat="44.13705664735654" lon="9.916366686924798"><ele>14.0</ele><time>2026-04-07T08:49:33Z</time></trkpt><trkpt lat="44.13700970176975" lon="9.916426990074646"><ele>14.0</ele><time>2026-04-07T08:49:34Z</time></trkpt><trkpt lat="44.1369211223088" lon="9.916564616602733"><ele>14.0</ele><time>2026-04-07T08:49:36Z</time></trkpt><trkpt lat="44.13688252371323" lon="9.916704889548308"><ele>14.0</ele><time>2026-04-07T08:49:37Z</time></trkpt><trkpt lat="44.136805257868474" lon="9.91680823191793"><ele>14.0</ele><time>2026-04-07T08:49:38Z</time></trkpt><trkpt lat="44.13673345779068" lon="9.916948431129617"><ele>14.0</ele><time>2026-04-07T08:49:39Z</time></trkpt><trkpt lat="44.13665872549601" lon="9.917076357907474"><ele>13.75</ele><time>2026-04-07T08:49:40Z</time></trkpt><trkpt lat="44.136593968576236" lon="9.917202490716859"><ele>13.5</ele><time>2026-04-07T08:49:41Z</time></trkpt><trkpt lat="44.136532149819224" lon="9.917343249222586"><ele>13.25</ele><time>2026-04-07T08:49:42Z</time></trkpt><trkpt lat="44.13647196762914" lon="9.917474102236913"><ele>13.0</ele><time>2026-04-07T08:49:43Z</time></trkpt><trkpt lat="44.136412812579046" lon="9.91761009425094"><ele>12.5</ele><time>2026-04-07T08:49:44Z</time></trkpt><trkpt lat="44.13634956222182" lon="9.917757196453847"><ele>12.0</ele><time>2026-04-07T08:49:45Z</time></trkpt><trkpt lat="44.13628782680195" lon="9.917887758946032"><ele>11.5</ele><time>2026-04-07T08:49:46Z</time></trkpt><trkpt lat="44.136215195143926" lon="9.918017644059052"><ele>11.0</ele><time>2026-04-07T08:49:47Z</time></trkpt><trkpt lat="44.13615053165674" lon="9.918128350324606"><ele>11.0</ele><time>2026-04-07T08:49:47.999Z</time></trkpt><trkpt lat="44.13605735975639" lon="9.918254397669532"><ele>11.0</ele><time>2026-04-07T08:49:48.999Z</time></trkpt><trkpt lat="44.13595914747895" lon="9.918384810983984"><ele>11.0</ele><time>2026-04-07T08:49:49.999Z</time></trkpt><trkpt lat="44.13585542471096" lon="9.918522426277717"><ele>11.0</ele><time>2026-04-07T08:49:50.999Z</time></trkpt><trkpt lat="44.135763790577165" lon="9.918661264458928"><ele>12.0</ele><time>2026-04-07T08:49:51.999Z</time></trkpt><trkpt lat="44.13563967762708" lon="9.918830193125615"><ele>13.0</ele><time>2026-04-07T08:49:52.999Z</time></trkpt><trkpt lat="44.135522054813485" lon="9.918995207724702"><ele>14.0</ele><time>2026-04-07T08:49:53.999Z</time></trkpt><trkpt lat="44.13538716957318" lon="9.91917749109814"><ele>14.0</ele><time>2026-04-07T08:49:54.999Z</time></trkpt><trkpt lat="44.13523889552731" lon="9.919375166214984"><ele>14.0</ele><time>2026-04-07T08:49:55.999Z</time></trkpt><trkpt lat="44.1350822087689" lon="9.919575939112514"><ele>14.0</ele><time>2026-04-07T08:49:56.999Z</time></trkpt><trkpt lat="44.13492845821666" lon="9.919769449452852"><ele>13.333333333333334</ele><time>2026-04-07T08:49:57.999Z</time></trkpt><trkpt lat="44.13478056205093" lon="9.919959269872"><ele>12.666666666666668</ele><time>2026-04-07T08:49:58.999Z</time></trkpt><trkpt lat="44.13462763932806" lon="9.920154096010743"><ele>12.0</ele><time>2026-04-07T08:49:59.999Z</time></trkpt><trkpt lat="44.13447029364266" lon="9.920353004413045"><ele>11.333333333333334</ele><time>2026-04-07T08:50:00.999Z</time></trkpt><trkpt lat="44.1343044150374" lon="9.92056353801836"><ele>10.666666666666668</ele><time>2026-04-07T08:50:01.999Z</time></trkpt><trkpt lat="44.13414817381048" lon="9.920777416773841"><ele>10.0</ele><time>2026-04-07T08:50:02.999Z</time></trkpt><trkpt lat="44.133981308162305" lon="9.920997572067078"><ele>10.0</ele><time>2026-04-07T08:50:03.999Z</time></trkpt><trkpt lat="44.13380989690476" lon="9.921217441799238"><ele>10.0</ele><time>2026-04-07T08:50:04.999Z</time></trkpt><trkpt lat="44.133632978838264" lon="9.92144416725484"><ele>10.0</ele><time>2026-04-07T08:50:05.999Z</time></trkpt><trkpt lat="44.133444058633685" lon="9.92167550943243"><ele>10.0</ele><time>2026-04-07T08:50:06.999Z</time></trkpt><trkpt lat="44.13325245423453" lon="9.92191662693858"><ele>9.5</ele><time>2026-04-07T08:50:07.999Z</time></trkpt><trkpt lat="44.13305877751489" lon="9.92216751429861"><ele>9.0</ele><time>2026-04-07T08:50:08.999Z</time></trkpt><trkpt lat="44.132859189474495" lon="9.922425267244584"><ele>10.5</ele><time>2026-04-07T08:50:09.999Z</time></trkpt><trkpt lat="44.132658326307514" lon="9.92268520533307"><ele>12.0</ele><time>2026-04-07T08:50:10.999Z</time></trkpt><trkpt lat="44.13245539958207" lon="9.92295484869858"><ele>12.0</ele><time>2026-04-07T08:50:11.999Z</time></trkpt><trkpt lat="44.132245487911405" lon="9.923223198480706"><ele>12.0</ele><time>2026-04-07T08:50:12.999Z</time></trkpt><trkpt lat="44.132054321192854" lon="9.923469284667872"><ele>12.5</ele><time>2026-04-07T08:50:13.999Z</time></trkpt><trkpt lat="44.131878755981006" lon="9.923689664712498"><ele>13.0</ele><time>2026-04-07T08:50:14.999Z</time></trkpt><trkpt lat="44.13169965417299" lon="9.923917739230284"><ele>12.5</ele><time>2026-04-07T08:50:15.999Z</time></trkpt><trkpt lat="44.13152202620851" lon="9.924147464498025"><ele>12.0</ele><time>2026-04-07T08:50:16.999Z</time></trkpt><trkpt lat="44.131344035105414" lon="9.92437270975464"><ele>12.0</ele><time>2026-04-07T08:50:17.999Z</time></trkpt><trkpt lat="44.13116664326627" lon="9.924598116746466"><ele>12.0</ele><time>2026-04-07T08:50:18.999Z</time></trkpt><trkpt lat="44.13099154831784" lon="9.924823241733163"><ele>12.0</ele><time>2026-04-07T08:50:19.999Z</time></trkpt><trkpt lat="44.13081623400826" lon="9.925049674457759"><ele>12.0</ele><time>2026-04-07T08:50:20.999Z</time></trkpt><trkpt lat="44.13063870988103" lon="9.925277912663098"><ele>11.5</ele><time>2026-04-07T08:50:21.999Z</time></trkpt><trkpt lat="44.13046358689474" lon="9.925507276362568"><ele>11.0</ele><time>2026-04-07T08:50:22.999Z</time></trkpt><trkpt lat="44.13028523100488" lon="9.925736764183789"><ele>11.5</ele><time>2026-04-07T08:50:23.999Z</time></trkpt><trkpt lat="44.130105212412566" lon="9.925968552832384"><ele>12.0</ele><time>2026-04-07T08:50:24.999Z</time></trkpt><trkpt lat="44.12992416312056" lon="9.926201216328016"><ele>11.0</ele><time>2026-04-07T08:50:25.999Z</time></trkpt><trkpt lat="44.12974222450594" lon="9.926437175568292"><ele>10.0</ele><time>2026-04-07T08:50:26.999Z</time></trkpt><trkpt lat="44.129557966311204" lon="9.926672566182962"><ele>11.0</ele><time>2026-04-07T08:50:27.999Z</time></trkpt><trkpt lat="44.12937324655057" lon="9.92691491494499"><ele>12.0</ele><time>2026-04-07T08:50:28.999Z</time></trkpt><trkpt lat="44.12918494271212" lon="9.927164973025972"><ele>12.0</ele><time>2026-04-07T08:50:29.999Z</time></trkpt><trkpt lat="44.12899108573218" lon="9.927419733086618"><ele>12.0</ele><time>2026-04-07T08:50:30.999Z</time></trkpt><trkpt lat="44.12879402098982" lon="9.927673781014553"><ele>12.0</ele><time>2026-04-07T08:50:31.999Z</time></trkpt><trkpt lat="44.12859291415143" lon="9.927940657729426"><ele>12.0</ele><time>2026-04-07T08:50:32.999Z</time></trkpt><trkpt lat="44.12839025213549" lon="9.928213639690723"><ele>10.5</ele><time>2026-04-07T08:50:33.999Z</time></trkpt><trkpt lat="44.128175303913174" lon="9.928493697731183"><ele>9.0</ele><time>2026-04-07T08:50:34.999Z</time></trkpt><trkpt lat="44.127950695143674" lon="9.928778889475765"><ele>9.0</ele><time>2026-04-07T08:50:35.999Z</time></trkpt><trkpt lat="44.12772137460845" lon="9.929072379850588"><ele>9.0</ele><time>2026-04-07T08:50:36.999Z</time></trkpt><trkpt lat="44.12748991879402" lon="9.929370089183918"><ele>10.0</ele><time>2026-04-07T08:50:37.999Z</time></trkpt><trkpt lat="44.127255644728514" lon="9.929667738723001"><ele>11.0</ele><time>2026-04-07T08:50:38.999Z</time></trkpt><trkpt lat="44.12702678553975" lon="9.929959437535745"><ele>12.0</ele><time>2026-04-07T08:50:39.999Z</time></trkpt><trkpt lat="44.12681783167456" lon="9.930231862689439"><ele>13.0</ele><time>2026-04-07T08:50:40.999Z</time></trkpt><trkpt lat="44.126608863397166" lon="9.93049977002447"><ele>12.5</ele><time>2026-04-07T08:50:41.999Z</time></trkpt><trkpt lat="44.126398737786026" lon="9.930768768484144"><ele>12.0</ele><time>2026-04-07T08:50:42.999Z</time></trkpt><trkpt lat="44.12618632596615" lon="9.931040297486133"><ele>12.0</ele><time>2026-04-07T08:50:43.999Z</time></trkpt><trkpt lat="44.12597177032685" lon="9.931316334894028"><ele>12.0</ele><time>2026-04-07T08:50:44.999Z</time></trkpt><trkpt lat="44.125755572854615" lon="9.93159822735953"><ele>10.5</ele><time>2026-04-07T08:50:45.999Z</time></trkpt><trkpt lat="44.12553955008113" lon="9.931877509043922"><ele>9.0</ele><time>2026-04-07T08:50:46.999Z</time></trkpt><trkpt lat="44.125320292390974" lon="9.93215693301592"><ele>9.0</ele><time>2026-04-07T08:50:47.999Z</time></trkpt><trkpt lat="44.125097013293406" lon="9.932440080224298"><ele>9.0</ele><time>2026-04-07T08:50:48.999Z</time></trkpt><trkpt lat="44.12487274971923" lon="9.932727527983447"><ele>10.0</ele><time>2026-04-07T08:50:49.999Z</time></trkpt><trkpt lat="44.124643032222174" lon="9.933023209619252"><ele>11.0</ele><time>2026-04-07T08:50:50.999Z</time></trkpt><trkpt lat="44.12440956263235" lon="9.933321413916214"><ele>11.0</ele><time>2026-04-07T08:50:51.999Z</time></trkpt><trkpt lat="44.12416751032375" lon="9.933620276878543"><ele>11.0</ele><time>2026-04-07T08:50:52.999Z</time></trkpt><trkpt lat="44.123917098728334" lon="9.93391559156403"><ele>10.5</ele><time>2026-04-07T08:50:53.999Z</time></trkpt><trkpt lat="44.12366231754931" lon="9.934196969347548"><ele>10.0</ele><time>2026-04-07T08:50:54.999Z</time></trkpt><trkpt lat="44.12342152271486" lon="9.934453367728187"><ele>9.5</ele><time>2026-04-07T08:50:55.999Z</time></trkpt><trkpt lat="44.123187814187425" lon="9.934694099827102"><ele>9.0</ele><time>2026-04-07T08:50:56.999Z</time></trkpt><trkpt lat="44.12294581197117" lon="9.934942217886183"><ele>9.0</ele><time>2026-04-07T08:50:58Z</time></trkpt><trkpt lat="44.122693982907755" lon="9.93519061247378"><ele>9.0</ele><time>2026-04-07T08:50:59Z</time></trkpt><trkpt lat="44.122437578346506" lon="9.935434726454641"><ele>9.0</ele><time>2026-04-07T08:51:00Z</time></trkpt><trkpt lat="44.12217569154961" lon="9.935671709440255"><ele>9.0</ele><time>2026-04-07T08:51:01Z</time></trkpt><trkpt lat="44.12190772568944" lon="9.935904697549807"><ele>9.0</ele><time>2026-04-07T08:51:02Z</time></trkpt><trkpt lat="44.12163770665211" lon="9.93613466181582"><ele>9.0</ele><time>2026-04-07T08:51:03Z</time></trkpt><trkpt lat="44.1213636919783" lon="9.936359913153312"><ele>9.0</ele><time>2026-04-07T08:51:04Z</time></trkpt><trkpt lat="44.12108573464052" lon="9.936573767888124"><ele>9.0</ele><time>2026-04-07T08:51:05Z</time></trkpt><trkpt lat="44.12080415681903" lon="9.936781872061285"><ele>9.0</ele><time>2026-04-07T08:51:06Z</time></trkpt><trkpt lat="44.120517324303314" lon="9.936977603907687"><ele>9.0</ele><time>2026-04-07T08:51:07Z</time></trkpt><trkpt lat="44.12022932317985" lon="9.937172345716073"><ele>9.0</ele><time>2026-04-07T08:51:08Z</time></trkpt><trkpt lat="44.119936242998776" lon="9.937362449441272"><ele>9.0</ele><time>2026-04-07T08:51:09Z</time></trkpt><trkpt lat="44.119641793430205" lon="9.937547443945556"><ele>9.5</ele><time>2026-04-07T08:51:10Z</time></trkpt><trkpt lat="44.11934581383517" lon="9.937720503997998"><ele>10.0</ele><time>2026-04-07T08:51:11Z</time></trkpt><trkpt lat="44.11904501222283" lon="9.937876624687362"><ele>10.0</ele><time>2026-04-07T08:51:12Z</time></trkpt><trkpt lat="44.11877442044491" lon="9.93803184676817"><ele>10.0</ele><time>2026-04-07T08:51:13Z</time></trkpt><trkpt lat="44.11851443819452" lon="9.938169255561125"><ele>10.0</ele><time>2026-04-07T08:51:14Z</time></trkpt><trkpt lat="44.118250504817226" lon="9.93832205259077"><ele>10.0</ele><time>2026-04-07T08:51:15Z</time></trkpt><trkpt lat="44.117980379677" lon="9.938478444830883"><ele>10.0</ele><time>2026-04-07T08:51:16Z</time></trkpt><trkpt lat="44.11770972076682" lon="9.93863522429754"><ele>10.0</ele><time>2026-04-07T08:51:17Z</time></trkpt><trkpt lat="44.11743902537854" lon="9.93879544789166"><ele>9.5</ele><time>2026-04-07T08:51:18Z</time></trkpt><trkpt lat="44.11717184044081" lon="9.938952423765903"><ele>9.0</ele><time>2026-04-07T08:51:19Z</time></trkpt><trkpt lat="44.11690415864116" lon="9.939112115876066"><ele>9.0</ele><time>2026-04-07T08:51:20Z</time></trkpt><trkpt lat="44.11663685692552" lon="9.939272732727217"><ele>9.0</ele><time>2026-04-07T08:51:21Z</time></trkpt><trkpt lat="44.11636868674735" lon="9.9394328980446"><ele>9.0</ele><time>2026-04-07T08:51:22Z</time></trkpt><trkpt lat="44.11609795332411" lon="9.939593627306964"><ele>9.0</ele><time>2026-04-07T08:51:23Z</time></trkpt><trkpt lat="44.1158304817663" lon="9.939749967378201"><ele>8.5</ele><time>2026-04-07T08:51:24Z</time></trkpt><trkpt lat="44.11556306059691" lon="9.939903603605774"><ele>8.0</ele><time>2026-04-07T08:51:25Z</time></trkpt><trkpt lat="44.115296654107716" lon="9.940059302167239"><ele>7.5</ele><time>2026-04-07T08:51:26Z</time></trkpt><trkpt lat="44.115032818487606" lon="9.940212092712677"><ele>7.0</ele><time>2026-04-07T08:51:27Z</time></trkpt><trkpt lat="44.1147681286386" lon="9.94036374191485"><ele>6.5</ele><time>2026-04-07T08:51:28Z</time></trkpt><trkpt lat="44.11450226369013" lon="9.94051553538456"><ele>6.0</ele><time>2026-04-07T08:51:29Z</time></trkpt><trkpt lat="44.11423850999127" lon="9.940668495461363"><ele>6.5</ele><time>2026-04-07T08:51:30Z</time></trkpt><trkpt lat="44.11397361619302" lon="9.940824448676233"><ele>7.0</ele><time>2026-04-07T08:51:31Z</time></trkpt><trkpt lat="44.11370921095543" lon="9.940984027965136"><ele>7.5</ele><time>2026-04-07T08:51:32Z</time></trkpt><trkpt lat="44.11344329366104" lon="9.941142086642138"><ele>8.0</ele><time>2026-04-07T08:51:33Z</time></trkpt><trkpt lat="44.11317611594356" lon="9.941299918068196"><ele>8.0</ele><time>2026-04-07T08:51:34Z</time></trkpt><trkpt lat="44.11291151096459" lon="9.94145964073467"><ele>8.0</ele><time>2026-04-07T08:51:35Z</time></trkpt><trkpt lat="44.11264519301047" lon="9.941617678816579"><ele>9.0</ele><time>2026-04-07T08:51:36Z</time></trkpt><trkpt lat="44.1123769788966" lon="9.941774457740404"><ele>10.0</ele><time>2026-04-07T08:51:37Z</time></trkpt><trkpt lat="44.112103618915604" lon="9.941931073597255"><ele>10.0</ele><time>2026-04-07T08:51:38Z</time></trkpt><trkpt lat="44.111819194231614" lon="9.942098063644286"><ele>10.0</ele><time>2026-04-07T08:51:39Z</time></trkpt><trkpt lat="44.1115253336562" lon="9.942265077867106"><ele>10.0</ele><time>2026-04-07T08:51:40Z</time></trkpt><trkpt lat="44.11122303851042" lon="9.942441516069646"><ele>10.0</ele><time>2026-04-07T08:51:41Z</time></trkpt><trkpt lat="44.11092300170881" lon="9.942624994695773"><ele>11.0</ele><time>2026-04-07T08:51:42Z</time></trkpt><trkpt lat="44.1106135425063" lon="9.942810102822786"><ele>12.0</ele><time>2026-04-07T08:51:43Z</time></trkpt><trkpt lat="44.11031352380147" lon="9.94298756164721"><ele>12.0</ele><time>2026-04-07T08:51:44Z</time></trkpt><trkpt lat="44.110034939787006" lon="9.943150677380768"><ele>12.0</ele><time>2026-04-07T08:51:45Z</time></trkpt><trkpt lat="44.10977242589197" lon="9.943301357463696"><ele>11.0</ele><time>2026-04-07T08:51:46Z</time></trkpt><trkpt lat="44.109509898159565" lon="9.943452811172646"><ele>10.0</ele><time>2026-04-07T08:51:47Z</time></trkpt><trkpt lat="44.10924861239538" lon="9.943602397411667"><ele>9.5</ele><time>2026-04-07T08:51:48Z</time></trkpt><trkpt lat="44.10898634536583" lon="9.943752516744047"><ele>9.0</ele><time>2026-04-07T08:51:49Z</time></trkpt><trkpt lat="44.1087248609303" lon="9.943902926066272"><ele>9.0</ele><time>2026-04-07T08:51:50Z</time></trkpt><trkpt lat="44.10846411310166" lon="9.944055172770394"><ele>9.0</ele><time>2026-04-07T08:51:51Z</time></trkpt><trkpt lat="44.10820498531003" lon="9.94421030306147"><ele>8.5</ele><time>2026-04-07T08:51:52Z</time></trkpt><trkpt lat="44.10794333400898" lon="9.944366643271364"><ele>8.0</ele><time>2026-04-07T08:51:53Z</time></trkpt><trkpt lat="44.10767887596423" lon="9.94452142812935"><ele>8.0</ele><time>2026-04-07T08:51:54Z</time></trkpt><trkpt lat="44.107415448112505" lon="9.944676712136028"><ele>8.0</ele><time>2026-04-07T08:51:55Z</time></trkpt><trkpt lat="44.107150533184026" lon="9.944835006627768"><ele>7.5</ele><time>2026-04-07T08:51:56Z</time></trkpt><trkpt lat="44.106887086144354" lon="9.945009403326623"><ele>7.0</ele><time>2026-04-07T08:51:57Z</time></trkpt><trkpt lat="44.10662017546389" lon="9.9451936597705"><ele>7.0</ele><time>2026-04-07T08:51:58Z</time></trkpt><trkpt lat="44.10634758491762" lon="9.945393077509124"><ele>7.0</ele><time>2026-04-07T08:51:59Z</time></trkpt><trkpt lat="44.1060744428596" lon="9.945609736750066"><ele>7.0</ele><time>2026-04-07T08:52:00Z</time></trkpt><trkpt lat="44.10580589191395" lon="9.94583808408891"><ele>7.0</ele><time>2026-04-07T08:52:01Z</time></trkpt><trkpt lat="44.10553580114922" lon="9.9460787425337"><ele>8.0</ele><time>2026-04-07T08:52:02Z</time></trkpt><trkpt lat="44.1052672697192" lon="9.946332412783669"><ele>9.0</ele><time>2026-04-07T08:52:03Z</time></trkpt><trkpt lat="44.10499912123146" lon="9.946591845189612"><ele>9.5</ele><time>2026-04-07T08:52:03.999Z</time></trkpt><trkpt lat="44.10473914070451" lon="9.9468621311761"><ele>10.0</ele><time>2026-04-07T08:52:04.999Z</time></trkpt><trkpt lat="44.10449617087275" lon="9.947118963695518"><ele>10.0</ele><time>2026-04-07T08:52:05.999Z</time></trkpt><trkpt lat="44.10426360684289" lon="9.947378874160966"><ele>10.0</ele><time>2026-04-07T08:52:06.999Z</time></trkpt><trkpt lat="44.10402857446625" lon="9.94765085245838"><ele>9.0</ele><time>2026-04-07T08:52:07.999Z</time></trkpt><trkpt lat="44.10379874991471" lon="9.947937857003687"><ele>8.0</ele><time>2026-04-07T08:52:08.999Z</time></trkpt><trkpt lat="44.1035716440876" lon="9.94822925620566"><ele>7.0</ele><time>2026-04-07T08:52:09.999Z</time></trkpt><trkpt lat="44.103351007740166" lon="9.948524674102426"><ele>6.0</ele><time>2026-04-07T08:52:10.999Z</time></trkpt><trkpt lat="44.10314242775012" lon="9.948822575745927"><ele>6.0</ele><time>2026-04-07T08:52:11.999Z</time></trkpt><trkpt lat="44.10294951933332" lon="9.949109925895137"><ele>6.0</ele><time>2026-04-07T08:52:12.999Z</time></trkpt><trkpt lat="44.102763570346" lon="9.949400182488716"><ele>6.0</ele><time>2026-04-07T08:52:13.999Z</time></trkpt><trkpt lat="44.10258102037574" lon="9.949711105931254"><ele>6.0</ele><time>2026-04-07T08:52:14.999Z</time></trkpt><trkpt lat="44.102390652729994" lon="9.95002903399349"><ele>7.5</ele><time>2026-04-07T08:52:15.999Z</time></trkpt><trkpt lat="44.10221645534683" lon="9.950366340971657"><ele>9.0</ele><time>2026-04-07T08:52:16.999Z</time></trkpt><trkpt lat="44.102022780235686" lon="9.95069912357478"><ele>9.0</ele><time>2026-04-07T08:52:17.999Z</time></trkpt><trkpt lat="44.10184679234035" lon="9.951027468672123"><ele>9.0</ele><time>2026-04-07T08:52:18.999Z</time></trkpt><trkpt lat="44.10168565462789" lon="9.95134680031066"><ele>8.5</ele><time>2026-04-07T08:52:19.999Z</time></trkpt><trkpt lat="44.10152979702988" lon="9.951671161566248"><ele>8.0</ele><time>2026-04-07T08:52:20.999Z</time></trkpt><trkpt lat="44.10136936675027" lon="9.952006812900445"><ele>7.5</ele><time>2026-04-07T08:52:21.999Z</time></trkpt><trkpt lat="44.10119979529462" lon="9.952354607958695"><ele>7.0</ele><time>2026-04-07T08:52:22.999Z</time></trkpt><trkpt lat="44.101027277931344" lon="9.95269336328213"><ele>7.0</ele><time>2026-04-07T08:52:23.999Z</time></trkpt><trkpt lat="44.10085016661247" lon="9.953042882783613"><ele>7.0</ele><time>2026-04-07T08:52:24.999Z</time></trkpt><trkpt lat="44.100672046260186" lon="9.953392750548028"><ele>6.0</ele><time>2026-04-07T08:52:25.999Z</time></trkpt><trkpt lat="44.100509655720614" lon="9.953740969575419"><ele>5.0</ele><time>2026-04-07T08:52:26.999Z</time></trkpt><trkpt lat="44.10035906086881" lon="9.954059087677557"><ele>4.5</ele><time>2026-04-07T08:52:27.999Z</time></trkpt><trkpt lat="44.10020228960231" lon="9.95437272827528"><ele>4.0</ele><time>2026-04-07T08:52:28.999Z</time></trkpt><trkpt lat="44.10004223734659" lon="9.954692372997576"><ele>4.0</ele><time>2026-04-07T08:52:29.999Z</time></trkpt><trkpt lat="44.09988234325376" lon="9.955015180792081"><ele>4.0</ele><time>2026-04-07T08:52:30.999Z</time></trkpt><trkpt lat="44.09972354781781" lon="9.955345839087867"><ele>4.0</ele><time>2026-04-07T08:52:31.999Z</time></trkpt><trkpt lat="44.09956086365117" lon="9.955678576226017"><ele>4.0</ele><time>2026-04-07T08:52:32.999Z</time></trkpt><trkpt lat="44.09939706826541" lon="9.956013017312149"><ele>4.0</ele><time>2026-04-07T08:52:33.999Z</time></trkpt><trkpt lat="44.09923196082618" lon="9.956349630876485"><ele>4.0</ele><time>2026-04-07T08:52:34.999Z</time></trkpt><trkpt lat="44.09906445576536" lon="9.9566898390239"><ele>4.0</ele><time>2026-04-07T08:52:35.999Z</time></trkpt><trkpt lat="44.09889691154948" lon="9.957029934408503"><ele>4.0</ele><time>2026-04-07T08:52:36.999Z</time></trkpt><trkpt lat="44.098727931514006" lon="9.957376950503791"><ele>4.5</ele><time>2026-04-07T08:52:37.999Z</time></trkpt><trkpt lat="44.0985569622532" lon="9.957724338679746"><ele>5.0</ele><time>2026-04-07T08:52:38.999Z</time></trkpt><trkpt lat="44.09838357480903" lon="9.958079386042542"><ele>4.0</ele><time>2026-04-07T08:52:39.999Z</time></trkpt><trkpt lat="44.09820922382" lon="9.958433673862913"><ele>3.0</ele><time>2026-04-07T08:52:40.999Z</time></trkpt><trkpt lat="44.09803363923266" lon="9.958789993261743"><ele>3.0</ele><time>2026-04-07T08:52:41.999Z</time></trkpt><trkpt lat="44.09785950171528" lon="9.959146251950928"><ele>3.0</ele><time>2026-04-07T08:52:42.999Z</time></trkpt><trkpt lat="44.09769082717176" lon="9.959469389840129"><ele>3.5</ele><time>2026-04-07T08:52:43.999Z</time></trkpt><trkpt lat="44.09754081922556" lon="9.959781772601826"><ele>4.0</ele><time>2026-04-07T08:52:44.999Z</time></trkpt><trkpt lat="44.0973930711426" lon="9.960087280610708"><ele>4.0</ele><time>2026-04-07T08:52:45.999Z</time></trkpt><trkpt lat="44.097239144844536" lon="9.960391394107488"><ele>4.0</ele><time>2026-04-07T08:52:46.999Z</time></trkpt><trkpt lat="44.097086870691136" lon="9.960696942124661"><ele>4.5</ele><time>2026-04-07T08:52:47.999Z</time></trkpt><trkpt lat="44.09693099677469" lon="9.961011645968792"><ele>5.0</ele><time>2026-04-07T08:52:48.999Z</time></trkpt><trkpt lat="44.09677445596286" lon="9.961331746976768"><ele>5.0</ele><time>2026-04-07T08:52:49.999Z</time></trkpt><trkpt lat="44.09661483709642" lon="9.961655793494828"><ele>5.0</ele><time>2026-04-07T08:52:50.999Z</time></trkpt><trkpt lat="44.096451114317134" lon="9.961965700081754"><ele>5.5</ele><time>2026-04-07T08:52:51.999Z</time></trkpt><trkpt lat="44.096297258566395" lon="9.962244248311363"><ele>6.0</ele><time>2026-04-07T08:52:52.999Z</time></trkpt><trkpt lat="44.09614892911585" lon="9.962513241471349"><ele>5.5</ele><time>2026-04-07T08:52:53.999Z</time></trkpt><trkpt lat="44.09599543351052" lon="9.962791099886946"><ele>5.0</ele><time>2026-04-07T08:52:54.999Z</time></trkpt><trkpt lat="44.09583382797418" lon="9.96307056674103"><ele>5.0</ele><time>2026-04-07T08:52:55.999Z</time></trkpt><trkpt lat="44.0956686168223" lon="9.963349631227548"><ele>5.0</ele><time>2026-04-07T08:52:56.999Z</time></trkpt><trkpt lat="44.09549920157052" lon="9.96363043260236"><ele>5.0</ele><time>2026-04-07T08:52:57.999Z</time></trkpt><trkpt lat="44.09532508022003" lon="9.963913979155768"><ele>5.0</ele><time>2026-04-07T08:52:58.999Z</time></trkpt><trkpt lat="44.09514152926049" lon="9.964212564586134"><ele>4.5</ele><time>2026-04-07T08:52:59.999Z</time></trkpt><trkpt lat="44.09494052855414" lon="9.964529386499095"><ele>4.0</ele><time>2026-04-07T08:53:00.999Z</time></trkpt><trkpt lat="44.09473360842643" lon="9.964860730370427"><ele>4.5</ele><time>2026-04-07T08:53:01.999Z</time></trkpt><trkpt lat="44.094531869586056" lon="9.965165131563104"><ele>5.0</ele><time>2026-04-07T08:53:02.999Z</time></trkpt><trkpt lat="44.094335334282825" lon="9.96545099772083"><ele>5.0</ele><time>2026-04-07T08:53:04Z</time></trkpt><trkpt lat="44.09413344723714" lon="9.965739834556011"><ele>5.0</ele><time>2026-04-07T08:53:05Z</time></trkpt><trkpt lat="44.093926468206504" lon="9.966032494588108"><ele>5.0</ele><time>2026-04-07T08:53:06Z</time></trkpt><trkpt lat="44.093715790065794" lon="9.96632421852412"><ele>5.0</ele><time>2026-04-07T08:53:07Z</time></trkpt><trkpt lat="44.09350010784016" lon="9.966613655670852"><ele>4.5</ele><time>2026-04-07T08:53:08Z</time></trkpt><trkpt lat="44.09327911095322" lon="9.966903168475426"><ele>4.0</ele><time>2026-04-07T08:53:09Z</time></trkpt><trkpt lat="44.093055490373075" lon="9.967192263452489"><ele>3.5</ele><time>2026-04-07T08:53:10Z</time></trkpt><trkpt lat="44.092824645180066" lon="9.967481287365644"><ele>3.0</ele><time>2026-04-07T08:53:11Z</time></trkpt><trkpt lat="44.09259026866567" lon="9.967761563316175"><ele>3.0</ele><time>2026-04-07T08:53:12Z</time></trkpt><trkpt lat="44.092354187025" lon="9.968041967362442"><ele>3.0</ele><time>2026-04-07T08:53:13Z</time></trkpt><trkpt lat="44.09211711091899" lon="9.968320878302865"><ele>3.0</ele><time>2026-04-07T08:53:14Z</time></trkpt><trkpt lat="44.091876317557464" lon="9.96859734231775"><ele>3.0</ele><time>2026-04-07T08:53:15Z</time></trkpt><trkpt lat="44.091634129203015" lon="9.968874841489342"><ele>3.0</ele><time>2026-04-07T08:53:16Z</time></trkpt><trkpt lat="44.09138900213223" lon="9.969142355868922"><ele>3.0</ele><time>2026-04-07T08:53:17Z</time></trkpt><trkpt lat="44.091141959628665" lon="9.969405363602354"><ele>3.5</ele><time>2026-04-07T08:53:18Z</time></trkpt><trkpt lat="44.090893843380506" lon="9.969665128444763"><ele>4.0</ele><time>2026-04-07T08:53:19Z</time></trkpt><trkpt lat="44.0906427070024" lon="9.969917200889283"><ele>5.0</ele><time>2026-04-07T08:53:20Z</time></trkpt><trkpt lat="44.09038861231384" lon="9.970167666457987"><ele>6.0</ele><time>2026-04-07T08:53:21Z</time></trkpt><trkpt lat="44.09013616018876" lon="9.970416929945266"><ele>6.0</ele><time>2026-04-07T08:53:22Z</time></trkpt><trkpt lat="44.0898812880957" lon="9.970659926514967"><ele>6.0</ele><time>2026-04-07T08:53:23Z</time></trkpt><trkpt lat="44.08962259141394" lon="9.97089716700487"><ele>6.0</ele><time>2026-04-07T08:53:24Z</time></trkpt><trkpt lat="44.08936142850337" lon="9.971130939204654"><ele>6.0</ele><time>2026-04-07T08:53:25Z</time></trkpt><trkpt lat="44.089098359922275" lon="9.971361864693504"><ele>6.0</ele><time>2026-04-07T08:53:26Z</time></trkpt><trkpt lat="44.08883669418313" lon="9.97158958230283"><ele>6.0</ele><time>2026-04-07T08:53:27Z</time></trkpt><trkpt lat="44.08857267453386" lon="9.971813076452232"><ele>6.0</ele><time>2026-04-07T08:53:28Z</time></trkpt><trkpt lat="44.08831535750772" lon="9.972020919575845"><ele>6.0</ele><time>2026-04-07T08:53:29Z</time></trkpt><trkpt lat="44.08805204304109" lon="9.972235668791543"><ele>5.5</ele><time>2026-04-07T08:53:30Z</time></trkpt><trkpt lat="44.08778320912938" lon="9.972447649489421"><ele>5.0</ele><time>2026-04-07T08:53:31Z</time></trkpt><trkpt lat="44.08751263349135" lon="9.972662950704757"><ele>4.5</ele><time>2026-04-07T08:53:32Z</time></trkpt><trkpt lat="44.08723892792097" lon="9.972878404529292"><ele>4.0</ele><time>2026-04-07T08:53:33Z</time></trkpt><trkpt lat="44.08696007167207" lon="9.973096724950814"><ele>4.0</ele><time>2026-04-07T08:53:34Z</time></trkpt><trkpt lat="44.08668009962513" lon="9.973318865180905"><ele>4.0</ele><time>2026-04-07T08:53:35Z</time></trkpt><trkpt lat="44.08641261601587" lon="9.973536385882127"><ele>2.5</ele><time>2026-04-07T08:53:36Z</time></trkpt><trkpt lat="44.08615953493558" lon="9.973741770015975"><ele>1.0</ele><time>2026-04-07T08:53:37Z</time></trkpt><trkpt lat="44.08590949024964" lon="9.973933908137687"><ele>2.0</ele><time>2026-04-07T08:53:38Z</time></trkpt><trkpt lat="44.08565798080273" lon="9.97412968310692"><ele>3.0</ele><time>2026-04-07T08:53:39Z</time></trkpt><trkpt lat="44.085408312421485" lon="9.974328009818182"><ele>3.0</ele><time>2026-04-07T08:53:40Z</time></trkpt><trkpt lat="44.08515702670981" lon="9.974526355377845"><ele>3.0</ele><time>2026-04-07T08:53:41Z</time></trkpt><trkpt lat="44.08490175906608" lon="9.97472812118103"><ele>3.0</ele><time>2026-04-07T08:53:42Z</time></trkpt><trkpt lat="44.084646917443" lon="9.974929610109486"><ele>3.0</ele><time>2026-04-07T08:53:43Z</time></trkpt><trkpt lat="44.0843900308608" lon="9.975132636428715"><ele>3.5</ele><time>2026-04-07T08:53:44Z</time></trkpt><trkpt lat="44.08413283514542" lon="9.975333950352764"><ele>4.0</ele><time>2026-04-07T08:53:45Z</time></trkpt><trkpt lat="44.083871851078705" lon="9.975536069381342"><ele>4.0</ele><time>2026-04-07T08:53:46Z</time></trkpt><trkpt lat="44.08360610152279" lon="9.975743242440908"><ele>4.0</ele><time>2026-04-07T08:53:47Z</time></trkpt><trkpt lat="44.083334676567425" lon="9.975953948804902"><ele>3.5</ele><time>2026-04-07T08:53:48Z</time></trkpt><trkpt lat="44.08306067684349" lon="9.9761714796311"><ele>3.0</ele><time>2026-04-07T08:53:49Z</time></trkpt><trkpt lat="44.082782260034534" lon="9.976392739101582"><ele>3.0</ele><time>2026-04-07T08:53:50Z</time></trkpt><trkpt lat="44.082499203517756" lon="9.976613971559111"><ele>3.0</ele><time>2026-04-07T08:53:51Z</time></trkpt><trkpt lat="44.08221655499641" lon="9.976837815790509"><ele>2.5</ele><time>2026-04-07T08:53:52Z</time></trkpt><trkpt lat="44.08192603039979" lon="9.977063892924013"><ele>2.0</ele><time>2026-04-07T08:53:53Z</time></trkpt><trkpt lat="44.0816305558558" lon="9.977295552590856"><ele>2.0</ele><time>2026-04-07T08:53:54Z</time></trkpt><trkpt lat="44.08135062318826" lon="9.977518728015164"><ele>2.0</ele><time>2026-04-07T08:53:55Z</time></trkpt><trkpt lat="44.081069030133" lon="9.97774491073047"><ele>2.0</ele><time>2026-04-07T08:53:56Z</time></trkpt><trkpt lat="44.08086671846513" lon="9.977894417760094"><ele>2.0</ele><time>2026-04-07T08:53:57Z</time></trkpt><trkpt lat="44.080608036455374" lon="9.978099981597191"><ele>2.0</ele><time>2026-04-07T08:53:58Z</time></trkpt><trkpt lat="44.08034565341434" lon="9.978307133800596"><ele>2.0</ele><time>2026-04-07T08:53:59Z</time></trkpt><trkpt lat="44.0800794011646" lon="9.978521430889856"><ele>2.0</ele><time>2026-04-07T08:54:00Z</time></trkpt><trkpt lat="44.07980849481873" lon="9.97873890668301"><ele>2.0</ele><time>2026-04-07T08:54:01Z</time></trkpt><trkpt lat="44.07953893257004" lon="9.978962974596792"><ele>1.5</ele><time>2026-04-07T08:54:02Z</time></trkpt><trkpt lat="44.07927277180542" lon="9.979200399612374"><ele>1.0</ele><time>2026-04-07T08:54:03Z</time></trkpt><trkpt lat="44.07900796676294" lon="9.979451157735562"><ele>1.0</ele><time>2026-04-07T08:54:04Z</time></trkpt><trkpt lat="44.07874140232384" lon="9.97970587568233"><ele>1.0</ele><time>2026-04-07T08:54:05Z</time></trkpt><trkpt lat="44.07848232638105" lon="9.979962415386881"><ele>2.0</ele><time>2026-04-07T08:54:06Z</time></trkpt><trkpt lat="44.07825395366667" lon="9.9802052256927"><ele>3.0</ele><time>2026-04-07T08:54:07Z</time></trkpt><trkpt lat="44.078023072281" lon="9.980451262835322"><ele>3.0</ele><time>2026-04-07T08:54:08Z</time></trkpt><trkpt lat="44.07778693092419" lon="9.980706049154513"><ele>3.0</ele><time>2026-04-07T08:54:09Z</time></trkpt><trkpt lat="44.077553238643006" lon="9.980975225403474"><ele>3.5</ele><time>2026-04-07T08:54:10Z</time></trkpt><trkpt lat="44.077319805119075" lon="9.981250335349028"><ele>4.0</ele><time>2026-04-07T08:54:11Z</time></trkpt><trkpt lat="44.07708334870452" lon="9.981530993016664"><ele>3.5</ele><time>2026-04-07T08:54:12Z</time></trkpt><trkpt lat="44.07685206119762" lon="9.981820121579851"><ele>3.0</ele><time>2026-04-07T08:54:13Z</time></trkpt><trkpt lat="44.07662256054369" lon="9.982124389067385"><ele>3.0</ele><time>2026-04-07T08:54:14Z</time></trkpt><trkpt lat="44.07639416045229" lon="9.98242792531433"><ele>3.0</ele><time>2026-04-07T08:54:15Z</time></trkpt><trkpt lat="44.07617266281558" lon="9.982747614290467"><ele>3.0</ele><time>2026-04-07T08:54:16Z</time></trkpt><trkpt lat="44.07595312133556" lon="9.983066853390007"><ele>3.0</ele><time>2026-04-07T08:54:17Z</time></trkpt><trkpt lat="44.07573712739376" lon="9.983394996231711"><ele>3.0</ele><time>2026-04-07T08:54:17.999Z</time></trkpt><trkpt lat="44.07553167556826" lon="9.983740435786213"><ele>3.0</ele><time>2026-04-07T08:54:18.999Z</time></trkpt><trkpt lat="44.07532305278617" lon="9.984079724285039"><ele>3.0</ele><time>2026-04-07T08:54:19.999Z</time></trkpt><trkpt lat="44.07511840722909" lon="9.98442165170543"><ele>3.0</ele><time>2026-04-07T08:54:20.999Z</time></trkpt><trkpt lat="44.074914819751584" lon="9.984761105434082"><ele>3.0</ele><time>2026-04-07T08:54:21.999Z</time></trkpt><trkpt lat="44.074708235848085" lon="9.98510100363422"><ele>3.0</ele><time>2026-04-07T08:54:22.999Z</time></trkpt><trkpt lat="44.074502533512174" lon="9.985436588759217"><ele>3.0</ele><time>2026-04-07T08:54:23.999Z</time></trkpt><trkpt lat="44.074294641159035" lon="9.985769024370706"><ele>3.0</ele><time>2026-04-07T08:54:24.999Z</time></trkpt><trkpt lat="44.07408816889202" lon="9.986107751326934"><ele>2.5</ele><time>2026-04-07T08:54:25.999Z</time></trkpt><trkpt lat="44.07388742051105" lon="9.986444873529743"><ele>2.0</ele><time>2026-04-07T08:54:26.999Z</time></trkpt><trkpt lat="44.07368646585503" lon="9.98678076777994"><ele>2.0</ele><time>2026-04-07T08:54:27.999Z</time></trkpt><trkpt lat="44.07348312295428" lon="9.987113671164396"><ele>2.0</ele><time>2026-04-07T08:54:28.999Z</time></trkpt><trkpt lat="44.07328191224315" lon="9.987449965870633"><ele>2.5</ele><time>2026-04-07T08:54:29.999Z</time></trkpt><trkpt lat="44.07307867057622" lon="9.987785936871655"><ele>3.0</ele><time>2026-04-07T08:54:30.999Z</time></trkpt><trkpt lat="44.07287370477002" lon="9.988123666219197"><ele>1.5</ele><time>2026-04-07T08:54:31.999Z</time></trkpt><trkpt lat="44.072669542246764" lon="9.98846220445283"><ele>0.0</ele><time>2026-04-07T08:54:32.999Z</time></trkpt><trkpt lat="44.07246066068991" lon="9.988794771155842"><ele>0.5</ele><time>2026-04-07T08:54:33.999Z</time></trkpt><trkpt lat="44.07225126691626" lon="9.989132806450737"><ele>1.0</ele><time>2026-04-07T08:54:34.999Z</time></trkpt><trkpt lat="44.072044431196545" lon="9.989475955024833"><ele>1.0</ele><time>2026-04-07T08:54:35.999Z</time></trkpt><trkpt lat="44.071839183944945" lon="9.989813528746886"><ele>1.0</ele><time>2026-04-07T08:54:36.999Z</time></trkpt><trkpt lat="44.071632295957045" lon="9.990156107695718"><ele>2.0</ele><time>2026-04-07T08:54:37.999Z</time></trkpt><trkpt lat="44.0714336182678" lon="9.990491465870052"><ele>3.0</ele><time>2026-04-07T08:54:38.999Z</time></trkpt><trkpt lat="44.07122816702051" lon="9.990829821193797"><ele>2.5</ele><time>2026-04-07T08:54:39.999Z</time></trkpt><trkpt lat="44.0710260764707" lon="9.991166362519905"><ele>2.0</ele><time>2026-04-07T08:54:40.999Z</time></trkpt><trkpt lat="44.070820080171934" lon="9.991497729295428"><ele>2.0</ele><time>2026-04-07T08:54:41.999Z</time></trkpt><trkpt lat="44.07061533440575" lon="9.99183101357125"><ele>2.0</ele><time>2026-04-07T08:54:42.999Z</time></trkpt><trkpt lat="44.07041131033664" lon="9.9921633345675"><ele>2.0</ele><time>2026-04-07T08:54:43.999Z</time></trkpt><trkpt lat="44.070211446012806" lon="9.992494172106461"><ele>2.0</ele><time>2026-04-07T08:54:44.999Z</time></trkpt><trkpt lat="44.07000656788011" lon="9.992832132664887"><ele>2.0</ele><time>2026-04-07T08:54:45.999Z</time></trkpt><trkpt lat="44.06980662656125" lon="9.99316126895005"><ele>2.0</ele><time>2026-04-07T08:54:46.999Z</time></trkpt><trkpt lat="44.06960979517114" lon="9.993494614274741"><ele>2.0</ele><time>2026-04-07T08:54:47.999Z</time></trkpt><trkpt lat="44.06940954769063" lon="9.993828986658198"><ele>2.0</ele><time>2026-04-07T08:54:48.999Z</time></trkpt><trkpt lat="44.06920974789973" lon="9.994160614622556"><ele>1.0</ele><time>2026-04-07T08:54:49.999Z</time></trkpt><trkpt lat="44.069010613604256" lon="9.994484626467472"><ele>0.0</ele><time>2026-04-07T08:54:50.999Z</time></trkpt><trkpt lat="44.06881093520857" lon="9.994811060973657"><ele>1.5</ele><time>2026-04-07T08:54:51.999Z</time></trkpt><trkpt lat="44.068609803209206" lon="9.995140514861763"><ele>3.0</ele><time>2026-04-07T08:54:52.999Z</time></trkpt><trkpt lat="44.06841239382608" lon="9.995466330872308"><ele>2.0</ele><time>2026-04-07T08:54:53.999Z</time></trkpt><trkpt lat="44.06821173145002" lon="9.995797620191839"><ele>1.0</ele><time>2026-04-07T08:54:54.999Z</time></trkpt><trkpt lat="44.068011526851684" lon="9.99612856056266"><ele>1.0</ele><time>2026-04-07T08:54:55.999Z</time></trkpt><trkpt lat="44.067813228344164" lon="9.996454178905848"><ele>1.0</ele><time>2026-04-07T08:54:56.999Z</time></trkpt><trkpt lat="44.06761367082138" lon="9.996776663991769"><ele>1.0</ele><time>2026-04-07T08:54:57.999Z</time></trkpt><trkpt lat="44.06741395207871" lon="9.997101740581996"><ele>1.0</ele><time>2026-04-07T08:54:58.999Z</time></trkpt><trkpt lat="44.06721141535923" lon="9.99742647560815"><ele>2.5</ele><time>2026-04-07T08:54:59.999Z</time></trkpt><trkpt lat="44.06701707147137" lon="9.99775018576489"><ele>4.0</ele><time>2026-04-07T08:55:00.999Z</time></trkpt><trkpt lat="44.06683081826479" lon="9.998050393109677"><ele>4.0</ele><time>2026-04-07T08:55:01.999Z</time></trkpt><trkpt lat="44.06664890262527" lon="9.998340254875165"><ele>4.0</ele><time>2026-04-07T08:55:02.999Z</time></trkpt><trkpt lat="44.06647472981102" lon="9.99861598432747"><ele>3.5</ele><time>2026-04-07T08:55:03.999Z</time></trkpt><trkpt lat="44.06629965013536" lon="9.99889731941343"><ele>3.0</ele><time>2026-04-07T08:55:04.999Z</time></trkpt><trkpt lat="44.06612291536311" lon="9.999188196370318"><ele>3.0</ele><time>2026-04-07T08:55:05.999Z</time></trkpt><trkpt lat="44.06594572601482" lon="9.999481208538652"><ele>3.0</ele><time>2026-04-07T08:55:06.999Z</time></trkpt><trkpt lat="44.06576615636808" lon="9.999776838348751"><ele>1.5</ele><time>2026-04-07T08:55:07.999Z</time></trkpt><trkpt lat="44.06558608343297" lon="10.000070355386281"><ele>0.0</ele><time>2026-04-07T08:55:08.999Z</time></trkpt><trkpt lat="44.065403796681274" lon="10.000368199598396"><ele>0.0</ele><time>2026-04-07T08:55:10Z</time></trkpt><trkpt lat="44.065221174307034" lon="10.000670212089242"><ele>0.0</ele><time>2026-04-07T08:55:11Z</time></trkpt><trkpt lat="44.065032888675766" lon="10.000990257463993"><ele>-0.5</ele><time>2026-04-07T08:55:12Z</time></trkpt><trkpt lat="44.06483184059088" lon="10.00133897028373"><ele>-1.0</ele><time>2026-04-07T08:55:13Z</time></trkpt><trkpt lat="44.064620018006565" lon="10.00170484277094"><ele>0.0</ele><time>2026-04-07T08:55:14Z</time></trkpt><trkpt lat="44.0644069919734" lon="10.00206432790357"><ele>1.0</ele><time>2026-04-07T08:55:15Z</time></trkpt><trkpt lat="44.064207435419995" lon="10.002393473424728"><ele>0.0</ele><time>2026-04-07T08:55:16Z</time></trkpt><trkpt lat="44.06401373460132" lon="10.002708703361366"><ele>-1.0</ele><time>2026-04-07T08:55:17Z</time></trkpt><trkpt lat="44.06381542231048" lon="10.003033679331805"><ele>-0.5</ele><time>2026-04-07T08:55:18Z</time></trkpt><trkpt lat="44.063613270195425" lon="10.003361773849331"><ele>0.0</ele><time>2026-04-07T08:55:19Z</time></trkpt><trkpt lat="44.0634122197135" lon="10.003691504319564"><ele>0.0</ele><time>2026-04-07T08:55:20Z</time></trkpt><trkpt lat="44.06321090277722" lon="10.004020522717843"><ele>0.0</ele><time>2026-04-07T08:55:21Z</time></trkpt><trkpt lat="44.06300790743173" lon="10.004343994899843"><ele>0.5</ele><time>2026-04-07T08:55:22Z</time></trkpt><trkpt lat="44.062809476314165" lon="10.00464702511466"><ele>1.0</ele><time>2026-04-07T08:55:23Z</time></trkpt><trkpt lat="44.062613246324645" lon="10.00495105599915"><ele>2.5</ele><time>2026-04-07T08:55:24Z</time></trkpt><trkpt lat="44.06241943602849" lon="10.005259243706742"><ele>4.0</ele><time>2026-04-07T08:55:25Z</time></trkpt><trkpt lat="44.06223002099133" lon="10.005566754042196"><ele>3.5</ele><time>2026-04-07T08:55:26Z</time></trkpt><trkpt lat="44.06204252977751" lon="10.005872710459274"><ele>3.0</ele><time>2026-04-07T08:55:27Z</time></trkpt><trkpt lat="44.06185614211742" lon="10.006187342485921"><ele>3.0</ele><time>2026-04-07T08:55:28Z</time></trkpt><trkpt lat="44.061675352187976" lon="10.006495684740784"><ele>3.0</ele><time>2026-04-07T08:55:29Z</time></trkpt><trkpt lat="44.061493233744265" lon="10.006804823283696"><ele>3.5</ele><time>2026-04-07T08:55:30Z</time></trkpt><trkpt lat="44.06130928465333" lon="10.007110042052476"><ele>4.0</ele><time>2026-04-07T08:55:31Z</time></trkpt><trkpt lat="44.06112384562732" lon="10.00741599141114"><ele>4.0</ele><time>2026-04-07T08:55:32Z</time></trkpt><trkpt lat="44.060940318366065" lon="10.00771571044346"><ele>4.0</ele><time>2026-04-07T08:55:33Z</time></trkpt><trkpt lat="44.06076623813817" lon="10.00803356764805"><ele>4.0</ele><time>2026-04-07T08:55:34Z</time></trkpt><trkpt lat="44.060597970929386" lon="10.00835181010522"><ele>4.0</ele><time>2026-04-07T08:55:35Z</time></trkpt><trkpt lat="44.060434666968796" lon="10.008672364624942"><ele>4.0</ele><time>2026-04-07T08:55:36Z</time></trkpt><trkpt lat="44.06027359612226" lon="10.009001335043646"><ele>4.0</ele><time>2026-04-07T08:55:37Z</time></trkpt><trkpt lat="44.060117604802834" lon="10.009336279983792"><ele>4.0</ele><time>2026-04-07T08:55:38Z</time></trkpt><trkpt lat="44.05995522009344" lon="10.009680305928505"><ele>4.0</ele><time>2026-04-07T08:55:39Z</time></trkpt><trkpt lat="44.05979202167857" lon="10.010038675225365"><ele>4.0</ele><time>2026-04-07T08:55:40Z</time></trkpt><trkpt lat="44.05963716137883" lon="10.010409971943409"><ele>4.0</ele><time>2026-04-07T08:55:41Z</time></trkpt><trkpt lat="44.059481661239644" lon="10.010790417809508"><ele>4.0</ele><time>2026-04-07T08:55:42Z</time></trkpt><trkpt lat="44.059328192826534" lon="10.011185310627116"><ele>4.0</ele><time>2026-04-07T08:55:43Z</time></trkpt><trkpt lat="44.059181312998014" lon="10.011579588181547"><ele>2.0</ele><time>2026-04-07T08:55:44Z</time></trkpt><trkpt lat="44.059037847821386" lon="10.011979461977232"><ele>0.0</ele><time>2026-04-07T08:55:45Z</time></trkpt><trkpt lat="44.05889379718237" lon="10.012381070697067"><ele>-0.5</ele><time>2026-04-07T08:55:46Z</time></trkpt><trkpt lat="44.05875611197279" lon="10.012784172498879"><ele>-1.0</ele><time>2026-04-07T08:55:47Z</time></trkpt><trkpt lat="44.05861958523536" lon="10.013194144089393"><ele>0.5</ele><time>2026-04-07T08:55:48Z</time></trkpt><trkpt lat="44.05849806284994" lon="10.013606209690362"><ele>2.0</ele><time>2026-04-07T08:55:49Z</time></trkpt><trkpt lat="44.05837950526921" lon="10.014025335167211"><ele>1.0</ele><time>2026-04-07T08:55:50Z</time></trkpt><trkpt lat="44.05826411005002" lon="10.014440996249634"><ele>0.0</ele><time>2026-04-07T08:55:51Z</time></trkpt><trkpt lat="44.05814718412551" lon="10.014857895228573"><ele>0.5</ele><time>2026-04-07T08:55:52Z</time></trkpt><trkpt lat="44.0580286212703" lon="10.015273274535657"><ele>1.0</ele><time>2026-04-07T08:55:53Z</time></trkpt><trkpt lat="44.057907094835436" lon="10.015685946946359"><ele>1.5</ele><time>2026-04-07T08:55:54Z</time></trkpt><trkpt lat="44.05778403321403" lon="10.016101037953918"><ele>2.0</ele><time>2026-04-07T08:55:55Z</time></trkpt><trkpt lat="44.057662465102226" lon="10.016515903531227"><ele>1.5</ele><time>2026-04-07T08:55:56Z</time></trkpt><trkpt lat="44.057541896560664" lon="10.016927539896505"><ele>1.0</ele><time>2026-04-07T08:55:57Z</time></trkpt><trkpt lat="44.05742016398555" lon="10.017342001819205"><ele>1.0</ele><time>2026-04-07T08:55:58Z</time></trkpt><trkpt lat="44.05730183070091" lon="10.017756937196607"><ele>1.0</ele><time>2026-04-07T08:55:59Z</time></trkpt><trkpt lat="44.05718372531164" lon="10.018169761345414"><ele>0.5</ele><time>2026-04-07T08:56:00Z</time></trkpt><trkpt lat="44.0570639452837" lon="10.018583225816503"><ele>0.0</ele><time>2026-04-07T08:56:01Z</time></trkpt><trkpt lat="44.05695106887228" lon="10.018973858246746"><ele>0.5</ele><time>2026-04-07T08:56:02Z</time></trkpt><trkpt lat="44.056843718777905" lon="10.019343712558245"><ele>1.0</ele><time>2026-04-07T08:56:03Z</time></trkpt><trkpt lat="44.05673050694258" lon="10.019716395981066"><ele>1.0</ele><time>2026-04-07T08:56:04Z</time></trkpt><trkpt lat="44.05661903083299" lon="10.020099175982624"><ele>1.0</ele><time>2026-04-07T08:56:05Z</time></trkpt><trkpt lat="44.05650590565052" lon="10.02048452821796"><ele>0.5</ele><time>2026-04-07T08:56:06Z</time></trkpt><trkpt lat="44.05639528271632" lon="10.02086835893678"><ele>0.0</ele><time>2026-04-07T08:56:07Z</time></trkpt><trkpt lat="44.05628149225344" lon="10.021252186503714"><ele>0.0</ele><time>2026-04-07T08:56:08Z</time></trkpt><trkpt lat="44.05616944487242" lon="10.021633800963592"><ele>0.0</ele><time>2026-04-07T08:56:09Z</time></trkpt><trkpt lat="44.05606036905537" lon="10.022016897350216"><ele>0.5</ele><time>2026-04-07T08:56:10Z</time></trkpt><trkpt lat="44.05595068234863" lon="10.022398561513707"><ele>1.0</ele><time>2026-04-07T08:56:11Z</time></trkpt><trkpt lat="44.05583916669405" lon="10.022775315585552"><ele>1.0</ele><time>2026-04-07T08:56:12Z</time></trkpt><trkpt lat="44.05572911045994" lon="10.023152385222245"><ele>1.0</ele><time>2026-04-07T08:56:13Z</time></trkpt><trkpt lat="44.05562087230181" lon="10.023534741960068"><ele>1.0</ele><time>2026-04-07T08:56:14Z</time></trkpt><trkpt lat="44.05551226988014" lon="10.023915442163558"><ele>1.0</ele><time>2026-04-07T08:56:15Z</time></trkpt><trkpt lat="44.05540134825348" lon="10.024296075304767"><ele>2.0</ele><time>2026-04-07T08:56:16Z</time></trkpt><trkpt lat="44.05528904623606" lon="10.024675555780854"><ele>3.0</ele><time>2026-04-07T08:56:17Z</time></trkpt><trkpt lat="44.05517787993886" lon="10.025057000264164"><ele>3.0</ele><time>2026-04-07T08:56:18Z</time></trkpt><trkpt lat="44.055067965250714" lon="10.025436774767083"><ele>3.0</ele><time>2026-04-07T08:56:19Z</time></trkpt><trkpt lat="44.054957026766886" lon="10.02581606714082"><ele>3.0</ele><time>2026-04-07T08:56:20Z</time></trkpt><trkpt lat="44.05484389032995" lon="10.026197418119736"><ele>3.0</ele><time>2026-04-07T08:56:21Z</time></trkpt><trkpt lat="44.05473274398474" lon="10.02658182263378"><ele>2.0</ele><time>2026-04-07T08:56:22Z</time></trkpt><trkpt lat="44.054620240466626" lon="10.026964684313866"><ele>1.0</ele><time>2026-04-07T08:56:22.999Z</time></trkpt><trkpt lat="44.05450692220753" lon="10.027355021466242"><ele>1.5</ele><time>2026-04-07T08:56:23.999Z</time></trkpt><trkpt lat="44.05439529690244" lon="10.027754848837567"><ele>2.0</ele><time>2026-04-07T08:56:24.999Z</time></trkpt><trkpt lat="44.05427426432949" lon="10.028160300884547"><ele>2.0</ele><time>2026-04-07T08:56:25.999Z</time></trkpt><trkpt lat="44.054156457015885" lon="10.028576459065919"><ele>2.0</ele><time>2026-04-07T08:56:26.999Z</time></trkpt><trkpt lat="44.054036877917795" lon="10.028994273196538"><ele>2.5</ele><time>2026-04-07T08:56:27.999Z</time></trkpt><trkpt lat="44.053923284420385" lon="10.029396669643793"><ele>3.0</ele><time>2026-04-07T08:56:28.999Z</time></trkpt><trkpt lat="44.053793999117616" lon="10.029831429957447"><ele>3.0</ele><time>2026-04-07T08:56:29.999Z</time></trkpt><trkpt lat="44.05367087520451" lon="10.030251667095355"><ele>3.0</ele><time>2026-04-07T08:56:30.999Z</time></trkpt><trkpt lat="44.05355954491825" lon="10.030634439425333"><ele>3.0</ele><time>2026-04-07T08:56:31.999Z</time></trkpt><trkpt lat="44.053456401783535" lon="10.03100618831488"><ele>3.0</ele><time>2026-04-07T08:56:32.999Z</time></trkpt><trkpt lat="44.05334503434443" lon="10.031384966467629"><ele>3.0</ele><time>2026-04-07T08:56:33.999Z</time></trkpt><trkpt lat="44.05323207772901" lon="10.031772053711379"><ele>3.0</ele><time>2026-04-07T08:56:34.999Z</time></trkpt><trkpt lat="44.05311461096214" lon="10.032163299396863"><ele>4.0</ele><time>2026-04-07T08:56:35.999Z</time></trkpt><trkpt lat="44.052993505585476" lon="10.032559193317427"><ele>5.0</ele><time>2026-04-07T08:56:36.999Z</time></trkpt><trkpt lat="44.05286502475484" lon="10.032955503561528"><ele>3.5</ele><time>2026-04-07T08:56:37.999Z</time></trkpt><trkpt lat="44.05273294961797" lon="10.033340440602524"><ele>2.0</ele><time>2026-04-07T08:56:38.999Z</time></trkpt><trkpt lat="44.052592719027366" lon="10.033727139335213"><ele>2.0</ele><time>2026-04-07T08:56:39.999Z</time></trkpt><trkpt lat="44.052447991945286" lon="10.034115401282127"><ele>2.0</ele><time>2026-04-07T08:56:40.999Z</time></trkpt><trkpt lat="44.05229716246363" lon="10.034497388307333"><ele>1.5</ele><time>2026-04-07T08:56:41.999Z</time></trkpt><trkpt lat="44.052140661372796" lon="10.034874503083529"><ele>1.0</ele><time>2026-04-07T08:56:42.999Z</time></trkpt><trkpt lat="44.05198680560748" lon="10.035233889770792"><ele>0.5</ele><time>2026-04-07T08:56:43.999Z</time></trkpt><trkpt lat="44.05183803268948" lon="10.035560092632712"><ele>0.0</ele><time>2026-04-07T08:56:44.999Z</time></trkpt><trkpt lat="44.05169136819703" lon="10.035874059702103"><ele>1.0</ele><time>2026-04-07T08:56:45.999Z</time></trkpt><trkpt lat="44.051536919054456" lon="10.036199060150409"><ele>2.0</ele><time>2026-04-07T08:56:46.999Z</time></trkpt><trkpt lat="44.05137746483329" lon="10.03652781869227"><ele>2.0</ele><time>2026-04-07T08:56:47.999Z</time></trkpt><trkpt lat="44.0512096716758" lon="10.036858001866252"><ele>2.0</ele><time>2026-04-07T08:56:48.999Z</time></trkpt><trkpt lat="44.05103582670345" lon="10.03718804130856"><ele>2.0</ele><time>2026-04-07T08:56:49.999Z</time></trkpt><trkpt lat="44.050858051334764" lon="10.03751834550622"><ele>2.0</ele><time>2026-04-07T08:56:50.999Z</time></trkpt><trkpt lat="44.05067810793846" lon="10.037846386442231"><ele>2.0</ele><time>2026-04-07T08:56:51.999Z</time></trkpt><trkpt lat="44.05049188186136" lon="10.038184854936514"><ele>2.0</ele><time>2026-04-07T08:56:52.999Z</time></trkpt><trkpt lat="44.050316495532265" lon="10.038509069582133"><ele>2.0</ele><time>2026-04-07T08:56:53.999Z</time></trkpt><trkpt lat="44.05014109680973" lon="10.038835820310396"><ele>2.0</ele><time>2026-04-07T08:56:54.999Z</time></trkpt><trkpt lat="44.04996452882629" lon="10.039165867571324"><ele>1.5</ele><time>2026-04-07T08:56:55.999Z</time></trkpt><trkpt lat="44.049786002527945" lon="10.039498314712219"><ele>1.0</ele><time>2026-04-07T08:56:56.999Z</time></trkpt><trkpt lat="44.04960515957073" lon="10.03983300885932"><ele>1.0</ele><time>2026-04-07T08:56:57.999Z</time></trkpt><trkpt lat="44.04942295477545" lon="10.040172126398438"><ele>1.0</ele><time>2026-04-07T08:56:58.999Z</time></trkpt><trkpt lat="44.04923711821485" lon="10.040512046083169"><ele>2.0</ele><time>2026-04-07T08:56:59.999Z</time></trkpt><trkpt lat="44.049054398658726" lon="10.0408547764485"><ele>3.0</ele><time>2026-04-07T08:57:00.999Z</time></trkpt><trkpt lat="44.04887406732272" lon="10.0412008555084"><ele>3.0</ele><time>2026-04-07T08:57:01.999Z</time></trkpt><trkpt lat="44.04869487050353" lon="10.041548307853464"><ele>3.0</ele><time>2026-04-07T08:57:02.999Z</time></trkpt><trkpt lat="44.04851337204448" lon="10.041893359645034"><ele>3.5</ele><time>2026-04-07T08:57:03.999Z</time></trkpt><trkpt lat="44.04832959710274" lon="10.042237010154407"><ele>4.0</ele><time>2026-04-07T08:57:04.999Z</time></trkpt><trkpt lat="44.04814656596131" lon="10.042577916929849"><ele>5.0</ele><time>2026-04-07T08:57:05.999Z</time></trkpt><trkpt lat="44.04796392783111" lon="10.042919508651194"><ele>6.0</ele><time>2026-04-07T08:57:06.999Z</time></trkpt><trkpt lat="44.04778259787918" lon="10.043263147827217"><ele>5.5</ele><time>2026-04-07T08:57:07.999Z</time></trkpt><trkpt lat="44.047607669245025" lon="10.043583548202877"><ele>5.0</ele><time>2026-04-07T08:57:08.999Z</time></trkpt><trkpt lat="44.047441690008526" lon="10.043891479772473"><ele>4.0</ele><time>2026-04-07T08:57:09.999Z</time></trkpt><trkpt lat="44.047276905086974" lon="10.044204821899935"><ele>3.0</ele><time>2026-04-07T08:57:10.999Z</time></trkpt><trkpt lat="44.04711094948348" lon="10.044522469844015"><ele>3.0</ele><time>2026-04-07T08:57:11.999Z</time></trkpt><trkpt lat="44.046944500609165" lon="10.044839726218376"><ele>3.0</ele><time>2026-04-07T08:57:12.999Z</time></trkpt><trkpt lat="44.04677648826296" lon="10.045157651885813"><ele>3.5</ele><time>2026-04-07T08:57:13.999Z</time></trkpt><trkpt lat="44.046607142284024" lon="10.04547506465835"><ele>4.0</ele><time>2026-04-07T08:57:14.999Z</time></trkpt><trkpt lat="44.046437065688835" lon="10.045792417681165"><ele>3.5</ele><time>2026-04-07T08:57:16Z</time></trkpt><trkpt lat="44.04626712220188" lon="10.046113504946034"><ele>3.0</ele><time>2026-04-07T08:57:17Z</time></trkpt><trkpt lat="44.04609631931176" lon="10.046437407139228"><ele>3.5</ele><time>2026-04-07T08:57:18Z</time></trkpt><trkpt lat="44.04592585428123" lon="10.046762111271379"><ele>4.0</ele><time>2026-04-07T08:57:19Z</time></trkpt><trkpt lat="44.045752322646514" lon="10.047082871754144"><ele>4.0</ele><time>2026-04-07T08:57:20Z</time></trkpt><trkpt lat="44.045579837396346" lon="10.04740462225838"><ele>4.0</ele><time>2026-04-07T08:57:21Z</time></trkpt><trkpt lat="44.04540936773786" lon="10.047723477395866"><ele>4.5</ele><time>2026-04-07T08:57:22Z</time></trkpt><trkpt lat="44.04523864554508" lon="10.048048043282451"><ele>5.0</ele><time>2026-04-07T08:57:23Z</time></trkpt><trkpt lat="44.04506905584844" lon="10.048376682010943"><ele>4.5</ele><time>2026-04-07T08:57:24Z</time></trkpt><trkpt lat="44.04489623054455" lon="10.04870756428381"><ele>4.0</ele><time>2026-04-07T08:57:25Z</time></trkpt><trkpt lat="44.04472067107133" lon="10.049039738336413"><ele>4.0</ele><time>2026-04-07T08:57:26Z</time></trkpt><trkpt lat="44.044544824764095" lon="10.04937101366208"><ele>4.0</ele><time>2026-04-07T08:57:27Z</time></trkpt><trkpt lat="44.044377231359356" lon="10.049688551522184"><ele>4.5</ele><time>2026-04-07T08:57:28Z</time></trkpt><trkpt lat="44.04421581208445" lon="10.049993192715307"><ele>5.0</ele><time>2026-04-07T08:57:29Z</time></trkpt><trkpt lat="44.04405750710821" lon="10.050298313956022"><ele>5.0</ele><time>2026-04-07T08:57:30Z</time></trkpt><trkpt lat="44.043896297142645" lon="10.05060542766632"><ele>5.0</ele><time>2026-04-07T08:57:31Z</time></trkpt><trkpt lat="44.04373433193772" lon="10.050912643718084"><ele>5.0</ele><time>2026-04-07T08:57:32Z</time></trkpt><trkpt lat="44.043571227472" lon="10.051222329384322"><ele>5.0</ele><time>2026-04-07T08:57:33Z</time></trkpt><trkpt lat="44.043406797890896" lon="10.051546328563449"><ele>6.0</ele><time>2026-04-07T08:57:34Z</time></trkpt><trkpt lat="44.043237178788495" lon="10.051889127103236"><ele>7.0</ele><time>2026-04-07T08:57:35Z</time></trkpt><trkpt lat="44.043073488378106" lon="10.052227184891883"><ele>6.5</ele><time>2026-04-07T08:57:36Z</time></trkpt><trkpt lat="44.04291992238776" lon="10.05256383864176"><ele>6.0</ele><time>2026-04-07T08:57:37Z</time></trkpt><trkpt lat="44.0427694505048" lon="10.052912436702274"><ele>6.0</ele><time>2026-04-07T08:57:38Z</time></trkpt><trkpt lat="44.0426204642564" lon="10.053274179381214"><ele>6.0</ele><time>2026-04-07T08:57:39Z</time></trkpt><trkpt lat="44.042458478864965" lon="10.053660799028311"><ele>4.5</ele><time>2026-04-07T08:57:40Z</time></trkpt><trkpt lat="44.042287998706534" lon="10.054058165208343"><ele>3.0</ele><time>2026-04-07T08:57:41Z</time></trkpt><trkpt lat="44.042109719563676" lon="10.05446029711551"><ele>3.0</ele><time>2026-04-07T08:57:42Z</time></trkpt><trkpt lat="44.04194270972038" lon="10.054832611673227"><ele>3.0</ele><time>2026-04-07T08:57:43Z</time></trkpt><trkpt lat="44.04178486554701" lon="10.055183739624189"><ele>3.0</ele><time>2026-04-07T08:57:44Z</time></trkpt><trkpt lat="44.041626632833236" lon="10.055535459143588"><ele>3.0</ele><time>2026-04-07T08:57:45Z</time></trkpt><trkpt lat="44.04146836141646" lon="10.055887130371286"><ele>3.0</ele><time>2026-04-07T08:57:46Z</time></trkpt><trkpt lat="44.04131124442324" lon="10.0562397828256"><ele>3.0</ele><time>2026-04-07T08:57:47Z</time></trkpt><trkpt lat="44.041152935641556" lon="10.056593825123674"><ele>3.0</ele><time>2026-04-07T08:57:48Z</time></trkpt><trkpt lat="44.04099767885477" lon="10.056948730302981"><ele>3.0</ele><time>2026-04-07T08:57:49Z</time></trkpt><trkpt lat="44.04084364729252" lon="10.057303576012027"><ele>3.0</ele><time>2026-04-07T08:57:50Z</time></trkpt><trkpt lat="44.04069149066745" lon="10.057654394880627"><ele>3.0</ele><time>2026-04-07T08:57:51Z</time></trkpt><trkpt lat="44.040538147532445" lon="10.058001899432842"><ele>4.0</ele><time>2026-04-07T08:57:52Z</time></trkpt><trkpt lat="44.040382511926936" lon="10.058345367423355"><ele>5.0</ele><time>2026-04-07T08:57:53Z</time></trkpt><trkpt lat="44.040221796321525" lon="10.058682617101587"><ele>5.0</ele><time>2026-04-07T08:57:54Z</time></trkpt><trkpt lat="44.040063961077294" lon="10.059019537733821"><ele>5.0</ele><time>2026-04-07T08:57:55Z</time></trkpt><trkpt lat="44.03991124337883" lon="10.059363022397042"><ele>5.0</ele><time>2026-04-07T08:57:56Z</time></trkpt><trkpt lat="44.03976037110659" lon="10.059706647525763"><ele>5.0</ele><time>2026-04-07T08:57:57Z</time></trkpt><trkpt lat="44.039605802247145" lon="10.060046920414175"><ele>5.0</ele><time>2026-04-07T08:57:58Z</time></trkpt><trkpt lat="44.039455081852495" lon="10.0603911219302"><ele>5.0</ele><time>2026-04-07T08:57:59Z</time></trkpt><trkpt lat="44.0393017059185" lon="10.060734499916222"><ele>4.5</ele><time>2026-04-07T08:58:00Z</time></trkpt><trkpt lat="44.03914680036875" lon="10.061080021856224"><ele>4.0</ele><time>2026-04-07T08:58:01Z</time></trkpt><trkpt lat="44.038990469474214" lon="10.061440720690385"><ele>4.0</ele><time>2026-04-07T08:58:02Z</time></trkpt><trkpt lat="44.038831254168706" lon="10.061797058843904"><ele>4.0</ele><time>2026-04-07T08:58:03Z</time></trkpt><trkpt lat="44.03867054423636" lon="10.062159383875176"><ele>4.0</ele><time>2026-04-07T08:58:04Z</time></trkpt><trkpt lat="44.038509130738994" lon="10.062523928220509"><ele>4.0</ele><time>2026-04-07T08:58:05Z</time></trkpt><trkpt lat="44.038349347517496" lon="10.062890341351398"><ele>3.5</ele><time>2026-04-07T08:58:06Z</time></trkpt><trkpt lat="44.03818660923331" lon="10.063263030714154"><ele>3.0</ele><time>2026-04-07T08:58:07Z</time></trkpt><trkpt lat="44.03802158093204" lon="10.063638394252708"><ele>3.0</ele><time>2026-04-07T08:58:08Z</time></trkpt><trkpt lat="44.03786000756152" lon="10.064006934729226"><ele>3.0</ele><time>2026-04-07T08:58:09Z</time></trkpt><trkpt lat="44.03770935293878" lon="10.064342661673209"><ele>3.0</ele><time>2026-04-07T08:58:10Z</time></trkpt><trkpt lat="44.03755990712829" lon="10.06467336183526"><ele>3.0</ele><time>2026-04-07T08:58:11Z</time></trkpt><trkpt lat="44.03741056116423" lon="10.065010155822437"><ele>3.5</ele><time>2026-04-07T08:58:12Z</time></trkpt><trkpt lat="44.0372544417822" lon="10.065354887180577"><ele>4.0</ele><time>2026-04-07T08:58:13Z</time></trkpt><trkpt lat="44.03709999662486" lon="10.065700689674681"><ele>3.5</ele><time>2026-04-07T08:58:14Z</time></trkpt><trkpt lat="44.03694542237543" lon="10.066050668586605"><ele>3.0</ele><time>2026-04-07T08:58:15Z</time></trkpt><trkpt lat="44.0367890428564" lon="10.066400509992258"><ele>4.0</ele><time>2026-04-07T08:58:16Z</time></trkpt><trkpt lat="44.03663535940263" lon="10.066753925431493"><ele>5.0</ele><time>2026-04-07T08:58:17Z</time></trkpt><trkpt lat="44.03648092078796" lon="10.067106747028518"><ele>5.0</ele><time>2026-04-07T08:58:18Z</time></trkpt><trkpt lat="44.036326002891435" lon="10.067461189527023"><ele>5.0</ele><time>2026-04-07T08:58:19Z</time></trkpt><trkpt lat="44.036166163783086" lon="10.06782374651937"><ele>5.0</ele><time>2026-04-07T08:58:20Z</time></trkpt><trkpt lat="44.03600300141362" lon="10.068194532455388"><ele>5.0</ele><time>2026-04-07T08:58:21Z</time></trkpt><trkpt lat="44.035837087053096" lon="10.068567027439512"><ele>4.0</ele><time>2026-04-07T08:58:22Z</time></trkpt><trkpt lat="44.035671949289664" lon="10.068944587135084"><ele>3.0</ele><time>2026-04-07T08:58:23Z</time></trkpt><trkpt lat="44.03550857751887" lon="10.06932574032026"><ele>3.0</ele><time>2026-04-07T08:58:24Z</time></trkpt><trkpt lat="44.035344139635775" lon="10.069712024309334"><ele>3.0</ele><time>2026-04-07T08:58:24.999Z</time></trkpt><trkpt lat="44.035182393413955" lon="10.070099518504577"><ele>3.0</ele><time>2026-04-07T08:58:25.999Z</time></trkpt><trkpt lat="44.0350328386151" lon="10.07048690538892"><ele>3.0</ele><time>2026-04-07T08:58:26.999Z</time></trkpt><trkpt lat="44.034899099210804" lon="10.070848955540221"><ele>3.0</ele><time>2026-04-07T08:58:27.999Z</time></trkpt><trkpt lat="44.034774378559405" lon="10.071203379648985"><ele>3.0</ele><time>2026-04-07T08:58:28.999Z</time></trkpt><trkpt lat="44.03465606713985" lon="10.071564789139408"><ele>3.0</ele><time>2026-04-07T08:58:29.999Z</time></trkpt><trkpt lat="44.03454214684074" lon="10.071935857665185"><ele>3.0</ele><time>2026-04-07T08:58:30.999Z</time></trkpt><trkpt lat="44.034431597625236" lon="10.072311745509248"><ele>2.5</ele><time>2026-04-07T08:58:31.999Z</time></trkpt><trkpt lat="44.03432935108188" lon="10.072690696699997"><ele>2.0</ele><time>2026-04-07T08:58:32.999Z</time></trkpt><trkpt lat="44.03423322221973" lon="10.073069936109349"><ele>2.0</ele><time>2026-04-07T08:58:33.999Z</time></trkpt><trkpt lat="44.034142335114524" lon="10.073456395652054"><ele>2.0</ele><time>2026-04-07T08:58:34.999Z</time></trkpt><trkpt lat="44.03405465558368" lon="10.073846012474581"><ele>2.0</ele><time>2026-04-07T08:58:35.999Z</time></trkpt><trkpt lat="44.03397197878262" lon="10.074240988575411"><ele>2.0</ele><time>2026-04-07T08:58:36.999Z</time></trkpt><trkpt lat="44.03389773006302" lon="10.074638177384099"><ele>2.5</ele><time>2026-04-07T08:58:37.999Z</time></trkpt><trkpt lat="44.0338320263305" lon="10.075038400045402"><ele>3.0</ele><time>2026-04-07T08:58:38.999Z</time></trkpt><trkpt lat="44.03376985337585" lon="10.075443524019823"><ele>3.0</ele><time>2026-04-07T08:58:39.999Z</time></trkpt><trkpt lat="44.033709409359815" lon="10.075856176939935"><ele>3.0</ele><time>2026-04-07T08:58:40.999Z</time></trkpt><trkpt lat="44.033652014790654" lon="10.076272048864675"><ele>3.0</ele><time>2026-04-07T08:58:41.999Z</time></trkpt><trkpt lat="44.03359692162158" lon="10.076689571911274"><ele>3.0</ele><time>2026-04-07T08:58:42.999Z</time></trkpt><trkpt lat="44.03353795859438" lon="10.07711025451087"><ele>2.5</ele><time>2026-04-07T08:58:43.999Z</time></trkpt><trkpt lat="44.03347425846509" lon="10.077533561198976"><ele>2.0</ele><time>2026-04-07T08:58:44.999Z</time></trkpt><trkpt lat="44.0334106251039" lon="10.07795714757155"><ele>2.0</ele><time>2026-04-07T08:58:45.999Z</time></trkpt><trkpt lat="44.03334918815396" lon="10.07838046942595"><ele>2.0</ele><time>2026-04-07T08:58:46.999Z</time></trkpt><trkpt lat="44.033292236539054" lon="10.078806806050043"><ele>2.0</ele><time>2026-04-07T08:58:47.999Z</time></trkpt><trkpt lat="44.03323580295875" lon="10.07923688985138"><ele>2.0</ele><time>2026-04-07T08:58:48.999Z</time></trkpt><trkpt lat="44.03317905432151" lon="10.079673831442939"><ele>2.5</ele><time>2026-04-07T08:58:49.999Z</time></trkpt><trkpt lat="44.03312173660516" lon="10.080112814679428"><ele>3.0</ele><time>2026-04-07T08:58:50.999Z</time></trkpt><trkpt lat="44.03306028464816" lon="10.08055381586294"><ele>2.5</ele><time>2026-04-07T08:58:51.999Z</time></trkpt><trkpt lat="44.032993714872674" lon="10.0809909108841"><ele>2.0</ele><time>2026-04-07T08:58:52.999Z</time></trkpt><trkpt lat="44.032918238828415" lon="10.081436189466402"><ele>3.0</ele><time>2026-04-07T08:58:53.999Z</time></trkpt><trkpt lat="44.03283239170809" lon="10.081850062155498"><ele>4.0</ele><time>2026-04-07T08:58:54.999Z</time></trkpt><trkpt lat="44.03273819817428" lon="10.08225525028996"><ele>4.5</ele><time>2026-04-07T08:58:55.999Z</time></trkpt><trkpt lat="44.0326455335922" lon="10.082649248712292"><ele>5.0</ele><time>2026-04-07T08:58:56.999Z</time></trkpt><trkpt lat="44.03254297165129" lon="10.083046981962951"><ele>3.5</ele><time>2026-04-07T08:58:57.999Z</time></trkpt><trkpt lat="44.03243781452291" lon="10.083449251129533"><ele>2.0</ele><time>2026-04-07T08:58:58.999Z</time></trkpt><trkpt lat="44.03232011034826" lon="10.083856917572696"><ele>2.5</ele><time>2026-04-07T08:58:59.999Z</time></trkpt><trkpt lat="44.03219727550814" lon="10.084254910626642"><ele>3.0</ele><time>2026-04-07T08:59:00.999Z</time></trkpt><trkpt lat="44.032067242513165" lon="10.084649696714143"><ele>4.0</ele><time>2026-04-07T08:59:01.999Z</time></trkpt><trkpt lat="44.031936025931316" lon="10.085043581895365"><ele>5.0</ele><time>2026-04-07T08:59:02.999Z</time></trkpt><trkpt lat="44.03179005514759" lon="10.085428262499837"><ele>3.5</ele><time>2026-04-07T08:59:03.999Z</time></trkpt><trkpt lat="44.03164014771437" lon="10.085809383590863"><ele>2.0</ele><time>2026-04-07T08:59:04.999Z</time></trkpt><trkpt lat="44.0315024193486" lon="10.08617625690245"><ele>2.0</ele><time>2026-04-07T08:59:05.999Z</time></trkpt><trkpt lat="44.03133374387466" lon="10.086543566102877"><ele>2.0</ele><time>2026-04-07T08:59:06.999Z</time></trkpt><trkpt lat="44.03116627449232" lon="10.086897478345657"><ele>2.5</ele><time>2026-04-07T08:59:07.999Z</time></trkpt><trkpt lat="44.03099680477601" lon="10.08724399820446"><ele>3.0</ele><time>2026-04-07T08:59:08.999Z</time></trkpt><trkpt lat="44.030818557251244" lon="10.087592929584126"><ele>2.5</ele><time>2026-04-07T08:59:09.999Z</time></trkpt><trkpt lat="44.030636479078964" lon="10.087934243389789"><ele>2.0</ele><time>2026-04-07T08:59:10.999Z</time></trkpt><trkpt lat="44.03045415090315" lon="10.088263979323344"><ele>2.0</ele><time>2026-04-07T08:59:11.999Z</time></trkpt><trkpt lat="44.030271184303814" lon="10.088588820550633"><ele>2.0</ele><time>2026-04-07T08:59:12.999Z</time></trkpt><trkpt lat="44.03007799794485" lon="10.088910455975139"><ele>3.0</ele><time>2026-04-07T08:59:13.999Z</time></trkpt><trkpt lat="44.029881753910374" lon="10.089227050494294"><ele>4.0</ele><time>2026-04-07T08:59:14.999Z</time></trkpt><trkpt lat="44.029680966881685" lon="10.089546360337895"><ele>4.0</ele><time>2026-04-07T08:59:15.999Z</time></trkpt><trkpt lat="44.0294667951884" lon="10.089877703472052"><ele>4.0</ele><time>2026-04-07T08:59:16.999Z</time></trkpt><trkpt lat="44.02924930270602" lon="10.090217104989351"><ele>4.5</ele><time>2026-04-07T08:59:17.999Z</time></trkpt><trkpt lat="44.02902612257549" lon="10.090562938229185"><ele>5.0</ele><time>2026-04-07T08:59:18.999Z</time></trkpt><trkpt lat="44.028811249626436" lon="10.090888844171962"><ele>5.5</ele><time>2026-04-07T08:59:19.999Z</time></trkpt><trkpt lat="44.028610232731765" lon="10.091195238373029"><ele>6.0</ele><time>2026-04-07T08:59:20.999Z</time></trkpt><trkpt lat="44.028411056813" lon="10.091510032676055"><ele>5.5</ele><time>2026-04-07T08:59:22Z</time></trkpt><trkpt lat="44.02820803232118" lon="10.091826219654088"><ele>5.0</ele><time>2026-04-07T08:59:23Z</time></trkpt><trkpt lat="44.0280012271759" lon="10.092141762974121"><ele>5.5</ele><time>2026-04-07T08:59:24Z</time></trkpt><trkpt lat="44.02779463226253" lon="10.09245678464359"><ele>6.0</ele><time>2026-04-07T08:59:25Z</time></trkpt><trkpt lat="44.02759084133373" lon="10.092773368262211"><ele>4.5</ele><time>2026-04-07T08:59:26Z</time></trkpt><trkpt lat="44.027377299200396" lon="10.09309507116537"><ele>3.0</ele><time>2026-04-07T08:59:27Z</time></trkpt><trkpt lat="44.02716614956914" lon="10.093414694483998"><ele>3.0</ele><time>2026-04-07T08:59:28Z</time></trkpt><trkpt lat="44.0269551374187" lon="10.09373683093999"><ele>3.0</ele><time>2026-04-07T08:59:29Z</time></trkpt><trkpt lat="44.02674838389985" lon="10.094054883388935"><ele>3.0</ele><time>2026-04-07T08:59:30Z</time></trkpt><trkpt lat="44.02654241046892" lon="10.094374944191209"><ele>3.0</ele><time>2026-04-07T08:59:31Z</time></trkpt><trkpt lat="44.0263361282257" lon="10.094691787704205"><ele>3.5</ele><time>2026-04-07T08:59:32Z</time></trkpt><trkpt lat="44.026126580114614" lon="10.095011980402479"><ele>4.0</ele><time>2026-04-07T08:59:33Z</time></trkpt><trkpt lat="44.02591026625894" lon="10.095347436489646"><ele>3.5</ele><time>2026-04-07T08:59:34Z</time></trkpt><trkpt lat="44.02571069345005" lon="10.095642946090749"><ele>3.0</ele><time>2026-04-07T08:59:35Z</time></trkpt><trkpt lat="44.02552270638754" lon="10.095930780125798"><ele>2.5</ele><time>2026-04-07T08:59:36Z</time></trkpt><trkpt lat="44.02534428463567" lon="10.096209806151744"><ele>2.0</ele><time>2026-04-07T08:59:37Z</time></trkpt><trkpt lat="44.025160063480094" lon="10.096498559238208"><ele>2.0</ele><time>2026-04-07T08:59:38Z</time></trkpt><trkpt lat="44.02497054736641" lon="10.096790420707736"><ele>2.0</ele><time>2026-04-07T08:59:39Z</time></trkpt><trkpt lat="44.02477754073398" lon="10.097084024382864"><ele>2.0</ele><time>2026-04-07T08:59:40Z</time></trkpt><trkpt lat="44.02459502008861" lon="10.097361063892649"><ele>2.0</ele><time>2026-04-07T08:59:41Z</time></trkpt><trkpt lat="44.02442118668571" lon="10.097625191562335"><ele>2.0</ele><time>2026-04-07T08:59:42Z</time></trkpt><trkpt lat="44.02425770526268" lon="10.097879963761216"><ele>2.0</ele><time>2026-04-07T08:59:43Z</time></trkpt><trkpt lat="44.02409189404592" lon="10.098148338955058"><ele>3.0</ele><time>2026-04-07T08:59:44Z</time></trkpt><trkpt lat="44.023914974443024" lon="10.098450035270371"><ele>4.0</ele><time>2026-04-07T08:59:45Z</time></trkpt><trkpt lat="44.02373307910349" lon="10.098780189359045"><ele>5.5</ele><time>2026-04-07T08:59:46Z</time></trkpt><trkpt lat="44.023546609516174" lon="10.09913764808644"><ele>7.0</ele><time>2026-04-07T08:59:47Z</time></trkpt><trkpt lat="44.023365082769445" lon="10.099485766983213"><ele>5.5</ele><time>2026-04-07T08:59:48Z</time></trkpt><trkpt lat="44.02317419875279" lon="10.099866465384155"><ele>4.0</ele><time>2026-04-07T08:59:49Z</time></trkpt><trkpt lat="44.02299494044161" lon="10.100245914965619"><ele>3.0</ele><time>2026-04-07T08:59:50Z</time></trkpt><trkpt lat="44.02283048737934" lon="10.100621758615755"><ele>2.0</ele><time>2026-04-07T08:59:51Z</time></trkpt><trkpt lat="44.022681923438" lon="10.100979808752166"><ele>2.0</ele><time>2026-04-07T08:59:52Z</time></trkpt><trkpt lat="44.02252879102642" lon="10.101348023373067"><ele>2.0</ele><time>2026-04-07T08:59:53Z</time></trkpt><trkpt lat="44.02238212302354" lon="10.101716463642004"><ele>2.0</ele><time>2026-04-07T08:59:54Z</time></trkpt><trkpt lat="44.022242481409684" lon="10.102082774191437"><ele>2.0</ele><time>2026-04-07T08:59:55Z</time></trkpt><trkpt lat="44.022109420725094" lon="10.10245524808953"><ele>2.0</ele><time>2026-04-07T08:59:56Z</time></trkpt><trkpt lat="44.02199060128908" lon="10.10283345675802"><ele>2.0</ele><time>2026-04-07T08:59:57Z</time></trkpt><trkpt lat="44.02187913919278" lon="10.103218357147368"><ele>2.5</ele><time>2026-04-07T08:59:58Z</time></trkpt><trkpt lat="44.02177087118561" lon="10.10360676785345"><ele>3.0</ele><time>2026-04-07T08:59:59Z</time></trkpt><trkpt lat="44.02166845636986" lon="10.10399473340133"><ele>2.5</ele><time>2026-04-07T09:00:00Z</time></trkpt><trkpt lat="44.02157229152901" lon="10.10438283863244"><ele>2.0</ele><time>2026-04-07T09:00:01Z</time></trkpt><trkpt lat="44.0214798652571" lon="10.104773314326508"><ele>3.0</ele><time>2026-04-07T09:00:02Z</time></trkpt><trkpt lat="44.0213924330979" lon="10.105166748728559"><ele>4.0</ele><time>2026-04-07T09:00:03Z</time></trkpt><trkpt lat="44.02130728523501" lon="10.105565056865686"><ele>4.0</ele><time>2026-04-07T09:00:04Z</time></trkpt><trkpt lat="44.021221707686045" lon="10.10595959632549"><ele>4.0</ele><time>2026-04-07T09:00:05Z</time></trkpt><trkpt lat="44.02113142552752" lon="10.10636743639151"><ele>4.0</ele><time>2026-04-07T09:00:06Z</time></trkpt><trkpt lat="44.021037961805376" lon="10.106770260346911"><ele>4.0</ele><time>2026-04-07T09:00:07Z</time></trkpt><trkpt lat="44.02094660863246" lon="10.107170624992333"><ele>4.0</ele><time>2026-04-07T09:00:08Z</time></trkpt><trkpt lat="44.020855614571275" lon="10.107572584691065"><ele>4.0</ele><time>2026-04-07T09:00:09Z</time></trkpt><trkpt lat="44.02076717862014" lon="10.107975918746986"><ele>4.0</ele><time>2026-04-07T09:00:10Z</time></trkpt><trkpt lat="44.020680202394544" lon="10.108381800786242"><ele>4.0</ele><time>2026-04-07T09:00:11Z</time></trkpt><trkpt lat="44.020594053400345" lon="10.108787019895205"><ele>4.0</ele><time>2026-04-07T09:00:12Z</time></trkpt><trkpt lat="44.020504477985" lon="10.10919037371283"><ele>4.0</ele><time>2026-04-07T09:00:13Z</time></trkpt><trkpt lat="44.020411191713876" lon="10.109594029314392"><ele>3.5</ele><time>2026-04-07T09:00:14Z</time></trkpt><trkpt lat="44.02032142881049" lon="10.109997898071173"><ele>3.0</ele><time>2026-04-07T09:00:15Z</time></trkpt><trkpt lat="44.02023108354187" lon="10.110403078235114"><ele>3.0</ele><time>2026-04-07T09:00:16Z</time></trkpt><trkpt lat="44.020141576850875" lon="10.11080811997468"><ele>3.0</ele><time>2026-04-07T09:00:17Z</time></trkpt><trkpt lat="44.02005070605402" lon="10.111209745955486"><ele>3.0</ele><time>2026-04-07T09:00:18Z</time></trkpt><trkpt lat="44.01995415227569" lon="10.111605482928224"><ele>3.0</ele><time>2026-04-07T09:00:19Z</time></trkpt><trkpt lat="44.01984934093738" lon="10.111997322278333"><ele>3.0</ele><time>2026-04-07T09:00:20Z</time></trkpt><trkpt lat="44.01973345423121" lon="10.112380860683148"><ele>3.0</ele><time>2026-04-07T09:00:21Z</time></trkpt><trkpt lat="44.019610919333196" lon="10.112758526458208"><ele>4.0</ele><time>2026-04-07T09:00:22Z</time></trkpt><trkpt lat="44.019483095661585" lon="10.113133437727598"><ele>5.0</ele><time>2026-04-07T09:00:23Z</time></trkpt><trkpt lat="44.01935260396041" lon="10.113503496338943"><ele>5.5</ele><time>2026-04-07T09:00:24Z</time></trkpt><trkpt lat="44.01922028937192" lon="10.113875110892998"><ele>6.0</ele><time>2026-04-07T09:00:25Z</time></trkpt><trkpt lat="44.01908267795274" lon="10.11424255032441"><ele>6.0</ele><time>2026-04-07T09:00:26Z</time></trkpt><trkpt lat="44.01893555725557" lon="10.11460573064434"><ele>6.0</ele><time>2026-04-07T09:00:27Z</time></trkpt><trkpt lat="44.01878501202004" lon="10.114967410075172"><ele>6.0</ele><time>2026-04-07T09:00:28Z</time></trkpt><trkpt lat="44.018625488424696" lon="10.115329452743705"><ele>6.0</ele><time>2026-04-07T09:00:28.999Z</time></trkpt><trkpt lat="44.01845682836975" lon="10.11568925300063"><ele>6.5</ele><time>2026-04-07T09:00:29.999Z</time></trkpt><trkpt lat="44.01828429268411" lon="10.116046217804467"><ele>7.0</ele><time>2026-04-07T09:00:30.999Z</time></trkpt><trkpt lat="44.0181045563378" lon="10.11640597750698"><ele>7.0</ele><time>2026-04-07T09:00:31.999Z</time></trkpt><trkpt lat="44.017922794700375" lon="10.116768300386132"><ele>7.0</ele><time>2026-04-07T09:00:32.999Z</time></trkpt><trkpt lat="44.01773858604851" lon="10.1171368195826"><ele>7.0</ele><time>2026-04-07T09:00:33.999Z</time></trkpt><trkpt lat="44.01755258593523" lon="10.117506677393367"><ele>7.0</ele><time>2026-04-07T09:00:34.999Z</time></trkpt><trkpt lat="44.01735995498464" lon="10.11788438968456"><ele>6.5</ele><time>2026-04-07T09:00:35.999Z</time></trkpt><trkpt lat="44.017162009375774" lon="10.118274471297836"><ele>6.0</ele><time>2026-04-07T09:00:36.999Z</time></trkpt><trkpt lat="44.01695907211542" lon="10.118668590486594"><ele>7.0</ele><time>2026-04-07T09:00:37.999Z</time></trkpt><trkpt lat="44.01675751525085" lon="10.119068260284951"><ele>8.0</ele><time>2026-04-07T09:00:38.999Z</time></trkpt><trkpt lat="44.01658592060869" lon="10.119438484543421"><ele>8.5</ele><time>2026-04-07T09:00:39.999Z</time></trkpt><trkpt lat="44.01640844808617" lon="10.119804265885815"><ele>9.0</ele><time>2026-04-07T09:00:40.999Z</time></trkpt><trkpt lat="44.016234402318624" lon="10.120138275706896"><ele>8.5</ele><time>2026-04-07T09:00:41.999Z</time></trkpt><trkpt lat="44.01606969252581" lon="10.120460635809714"><ele>8.0</ele><time>2026-04-07T09:00:42.999Z</time></trkpt><trkpt lat="44.01590054369588" lon="10.12079673867587"><ele>5.5</ele><time>2026-04-07T09:00:43.999Z</time></trkpt><trkpt lat="44.01572056522639" lon="10.121155660902627"><ele>3.0</ele><time>2026-04-07T09:00:44.999Z</time></trkpt><trkpt lat="44.01553870041038" lon="10.121517251825379"><ele>3.0</ele><time>2026-04-07T09:00:45.999Z</time></trkpt><trkpt lat="44.015357413088154" lon="10.12187922360496"><ele>3.0</ele><time>2026-04-07T09:00:46.999Z</time></trkpt><trkpt lat="44.015175561468304" lon="10.122244607077208"><ele>2.5</ele><time>2026-04-07T09:00:47.999Z</time></trkpt><trkpt lat="44.01498806865173" lon="10.12261867813226"><ele>2.0</ele><time>2026-04-07T09:00:48.999Z</time></trkpt><trkpt lat="44.01481123025738" lon="10.122977543344895"><ele>2.5</ele><time>2026-04-07T09:00:49.999Z</time></trkpt><trkpt lat="44.01464225728217" lon="10.123314663083093"><ele>3.0</ele><time>2026-04-07T09:00:50.999Z</time></trkpt><trkpt lat="44.01446652183879" lon="10.123661227538104"><ele>3.0</ele><time>2026-04-07T09:00:51.999Z</time></trkpt><trkpt lat="44.014288169118906" lon="10.124010765501025"><ele>3.0</ele><time>2026-04-07T09:00:52.999Z</time></trkpt><trkpt lat="44.01411182352634" lon="10.124363351401678"><ele>2.5</ele><time>2026-04-07T09:00:53.999Z</time></trkpt><trkpt lat="44.01393571018536" lon="10.124720611458269"><ele>2.0</ele><time>2026-04-07T09:00:54.999Z</time></trkpt><trkpt lat="44.013757312729396" lon="10.125077804946198"><ele>2.0</ele><time>2026-04-07T09:00:55.999Z</time></trkpt><trkpt lat="44.01357841322688" lon="10.125435996525056"><ele>2.0</ele><time>2026-04-07T09:00:56.999Z</time></trkpt><trkpt lat="44.01339991393318" lon="10.12579678835636"><ele>2.0</ele><time>2026-04-07T09:00:57.999Z</time></trkpt><trkpt lat="44.013220497578445" lon="10.126157894202453"><ele>2.0</ele><time>2026-04-07T09:00:58.999Z</time></trkpt><trkpt lat="44.01304018758615" lon="10.126518173465046"><ele>2.5</ele><time>2026-04-07T09:00:59.999Z</time></trkpt><trkpt lat="44.01286567793906" lon="10.126860597077608"><ele>3.0</ele><time>2026-04-07T09:01:00.999Z</time></trkpt><trkpt lat="44.012704197513486" lon="10.12716941123654"><ele>2.0</ele><time>2026-04-07T09:01:01.999Z</time></trkpt><trkpt lat="44.01254229535165" lon="10.127468631819038"><ele>1.0</ele><time>2026-04-07T09:01:02.999Z</time></trkpt><trkpt lat="44.01238158404868" lon="10.127753648865832"><ele>1.0</ele><time>2026-04-07T09:01:03.999Z</time></trkpt><trkpt lat="44.012208739138416" lon="10.128046827579276"><ele>1.0</ele><time>2026-04-07T09:01:04.999Z</time></trkpt><trkpt lat="44.01202407938994" lon="10.128353069618806"><ele>2.0</ele><time>2026-04-07T09:01:05.999Z</time></trkpt><trkpt lat="44.011829913056296" lon="10.12867004787512"><ele>3.0</ele><time>2026-04-07T09:01:06.999Z</time></trkpt><trkpt lat="44.01164188208292" lon="10.128969213691644"><ele>3.5</ele><time>2026-04-07T09:01:07.999Z</time></trkpt><trkpt lat="44.01146268376098" lon="10.129243263288156"><ele>4.0</ele><time>2026-04-07T09:01:08.999Z</time></trkpt><trkpt lat="44.0112832850427" lon="10.129508099312105"><ele>4.0</ele><time>2026-04-07T09:01:09.999Z</time></trkpt><trkpt lat="44.011095542320014" lon="10.129777536525486"><ele>4.0</ele><time>2026-04-07T09:01:10.999Z</time></trkpt><trkpt lat="44.010902434545706" lon="10.130060447541707"><ele>3.5</ele><time>2026-04-07T09:01:11.999Z</time></trkpt><trkpt lat="44.0106974109529" lon="10.130355243230818"><ele>3.0</ele><time>2026-04-07T09:01:12.999Z</time></trkpt><trkpt lat="44.010486026694906" lon="10.130665150301274"><ele>3.5</ele><time>2026-04-07T09:01:13.999Z</time></trkpt><trkpt lat="44.010267074319486" lon="10.130984961677289"><ele>4.0</ele><time>2026-04-07T09:01:14.999Z</time></trkpt><trkpt lat="44.010041931397396" lon="10.131310887500236"><ele>3.0</ele><time>2026-04-07T09:01:15.999Z</time></trkpt><trkpt lat="44.00981657718199" lon="10.13163742885284"><ele>2.0</ele><time>2026-04-07T09:01:16.999Z</time></trkpt><trkpt lat="44.009605450699695" lon="10.131942023720754"><ele>2.0</ele><time>2026-04-07T09:01:17.999Z</time></trkpt><trkpt lat="44.009398976170125" lon="10.13224434744756"><ele>2.0</ele><time>2026-04-07T09:01:18.999Z</time></trkpt><trkpt lat="44.009194805708916" lon="10.132539676168363"><ele>2.0</ele><time>2026-04-07T09:01:19.999Z</time></trkpt><trkpt lat="44.00898591920922" lon="10.13283499524715"><ele>2.0</ele><time>2026-04-07T09:01:20.999Z</time></trkpt><trkpt lat="44.00878249170254" lon="10.13312650645412"><ele>2.0</ele><time>2026-04-07T09:01:21.999Z</time></trkpt><trkpt lat="44.00858212579888" lon="10.13341809906005"><ele>2.0</ele><time>2026-04-07T09:01:22.999Z</time></trkpt><trkpt lat="44.008383430434534" lon="10.133708192104889"><ele>2.0</ele><time>2026-04-07T09:01:23.999Z</time></trkpt><trkpt lat="44.00817955130328" lon="10.133999238428693"><ele>2.0</ele><time>2026-04-07T09:01:24.999Z</time></trkpt><trkpt lat="44.00797519082303" lon="10.134292807764766"><ele>2.5</ele><time>2026-04-07T09:01:25.999Z</time></trkpt><trkpt lat="44.00776751716076" lon="10.134591934399005"><ele>3.0</ele><time>2026-04-07T09:01:26.999Z</time></trkpt><trkpt lat="44.0075562004564" lon="10.134897457782008"><ele>2.5</ele><time>2026-04-07T09:01:28Z</time></trkpt><trkpt lat="44.007340815393846" lon="10.135206213021775"><ele>2.0</ele><time>2026-04-07T09:01:29Z</time></trkpt><trkpt lat="44.00712695420496" lon="10.135518397305617"><ele>2.0</ele><time>2026-04-07T09:01:30Z</time></trkpt><trkpt lat="44.006913584450125" lon="10.135826830811595"><ele>2.0</ele><time>2026-04-07T09:01:31Z</time></trkpt><trkpt lat="44.00669712533636" lon="10.13613959222865"><ele>1.5</ele><time>2026-04-07T09:01:32Z</time></trkpt><trkpt lat="44.00647478997464" lon="10.136456424122176"><ele>1.0</ele><time>2026-04-07T09:01:33Z</time></trkpt><trkpt lat="44.006251480186705" lon="10.136777791067425"><ele>2.0</ele><time>2026-04-07T09:01:34Z</time></trkpt><trkpt lat="44.006023275968154" lon="10.137106423632842"><ele>3.0</ele><time>2026-04-07T09:01:35Z</time></trkpt><trkpt lat="44.00579471355061" lon="10.137435591223703"><ele>3.0</ele><time>2026-04-07T09:01:36Z</time></trkpt><trkpt lat="44.005566518247385" lon="10.137770458659958"><ele>3.0</ele><time>2026-04-07T09:01:37Z</time></trkpt><trkpt lat="44.00534556604739" lon="10.138092082260242"><ele>3.0</ele><time>2026-04-07T09:01:38Z</time></trkpt><trkpt lat="44.00512846331611" lon="10.13840279873034"><ele>3.0</ele><time>2026-04-07T09:01:39Z</time></trkpt><trkpt lat="44.00491321586782" lon="10.138715524134781"><ele>2.0</ele><time>2026-04-07T09:01:40Z</time></trkpt><trkpt lat="44.00469841353574" lon="10.139028360304769"><ele>1.0</ele><time>2026-04-07T09:01:41Z</time></trkpt><trkpt lat="44.00448502451312" lon="10.13933761694211"><ele>0.5</ele><time>2026-04-07T09:01:42Z</time></trkpt><trkpt lat="44.00427249737263" lon="10.139644746304482"><ele>0.0</ele><time>2026-04-07T09:01:43Z</time></trkpt><trkpt lat="44.004061392932584" lon="10.139952354929049"><ele>1.5</ele><time>2026-04-07T09:01:44Z</time></trkpt><trkpt lat="44.003851997969164" lon="10.140258607503485"><ele>3.0</ele><time>2026-04-07T09:01:45Z</time></trkpt><trkpt lat="44.00364356474109" lon="10.140561589900535"><ele>3.0</ele><time>2026-04-07T09:01:46Z</time></trkpt><trkpt lat="44.00343371158207" lon="10.14086650203359"><ele>3.0</ele><time>2026-04-07T09:01:47Z</time></trkpt><trkpt lat="44.00322344765945" lon="10.141172206135414"><ele>2.5</ele><time>2026-04-07T09:01:48Z</time></trkpt><trkpt lat="44.00301399246151" lon="10.141473980538871"><ele>2.0</ele><time>2026-04-07T09:01:49Z</time></trkpt><trkpt lat="44.00280301516059" lon="10.141776372171966"><ele>2.0</ele><time>2026-04-07T09:01:50Z</time></trkpt><trkpt lat="44.00259604779939" lon="10.142080013236024"><ele>2.0</ele><time>2026-04-07T09:01:51Z</time></trkpt><trkpt lat="44.00238995799123" lon="10.142379563234785"><ele>1.5</ele><time>2026-04-07T09:01:52Z</time></trkpt><trkpt lat="44.00218601781053" lon="10.14267434924237"><ele>1.0</ele><time>2026-04-07T09:01:53Z</time></trkpt><trkpt lat="44.001985467979246" lon="10.142948967599857"><ele>1.5</ele><time>2026-04-07T09:01:54Z</time></trkpt><trkpt lat="44.001775545338965" lon="10.14322142495663"><ele>2.0</ele><time>2026-04-07T09:01:55Z</time></trkpt><trkpt lat="44.00155750813969" lon="10.143490861739862"><ele>2.0</ele><time>2026-04-07T09:01:56Z</time></trkpt><trkpt lat="44.00133392275357" lon="10.143752508079274"><ele>2.0</ele><time>2026-04-07T09:01:57Z</time></trkpt><trkpt lat="44.00110709175512" lon="10.144006863646513"><ele>2.0</ele><time>2026-04-07T09:01:58Z</time></trkpt><trkpt lat="44.00087967288147" lon="10.144255072630628"><ele>2.0</ele><time>2026-04-07T09:01:59Z</time></trkpt><trkpt lat="44.00064633256054" lon="10.1444943693538"><ele>2.0</ele><time>2026-04-07T09:02:00Z</time></trkpt><trkpt lat="44.00040293749127" lon="10.144724818964505"><ele>2.0</ele><time>2026-04-07T09:02:01Z</time></trkpt><trkpt lat="44.00014911054357" lon="10.14495593638502"><ele>2.5</ele><time>2026-04-07T09:02:02Z</time></trkpt><trkpt lat="43.99988242836794" lon="10.14519000802075"><ele>3.0</ele><time>2026-04-07T09:02:03Z</time></trkpt><trkpt lat="43.999612272322764" lon="10.14542941700228"><ele>3.0</ele><time>2026-04-07T09:02:04Z</time></trkpt><trkpt lat="43.99933613223625" lon="10.145660955259208"><ele>3.0</ele><time>2026-04-07T09:02:05Z</time></trkpt><trkpt lat="43.99905494366792" lon="10.145885754095724"><ele>3.0</ele><time>2026-04-07T09:02:06Z</time></trkpt><trkpt lat="43.998768087398325" lon="10.146098153218533"><ele>3.0</ele><time>2026-04-07T09:02:07Z</time></trkpt><trkpt lat="43.99847723969627" lon="10.14629332614914"><ele>3.0</ele><time>2026-04-07T09:02:08Z</time></trkpt><trkpt lat="43.99818672166074" lon="10.146478791515618"><ele>3.0</ele><time>2026-04-07T09:02:09Z</time></trkpt><trkpt lat="43.99789218042099" lon="10.146662677250166"><ele>3.0</ele><time>2026-04-07T09:02:10Z</time></trkpt><trkpt lat="43.9975976591523" lon="10.146851995779945"><ele>3.0</ele><time>2026-04-07T09:02:11Z</time></trkpt><trkpt lat="43.99730553625506" lon="10.147043402973914"><ele>3.5</ele><time>2026-04-07T09:02:12Z</time></trkpt><trkpt lat="43.997015655905166" lon="10.14723328012075"><ele>4.0</ele><time>2026-04-07T09:02:13Z</time></trkpt><trkpt lat="43.99672566415365" lon="10.147422502848883"><ele>3.5</ele><time>2026-04-07T09:02:14Z</time></trkpt><trkpt lat="43.996437192187855" lon="10.147609068026094"><ele>3.0</ele><time>2026-04-07T09:02:15Z</time></trkpt><trkpt lat="43.996151803428845" lon="10.147796106973486"><ele>3.0</ele><time>2026-04-07T09:02:16Z</time></trkpt><trkpt lat="43.99586456399922" lon="10.147982891336728"><ele>3.0</ele><time>2026-04-07T09:02:17Z</time></trkpt><trkpt lat="43.995578120290816" lon="10.148166541545255"><ele>3.5</ele><time>2026-04-07T09:02:18Z</time></trkpt><trkpt lat="43.99529307625026" lon="10.148351990101641"><ele>4.0</ele><time>2026-04-07T09:02:19Z</time></trkpt><trkpt lat="43.995005367571466" lon="10.148539787357256"><ele>4.0</ele><time>2026-04-07T09:02:20Z</time></trkpt><trkpt lat="43.99471700803694" lon="10.148724995413279"><ele>4.0</ele><time>2026-04-07T09:02:21Z</time></trkpt><trkpt lat="43.99442875848882" lon="10.148910420342505"><ele>4.5</ele><time>2026-04-07T09:02:22Z</time></trkpt><trkpt lat="43.99414007126163" lon="10.149096191009495"><ele>5.0</ele><time>2026-04-07T09:02:23Z</time></trkpt><trkpt lat="43.99385168453735" lon="10.149284455621531"><ele>5.0</ele><time>2026-04-07T09:02:24Z</time></trkpt><trkpt lat="43.99356541735398" lon="10.149481858387032"><ele>5.0</ele><time>2026-04-07T09:02:25Z</time></trkpt><trkpt lat="43.99328498163742" lon="10.149696346741743"><ele>4.5</ele><time>2026-04-07T09:02:26Z</time></trkpt><trkpt lat="43.99300978001012" lon="10.149927324725098"><ele>4.0</ele><time>2026-04-07T09:02:27Z</time></trkpt><trkpt lat="43.99273810927465" lon="10.150165790001427"><ele>4.5</ele><time>2026-04-07T09:02:28Z</time></trkpt><trkpt lat="43.992466751632044" lon="10.150409873618571"><ele>5.0</ele><time>2026-04-07T09:02:29Z</time></trkpt><trkpt lat="43.99219734232922" lon="10.150653686723437"><ele>4.5</ele><time>2026-04-07T09:02:30Z</time></trkpt><trkpt lat="43.99193528214514" lon="10.15090993542815"><ele>4.0</ele><time>2026-04-07T09:02:31Z</time></trkpt><trkpt lat="43.991680949142285" lon="10.151182069125229"><ele>4.0</ele><time>2026-04-07T09:02:31.999Z</time></trkpt><trkpt lat="43.99143360427949" lon="10.15146099712913"><ele>4.0</ele><time>2026-04-07T09:02:32.999Z</time></trkpt><trkpt lat="43.99120470967554" lon="10.151730017431108"><ele>4.0</ele><time>2026-04-07T09:02:33.999Z</time></trkpt><trkpt lat="43.990981506557986" lon="10.152007354516769"><ele>4.0</ele><time>2026-04-07T09:02:34.999Z</time></trkpt><trkpt lat="43.99075726670264" lon="10.152287780647834"><ele>4.0</ele><time>2026-04-07T09:02:35.999Z</time></trkpt><trkpt lat="43.990536227913644" lon="10.15258004371777"><ele>4.0</ele><time>2026-04-07T09:02:36.999Z</time></trkpt><trkpt lat="43.99031869749402" lon="10.152875830896981"><ele>4.0</ele><time>2026-04-07T09:02:37.999Z</time></trkpt><trkpt lat="43.99010348215656" lon="10.153177409961911"><ele>4.0</ele><time>2026-04-07T09:02:38.999Z</time></trkpt><trkpt lat="43.98989173972512" lon="10.153486946554564"><ele>3.0</ele><time>2026-04-07T09:02:39.999Z</time></trkpt><trkpt lat="43.989677182911514" lon="10.153795000727813"><ele>2.0</ele><time>2026-04-07T09:02:40.999Z</time></trkpt><trkpt lat="43.989462391039375" lon="10.154100355739054"><ele>2.0</ele><time>2026-04-07T09:02:41.999Z</time></trkpt><trkpt lat="43.9892469419762" lon="10.154406263304384"><ele>2.0</ele><time>2026-04-07T09:02:42.999Z</time></trkpt><trkpt lat="43.989033993443755" lon="10.154713285359604"><ele>1.5</ele><time>2026-04-07T09:02:43.999Z</time></trkpt><trkpt lat="43.988821119205014" lon="10.155026419035927"><ele>1.0</ele><time>2026-04-07T09:02:44.999Z</time></trkpt><trkpt lat="43.98860433490456" lon="10.15533427059852"><ele>1.0</ele><time>2026-04-07T09:02:45.999Z</time></trkpt><trkpt lat="43.988385306348924" lon="10.155640503799907"><ele>1.0</ele><time>2026-04-07T09:02:46.999Z</time></trkpt><trkpt lat="43.988163507727684" lon="10.15594447239809"><ele>1.0</ele><time>2026-04-07T09:02:47.999Z</time></trkpt><trkpt lat="43.98794601405279" lon="10.156250317416065"><ele>1.0</ele><time>2026-04-07T09:02:48.999Z</time></trkpt><trkpt lat="43.987729318199555" lon="10.15655858347171"><ele>1.0</ele><time>2026-04-07T09:02:49.999Z</time></trkpt><trkpt lat="43.98751358379659" lon="10.156870576830107"><ele>1.0</ele><time>2026-04-07T09:02:50.999Z</time></trkpt><trkpt lat="43.98729538453059" lon="10.157180504005652"><ele>0.5</ele><time>2026-04-07T09:02:51.999Z</time></trkpt><trkpt lat="43.98707896970921" lon="10.157491453743392"><ele>0.0</ele><time>2026-04-07T09:02:52.999Z</time></trkpt><trkpt lat="43.986859917626546" lon="10.157802152927687"><ele>0.5</ele><time>2026-04-07T09:02:53.999Z</time></trkpt><trkpt lat="43.9866431147534" lon="10.158113162264815"><ele>1.0</ele><time>2026-04-07T09:02:54.999Z</time></trkpt><trkpt lat="43.98642683733829" lon="10.158425651372193"><ele>1.0</ele><time>2026-04-07T09:02:55.999Z</time></trkpt><trkpt lat="43.986211829515774" lon="10.158737619890424"><ele>1.0</ele><time>2026-04-07T09:02:56.999Z</time></trkpt><trkpt lat="43.98599696773477" lon="10.159046658791649"><ele>1.0</ele><time>2026-04-07T09:02:57.999Z</time></trkpt><trkpt lat="43.985783024097294" lon="10.159358663480736"><ele>1.0</ele><time>2026-04-07T09:02:58.999Z</time></trkpt><trkpt lat="43.98557117899912" lon="10.159670341998831"><ele>0.5</ele><time>2026-04-07T09:02:59.999Z</time></trkpt><trkpt lat="43.98535972502015" lon="10.159979722858814"><ele>0.0</ele><time>2026-04-07T09:03:00.999Z</time></trkpt><trkpt lat="43.9851491057744" lon="10.160288032270872"><ele>0.0</ele><time>2026-04-07T09:03:01.999Z</time></trkpt><trkpt lat="43.98494149107952" lon="10.160595674429173"><ele>0.0</ele><time>2026-04-07T09:03:02.999Z</time></trkpt><trkpt lat="43.98473131126187" lon="10.160900169547853"><ele>0.0</ele><time>2026-04-07T09:03:03.999Z</time></trkpt><trkpt lat="43.98452295113934" lon="10.161198380045112"><ele>0.0</ele><time>2026-04-07T09:03:04.999Z</time></trkpt><trkpt lat="43.984326546137666" lon="10.161481317262222"><ele>1.0</ele><time>2026-04-07T09:03:05.999Z</time></trkpt><trkpt lat="43.984128500651515" lon="10.16176925849562"><ele>2.0</ele><time>2026-04-07T09:03:06.999Z</time></trkpt><trkpt lat="43.9839343705087" lon="10.162055341440475"><ele>2.0</ele><time>2026-04-07T09:03:07.999Z</time></trkpt><trkpt lat="43.983738416356346" lon="10.16233746149396"><ele>2.0</ele><time>2026-04-07T09:03:08.999Z</time></trkpt><trkpt lat="43.98354123245053" lon="10.162619690484485"><ele>3.0</ele><time>2026-04-07T09:03:09.999Z</time></trkpt><trkpt lat="43.98334273579466" lon="10.162905189456097"><ele>4.0</ele><time>2026-04-07T09:03:10.999Z</time></trkpt><trkpt lat="43.98314367079152" lon="10.16319127107477"><ele>3.0</ele><time>2026-04-07T09:03:11.999Z</time></trkpt><trkpt lat="43.982942172447274" lon="10.16348322656762"><ele>2.0</ele><time>2026-04-07T09:03:12.999Z</time></trkpt><trkpt lat="43.98273647003142" lon="10.16378106148742"><ele>3.5</ele><time>2026-04-07T09:03:13.999Z</time></trkpt><trkpt lat="43.982518780343334" lon="10.164100436416144"><ele>5.0</ele><time>2026-04-07T09:03:14.999Z</time></trkpt><trkpt lat="43.98228829173114" lon="10.164424198112942"><ele>5.0</ele><time>2026-04-07T09:03:15.999Z</time></trkpt><trkpt lat="43.98204918510516" lon="10.164763599929811"><ele>5.0</ele><time>2026-04-07T09:03:16.999Z</time></trkpt><trkpt lat="43.98180249338196" lon="10.165114577177947"><ele>4.5</ele><time>2026-04-07T09:03:17.999Z</time></trkpt><trkpt lat="43.981571426546274" lon="10.165443510065211"><ele>4.0</ele><time>2026-04-07T09:03:18.999Z</time></trkpt><trkpt lat="43.98132342675302" lon="10.165807781044043"><ele>4.0</ele><time>2026-04-07T09:03:19.999Z</time></trkpt><trkpt lat="43.981101544978316" lon="10.166125023942126"><ele>4.0</ele><time>2026-04-07T09:03:20.999Z</time></trkpt><trkpt lat="43.98087845473451" lon="10.16644777495937"><ele>3.5</ele><time>2026-04-07T09:03:21.999Z</time></trkpt><trkpt lat="43.980657873085605" lon="10.166768822516287"><ele>3.0</ele><time>2026-04-07T09:03:22.999Z</time></trkpt><trkpt lat="43.98043881419759" lon="10.167087327380516"><ele>2.5</ele><time>2026-04-07T09:03:23.999Z</time></trkpt><trkpt lat="43.98022258381523" lon="10.167403579345484"><ele>2.0</ele><time>2026-04-07T09:03:24.999Z</time></trkpt><trkpt lat="43.98000554481151" lon="10.167719165879163"><ele>2.0</ele><time>2026-04-07T09:03:25.999Z</time></trkpt><trkpt lat="43.979790895926016" lon="10.168030537719138"><ele>2.0</ele><time>2026-04-07T09:03:26.999Z</time></trkpt><trkpt lat="43.97957477543827" lon="10.168338520883134"><ele>2.0</ele><time>2026-04-07T09:03:27.999Z</time></trkpt><trkpt lat="43.9793603142951" lon="10.168646034183299"><ele>2.0</ele><time>2026-04-07T09:03:28.999Z</time></trkpt><trkpt lat="43.97914642724218" lon="10.168953442633036"><ele>2.5</ele><time>2026-04-07T09:03:29.999Z</time></trkpt><trkpt lat="43.978932108181134" lon="10.169261255707841"><ele>3.0</ele><time>2026-04-07T09:03:30.999Z</time></trkpt><trkpt lat="43.978720739745896" lon="10.16956770647164"><ele>3.5</ele><time>2026-04-07T09:03:31.999Z</time></trkpt><trkpt lat="43.978510529333846" lon="10.169870790856042"><ele>4.0</ele><time>2026-04-07T09:03:32.999Z</time></trkpt><trkpt lat="43.97830213671873" lon="10.170175688707918"><ele>4.0</ele><time>2026-04-07T09:03:34Z</time></trkpt><trkpt lat="43.97809381225175" lon="10.170477051191579"><ele>4.0</ele><time>2026-04-07T09:03:35Z</time></trkpt><trkpt lat="43.97788508605688" lon="10.170783429491037"><ele>3.0</ele><time>2026-04-07T09:03:36Z</time></trkpt><trkpt lat="43.97767563351114" lon="10.171085575502403"><ele>2.0</ele><time>2026-04-07T09:03:37Z</time></trkpt><trkpt lat="43.97746582770897" lon="10.17138783073451"><ele>2.0</ele><time>2026-04-07T09:03:38Z</time></trkpt><trkpt lat="43.97725390198124" lon="10.171690950199244"><ele>2.0</ele><time>2026-04-07T09:03:39Z</time></trkpt><trkpt lat="43.97704594901123" lon="10.171990760730806"><ele>2.0</ele><time>2026-04-07T09:03:40Z</time></trkpt><trkpt lat="43.97683803830077" lon="10.172295441996525"><ele>2.0</ele><time>2026-04-07T09:03:41Z</time></trkpt><trkpt lat="43.97662919837171" lon="10.172601735673124"><ele>2.5</ele><time>2026-04-07T09:03:42Z</time></trkpt><trkpt lat="43.97641887971366" lon="10.172913942388094"><ele>3.0</ele><time>2026-04-07T09:03:43Z</time></trkpt><trkpt lat="43.9762032299151" lon="10.173228285341612"><ele>2.5</ele><time>2026-04-07T09:03:44Z</time></trkpt><trkpt lat="43.97597766690806" lon="10.173565033921035"><ele>2.0</ele><time>2026-04-07T09:03:45Z</time></trkpt><trkpt lat="43.975744677368" lon="10.173922314139682"><ele>2.5</ele><time>2026-04-07T09:03:46Z</time></trkpt><trkpt lat="43.97551093338267" lon="10.174292279743891"><ele>3.0</ele><time>2026-04-07T09:03:47Z</time></trkpt><trkpt lat="43.97527308678551" lon="10.174674986646393"><ele>2.5</ele><time>2026-04-07T09:03:48Z</time></trkpt><trkpt lat="43.97502762696716" lon="10.175063462422147"><ele>2.0</ele><time>2026-04-07T09:03:49Z</time></trkpt><trkpt lat="43.9747867298718" lon="10.17545128844663"><ele>2.0</ele><time>2026-04-07T09:03:50Z</time></trkpt><trkpt lat="43.974567396034914" lon="10.175811957102708"><ele>2.0</ele><time>2026-04-07T09:03:51Z</time></trkpt><trkpt lat="43.97436584181687" lon="10.176155544133104"><ele>2.0</ele><time>2026-04-07T09:03:52Z</time></trkpt><trkpt lat="43.974169624054184" lon="10.176485128650345"><ele>2.0</ele><time>2026-04-07T09:03:53Z</time></trkpt><trkpt lat="43.97398138601828" lon="10.17681110952997"><ele>2.0</ele><time>2026-04-07T09:03:54Z</time></trkpt><trkpt lat="43.97379307907933" lon="10.177137795779531"><ele>2.0</ele><time>2026-04-07T09:03:55Z</time></trkpt><trkpt lat="43.97359910005235" lon="10.177482026890807"><ele>2.5</ele><time>2026-04-07T09:03:56Z</time></trkpt><trkpt lat="43.97339416564602" lon="10.177839815392762"><ele>3.0</ele><time>2026-04-07T09:03:57Z</time></trkpt><trkpt lat="43.97319019758604" lon="10.178196703620198"><ele>3.5</ele><time>2026-04-07T09:03:58Z</time></trkpt><trkpt lat="43.972980782758846" lon="10.17856331561684"><ele>4.0</ele><time>2026-04-07T09:03:59Z</time></trkpt><trkpt lat="43.97276637296429" lon="10.178936116642399"><ele>4.0</ele><time>2026-04-07T09:04:00Z</time></trkpt><trkpt lat="43.97256100115846" lon="10.179290311380887"><ele>4.0</ele><time>2026-04-07T09:04:01Z</time></trkpt><trkpt lat="43.972365735326996" lon="10.179630217131198"><ele>4.5</ele><time>2026-04-07T09:04:02Z</time></trkpt><trkpt lat="43.97217435628624" lon="10.179973035908429"><ele>5.0</ele><time>2026-04-07T09:04:03Z</time></trkpt><trkpt lat="43.971976893883216" lon="10.180321446670384"><ele>5.0</ele><time>2026-04-07T09:04:04Z</time></trkpt><trkpt lat="43.971778692347655" lon="10.180676712168607"><ele>5.0</ele><time>2026-04-07T09:04:05Z</time></trkpt><trkpt lat="43.97158116820352" lon="10.18103254150547"><ele>4.5</ele><time>2026-04-07T09:04:06Z</time></trkpt><trkpt lat="43.97138455259985" lon="10.181382415619545"><ele>4.0</ele><time>2026-04-07T09:04:07Z</time></trkpt><trkpt lat="43.97118311928509" lon="10.181734188395271"><ele>4.0</ele><time>2026-04-07T09:04:08Z</time></trkpt><trkpt lat="43.97098390192664" lon="10.182085406032607"><ele>4.0</ele><time>2026-04-07T09:04:09Z</time></trkpt><trkpt lat="43.97078820770997" lon="10.182432920096767"><ele>5.0</ele><time>2026-04-07T09:04:10Z</time></trkpt><trkpt lat="43.970593819778706" lon="10.182781340845908"><ele>6.0</ele><time>2026-04-07T09:04:11Z</time></trkpt><trkpt lat="43.97039945582948" lon="10.18313068388778"><ele>5.5</ele><time>2026-04-07T09:04:12Z</time></trkpt><trkpt lat="43.97019493653344" lon="10.183480841905595"><ele>5.0</ele><time>2026-04-07T09:04:13Z</time></trkpt><trkpt lat="43.96998729668872" lon="10.183829598698278"><ele>5.5</ele><time>2026-04-07T09:04:14Z</time></trkpt><trkpt lat="43.96977451754974" lon="10.184167395454237"><ele>6.0</ele><time>2026-04-07T09:04:15Z</time></trkpt><trkpt lat="43.96955964640219" lon="10.18450092413986"><ele>6.0</ele><time>2026-04-07T09:04:16Z</time></trkpt><trkpt lat="43.96933847652943" lon="10.184822314598387"><ele>6.0</ele><time>2026-04-07T09:04:17Z</time></trkpt><trkpt lat="43.9691188361071" lon="10.185136334953928"><ele>5.5</ele><time>2026-04-07T09:04:18Z</time></trkpt><trkpt lat="43.96889869179297" lon="10.185447107613811"><ele>5.0</ele><time>2026-04-07T09:04:19Z</time></trkpt><trkpt lat="43.968675959785806" lon="10.185753141250514"><ele>5.0</ele><time>2026-04-07T09:04:20Z</time></trkpt><trkpt lat="43.968451079814805" lon="10.18604940663882"><ele>5.0</ele><time>2026-04-07T09:04:21Z</time></trkpt><trkpt lat="43.9682221640399" lon="10.186341569215536"><ele>5.5</ele><time>2026-04-07T09:04:22Z</time></trkpt><trkpt lat="43.967986677976135" lon="10.186625045680993"><ele>6.0</ele><time>2026-04-07T09:04:23Z</time></trkpt><trkpt lat="43.96775298293317" lon="10.186904246309128"><ele>5.5</ele><time>2026-04-07T09:04:24Z</time></trkpt><trkpt lat="43.96751501199312" lon="10.187177490093578"><ele>5.0</ele><time>2026-04-07T09:04:25Z</time></trkpt><trkpt lat="43.96727057019235" lon="10.187444978553527"><ele>4.5</ele><time>2026-04-07T09:04:26Z</time></trkpt><trkpt lat="43.96702621776075" lon="10.187713909841374"><ele>4.0</ele><time>2026-04-07T09:04:27Z</time></trkpt><trkpt lat="43.96678343719176" lon="10.187983645156757"><ele>3.5</ele><time>2026-04-07T09:04:28Z</time></trkpt><trkpt lat="43.96654140087929" lon="10.188254402210672"><ele>3.0</ele><time>2026-04-07T09:04:29Z</time></trkpt><trkpt lat="43.966300780202396" lon="10.188529998645025"><ele>3.0</ele><time>2026-04-07T09:04:30Z</time></trkpt><trkpt lat="43.966059160334005" lon="10.188806936956551"><ele>3.0</ele><time>2026-04-07T09:04:31Z</time></trkpt><trkpt lat="43.96581253329332" lon="10.189082226400767"><ele>2.0</ele><time>2026-04-07T09:04:32Z</time></trkpt><trkpt lat="43.96556245821635" lon="10.189357380730526"><ele>1.0</ele><time>2026-04-07T09:04:33Z</time></trkpt><trkpt lat="43.96531700062388" lon="10.189635817318129"><ele>1.0</ele><time>2026-04-07T09:04:34Z</time></trkpt><trkpt lat="43.96506495873537" lon="10.189912110624483"><ele>1.0</ele><time>2026-04-07T09:04:35Z</time></trkpt><trkpt lat="43.96481249585018" lon="10.190191569125595"><ele>0.5</ele><time>2026-04-07T09:04:36Z</time></trkpt><trkpt lat="43.96456140718243" lon="10.190472626042986"><ele>0.0</ele><time>2026-04-07T09:04:37Z</time></trkpt><trkpt lat="43.96432357222745" lon="10.190734649101408"><ele>1.0</ele><time>2026-04-07T09:04:38Z</time></trkpt><trkpt lat="43.96408669684275" lon="10.190986446196211"><ele>2.0</ele><time>2026-04-07T09:04:39Z</time></trkpt><trkpt lat="43.9638543626194" lon="10.191242707392899"><ele>2.0</ele><time>2026-04-07T09:04:40Z</time></trkpt><trkpt lat="43.96362155310019" lon="10.191500939700555"><ele>2.0</ele><time>2026-04-07T09:04:40.999Z</time></trkpt><trkpt lat="43.96338275554224" lon="10.191764150147351"><ele>3.0</ele><time>2026-04-07T09:04:41.999Z</time></trkpt><trkpt lat="43.96314336376925" lon="10.19203545589509"><ele>4.0</ele><time>2026-04-07T09:04:42.999Z</time></trkpt><trkpt lat="43.962907096570085" lon="10.192295692233907"><ele>3.0</ele><time>2026-04-07T09:04:43.999Z</time></trkpt><trkpt lat="43.96267055184541" lon="10.19255954100167"><ele>2.0</ele><time>2026-04-07T09:04:44.999Z</time></trkpt><trkpt lat="43.9624337016053" lon="10.192827102539598"><ele>2.0</ele><time>2026-04-07T09:04:45.999Z</time></trkpt><trkpt lat="43.96219443984673" lon="10.19309335222854"><ele>2.0</ele><time>2026-04-07T09:04:46.999Z</time></trkpt><trkpt lat="43.961955052599315" lon="10.193354539502945"><ele>2.0</ele><time>2026-04-07T09:04:47.999Z</time></trkpt><trkpt lat="43.961715907440826" lon="10.1936192929879"><ele>2.0</ele><time>2026-04-07T09:04:48.999Z</time></trkpt><trkpt lat="43.96147963521809" lon="10.193884570039758"><ele>2.0</ele><time>2026-04-07T09:04:49.999Z</time></trkpt><trkpt lat="43.96124312768143" lon="10.194152460736644"><ele>2.0</ele><time>2026-04-07T09:04:50.999Z</time></trkpt><trkpt lat="43.96100657789445" lon="10.194419099468911"><ele>2.0</ele><time>2026-04-07T09:04:51.999Z</time></trkpt><trkpt lat="43.96076926503723" lon="10.194684339955183"><ele>2.0</ele><time>2026-04-07T09:04:52.999Z</time></trkpt><trkpt lat="43.96053016150549" lon="10.194947648186249"><ele>2.0</ele><time>2026-04-07T09:04:53.999Z</time></trkpt><trkpt lat="43.96029218724464" lon="10.195209468079565"><ele>2.0</ele><time>2026-04-07T09:04:54.999Z</time></trkpt><trkpt lat="43.96005512835487" lon="10.195474301100566"><ele>2.5</ele><time>2026-04-07T09:04:55.999Z</time></trkpt><trkpt lat="43.959818308784214" lon="10.19574041086013"><ele>3.0</ele><time>2026-04-07T09:04:56.999Z</time></trkpt><trkpt lat="43.959584013860194" lon="10.196005840651447"><ele>3.0</ele><time>2026-04-07T09:04:57.999Z</time></trkpt><trkpt lat="43.95935001034556" lon="10.196269908667597"><ele>3.0</ele><time>2026-04-07T09:04:58.999Z</time></trkpt><trkpt lat="43.95911729813562" lon="10.196535503864744"><ele>3.5</ele><time>2026-04-07T09:04:59.999Z</time></trkpt><trkpt lat="43.958885581110096" lon="10.196798140526964"><ele>4.0</ele><time>2026-04-07T09:05:00.999Z</time></trkpt><trkpt lat="43.958653415550934" lon="10.197057860073238"><ele>4.0</ele><time>2026-04-07T09:05:01.999Z</time></trkpt><trkpt lat="43.95841959505823" lon="10.197316847226835"><ele>4.0</ele><time>2026-04-07T09:05:02.999Z</time></trkpt><trkpt lat="43.95818572167872" lon="10.197577111291638"><ele>3.5</ele><time>2026-04-07T09:05:03.999Z</time></trkpt><trkpt lat="43.95795291800467" lon="10.197840169484834"><ele>3.0</ele><time>2026-04-07T09:05:04.999Z</time></trkpt><trkpt lat="43.95772008103447" lon="10.198100712420619"><ele>1.5</ele><time>2026-04-07T09:05:05.999Z</time></trkpt><trkpt lat="43.95748554688712" lon="10.198356140760183"><ele>0.0</ele><time>2026-04-07T09:05:06.999Z</time></trkpt><trkpt lat="43.957252338237595" lon="10.198612763371237"><ele>0.0</ele><time>2026-04-07T09:05:07.999Z</time></trkpt><trkpt lat="43.95702083427163" lon="10.198869094815057"><ele>0.0</ele><time>2026-04-07T09:05:08.999Z</time></trkpt><trkpt lat="43.95679071529076" lon="10.199129456597843"><ele>1.5</ele><time>2026-04-07T09:05:09.999Z</time></trkpt><trkpt lat="43.95656043605564" lon="10.199388400446772"><ele>3.0</ele><time>2026-04-07T09:05:10.999Z</time></trkpt><trkpt lat="43.95632686394793" lon="10.199646010312376"><ele>2.5</ele><time>2026-04-07T09:05:11.999Z</time></trkpt><trkpt lat="43.95609502051511" lon="10.199903996079804"><ele>2.0</ele><time>2026-04-07T09:05:12.999Z</time></trkpt><trkpt lat="43.955862360788586" lon="10.200164527518162"><ele>2.5</ele><time>2026-04-07T09:05:13.999Z</time></trkpt><trkpt lat="43.95563348322999" lon="10.200422586550149"><ele>3.0</ele><time>2026-04-07T09:05:14.999Z</time></trkpt><trkpt lat="43.955405292516765" lon="10.20068028753144"><ele>3.0</ele><time>2026-04-07T09:05:15.999Z</time></trkpt><trkpt lat="43.95517594250352" lon="10.20093812021751"><ele>3.0</ele><time>2026-04-07T09:05:16.999Z</time></trkpt><trkpt lat="43.95494394401168" lon="10.201198763196974"><ele>3.0</ele><time>2026-04-07T09:05:17.999Z</time></trkpt><trkpt lat="43.95470555925158" lon="10.201468466577005"><ele>3.0</ele><time>2026-04-07T09:05:18.999Z</time></trkpt><trkpt lat="43.954460490981965" lon="10.201742410481986"><ele>3.5</ele><time>2026-04-07T09:05:19.999Z</time></trkpt><trkpt lat="43.95422318701268" lon="10.202009502319363"><ele>4.0</ele><time>2026-04-07T09:05:20.999Z</time></trkpt><trkpt lat="43.95399371425978" lon="10.202267151993436"><ele>3.5</ele><time>2026-04-07T09:05:21.999Z</time></trkpt><trkpt lat="43.95375981438474" lon="10.202530935540258"><ele>3.0</ele><time>2026-04-07T09:05:22.999Z</time></trkpt><trkpt lat="43.95351374744842" lon="10.20280571764134"><ele>2.5</ele><time>2026-04-07T09:05:23.999Z</time></trkpt><trkpt lat="43.95326104219654" lon="10.203085399951375"><ele>2.0</ele><time>2026-04-07T09:05:24.999Z</time></trkpt><trkpt lat="43.953005925343476" lon="10.203367877222338"><ele>2.0</ele><time>2026-04-07T09:05:25.999Z</time></trkpt><trkpt lat="43.95275237765207" lon="10.203648214965211"><ele>2.0</ele><time>2026-04-07T09:05:26.999Z</time></trkpt><trkpt lat="43.9524928043532" lon="10.20393567081908"><ele>3.0</ele><time>2026-04-07T09:05:27.999Z</time></trkpt><trkpt lat="43.952259047582764" lon="10.204195456880006"><ele>4.0</ele><time>2026-04-07T09:05:28.999Z</time></trkpt><trkpt lat="43.95203966536839" lon="10.204444861386378"><ele>4.0</ele><time>2026-04-07T09:05:29.999Z</time></trkpt><trkpt lat="43.95183566549717" lon="10.204670660386087"><ele>4.0</ele><time>2026-04-07T09:05:30.999Z</time></trkpt><trkpt lat="43.9516532907018" lon="10.204873720042775"><ele>3.333333333333333</ele><time>2026-04-07T09:05:31.999Z</time></trkpt><trkpt lat="43.95147783454873" lon="10.205069686415369"><ele>2.6666666666666665</ele><time>2026-04-07T09:05:32.999Z</time></trkpt><trkpt lat="43.9513110872439" lon="10.205257509733755"><ele>2.0</ele><time>2026-04-07T09:05:33.999Z</time></trkpt><trkpt lat="43.95115608535274" lon="10.205427418273452"><ele>2.0</ele><time>2026-04-07T09:05:34.999Z</time></trkpt><trkpt lat="43.95099279452436" lon="10.205608690452452"><ele>2.0</ele><time>2026-04-07T09:05:35.999Z</time></trkpt><trkpt lat="43.950798891650685" lon="10.205838001182343"><ele>2.0</ele><time>2026-04-07T09:05:36.999Z</time></trkpt><trkpt lat="43.95062515348766" lon="10.206043457368038"><ele>2.0</ele><time>2026-04-07T09:05:37.999Z</time></trkpt><trkpt lat="43.950446365159664" lon="10.206263198350607"><ele>2.0</ele><time>2026-04-07T09:05:38.999Z</time></trkpt><trkpt lat="43.95026544945076" lon="10.206487463071344"><ele>2.0</ele><time>2026-04-07T09:05:40Z</time></trkpt><trkpt lat="43.95008832700178" lon="10.206715531753426"><ele>2.0</ele><time>2026-04-07T09:05:41Z</time></trkpt><trkpt lat="43.950010052129336" lon="10.206710795416985"><ele>2.0</ele><time>2026-04-07T09:05:42Z</time></trkpt><trkpt lat="43.9498483160426" lon="10.206891741886425"><ele>2.0</ele><time>2026-04-07T09:05:43Z</time></trkpt><trkpt lat="43.949682253034425" lon="10.207074252185539"><ele>2.0</ele><time>2026-04-07T09:05:44Z</time></trkpt><trkpt lat="43.94951627876528" lon="10.207256791330913"><ele>2.0</ele><time>2026-04-07T09:05:45Z</time></trkpt><trkpt lat="43.94936225635551" lon="10.207432326174493"><ele>2.0</ele><time>2026-04-07T09:05:46Z</time></trkpt><trkpt lat="43.949195944454644" lon="10.207616246756466"><ele>2.0</ele><time>2026-04-07T09:05:47Z</time></trkpt><trkpt lat="43.949017726329345" lon="10.207815558827962"><ele>2.0</ele><time>2026-04-07T09:05:48Z</time></trkpt><trkpt lat="43.94886179760901" lon="10.207995576810996"><ele>2.0</ele><time>2026-04-07T09:05:49Z</time></trkpt><trkpt lat="43.948698762712745" lon="10.208191186711733"><ele>2.0</ele><time>2026-04-07T09:05:50Z</time></trkpt><trkpt lat="43.94851169893008" lon="10.208409866847534"><ele>2.0</ele><time>2026-04-07T09:05:51Z</time></trkpt><trkpt lat="43.94830432186099" lon="10.20865037972198"><ele>3.0</ele><time>2026-04-07T09:05:52Z</time></trkpt><trkpt lat="43.94808272852499" lon="10.208909467199922"><ele>4.0</ele><time>2026-04-07T09:05:53Z</time></trkpt><trkpt lat="43.947844238353206" lon="10.20917185223307"><ele>4.0</ele><time>2026-04-07T09:05:54Z</time></trkpt><trkpt lat="43.94759797731646" lon="10.20944169646569"><ele>4.0</ele><time>2026-04-07T09:05:55Z</time></trkpt><trkpt lat="43.94734602500067" lon="10.209726728790526"><ele>4.5</ele><time>2026-04-07T09:05:56Z</time></trkpt><trkpt lat="43.94709260672674" lon="10.210002187830964"><ele>5.0</ele><time>2026-04-07T09:05:57Z</time></trkpt><trkpt lat="43.94685989160483" lon="10.21025747530612"><ele>5.0</ele><time>2026-04-07T09:05:58Z</time></trkpt><trkpt lat="43.94661948634917" lon="10.210518981208047"><ele>5.0</ele><time>2026-04-07T09:05:59Z</time></trkpt><trkpt lat="43.94637289845787" lon="10.21078210864252"><ele>5.0</ele><time>2026-04-07T09:06:00Z</time></trkpt><trkpt lat="43.94611495008741" lon="10.211038111099613"><ele>5.0</ele><time>2026-04-07T09:06:01Z</time></trkpt><trkpt lat="43.94585176560707" lon="10.211290999679653"><ele>5.0</ele><time>2026-04-07T09:06:02Z</time></trkpt><trkpt lat="43.94557862450827" lon="10.211536324453252"><ele>5.0</ele><time>2026-04-07T09:06:03Z</time></trkpt><trkpt lat="43.94530352900888" lon="10.211777563278378"><ele>4.0</ele><time>2026-04-07T09:06:04Z</time></trkpt><trkpt lat="43.945012655409144" lon="10.212008590121727"><ele>3.0</ele><time>2026-04-07T09:06:05Z</time></trkpt><trkpt lat="43.94472656947835" lon="10.212237518908317"><ele>3.0</ele><time>2026-04-07T09:06:06Z</time></trkpt><trkpt lat="43.944441489461624" lon="10.212452913256055"><ele>3.0</ele><time>2026-04-07T09:06:07Z</time></trkpt><trkpt lat="43.94416776204867" lon="10.212655697995837"><ele>2.0</ele><time>2026-04-07T09:06:08Z</time></trkpt><trkpt lat="43.94389712733492" lon="10.212846814155574"><ele>1.0</ele><time>2026-04-07T09:06:09Z</time></trkpt><trkpt lat="43.94362046353586" lon="10.21303808497266"><ele>3.0</ele><time>2026-04-07T09:06:10Z</time></trkpt><trkpt lat="43.94334245293977" lon="10.213230161722368"><ele>5.0</ele><time>2026-04-07T09:06:11Z</time></trkpt><trkpt lat="43.94306529151188" lon="10.213417358620632"><ele>5.0</ele><time>2026-04-07T09:06:12Z</time></trkpt><trkpt lat="43.942789267424416" lon="10.21361070966846"><ele>5.0</ele><time>2026-04-07T09:06:13Z</time></trkpt><trkpt lat="43.942516790905664" lon="10.21380648022447"><ele>4.5</ele><time>2026-04-07T09:06:14Z</time></trkpt><trkpt lat="43.94224425036286" lon="10.213998096269082"><ele>4.0</ele><time>2026-04-07T09:06:15Z</time></trkpt><trkpt lat="43.94196962987642" lon="10.214190246535725"><ele>3.5</ele><time>2026-04-07T09:06:16Z</time></trkpt><trkpt lat="43.9416961854399" lon="10.214384211667522"><ele>3.0</ele><time>2026-04-07T09:06:17Z</time></trkpt><trkpt lat="43.941420993048986" lon="10.214572525709784"><ele>3.0</ele><time>2026-04-07T09:06:18Z</time></trkpt><trkpt lat="43.94114663387714" lon="10.214761860366966"><ele>3.0</ele><time>2026-04-07T09:06:19Z</time></trkpt><trkpt lat="43.94087533627812" lon="10.214951699946328"><ele>2.0</ele><time>2026-04-07T09:06:20Z</time></trkpt><trkpt lat="43.94060287453373" lon="10.215140240359881"><ele>1.0</ele><time>2026-04-07T09:06:21Z</time></trkpt><trkpt lat="43.940329930185015" lon="10.215332383048935"><ele>1.0</ele><time>2026-04-07T09:06:22Z</time></trkpt><trkpt lat="43.9400563551492" lon="10.215524223302767"><ele>1.0</ele><time>2026-04-07T09:06:23Z</time></trkpt><trkpt lat="43.93978213569805" lon="10.215718988224339"><ele>1.5</ele><time>2026-04-07T09:06:24Z</time></trkpt><trkpt lat="43.93950618010107" lon="10.215914860495015"><ele>2.0</ele><time>2026-04-07T09:06:25Z</time></trkpt><trkpt lat="43.939230072878786" lon="10.21610758112376"><ele>2.0</ele><time>2026-04-07T09:06:26Z</time></trkpt><trkpt lat="43.938950549564815" lon="10.216299025171784"><ele>2.0</ele><time>2026-04-07T09:06:27Z</time></trkpt><trkpt lat="43.93866965168314" lon="10.216494858142848"><ele>1.5</ele><time>2026-04-07T09:06:28Z</time></trkpt><trkpt lat="43.93838918677284" lon="10.216694324287163"><ele>1.0</ele><time>2026-04-07T09:06:29Z</time></trkpt><trkpt lat="43.93810940308641" lon="10.216891076799678"><ele>1.0</ele><time>2026-04-07T09:06:30Z</time></trkpt><trkpt lat="43.93782877847196" lon="10.217087529715725"><ele>1.0</ele><time>2026-04-07T09:06:31Z</time></trkpt><trkpt lat="43.93754803367693" lon="10.217282105982614"><ele>0.5</ele><time>2026-04-07T09:06:32Z</time></trkpt><trkpt lat="43.93726829595106" lon="10.217477540091606"><ele>0.0</ele><time>2026-04-07T09:06:33Z</time></trkpt><trkpt lat="43.93698910938967" lon="10.217673317390371"><ele>0.0</ele><time>2026-04-07T09:06:34Z</time></trkpt><trkpt lat="43.9367155031321" lon="10.217863209980916"><ele>0.0</ele><time>2026-04-07T09:06:35Z</time></trkpt><trkpt lat="43.93645042759757" lon="10.218044416023034"><ele>0.0</ele><time>2026-04-07T09:06:36Z</time></trkpt><trkpt lat="43.9361871150288" lon="10.218233138988372"><ele>0.0</ele><time>2026-04-07T09:06:37Z</time></trkpt><trkpt lat="43.93592301199506" lon="10.21842100382863"><ele>0.5</ele><time>2026-04-07T09:06:38Z</time></trkpt><trkpt lat="43.93562382757861" lon="10.218617019384697"><ele>1.0</ele><time>2026-04-07T09:06:39Z</time></trkpt><trkpt lat="43.935389079968296" lon="10.218792549817662"><ele>1.0</ele><time>2026-04-07T09:06:40Z</time></trkpt><trkpt lat="43.93512221994641" lon="10.21897990243301"><ele>1.0</ele><time>2026-04-07T09:06:41Z</time></trkpt><trkpt lat="43.934855839383076" lon="10.219165671398827"><ele>0.0</ele><time>2026-04-07T09:06:42Z</time></trkpt><trkpt lat="43.93459396329518" lon="10.219350244706172"><ele>-1.0</ele><time>2026-04-07T09:06:43Z</time></trkpt><trkpt lat="43.93433208791521" lon="10.21953550460958"><ele>-1.0</ele><time>2026-04-07T09:06:43.999Z</time></trkpt><trkpt lat="43.93406656894776" lon="10.21971697198832"><ele>-1.0</ele><time>2026-04-07T09:06:44.999Z</time></trkpt><trkpt lat="43.933797816810284" lon="10.219903761422236"><ele>0.0</ele><time>2026-04-07T09:06:45.999Z</time></trkpt><trkpt lat="43.93353239943468" lon="10.220087447602998"><ele>1.0</ele><time>2026-04-07T09:06:46.999Z</time></trkpt><trkpt lat="43.933264686649856" lon="10.220275439559138"><ele>1.0</ele><time>2026-04-07T09:06:47.999Z</time></trkpt><trkpt lat="43.932992416433436" lon="10.220461180474185"><ele>1.0</ele><time>2026-04-07T09:06:48.999Z</time></trkpt><trkpt lat="43.93272335913343" lon="10.22064515025523"><ele>1.0</ele><time>2026-04-07T09:06:49.999Z</time></trkpt><trkpt lat="43.93245016481007" lon="10.220829498029351"><ele>1.0</ele><time>2026-04-07T09:06:50.999Z</time></trkpt><trkpt lat="43.93217688976407" lon="10.221017956158095"><ele>1.0</ele><time>2026-04-07T09:06:51.999Z</time></trkpt><trkpt lat="43.931912990129995" lon="10.221196024235676"><ele>1.0</ele><time>2026-04-07T09:06:52.999Z</time></trkpt><trkpt lat="43.93165712710602" lon="10.221373787561223"><ele>1.5</ele><time>2026-04-07T09:06:53.999Z</time></trkpt><trkpt lat="43.93140547115572" lon="10.22155172916142"><ele>2.0</ele><time>2026-04-07T09:06:54.999Z</time></trkpt><trkpt lat="43.931153272441726" lon="10.22172482750843"><ele>2.0</ele><time>2026-04-07T09:06:55.999Z</time></trkpt><trkpt lat="43.930900792259784" lon="10.221899490416067"><ele>2.0</ele><time>2026-04-07T09:06:56.999Z</time></trkpt><trkpt lat="43.93065549291747" lon="10.222084388275828"><ele>2.0</ele><time>2026-04-07T09:06:57.999Z</time></trkpt><trkpt lat="43.9304044628342" lon="10.222259574226634"><ele>2.0</ele><time>2026-04-07T09:06:58.999Z</time></trkpt><trkpt lat="43.93015215659702" lon="10.222425838610638"><ele>2.0</ele><time>2026-04-07T09:06:59.999Z</time></trkpt><trkpt lat="43.92989894298579" lon="10.222603773335168"><ele>2.0</ele><time>2026-04-07T09:07:00.999Z</time></trkpt><trkpt lat="43.929646753217135" lon="10.222781340180433"><ele>2.0</ele><time>2026-04-07T09:07:01.999Z</time></trkpt><trkpt lat="43.9293823127561" lon="10.222971646043606"><ele>2.0</ele><time>2026-04-07T09:07:02.999Z</time></trkpt><trkpt lat="43.92910659546424" lon="10.223172975424443"><ele>2.0</ele><time>2026-04-07T09:07:03.999Z</time></trkpt><trkpt lat="43.92882245436588" lon="10.223378745235634"><ele>2.0</ele><time>2026-04-07T09:07:04.999Z</time></trkpt><trkpt lat="43.92853107658023" lon="10.223596881008126"><ele>2.0</ele><time>2026-04-07T09:07:05.999Z</time></trkpt><trkpt lat="43.92823149323203" lon="10.22381661019545"><ele>2.0</ele><time>2026-04-07T09:07:06.999Z</time></trkpt><trkpt lat="43.92792989881713" lon="10.224032781999698"><ele>2.0</ele><time>2026-04-07T09:07:07.999Z</time></trkpt><trkpt lat="43.92762578928276" lon="10.224247450928395"><ele>2.0</ele><time>2026-04-07T09:07:08.999Z</time></trkpt><trkpt lat="43.92732700116381" lon="10.224461466524897"><ele>1.5</ele><time>2026-04-07T09:07:09.999Z</time></trkpt><trkpt lat="43.92705618627196" lon="10.224656622766936"><ele>1.0</ele><time>2026-04-07T09:07:10.999Z</time></trkpt><trkpt lat="43.92679317948359" lon="10.224853016518063"><ele>2.0</ele><time>2026-04-07T09:07:11.999Z</time></trkpt><trkpt lat="43.92652832426643" lon="10.225048916168552"><ele>3.0</ele><time>2026-04-07T09:07:12.999Z</time></trkpt><trkpt lat="43.92626136157987" lon="10.225243425888827"><ele>3.0</ele><time>2026-04-07T09:07:13.999Z</time></trkpt><trkpt lat="43.92599485405117" lon="10.225438092138173"><ele>3.0</ele><time>2026-04-07T09:07:14.999Z</time></trkpt><trkpt lat="43.925733352203025" lon="10.225637049429048"><ele>2.5</ele><time>2026-04-07T09:07:15.999Z</time></trkpt><trkpt lat="43.925474908210155" lon="10.225842387233724"><ele>2.0</ele><time>2026-04-07T09:07:16.999Z</time></trkpt><trkpt lat="43.92521773899576" lon="10.22604963059897"><ele>1.5</ele><time>2026-04-07T09:07:17.999Z</time></trkpt><trkpt lat="43.92496359018445" lon="10.226260843952003"><ele>1.0</ele><time>2026-04-07T09:07:18.999Z</time></trkpt><trkpt lat="43.92471279441056" lon="10.226475934973791"><ele>2.0</ele><time>2026-04-07T09:07:19.999Z</time></trkpt><trkpt lat="43.92446424425932" lon="10.226689338715941"><ele>3.0</ele><time>2026-04-07T09:07:20.999Z</time></trkpt><trkpt lat="43.924214018418276" lon="10.226904449447986"><ele>3.5</ele><time>2026-04-07T09:07:21.999Z</time></trkpt><trkpt lat="43.92396530373117" lon="10.227120315087994"><ele>4.0</ele><time>2026-04-07T09:07:22.999Z</time></trkpt><trkpt lat="43.92371894297094" lon="10.227336695265004"><ele>2.5</ele><time>2026-04-07T09:07:23.999Z</time></trkpt><trkpt lat="43.92347461029711" lon="10.227554965260724"><ele>1.0</ele><time>2026-04-07T09:07:24.999Z</time></trkpt><trkpt lat="43.923229588287086" lon="10.22777618147252"><ele>0.5</ele><time>2026-04-07T09:07:25.999Z</time></trkpt><trkpt lat="43.922986556749215" lon="10.22800270983921"><ele>0.0</ele><time>2026-04-07T09:07:26.999Z</time></trkpt><trkpt lat="43.92274540071582" lon="10.228230134377743"><ele>0.5</ele><time>2026-04-07T09:07:27.999Z</time></trkpt><trkpt lat="43.92250398433585" lon="10.228461583760579"><ele>1.0</ele><time>2026-04-07T09:07:28.999Z</time></trkpt><trkpt lat="43.922264111525614" lon="10.228696494592985"><ele>1.0</ele><time>2026-04-07T09:07:29.999Z</time></trkpt><trkpt lat="43.922026507219314" lon="10.228932584957757"><ele>1.0</ele><time>2026-04-07T09:07:30.999Z</time></trkpt><trkpt lat="43.92179002973616" lon="10.229171179538957"><ele>0.5</ele><time>2026-04-07T09:07:31.999Z</time></trkpt><trkpt lat="43.92155183046331" lon="10.229404498809286"><ele>0.0</ele><time>2026-04-07T09:07:32.999Z</time></trkpt><trkpt lat="43.92130983104255" lon="10.229635533805464"><ele>0.5</ele><time>2026-04-07T09:07:33.999Z</time></trkpt><trkpt lat="43.9210665754962" lon="10.229863676039498"><ele>1.0</ele><time>2026-04-07T09:07:34.999Z</time></trkpt><trkpt lat="43.92082394622782" lon="10.230093147796474"><ele>1.0</ele><time>2026-04-07T09:07:35.999Z</time></trkpt><trkpt lat="43.920582159884724" lon="10.230326978193412"><ele>1.0</ele><time>2026-04-07T09:07:36.999Z</time></trkpt><trkpt lat="43.92033950648066" lon="10.230561437380139"><ele>0.5</ele><time>2026-04-07T09:07:37.999Z</time></trkpt><trkpt lat="43.92009838982346" lon="10.230801013652577"><ele>0.0</ele><time>2026-04-07T09:07:38.999Z</time></trkpt><trkpt lat="43.91985812170273" lon="10.231043560057753"><ele>0.0</ele><time>2026-04-07T09:07:39.999Z</time></trkpt><trkpt lat="43.919608462370675" lon="10.231288984027737"><ele>0.0</ele><time>2026-04-07T09:07:40.999Z</time></trkpt><trkpt lat="43.91935884721573" lon="10.231536797848314"><ele>0.5</ele><time>2026-04-07T09:07:41.999Z</time></trkpt><trkpt lat="43.91910711237903" lon="10.231779138961823"><ele>1.0</ele><time>2026-04-07T09:07:42.999Z</time></trkpt><trkpt lat="43.91885434869914" lon="10.232024203816094"><ele>1.0</ele><time>2026-04-07T09:07:43.999Z</time></trkpt><trkpt lat="43.918598385872635" lon="10.232273495394821"><ele>1.0</ele><time>2026-04-07T09:07:44.999Z</time></trkpt><trkpt lat="43.91833444421072" lon="10.232529407379676"><ele>0.5</ele><time>2026-04-07T09:07:46Z</time></trkpt><trkpt lat="43.91806748841845" lon="10.232791395424227"><ele>0.0</ele><time>2026-04-07T09:07:47Z</time></trkpt><trkpt lat="43.91779887277407" lon="10.233053272667519"><ele>-0.5</ele><time>2026-04-07T09:07:48Z</time></trkpt><trkpt lat="43.917526031374734" lon="10.233315377486358"><ele>-1.0</ele><time>2026-04-07T09:07:49Z</time></trkpt><trkpt lat="43.917255336297536" lon="10.233576116956227"><ele>-1.0</ele><time>2026-04-07T09:07:50Z</time></trkpt><trkpt lat="43.91700571506879" lon="10.23382054504781"><ele>-1.0</ele><time>2026-04-07T09:07:51Z</time></trkpt><trkpt lat="43.916775185195085" lon="10.23405003934315"><ele>-1.0</ele><time>2026-04-07T09:07:52Z</time></trkpt><trkpt lat="43.91654871014017" lon="10.234265675918175"><ele>-1.0</ele><time>2026-04-07T09:07:53Z</time></trkpt><trkpt lat="43.91631931531469" lon="10.234484314585975"><ele>-1.0</ele><time>2026-04-07T09:07:54Z</time></trkpt><trkpt lat="43.91608562472349" lon="10.234708497759184"><ele>-1.0</ele><time>2026-04-07T09:07:55Z</time></trkpt><trkpt lat="43.91585021388654" lon="10.23493854844105"><ele>-0.5</ele><time>2026-04-07T09:07:56Z</time></trkpt><trkpt lat="43.91561296843237" lon="10.2351681690474"><ele>0.0</ele><time>2026-04-07T09:07:57Z</time></trkpt><trkpt lat="43.91537831540145" lon="10.235409659810724"><ele>0.0</ele><time>2026-04-07T09:07:58Z</time></trkpt><trkpt lat="43.91514191442988" lon="10.235649030217514"><ele>0.0</ele><time>2026-04-07T09:07:59Z</time></trkpt><trkpt lat="43.91490623465697" lon="10.235888474400335"><ele>0.5</ele><time>2026-04-07T09:08:00Z</time></trkpt><trkpt lat="43.91466339274721" lon="10.236122827254134"><ele>1.0</ele><time>2026-04-07T09:08:01Z</time></trkpt><trkpt lat="43.91441890678216" lon="10.236361055019147"><ele>1.0</ele><time>2026-04-07T09:08:02Z</time></trkpt><trkpt lat="43.914177768335975" lon="10.236598838035134"><ele>1.0</ele><time>2026-04-07T09:08:03Z</time></trkpt><trkpt lat="43.913934991471386" lon="10.23683924854906"><ele>1.0</ele><time>2026-04-07T09:08:04Z</time></trkpt><trkpt lat="43.913690986048486" lon="10.237076594307167"><ele>1.0</ele><time>2026-04-07T09:08:05Z</time></trkpt><trkpt lat="43.913445592626296" lon="10.237313565394377"><ele>1.5</ele><time>2026-04-07T09:08:06Z</time></trkpt><trkpt lat="43.91320079872443" lon="10.237556801363525"><ele>2.0</ele><time>2026-04-07T09:08:07Z</time></trkpt><trkpt lat="43.91295415263354" lon="10.23779464231582"><ele>2.0</ele><time>2026-04-07T09:08:08Z</time></trkpt><trkpt lat="43.91270665705338" lon="10.238037365501267"><ele>2.0</ele><time>2026-04-07T09:08:09Z</time></trkpt><trkpt lat="43.912456440367116" lon="10.238277926837089"><ele>1.0</ele><time>2026-04-07T09:08:10Z</time></trkpt><trkpt lat="43.91220501843804" lon="10.238515761489522"><ele>0.0</ele><time>2026-04-07T09:08:11Z</time></trkpt><trkpt lat="43.911954913647" lon="10.238761029286536"><ele>1.0</ele><time>2026-04-07T09:08:12Z</time></trkpt><trkpt lat="43.911708356163196" lon="10.239008993318407"><ele>2.0</ele><time>2026-04-07T09:08:13Z</time></trkpt><trkpt lat="43.9114548565273" lon="10.239254349437934"><ele>2.0</ele><time>2026-04-07T09:08:14Z</time></trkpt><trkpt lat="43.91120365863618" lon="10.239494044559525"><ele>2.0</ele><time>2026-04-07T09:08:15Z</time></trkpt><trkpt lat="43.91095182554734" lon="10.239736635371811"><ele>1.5</ele><time>2026-04-07T09:08:16Z</time></trkpt><trkpt lat="43.9106978080595" lon="10.239981101856916"><ele>1.0</ele><time>2026-04-07T09:08:17Z</time></trkpt><trkpt lat="43.910444315722806" lon="10.240228917518472"><ele>1.0</ele><time>2026-04-07T09:08:18Z</time></trkpt><trkpt lat="43.91019098814239" lon="10.240476774396265"><ele>1.0</ele><time>2026-04-07T09:08:19Z</time></trkpt><trkpt lat="43.90993914095218" lon="10.240724019243693"><ele>0.5</ele><time>2026-04-07T09:08:20Z</time></trkpt><trkpt lat="43.90968530844416" lon="10.240973072852741"><ele>0.0</ele><time>2026-04-07T09:08:21Z</time></trkpt><trkpt lat="43.90942961584868" lon="10.2412206400747"><ele>1.0</ele><time>2026-04-07T09:08:22Z</time></trkpt><trkpt lat="43.90917627991025" lon="10.241470913127001"><ele>2.0</ele><time>2026-04-07T09:08:23Z</time></trkpt><trkpt lat="43.90892084108682" lon="10.241725273106633"><ele>2.0</ele><time>2026-04-07T09:08:24Z</time></trkpt><trkpt lat="43.9086680957879" lon="10.24198127096138"><ele>2.0</ele><time>2026-04-07T09:08:25Z</time></trkpt><trkpt lat="43.90841971616549" lon="10.242243133922818"><ele>2.0</ele><time>2026-04-07T09:08:26Z</time></trkpt><trkpt lat="43.90817293402324" lon="10.242510864955296"><ele>2.0</ele><time>2026-04-07T09:08:27Z</time></trkpt><trkpt lat="43.90792248779503" lon="10.24278390283122"><ele>2.0</ele><time>2026-04-07T09:08:28Z</time></trkpt><trkpt lat="43.90767479682225" lon="10.243057824202712"><ele>2.0</ele><time>2026-04-07T09:08:29Z</time></trkpt><trkpt lat="43.90742868018447" lon="10.243335750323842"><ele>2.0</ele><time>2026-04-07T09:08:30Z</time></trkpt><trkpt lat="43.90718204904489" lon="10.243615380618849"><ele>2.0</ele><time>2026-04-07T09:08:31Z</time></trkpt><trkpt lat="43.906943464025446" lon="10.243877006253367"><ele>1.5</ele><time>2026-04-07T09:08:32Z</time></trkpt><trkpt lat="43.906698209439085" lon="10.24413896742077"><ele>1.0</ele><time>2026-04-07T09:08:33Z</time></trkpt><trkpt lat="43.90649047088611" lon="10.244396359766037"><ele>1.0</ele><time>2026-04-07T09:08:34Z</time></trkpt><trkpt lat="43.90626244916474" lon="10.244659364461526"><ele>1.0</ele><time>2026-04-07T09:08:35Z</time></trkpt><trkpt lat="43.90603534674934" lon="10.244923619112212"><ele>1.0</ele><time>2026-04-07T09:08:36Z</time></trkpt><trkpt lat="43.905799844422624" lon="10.245186593210125"><ele>1.0</ele><time>2026-04-07T09:08:37Z</time></trkpt><trkpt lat="43.9055591743517" lon="10.245457392841056"><ele>1.0</ele><time>2026-04-07T09:08:38Z</time></trkpt><trkpt lat="43.90532072443946" lon="10.245730421748418"><ele>1.0</ele><time>2026-04-07T09:08:39Z</time></trkpt><trkpt lat="43.90507829458142" lon="10.246006748643106"><ele>1.0</ele><time>2026-04-07T09:08:40Z</time></trkpt><trkpt lat="43.90483646861278" lon="10.246281942100419"><ele>1.0</ele><time>2026-04-07T09:08:41Z</time></trkpt><trkpt lat="43.904594029219524" lon="10.246560372553994"><ele>1.0</ele><time>2026-04-07T09:08:42Z</time></trkpt><trkpt lat="43.90436183711692" lon="10.246823036418597"><ele>1.0</ele><time>2026-04-07T09:08:43Z</time></trkpt><trkpt lat="43.90413594948455" lon="10.24708025244218"><ele>1.0</ele><time>2026-04-07T09:08:44Z</time></trkpt><trkpt lat="43.90390845077542" lon="10.247337414488904"><ele>1.0</ele><time>2026-04-07T09:08:45Z</time></trkpt><trkpt lat="43.9036818495358" lon="10.247591596293033"><ele>1.0</ele><time>2026-04-07T09:08:46Z</time></trkpt><trkpt lat="43.903454570672864" lon="10.247846329324164"><ele>1.0</ele><time>2026-04-07T09:08:47Z</time></trkpt><trkpt lat="43.90323220987919" lon="10.24810544008642"><ele>2.0</ele><time>2026-04-07T09:08:48Z</time></trkpt><trkpt lat="43.90300825099482" lon="10.24835960289103"><ele>3.0</ele><time>2026-04-07T09:08:49Z</time></trkpt><trkpt lat="43.90278525070509" lon="10.248617482036865"><ele>3.0</ele><time>2026-04-07T09:08:50Z</time></trkpt><trkpt lat="43.90256009118309" lon="10.248872080117529"><ele>3.0</ele><time>2026-04-07T09:08:51Z</time></trkpt><trkpt lat="43.90233321060915" lon="10.249129494489216"><ele>3.0</ele><time>2026-04-07T09:08:51.999Z</time></trkpt><trkpt lat="43.90212259769476" lon="10.249370963720336"><ele>3.0</ele><time>2026-04-07T09:08:52.999Z</time></trkpt><trkpt lat="43.901916581793934" lon="10.249598902358096"><ele>3.0</ele><time>2026-04-07T09:08:53.999Z</time></trkpt><trkpt lat="43.90170401126969" lon="10.249837745226992"><ele>3.0</ele><time>2026-04-07T09:08:54.999Z</time></trkpt><trkpt lat="43.901484789376575" lon="10.250074358799974"><ele>3.0</ele><time>2026-04-07T09:08:55.999Z</time></trkpt><trkpt lat="43.90126476618721" lon="10.250323618765297"><ele>3.0</ele><time>2026-04-07T09:08:56.999Z</time></trkpt><trkpt lat="43.90104620819449" lon="10.250571730046914"><ele>3.5</ele><time>2026-04-07T09:08:57.999Z</time></trkpt><trkpt lat="43.90082478973222" lon="10.25082709596272"><ele>4.0</ele><time>2026-04-07T09:08:58.999Z</time></trkpt><trkpt lat="43.9005948285473" lon="10.251088999469301"><ele>4.0</ele><time>2026-04-07T09:08:59.999Z</time></trkpt><trkpt lat="43.900355383510586" lon="10.25135963686075"><ele>4.0</ele><time>2026-04-07T09:09:00.999Z</time></trkpt><trkpt lat="43.900119422687496" lon="10.251623810800586"><ele>3.5</ele><time>2026-04-07T09:09:01.999Z</time></trkpt><trkpt lat="43.89989436221691" lon="10.251880576472624"><ele>3.0</ele><time>2026-04-07T09:09:02.999Z</time></trkpt><trkpt lat="43.89967712486356" lon="10.252129686240107"><ele>3.0</ele><time>2026-04-07T09:09:03.999Z</time></trkpt><trkpt lat="43.89944935100183" lon="10.252385195920159"><ele>3.0</ele><time>2026-04-07T09:09:04.999Z</time></trkpt><trkpt lat="43.89922139557887" lon="10.252642152598568"><ele>3.0</ele><time>2026-04-07T09:09:05.999Z</time></trkpt><trkpt lat="43.89899032557123" lon="10.252902218325854"><ele>3.0</ele><time>2026-04-07T09:09:06.999Z</time></trkpt><trkpt lat="43.89876160342545" lon="10.253163305665266"><ele>3.0</ele><time>2026-04-07T09:09:07.999Z</time></trkpt><trkpt lat="43.898531181076386" lon="10.253428253152178"><ele>3.0</ele><time>2026-04-07T09:09:08.999Z</time></trkpt><trkpt lat="43.89829736931533" lon="10.253696264982596"><ele>1.0</ele><time>2026-04-07T09:09:09.999Z</time></trkpt><trkpt lat="43.89806040007275" lon="10.253962661980982"><ele>-1.0</ele><time>2026-04-07T09:09:10.999Z</time></trkpt><trkpt lat="43.8978260946425" lon="10.254229756743763"><ele>-1.0</ele><time>2026-04-07T09:09:11.999Z</time></trkpt><trkpt lat="43.89758828361698" lon="10.254493186248615"><ele>-1.0</ele><time>2026-04-07T09:09:12.999Z</time></trkpt><trkpt lat="43.89735255348048" lon="10.254760588431246"><ele>-0.5</ele><time>2026-04-07T09:09:13.999Z</time></trkpt><trkpt lat="43.89711493149252" lon="10.255025995353275"><ele>0.0</ele><time>2026-04-07T09:09:14.999Z</time></trkpt><trkpt lat="43.89687870456442" lon="10.255296507210705"><ele>0.5</ele><time>2026-04-07T09:09:15.999Z</time></trkpt><trkpt lat="43.89664291157632" lon="10.255566946074662"><ele>1.0</ele><time>2026-04-07T09:09:16.999Z</time></trkpt><trkpt lat="43.89640727294828" lon="10.255834728540403"><ele>1.5</ele><time>2026-04-07T09:09:17.999Z</time></trkpt><trkpt lat="43.89616943164239" lon="10.256101951352292"><ele>2.0</ele><time>2026-04-07T09:09:18.999Z</time></trkpt><trkpt lat="43.895930343124164" lon="10.256359989262805"><ele>0.5</ele><time>2026-04-07T09:09:19.999Z</time></trkpt><trkpt lat="43.89569505512641" lon="10.25662969349461"><ele>-1.0</ele><time>2026-04-07T09:09:20.999Z</time></trkpt><trkpt lat="43.89545574975619" lon="10.256888795955852"><ele>-1.0</ele><time>2026-04-07T09:09:21.999Z</time></trkpt><trkpt lat="43.89521248536313" lon="10.257141320111542"><ele>-1.0</ele><time>2026-04-07T09:09:22.999Z</time></trkpt><trkpt lat="43.89496728151764" lon="10.257385385184557"><ele>-0.5</ele><time>2026-04-07T09:09:23.999Z</time></trkpt><trkpt lat="43.89471745939723" lon="10.257618296140251"><ele>0.0</ele><time>2026-04-07T09:09:24.999Z</time></trkpt><trkpt lat="43.89446916167625" lon="10.257847061357204"><ele>0.0</ele><time>2026-04-07T09:09:25.999Z</time></trkpt><trkpt lat="43.89421494119352" lon="10.258061528219393"><ele>0.0</ele><time>2026-04-07T09:09:26.999Z</time></trkpt><trkpt lat="43.893961951460376" lon="10.258279882383299"><ele>0.0</ele><time>2026-04-07T09:09:27.999Z</time></trkpt><trkpt lat="43.893708300142194" lon="10.258496503029493"><ele>0.0</ele><time>2026-04-07T09:09:28.999Z</time></trkpt><trkpt lat="43.89345012593729" lon="10.258699139056468"><ele>-0.5</ele><time>2026-04-07T09:09:29.999Z</time></trkpt><trkpt lat="43.89319533387976" lon="10.258884565003491"><ele>-1.0</ele><time>2026-04-07T09:09:30.999Z</time></trkpt><trkpt lat="43.89295725820357" lon="10.259055232125041"><ele>-0.5</ele><time>2026-04-07T09:09:31.999Z</time></trkpt><trkpt lat="43.89271106706358" lon="10.259220101848005"><ele>0.0</ele><time>2026-04-07T09:09:32.999Z</time></trkpt><trkpt lat="43.89246337855397" lon="10.259385706478701"><ele>0.0</ele><time>2026-04-07T09:09:33.999Z</time></trkpt><trkpt lat="43.892216547799656" lon="10.259555076129933"><ele>0.0</ele><time>2026-04-07T09:09:34.999Z</time></trkpt><trkpt lat="43.89196804896106" lon="10.259735638328593"><ele>-0.5</ele><time>2026-04-07T09:09:35.999Z</time></trkpt><trkpt lat="43.89171901162831" lon="10.259918876422152"><ele>-1.0</ele><time>2026-04-07T09:09:36.999Z</time></trkpt><trkpt lat="43.89146732232614" lon="10.26009817609066"><ele>-1.0</ele><time>2026-04-07T09:09:37.999Z</time></trkpt><trkpt lat="43.89120823496081" lon="10.26028245077718"><ele>-1.0</ele><time>2026-04-07T09:09:38.999Z</time></trkpt><trkpt lat="43.89093217436178" lon="10.260479865170652"><ele>0.0</ele><time>2026-04-07T09:09:39.999Z</time></trkpt><trkpt lat="43.89063893234927" lon="10.26068997090591"><ele>1.0</ele><time>2026-04-07T09:09:40.999Z</time></trkpt><trkpt lat="43.89033602020028" lon="10.260911884593453"><ele>0.0</ele><time>2026-04-07T09:09:41.999Z</time></trkpt><trkpt lat="43.89004986269153" lon="10.261121880986572"><ele>-1.0</ele><time>2026-04-07T09:09:42.999Z</time></trkpt><trkpt lat="43.88978738482816" lon="10.261315061641751"><ele>-0.5</ele><time>2026-04-07T09:09:43.999Z</time></trkpt><trkpt lat="43.88953387084055" lon="10.261497529179803"><ele>0.0</ele><time>2026-04-07T09:09:44.999Z</time></trkpt><trkpt lat="43.88927526648359" lon="10.261684651687432"><ele>-0.5</ele><time>2026-04-07T09:09:45.999Z</time></trkpt><trkpt lat="43.889018961066164" lon="10.261870427469708"><ele>-1.0</ele><time>2026-04-07T09:09:46.999Z</time></trkpt><trkpt lat="43.888759349534766" lon="10.262049741209122"><ele>-1.0</ele><time>2026-04-07T09:09:47.999Z</time></trkpt><trkpt lat="43.88850018455059" lon="10.262237909262888"><ele>-1.0</ele><time>2026-04-07T09:09:48.999Z</time></trkpt><trkpt lat="43.88824020889391" lon="10.26242844119323"><ele>-1.0</ele><time>2026-04-07T09:09:49.999Z</time></trkpt><trkpt lat="43.88798050705831" lon="10.262620268958491"><ele>-1.0</ele><time>2026-04-07T09:09:50.999Z</time></trkpt><trkpt lat="43.887714315504944" lon="10.262816201312505"><ele>-1.0</ele><time>2026-04-07T09:09:52Z</time></trkpt><trkpt lat="43.887458991919516" lon="10.263004151937453"><ele>-1.0</ele><time>2026-04-07T09:09:53Z</time></trkpt><trkpt lat="43.887200056906316" lon="10.26319373414184"><ele>-1.0</ele><time>2026-04-07T09:09:54Z</time></trkpt><trkpt lat="43.886942456663995" lon="10.263380786472588"><ele>-1.0</ele><time>2026-04-07T09:09:55Z</time></trkpt><trkpt lat="43.88668258002685" lon="10.263564646117365"><ele>-1.5</ele><time>2026-04-07T09:09:56Z</time></trkpt><trkpt lat="43.88642423286035" lon="10.26374615123562"><ele>-2.0</ele><time>2026-04-07T09:09:57Z</time></trkpt><trkpt lat="43.88616597053065" lon="10.263930798970861"><ele>-1.0</ele><time>2026-04-07T09:09:58Z</time></trkpt><trkpt lat="43.88590766313739" lon="10.264117786172076"><ele>0.0</ele><time>2026-04-07T09:09:59Z</time></trkpt><trkpt lat="43.88565111467701" lon="10.26430481844782"><ele>0.0</ele><time>2026-04-07T09:10:00Z</time></trkpt><trkpt lat="43.885397199497355" lon="10.264491042286197"><ele>0.0</ele><time>2026-04-07T09:10:01Z</time></trkpt><trkpt lat="43.88513260644241" lon="10.264685918831265"><ele>-0.5</ele><time>2026-04-07T09:10:02Z</time></trkpt><trkpt lat="43.88486117571161" lon="10.264892971490424"><ele>-1.0</ele><time>2026-04-07T09:10:03Z</time></trkpt><trkpt lat="43.884561325622116" lon="10.265096622713811"><ele>-1.5</ele><time>2026-04-07T09:10:04Z</time></trkpt><trkpt lat="43.88426140101421" lon="10.26531336984656"><ele>-2.0</ele><time>2026-04-07T09:10:05Z</time></trkpt><trkpt lat="43.88395361782949" lon="10.265542321596355"><ele>-1.5</ele><time>2026-04-07T09:10:06Z</time></trkpt><trkpt lat="43.88363002583178" lon="10.265768220152964"><ele>-1.0</ele><time>2026-04-07T09:10:07Z</time></trkpt><trkpt lat="43.88330769546656" lon="10.26599446668323"><ele>-0.5</ele><time>2026-04-07T09:10:08Z</time></trkpt><trkpt lat="43.8830142365334" lon="10.266216695708893"><ele>0.0</ele><time>2026-04-07T09:10:09Z</time></trkpt><trkpt lat="43.88273130805746" lon="10.266413325235064"><ele>0.5</ele><time>2026-04-07T09:10:10Z</time></trkpt><trkpt lat="43.88245631365139" lon="10.26661637069807"><ele>1.0</ele><time>2026-04-07T09:10:11Z</time></trkpt><trkpt lat="43.88217338739857" lon="10.26681308717099"><ele>1.0</ele><time>2026-04-07T09:10:12Z</time></trkpt><trkpt lat="43.88190445762976" lon="10.267013508404169"><ele>1.0</ele><time>2026-04-07T09:10:13Z</time></trkpt><trkpt lat="43.88163539992265" lon="10.267209617712012"><ele>0.5</ele><time>2026-04-07T09:10:14Z</time></trkpt><trkpt lat="43.88136682397974" lon="10.267403497432708"><ele>0.0</ele><time>2026-04-07T09:10:15Z</time></trkpt><trkpt lat="43.88109943366203" lon="10.26759571665305"><ele>0.5</ele><time>2026-04-07T09:10:16Z</time></trkpt><trkpt lat="43.88082958478133" lon="10.267787641509706"><ele>1.0</ele><time>2026-04-07T09:10:17Z</time></trkpt><trkpt lat="43.88056247969944" lon="10.267996165372129"><ele>1.0</ele><time>2026-04-07T09:10:18Z</time></trkpt><trkpt lat="43.88027614820748" lon="10.268219990779603"><ele>1.0</ele><time>2026-04-07T09:10:19Z</time></trkpt><trkpt lat="43.879983757228196" lon="10.268436511687062"><ele>1.0</ele><time>2026-04-07T09:10:20Z</time></trkpt><trkpt lat="43.879682436631626" lon="10.26864692144471"><ele>1.0</ele><time>2026-04-07T09:10:21Z</time></trkpt><trkpt lat="43.87937878824429" lon="10.268868786981171"><ele>0.0</ele><time>2026-04-07T09:10:22Z</time></trkpt><trkpt lat="43.87906802176846" lon="10.269094594622315"><ele>-1.0</ele><time>2026-04-07T09:10:23Z</time></trkpt><trkpt lat="43.878760015074455" lon="10.26931648287507"><ele>-1.0</ele><time>2026-04-07T09:10:24Z</time></trkpt><trkpt lat="43.87847548256247" lon="10.269522048607726"><ele>-1.0</ele><time>2026-04-07T09:10:25Z</time></trkpt><trkpt lat="43.87821049254022" lon="10.269715824217588"><ele>-1.5</ele><time>2026-04-07T09:10:26Z</time></trkpt><trkpt lat="43.87794870782128" lon="10.2699042008649"><ele>-2.0</ele><time>2026-04-07T09:10:27Z</time></trkpt><trkpt lat="43.8776822547856" lon="10.270089555871929"><ele>-1.5</ele><time>2026-04-07T09:10:28Z</time></trkpt><trkpt lat="43.87741494115143" lon="10.270271142491165"><ele>-1.0</ele><time>2026-04-07T09:10:29Z</time></trkpt><trkpt lat="43.87715137179564" lon="10.270454698037934"><ele>0.0</ele><time>2026-04-07T09:10:30Z</time></trkpt><trkpt lat="43.876885264645985" lon="10.270643779431012"><ele>1.0</ele><time>2026-04-07T09:10:31Z</time></trkpt><trkpt lat="43.87662286644254" lon="10.270828761680386"><ele>1.0</ele><time>2026-04-07T09:10:32Z</time></trkpt><trkpt lat="43.876359501987544" lon="10.27101909959676"><ele>1.0</ele><time>2026-04-07T09:10:33Z</time></trkpt><trkpt lat="43.876095053217476" lon="10.271214479254436"><ele>0.5</ele><time>2026-04-07T09:10:34Z</time></trkpt><trkpt lat="43.87583148519289" lon="10.271402557831207"><ele>0.0</ele><time>2026-04-07T09:10:35Z</time></trkpt><trkpt lat="43.87556304625935" lon="10.271595506781345"><ele>-0.5</ele><time>2026-04-07T09:10:36Z</time></trkpt><trkpt lat="43.87529119245773" lon="10.271788358098426"><ele>-1.0</ele><time>2026-04-07T09:10:37Z</time></trkpt><trkpt lat="43.87502919965587" lon="10.271987113371784"><ele>-1.0</ele><time>2026-04-07T09:10:38Z</time></trkpt><trkpt lat="43.874763843925805" lon="10.272180496734219"><ele>-1.0</ele><time>2026-04-07T09:10:39Z</time></trkpt><trkpt lat="43.87449798197456" lon="10.272371428020254"><ele>0.0</ele><time>2026-04-07T09:10:40Z</time></trkpt><trkpt lat="43.874232761488926" lon="10.272559175253978"><ele>1.0</ele><time>2026-04-07T09:10:41Z</time></trkpt><trkpt lat="43.873965755200885" lon="10.272751073828713"><ele>1.0</ele><time>2026-04-07T09:10:42Z</time></trkpt><trkpt lat="43.87369945533489" lon="10.272947926186358"><ele>1.0</ele><time>2026-04-07T09:10:43Z</time></trkpt><trkpt lat="43.87343090683262" lon="10.273145958025445"><ele>0.5</ele><time>2026-04-07T09:10:44Z</time></trkpt><trkpt lat="43.87315754201927" lon="10.273343491499466"><ele>0.0</ele><time>2026-04-07T09:10:45Z</time></trkpt><trkpt lat="43.87288610509055" lon="10.273541822288173"><ele>0.0</ele><time>2026-04-07T09:10:46Z</time></trkpt><trkpt lat="43.872608548996006" lon="10.273739777877365"><ele>0.0</ele><time>2026-04-07T09:10:47Z</time></trkpt><trkpt lat="43.87233440819655" lon="10.273939797214572"><ele>0.5</ele><time>2026-04-07T09:10:48Z</time></trkpt><trkpt lat="43.87205734674236" lon="10.274141986152712"><ele>1.0</ele><time>2026-04-07T09:10:49Z</time></trkpt><trkpt lat="43.87178211645683" lon="10.274343673173783"><ele>0.5</ele><time>2026-04-07T09:10:50Z</time></trkpt><trkpt lat="43.87150553013369" lon="10.274541151796393"><ele>0.0</ele><time>2026-04-07T09:10:51Z</time></trkpt><trkpt lat="43.87122186551522" lon="10.274736401039103"><ele>0.5</ele><time>2026-04-07T09:10:52Z</time></trkpt><trkpt lat="43.87093997788187" lon="10.274934671628822"><ele>1.0</ele><time>2026-04-07T09:10:53Z</time></trkpt><trkpt lat="43.870658598964354" lon="10.275124274876125"><ele>1.0</ele><time>2026-04-07T09:10:54Z</time></trkpt><trkpt lat="43.87037304952852" lon="10.27531108800266"><ele>1.0</ele><time>2026-04-07T09:10:55Z</time></trkpt><trkpt lat="43.870078924622156" lon="10.275496469063258"><ele>1.5</ele><time>2026-04-07T09:10:56Z</time></trkpt><trkpt lat="43.86978328927193" lon="10.275674487371049"><ele>2.0</ele><time>2026-04-07T09:10:57Z</time></trkpt><trkpt lat="43.8694911351207" lon="10.275846090868825"><ele>0.5</ele><time>2026-04-07T09:10:57.999Z</time></trkpt><trkpt lat="43.869192755436934" lon="10.27601542950105"><ele>-1.0</ele><time>2026-04-07T09:10:58.999Z</time></trkpt><trkpt lat="43.86889706757176" lon="10.27619011395122"><ele>-1.0</ele><time>2026-04-07T09:10:59.999Z</time></trkpt><trkpt lat="43.86859529654824" lon="10.27635837202007"><ele>-1.0</ele><time>2026-04-07T09:11:00.999Z</time></trkpt><trkpt lat="43.8682933888954" lon="10.276521405697077"><ele>-1.5</ele><time>2026-04-07T09:11:01.999Z</time></trkpt><trkpt lat="43.867988352215995" lon="10.276674353640828"><ele>-2.0</ele><time>2026-04-07T09:11:02.999Z</time></trkpt><trkpt lat="43.867690077923235" lon="10.27682246997041"><ele>-0.5</ele><time>2026-04-07T09:11:03.999Z</time></trkpt><trkpt lat="43.86739102140314" lon="10.276968001151632"><ele>1.0</ele><time>2026-04-07T09:11:04.999Z</time></trkpt><trkpt lat="43.867121823660376" lon="10.277098813960636"><ele>1.0</ele><time>2026-04-07T09:11:05.999Z</time></trkpt><trkpt lat="43.86685188032625" lon="10.277235489460018"><ele>1.0</ele><time>2026-04-07T09:11:06.999Z</time></trkpt><trkpt lat="43.86658017316986" lon="10.277369864998066"><ele>0.5</ele><time>2026-04-07T09:11:07.999Z</time></trkpt><trkpt lat="43.866314114397404" lon="10.277504303915899"><ele>0.0</ele><time>2026-04-07T09:11:08.999Z</time></trkpt><trkpt lat="43.86605101224282" lon="10.277640694073263"><ele>0.5</ele><time>2026-04-07T09:11:09.999Z</time></trkpt><trkpt lat="43.865791888606864" lon="10.27777621440878"><ele>1.0</ele><time>2026-04-07T09:11:10.999Z</time></trkpt><trkpt lat="43.865531640997084" lon="10.277907279130627"><ele>1.0</ele><time>2026-04-07T09:11:11.999Z</time></trkpt><trkpt lat="43.86527058254234" lon="10.278034499369863"><ele>1.0</ele><time>2026-04-07T09:11:12.999Z</time></trkpt><trkpt lat="43.865010845666255" lon="10.278159912137765"><ele>2.5</ele><time>2026-04-07T09:11:13.999Z</time></trkpt><trkpt lat="43.864748138660396" lon="10.278287017508452"><ele>4.0</ele><time>2026-04-07T09:11:14.999Z</time></trkpt><trkpt lat="43.86448147341699" lon="10.278417759611825"><ele>3.5</ele><time>2026-04-07T09:11:15.999Z</time></trkpt><trkpt lat="43.864215038723486" lon="10.278550630584862"><ele>3.0</ele><time>2026-04-07T09:11:16.999Z</time></trkpt><trkpt lat="43.86394677585336" lon="10.278684915097273"><ele>3.0</ele><time>2026-04-07T09:11:17.999Z</time></trkpt><trkpt lat="43.86367762624142" lon="10.278819422825348"><ele>3.0</ele><time>2026-04-07T09:11:18.999Z</time></trkpt><trkpt lat="43.86340785138139" lon="10.27895384680249"><ele>2.0</ele><time>2026-04-07T09:11:19.999Z</time></trkpt><trkpt lat="43.863129656209956" lon="10.279094966371233"><ele>1.0</ele><time>2026-04-07T09:11:20.999Z</time></trkpt><trkpt lat="43.86283384239657" lon="10.279243536979166"><ele>1.5</ele><time>2026-04-07T09:11:21.999Z</time></trkpt><trkpt lat="43.8625235653752" lon="10.279394325378519"><ele>2.0</ele><time>2026-04-07T09:11:22.999Z</time></trkpt><trkpt lat="43.86220639294531" lon="10.279556166065042"><ele>2.0</ele><time>2026-04-07T09:11:23.999Z</time></trkpt><trkpt lat="43.86187955224098" lon="10.279721945686696"><ele>2.0</ele><time>2026-04-07T09:11:24.999Z</time></trkpt><trkpt lat="43.86154892935218" lon="10.279889680285743"><ele>2.0</ele><time>2026-04-07T09:11:25.999Z</time></trkpt><trkpt lat="43.861212557384015" lon="10.280055990915136"><ele>2.0</ele><time>2026-04-07T09:11:26.999Z</time></trkpt><trkpt lat="43.86088721225355" lon="10.280211600836637"><ele>2.0</ele><time>2026-04-07T09:11:27.999Z</time></trkpt><trkpt lat="43.860589253697924" lon="10.280352750436624"><ele>2.0</ele><time>2026-04-07T09:11:28.999Z</time></trkpt><trkpt lat="43.8602977497687" lon="10.280510715570065"><ele>1.5</ele><time>2026-04-07T09:11:29.999Z</time></trkpt><trkpt lat="43.860004351820514" lon="10.280659982281389"><ele>1.0</ele><time>2026-04-07T09:11:30.999Z</time></trkpt><trkpt lat="43.85971232082093" lon="10.280805259677829"><ele>1.0</ele><time>2026-04-07T09:11:31.999Z</time></trkpt><trkpt lat="43.859421558849746" lon="10.280950674387173"><ele>1.0</ele><time>2026-04-07T09:11:32.999Z</time></trkpt><trkpt lat="43.859132255947486" lon="10.281095245539309"><ele>1.5</ele><time>2026-04-07T09:11:33.999Z</time></trkpt><trkpt lat="43.858845163427894" lon="10.281239858611158"><ele>2.0</ele><time>2026-04-07T09:11:34.999Z</time></trkpt><trkpt lat="43.85855967127964" lon="10.281383513170411"><ele>1.5</ele><time>2026-04-07T09:11:35.999Z</time></trkpt><trkpt lat="43.85827414546578" lon="10.281527014039888"><ele>1.0</ele><time>2026-04-07T09:11:36.999Z</time></trkpt><trkpt lat="43.85799083548434" lon="10.281672091791728"><ele>1.0</ele><time>2026-04-07T09:11:37.999Z</time></trkpt><trkpt lat="43.857710218403284" lon="10.281821709014931"><ele>1.0</ele><time>2026-04-07T09:11:38.999Z</time></trkpt><trkpt lat="43.85742771253321" lon="10.281979089635978"><ele>0.0</ele><time>2026-04-07T09:11:39.999Z</time></trkpt><trkpt lat="43.857143875773055" lon="10.282141795958117"><ele>-1.0</ele><time>2026-04-07T09:11:40.999Z</time></trkpt><trkpt lat="43.85686225824063" lon="10.282307785235211"><ele>-0.5</ele><time>2026-04-07T09:11:41.999Z</time></trkpt><trkpt lat="43.85658100695005" lon="10.282471682448891"><ele>0.0</ele><time>2026-04-07T09:11:42.999Z</time></trkpt><trkpt lat="43.8563010035296" lon="10.282637232593757"><ele>0.0</ele><time>2026-04-07T09:11:43.999Z</time></trkpt><trkpt lat="43.856021786117786" lon="10.282806541714743"><ele>0.0</ele><time>2026-04-07T09:11:44.999Z</time></trkpt><trkpt lat="43.855745003017056" lon="10.282976767410386"><ele>1.0</ele><time>2026-04-07T09:11:45.999Z</time></trkpt><trkpt lat="43.85546959725365" lon="10.283147345987617"><ele>2.0</ele><time>2026-04-07T09:11:46.999Z</time></trkpt><trkpt lat="43.8551937283573" lon="10.283313567129952"><ele>1.0</ele><time>2026-04-07T09:11:47.999Z</time></trkpt><trkpt lat="43.85491842487797" lon="10.283479863877004"><ele>0.0</ele><time>2026-04-07T09:11:48.999Z</time></trkpt><trkpt lat="43.854642353690146" lon="10.283647497554815"><ele>0.0</ele><time>2026-04-07T09:11:49.999Z</time></trkpt><trkpt lat="43.8543669110693" lon="10.283817799438985"><ele>0.0</ele><time>2026-04-07T09:11:50.999Z</time></trkpt><trkpt lat="43.8540922467542" lon="10.283987714635428"><ele>0.0</ele><time>2026-04-07T09:11:51.999Z</time></trkpt><trkpt lat="43.85382021224029" lon="10.284158246660521"><ele>0.0</ele><time>2026-04-07T09:11:52.999Z</time></trkpt><trkpt lat="43.85354627648494" lon="10.28432789364055"><ele>-0.5</ele><time>2026-04-07T09:11:53.999Z</time></trkpt><trkpt lat="43.85327186591475" lon="10.284497708462625"><ele>-1.0</ele><time>2026-04-07T09:11:54.999Z</time></trkpt><trkpt lat="43.852996939140624" lon="10.28466737111123"><ele>-1.0</ele><time>2026-04-07T09:11:55.999Z</time></trkpt><trkpt lat="43.85272201845249" lon="10.28483650116667"><ele>-1.0</ele><time>2026-04-07T09:11:56.999Z</time></trkpt><trkpt lat="43.85244747146358" lon="10.28500602072729"><ele>-1.0</ele><time>2026-04-07T09:11:58Z</time></trkpt><trkpt lat="43.85217326666382" lon="10.285176719139569"><ele>-1.0</ele><time>2026-04-07T09:11:59Z</time></trkpt><trkpt lat="43.851896960963344" lon="10.285346794454574"><ele>-0.5</ele><time>2026-04-07T09:12:00Z</time></trkpt><trkpt lat="43.85161772030744" lon="10.285516430349425"><ele>0.0</ele><time>2026-04-07T09:12:01Z</time></trkpt><trkpt lat="43.851336685144055" lon="10.285687922113903"><ele>0.0</ele><time>2026-04-07T09:12:02Z</time></trkpt><trkpt lat="43.85105431836171" lon="10.285858170634844"><ele>0.0</ele><time>2026-04-07T09:12:03Z</time></trkpt><trkpt lat="43.85076966036255" lon="10.286031901026899"><ele>0.0</ele><time>2026-04-07T09:12:04Z</time></trkpt><trkpt lat="43.85047637531132" lon="10.286211573104147"><ele>0.0</ele><time>2026-04-07T09:12:05Z</time></trkpt><trkpt lat="43.85017200919162" lon="10.286394953170964"><ele>-0.5</ele><time>2026-04-07T09:12:06Z</time></trkpt><trkpt lat="43.84985947156093" lon="10.28658351014061"><ele>-1.0</ele><time>2026-04-07T09:12:07Z</time></trkpt><trkpt lat="43.84954922715548" lon="10.28677408617568"><ele>0.0</ele><time>2026-04-07T09:12:08Z</time></trkpt><trkpt lat="43.849238203297105" lon="10.286969712203017"><ele>1.0</ele><time>2026-04-07T09:12:09Z</time></trkpt><trkpt lat="43.84892526246668" lon="10.287168178782292"><ele>0.5</ele><time>2026-04-07T09:12:10Z</time></trkpt><trkpt lat="43.8486166047377" lon="10.287353703992594"><ele>0.0</ele><time>2026-04-07T09:12:11Z</time></trkpt><trkpt lat="43.84830874349731" lon="10.287538449629992"><ele>0.0</ele><time>2026-04-07T09:12:12Z</time></trkpt><trkpt lat="43.84800022553262" lon="10.28772497171515"><ele>0.0</ele><time>2026-04-07T09:12:13Z</time></trkpt><trkpt lat="43.8476923898711" lon="10.287912652644877"><ele>-0.5</ele><time>2026-04-07T09:12:14Z</time></trkpt><trkpt lat="43.84738777030285" lon="10.288101571934842"><ele>-1.0</ele><time>2026-04-07T09:12:15Z</time></trkpt><trkpt lat="43.847083011406156" lon="10.288286033334385"><ele>-1.0</ele><time>2026-04-07T09:12:16Z</time></trkpt><trkpt lat="43.84678145038175" lon="10.288471680637237"><ele>-1.0</ele><time>2026-04-07T09:12:17Z</time></trkpt><trkpt lat="43.84648077696895" lon="10.288656538059122"><ele>-1.0</ele><time>2026-04-07T09:12:18Z</time></trkpt><trkpt lat="43.84618006613598" lon="10.288840801149075"><ele>-1.0</ele><time>2026-04-07T09:12:19Z</time></trkpt><trkpt lat="43.84587950919113" lon="10.28902454632477"><ele>-0.5</ele><time>2026-04-07T09:12:20Z</time></trkpt><trkpt lat="43.84558157148097" lon="10.289207507314877"><ele>0.0</ele><time>2026-04-07T09:12:21Z</time></trkpt><trkpt lat="43.84528519174892" lon="10.28939280803205"><ele>0.0</ele><time>2026-04-07T09:12:22Z</time></trkpt><trkpt lat="43.84499066758655" lon="10.289578034444386"><ele>0.0</ele><time>2026-04-07T09:12:23Z</time></trkpt><trkpt lat="43.84469674420514" lon="10.289760638003987"><ele>0.0</ele><time>2026-04-07T09:12:24Z</time></trkpt><trkpt lat="43.84440139409392" lon="10.289940291571428"><ele>0.0</ele><time>2026-04-07T09:12:25Z</time></trkpt><trkpt lat="43.84410759565974" lon="10.290120221949092"><ele>-0.5</ele><time>2026-04-07T09:12:26Z</time></trkpt><trkpt lat="43.84381603936443" lon="10.290301759714716"><ele>-1.0</ele><time>2026-04-07T09:12:27Z</time></trkpt><trkpt lat="43.84352562886956" lon="10.290489880983555"><ele>0.0</ele><time>2026-04-07T09:12:28Z</time></trkpt><trkpt lat="43.84323751736295" lon="10.290681455627643"><ele>1.0</ele><time>2026-04-07T09:12:29Z</time></trkpt><trkpt lat="43.84295537981285" lon="10.290879112642303"><ele>1.0</ele><time>2026-04-07T09:12:30Z</time></trkpt><trkpt lat="43.84267776966501" lon="10.29108454657945"><ele>1.0</ele><time>2026-04-07T09:12:31Z</time></trkpt><trkpt lat="43.842401166910875" lon="10.29129281337498"><ele>0.0</ele><time>2026-04-07T09:12:32Z</time></trkpt><trkpt lat="43.8421251632147" lon="10.291499045497906"><ele>-1.0</ele><time>2026-04-07T09:12:33Z</time></trkpt><trkpt lat="43.84185080207512" lon="10.291705641727352"><ele>-0.5</ele><time>2026-04-07T09:12:34Z</time></trkpt><trkpt lat="43.84157885056483" lon="10.291914045982297"><ele>0.0</ele><time>2026-04-07T09:12:35Z</time></trkpt><trkpt lat="43.84130654787957" lon="10.292119585478972"><ele>0.0</ele><time>2026-04-07T09:12:36Z</time></trkpt><trkpt lat="43.84103438002311" lon="10.292323167956548"><ele>0.0</ele><time>2026-04-07T09:12:37Z</time></trkpt><trkpt lat="43.84076070935369" lon="10.292527693135295"><ele>0.0</ele><time>2026-04-07T09:12:38Z</time></trkpt><trkpt lat="43.84048736124387" lon="10.29273042678171"><ele>0.0</ele><time>2026-04-07T09:12:39Z</time></trkpt><trkpt lat="43.84021577085404" lon="10.292933556895314"><ele>0.5</ele><time>2026-04-07T09:12:40Z</time></trkpt><trkpt lat="43.8399426820957" lon="10.293138825403888"><ele>1.0</ele><time>2026-04-07T09:12:41Z</time></trkpt><trkpt lat="43.8396710182665" lon="10.293345689464292"><ele>1.0</ele><time>2026-04-07T09:12:42Z</time></trkpt><trkpt lat="43.83939981973763" lon="10.29355135571647"><ele>1.0</ele><time>2026-04-07T09:12:43Z</time></trkpt><trkpt lat="43.83912689827782" lon="10.293755724998631"><ele>0.0</ele><time>2026-04-07T09:12:44Z</time></trkpt><trkpt lat="43.83885294043063" lon="10.293959966178718"><ele>-1.0</ele><time>2026-04-07T09:12:45Z</time></trkpt><trkpt lat="43.83857798566706" lon="10.294166323680288"><ele>0.0</ele><time>2026-04-07T09:12:46Z</time></trkpt><trkpt lat="43.83830283772141" lon="10.294373880726871"><ele>1.0</ele><time>2026-04-07T09:12:47Z</time></trkpt><trkpt lat="43.83802734628309" lon="10.29458059413893"><ele>1.0</ele><time>2026-04-07T09:12:48Z</time></trkpt><trkpt lat="43.83774869408857" lon="10.294787915409788"><ele>1.0</ele><time>2026-04-07T09:12:49Z</time></trkpt><trkpt lat="43.83747022183122" lon="10.294995765875035"><ele>1.0</ele><time>2026-04-07T09:12:50Z</time></trkpt><trkpt lat="43.83719123218785" lon="10.295207527019283"><ele>1.0</ele><time>2026-04-07T09:12:51Z</time></trkpt><trkpt lat="43.836908948457584" lon="10.295421809432673"><ele>1.5</ele><time>2026-04-07T09:12:52Z</time></trkpt><trkpt lat="43.83662056151901" lon="10.295636253772921"><ele>2.0</ele><time>2026-04-07T09:12:53Z</time></trkpt><trkpt lat="43.836324320012935" lon="10.295855912585095"><ele>2.0</ele><time>2026-04-07T09:12:54Z</time></trkpt><trkpt lat="43.836030273300764" lon="10.296075394961912"><ele>2.0</ele><time>2026-04-07T09:12:55Z</time></trkpt><trkpt lat="43.83572700063445" lon="10.29629499128507"><ele>2.0</ele><time>2026-04-07T09:12:56Z</time></trkpt><trkpt lat="43.835423553184256" lon="10.296523030442787"><ele>2.0</ele><time>2026-04-07T09:12:57Z</time></trkpt><trkpt lat="43.83512216849752" lon="10.296749447706452"><ele>1.0</ele><time>2026-04-07T09:12:58Z</time></trkpt><trkpt lat="43.83483501482939" lon="10.296974435066781"><ele>0.0</ele><time>2026-04-07T09:12:59Z</time></trkpt><trkpt lat="43.834560607037055" lon="10.297195445628871"><ele>1.0</ele><time>2026-04-07T09:13:00Z</time></trkpt><trkpt lat="43.83427596224806" lon="10.297416882644601"><ele>2.0</ele><time>2026-04-07T09:13:01Z</time></trkpt><trkpt lat="43.83398463415906" lon="10.29763518853519"><ele>2.0</ele><time>2026-04-07T09:13:02Z</time></trkpt><trkpt lat="43.833698937733566" lon="10.297851093750225"><ele>2.0</ele><time>2026-04-07T09:13:03Z</time></trkpt><trkpt lat="43.83343433734642" lon="10.29805065632981"><ele>2.0</ele><time>2026-04-07T09:13:04Z</time></trkpt><trkpt lat="43.83316495983428" lon="10.298248388285765"><ele>2.0</ele><time>2026-04-07T09:13:04.999Z</time></trkpt><trkpt lat="43.83289358229548" lon="10.298449157827221"><ele>2.5</ele><time>2026-04-07T09:13:05.999Z</time></trkpt><trkpt lat="43.83262415739525" lon="10.298651574221667"><ele>3.0</ele><time>2026-04-07T09:13:06.999Z</time></trkpt><trkpt lat="43.832351141937146" lon="10.298848650229672"><ele>2.0</ele><time>2026-04-07T09:13:07.999Z</time></trkpt><trkpt lat="43.83207523139359" lon="10.299041894495655"><ele>1.0</ele><time>2026-04-07T09:13:08.999Z</time></trkpt><trkpt lat="43.831799544975375" lon="10.299236232547873"><ele>1.0</ele><time>2026-04-07T09:13:09.999Z</time></trkpt><trkpt lat="43.83152259765067" lon="10.299436351754888"><ele>1.0</ele><time>2026-04-07T09:13:10.999Z</time></trkpt><trkpt lat="43.831247763003766" lon="10.299641664606646"><ele>0.5</ele><time>2026-04-07T09:13:11.999Z</time></trkpt><trkpt lat="43.83097446293363" lon="10.29985059790029"><ele>0.0</ele><time>2026-04-07T09:13:12.999Z</time></trkpt><trkpt lat="43.83069859262621" lon="10.300059601007233"><ele>1.0</ele><time>2026-04-07T09:13:13.999Z</time></trkpt><trkpt lat="43.83042204854897" lon="10.300269196240698"><ele>2.0</ele><time>2026-04-07T09:13:14.999Z</time></trkpt><trkpt lat="43.83014738627225" lon="10.300476373846745"><ele>2.5</ele><time>2026-04-07T09:13:15.999Z</time></trkpt><trkpt lat="43.82987379683267" lon="10.300681794254533"><ele>3.0</ele><time>2026-04-07T09:13:16.999Z</time></trkpt><trkpt lat="43.829601702855356" lon="10.30089096570098"><ele>3.0</ele><time>2026-04-07T09:13:17.999Z</time></trkpt><trkpt lat="43.82932827840082" lon="10.301100313555835"><ele>3.0</ele><time>2026-04-07T09:13:18.999Z</time></trkpt><trkpt lat="43.829056896741434" lon="10.301307615804243"><ele>3.0</ele><time>2026-04-07T09:13:19.999Z</time></trkpt><trkpt lat="43.82878587343906" lon="10.301512105848651"><ele>3.0</ele><time>2026-04-07T09:13:20.999Z</time></trkpt><trkpt lat="43.828513753878994" lon="10.301717266078143"><ele>2.5</ele><time>2026-04-07T09:13:21.999Z</time></trkpt><trkpt lat="43.82824519557519" lon="10.301923101259094"><ele>2.0</ele><time>2026-04-07T09:13:22.999Z</time></trkpt><trkpt lat="43.82797703859136" lon="10.302126551777818"><ele>2.0</ele><time>2026-04-07T09:13:23.999Z</time></trkpt><trkpt lat="43.82770367968903" lon="10.302332440367577"><ele>2.0</ele><time>2026-04-07T09:13:24.999Z</time></trkpt><trkpt lat="43.82742829671871" lon="10.302538689825626"><ele>2.0</ele><time>2026-04-07T09:13:25.999Z</time></trkpt><trkpt lat="43.82715367971641" lon="10.302744055217927"><ele>2.0</ele><time>2026-04-07T09:13:26.999Z</time></trkpt><trkpt lat="43.826878154418075" lon="10.302951535055644"><ele>2.5</ele><time>2026-04-07T09:13:27.999Z</time></trkpt><trkpt lat="43.82659666325848" lon="10.303163504075943"><ele>3.0</ele><time>2026-04-07T09:13:28.999Z</time></trkpt><trkpt lat="43.82631142550352" lon="10.303375543703053"><ele>3.0</ele><time>2026-04-07T09:13:29.999Z</time></trkpt><trkpt lat="43.82602625410998" lon="10.303589131635501"><ele>3.0</ele><time>2026-04-07T09:13:30.999Z</time></trkpt><trkpt lat="43.82574112627462" lon="10.303801667104095"><ele>3.5</ele><time>2026-04-07T09:13:31.999Z</time></trkpt><trkpt lat="43.82545454058623" lon="10.304017033540314"><ele>4.0</ele><time>2026-04-07T09:13:32.999Z</time></trkpt><trkpt lat="43.825163712557455" lon="10.304234540138163"><ele>3.5</ele><time>2026-04-07T09:13:33.999Z</time></trkpt><trkpt lat="43.824868738125325" lon="10.304455464736039"><ele>3.0</ele><time>2026-04-07T09:13:34.999Z</time></trkpt><trkpt lat="43.82457487884508" lon="10.304678721872573"><ele>3.5</ele><time>2026-04-07T09:13:35.999Z</time></trkpt><trkpt lat="43.8242752911465" lon="10.304899944603571"><ele>4.0</ele><time>2026-04-07T09:13:36.999Z</time></trkpt><trkpt lat="43.82397875064871" lon="10.305124229894403"><ele>4.0</ele><time>2026-04-07T09:13:37.999Z</time></trkpt><trkpt lat="43.82368683903676" lon="10.305346525470476"><ele>4.0</ele><time>2026-04-07T09:13:38.999Z</time></trkpt><trkpt lat="43.82339552707503" lon="10.305568079202402"><ele>5.5</ele><time>2026-04-07T09:13:39.999Z</time></trkpt><trkpt lat="43.823106715779495" lon="10.305786341129425"><ele>7.0</ele><time>2026-04-07T09:13:40.999Z</time></trkpt><trkpt lat="43.82281571231358" lon="10.306004968609326"><ele>8.5</ele><time>2026-04-07T09:13:41.999Z</time></trkpt><trkpt lat="43.8225235881273" lon="10.306219571989635"><ele>10.0</ele><time>2026-04-07T09:13:42.999Z</time></trkpt><trkpt lat="43.822236392936084" lon="10.306434910708354"><ele>10.5</ele><time>2026-04-07T09:13:43.999Z</time></trkpt><trkpt lat="43.8219544768871" lon="10.306646493810549"><ele>11.0</ele><time>2026-04-07T09:13:44.999Z</time></trkpt><trkpt lat="43.82167287095482" lon="10.306856958128684"><ele>10.0</ele><time>2026-04-07T09:13:45.999Z</time></trkpt><trkpt lat="43.82138853778297" lon="10.307070314828033"><ele>9.0</ele><time>2026-04-07T09:13:46.999Z</time></trkpt><trkpt lat="43.8211043726148" lon="10.307285842723928"><ele>8.5</ele><time>2026-04-07T09:13:47.999Z</time></trkpt><trkpt lat="43.82082031630137" lon="10.307503032481192"><ele>8.0</ele><time>2026-04-07T09:13:48.999Z</time></trkpt><trkpt lat="43.820539633273725" lon="10.307716270891675"><ele>8.0</ele><time>2026-04-07T09:13:49.999Z</time></trkpt><trkpt lat="43.82025919966188" lon="10.307927984118164"><ele>8.0</ele><time>2026-04-07T09:13:50.999Z</time></trkpt><trkpt lat="43.81997926561711" lon="10.308137900337467"><ele>7.5</ele><time>2026-04-07T09:13:51.999Z</time></trkpt><trkpt lat="43.819699142738706" lon="10.308346928812872"><ele>7.0</ele><time>2026-04-07T09:13:52.999Z</time></trkpt><trkpt lat="43.81941987349021" lon="10.308557809929129"><ele>7.0</ele><time>2026-04-07T09:13:53.999Z</time></trkpt><trkpt lat="43.81914437360944" lon="10.308765837091814"><ele>7.0</ele><time>2026-04-07T09:13:54.999Z</time></trkpt><trkpt lat="43.81887069606963" lon="10.308971368230946"><ele>7.0</ele><time>2026-04-07T09:13:55.999Z</time></trkpt><trkpt lat="43.81859591705232" lon="10.30917485907392"><ele>7.0</ele><time>2026-04-07T09:13:56.999Z</time></trkpt><trkpt lat="43.81832301115978" lon="10.309382142884985"><ele>7.0</ele><time>2026-04-07T09:13:57.999Z</time></trkpt><trkpt lat="43.81804942264138" lon="10.309586438513639"><ele>7.0</ele><time>2026-04-07T09:13:58.999Z</time></trkpt><trkpt lat="43.81777760463835" lon="10.309791181032185"><ele>8.0</ele><time>2026-04-07T09:13:59.999Z</time></trkpt><trkpt lat="43.817505746612326" lon="10.309997563790448"><ele>9.0</ele><time>2026-04-07T09:14:00.999Z</time></trkpt><trkpt lat="43.81723679261015" lon="10.31020124453822"><ele>9.0</ele><time>2026-04-07T09:14:01.999Z</time></trkpt><trkpt lat="43.816965342271416" lon="10.310402226201077"><ele>9.0</ele><time>2026-04-07T09:14:02.999Z</time></trkpt><trkpt lat="43.81669193751078" lon="10.310605221897262"><ele>8.5</ele><time>2026-04-07T09:14:04Z</time></trkpt><trkpt lat="43.81641776015611" lon="10.310806126799603"><ele>8.0</ele><time>2026-04-07T09:14:05Z</time></trkpt><trkpt lat="43.816140778872615" lon="10.311003980550364"><ele>9.5</ele><time>2026-04-07T09:14:06Z</time></trkpt><trkpt lat="43.81586168867094" lon="10.311195775821924"><ele>11.0</ele><time>2026-04-07T09:14:07Z</time></trkpt><trkpt lat="43.815579272329536" lon="10.311384739716933"><ele>9.5</ele><time>2026-04-07T09:14:08Z</time></trkpt><trkpt lat="43.81529351987326" lon="10.311570020115258"><ele>8.0</ele><time>2026-04-07T09:14:09Z</time></trkpt><trkpt lat="43.81500770023108" lon="10.311754713552856"><ele>8.0</ele><time>2026-04-07T09:14:10Z</time></trkpt><trkpt lat="43.814719990275925" lon="10.311939194249407"><ele>8.0</ele><time>2026-04-07T09:14:11Z</time></trkpt><trkpt lat="43.814430181186765" lon="10.312124478493493"><ele>7.0</ele><time>2026-04-07T09:14:12Z</time></trkpt><trkpt lat="43.81414137447168" lon="10.312305076300321"><ele>6.0</ele><time>2026-04-07T09:14:13Z</time></trkpt><trkpt lat="43.81384365376489" lon="10.312478585996587"><ele>6.0</ele><time>2026-04-07T09:14:14Z</time></trkpt><trkpt lat="43.81354622673178" lon="10.312649756824241"><ele>6.0</ele><time>2026-04-07T09:14:15Z</time></trkpt><trkpt lat="43.813246034146" lon="10.312814727216793"><ele>5.5</ele><time>2026-04-07T09:14:16Z</time></trkpt><trkpt lat="43.81294657156752" lon="10.312981018016357"><ele>5.0</ele><time>2026-04-07T09:14:17Z</time></trkpt><trkpt lat="43.81264488293957" lon="10.313140318236652"><ele>3.5</ele><time>2026-04-07T09:14:18Z</time></trkpt><trkpt lat="43.81233478408303" lon="10.313298542346896"><ele>2.0</ele><time>2026-04-07T09:14:19Z</time></trkpt><trkpt lat="43.81203376271441" lon="10.313460005239268"><ele>5.0</ele><time>2026-04-07T09:14:20Z</time></trkpt><trkpt lat="43.81172799051158" lon="10.31361723068906"><ele>8.0</ele><time>2026-04-07T09:14:21Z</time></trkpt><trkpt lat="43.811420948442404" lon="10.31376281342547"><ele>6.5</ele><time>2026-04-07T09:14:22Z</time></trkpt><trkpt lat="43.811114139089966" lon="10.31390779544401"><ele>5.0</ele><time>2026-04-07T09:14:23Z</time></trkpt><trkpt lat="43.81079682624706" lon="10.314044722647198"><ele>5.0</ele><time>2026-04-07T09:14:24Z</time></trkpt><trkpt lat="43.81047966407412" lon="10.314180444681389"><ele>5.0</ele><time>2026-04-07T09:14:25Z</time></trkpt><trkpt lat="43.81016313999282" lon="10.314316090776797"><ele>8.0</ele><time>2026-04-07T09:14:26Z</time></trkpt><trkpt lat="43.80984838807458" lon="10.314448576562372"><ele>11.0</ele><time>2026-04-07T09:14:27Z</time></trkpt><trkpt lat="43.80953189606457" lon="10.314574347428833"><ele>12.5</ele><time>2026-04-07T09:14:28Z</time></trkpt><trkpt lat="43.80921338635482" lon="10.314696342540685"><ele>14.0</ele><time>2026-04-07T09:14:29Z</time></trkpt><trkpt lat="43.80890068483722" lon="10.31481162155261"><ele>10.0</ele><time>2026-04-07T09:14:30Z</time></trkpt><trkpt lat="43.80858530674346" lon="10.314922730743616"><ele>6.0</ele><time>2026-04-07T09:14:31Z</time></trkpt><trkpt lat="43.808264421639095" lon="10.315040870554157"><ele>6.0</ele><time>2026-04-07T09:14:32Z</time></trkpt><trkpt lat="43.80794718284755" lon="10.315163544382145"><ele>6.0</ele><time>2026-04-07T09:14:33Z</time></trkpt><trkpt lat="43.807635083586476" lon="10.315282904192173"><ele>8.0</ele><time>2026-04-07T09:14:34Z</time></trkpt><trkpt lat="43.807331600354445" lon="10.315401825456172"><ele>10.0</ele><time>2026-04-07T09:14:35Z</time></trkpt><trkpt lat="43.80702231027794" lon="10.31552190553416"><ele>7.5</ele><time>2026-04-07T09:14:36Z</time></trkpt><trkpt lat="43.806711807591874" lon="10.315643826878677"><ele>5.0</ele><time>2026-04-07T09:14:37Z</time></trkpt><trkpt lat="43.80640114510737" lon="10.31575840127562"><ele>5.0</ele><time>2026-04-07T09:14:38Z</time></trkpt><trkpt lat="43.80609131198294" lon="10.315874822282161"><ele>5.0</ele><time>2026-04-07T09:14:39Z</time></trkpt><trkpt lat="43.805781009080484" lon="10.315995941593052"><ele>5.0</ele><time>2026-04-07T09:14:40Z</time></trkpt><trkpt lat="43.80546738446716" lon="10.316124849177383"><ele>5.0</ele><time>2026-04-07T09:14:41Z</time></trkpt><trkpt lat="43.805153887078724" lon="10.316252879981375"><ele>4.5</ele><time>2026-04-07T09:14:42Z</time></trkpt><trkpt lat="43.80484009834609" lon="10.316382544489512"><ele>4.0</ele><time>2026-04-07T09:14:43Z</time></trkpt><trkpt lat="43.80451323404149" lon="10.316508893601435"><ele>4.0</ele><time>2026-04-07T09:14:44Z</time></trkpt><trkpt lat="43.80417894018885" lon="10.316638155834802"><ele>4.0</ele><time>2026-04-07T09:14:45Z</time></trkpt><trkpt lat="43.80384005835605" lon="10.316770297737788"><ele>4.0</ele><time>2026-04-07T09:14:46Z</time></trkpt><trkpt lat="43.80351722507159" lon="10.3168920390459"><ele>4.0</ele><time>2026-04-07T09:14:47Z</time></trkpt><trkpt lat="43.803217574886915" lon="10.317007189508747"><ele>4.5</ele><time>2026-04-07T09:14:48Z</time></trkpt><trkpt lat="43.80292967291404" lon="10.317113235949648"><ele>5.0</ele><time>2026-04-07T09:14:49Z</time></trkpt><trkpt lat="43.80264414674534" lon="10.317218239843422"><ele>3.0</ele><time>2026-04-07T09:14:50Z</time></trkpt><trkpt lat="43.8023487460892" lon="10.317329309458218"><ele>1.0</ele><time>2026-04-07T09:14:51Z</time></trkpt><trkpt lat="43.80205110038322" lon="10.317437901595818"><ele>2.0</ele><time>2026-04-07T09:14:52Z</time></trkpt><trkpt lat="43.8017495339311" lon="10.317544015406423"><ele>3.0</ele><time>2026-04-07T09:14:53Z</time></trkpt><trkpt lat="43.80145204572956" lon="10.317661926014663"><ele>3.0</ele><time>2026-04-07T09:14:54Z</time></trkpt><trkpt lat="43.80115298801861" lon="10.317779454023931"><ele>3.0</ele><time>2026-04-07T09:14:55Z</time></trkpt><trkpt lat="43.8008525203862" lon="10.317897568525597"><ele>4.5</ele><time>2026-04-07T09:14:56Z</time></trkpt><trkpt lat="43.80054587378555" lon="10.3180111863917"><ele>6.0</ele><time>2026-04-07T09:14:57Z</time></trkpt><trkpt lat="43.80023807181622" lon="10.318127009472938"><ele>3.0</ele><time>2026-04-07T09:14:58Z</time></trkpt><trkpt lat="43.79992991383831" lon="10.318245446821493"><ele>0.0</ele><time>2026-04-07T09:14:59Z</time></trkpt><trkpt lat="43.79962034864919" lon="10.318365330123566"><ele>2.5</ele><time>2026-04-07T09:15:00Z</time></trkpt><trkpt lat="43.799311871526804" lon="10.318481646323443"><ele>5.0</ele><time>2026-04-07T09:15:01Z</time></trkpt><trkpt lat="43.79900416282561" lon="10.318598108930729"><ele>5.0</ele><time>2026-04-07T09:15:02Z</time></trkpt><trkpt lat="43.79869314205659" lon="10.318710873078814"><ele>5.0</ele><time>2026-04-07T09:15:03Z</time></trkpt><trkpt lat="43.79838396175117" lon="10.318827921824699"><ele>2.5</ele><time>2026-04-07T09:15:04Z</time></trkpt><trkpt lat="43.79807744077491" lon="10.318949868993645"><ele>0.0</ele><time>2026-04-07T09:15:05Z</time></trkpt><trkpt lat="43.79776953397683" lon="10.319073750340767"><ele>1.5</ele><time>2026-04-07T09:15:06Z</time></trkpt><trkpt lat="43.79745924332266" lon="10.31919559230638"><ele>3.0</ele><time>2026-04-07T09:15:07Z</time></trkpt><trkpt lat="43.79714998698671" lon="10.319312486346796"><ele>3.0</ele><time>2026-04-07T09:15:08Z</time></trkpt><trkpt lat="43.796841439321334" lon="10.319428097429375"><ele>3.0</ele><time>2026-04-07T09:15:09Z</time></trkpt><trkpt lat="43.796532769515835" lon="10.319542361854252"><ele>3.5</ele><time>2026-04-07T09:15:10Z</time></trkpt><trkpt lat="43.796224535048154" lon="10.319660046975104"><ele>4.0</ele><time>2026-04-07T09:15:10.999Z</time></trkpt><trkpt lat="43.79591589849569" lon="10.319775792802028"><ele>1.0</ele><time>2026-04-07T09:15:11.999Z</time></trkpt><trkpt lat="43.79560553095545" lon="10.31989263582463"><ele>-2.0</ele><time>2026-04-07T09:15:12.999Z</time></trkpt><trkpt lat="43.7952955751763" lon="10.320009733053839"><ele>-0.5</ele><time>2026-04-07T09:15:13.999Z</time></trkpt><trkpt lat="43.794992223890496" lon="10.320131002982503"><ele>1.0</ele><time>2026-04-07T09:15:14.999Z</time></trkpt><trkpt lat="43.7946833553186" lon="10.320251004818216"><ele>1.0</ele><time>2026-04-07T09:15:15.999Z</time></trkpt><trkpt lat="43.794372747850616" lon="10.320366302645589"><ele>1.0</ele><time>2026-04-07T09:15:16.999Z</time></trkpt><trkpt lat="43.79406939943679" lon="10.320482535104535"><ele>1.0</ele><time>2026-04-07T09:15:17.999Z</time></trkpt><trkpt lat="43.79376558308714" lon="10.320592631281155"><ele>1.0</ele><time>2026-04-07T09:15:18.999Z</time></trkpt><trkpt lat="43.79346374338964" lon="10.320706978257338"><ele>1.0</ele><time>2026-04-07T09:15:19.999Z</time></trkpt><trkpt lat="43.7931625480462" lon="10.320823561753565"><ele>1.0</ele><time>2026-04-07T09:15:20.999Z</time></trkpt><trkpt lat="43.792866160840646" lon="10.320949709467028"><ele>3.0</ele><time>2026-04-07T09:15:21.999Z</time></trkpt><trkpt lat="43.792571653462865" lon="10.32108385066558"><ele>5.0</ele><time>2026-04-07T09:15:22.999Z</time></trkpt><trkpt lat="43.7922800878372" lon="10.321223554120992"><ele>5.0</ele><time>2026-04-07T09:15:23.999Z</time></trkpt><trkpt lat="43.79198828308645" lon="10.321367579972682"><ele>5.0</ele><time>2026-04-07T09:15:24.999Z</time></trkpt><trkpt lat="43.791699392845544" lon="10.321509017463374"><ele>3.0</ele><time>2026-04-07T09:15:25.999Z</time></trkpt><trkpt lat="43.79140973443306" lon="10.321650569063012"><ele>1.0</ele><time>2026-04-07T09:15:26.999Z</time></trkpt><trkpt lat="43.79111886104444" lon="10.321794081209255"><ele>1.5</ele><time>2026-04-07T09:15:27.999Z</time></trkpt><trkpt lat="43.79082868259638" lon="10.321939585357786"><ele>2.0</ele><time>2026-04-07T09:15:28.999Z</time></trkpt><trkpt lat="43.790540509315036" lon="10.322094414108943"><ele>0.0</ele><time>2026-04-07T09:15:29.999Z</time></trkpt><trkpt lat="43.790261267723785" lon="10.32226464927906"><ele>-2.0</ele><time>2026-04-07T09:15:30.999Z</time></trkpt><trkpt lat="43.78998310826806" lon="10.322437459386709"><ele>-2.0</ele><time>2026-04-07T09:15:31.999Z</time></trkpt><trkpt lat="43.789705620385924" lon="10.322616361098316"><ele>-2.0</ele><time>2026-04-07T09:15:32.999Z</time></trkpt><trkpt lat="43.78942994683337" lon="10.32279869300511"><ele>-1.5</ele><time>2026-04-07T09:15:33.999Z</time></trkpt><trkpt lat="43.78915801373627" lon="10.322984985924593"><ele>-1.0</ele><time>2026-04-07T09:15:34.999Z</time></trkpt><trkpt lat="43.788882394965604" lon="10.323172141292975"><ele>-1.0</ele><time>2026-04-07T09:15:35.999Z</time></trkpt><trkpt lat="43.788608897046984" lon="10.32336618753249"><ele>-1.0</ele><time>2026-04-07T09:15:36.999Z</time></trkpt><trkpt lat="43.78833892916176" lon="10.323564815879731"><ele>-1.0</ele><time>2026-04-07T09:15:37.999Z</time></trkpt><trkpt lat="43.78806860077074" lon="10.323766669468847"><ele>-1.0</ele><time>2026-04-07T09:15:38.999Z</time></trkpt><trkpt lat="43.787799003133216" lon="10.323974248763282"><ele>-1.0</ele><time>2026-04-07T09:15:39.999Z</time></trkpt><trkpt lat="43.787537095523824" lon="10.324188093924757"><ele>-1.0</ele><time>2026-04-07T09:15:40.999Z</time></trkpt><trkpt lat="43.78727546111978" lon="10.324405914287466"><ele>-1.0</ele><time>2026-04-07T09:15:41.999Z</time></trkpt><trkpt lat="43.78701593388165" lon="10.324628876595222"><ele>-1.0</ele><time>2026-04-07T09:15:42.999Z</time></trkpt><trkpt lat="43.786758244161874" lon="10.324856087615059"><ele>-2.5</ele><time>2026-04-07T09:15:43.999Z</time></trkpt><trkpt lat="43.78650478634255" lon="10.32508480104907"><ele>-4.0</ele><time>2026-04-07T09:15:44.999Z</time></trkpt><trkpt lat="43.786251686116806" lon="10.325314425483795"><ele>-3.0</ele><time>2026-04-07T09:15:45.999Z</time></trkpt><trkpt lat="43.786001767959974" lon="10.325550817188713"><ele>-2.0</ele><time>2026-04-07T09:15:46.999Z</time></trkpt><trkpt lat="43.78575389607543" lon="10.325789134910146"><ele>-2.0</ele><time>2026-04-07T09:15:47.999Z</time></trkpt><trkpt lat="43.78550794953163" lon="10.326030554518633"><ele>-2.0</ele><time>2026-04-07T09:15:48.999Z</time></trkpt><trkpt lat="43.78526480267683" lon="10.326276605998462"><ele>-3.0</ele><time>2026-04-07T09:15:49.999Z</time></trkpt><trkpt lat="43.785021876038286" lon="10.3265280632619"><ele>-4.0</ele><time>2026-04-07T09:15:50.999Z</time></trkpt><trkpt lat="43.78478262678247" lon="10.326784681086892"><ele>-4.0</ele><time>2026-04-07T09:15:51.999Z</time></trkpt><trkpt lat="43.784549745184634" lon="10.32704693227085"><ele>-4.0</ele><time>2026-04-07T09:15:52.999Z</time></trkpt><trkpt lat="43.784315932623194" lon="10.327311815939614"><ele>-3.5</ele><time>2026-04-07T09:15:53.999Z</time></trkpt><trkpt lat="43.78408432790797" lon="10.32758153953167"><ele>-3.0</ele><time>2026-04-07T09:15:54.999Z</time></trkpt><trkpt lat="43.78385237514263" lon="10.3278511001505"><ele>-3.0</ele><time>2026-04-07T09:15:55.999Z</time></trkpt><trkpt lat="43.78362364891338" lon="10.328121666333013"><ele>-3.0</ele><time>2026-04-07T09:15:56.999Z</time></trkpt><trkpt lat="43.78340038536195" lon="10.328401851138773"><ele>-3.0</ele><time>2026-04-07T09:15:57.999Z</time></trkpt><trkpt lat="43.78317461421337" lon="10.328688833860063"><ele>-3.0</ele><time>2026-04-07T09:15:58.999Z</time></trkpt><trkpt lat="43.78295400835492" lon="10.328977570097683"><ele>-3.0</ele><time>2026-04-07T09:15:59.999Z</time></trkpt><trkpt lat="43.78273749365361" lon="10.3292701082448"><ele>-3.0</ele><time>2026-04-07T09:16:00.999Z</time></trkpt><trkpt lat="43.78252276041408" lon="10.329565427160407"><ele>-3.0</ele><time>2026-04-07T09:16:01.999Z</time></trkpt><trkpt lat="43.782307452533075" lon="10.329863647068738"><ele>-3.0</ele><time>2026-04-07T09:16:02.999Z</time></trkpt><trkpt lat="43.78209329372056" lon="10.330165226574772"><ele>-3.0</ele><time>2026-04-07T09:16:03.999Z</time></trkpt><trkpt lat="43.78187957443373" lon="10.33047243324848"><ele>-3.0</ele><time>2026-04-07T09:16:04.999Z</time></trkpt><trkpt lat="43.7816685699703" lon="10.330788394736313"><ele>-2.5</ele><time>2026-04-07T09:16:05.999Z</time></trkpt><trkpt lat="43.78146019254512" lon="10.331109315757187"><ele>-2.0</ele><time>2026-04-07T09:16:06.999Z</time></trkpt><trkpt lat="43.78125454587914" lon="10.331434457580096"><ele>-2.0</ele><time>2026-04-07T09:16:07.999Z</time></trkpt><trkpt lat="43.78105308314171" lon="10.331760795653375"><ele>-2.0</ele><time>2026-04-07T09:16:08.999Z</time></trkpt><trkpt lat="43.7808524150499" lon="10.332086479511236"><ele>-0.5</ele><time>2026-04-07T09:16:10Z</time></trkpt><trkpt lat="43.780651995838674" lon="10.332408720094465"><ele>1.0</ele><time>2026-04-07T09:16:11Z</time></trkpt><trkpt lat="43.78044654274749" lon="10.332729251859313"><ele>1.0</ele><time>2026-04-07T09:16:12Z</time></trkpt><trkpt lat="43.780240203205445" lon="10.333048037491222"><ele>1.0</ele><time>2026-04-07T09:16:13Z</time></trkpt><trkpt lat="43.78003631674559" lon="10.333366276977907"><ele>1.0</ele><time>2026-04-07T09:16:14Z</time></trkpt><trkpt lat="43.77984995168823" lon="10.333670480241656"><ele>1.0</ele><time>2026-04-07T09:16:15Z</time></trkpt><trkpt lat="43.77967366589819" lon="10.333950384026695"><ele>0.5</ele><time>2026-04-07T09:16:16Z</time></trkpt><trkpt lat="43.77949207953495" lon="10.334234829188164"><ele>0.0</ele><time>2026-04-07T09:16:17Z</time></trkpt><trkpt lat="43.779312007060085" lon="10.33452259461679"><ele>0.0</ele><time>2026-04-07T09:16:18Z</time></trkpt><trkpt lat="43.77913371858734" lon="10.334809378117495"><ele>0.0</ele><time>2026-04-07T09:16:19Z</time></trkpt><trkpt lat="43.77895471567055" lon="10.335096377639521"><ele>0.0</ele><time>2026-04-07T09:16:20Z</time></trkpt><trkpt lat="43.778775463124994" lon="10.335386350091756"><ele>0.0</ele><time>2026-04-07T09:16:21Z</time></trkpt><trkpt lat="43.7786126482375" lon="10.335653108845307"><ele>0.0</ele><time>2026-04-07T09:16:22Z</time></trkpt><trkpt lat="43.778445545406115" lon="10.335912434864458"><ele>0.0</ele><time>2026-04-07T09:16:23Z</time></trkpt><trkpt lat="43.77827322763424" lon="10.336181472314943"><ele>-0.5</ele><time>2026-04-07T09:16:24Z</time></trkpt><trkpt lat="43.778099114765304" lon="10.336455394933383"><ele>-1.0</ele><time>2026-04-07T09:16:25Z</time></trkpt><trkpt lat="43.777936082921855" lon="10.336722388313941"><ele>-1.0</ele><time>2026-04-07T09:16:26Z</time></trkpt><trkpt lat="43.77777910044502" lon="10.336973455071877"><ele>-1.0</ele><time>2026-04-07T09:16:27Z</time></trkpt><trkpt lat="43.777610363052275" lon="10.337239262412972"><ele>0.0</ele><time>2026-04-07T09:16:28Z</time></trkpt><trkpt lat="43.77743623109204" lon="10.337513651111168"><ele>1.0</ele><time>2026-04-07T09:16:29Z</time></trkpt><trkpt lat="43.77726663584598" lon="10.337783324274291"><ele>1.0</ele><time>2026-04-07T09:16:30Z</time></trkpt><trkpt lat="43.77710698909507" lon="10.338038265954562"><ele>1.0</ele><time>2026-04-07T09:16:31Z</time></trkpt><trkpt lat="43.77695715231144" lon="10.338272183891464"><ele>0.0</ele><time>2026-04-07T09:16:32Z</time></trkpt><trkpt lat="43.77680439186022" lon="10.33850267784093"><ele>-1.0</ele><time>2026-04-07T09:16:33Z</time></trkpt><trkpt lat="43.77663899910436" lon="10.33875759205742"><ele>-1.0</ele><time>2026-04-07T09:16:34Z</time></trkpt><trkpt lat="43.77648444098871" lon="10.339005954074505"><ele>-1.0</ele><time>2026-04-07T09:16:35Z</time></trkpt><trkpt lat="43.776322906636665" lon="10.339260877495779"><ele>-1.0</ele><time>2026-04-07T09:16:36Z</time></trkpt><trkpt lat="43.77615857552092" lon="10.33952026149532"><ele>-1.0</ele><time>2026-04-07T09:16:37Z</time></trkpt><trkpt lat="43.77600589257402" lon="10.339761690983714"><ele>-0.6666666666666666</ele><time>2026-04-07T09:16:38Z</time></trkpt><trkpt lat="43.775863055397" lon="10.33998475615155"><ele>-0.3333333333333333</ele><time>2026-04-07T09:16:39Z</time></trkpt><trkpt lat="43.77572575631996" lon="10.340195818115738"><ele>0.0</ele><time>2026-04-07T09:16:40Z</time></trkpt><trkpt lat="43.7755967937923" lon="10.34039197278011"><ele>0.6666666666666666</ele><time>2026-04-07T09:16:41Z</time></trkpt><trkpt lat="43.77547255526416" lon="10.340581784395994"><ele>1.3333333333333333</ele><time>2026-04-07T09:16:42Z</time></trkpt><trkpt lat="43.77535679047022" lon="10.3407525781415"><ele>2.0</ele><time>2026-04-07T09:16:43Z</time></trkpt><trkpt lat="43.77523662038385" lon="10.34090989647263"><ele>1.6666666666666665</ele><time>2026-04-07T09:16:44Z</time></trkpt><trkpt lat="43.77511360624923" lon="10.341034249436364"><ele>1.3333333333333333</ele><time>2026-04-07T09:16:45Z</time></trkpt><trkpt lat="43.77497644936553" lon="10.34113883540688"><ele>1.0</ele><time>2026-04-07T09:16:46Z</time></trkpt><trkpt lat="43.77483006711746" lon="10.34121093760504"><ele>1.0</ele><time>2026-04-07T09:16:47Z</time></trkpt><trkpt lat="43.774692731816266" lon="10.34123561543531"><ele>1.0</ele><time>2026-04-07T09:16:48Z</time></trkpt><trkpt lat="43.77456520896728" lon="10.341215389500952"><ele>1.0</ele><time>2026-04-07T09:16:49Z</time></trkpt><trkpt lat="43.77444422933883" lon="10.341153319591704"><ele>1.0</ele><time>2026-04-07T09:16:50Z</time></trkpt><trkpt lat="43.774339683829155" lon="10.34105644235788"><ele>1.0</ele><time>2026-04-07T09:16:51Z</time></trkpt><trkpt lat="43.774264966782766" lon="10.340938756360552"><ele>1.0</ele><time>2026-04-07T09:16:52Z</time></trkpt><trkpt lat="43.7742165775635" lon="10.340794437256319"><ele>1.0</ele><time>2026-04-07T09:16:53Z</time></trkpt><trkpt lat="43.77419074702873" lon="10.34062779244536"><ele>1.0</ele><time>2026-04-07T09:16:54Z</time></trkpt><trkpt lat="43.77419265462948" lon="10.34045688209387"><ele>1.0</ele><time>2026-04-07T09:16:55Z</time></trkpt><trkpt lat="43.77421740777514" lon="10.34031941418696"><ele>1.0</ele><time>2026-04-07T09:16:56Z</time></trkpt><trkpt lat="43.774270352661546" lon="10.340176114032401"><ele>1.0</ele><time>2026-04-07T09:16:57Z</time></trkpt><trkpt lat="43.77434925267032" lon="10.340047631518027"><ele>1.0</ele><time>2026-04-07T09:16:58Z</time></trkpt><trkpt lat="43.77444733111921" lon="10.339955780262525"><ele>1.0</ele><time>2026-04-07T09:16:59Z</time></trkpt><trkpt lat="43.774552583399256" lon="10.339912521313892"><ele>1.0</ele><time>2026-04-07T09:17:00Z</time></trkpt><trkpt lat="43.774669109325224" lon="10.339905249717294"><ele>1.0</ele><time>2026-04-07T09:17:01Z</time></trkpt><trkpt lat="43.77479178046612" lon="10.339925172832247"><ele>1.0</ele><time>2026-04-07T09:17:02Z</time></trkpt><trkpt lat="43.77491499409161" lon="10.340002862138286"><ele>1.0</ele><time>2026-04-07T09:17:03Z</time></trkpt><trkpt lat="43.775032748558516" lon="10.340119379113265"><ele>1.0</ele><time>2026-04-07T09:17:04Z</time></trkpt><trkpt lat="43.7751511382513" lon="10.340266809091132"><ele>1.0</ele><time>2026-04-07T09:17:05Z</time></trkpt><trkpt lat="43.775269326922896" lon="10.340399543190683"><ele>0.6666666666666666</ele><time>2026-04-07T09:17:06Z</time></trkpt><trkpt lat="43.77538705783763" lon="10.340546129160344"><ele>0.3333333333333333</ele><time>2026-04-07T09:17:07Z</time></trkpt><trkpt lat="43.77549958039031" lon="10.340702666152845"><ele>0.0</ele><time>2026-04-07T09:17:08Z</time></trkpt><trkpt lat="43.775606757529374" lon="10.340853044596132"><ele>1.0</ele><time>2026-04-07T09:17:09Z</time></trkpt><trkpt lat="43.775830770887595" lon="10.341078248800654"><ele>2.0</ele><time>2026-04-07T09:17:10Z</time></trkpt><trkpt lat="43.775985686190225" lon="10.34127330059046"><ele>1.0</ele><time>2026-04-07T09:17:11Z</time></trkpt><trkpt lat="43.77611848001629" lon="10.34144943562109"><ele>0.0</ele><time>2026-04-07T09:17:12Z</time></trkpt><trkpt lat="43.77625409347698" lon="10.341605031976684"><ele>-1.0</ele><time>2026-04-07T09:17:13Z</time></trkpt><trkpt lat="43.776387711816966" lon="10.341717743676307"><ele>-1.0</ele><time>2026-04-07T09:17:14Z</time></trkpt><trkpt lat="43.77651734044489" lon="10.341771106396521"><ele>-1.0</ele><time>2026-04-07T09:17:15Z</time></trkpt><trkpt lat="43.77665329090376" lon="10.341784852540092"><ele>-1.0</ele><time>2026-04-07T09:17:16Z</time></trkpt><trkpt lat="43.77678643945464" lon="10.341752557390654"><ele>-1.0</ele><time>2026-04-07T09:17:17Z</time></trkpt><trkpt lat="43.77693161189372" lon="10.341703266681067"><ele>-0.6666666666666666</ele><time>2026-04-07T09:17:18Z</time></trkpt><trkpt lat="43.777082716139944" lon="10.341620790665708"><ele>-0.3333333333333333</ele><time>2026-04-07T09:17:18.999Z</time></trkpt><trkpt lat="43.77723412094984" lon="10.341501449504399"><ele>0.0</ele><time>2026-04-07T09:17:19.999Z</time></trkpt><trkpt lat="43.77736924595364" lon="10.341347870649896"><ele>0.6666666666666666</ele><time>2026-04-07T09:17:20.999Z</time></trkpt><trkpt lat="43.77749766706994" lon="10.341165228606624"><ele>1.3333333333333333</ele><time>2026-04-07T09:17:21.999Z</time></trkpt><trkpt lat="43.77763017610973" lon="10.340950817329457"><ele>2.0</ele><time>2026-04-07T09:17:22.999Z</time></trkpt><trkpt lat="43.777760187224715" lon="10.340752829045284"><ele>1.3333333333333333</ele><time>2026-04-07T09:17:23.999Z</time></trkpt><trkpt lat="43.77789015213809" lon="10.340543741539411"><ele>0.6666666666666666</ele><time>2026-04-07T09:17:24.999Z</time></trkpt><trkpt lat="43.778027146298825" lon="10.340334214315032"><ele>0.0</ele><time>2026-04-07T09:17:25.999Z</time></trkpt><trkpt lat="43.77816920647406" lon="10.340118100844283"><ele>0.0</ele><time>2026-04-07T09:17:26.999Z</time></trkpt><trkpt lat="43.778323709430175" lon="10.339894340162475"><ele>0.0</ele><time>2026-04-07T09:17:27.999Z</time></trkpt><trkpt lat="43.778483211004676" lon="10.339662089869067"><ele>0.0</ele><time>2026-04-07T09:17:28.999Z</time></trkpt><trkpt lat="43.77865307390511" lon="10.339415255936139"><ele>0.0</ele><time>2026-04-07T09:17:29.999Z</time></trkpt><trkpt lat="43.778830268664386" lon="10.339163255415404"><ele>0.0</ele><time>2026-04-07T09:17:30.999Z</time></trkpt><trkpt lat="43.779013602893045" lon="10.338900340422063"><ele>0.0</ele><time>2026-04-07T09:17:31.999Z</time></trkpt><trkpt lat="43.779183510283325" lon="10.33865090079599"><ele>1.5</ele><time>2026-04-07T09:17:32.999Z</time></trkpt><trkpt lat="43.779354367580005" lon="10.33841029196972"><ele>3.0</ele><time>2026-04-07T09:17:33.999Z</time></trkpt><trkpt lat="43.779526595276245" lon="10.338169320414575"><ele>3.5</ele><time>2026-04-07T09:17:34.999Z</time></trkpt><trkpt lat="43.779698593264655" lon="10.337929308853663"><ele>4.0</ele><time>2026-04-07T09:17:35.999Z</time></trkpt><trkpt lat="43.77985311409977" lon="10.337712797939913"><ele>4.0</ele><time>2026-04-07T09:17:36.999Z</time></trkpt><trkpt lat="43.77999963258663" lon="10.337507158062767"><ele>4.0</ele><time>2026-04-07T09:17:37.999Z</time></trkpt><trkpt lat="43.78014147514326" lon="10.337303120553125"><ele>4.0</ele><time>2026-04-07T09:17:38.999Z</time></trkpt><trkpt lat="43.78027778625105" lon="10.337111371005221"><ele>2.333333333333333</ele><time>2026-04-07T09:17:39.999Z</time></trkpt><trkpt lat="43.780402953406686" lon="10.336940366339626"><ele>0.6666666666666666</ele><time>2026-04-07T09:17:40.999Z</time></trkpt><trkpt lat="43.78051668511051" lon="10.33677915508154"><ele>-1.0</ele><time>2026-04-07T09:17:41.999Z</time></trkpt><trkpt lat="43.78062273442053" lon="10.336627064753156"><ele>-1.0</ele><time>2026-04-07T09:17:42.999Z</time></trkpt><trkpt lat="43.780724169344865" lon="10.336480844615835"><ele>-1.0</ele><time>2026-04-07T09:17:43.999Z</time></trkpt><trkpt lat="43.78080401656386" lon="10.336347883489799"><ele>-1.0</ele><time>2026-04-07T09:17:44.999Z</time></trkpt><trkpt lat="43.78086569151688" lon="10.336205295732125"><ele>-1.0</ele><time>2026-04-07T09:17:45.999Z</time></trkpt><trkpt lat="43.78089407392564" lon="10.336050864962566"><ele>-1.0</ele><time>2026-04-07T09:17:46.999Z</time></trkpt><trkpt lat="43.78089690885915" lon="10.335889880965892"><ele>-1.0</ele><time>2026-04-07T09:17:47.999Z</time></trkpt><trkpt lat="43.78087230939488" lon="10.335724768955918"><ele>-1.0</ele><time>2026-04-07T09:17:48.999Z</time></trkpt><trkpt lat="43.78081918166233" lon="10.33556836227379"><ele>-1.0</ele><time>2026-04-07T09:17:49.999Z</time></trkpt><trkpt lat="43.780740492978865" lon="10.335424984710283"><ele>-1.0</ele><time>2026-04-07T09:17:50.999Z</time></trkpt><trkpt lat="43.780634982835934" lon="10.335318846006976"><ele>-1.0</ele><time>2026-04-07T09:17:51.999Z</time></trkpt><trkpt lat="43.780522712896385" lon="10.335246032625054"><ele>-1.0</ele><time>2026-04-07T09:17:52.999Z</time></trkpt><trkpt lat="43.78040809894671" lon="10.335222738886308"><ele>-1.0</ele><time>2026-04-07T09:17:53.999Z</time></trkpt><trkpt lat="43.7802977593819" lon="10.335234589402114"><ele>-1.0</ele><time>2026-04-07T09:17:54.999Z</time></trkpt><trkpt lat="43.780184646517824" lon="10.335285299826175"><ele>-1.0</ele><time>2026-04-07T09:17:55.999Z</time></trkpt><trkpt lat="43.780052111276895" lon="10.335350111997766"><ele>-1.0</ele><time>2026-04-07T09:17:56.999Z</time></trkpt><trkpt lat="43.77992200824089" lon="10.335442018356657"><ele>-1.0</ele><time>2026-04-07T09:17:57.999Z</time></trkpt><trkpt lat="43.779813076391605" lon="10.335513786128834"><ele>-1.2000000000000002</ele><time>2026-04-07T09:17:58.999Z</time></trkpt><trkpt lat="43.7797110410313" lon="10.33555217705039"><ele>-1.4000000000000001</ele><time>2026-04-07T09:17:59.999Z</time></trkpt><trkpt lat="43.77962180873944" lon="10.335549380751324"><ele>-1.6</ele><time>2026-04-07T09:18:00.999Z</time></trkpt><trkpt lat="43.77953763292785" lon="10.335515715020108"><ele>-1.8</ele><time>2026-04-07T09:18:01.999Z</time></trkpt><trkpt lat="43.77945524095974" lon="10.335460940747167"><ele>-2.0</ele><time>2026-04-07T09:18:02.999Z</time></trkpt><trkpt lat="43.779376859613315" lon="10.335403717049786"><ele>-1.6666666666666665</ele><time>2026-04-07T09:18:03.999Z</time></trkpt><trkpt lat="43.77928685961465" lon="10.335369169549997"><ele>-1.3333333333333333</ele><time>2026-04-07T09:18:04.999Z</time></trkpt><trkpt lat="43.77920434398022" lon="10.335334547653897"><ele>-1.0</ele><time>2026-04-07T09:18:05.999Z</time></trkpt><trkpt lat="43.779165488040846" lon="10.335229273603115"><ele>-0.6666666666666666</ele><time>2026-04-07T09:18:06.999Z</time></trkpt><trkpt lat="43.77910275525159" lon="10.335140974883599"><ele>-0.3333333333333333</ele><time>2026-04-07T09:18:08.999Z</time></trkpt><trkpt lat="43.779050249286385" lon="10.335084165280279"><ele>0.0</ele><time>2026-04-07T09:18:28Z</time></trkpt><trkpt lat="43.778978104825214" lon="10.334969137352147"><ele>0.0</ele><time>2026-04-07T09:19:42.999Z</time></trkpt><trkpt lat="43.778903485018795" lon="10.334924679897092"><ele>0.0</ele><time>2026-04-07T09:19:43.999Z</time></trkpt><trkpt lat="43.77883894645483" lon="10.334854985248116"><ele>0.0</ele><time>2026-04-07T09:19:44.999Z</time></trkpt><trkpt lat="43.778771186380254" lon="10.334785704886123"><ele>0.0</ele><time>2026-04-07T09:19:45.999Z</time></trkpt><trkpt lat="43.77871385495875" lon="10.33474050433559"><ele>0.0</ele><time>2026-04-07T09:19:46.999Z</time></trkpt><trkpt lat="43.778661909012015" lon="10.33465603662595"><ele>0.0</ele><time>2026-04-07T09:19:48.999Z</time></trkpt><trkpt lat="43.778604868699546" lon="10.334612364722174"><ele>0.0</ele><time>2026-04-07T10:05:05Z</time></trkpt><trkpt lat="43.77850907043682" lon="10.334545325828817"><ele>0.0</ele><time>2026-04-07T10:05:07Z</time></trkpt><trkpt lat="43.77845389740729" lon="10.334493295221575"><ele>0.0</ele><time>2026-04-07T10:05:08Z</time></trkpt><trkpt lat="43.77839074989867" lon="10.334427878569473"><ele>0.0</ele><time>2026-04-07T10:05:09Z</time></trkpt><trkpt lat="43.778318561713235" lon="10.334347605206014"><ele>0.0</ele><time>2026-04-07T10:05:10Z</time></trkpt><trkpt lat="43.77825134219335" lon="10.334258978820476"><ele>0.0</ele><time>2026-04-07T10:05:11Z</time></trkpt><trkpt lat="43.778178021031394" lon="10.334166458408898"><ele>0.0</ele><time>2026-04-07T10:05:12Z</time></trkpt><trkpt lat="43.77810078871982" lon="10.334067347871358"><ele>0.0</ele><time>2026-04-07T10:05:13Z</time></trkpt><trkpt lat="43.7780348899159" lon="10.333983556400236"><ele>0.0</ele><time>2026-04-07T10:05:14Z</time></trkpt><trkpt lat="43.777970511418616" lon="10.333899971287524"><ele>0.0</ele><time>2026-04-07T10:05:15Z</time></trkpt><trkpt lat="43.77790897824598" lon="10.333811154233796"><ele>0.0</ele><time>2026-04-07T10:05:16Z</time></trkpt><trkpt lat="43.77784401132173" lon="10.333727928849713"><ele>0.0</ele><time>2026-04-07T10:05:17Z</time></trkpt><trkpt lat="43.77777692637675" lon="10.333628888352782"><ele>0.0</ele><time>2026-04-07T10:05:18Z</time></trkpt><trkpt lat="43.777707628854714" lon="10.333503315282222"><ele>0.0</ele><time>2026-04-07T10:05:19Z</time></trkpt><trkpt lat="43.77764826007909" lon="10.3333842296712"><ele>0.0</ele><time>2026-04-07T10:05:20Z</time></trkpt><trkpt lat="43.77759565527495" lon="10.333274219982576"><ele>0.0</ele><time>2026-04-07T10:05:21Z</time></trkpt><trkpt lat="43.77754617065801" lon="10.333160813775107"><ele>-0.3333333333333333</ele><time>2026-04-07T10:05:22Z</time></trkpt><trkpt lat="43.77749244985692" lon="10.333040985150003"><ele>-0.6666666666666666</ele><time>2026-04-07T10:05:23Z</time></trkpt><trkpt lat="43.77744627411695" lon="10.332924988014163"><ele>-1.0</ele><time>2026-04-07T10:05:24Z</time></trkpt><trkpt lat="43.77741132911517" lon="10.332820768574559"><ele>-1.3333333333333333</ele><time>2026-04-07T10:05:25Z</time></trkpt><trkpt lat="43.777388101871836" lon="10.332719889139073"><ele>-1.6666666666666665</ele><time>2026-04-07T10:05:26Z</time></trkpt><trkpt lat="43.77738291423153" lon="10.332628143670446"><ele>-2.0</ele><time>2026-04-07T10:05:27Z</time></trkpt><trkpt lat="43.77738656027346" lon="10.3325311787172"><ele>-1.9999999999999998</ele><time>2026-04-07T10:05:28Z</time></trkpt><trkpt lat="43.777372552463" lon="10.332428724298026"><ele>-2.0</ele><time>2026-04-07T10:05:29Z</time></trkpt><trkpt lat="43.77733617352384" lon="10.332331030137524"><ele>-2.0</ele><time>2026-04-07T10:05:30Z</time></trkpt><trkpt lat="43.77728469291783" lon="10.33226932551429"><ele>-2.0</ele><time>2026-04-07T10:05:31Z</time></trkpt><trkpt lat="43.77722105659042" lon="10.332228013853001"><ele>-1.9999999999999998</ele><time>2026-04-07T10:05:32Z</time></trkpt><trkpt lat="43.777142580651876" lon="10.332215102063643"><ele>-2.0</ele><time>2026-04-07T10:05:33Z</time></trkpt><trkpt lat="43.777057632300995" lon="10.332204848073626"><ele>-2.2</ele><time>2026-04-07T10:05:34Z</time></trkpt><trkpt lat="43.77696641721827" lon="10.3322048551334"><ele>-2.4000000000000004</ele><time>2026-04-07T10:05:35Z</time></trkpt><trkpt lat="43.77687487261153" lon="10.332180879538951"><ele>-2.5999999999999996</ele><time>2026-04-07T10:05:36Z</time></trkpt><trkpt lat="43.77678360394133" lon="10.332129866652721"><ele>-2.8</ele><time>2026-04-07T10:05:37Z</time></trkpt><trkpt lat="43.776685960109326" lon="10.332069873639858"><ele>-3.0</ele><time>2026-04-07T10:05:38Z</time></trkpt><trkpt lat="43.776570781717496" lon="10.33202234405239"><ele>-2.1999999999999997</ele><time>2026-04-07T10:05:39Z</time></trkpt><trkpt lat="43.77645882864177" lon="10.332002354075323"><ele>-1.4</ele><time>2026-04-07T10:05:40Z</time></trkpt><trkpt lat="43.77635763617599" lon="10.332009639547882"><ele>-0.5999999999999999</ele><time>2026-04-07T10:05:41Z</time></trkpt><trkpt lat="43.7762712450099" lon="10.332048664303583"><ele>0.20000000000000007</ele><time>2026-04-07T10:05:42Z</time></trkpt><trkpt lat="43.77618575561963" lon="10.332123671049956"><ele>1.0</ele><time>2026-04-07T10:05:43Z</time></trkpt><trkpt lat="43.77608563765267" lon="10.332206511129213"><ele>0.0</ele><time>2026-04-07T10:05:44Z</time></trkpt><trkpt lat="43.77597076446663" lon="10.332298582950669"><ele>-1.0</ele><time>2026-04-07T10:05:45Z</time></trkpt><trkpt lat="43.7758586745644" lon="10.332387604183237"><ele>-2.0</ele><time>2026-04-07T10:05:46Z</time></trkpt><trkpt lat="43.77574314009426" lon="10.33247817296715"><ele>-3.0</ele><time>2026-04-07T10:05:47Z</time></trkpt><trkpt lat="43.775616046935234" lon="10.332574459141053"><ele>-3.0</ele><time>2026-04-07T10:05:48Z</time></trkpt><trkpt lat="43.77548066025134" lon="10.3326726468866"><ele>-3.0</ele><time>2026-04-07T10:05:49Z</time></trkpt><trkpt lat="43.775347058326965" lon="10.332769233477283"><ele>-3.0</ele><time>2026-04-07T10:05:50Z</time></trkpt><trkpt lat="43.77522213494177" lon="10.332863198056943"><ele>-3.0</ele><time>2026-04-07T10:05:51Z</time></trkpt><trkpt lat="43.77510020864958" lon="10.332957223647444"><ele>-2.5</ele><time>2026-04-07T10:05:52Z</time></trkpt><trkpt lat="43.77497703175024" lon="10.333057180491705"><ele>-2.0</ele><time>2026-04-07T10:05:53Z</time></trkpt><trkpt lat="43.774849676152236" lon="10.33315639175158"><ele>-1.5</ele><time>2026-04-07T10:05:54Z</time></trkpt><trkpt lat="43.77472102460245" lon="10.333257474937845"><ele>-1.0</ele><time>2026-04-07T10:05:55Z</time></trkpt><trkpt lat="43.774588891959326" lon="10.333360565834987"><ele>-1.0</ele><time>2026-04-07T10:05:56Z</time></trkpt><trkpt lat="43.774458663593016" lon="10.333463421054947"><ele>-1.0</ele><time>2026-04-07T10:05:57Z</time></trkpt><trkpt lat="43.77432048442527" lon="10.333575536782634"><ele>-1.0</ele><time>2026-04-07T10:05:58Z</time></trkpt><trkpt lat="43.77417424454571" lon="10.333694757052395"><ele>-1.0</ele><time>2026-04-07T10:05:59Z</time></trkpt><trkpt lat="43.774022132493954" lon="10.333817425910402"><ele>-1.0</ele><time>2026-04-07T10:06:00Z</time></trkpt><trkpt lat="43.77387544773532" lon="10.333931669038575"><ele>-1.0</ele><time>2026-04-07T10:06:01Z</time></trkpt><trkpt lat="43.773729579760165" lon="10.334046164708552"><ele>-1.0</ele><time>2026-04-07T10:06:02Z</time></trkpt><trkpt lat="43.7735822274527" lon="10.334161643313765"><ele>-1.0</ele><time>2026-04-07T10:06:03Z</time></trkpt><trkpt lat="43.77343074325823" lon="10.334282832573795"><ele>-1.0</ele><time>2026-04-07T10:06:04Z</time></trkpt><trkpt lat="43.77327586643516" lon="10.334404856457194"><ele>-0.6666666666666666</ele><time>2026-04-07T10:06:05Z</time></trkpt><trkpt lat="43.77312006202427" lon="10.334538175051057"><ele>-0.3333333333333333</ele><time>2026-04-07T10:06:06Z</time></trkpt><trkpt lat="43.77296214058567" lon="10.334667974467049"><ele>0.0</ele><time>2026-04-07T10:06:07Z</time></trkpt><trkpt lat="43.772807441944344" lon="10.334793994304365"><ele>-0.6666666666666666</ele><time>2026-04-07T10:06:08Z</time></trkpt><trkpt lat="43.77266539454164" lon="10.334908280129488"><ele>-1.3333333333333333</ele><time>2026-04-07T10:06:09Z</time></trkpt><trkpt lat="43.772528510736905" lon="10.335020678723424"><ele>-2.0</ele><time>2026-04-07T10:06:10Z</time></trkpt><trkpt lat="43.77240190490034" lon="10.335127018612386"><ele>-2.0</ele><time>2026-04-07T10:06:11Z</time></trkpt><trkpt lat="43.772268965021894" lon="10.335234710155978"><ele>-2.0</ele><time>2026-04-07T10:06:12Z</time></trkpt><trkpt lat="43.77212605249178" lon="10.335343282106004"><ele>-2.0</ele><time>2026-04-07T10:06:13Z</time></trkpt><trkpt lat="43.77199376438699" lon="10.33544994975214"><ele>-2.0</ele><time>2026-04-07T10:06:14Z</time></trkpt><trkpt lat="43.77186960848177" lon="10.335553111714404"><ele>-2.0</ele><time>2026-04-07T10:06:15Z</time></trkpt><trkpt lat="43.77175252589617" lon="10.335651587949563"><ele>-2.0</ele><time>2026-04-07T10:06:16Z</time></trkpt><trkpt lat="43.77163442666847" lon="10.335748640765857"><ele>-2.0</ele><time>2026-04-07T10:06:17.001Z</time></trkpt><trkpt lat="43.77151913604233" lon="10.335846165173237"><ele>-1.75</ele><time>2026-04-07T10:06:18.001Z</time></trkpt><trkpt lat="43.7714011813322" lon="10.335946095764731"><ele>-1.5</ele><time>2026-04-07T10:06:19.001Z</time></trkpt><trkpt lat="43.77128005239187" lon="10.336038802826147"><ele>-1.25</ele><time>2026-04-07T10:06:20.001Z</time></trkpt><trkpt lat="43.77115637490593" lon="10.336138199569856"><ele>-1.0</ele><time>2026-04-07T10:06:21.001Z</time></trkpt><trkpt lat="43.77102905200638" lon="10.336239138514891"><ele>-1.0</ele><time>2026-04-07T10:06:22.001Z</time></trkpt><trkpt lat="43.77089703078833" lon="10.336350763281924"><ele>-1.0</ele><time>2026-04-07T10:06:23.001Z</time></trkpt><trkpt lat="43.77076081952936" lon="10.336463104687601"><ele>-1.0</ele><time>2026-04-07T10:06:24.001Z</time></trkpt><trkpt lat="43.77062104147548" lon="10.336574894992253"><ele>-1.0</ele><time>2026-04-07T10:06:25.001Z</time></trkpt><trkpt lat="43.77047763637409" lon="10.336688257012266"><ele>-1.0</ele><time>2026-04-07T10:06:26.001Z</time></trkpt><trkpt lat="43.77033147630007" lon="10.336804442532129"><ele>-1.0</ele><time>2026-04-07T10:06:27.001Z</time></trkpt><trkpt lat="43.77018056156435" lon="10.336925555072947"><ele>-1.0</ele><time>2026-04-07T10:06:28.001Z</time></trkpt><trkpt lat="43.77002772783438" lon="10.337050359327995"><ele>-1.0</ele><time>2026-04-07T10:06:29.001Z</time></trkpt><trkpt lat="43.76988140078244" lon="10.337168364440846"><ele>-1.0</ele><time>2026-04-07T10:06:30.001Z</time></trkpt><trkpt lat="43.76973532895271" lon="10.337288734116573"><ele>-0.6666666666666666</ele><time>2026-04-07T10:06:31.001Z</time></trkpt><trkpt lat="43.769586674242305" lon="10.337408985331196"><ele>-0.3333333333333333</ele><time>2026-04-07T10:06:32.001Z</time></trkpt><trkpt lat="43.76943705889914" lon="10.337527202892609"><ele>0.0</ele><time>2026-04-07T10:06:33.001Z</time></trkpt><trkpt lat="43.76928523596107" lon="10.337647885700358"><ele>0.0</ele><time>2026-04-07T10:06:33.999Z</time></trkpt><trkpt lat="43.76913379491757" lon="10.337778131681798"><ele>0.0</ele><time>2026-04-07T10:06:34.999Z</time></trkpt><trkpt lat="43.76898136025919" lon="10.337905369173207"><ele>0.0</ele><time>2026-04-07T10:06:35.999Z</time></trkpt><trkpt lat="43.76882695269686" lon="10.338032462152785"><ele>-0.3333333333333333</ele><time>2026-04-07T10:06:36.999Z</time></trkpt><trkpt lat="43.768669687764" lon="10.338162873844142"><ele>-0.6666666666666666</ele><time>2026-04-07T10:06:37.999Z</time></trkpt><trkpt lat="43.76851056427659" lon="10.338292739981256"><ele>-1.0</ele><time>2026-04-07T10:06:38.999Z</time></trkpt><trkpt lat="43.7683479871479" lon="10.338424826431442"><ele>-0.3333333333333333</ele><time>2026-04-07T10:06:39.999Z</time></trkpt><trkpt lat="43.76818578137176" lon="10.338553652093232"><ele>0.3333333333333333</ele><time>2026-04-07T10:06:40.999Z</time></trkpt><trkpt lat="43.76802916745923" lon="10.338676388807084"><ele>1.0</ele><time>2026-04-07T10:06:41.999Z</time></trkpt><trkpt lat="43.767880292726495" lon="10.338797554275809"><ele>1.0</ele><time>2026-04-07T10:06:42.999Z</time></trkpt><trkpt lat="43.76772883379599" lon="10.338921093802963"><ele>1.0</ele><time>2026-04-07T10:06:43.999Z</time></trkpt><trkpt lat="43.767576691766905" lon="10.339043598890063"><ele>1.0</ele><time>2026-04-07T10:06:44.999Z</time></trkpt><trkpt lat="43.76742191498762" lon="10.33916815771834"><ele>1.0</ele><time>2026-04-07T10:06:45.999Z</time></trkpt><trkpt lat="43.767272998833164" lon="10.339288491773134"><ele>1.0</ele><time>2026-04-07T10:06:46.999Z</time></trkpt><trkpt lat="43.7671350338985" lon="10.339399272733841"><ele>1.0</ele><time>2026-04-07T10:06:47.999Z</time></trkpt><trkpt lat="43.76700431038859" lon="10.339499454729268"><ele>1.0</ele><time>2026-04-07T10:06:48.999Z</time></trkpt><trkpt lat="43.76688291850164" lon="10.339593542342357"><ele>1.0</ele><time>2026-04-07T10:06:49.999Z</time></trkpt><trkpt lat="43.76676975144361" lon="10.339687095263038"><ele>1.0</ele><time>2026-04-07T10:06:50.999Z</time></trkpt><trkpt lat="43.76665421903202" lon="10.339784250969576"><ele>1.0</ele><time>2026-04-07T10:06:51.999Z</time></trkpt><trkpt lat="43.766534467793775" lon="10.339880788104255"><ele>1.0</ele><time>2026-04-07T10:06:52.999Z</time></trkpt><trkpt lat="43.76641394302582" lon="10.339976013956136"><ele>1.0</ele><time>2026-04-07T10:06:53.999Z</time></trkpt><trkpt lat="43.76630482649823" lon="10.340067760619412"><ele>1.0</ele><time>2026-04-07T10:06:54.999Z</time></trkpt><trkpt lat="43.76620099448759" lon="10.340153319489337"><ele>1.0</ele><time>2026-04-07T10:06:55.999Z</time></trkpt><trkpt lat="43.76610608215094" lon="10.340235982751421"><ele>1.0</ele><time>2026-04-07T10:06:56.999Z</time></trkpt><trkpt lat="43.76601678826931" lon="10.340306841304807"><ele>1.0</ele><time>2026-04-07T10:06:57.999Z</time></trkpt><trkpt lat="43.76593291464365" lon="10.340374530412717"><ele>1.0</ele><time>2026-04-07T10:06:59Z</time></trkpt><trkpt lat="43.76585161500497" lon="10.34044418055248"><ele>1.0</ele><time>2026-04-07T10:07:00Z</time></trkpt><trkpt lat="43.765760974833825" lon="10.340519573904842"><ele>1.0</ele><time>2026-04-07T10:07:01Z</time></trkpt><trkpt lat="43.76567280419664" lon="10.340603795071917"><ele>1.1666666666666665</ele><time>2026-04-07T10:07:02Z</time></trkpt><trkpt lat="43.7655924741464" lon="10.34068434313186"><ele>1.3333333333333333</ele><time>2026-04-07T10:07:03Z</time></trkpt><trkpt lat="43.765525221272355" lon="10.340751789278604"><ele>1.5</ele><time>2026-04-07T10:07:04Z</time></trkpt><trkpt lat="43.76547125387998" lon="10.340805558376958"><ele>1.6666666666666665</ele><time>2026-04-07T10:07:05Z</time></trkpt><trkpt lat="43.7654191755598" lon="10.340858461470077"><ele>1.8333333333333333</ele><time>2026-04-07T10:07:06Z</time></trkpt><trkpt lat="43.76536345466629" lon="10.34092574847324"><ele>2.0</ele><time>2026-04-07T10:07:08Z</time></trkpt><trkpt lat="43.76531491636641" lon="10.341020645948882"><ele>1.9999999999999998</ele><time>2026-04-07T10:08:18.001Z</time></trkpt><trkpt lat="43.76524911396456" lon="10.341102122910598"><ele>2.0</ele><time>2026-04-07T10:08:20.001Z</time></trkpt><trkpt lat="43.76519973497366" lon="10.341161183298905"><ele>2.0</ele><time>2026-04-07T10:08:21.001Z</time></trkpt><trkpt lat="43.76514323023361" lon="10.341231358596426"><ele>2.0</ele><time>2026-04-07T10:08:22.001Z</time></trkpt><trkpt lat="43.76509126246156" lon="10.341305480600312"><ele>1.9999999999999998</ele><time>2026-04-07T10:08:23.001Z</time></trkpt><trkpt lat="43.765035745116975" lon="10.341386070677126"><ele>2.0</ele><time>2026-04-07T10:08:24.001Z</time></trkpt><trkpt lat="43.76498398500301" lon="10.341464881925452"><ele>2.4000000000000004</ele><time>2026-04-07T10:08:25.001Z</time></trkpt><trkpt lat="43.764918889256826" lon="10.34156145119916"><ele>2.8000000000000003</ele><time>2026-04-07T10:08:26.001Z</time></trkpt><trkpt lat="43.76485746657827" lon="10.341664809082268"><ele>3.2</ele><time>2026-04-07T10:08:27.001Z</time></trkpt><trkpt lat="43.764785125165865" lon="10.341784987308625"><ele>3.6</ele><time>2026-04-07T10:08:28.001Z</time></trkpt><trkpt lat="43.76471290092138" lon="10.341913052765884"><ele>4.0</ele><time>2026-04-07T10:08:29.001Z</time></trkpt><trkpt lat="43.764652356322294" lon="10.342024132963598"><ele>4.0</ele><time>2026-04-07T10:08:30.001Z</time></trkpt><trkpt lat="43.76459122461462" lon="10.342134196647592"><ele>4.0</ele><time>2026-04-07T10:08:31.001Z</time></trkpt><trkpt lat="43.764519391295515" lon="10.342256891430262"><ele>4.0</ele><time>2026-04-07T10:08:32.001Z</time></trkpt><trkpt lat="43.764437743496956" lon="10.34239691881557"><ele>4.0</ele><time>2026-04-07T10:08:33.001Z</time></trkpt><trkpt lat="43.764348574330626" lon="10.342550224135724"><ele>3.75</ele><time>2026-04-07T10:08:34.001Z</time></trkpt><trkpt lat="43.76426134373417" lon="10.342696841736744"><ele>3.5</ele><time>2026-04-07T10:08:35.001Z</time></trkpt><trkpt lat="43.76417139348406" lon="10.342856577800323"><ele>3.25</ele><time>2026-04-07T10:08:36.001Z</time></trkpt><trkpt lat="43.76407481815567" lon="10.343018391484522"><ele>3.0</ele><time>2026-04-07T10:08:37.001Z</time></trkpt><trkpt lat="43.76399197856203" lon="10.343167666495567"><ele>3.0</ele><time>2026-04-07T10:08:38.001Z</time></trkpt><trkpt lat="43.76390712259178" lon="10.343312840519705"><ele>3.0</ele><time>2026-04-07T10:08:39.001Z</time></trkpt><trkpt lat="43.76381972504696" lon="10.343463866553929"><ele>3.0</ele><time>2026-04-07T10:08:40.001Z</time></trkpt><trkpt lat="43.76372953546139" lon="10.343623497492828"><ele>3.0</ele><time>2026-04-07T10:08:41.001Z</time></trkpt><trkpt lat="43.76363403283717" lon="10.343787913852738"><ele>2.3333333333333335</ele><time>2026-04-07T10:08:42.001Z</time></trkpt><trkpt lat="43.76353112560855" lon="10.34395945812425"><ele>1.6666666666666665</ele><time>2026-04-07T10:08:43.001Z</time></trkpt><trkpt lat="43.76342445136182" lon="10.34413557096921"><ele>1.0</ele><time>2026-04-07T10:08:44.001Z</time></trkpt><trkpt lat="43.76333297431689" lon="10.344294644716163"><ele>2.3333333333333335</ele><time>2026-04-07T10:08:45.001Z</time></trkpt><trkpt lat="43.76323993920657" lon="10.344461116889203"><ele>3.666666666666667</ele><time>2026-04-07T10:08:46.001Z</time></trkpt><trkpt lat="43.76313915044729" lon="10.344633430593873"><ele>5.0</ele><time>2026-04-07T10:08:47.001Z</time></trkpt><trkpt lat="43.76303316738842" lon="10.344815746297861"><ele>5.0</ele><time>2026-04-07T10:08:48.001Z</time></trkpt><trkpt lat="43.762924677683614" lon="10.345008666157637"><ele>5.0</ele><time>2026-04-07T10:08:49.001Z</time></trkpt><trkpt lat="43.762822453412355" lon="10.345206481888765"><ele>5.0</ele><time>2026-04-07T10:08:50.001Z</time></trkpt><trkpt lat="43.76271618836285" lon="10.345403528245274"><ele>4.333333333333334</ele><time>2026-04-07T10:08:51.001Z</time></trkpt><trkpt lat="43.76262312903242" lon="10.345558691808884"><ele>3.666666666666667</ele><time>2026-04-07T10:08:52.001Z</time></trkpt><trkpt lat="43.7625021142909" lon="10.34577240810709"><ele>3.0</ele><time>2026-04-07T10:08:53.001Z</time></trkpt><trkpt lat="43.76240393060282" lon="10.345939529345536"><ele>3.0</ele><time>2026-04-07T10:08:54.001Z</time></trkpt><trkpt lat="43.762296604229185" lon="10.346124476609738"><ele>3.0</ele><time>2026-04-07T10:08:55.001Z</time></trkpt><trkpt lat="43.762185362671396" lon="10.346316232057156"><ele>3.0</ele><time>2026-04-07T10:08:56.001Z</time></trkpt><trkpt lat="43.76207135479565" lon="10.346505989439228"><ele>3.0</ele><time>2026-04-07T10:08:57.001Z</time></trkpt><trkpt lat="43.76196354152396" lon="10.346674492560329"><ele>3.0</ele><time>2026-04-07T10:08:58.001Z</time></trkpt><trkpt lat="43.76186498608033" lon="10.346808249219016"><ele>3.0</ele><time>2026-04-07T10:08:59.001Z</time></trkpt><trkpt lat="43.76176272393834" lon="10.346927127810849"><ele>3.0</ele><time>2026-04-07T10:09:00.001Z</time></trkpt><trkpt lat="43.76164704339858" lon="10.347039765980213"><ele>3.0</ele><time>2026-04-07T10:09:01.001Z</time></trkpt><trkpt lat="43.761524912485655" lon="10.347156760838462"><ele>3.0</ele><time>2026-04-07T10:09:02.001Z</time></trkpt><trkpt lat="43.761409264530066" lon="10.347252476785174"><ele>3.0</ele><time>2026-04-07T10:09:03.001Z</time></trkpt><trkpt lat="43.76130487983374" lon="10.347343848980701"><ele>3.0</ele><time>2026-04-07T10:09:04.001Z</time></trkpt><trkpt lat="43.76095105681176" lon="10.347892161345872"><ele>2.6666666666666665</ele><time>2026-04-07T10:09:05.001Z</time></trkpt><trkpt lat="43.76080327909582" lon="10.348052243057262"><ele>2.333333333333333</ele><time>2026-04-07T10:09:06.001Z</time></trkpt><trkpt lat="43.760647850869965" lon="10.348226341005564"><ele>2.0</ele><time>2026-04-07T10:09:07.001Z</time></trkpt><trkpt lat="43.76050468377863" lon="10.348383637601657"><ele>2.0</ele><time>2026-04-07T10:09:08.001Z</time></trkpt><trkpt lat="43.76035804042164" lon="10.34853640903052"><ele>2.0</ele><time>2026-04-07T10:09:09.001Z</time></trkpt><trkpt lat="43.76020664393441" lon="10.348704066354703"><ele>2.0</ele><time>2026-04-07T10:09:10.001Z</time></trkpt><trkpt lat="43.760053378680624" lon="10.348876183113196"><ele>2.0</ele><time>2026-04-07T10:09:11.001Z</time></trkpt><trkpt lat="43.759898786369284" lon="10.349056002898825"><ele>2.0</ele><time>2026-04-07T10:09:12.001Z</time></trkpt><trkpt lat="43.759726702814454" lon="10.349257886713076"><ele>2.0</ele><time>2026-04-07T10:09:13.001Z</time></trkpt><trkpt lat="43.759537997036475" lon="10.349479801913912"><ele>1.5</ele><time>2026-04-07T10:09:14.001Z</time></trkpt><trkpt lat="43.75932801074818" lon="10.349710021751342"><ele>1.0</ele><time>2026-04-07T10:09:15.001Z</time></trkpt><trkpt lat="43.759108931363244" lon="10.34993243642671"><ele>1.0</ele><time>2026-04-07T10:09:16.001Z</time></trkpt><trkpt lat="43.75891248359546" lon="10.350114437095435"><ele>1.0</ele><time>2026-04-07T10:09:17.001Z</time></trkpt><trkpt lat="43.75873565764814" lon="10.350301484121887"><ele>1.0</ele><time>2026-04-07T10:09:18.001Z</time></trkpt><trkpt lat="43.75857348613994" lon="10.350484128762385"><ele>1.0</ele><time>2026-04-07T10:09:19.001Z</time></trkpt><trkpt lat="43.75842425124789" lon="10.350654134354778"><ele>1.0</ele><time>2026-04-07T10:09:20.001Z</time></trkpt><trkpt lat="43.758278993723415" lon="10.350809140261713"><ele>1.3333333333333333</ele><time>2026-04-07T10:09:21.001Z</time></trkpt><trkpt lat="43.75813480467259" lon="10.350965447076188"><ele>1.6666666666666665</ele><time>2026-04-07T10:09:22.001Z</time></trkpt><trkpt lat="43.757987689858204" lon="10.351121494026817"><ele>2.0</ele><time>2026-04-07T10:09:23.001Z</time></trkpt><trkpt lat="43.75784604658629" lon="10.351282194847936"><ele>1.3333333333333333</ele><time>2026-04-07T10:09:24.001Z</time></trkpt><trkpt lat="43.75770412498434" lon="10.35143662286813"><ele>0.6666666666666666</ele><time>2026-04-07T10:09:25.001Z</time></trkpt><trkpt lat="43.75756463714157" lon="10.351590098906957"><ele>0.0</ele><time>2026-04-07T10:09:26.001Z</time></trkpt><trkpt lat="43.75742635616678" lon="10.35174039641118"><ele>0.0</ele><time>2026-04-07T10:09:27.001Z</time></trkpt><trkpt lat="43.757292338704126" lon="10.351892785900038"><ele>0.0</ele><time>2026-04-07T10:09:28.001Z</time></trkpt><trkpt lat="43.757151957345094" lon="10.35204106726639"><ele>0.0</ele><time>2026-04-07T10:09:29.001Z</time></trkpt><trkpt lat="43.75701293576252" lon="10.352197243320935"><ele>0.0</ele><time>2026-04-07T10:09:30.001Z</time></trkpt><trkpt lat="43.75688048489695" lon="10.352344303595194"><ele>0.0</ele><time>2026-04-07T10:09:31.001Z</time></trkpt><trkpt lat="43.756741484148186" lon="10.352494752559808"><ele>0.0</ele><time>2026-04-07T10:09:32.001Z</time></trkpt><trkpt lat="43.75660241387406" lon="10.352642069615014"><ele>0.0</ele><time>2026-04-07T10:09:33.001Z</time></trkpt><trkpt lat="43.75646517631683" lon="10.352795666820176"><ele>0.0</ele><time>2026-04-07T10:09:34.001Z</time></trkpt><trkpt lat="43.756326369249656" lon="10.352946446751927"><ele>0.0</ele><time>2026-04-07T10:09:35.001Z</time></trkpt><trkpt lat="43.75619125386097" lon="10.353102982895406"><ele>0.0</ele><time>2026-04-07T10:09:36.001Z</time></trkpt><trkpt lat="43.75605297965382" lon="10.353259820863979"><ele>0.0</ele><time>2026-04-07T10:09:37.001Z</time></trkpt><trkpt lat="43.755912437544325" lon="10.353416585908375"><ele>0.0</ele><time>2026-04-07T10:09:38.001Z</time></trkpt><trkpt lat="43.755778685153864" lon="10.353565687624675"><ele>0.0</ele><time>2026-04-07T10:09:39.001Z</time></trkpt><trkpt lat="43.75562930445606" lon="10.353721146823158"><ele>0.0</ele><time>2026-04-07T10:09:40.001Z</time></trkpt><trkpt lat="43.75547941708939" lon="10.353877555914808"><ele>0.0</ele><time>2026-04-07T10:09:41.001Z</time></trkpt><trkpt lat="43.75533497378172" lon="10.354032090256586"><ele>0.3333333333333333</ele><time>2026-04-07T10:09:42.001Z</time></trkpt><trkpt lat="43.75519436287338" lon="10.354189697027518"><ele>0.6666666666666666</ele><time>2026-04-07T10:09:43.001Z</time></trkpt><trkpt lat="43.75505959619054" lon="10.354337935149776"><ele>1.0</ele><time>2026-04-07T10:09:44.001Z</time></trkpt><trkpt lat="43.75491659920325" lon="10.354491285039538"><ele>1.0</ele><time>2026-04-07T10:09:45.001Z</time></trkpt><trkpt lat="43.75476790463325" lon="10.354652430254754"><ele>1.0</ele><time>2026-04-07T10:09:46.001Z</time></trkpt><trkpt lat="43.75461851615749" lon="10.35481584488084"><ele>1.0</ele><time>2026-04-07T10:09:47.001Z</time></trkpt><trkpt lat="43.75446959958758" lon="10.35497895796071"><ele>1.6666666666666665</ele><time>2026-04-07T10:09:48.001Z</time></trkpt><trkpt lat="43.754317301213874" lon="10.355149078562894"><ele>2.3333333333333335</ele><time>2026-04-07T10:09:49.001Z</time></trkpt><trkpt lat="43.754163335522385" lon="10.355319245497673"><ele>3.0</ele><time>2026-04-07T10:09:50.001Z</time></trkpt><trkpt lat="43.754004259479096" lon="10.355494471160938"><ele>2.6666666666666665</ele><time>2026-04-07T10:09:51.001Z</time></trkpt><trkpt lat="43.753850649997815" lon="10.355665889016965"><ele>2.333333333333333</ele><time>2026-04-07T10:09:52.001Z</time></trkpt><trkpt lat="43.75368663412464" lon="10.35583735360803"><ele>2.0</ele><time>2026-04-07T10:09:53.001Z</time></trkpt><trkpt lat="43.753526167556934" lon="10.356010343874422"><ele>2.0</ele><time>2026-04-07T10:09:54.001Z</time></trkpt><trkpt lat="43.753360746218306" lon="10.356190469081078"><ele>2.0</ele><time>2026-04-07T10:09:55.001Z</time></trkpt><trkpt lat="43.75319941893883" lon="10.356367602346449"><ele>2.0</ele><time>2026-04-07T10:09:56.001Z</time></trkpt><trkpt lat="43.75303639198156" lon="10.356546395842706"><ele>2.0</ele><time>2026-04-07T10:09:57.001Z</time></trkpt><trkpt lat="43.75287073998341" lon="10.356730340287932"><ele>2.0</ele><time>2026-04-07T10:09:58.001Z</time></trkpt><trkpt lat="43.75271186180954" lon="10.35691012602308"><ele>2.0</ele><time>2026-04-07T10:09:59.001Z</time></trkpt><trkpt lat="43.75255683983499" lon="10.357077378576902"><ele>2.333333333333333</ele><time>2026-04-07T10:10:00.001Z</time></trkpt><trkpt lat="43.75241178610963" lon="10.35723679497395"><ele>2.6666666666666665</ele><time>2026-04-07T10:10:01.001Z</time></trkpt><trkpt lat="43.75228429663607" lon="10.357380019002509"><ele>3.0</ele><time>2026-04-07T10:10:02.001Z</time></trkpt><trkpt lat="43.75216111277228" lon="10.357525541718108"><ele>3.0</ele><time>2026-04-07T10:10:03.001Z</time></trkpt><trkpt lat="43.75205750851168" lon="10.357678801136096"><ele>3.0</ele><time>2026-04-07T10:10:04.001Z</time></trkpt><trkpt lat="43.75198356739686" lon="10.357852718894009"><ele>3.0</ele><time>2026-04-07T10:10:05.001Z</time></trkpt><trkpt lat="43.751907393366835" lon="10.358040618173467"><ele>2.6666666666666665</ele><time>2026-04-07T10:10:06.001Z</time></trkpt><trkpt lat="43.75183507662449" lon="10.358242037320007"><ele>2.333333333333333</ele><time>2026-04-07T10:10:07.001Z</time></trkpt><trkpt lat="43.75176309879255" lon="10.358438341729295"><ele>2.0</ele><time>2026-04-07T10:10:08.001Z</time></trkpt><trkpt lat="43.751684096734934" lon="10.358644075241559"><ele>2.0</ele><time>2026-04-07T10:10:09.001Z</time></trkpt><trkpt lat="43.751601599943164" lon="10.358849176082632"><ele>2.0</ele><time>2026-04-07T10:10:10.001Z</time></trkpt><trkpt lat="43.751512216944576" lon="10.359053916198757"><ele>2.0</ele><time>2026-04-07T10:10:11.001Z</time></trkpt><trkpt lat="43.75142152222383" lon="10.359243534815377"><ele>2.0</ele><time>2026-04-07T10:10:12.001Z</time></trkpt><trkpt lat="43.75132878968949" lon="10.359413474634618"><ele>2.0</ele><time>2026-04-07T10:10:13.001Z</time></trkpt><trkpt lat="43.7512295603332" lon="10.35956679501982"><ele>2.0</ele><time>2026-04-07T10:10:14.001Z</time></trkpt><trkpt lat="43.751132093324756" lon="10.359725651901877"><ele>1.6666666666666665</ele><time>2026-04-07T10:10:15.001Z</time></trkpt><trkpt lat="43.75103902207521" lon="10.35987883378229"><ele>1.3333333333333333</ele><time>2026-04-07T10:10:16.001Z</time></trkpt><trkpt lat="43.75094669170696" lon="10.3600401797935"><ele>1.0</ele><time>2026-04-07T10:10:17.001Z</time></trkpt><trkpt lat="43.750848240556564" lon="10.36021234143406"><ele>1.0</ele><time>2026-04-07T10:10:18.001Z</time></trkpt><trkpt lat="43.75074344968906" lon="10.36038618024157"><ele>1.0</ele><time>2026-04-07T10:10:19.001Z</time></trkpt><trkpt lat="43.75064378278222" lon="10.360548290715208"><ele>1.0</ele><time>2026-04-07T10:10:20.001Z</time></trkpt><trkpt lat="43.75055278490421" lon="10.360706125743032"><ele>1.25</ele><time>2026-04-07T10:10:21.001Z</time></trkpt><trkpt lat="43.750452778372164" lon="10.36086639492548"><ele>1.5</ele><time>2026-04-07T10:10:22.001Z</time></trkpt><trkpt lat="43.75035737866933" lon="10.361019778450412"><ele>1.75</ele><time>2026-04-07T10:10:23.001Z</time></trkpt><trkpt lat="43.75026548583866" lon="10.361172338730197"><ele>2.0</ele><time>2026-04-07T10:10:24.001Z</time></trkpt><trkpt lat="43.75017345810317" lon="10.361329551057477"><ele>1.75</ele><time>2026-04-07T10:10:25.001Z</time></trkpt><trkpt lat="43.75008236463197" lon="10.361481716489328"><ele>1.5</ele><time>2026-04-07T10:10:26.001Z</time></trkpt><trkpt lat="43.74998926432005" lon="10.36163572082316"><ele>1.25</ele><time>2026-04-07T10:10:27.001Z</time></trkpt><trkpt lat="43.749896989387096" lon="10.361789056718807"><ele>1.0</ele><time>2026-04-07T10:10:28.001Z</time></trkpt><trkpt lat="43.749802841259296" lon="10.361948337630272"><ele>1.0</ele><time>2026-04-07T10:10:29.001Z</time></trkpt><trkpt lat="43.74971160474452" lon="10.362099096742464"><ele>1.0</ele><time>2026-04-07T10:10:30.001Z</time></trkpt><trkpt lat="43.74962227612744" lon="10.362252195112925"><ele>1.0</ele><time>2026-04-07T10:10:31.001Z</time></trkpt><trkpt lat="43.74953126425915" lon="10.362404458934687"><ele>1.0</ele><time>2026-04-07T10:10:32.001Z</time></trkpt><trkpt lat="43.749439075053296" lon="10.362561695056291"><ele>1.6666666666666665</ele><time>2026-04-07T10:10:33.001Z</time></trkpt><trkpt lat="43.74934278592996" lon="10.362715743248827"><ele>2.3333333333333335</ele><time>2026-04-07T10:10:34.001Z</time></trkpt><trkpt lat="43.74924308866581" lon="10.362884811833094"><ele>3.0</ele><time>2026-04-07T10:10:35.001Z</time></trkpt><trkpt lat="43.749147005865666" lon="10.363052724856889"><ele>3.0</ele><time>2026-04-07T10:10:36.001Z</time></trkpt><trkpt lat="43.74905114718505" lon="10.363221357866129"><ele>3.0</ele><time>2026-04-07T10:10:37.001Z</time></trkpt><trkpt lat="43.748955023969245" lon="10.363391318214894"><ele>3.0</ele><time>2026-04-07T10:10:38.001Z</time></trkpt><trkpt lat="43.748856163906765" lon="10.363561700130518"><ele>3.0</ele><time>2026-04-07T10:10:39.001Z</time></trkpt><trkpt lat="43.748757899335736" lon="10.363730451165837"><ele>3.0</ele><time>2026-04-07T10:10:40.001Z</time></trkpt><trkpt lat="43.74865189856315" lon="10.363896859565616"><ele>3.0</ele><time>2026-04-07T10:10:41.001Z</time></trkpt><trkpt lat="43.74855305694979" lon="10.364060670850492"><ele>2.3333333333333335</ele><time>2026-04-07T10:10:42.001Z</time></trkpt><trkpt lat="43.748452900240245" lon="10.364230549381302"><ele>1.6666666666666665</ele><time>2026-04-07T10:10:43.001Z</time></trkpt><trkpt lat="43.74835409578295" lon="10.364395574327922"><ele>1.0</ele><time>2026-04-07T10:10:44.001Z</time></trkpt><trkpt lat="43.748252678007894" lon="10.364563042519539"><ele>1.0</ele><time>2026-04-07T10:10:45.001Z</time></trkpt><trkpt lat="43.748150345379536" lon="10.364736127069234"><ele>1.0</ele><time>2026-04-07T10:10:46.002Z</time></trkpt><trkpt lat="43.748053132747586" lon="10.364908128148965"><ele>1.0</ele><time>2026-04-07T10:10:47.002Z</time></trkpt><trkpt lat="43.74795151633539" lon="10.365077845825091"><ele>1.0</ele><time>2026-04-07T10:10:48.002Z</time></trkpt><trkpt lat="43.74784892026387" lon="10.365252575322149"><ele>1.0</ele><time>2026-04-07T10:10:49.002Z</time></trkpt><trkpt lat="43.747751231259095" lon="10.365423146801573"><ele>1.0</ele><time>2026-04-07T10:10:50.002Z</time></trkpt><trkpt lat="43.74764907462757" lon="10.365593824125833"><ele>1.0</ele><time>2026-04-07T10:10:51.002Z</time></trkpt><trkpt lat="43.74754710459934" lon="10.365765110102586"><ele>1.0</ele><time>2026-04-07T10:10:52.002Z</time></trkpt><trkpt lat="43.74744908128558" lon="10.365933633652695"><ele>1.0</ele><time>2026-04-07T10:10:53.002Z</time></trkpt><trkpt lat="43.74735006794028" lon="10.366099651160322"><ele>1.0</ele><time>2026-04-07T10:10:54.002Z</time></trkpt><trkpt lat="43.74724927837938" lon="10.366270218446985"><ele>1.0</ele><time>2026-04-07T10:10:55.002Z</time></trkpt><trkpt lat="43.7471531595633" lon="10.366441036097722"><ele>1.0</ele><time>2026-04-07T10:10:56.002Z</time></trkpt><trkpt lat="43.74705326165833" lon="10.366608114100297"><ele>1.3333333333333333</ele><time>2026-04-07T10:10:57.002Z</time></trkpt><trkpt lat="43.746953690874896" lon="10.36677719731406"><ele>1.6666666666666665</ele><time>2026-04-07T10:10:58.002Z</time></trkpt><trkpt lat="43.74685750742417" lon="10.366943688309782"><ele>2.0</ele><time>2026-04-07T10:10:59.001Z</time></trkpt><trkpt lat="43.74676045244481" lon="10.367105986518283"><ele>2.0</ele><time>2026-04-07T10:11:00.001Z</time></trkpt><trkpt lat="43.7466598468215" lon="10.367265116138853"><ele>2.0</ele><time>2026-04-07T10:11:01.001Z</time></trkpt><trkpt lat="43.746558207996735" lon="10.367425793163912"><ele>2.0</ele><time>2026-04-07T10:11:02.001Z</time></trkpt><trkpt lat="43.746464907594536" lon="10.367590196149607"><ele>2.0</ele><time>2026-04-07T10:11:03.001Z</time></trkpt><trkpt lat="43.746373051022765" lon="10.367752302430196"><ele>2.0</ele><time>2026-04-07T10:11:04.001Z</time></trkpt><trkpt lat="43.746277777338165" lon="10.367907187454106"><ele>2.0</ele><time>2026-04-07T10:11:05.001Z</time></trkpt><trkpt lat="43.74618133199009" lon="10.36806914281834"><ele>2.0</ele><time>2026-04-07T10:11:06.001Z</time></trkpt><trkpt lat="43.74609259938647" lon="10.368229008802036"><ele>2.0</ele><time>2026-04-07T10:11:07.001Z</time></trkpt><trkpt lat="43.74599573902743" lon="10.368391041115157"><ele>2.0</ele><time>2026-04-07T10:11:08.001Z</time></trkpt><trkpt lat="43.745905591958454" lon="10.368548744394966"><ele>2.0</ele><time>2026-04-07T10:11:09.001Z</time></trkpt><trkpt lat="43.74581006721368" lon="10.368709972968649"><ele>2.0</ele><time>2026-04-07T10:11:10.001Z</time></trkpt><trkpt lat="43.745707323533864" lon="10.368866462854468"><ele>2.0</ele><time>2026-04-07T10:11:11.001Z</time></trkpt><trkpt lat="43.74561112472262" lon="10.369024907316774"><ele>2.0</ele><time>2026-04-07T10:11:12.001Z</time></trkpt><trkpt lat="43.745517579019825" lon="10.369184843309553"><ele>2.0</ele><time>2026-04-07T10:11:13.001Z</time></trkpt><trkpt lat="43.745431221819004" lon="10.369353441218438"><ele>2.0</ele><time>2026-04-07T10:11:14.001Z</time></trkpt><trkpt lat="43.745333877635616" lon="10.369506751032793"><ele>2.0</ele><time>2026-04-07T10:11:15.001Z</time></trkpt><trkpt lat="43.74524436249649" lon="10.369654174713519"><ele>2.0</ele><time>2026-04-07T10:11:16.001Z</time></trkpt><trkpt lat="43.74516732916264" lon="10.369783567349266"><ele>2.0</ele><time>2026-04-07T10:11:17.001Z</time></trkpt><trkpt lat="43.745099365898255" lon="10.369904892126916"><ele>2.0</ele><time>2026-04-07T10:11:18.001Z</time></trkpt><trkpt lat="43.745040860472535" lon="10.37000227882115"><ele>1.6666666666666665</ele><time>2026-04-07T10:11:19.001Z</time></trkpt><trkpt lat="43.744990154214285" lon="10.370081663776174"><ele>1.3333333333333333</ele><time>2026-04-07T10:11:20.001Z</time></trkpt><trkpt lat="43.7449400193235" lon="10.370153196615366"><ele>1.0</ele><time>2026-04-07T10:11:21.001Z</time></trkpt><trkpt lat="43.74489846666311" lon="10.370225310856622"><ele>0.6666666666666666</ele><time>2026-04-07T10:11:22.001Z</time></trkpt><trkpt lat="43.74484433102853" lon="10.370310806655532"><ele>0.3333333333333333</ele><time>2026-04-07T10:11:23.001Z</time></trkpt><trkpt lat="43.74478824461624" lon="10.370404378455152"><ele>0.0</ele><time>2026-04-07T10:11:24.001Z</time></trkpt><trkpt lat="43.74472486243576" lon="10.370512606354847"><ele>0.0</ele><time>2026-04-07T10:11:25.001Z</time></trkpt><trkpt lat="43.744665191788634" lon="10.370618423157014"><ele>0.0</ele><time>2026-04-07T10:11:26.001Z</time></trkpt><trkpt lat="43.744614631808204" lon="10.370708853530793"><ele>0.0</ele><time>2026-04-07T10:11:27.001Z</time></trkpt><trkpt lat="43.74456732783955" lon="10.37079020113089"><ele>0.0</ele><time>2026-04-07T10:11:28.001Z</time></trkpt><trkpt lat="43.74452511272889" lon="10.370861201903024"><ele>0.0</ele><time>2026-04-07T10:11:29.001Z</time></trkpt><trkpt lat="43.7444826269101" lon="10.370930592061738"><ele>0.0</ele><time>2026-04-07T10:11:30.001Z</time></trkpt><trkpt lat="43.74444242434313" lon="10.371002351822941"><ele>0.0</ele><time>2026-04-07T10:11:31.001Z</time></trkpt><trkpt lat="43.74439311973675" lon="10.371079197913494"><ele>0.0</ele><time>2026-04-07T10:11:32.001Z</time></trkpt><trkpt lat="43.74435426072196" lon="10.371150707737227"><ele>0.0</ele><time>2026-04-07T10:11:33.001Z</time></trkpt><trkpt lat="43.74430311259577" lon="10.371224572594848"><ele>0.0</ele><time>2026-04-07T10:11:35.001Z</time></trkpt><trkpt lat="43.744239070032606" lon="10.371284645549414"><ele>0.0</ele><time>2026-04-07T10:11:38.001Z</time></trkpt><trkpt lat="43.74414589255387" lon="10.371279026235095"><ele>0.0</ele><time>2026-04-07T10:11:40.001Z</time></trkpt><trkpt lat="43.74408303115415" lon="10.371262822546143"><ele>0.0</ele><time>2026-04-07T10:11:41.001Z</time></trkpt><trkpt lat="43.74401738452123" lon="10.371277890806182"><ele>0.25</ele><time>2026-04-07T10:11:42.001Z</time></trkpt><trkpt lat="43.74393465010959" lon="10.37135904698907"><ele>0.5</ele><time>2026-04-07T10:11:44.001Z</time></trkpt><trkpt lat="43.74389867855941" lon="10.371530871997876"><ele>0.75</ele><time>2026-04-07T10:11:46.001Z</time></trkpt><trkpt lat="43.743922907723295" lon="10.371653156862699"><ele>1.0</ele><time>2026-04-07T10:11:47.001Z</time></trkpt><trkpt lat="43.743851207746594" lon="10.371807016915572"><ele>1.0</ele><time>2026-04-07T10:11:48.001Z</time></trkpt><trkpt lat="43.743799982589" lon="10.37195489232945"><ele>1.0</ele><time>2026-04-07T10:11:49.001Z</time></trkpt><trkpt lat="43.743730895911995" lon="10.372107925076063"><ele>1.0</ele><time>2026-04-07T10:11:50.001Z</time></trkpt><trkpt lat="43.74365434157456" lon="10.37225035192864"><ele>1.0</ele><time>2026-04-07T10:11:51.001Z</time></trkpt><trkpt lat="43.743565657004986" lon="10.372398685901574"><ele>1.5</ele><time>2026-04-07T10:11:52.001Z</time></trkpt><trkpt lat="43.7434697783535" lon="10.372544765555425"><ele>2.0</ele><time>2026-04-07T10:11:53.001Z</time></trkpt><trkpt lat="43.743379139701894" lon="10.372666898131929"><ele>2.5</ele><time>2026-04-07T10:11:54.001Z</time></trkpt><trkpt lat="43.74328798838327" lon="10.372776973402733"><ele>3.0</ele><time>2026-04-07T10:11:55.001Z</time></trkpt><trkpt lat="43.743184032823336" lon="10.372886867641702"><ele>3.0</ele><time>2026-04-07T10:11:56.001Z</time></trkpt><trkpt lat="43.74306747451519" lon="10.372991519968117"><ele>3.0</ele><time>2026-04-07T10:11:57.001Z</time></trkpt><trkpt lat="43.74293891186816" lon="10.373082054324506"><ele>3.0</ele><time>2026-04-07T10:11:58.001Z</time></trkpt><trkpt lat="43.74281005944501" lon="10.373164664813727"><ele>3.0</ele><time>2026-04-07T10:11:59.001Z</time></trkpt><trkpt lat="43.74269085795259" lon="10.373230444404447"><ele>2.6</ele><time>2026-04-07T10:12:00.001Z</time></trkpt><trkpt lat="43.74257727351292" lon="10.37327921190017"><ele>2.1999999999999997</ele><time>2026-04-07T10:12:01.001Z</time></trkpt><trkpt lat="43.74247063235767" lon="10.373320496940492"><ele>1.8</ele><time>2026-04-07T10:12:02.001Z</time></trkpt><trkpt lat="43.74236953036926" lon="10.37335601571175"><ele>1.4</ele><time>2026-04-07T10:12:03.001Z</time></trkpt><trkpt lat="43.742268274952714" lon="10.373385576961637"><ele>1.0</ele><time>2026-04-07T10:12:04.001Z</time></trkpt><trkpt lat="43.74216616490547" lon="10.373408109064307"><ele>1.0</ele><time>2026-04-07T10:12:05.001Z</time></trkpt><trkpt lat="43.742058493103315" lon="10.373418561371869"><ele>1.0</ele><time>2026-04-07T10:12:06.001Z</time></trkpt><trkpt lat="43.741949683920424" lon="10.373424088004374"><ele>1.0</ele><time>2026-04-07T10:12:07.001Z</time></trkpt><trkpt lat="43.74183839699779" lon="10.373433827186487"><ele>1.0</ele><time>2026-04-07T10:12:08.001Z</time></trkpt><trkpt lat="43.74172504327442" lon="10.373441114058465"><ele>1.0</ele><time>2026-04-07T10:12:09.001Z</time></trkpt><trkpt lat="43.74160740435707" lon="10.373451310365441"><ele>0.8</ele><time>2026-04-07T10:12:10.001Z</time></trkpt><trkpt lat="43.74149222988084" lon="10.373461292345107"><ele>0.6000000000000001</ele><time>2026-04-07T10:12:11.001Z</time></trkpt><trkpt lat="43.74137961603843" lon="10.373468531779073"><ele>0.4</ele><time>2026-04-07T10:12:12.001Z</time></trkpt><trkpt lat="43.741276474079704" lon="10.37347753657601"><ele>0.2</ele><time>2026-04-07T10:12:13.001Z</time></trkpt><trkpt lat="43.74118276440323" lon="10.373480701559076"><ele>0.0</ele><time>2026-04-07T10:12:14.001Z</time></trkpt><trkpt lat="43.74109243098703" lon="10.373485026057564"><ele>-0.16666666666666666</ele><time>2026-04-07T10:12:15.001Z</time></trkpt><trkpt lat="43.74100702496865" lon="10.373492775396986"><ele>-0.3333333333333333</ele><time>2026-04-07T10:12:16.001Z</time></trkpt><trkpt lat="43.740926820771676" lon="10.373485497092307"><ele>-0.5</ele><time>2026-04-07T10:12:17.001Z</time></trkpt><trkpt lat="43.74082053568871" lon="10.373409338216618"><ele>-0.6666666666666666</ele><time>2026-04-07T10:12:19.001Z</time></trkpt><trkpt lat="43.740761543194495" lon="10.373365311306237"><ele>-0.8333333333333333</ele><time>2026-04-07T10:12:20.001Z</time></trkpt><trkpt lat="43.74068424587005" lon="10.373339430259893"><ele>-1.0</ele><time>2026-04-07T10:12:21.001Z</time></trkpt><trkpt lat="43.740606685585405" lon="10.373352703281297"><ele>-1.0</ele><time>2026-04-07T10:12:22.001Z</time></trkpt><trkpt lat="43.740529368972226" lon="10.373395168081313"><ele>-1.0</ele><time>2026-04-07T10:12:23.001Z</time></trkpt><trkpt lat="43.740450279210684" lon="10.37345187117472"><ele>-1.0</ele><time>2026-04-07T10:12:24.001Z</time></trkpt><trkpt lat="43.74036188195658" lon="10.37350270521328"><ele>-1.0</ele><time>2026-04-07T10:12:25.001Z</time></trkpt><trkpt lat="43.740264125966426" lon="10.373531526006637"><ele>-1.0</ele><time>2026-04-07T10:12:26.001Z</time></trkpt><trkpt lat="43.74016246831927" lon="10.3735423317636"><ele>-0.8</ele><time>2026-04-07T10:12:27.001Z</time></trkpt><trkpt lat="43.740059996159125" lon="10.37355172755711"><ele>-0.6000000000000001</ele><time>2026-04-07T10:12:28.001Z</time></trkpt><trkpt lat="43.739956702209355" lon="10.373562202516084"><ele>-0.4</ele><time>2026-04-07T10:12:29.001Z</time></trkpt><trkpt lat="43.73984993951445" lon="10.37357221523689"><ele>-0.2</ele><time>2026-04-07T10:12:30.001Z</time></trkpt><trkpt lat="43.739744756881066" lon="10.373579194112764"><ele>0.0</ele><time>2026-04-07T10:12:31.001Z</time></trkpt><trkpt lat="43.739639692468984" lon="10.373582671103451"><ele>0.0</ele><time>2026-04-07T10:12:32.001Z</time></trkpt><trkpt lat="43.73953285426251" lon="10.373584913477938"><ele>0.0</ele><time>2026-04-07T10:12:33.001Z</time></trkpt><trkpt lat="43.739425867142955" lon="10.373591267608932"><ele>0.0</ele><time>2026-04-07T10:12:34.001Z</time></trkpt><trkpt lat="43.739319407927034" lon="10.373594911553125"><ele>0.0</ele><time>2026-04-07T10:12:35.001Z</time></trkpt><trkpt lat="43.7392122801724" lon="10.373601022526817"><ele>0.0</ele><time>2026-04-07T10:12:36.001Z</time></trkpt><trkpt lat="43.73908601996109" lon="10.373608775325094"><ele>0.5</ele><time>2026-04-07T10:12:37.001Z</time></trkpt><trkpt lat="43.73896067380901" lon="10.373616691730925"><ele>1.0</ele><time>2026-04-07T10:12:38.001Z</time></trkpt><trkpt lat="43.73883052533636" lon="10.37362136002871"><ele>1.5</ele><time>2026-04-07T10:12:39.001Z</time></trkpt><trkpt lat="43.738687972598754" lon="10.373627994203435"><ele>2.0</ele><time>2026-04-07T10:12:40.001Z</time></trkpt><trkpt lat="43.73854096569971" lon="10.37363445608256"><ele>2.0</ele><time>2026-04-07T10:12:41.001Z</time></trkpt><trkpt lat="43.73838822993075" lon="10.373639338265415"><ele>2.0</ele><time>2026-04-07T10:12:42.001Z</time></trkpt><trkpt lat="43.73825571035841" lon="10.373645940821552"><ele>2.0</ele><time>2026-04-07T10:12:43.001Z</time></trkpt><trkpt lat="43.738137197943225" lon="10.373654244014078"><ele>2.0</ele><time>2026-04-07T10:12:44.001Z</time></trkpt><trkpt lat="43.73802478557504" lon="10.373662235533903"><ele>2.0</ele><time>2026-04-07T10:12:45.001Z</time></trkpt><trkpt lat="43.737908976996955" lon="10.373671269425436"><ele>2.0</ele><time>2026-04-07T10:12:46.001Z</time></trkpt><trkpt lat="43.73778915599687" lon="10.37367849560026"><ele>2.0</ele><time>2026-04-07T10:12:47.001Z</time></trkpt><trkpt lat="43.737664941489975" lon="10.373684664778104"><ele>2.0</ele><time>2026-04-07T10:12:48.001Z</time></trkpt><trkpt lat="43.737557378467486" lon="10.373691821960005"><ele>1.75</ele><time>2026-04-07T10:12:49.001Z</time></trkpt><trkpt lat="43.73744201217872" lon="10.373697985412209"><ele>1.5</ele><time>2026-04-07T10:12:50.001Z</time></trkpt><trkpt lat="43.73732113614548" lon="10.373705272668968"><ele>1.25</ele><time>2026-04-07T10:12:51.001Z</time></trkpt><trkpt lat="43.737194828862144" lon="10.373714289165187"><ele>1.0</ele><time>2026-04-07T10:12:52.002Z</time></trkpt><trkpt lat="43.737057704634374" lon="10.373722313883219"><ele>1.0</ele><time>2026-04-07T10:12:53.002Z</time></trkpt><trkpt lat="43.73693139573593" lon="10.37372852737874"><ele>1.0</ele><time>2026-04-07T10:12:54.002Z</time></trkpt><trkpt lat="43.73680213084793" lon="10.373736316823935"><ele>1.0</ele><time>2026-04-07T10:12:55.002Z</time></trkpt><trkpt lat="43.73666649321572" lon="10.373744561746578"><ele>1.0</ele><time>2026-04-07T10:12:56.002Z</time></trkpt><trkpt lat="43.736524201387915" lon="10.37374959867038"><ele>1.0</ele><time>2026-04-07T10:12:57.002Z</time></trkpt><trkpt lat="43.73638196257864" lon="10.373754339895903"><ele>1.0</ele><time>2026-04-07T10:12:58.002Z</time></trkpt><trkpt lat="43.73625072200853" lon="10.373760103331112"><ele>1.0</ele><time>2026-04-07T10:12:59.002Z</time></trkpt><trkpt lat="43.736121102492234" lon="10.373770272799351"><ele>1.0</ele><time>2026-04-07T10:13:00.002Z</time></trkpt><trkpt lat="43.735987526407214" lon="10.373778827294155"><ele>1.0</ele><time>2026-04-07T10:13:01.002Z</time></trkpt><trkpt lat="43.73584929930895" lon="10.37378565287181"><ele>1.0</ele><time>2026-04-07T10:13:02.002Z</time></trkpt><trkpt lat="43.735711937387606" lon="10.37379337281447"><ele>1.0</ele><time>2026-04-07T10:13:03.002Z</time></trkpt><trkpt lat="43.73557295420194" lon="10.373805252520977"><ele>1.0</ele><time>2026-04-07T10:13:04.002Z</time></trkpt><trkpt lat="43.73542905009845" lon="10.373813081176767"><ele>1.0</ele><time>2026-04-07T10:13:05.002Z</time></trkpt><trkpt lat="43.73528294374475" lon="10.373827938196673"><ele>1.0</ele><time>2026-04-07T10:13:06.002Z</time></trkpt><trkpt lat="43.73513675421704" lon="10.37383486107632"><ele>1.0</ele><time>2026-04-07T10:13:07.002Z</time></trkpt><trkpt lat="43.73498503722637" lon="10.373844215363281"><ele>1.0</ele><time>2026-04-07T10:13:08.001Z</time></trkpt><trkpt lat="43.73484403010491" lon="10.373849524181631"><ele>1.0</ele><time>2026-04-07T10:13:09.001Z</time></trkpt><trkpt lat="43.73470427624304" lon="10.373859214148045"><ele>1.0</ele><time>2026-04-07T10:13:10.001Z</time></trkpt><trkpt lat="43.73456263880614" lon="10.373869800172232"><ele>1.0</ele><time>2026-04-07T10:13:11.001Z</time></trkpt><trkpt lat="43.7344133865977" lon="10.37388131182994"><ele>1.0</ele><time>2026-04-07T10:13:12.001Z</time></trkpt><trkpt lat="43.73427600933625" lon="10.373891597900174"><ele>1.0</ele><time>2026-04-07T10:13:13.001Z</time></trkpt><trkpt lat="43.734140276653974" lon="10.373911570491586"><ele>1.0</ele><time>2026-04-07T10:13:14.001Z</time></trkpt><trkpt lat="43.7340009364577" lon="10.373937935748756"><ele>1.0</ele><time>2026-04-07T10:13:15.001Z</time></trkpt><trkpt lat="43.733854703792545" lon="10.373977791431518"><ele>1.0</ele><time>2026-04-07T10:13:16.001Z</time></trkpt><trkpt lat="43.73370492008888" lon="10.374031620231126"><ele>0.6666666666666666</ele><time>2026-04-07T10:13:17.001Z</time></trkpt><trkpt lat="43.73355300633146" lon="10.374099188191293"><ele>0.3333333333333333</ele><time>2026-04-07T10:13:18.001Z</time></trkpt><trkpt lat="43.73339712334446" lon="10.374173477771752"><ele>0.0</ele><time>2026-04-07T10:13:19.001Z</time></trkpt><trkpt lat="43.73325254948026" lon="10.374251483487905"><ele>0.0</ele><time>2026-04-07T10:13:20.001Z</time></trkpt><trkpt lat="43.73311892737144" lon="10.374331245261303"><ele>0.0</ele><time>2026-04-07T10:13:21.001Z</time></trkpt><trkpt lat="43.73298284824315" lon="10.374420059190545"><ele>0.0</ele><time>2026-04-07T10:13:22.001Z</time></trkpt><trkpt lat="43.73284263416068" lon="10.37451593012488"><ele>0.0</ele><time>2026-04-07T10:13:23.001Z</time></trkpt><trkpt lat="43.73269286961126" lon="10.374612551177183"><ele>0.0</ele><time>2026-04-07T10:13:24.001Z</time></trkpt><trkpt lat="43.73253450691989" lon="10.374729375680355"><ele>0.0</ele><time>2026-04-07T10:13:25.001Z</time></trkpt><trkpt lat="43.7323455671969" lon="10.374838508778298"><ele>0.3333333333333333</ele><time>2026-04-07T10:13:26.001Z</time></trkpt><trkpt lat="43.732148414938216" lon="10.37497238212344"><ele>0.6666666666666666</ele><time>2026-04-07T10:13:27.001Z</time></trkpt><trkpt lat="43.73197775176478" lon="10.37508837632191"><ele>1.0</ele><time>2026-04-07T10:13:28.001Z</time></trkpt><trkpt lat="43.731827563593875" lon="10.375200426690066"><ele>1.0</ele><time>2026-04-07T10:13:29.001Z</time></trkpt><trkpt lat="43.73168640860374" lon="10.375285995513408"><ele>1.0</ele><time>2026-04-07T10:13:30.001Z</time></trkpt><trkpt lat="43.731553376127735" lon="10.375370846023246"><ele>1.0</ele><time>2026-04-07T10:13:31.001Z</time></trkpt><trkpt lat="43.73143428018951" lon="10.375458623610589"><ele>1.0</ele><time>2026-04-07T10:13:32.001Z</time></trkpt><trkpt lat="43.73131599001481" lon="10.375539697065905"><ele>1.0</ele><time>2026-04-07T10:13:33.001Z</time></trkpt><trkpt lat="43.73119631806113" lon="10.375617743210425"><ele>1.0</ele><time>2026-04-07T10:13:34.001Z</time></trkpt><trkpt lat="43.731066373898784" lon="10.375703093146345"><ele>1.0</ele><time>2026-04-07T10:13:35.001Z</time></trkpt><trkpt lat="43.73093138422622" lon="10.37580034189267"><ele>1.0</ele><time>2026-04-07T10:13:36.001Z</time></trkpt><trkpt lat="43.730788567217104" lon="10.375893777035438"><ele>1.0</ele><time>2026-04-07T10:13:37.001Z</time></trkpt><trkpt lat="43.73064150448564" lon="10.375987875349772"><ele>1.0</ele><time>2026-04-07T10:13:38.001Z</time></trkpt><trkpt lat="43.730505487272865" lon="10.376082731870726"><ele>1.0</ele><time>2026-04-07T10:13:39.001Z</time></trkpt><trkpt lat="43.73038141812847" lon="10.376166014007325"><ele>1.0</ele><time>2026-04-07T10:13:40.001Z</time></trkpt><trkpt lat="43.73024931118956" lon="10.376253116484635"><ele>1.0</ele><time>2026-04-07T10:13:41.001Z</time></trkpt><trkpt lat="43.73011957499664" lon="10.376343578699121"><ele>1.0</ele><time>2026-04-07T10:13:42.001Z</time></trkpt><trkpt lat="43.729989916383495" lon="10.376433512421219"><ele>1.0</ele><time>2026-04-07T10:13:43.001Z</time></trkpt><trkpt lat="43.729843921515176" lon="10.376542654638504"><ele>0.6666666666666666</ele><time>2026-04-07T10:13:44.001Z</time></trkpt><trkpt lat="43.72967181447214" lon="10.376671799057783"><ele>0.3333333333333333</ele><time>2026-04-07T10:13:45.001Z</time></trkpt><trkpt lat="43.72946898936829" lon="10.376786619625749"><ele>0.0</ele><time>2026-04-07T10:13:46.001Z</time></trkpt><trkpt lat="43.7292657918499" lon="10.376936272352877"><ele>0.0</ele><time>2026-04-07T10:13:47.001Z</time></trkpt><trkpt lat="43.7290861403098" lon="10.377033766331635"><ele>0.0</ele><time>2026-04-07T10:13:48.001Z</time></trkpt><trkpt lat="43.72891641177724" lon="10.377129033147956"><ele>0.0</ele><time>2026-04-07T10:13:49.001Z</time></trkpt><trkpt lat="43.728756048238616" lon="10.377229540694676"><ele>0.3333333333333333</ele><time>2026-04-07T10:13:50.001Z</time></trkpt><trkpt lat="43.72859549255422" lon="10.377317523332554"><ele>0.6666666666666666</ele><time>2026-04-07T10:13:51.001Z</time></trkpt><trkpt lat="43.72844198761682" lon="10.377386169538907"><ele>1.0</ele><time>2026-04-07T10:13:52.001Z</time></trkpt><trkpt lat="43.72827317512171" lon="10.377459880560714"><ele>0.3333333333333333</ele><time>2026-04-07T10:13:53.001Z</time></trkpt><trkpt lat="43.72810051657377" lon="10.377531606214495"><ele>-0.3333333333333333</ele><time>2026-04-07T10:13:54.001Z</time></trkpt><trkpt lat="43.72793054419827" lon="10.377607674334039"><ele>-1.0</ele><time>2026-04-07T10:13:55.001Z</time></trkpt><trkpt lat="43.7277754602626" lon="10.377671272608977"><ele>-0.75</ele><time>2026-04-07T10:13:56.001Z</time></trkpt><trkpt lat="43.72763926820418" lon="10.377721185219489"><ele>-0.5</ele><time>2026-04-07T10:13:57.001Z</time></trkpt><trkpt lat="43.72749167985479" lon="10.377788236317823"><ele>-0.25</ele><time>2026-04-07T10:13:58.001Z</time></trkpt><trkpt lat="43.727361891056404" lon="10.377833404471156"><ele>0.0</ele><time>2026-04-07T10:13:59.001Z</time></trkpt><trkpt lat="43.72724026638597" lon="10.37787392840222"><ele>0.0</ele><time>2026-04-07T10:14:00.001Z</time></trkpt><trkpt lat="43.72711737145999" lon="10.377923311944242"><ele>0.0</ele><time>2026-04-07T10:14:01.001Z</time></trkpt><trkpt lat="43.72698765360551" lon="10.377969452475396"><ele>0.0</ele><time>2026-04-07T10:14:02.001Z</time></trkpt><trkpt lat="43.72689048411514" lon="10.378006660645783"><ele>0.0</ele><time>2026-04-07T10:14:03.001Z</time></trkpt><trkpt lat="43.72647846014854" lon="10.378190134894778"><ele>0.0</ele><time>2026-04-07T10:14:04.001Z</time></trkpt><trkpt lat="43.72629810020562" lon="10.37826416677244"><ele>0.0</ele><time>2026-04-07T10:14:05.001Z</time></trkpt><trkpt lat="43.72612053197121" lon="10.378338662544358"><ele>0.0</ele><time>2026-04-07T10:14:06.001Z</time></trkpt><trkpt lat="43.72593785356367" lon="10.378407528620968"><ele>0.0</ele><time>2026-04-07T10:14:07.001Z</time></trkpt><trkpt lat="43.72574957575313" lon="10.378486301025852"><ele>0.0</ele><time>2026-04-07T10:14:08.001Z</time></trkpt><trkpt lat="43.72556149456239" lon="10.378566442547314"><ele>0.0</ele><time>2026-04-07T10:14:09.001Z</time></trkpt><trkpt lat="43.725369906263865" lon="10.378650826152525"><ele>0.0</ele><time>2026-04-07T10:14:10.001Z</time></trkpt><trkpt lat="43.725176851138336" lon="10.378727355436496"><ele>0.0</ele><time>2026-04-07T10:14:11.001Z</time></trkpt><trkpt lat="43.72499871770014" lon="10.378801313515199"><ele>0.0</ele><time>2026-04-07T10:14:12.001Z</time></trkpt><trkpt lat="43.724829252840095" lon="10.378867955146518"><ele>0.0</ele><time>2026-04-07T10:14:13.001Z</time></trkpt><trkpt lat="43.72467826303912" lon="10.378928376634633"><ele>0.0</ele><time>2026-04-07T10:14:14.001Z</time></trkpt><trkpt lat="43.724532241714584" lon="10.378981355533144"><ele>0.0</ele><time>2026-04-07T10:14:15.001Z</time></trkpt><trkpt lat="43.72440545214828" lon="10.379029539064176"><ele>0.0</ele><time>2026-04-07T10:14:16.001Z</time></trkpt><trkpt lat="43.724294744444954" lon="10.37908206939892"><ele>0.0</ele><time>2026-04-07T10:14:17.001Z</time></trkpt><trkpt lat="43.724195778737" lon="10.379130202098647"><ele>0.0</ele><time>2026-04-07T10:14:18.001Z</time></trkpt><trkpt lat="43.72410043378783" lon="10.37917012841271"><ele>0.0</ele><time>2026-04-07T10:14:19.001Z</time></trkpt><trkpt lat="43.724020982055336" lon="10.379203664735662"><ele>0.0</ele><time>2026-04-07T10:14:20.001Z</time></trkpt><trkpt lat="43.7239526578784" lon="10.379232578535566"><ele>0.0</ele><time>2026-04-07T10:14:21.001Z</time></trkpt><trkpt lat="43.723857104793694" lon="10.37926470423981"><ele>0.0</ele><time>2026-04-07T10:14:23.001Z</time></trkpt><trkpt lat="43.723772377417845" lon="10.379290697706699"><ele>0.0</ele><time>2026-04-07T10:14:27.001Z</time></trkpt><trkpt lat="43.72369294624757" lon="10.379289747857825"><ele>0.0</ele><time>2026-04-07T10:14:30.001Z</time></trkpt><trkpt lat="43.72360420463129" lon="10.379284273352843"><ele>0.0</ele><time>2026-04-07T10:14:33.001Z</time></trkpt><trkpt lat="43.723536665467016" lon="10.379231273757338"><ele>0.0</ele><time>2026-04-07T10:14:35.001Z</time></trkpt><trkpt lat="43.72342249237555" lon="10.37921996917484"><ele>0.0</ele><time>2026-04-07T10:14:37.001Z</time></trkpt><trkpt lat="43.72335788431931" lon="10.379289320353132"><ele>0.0</ele><time>2026-04-07T10:14:38.001Z</time></trkpt><trkpt lat="43.72331583684355" lon="10.37936527861688"><ele>0.0</ele><time>2026-04-07T10:14:39.001Z</time></trkpt><trkpt lat="43.723271436872324" lon="10.37943524500876"><ele>0.0</ele><time>2026-04-07T10:14:40.001Z</time></trkpt><trkpt lat="43.72321736141995" lon="10.379497741856754"><ele>0.0</ele><time>2026-04-07T10:14:41.001Z</time></trkpt><trkpt lat="43.72315136733281" lon="10.379548445118122"><ele>0.0</ele><time>2026-04-07T10:14:42.001Z</time></trkpt><trkpt lat="43.723085052005864" lon="10.379589276789432"><ele>0.0</ele><time>2026-04-07T10:14:43.001Z</time></trkpt><trkpt lat="43.72300434464393" lon="10.379624109826736"><ele>0.0</ele><time>2026-04-07T10:14:44.001Z</time></trkpt><trkpt lat="43.722917216962024" lon="10.379661511378162"><ele>0.0</ele><time>2026-04-07T10:14:45.001Z</time></trkpt><trkpt lat="43.7228191382514" lon="10.379705013837105"><ele>0.0</ele><time>2026-04-07T10:14:46.001Z</time></trkpt><trkpt lat="43.7227177801193" lon="10.379751697452921"><ele>0.0</ele><time>2026-04-07T10:14:47.001Z</time></trkpt><trkpt lat="43.722620530935735" lon="10.379789913152978"><ele>0.0</ele><time>2026-04-07T10:14:48.001Z</time></trkpt><trkpt lat="43.722515485348474" lon="10.37982985694378"><ele>0.0</ele><time>2026-04-07T10:14:49.001Z</time></trkpt><trkpt lat="43.72241055841637" lon="10.379868662514571"><ele>0.0</ele><time>2026-04-07T10:14:50.001Z</time></trkpt><trkpt lat="43.72229768724019" lon="10.379910552731635"><ele>0.0</ele><time>2026-04-07T10:14:51.001Z</time></trkpt><trkpt lat="43.72218141354042" lon="10.379957750181642"><ele>0.0</ele><time>2026-04-07T10:14:52.001Z</time></trkpt><trkpt lat="43.722065844224254" lon="10.380005894241217"><ele>0.0</ele><time>2026-04-07T10:14:53.001Z</time></trkpt><trkpt lat="43.72195757091682" lon="10.38005491772484"><ele>-0.25</ele><time>2026-04-07T10:14:54.001Z</time></trkpt><trkpt lat="43.72185754777122" lon="10.380100221878452"><ele>-0.5</ele><time>2026-04-07T10:14:55.001Z</time></trkpt><trkpt lat="43.72175467119381" lon="10.380142968053509"><ele>-0.75</ele><time>2026-04-07T10:14:56.001Z</time></trkpt><trkpt lat="43.72164281930786" lon="10.380183385750959"><ele>-1.0</ele><time>2026-04-07T10:14:57.001Z</time></trkpt><trkpt lat="43.721521985749206" lon="10.380236090395812"><ele>-1.0</ele><time>2026-04-07T10:14:58.002Z</time></trkpt><trkpt lat="43.72139464079855" lon="10.380291954742498"><ele>-1.0</ele><time>2026-04-07T10:14:59.002Z</time></trkpt><trkpt lat="43.7212473807956" lon="10.380349703967674"><ele>-1.0</ele><time>2026-04-07T10:15:00.002Z</time></trkpt><trkpt lat="43.7211065349106" lon="10.38041513688359"><ele>-1.0</ele><time>2026-04-07T10:15:01.002Z</time></trkpt><trkpt lat="43.72098002293525" lon="10.380460231299322"><ele>-0.75</ele><time>2026-04-07T10:15:02.002Z</time></trkpt><trkpt lat="43.72085067202361" lon="10.380515381263823"><ele>-0.5</ele><time>2026-04-07T10:15:03.002Z</time></trkpt><trkpt lat="43.720719484556305" lon="10.380563529184986"><ele>-0.25</ele><time>2026-04-07T10:15:04.002Z</time></trkpt><trkpt lat="43.72057627368632" lon="10.38062261582129"><ele>0.0</ele><time>2026-04-07T10:15:05.001Z</time></trkpt><trkpt lat="43.720432580575434" lon="10.38068519345703"><ele>0.0</ele><time>2026-04-07T10:15:06.001Z</time></trkpt><trkpt lat="43.720292703146235" lon="10.38073835155424"><ele>0.0</ele><time>2026-04-07T10:15:07.001Z</time></trkpt><trkpt lat="43.7201692042319" lon="10.380796858617966"><ele>0.0</ele><time>2026-04-07T10:15:08.001Z</time></trkpt><trkpt lat="43.72004257640938" lon="10.3808461274953"><ele>0.0</ele><time>2026-04-07T10:15:09.001Z</time></trkpt><trkpt lat="43.71990630261973" lon="10.380899123149549"><ele>0.75</ele><time>2026-04-07T10:15:10.001Z</time></trkpt><trkpt lat="43.71976068553313" lon="10.380959478248087"><ele>1.5</ele><time>2026-04-07T10:15:11.001Z</time></trkpt><trkpt lat="43.71962954535909" lon="10.381018783637993"><ele>2.25</ele><time>2026-04-07T10:15:12.001Z</time></trkpt><trkpt lat="43.7195047897257" lon="10.3810764870468"><ele>3.0</ele><time>2026-04-07T10:15:13.001Z</time></trkpt><trkpt lat="43.719376082061586" lon="10.38112661040323"><ele>3.25</ele><time>2026-04-07T10:15:14.001Z</time></trkpt><trkpt lat="43.719238239373745" lon="10.381182642157341"><ele>3.5</ele><time>2026-04-07T10:15:15.001Z</time></trkpt><trkpt lat="43.719106836548924" lon="10.381238350675364"><ele>3.75</ele><time>2026-04-07T10:15:16.001Z</time></trkpt><trkpt lat="43.71899563217468" lon="10.381288144342768"><ele>4.0</ele><time>2026-04-07T10:15:17.001Z</time></trkpt><trkpt lat="43.71887201820861" lon="10.38133872789184"><ele>4.0</ele><time>2026-04-07T10:15:18.001Z</time></trkpt><trkpt lat="43.71874662643659" lon="10.381388383416665"><ele>4.0</ele><time>2026-04-07T10:15:19.001Z</time></trkpt><trkpt lat="43.718639769214015" lon="10.381435269211373"><ele>4.0</ele><time>2026-04-07T10:15:20.001Z</time></trkpt><trkpt lat="43.718517871444256" lon="10.3814792036658"><ele>4.0</ele><time>2026-04-07T10:15:21.001Z</time></trkpt><trkpt lat="43.718402022552894" lon="10.381533495540307"><ele>4.0</ele><time>2026-04-07T10:15:22.001Z</time></trkpt><trkpt lat="43.71829267387351" lon="10.38157459195314"><ele>4.0</ele><time>2026-04-07T10:15:23.001Z</time></trkpt><trkpt lat="43.7181837333272" lon="10.381628253060864"><ele>4.0</ele><time>2026-04-07T10:15:24.001Z</time></trkpt><trkpt lat="43.71809202713726" lon="10.381664466014126"><ele>4.0</ele><time>2026-04-07T10:15:25.001Z</time></trkpt><trkpt lat="43.71799521124067" lon="10.38170578055298"><ele>4.0</ele><time>2026-04-07T10:15:26.001Z</time></trkpt><trkpt lat="43.71790159476298" lon="10.381743325734503"><ele>4.0</ele><time>2026-04-07T10:15:27.001Z</time></trkpt><trkpt lat="43.7178242909558" lon="10.381771755115873"><ele>4.0</ele><time>2026-04-07T10:15:28.001Z</time></trkpt><trkpt lat="43.71770958733157" lon="10.38183047772025"><ele>4.0</ele><time>2026-04-07T10:15:30.001Z</time></trkpt><trkpt lat="43.717596181743275" lon="10.381874008498919"><ele>4.0</ele><time>2026-04-07T10:15:32.001Z</time></trkpt><trkpt lat="43.71752921686393" lon="10.381895943952"><ele>4.0</ele><time>2026-04-07T10:15:33.001Z</time></trkpt><trkpt lat="43.71744423185386" lon="10.38192200464844"><ele>4.142857142857142</ele><time>2026-04-07T10:15:34.001Z</time></trkpt><trkpt lat="43.717368656945325" lon="10.38193036013362"><ele>4.285714285714286</ele><time>2026-04-07T10:15:35.001Z</time></trkpt><trkpt lat="43.717294789108934" lon="10.38191579194989"><ele>4.428571428571429</ele><time>2026-04-07T10:15:36.001Z</time></trkpt><trkpt lat="43.71722600776608" lon="10.38188620039275"><ele>4.571428571428571</ele><time>2026-04-07T10:15:37.001Z</time></trkpt><trkpt lat="43.71715407781925" lon="10.381840266124476"><ele>4.714285714285714</ele><time>2026-04-07T10:15:38.001Z</time></trkpt><trkpt lat="43.71708349363194" lon="10.381809920457869"><ele>4.857142857142857</ele><time>2026-04-07T10:15:39.001Z</time></trkpt><trkpt lat="43.71701192372565" lon="10.381817043320641"><ele>5.0</ele><time>2026-04-07T10:15:40.001Z</time></trkpt><trkpt lat="43.71692759393764" lon="10.381932900142202"><ele>4.6</ele><time>2026-04-07T10:15:42.001Z</time></trkpt><trkpt lat="43.71689786056271" lon="10.382078241563057"><ele>4.2</ele><time>2026-04-07T10:15:44.001Z</time></trkpt><trkpt lat="43.71684840930476" lon="10.382150814351297"><ele>3.8</ele><time>2026-04-07T10:15:47.001Z</time></trkpt><trkpt lat="43.716770331274304" lon="10.382223297790564"><ele>3.4</ele><time>2026-04-07T10:15:50Z</time></trkpt><trkpt lat="43.71666807635239" lon="10.382269244544315"><ele>3.0</ele><time>2026-04-07T10:15:52Z</time></trkpt><trkpt lat="43.71654053584623" lon="10.382319596332632"><ele>2.8</ele><time>2026-04-07T10:15:54Z</time></trkpt><trkpt lat="43.7164589024573" lon="10.382354487361221"><ele>2.5999999999999996</ele><time>2026-04-07T10:15:55Z</time></trkpt><trkpt lat="43.71638124410353" lon="10.382383631490164"><ele>2.4000000000000004</ele><time>2026-04-07T10:15:56Z</time></trkpt><trkpt lat="43.71630028141522" lon="10.382412518156691"><ele>2.2</ele><time>2026-04-07T10:15:57Z</time></trkpt><trkpt lat="43.71620575087495" lon="10.382451212445384"><ele>2.0</ele><time>2026-04-07T10:15:58Z</time></trkpt><trkpt lat="43.71610347268403" lon="10.382494986782698"><ele>2.0</ele><time>2026-04-07T10:15:59Z</time></trkpt><trkpt lat="43.71600645956917" lon="10.382533961851696"><ele>2.0</ele><time>2026-04-07T10:16:00Z</time></trkpt><trkpt lat="43.715907240650296" lon="10.382575758536737"><ele>2.0</ele><time>2026-04-07T10:16:01Z</time></trkpt><trkpt lat="43.715806885702754" lon="10.38261873857185"><ele>2.0</ele><time>2026-04-07T10:16:02Z</time></trkpt><trkpt lat="43.7157063052439" lon="10.382658426610842"><ele>2.0</ele><time>2026-04-07T10:16:03Z</time></trkpt><trkpt lat="43.71560701157662" lon="10.382700745525689"><ele>2.0</ele><time>2026-04-07T10:16:04Z</time></trkpt><trkpt lat="43.71550741711757" lon="10.382741843843426"><ele>2.0</ele><time>2026-04-07T10:16:05Z</time></trkpt><trkpt lat="43.7154038315384" lon="10.38278480744142"><ele>2.0</ele><time>2026-04-07T10:16:06Z</time></trkpt><trkpt lat="43.71529534138765" lon="10.38283085859922"><ele>2.0</ele><time>2026-04-07T10:16:07Z</time></trkpt><trkpt lat="43.71519271444547" lon="10.382874501326695"><ele>2.0</ele><time>2026-04-07T10:16:08Z</time></trkpt><trkpt lat="43.715095667854584" lon="10.382914473626695"><ele>2.2</ele><time>2026-04-07T10:16:09Z</time></trkpt><trkpt lat="43.715000275283394" lon="10.382952060164348"><ele>2.4000000000000004</ele><time>2026-04-07T10:16:10Z</time></trkpt><trkpt lat="43.714903950602476" lon="10.382998205603137"><ele>2.5999999999999996</ele><time>2026-04-07T10:16:11Z</time></trkpt><trkpt lat="43.71479915866956" lon="10.383045679990612"><ele>2.8</ele><time>2026-04-07T10:16:12Z</time></trkpt><trkpt lat="43.71468595727995" lon="10.383095366250895"><ele>3.0</ele><time>2026-04-07T10:16:13Z</time></trkpt><trkpt lat="43.71457158738355" lon="10.383137711665206"><ele>3.0</ele><time>2026-04-07T10:16:14Z</time></trkpt><trkpt lat="43.7144631447082" lon="10.383179804513453"><ele>3.0</ele><time>2026-04-07T10:16:15Z</time></trkpt><trkpt lat="43.71436809438968" lon="10.383223540466961"><ele>3.0</ele><time>2026-04-07T10:16:16Z</time></trkpt><trkpt lat="43.71426835885157" lon="10.383262550318298"><ele>3.0</ele><time>2026-04-07T10:16:17Z</time></trkpt><trkpt lat="43.71416377220087" lon="10.383306538374244"><ele>3.0</ele><time>2026-04-07T10:16:18Z</time></trkpt><trkpt lat="43.71404802276609" lon="10.38335125103248"><ele>2.75</ele><time>2026-04-07T10:16:19Z</time></trkpt><trkpt lat="43.713920772605704" lon="10.38340047774554"><ele>2.5</ele><time>2026-04-07T10:16:20Z</time></trkpt><trkpt lat="43.71380592016509" lon="10.383449218269726"><ele>2.25</ele><time>2026-04-07T10:16:21Z</time></trkpt><trkpt lat="43.713704637924984" lon="10.383490304825813"><ele>2.0</ele><time>2026-04-07T10:16:22Z</time></trkpt><trkpt lat="43.71360056489344" lon="10.383532882781967"><ele>1.8</ele><time>2026-04-07T10:16:23Z</time></trkpt><trkpt lat="43.713498334815206" lon="10.383573238159558"><ele>1.6</ele><time>2026-04-07T10:16:24Z</time></trkpt><trkpt lat="43.71339650187458" lon="10.38359985869941"><ele>1.4000000000000001</ele><time>2026-04-07T10:16:25Z</time></trkpt><trkpt lat="43.713303966045686" lon="10.383610189506006"><ele>1.2000000000000002</ele><time>2026-04-07T10:16:26Z</time></trkpt><trkpt lat="43.71322236158612" lon="10.383610506796792"><ele>1.0</ele><time>2026-04-07T10:16:27Z</time></trkpt><trkpt lat="43.71315112060341" lon="10.383603994838298"><ele>1.0</ele><time>2026-04-07T10:16:28Z</time></trkpt><trkpt lat="43.713085321308625" lon="10.38359389903566"><ele>1.0</ele><time>2026-04-07T10:16:29Z</time></trkpt><trkpt lat="43.712953067866835" lon="10.38355489591628"><ele>1.0</ele><time>2026-04-07T10:16:31Z</time></trkpt><trkpt lat="43.712882753976196" lon="10.383510684511768"><ele>1.0</ele><time>2026-04-07T10:16:32Z</time></trkpt><trkpt lat="43.71283036359846" lon="10.38346039582864"><ele>1.0</ele><time>2026-04-07T10:16:33Z</time></trkpt><trkpt lat="43.71271754165634" lon="10.38343468202018"><ele>0.9999999999999999</ele><time>2026-04-07T10:16:35Z</time></trkpt><trkpt lat="43.71262079208856" lon="10.383540860936712"><ele>1.0</ele><time>2026-04-07T10:16:37Z</time></trkpt><trkpt lat="43.712579637164865" lon="10.383634990581218"><ele>1.0</ele><time>2026-04-07T10:16:38Z</time></trkpt><trkpt lat="43.71253095825406" lon="10.383730752001387"><ele>1.0</ele><time>2026-04-07T10:16:39Z</time></trkpt><trkpt lat="43.71247518556506" lon="10.383812660164175"><ele>0.9999999999999999</ele><time>2026-04-07T10:16:40Z</time></trkpt><trkpt lat="43.712424354981685" lon="10.38386683524159"><ele>1.0</ele><time>2026-04-07T10:16:41Z</time></trkpt><trkpt lat="43.71234220018809" lon="10.383948579831202"><ele>1.0</ele><time>2026-04-07T10:16:43Z</time></trkpt><trkpt lat="43.71227774024166" lon="10.384008256634967"><ele>1.0</ele><time>2026-04-07T10:16:45Z</time></trkpt><trkpt lat="43.71218553243829" lon="10.384074683892408"><ele>1.0</ele><time>2026-04-07T10:16:47Z</time></trkpt><trkpt lat="43.71212410092478" lon="10.384117015744708"><ele>1.0</ele><time>2026-04-07T10:16:48Z</time></trkpt><trkpt lat="43.71201207666971" lon="10.384169013348108"><ele>1.0</ele><time>2026-04-07T10:16:50Z</time></trkpt><trkpt lat="43.71188982593673" lon="10.38422492399114"><ele>1.6</ele><time>2026-04-07T10:16:52Z</time></trkpt><trkpt lat="43.71180449468023" lon="10.384277343299432"><ele>2.2</ele><time>2026-04-07T10:16:54Z</time></trkpt><trkpt lat="43.711737471647716" lon="10.384303096206112"><ele>2.8000000000000003</ele><time>2026-04-07T10:16:58Z</time></trkpt><trkpt lat="43.7116258418808" lon="10.384356086962338"><ele>3.4000000000000004</ele><time>2026-04-07T10:17:00Z</time></trkpt><trkpt lat="43.7115497303481" lon="10.384392648167223"><ele>4.0</ele><time>2026-04-07T10:17:01Z</time></trkpt><trkpt lat="43.711461692708816" lon="10.384427716079266"><ele>3.9999999999999996</ele><time>2026-04-07T10:17:02Z</time></trkpt><trkpt lat="43.71137233739212" lon="10.384460396117259"><ele>4.0</ele><time>2026-04-07T10:17:03Z</time></trkpt><trkpt lat="43.711279442351355" lon="10.384498974199971"><ele>4.0</ele><time>2026-04-07T10:17:04.001Z</time></trkpt><trkpt lat="43.71120507460897" lon="10.384528615113435"><ele>4.0</ele><time>2026-04-07T10:17:05.001Z</time></trkpt><trkpt lat="43.71113450684981" lon="10.384557979530005"><ele>3.9999999999999996</ele><time>2026-04-07T10:17:06.001Z</time></trkpt><trkpt lat="43.7110579946386" lon="10.384591026775981"><ele>4.0</ele><time>2026-04-07T10:17:07.001Z</time></trkpt><trkpt lat="43.71098593965287" lon="10.38462035270095"><ele>3.8000000000000003</ele><time>2026-04-07T10:17:08.001Z</time></trkpt><trkpt lat="43.71085978478326" lon="10.384667916133871"><ele>3.6000000000000005</ele><time>2026-04-07T10:17:10.001Z</time></trkpt><trkpt lat="43.71078469499217" lon="10.384696775716257"><ele>3.4</ele><time>2026-04-07T10:17:11.001Z</time></trkpt><trkpt lat="43.710717948441804" lon="10.384722919778085"><ele>3.2</ele><time>2026-04-07T10:17:12.001Z</time></trkpt><trkpt lat="43.710631801024746" lon="10.384758528740862"><ele>3.0</ele><time>2026-04-07T10:17:14.001Z</time></trkpt><trkpt lat="43.7105535119585" lon="10.384797594511324"><ele>3.0</ele><time>2026-04-07T10:17:16.001Z</time></trkpt><trkpt lat="43.71045864752339" lon="10.384839127449423"><ele>3.0</ele><time>2026-04-07T10:17:18.001Z</time></trkpt><trkpt lat="43.71034601358858" lon="10.38487864816103"><ele>3.0</ele><time>2026-04-07T10:17:20.001Z</time></trkpt><trkpt lat="43.71028032374481" lon="10.384897454558658"><ele>3.0</ele><time>2026-04-07T10:17:21.001Z</time></trkpt><trkpt lat="43.71020472944162" lon="10.38491959017138"><ele>3.0</ele><time>2026-04-07T10:17:22.001Z</time></trkpt><trkpt lat="43.71012494933902" lon="10.38494525790539"><ele>3.0</ele><time>2026-04-07T10:17:23.001Z</time></trkpt><trkpt lat="43.7100613791988" lon="10.38496309301915"><ele>3.1666666666666665</ele><time>2026-04-07T10:17:24.001Z</time></trkpt><trkpt lat="43.709944721225106" lon="10.384999948418965"><ele>3.333333333333333</ele><time>2026-04-07T10:17:26.001Z</time></trkpt><trkpt lat="43.70986389711165" lon="10.385020698929107"><ele>3.5</ele><time>2026-04-07T10:17:28.001Z</time></trkpt><trkpt lat="43.70979785839062" lon="10.385036417008791"><ele>3.6666666666666665</ele><time>2026-04-07T10:17:30Z</time></trkpt><trkpt lat="43.709699357077554" lon="10.385069867007369"><ele>3.833333333333333</ele><time>2026-04-07T10:17:33Z</time></trkpt><trkpt lat="43.70962692831808" lon="10.385088813403494"><ele>4.0</ele><time>2026-04-07T10:17:35Z</time></trkpt><trkpt lat="43.709562674607724" lon="10.385099423185288"><ele>3.9999999999999996</ele><time>2026-04-07T10:17:37Z</time></trkpt><trkpt lat="43.70949189781989" lon="10.385120222588087"><ele>4.0</ele><time>2026-04-07T10:17:40Z</time></trkpt><trkpt lat="43.709428750568115" lon="10.38513789395428"><ele>4.0</ele><time>2026-04-07T10:17:46Z</time></trkpt><trkpt lat="43.70934213989148" lon="10.385168022241128"><ele>4.0</ele><time>2026-04-07T10:17:49Z</time></trkpt><trkpt lat="43.70925749009033" lon="10.385200431288823"><ele>3.9999999999999996</ele><time>2026-04-07T10:17:51Z</time></trkpt><trkpt lat="43.70919284175151" lon="10.385218604841766"><ele>4.0</ele><time>2026-04-07T10:17:53Z</time></trkpt><trkpt lat="43.70910236910401" lon="10.38523332094771"><ele>3.9999999999999996</ele><time>2026-04-07T10:17:56Z</time></trkpt><trkpt lat="43.70901962721981" lon="10.38524854618133"><ele>4.0</ele><time>2026-04-07T10:17:59Z</time></trkpt><trkpt lat="43.70895254411328" lon="10.38524499187293"><ele>4.0</ele><time>2026-04-07T10:18:01Z</time></trkpt><trkpt lat="43.70886446336654" lon="10.385201011185835"><ele>4.0</ele><time>2026-04-07T10:18:04Z</time></trkpt><trkpt lat="43.70878937641119" lon="10.385162078378253"><ele>3.9999999999999996</ele><time>2026-04-07T10:18:06Z</time></trkpt><trkpt lat="43.708678863226346" lon="10.385174289815524"><ele>4.0</ele><time>2026-04-07T10:18:08Z</time></trkpt><trkpt lat="43.70858551841216" lon="10.385268160743635"><ele>3.9999999999999996</ele><time>2026-04-07T10:18:10Z</time></trkpt><trkpt lat="43.708481189407806" lon="10.385361578331004"><ele>4.0</ele><time>2026-04-07T10:18:12Z</time></trkpt><trkpt lat="43.708406865810296" lon="10.385398332463605"><ele>4.0</ele><time>2026-04-07T10:18:13Z</time></trkpt><trkpt lat="43.70833225929634" lon="10.385421572089692"><ele>4.0</ele><time>2026-04-07T10:18:14Z</time></trkpt><trkpt lat="43.708248150608625" lon="10.385438322466474"><ele>3.9999999999999996</ele><time>2026-04-07T10:18:15Z</time></trkpt><trkpt lat="43.70816729133765" lon="10.385457326445772"><ele>4.0</ele><time>2026-04-07T10:18:16Z</time></trkpt><trkpt lat="43.70809806967234" lon="10.385477047388468"><ele>3.9999999999999996</ele><time>2026-04-07T10:18:17Z</time></trkpt><trkpt lat="43.708032973455715" lon="10.385496619795413"><ele>4.0</ele><time>2026-04-07T10:18:18Z</time></trkpt><trkpt lat="43.70795858111399" lon="10.38551711337016"><ele>4.0</ele><time>2026-04-07T10:18:19Z</time></trkpt><trkpt lat="43.70789198452961" lon="10.385534402335566"><ele>4.0</ele><time>2026-04-07T10:18:20Z</time></trkpt><trkpt lat="43.70782369190408" lon="10.385551549621937"><ele>3.9999999999999996</ele><time>2026-04-07T10:18:21Z</time></trkpt><trkpt lat="43.7077417363124" lon="10.385573038635913"><ele>4.0</ele><time>2026-04-07T10:18:22Z</time></trkpt><trkpt lat="43.70764912116871" lon="10.385600538195472"><ele>4.6</ele><time>2026-04-07T10:18:23Z</time></trkpt><trkpt lat="43.70755753542039" lon="10.385622557032871"><ele>5.2</ele><time>2026-04-07T10:18:24Z</time></trkpt><trkpt lat="43.70746425967179" lon="10.385649481306919"><ele>5.799999999999999</ele><time>2026-04-07T10:18:25Z</time></trkpt><trkpt lat="43.70738093155769" lon="10.385671186574875"><ele>6.3999999999999995</ele><time>2026-04-07T10:18:26Z</time></trkpt><trkpt lat="43.707293193541226" lon="10.385692426003505"><ele>7.0</ele><time>2026-04-07T10:18:27Z</time></trkpt><trkpt lat="43.707200265495885" lon="10.385715172367124"><ele>7.0</ele><time>2026-04-07T10:18:28Z</time></trkpt><trkpt lat="43.707102833028834" lon="10.3857371970945"><ele>6.999999999999999</ele><time>2026-04-07T10:18:29Z</time></trkpt><trkpt lat="43.707007509660436" lon="10.385760409302344"><ele>6.999999999999999</ele><time>2026-04-07T10:18:30Z</time></trkpt><trkpt lat="43.70692140138276" lon="10.385780041959404"><ele>7.0</ele><time>2026-04-07T10:18:31Z</time></trkpt><trkpt lat="43.70683760683383" lon="10.38580331982359"><ele>7.0</ele><time>2026-04-07T10:18:32Z</time></trkpt><trkpt lat="43.7067508232311" lon="10.385828234127414"><ele>6.333333333333334</ele><time>2026-04-07T10:18:33Z</time></trkpt><trkpt lat="43.70666170046495" lon="10.385851262070068"><ele>5.666666666666667</ele><time>2026-04-07T10:18:34Z</time></trkpt><trkpt lat="43.70657570259187" lon="10.385878364646194"><ele>5.0</ele><time>2026-04-07T10:18:35Z</time></trkpt><trkpt lat="43.706486132576586" lon="10.385901616734742"><ele>4.333333333333334</ele><time>2026-04-07T10:18:36Z</time></trkpt><trkpt lat="43.706399359818185" lon="10.385924824885953"><ele>3.666666666666667</ele><time>2026-04-07T10:18:37Z</time></trkpt><trkpt lat="43.7063168911047" lon="10.385947774591958"><ele>3.0</ele><time>2026-04-07T10:18:38Z</time></trkpt><trkpt lat="43.706233195573596" lon="10.385969350123862"><ele>3.0</ele><time>2026-04-07T10:18:39Z</time></trkpt><trkpt lat="43.70614485994508" lon="10.38599313547499"><ele>3.0</ele><time>2026-04-07T10:18:40Z</time></trkpt><trkpt lat="43.7060479367155" lon="10.3860146960514"><ele>3.0</ele><time>2026-04-07T10:18:41Z</time></trkpt><trkpt lat="43.70595758925881" lon="10.386034381975582"><ele>3.0</ele><time>2026-04-07T10:18:42Z</time></trkpt><trkpt lat="43.70587391842924" lon="10.386052149895239"><ele>3.0</ele><time>2026-04-07T10:18:43Z</time></trkpt><trkpt lat="43.70578601429344" lon="10.386072820352892"><ele>3.0</ele><time>2026-04-07T10:18:44Z</time></trkpt><trkpt lat="43.70569343692968" lon="10.386095331834017"><ele>3.0</ele><time>2026-04-07T10:18:45Z</time></trkpt><trkpt lat="43.705607971320234" lon="10.386116143070218"><ele>3.0</ele><time>2026-04-07T10:18:46Z</time></trkpt><trkpt lat="43.70552434788076" lon="10.386137768553844"><ele>3.0</ele><time>2026-04-07T10:18:47Z</time></trkpt><trkpt lat="43.70543850148307" lon="10.386158735663518"><ele>3.0</ele><time>2026-04-07T10:18:48Z</time></trkpt><trkpt lat="43.70534700277328" lon="10.38618255693147"><ele>3.0</ele><time>2026-04-07T10:18:49Z</time></trkpt><trkpt lat="43.705252629400995" lon="10.386204567758309"><ele>2.6</ele><time>2026-04-07T10:18:50Z</time></trkpt><trkpt lat="43.70516466148795" lon="10.386228057489296"><ele>2.1999999999999997</ele><time>2026-04-07T10:18:51Z</time></trkpt><trkpt lat="43.70507121082714" lon="10.386248022672392"><ele>1.8</ele><time>2026-04-07T10:18:52Z</time></trkpt><trkpt lat="43.70497469265204" lon="10.38627059950115"><ele>1.4</ele><time>2026-04-07T10:18:53Z</time></trkpt><trkpt lat="43.704884434113495" lon="10.38629130599458"><ele>1.0</ele><time>2026-04-07T10:18:54Z</time></trkpt><trkpt lat="43.70479976153766" lon="10.38631010435859"><ele>0.9999999999999999</ele><time>2026-04-07T10:18:55Z</time></trkpt><trkpt lat="43.70471567300957" lon="10.386331680205055"><ele>1.0</ele><time>2026-04-07T10:18:56Z</time></trkpt><trkpt lat="43.70463624526488" lon="10.386354458089459"><ele>1.0</ele><time>2026-04-07T10:18:57Z</time></trkpt><trkpt lat="43.704554682784135" lon="10.386376631861584"><ele>1.0</ele><time>2026-04-07T10:18:58Z</time></trkpt><trkpt lat="43.7044631079546" lon="10.386399694339802"><ele>0.9999999999999999</ele><time>2026-04-07T10:18:59Z</time></trkpt><trkpt lat="43.70436595298675" lon="10.386423994657148"><ele>1.0</ele><time>2026-04-07T10:19:00Z</time></trkpt><trkpt lat="43.70427632484582" lon="10.386443544146374"><ele>1.2000000000000002</ele><time>2026-04-07T10:19:01Z</time></trkpt><trkpt lat="43.70418782558116" lon="10.386461829560565"><ele>1.4000000000000001</ele><time>2026-04-07T10:19:02Z</time></trkpt><trkpt lat="43.70409688622847" lon="10.386481203573824"><ele>1.6</ele><time>2026-04-07T10:19:03Z</time></trkpt><trkpt lat="43.704004319329975" lon="10.38650021117632"><ele>1.8</ele><time>2026-04-07T10:19:04Z</time></trkpt><trkpt lat="43.7039108537156" lon="10.38652299071534"><ele>2.0</ele><time>2026-04-07T10:19:05Z</time></trkpt><trkpt lat="43.70381444055328" lon="10.386548492922731"><ele>1.9999999999999998</ele><time>2026-04-07T10:19:06Z</time></trkpt><trkpt lat="43.70372190400925" lon="10.386571346234403"><ele>2.0</ele><time>2026-04-07T10:19:07Z</time></trkpt><trkpt lat="43.70364164120051" lon="10.386596214108952"><ele>2.0</ele><time>2026-04-07T10:19:08Z</time></trkpt><trkpt lat="43.70357784087566" lon="10.38662138819181"><ele>2.0</ele><time>2026-04-07T10:19:09Z</time></trkpt><trkpt lat="43.703456038747625" lon="10.3866695803882"><ele>1.9999999999999998</ele><time>2026-04-07T10:19:11.001Z</time></trkpt><trkpt lat="43.70338800349371" lon="10.386688887936966"><ele>2.0</ele><time>2026-04-07T10:19:12.001Z</time></trkpt><trkpt lat="43.70332548127403" lon="10.38670178841521"><ele>2.0</ele><time>2026-04-07T10:19:13.001Z</time></trkpt><trkpt lat="43.70320991214926" lon="10.38670658153763"><ele>2.0</ele><time>2026-04-07T10:19:15.001Z</time></trkpt><trkpt lat="43.703111109100675" lon="10.386664373960086"><ele>2.0</ele><time>2026-04-07T10:19:17.001Z</time></trkpt><trkpt lat="43.70302660562256" lon="10.38664486002507"><ele>2.0</ele><time>2026-04-07T10:19:19Z</time></trkpt><trkpt lat="43.7029417194376" lon="10.386669033327898"><ele>2.0</ele><time>2026-04-07T10:19:21Z</time></trkpt><trkpt lat="43.70287836624303" lon="10.386771508846993"><ele>2.0</ele><time>2026-04-07T10:19:23Z</time></trkpt><trkpt lat="43.70286273480725" lon="10.386893097875108"><ele>2.0</ele><time>2026-04-07T10:19:25Z</time></trkpt><trkpt lat="43.70286709337617" lon="10.387012543689034"><ele>2.0</ele><time>2026-04-07T10:19:27Z</time></trkpt><trkpt lat="43.70283726180693" lon="10.387124088515343"><ele>2.0</ele><time>2026-04-07T10:19:29Z</time></trkpt><trkpt lat="43.702780067653904" lon="10.38722798628144"><ele>2.0</ele><time>2026-04-07T10:19:31Z</time></trkpt><trkpt lat="43.70268607224758" lon="10.38734257879034"><ele>2.1666666666666665</ele><time>2026-04-07T10:19:33Z</time></trkpt><trkpt lat="43.70261864892479" lon="10.387403857469245"><ele>2.333333333333333</ele><time>2026-04-07T10:19:34Z</time></trkpt><trkpt lat="43.702551985273246" lon="10.387458593617914"><ele>2.5</ele><time>2026-04-07T10:19:35Z</time></trkpt><trkpt lat="43.70247002452528" lon="10.387522278813885"><ele>2.6666666666666665</ele><time>2026-04-07T10:19:36Z</time></trkpt><trkpt lat="43.70237961219474" lon="10.387589161358411"><ele>2.8333333333333335</ele><time>2026-04-07T10:19:37Z</time></trkpt><trkpt lat="43.70229806730992" lon="10.387653430706736"><ele>3.0</ele><time>2026-04-07T10:19:38Z</time></trkpt><trkpt lat="43.702228437058515" lon="10.387709491403529"><ele>3.0</ele><time>2026-04-07T10:19:39Z</time></trkpt><trkpt lat="43.70215731214237" lon="10.387766112945988"><ele>3.0</ele><time>2026-04-07T10:19:40Z</time></trkpt><trkpt lat="43.702073680591745" lon="10.387830063578672"><ele>3.0</ele><time>2026-04-07T10:19:41Z</time></trkpt><trkpt lat="43.701981786523454" lon="10.387903693100366"><ele>3.0</ele><time>2026-04-07T10:19:42Z</time></trkpt><trkpt lat="43.7019060507193" lon="10.387970554666596"><ele>3.0</ele><time>2026-04-07T10:19:43Z</time></trkpt><trkpt lat="43.701818211431586" lon="10.388041283288372"><ele>3.0</ele><time>2026-04-07T10:19:44Z</time></trkpt><trkpt lat="43.70173568017566" lon="10.388108916284457"><ele>3.0</ele><time>2026-04-07T10:19:45Z</time></trkpt><trkpt lat="43.70165389929023" lon="10.38817442049414"><ele>3.0</ele><time>2026-04-07T10:19:46Z</time></trkpt><trkpt lat="43.70156092853035" lon="10.38824514159634"><ele>3.0</ele><time>2026-04-07T10:19:47Z</time></trkpt><trkpt lat="43.70145878506912" lon="10.388330436300565"><ele>3.0</ele><time>2026-04-07T10:19:48Z</time></trkpt><trkpt lat="43.701354789942606" lon="10.388399686464858"><ele>3.0</ele><time>2026-04-07T10:19:49Z</time></trkpt><trkpt lat="43.70125002819798" lon="10.388470480698574"><ele>3.0</ele><time>2026-04-07T10:19:50Z</time></trkpt><trkpt lat="43.7011276277854" lon="10.38854174696524"><ele>3.0</ele><time>2026-04-07T10:19:51Z</time></trkpt><trkpt lat="43.701005793944304" lon="10.388602730072565"><ele>3.0</ele><time>2026-04-07T10:19:52Z</time></trkpt><trkpt lat="43.70088684884236" lon="10.388662955408433"><ele>2.75</ele><time>2026-04-07T10:19:53Z</time></trkpt><trkpt lat="43.70077375274439" lon="10.388713266565155"><ele>2.5</ele><time>2026-04-07T10:19:54Z</time></trkpt><trkpt lat="43.70066262293288" lon="10.388761430980187"><ele>2.25</ele><time>2026-04-07T10:19:55Z</time></trkpt><trkpt lat="43.70055676037359" lon="10.388807189376921"><ele>2.0</ele><time>2026-04-07T10:19:56Z</time></trkpt><trkpt lat="43.700455221374426" lon="10.388852879597298"><ele>1.6</ele><time>2026-04-07T10:19:57Z</time></trkpt><trkpt lat="43.70034913578143" lon="10.3888880974592"><ele>1.2000000000000002</ele><time>2026-04-07T10:19:58Z</time></trkpt><trkpt lat="43.70024291807768" lon="10.388922249276137"><ele>0.8</ele><time>2026-04-07T10:19:59Z</time></trkpt><trkpt lat="43.70013825294975" lon="10.388944634133237"><ele>0.4</ele><time>2026-04-07T10:20:00Z</time></trkpt><trkpt lat="43.70003814715131" lon="10.388965778546687"><ele>0.0</ele><time>2026-04-07T10:20:01Z</time></trkpt><trkpt lat="43.6999467455072" lon="10.388982816998476"><ele>0.0</ele><time>2026-04-07T10:20:02Z</time></trkpt><trkpt lat="43.69985225346954" lon="10.388996380645743"><ele>0.0</ele><time>2026-04-07T10:20:03Z</time></trkpt><trkpt lat="43.699755396578986" lon="10.389003160915847"><ele>0.0</ele><time>2026-04-07T10:20:04Z</time></trkpt><trkpt lat="43.699671579652545" lon="10.389005545648484"><ele>0.0</ele><time>2026-04-07T10:20:05Z</time></trkpt><trkpt lat="43.699598642079444" lon="10.388994997655502"><ele>0.0</ele><time>2026-04-07T10:20:06Z</time></trkpt><trkpt lat="43.69948120332291" lon="10.3890001214251"><ele>0.2</ele><time>2026-04-07T10:20:08Z</time></trkpt><trkpt lat="43.699348105632495" lon="10.389028551392146"><ele>0.4</ele><time>2026-04-07T10:20:10Z</time></trkpt><trkpt lat="43.69927440332746" lon="10.389042088457062"><ele>0.6000000000000001</ele><time>2026-04-07T10:20:11Z</time></trkpt><trkpt lat="43.69919420055984" lon="10.389037321413516"><ele>0.8</ele><time>2026-04-07T10:20:12Z</time></trkpt><trkpt lat="43.69911500265263" lon="10.389030218220437"><ele>1.0</ele><time>2026-04-07T10:20:13Z</time></trkpt><trkpt lat="43.69903108556677" lon="10.389016534000756"><ele>1.0</ele><time>2026-04-07T10:20:14Z</time></trkpt><trkpt lat="43.698939753300664" lon="10.388996573052175"><ele>1.0</ele><time>2026-04-07T10:20:15Z</time></trkpt><trkpt lat="43.69884116956635" lon="10.388971485795663"><ele>1.0</ele><time>2026-04-07T10:20:16Z</time></trkpt><trkpt lat="43.698734963339405" lon="10.38894356753188"><ele>1.0</ele><time>2026-04-07T10:20:17Z</time></trkpt><trkpt lat="43.69862718713142" lon="10.388912178141455"><ele>1.0</ele><time>2026-04-07T10:20:18Z</time></trkpt><trkpt lat="43.69852309721569" lon="10.388879602164215"><ele>1.0</ele><time>2026-04-07T10:20:19Z</time></trkpt><trkpt lat="43.698413677455726" lon="10.388844373798564"><ele>1.0</ele><time>2026-04-07T10:20:20Z</time></trkpt><trkpt lat="43.69829105924202" lon="10.388799802736962"><ele>1.0</ele><time>2026-04-07T10:20:21Z</time></trkpt><trkpt lat="43.69816313475768" lon="10.388751460573392"><ele>1.0</ele><time>2026-04-07T10:20:22Z</time></trkpt><trkpt lat="43.69803949916318" lon="10.388698369910053"><ele>1.0</ele><time>2026-04-07T10:20:23Z</time></trkpt><trkpt lat="43.69792161962327" lon="10.388646202674948"><ele>1.0</ele><time>2026-04-07T10:20:24Z</time></trkpt><trkpt lat="43.697800676391864" lon="10.388596004058588"><ele>1.0</ele><time>2026-04-07T10:20:25Z</time></trkpt><trkpt lat="43.69768072549851" lon="10.38854235178944"><ele>1.0</ele><time>2026-04-07T10:20:26Z</time></trkpt><trkpt lat="43.69755913926251" lon="10.388491773266235"><ele>1.5</ele><time>2026-04-07T10:20:27Z</time></trkpt><trkpt lat="43.69743906601355" lon="10.388439340836142"><ele>2.0</ele><time>2026-04-07T10:20:28Z</time></trkpt><trkpt lat="43.697319019451065" lon="10.388393360516451"><ele>2.5</ele><time>2026-04-07T10:20:29Z</time></trkpt><trkpt lat="43.69719803617988" lon="10.388342219058279"><ele>3.0</ele><time>2026-04-07T10:20:30Z</time></trkpt><trkpt lat="43.697082535905146" lon="10.388291771387358"><ele>3.0</ele><time>2026-04-07T10:20:31Z</time></trkpt><trkpt lat="43.69696579296647" lon="10.38823477669175"><ele>3.0</ele><time>2026-04-07T10:20:32Z</time></trkpt><trkpt lat="43.696849329354386" lon="10.38817990541629"><ele>3.0</ele><time>2026-04-07T10:20:33Z</time></trkpt><trkpt lat="43.69674217636642" lon="10.3881304800494"><ele>3.0</ele><time>2026-04-07T10:20:34Z</time></trkpt><trkpt lat="43.69664208843089" lon="10.388084187270325"><ele>3.0</ele><time>2026-04-07T10:20:35Z</time></trkpt><trkpt lat="43.696546655738636" lon="10.388034847091891"><ele>3.0</ele><time>2026-04-07T10:20:36Z</time></trkpt><trkpt lat="43.696457546287895" lon="10.38796792653718"><ele>3.0</ele><time>2026-04-07T10:20:37Z</time></trkpt><trkpt lat="43.69638254391662" lon="10.387906438043439"><ele>3.0</ele><time>2026-04-07T10:20:38Z</time></trkpt><trkpt lat="43.696330568399844" lon="10.387829813826636"><ele>3.0</ele><time>2026-04-07T10:20:39Z</time></trkpt><trkpt lat="43.69629636483671" lon="10.387744102923914"><ele>3.0</ele><time>2026-04-07T10:20:40Z</time></trkpt><trkpt lat="43.69627399907265" lon="10.38764211523321"><ele>3.25</ele><time>2026-04-07T10:20:41Z</time></trkpt><trkpt lat="43.69625567022237" lon="10.387522328647332"><ele>3.5</ele><time>2026-04-07T10:20:42Z</time></trkpt><trkpt lat="43.696246803290286" lon="10.3873703500166"><ele>3.75</ele><time>2026-04-07T10:20:42.999Z</time></trkpt><trkpt lat="43.69623688459861" lon="10.387200886439102"><ele>4.0</ele><time>2026-04-07T10:20:43.999Z</time></trkpt><trkpt lat="43.69622856358062" lon="10.387022419397779"><ele>3.0</ele><time>2026-04-07T10:20:44.999Z</time></trkpt><trkpt lat="43.69621855362209" lon="10.386838465745832"><ele>2.0</ele><time>2026-04-07T10:20:45.999Z</time></trkpt><trkpt lat="43.696204260377655" lon="10.386649950660491"><ele>1.0</ele><time>2026-04-07T10:20:46.999Z</time></trkpt><trkpt lat="43.696188423126664" lon="10.38644684791195"><ele>0.0</ele><time>2026-04-07T10:20:47.999Z</time></trkpt><trkpt lat="43.69617319179122" lon="10.386229923073921"><ele>-0.3333333333333333</ele><time>2026-04-07T10:20:48.999Z</time></trkpt><trkpt lat="43.696159386911894" lon="10.385993288866485"><ele>-0.6666666666666666</ele><time>2026-04-07T10:20:49.999Z</time></trkpt><trkpt lat="43.69615179203274" lon="10.385779778748187"><ele>-1.0</ele><time>2026-04-07T10:20:50.999Z</time></trkpt><trkpt lat="43.69614450909075" lon="10.385575490046865"><ele>-0.75</ele><time>2026-04-07T10:20:51.999Z</time></trkpt><trkpt lat="43.69614210070335" lon="10.385369395898323"><ele>-0.5</ele><time>2026-04-07T10:20:52.999Z</time></trkpt><trkpt lat="43.696146826037165" lon="10.385156772741972"><ele>-0.25</ele><time>2026-04-07T10:20:53.999Z</time></trkpt><trkpt lat="43.696154532250404" lon="10.384956349630958"><ele>0.0</ele><time>2026-04-07T10:20:54.999Z</time></trkpt><trkpt lat="43.696133034412235" lon="10.384773946103156"><ele>0.0</ele><time>2026-04-07T10:20:55.999Z</time></trkpt><trkpt lat="43.69618740695089" lon="10.384600535309211"><ele>0.0</ele><time>2026-04-07T10:20:56.999Z</time></trkpt><trkpt lat="43.696205611227626" lon="10.384449117243452"><ele>0.0</ele><time>2026-04-07T10:20:57.999Z</time></trkpt><trkpt lat="43.696236354140474" lon="10.384329426626506"><ele>0.0</ele><time>2026-04-07T10:20:58.999Z</time></trkpt><trkpt lat="43.696280187617475" lon="10.38423706809529"><ele>0.0</ele><time>2026-04-07T10:20:59.999Z</time></trkpt><trkpt lat="43.69637501762247" lon="10.384145287144985"><ele>0.0</ele><time>2026-04-07T10:21:01.999Z</time></trkpt><trkpt lat="43.69651386935538" lon="10.38414760040255"><ele>0.0</ele><time>2026-04-07T10:21:03.999Z</time></trkpt><trkpt lat="43.69656573513961" lon="10.384215122421068"><ele>0.0</ele><time>2026-04-07T10:21:04.999Z</time></trkpt><trkpt lat="43.69659862205621" lon="10.384310419876437"><ele>0.0</ele><time>2026-04-07T10:21:05.999Z</time></trkpt><trkpt lat="43.696628669730686" lon="10.384431587552667"><ele>0.0</ele><time>2026-04-07T10:21:06.999Z</time></trkpt><trkpt lat="43.696627848075025" lon="10.384563428641146"><ele>0.0</ele><time>2026-04-07T10:21:07.999Z</time></trkpt><trkpt lat="43.6966815528147" lon="10.38467650449347"><ele>0.0</ele><time>2026-04-07T10:21:08.999Z</time></trkpt><trkpt lat="43.69674720738716" lon="10.384744633110412"><ele>0.0</ele><time>2026-04-07T10:21:09.999Z</time></trkpt><trkpt lat="43.69682189965552" lon="10.384760757460569"><ele>0.0</ele><time>2026-04-07T10:21:10.999Z</time></trkpt><trkpt lat="43.69689191835784" lon="10.384793147497676"><ele>0.0</ele><time>2026-04-07T10:21:11.999Z</time></trkpt><trkpt lat="43.6969885544416" lon="10.384706112019014"><ele>0.0</ele><time>2026-04-07T10:21:12.999Z</time></trkpt><trkpt lat="43.69706302669949" lon="10.38463289185218"><ele>0.0</ele><time>2026-04-07T10:21:13.999Z</time></trkpt><trkpt lat="43.69716395687015" lon="10.38462021470735"><ele>0.0</ele><time>2026-04-07T10:21:14.999Z</time></trkpt><trkpt lat="43.69726658751912" lon="10.38464020385439"><ele>0.0</ele><time>2026-04-07T10:21:16Z</time></trkpt><trkpt lat="43.69735259259484" lon="10.384695363464662"><ele>0.0</ele><time>2026-04-07T10:21:17Z</time></trkpt><trkpt lat="43.697439896906374" lon="10.384770489584506"><ele>0.0</ele><time>2026-04-07T10:21:18Z</time></trkpt><trkpt lat="43.69753554196596" lon="10.384872514460012"><ele>0.0</ele><time>2026-04-07T10:21:19Z</time></trkpt><trkpt lat="43.69764880572166" lon="10.384979487088527"><ele>0.0</ele><time>2026-04-07T10:21:20Z</time></trkpt><trkpt lat="43.69775640818772" lon="10.385081800652852"><ele>0.0</ele><time>2026-04-07T10:21:21Z</time></trkpt><trkpt lat="43.697874367677855" lon="10.385190958682603"><ele>0.0</ele><time>2026-04-07T10:21:22Z</time></trkpt><trkpt lat="43.6979970996795" lon="10.385306300684569"><ele>-0.3333333333333333</ele><time>2026-04-07T10:21:23Z</time></trkpt><trkpt lat="43.69812639358005" lon="10.385425277659458"><ele>-0.6666666666666666</ele><time>2026-04-07T10:21:24Z</time></trkpt><trkpt lat="43.69825709138054" lon="10.385549109225092"><ele>-1.0</ele><time>2026-04-07T10:21:25Z</time></trkpt><trkpt lat="43.698379671475095" lon="10.385668236965243"><ele>-0.3333333333333333</ele><time>2026-04-07T10:21:26Z</time></trkpt><trkpt lat="43.698504766315004" lon="10.38577855156356"><ele>0.3333333333333333</ele><time>2026-04-07T10:21:27Z</time></trkpt><trkpt lat="43.69863287470848" lon="10.385895649298195"><ele>1.0</ele><time>2026-04-07T10:21:28Z</time></trkpt><trkpt lat="43.69876478990477" lon="10.386017086606184"><ele>1.0</ele><time>2026-04-07T10:21:29Z</time></trkpt><trkpt lat="43.69890481030928" lon="10.38614570908548"><ele>1.0</ele><time>2026-04-07T10:21:30Z</time></trkpt><trkpt lat="43.69904689349971" lon="10.386276753667438"><ele>1.0</ele><time>2026-04-07T10:21:31Z</time></trkpt><trkpt lat="43.699184757259935" lon="10.386405222511547"><ele>1.0</ele><time>2026-04-07T10:21:32Z</time></trkpt><trkpt lat="43.69931644753025" lon="10.386534257792448"><ele>1.0</ele><time>2026-04-07T10:21:33Z</time></trkpt><trkpt lat="43.699444879781886" lon="10.386655623467876"><ele>1.0</ele><time>2026-04-07T10:21:34Z</time></trkpt><trkpt lat="43.6995648792511" lon="10.386766801919137"><ele>0.75</ele><time>2026-04-07T10:21:35Z</time></trkpt><trkpt lat="43.699676123474376" lon="10.386873051913302"><ele>0.5</ele><time>2026-04-07T10:21:36Z</time></trkpt><trkpt lat="43.69977307958346" lon="10.386986837225184"><ele>0.25</ele><time>2026-04-07T10:21:37Z</time></trkpt><trkpt lat="43.699859439794956" lon="10.387111686418882"><ele>0.0</ele><time>2026-04-07T10:21:38Z</time></trkpt><trkpt lat="43.699918593740136" lon="10.387252814796353"><ele>0.0</ele><time>2026-04-07T10:21:39Z</time></trkpt><trkpt lat="43.69995470309505" lon="10.38740860830796"><ele>0.0</ele><time>2026-04-07T10:21:40Z</time></trkpt><trkpt lat="43.699965868834" lon="10.387574916975916"><ele>0.0</ele><time>2026-04-07T10:21:41Z</time></trkpt><trkpt lat="43.69996096904197" lon="10.387762711052357"><ele>0.0</ele><time>2026-04-07T10:21:42Z</time></trkpt><trkpt lat="43.69995971659056" lon="10.387972268343171"><ele>-0.25</ele><time>2026-04-07T10:21:43Z</time></trkpt><trkpt lat="43.69993683051128" lon="10.388188563420323"><ele>-0.5</ele><time>2026-04-07T10:21:44Z</time></trkpt><trkpt lat="43.699898874935116" lon="10.388373076675542"><ele>-0.75</ele><time>2026-04-07T10:21:45Z</time></trkpt><trkpt lat="43.69986635015926" lon="10.388564550256937"><ele>-1.0</ele><time>2026-04-07T10:21:46Z</time></trkpt><trkpt lat="43.69984336368953" lon="10.388765284265428"><ele>-0.6666666666666666</ele><time>2026-04-07T10:21:47Z</time></trkpt><trkpt lat="43.699768826258065" lon="10.388963039089042"><ele>-0.3333333333333333</ele><time>2026-04-07T10:21:48Z</time></trkpt><trkpt lat="43.699718329171716" lon="10.389184434704367"><ele>0.0</ele><time>2026-04-07T10:21:49Z</time></trkpt><trkpt lat="43.699669466750656" lon="10.389421361422714"><ele>0.0</ele><time>2026-04-07T10:21:50Z</time></trkpt><trkpt lat="43.69962996832831" lon="10.389650874346062"><ele>0.0</ele><time>2026-04-07T10:21:51Z</time></trkpt><trkpt lat="43.699595590442065" lon="10.389885433106329"><ele>0.0</ele><time>2026-04-07T10:21:52Z</time></trkpt><trkpt lat="43.69956001696276" lon="10.390141342358719"><ele>0.0</ele><time>2026-04-07T10:21:53Z</time></trkpt><trkpt lat="43.699532179676766" lon="10.390406678538554"><ele>0.0</ele><time>2026-04-07T10:21:54Z</time></trkpt><trkpt lat="43.699514456613166" lon="10.390657767278123"><ele>0.0</ele><time>2026-04-07T10:21:55Z</time></trkpt><trkpt lat="43.69950145458793" lon="10.39091698534392"><ele>0.3333333333333333</ele><time>2026-04-07T10:21:56Z</time></trkpt><trkpt lat="43.69949663349633" lon="10.391185683551019"><ele>0.6666666666666666</ele><time>2026-04-07T10:21:57Z</time></trkpt><trkpt lat="43.699501586774694" lon="10.391463137172801"><ele>1.0</ele><time>2026-04-07T10:21:58Z</time></trkpt><trkpt lat="43.69951823147731" lon="10.391752101242552"><ele>1.0</ele><time>2026-04-07T10:21:59Z</time></trkpt><trkpt lat="43.69954201072951" lon="10.392043268000734"><ele>1.0</ele><time>2026-04-07T10:22:00Z</time></trkpt><trkpt lat="43.69957273579851" lon="10.392343454196032"><ele>1.0</ele><time>2026-04-07T10:22:01Z</time></trkpt><trkpt lat="43.69960969156227" lon="10.392626182513313"><ele>1.0</ele><time>2026-04-07T10:22:02Z</time></trkpt><trkpt lat="43.69966266736078" lon="10.392865177331279"><ele>1.0</ele><time>2026-04-07T10:22:03Z</time></trkpt><trkpt lat="43.69971397908604" lon="10.393084225561392"><ele>1.0</ele><time>2026-04-07T10:22:04Z</time></trkpt><trkpt lat="43.69976666758431" lon="10.393291165912531"><ele>1.0</ele><time>2026-04-07T10:22:05Z</time></trkpt><trkpt lat="43.69979155588403" lon="10.39384509627588"><ele>1.0</ele><time>2026-04-07T10:22:06Z</time></trkpt><trkpt lat="43.69983207444984" lon="10.394134008129612"><ele>1.0</ele><time>2026-04-07T10:22:07Z</time></trkpt><trkpt lat="43.69987331713277" lon="10.39442473994923"><ele>1.0</ele><time>2026-04-07T10:22:08Z</time></trkpt><trkpt lat="43.6999112947453" lon="10.39471634869173"><ele>1.0</ele><time>2026-04-07T10:22:09Z</time></trkpt><trkpt lat="43.69995138816648" lon="10.395003366547426"><ele>1.3333333333333333</ele><time>2026-04-07T10:22:10Z</time></trkpt><trkpt lat="43.69998636235139" lon="10.39529832150344"><ele>1.6666666666666665</ele><time>2026-04-07T10:22:11Z</time></trkpt><trkpt lat="43.7000162438643" lon="10.395589332861173"><ele>2.0</ele><time>2026-04-07T10:22:12Z</time></trkpt><trkpt lat="43.70004687873002" lon="10.395888198054173"><ele>2.0</ele><time>2026-04-07T10:22:13Z</time></trkpt><trkpt lat="43.70006096245153" lon="10.396189068413523"><ele>2.0</ele><time>2026-04-07T10:22:14Z</time></trkpt><trkpt lat="43.70006695153894" lon="10.396491767230364"><ele>2.0</ele><time>2026-04-07T10:22:15Z</time></trkpt><trkpt lat="43.70005258770874" lon="10.396799365408413"><ele>2.0</ele><time>2026-04-07T10:22:16Z</time></trkpt><trkpt lat="43.700037850734965" lon="10.39709475619436"><ele>2.0</ele><time>2026-04-07T10:22:17Z</time></trkpt><trkpt lat="43.7000166170724" lon="10.397396999428661"><ele>2.0</ele><time>2026-04-07T10:22:18Z</time></trkpt><trkpt lat="43.700004180743726" lon="10.39769688217779"><ele>2.0</ele><time>2026-04-07T10:22:19Z</time></trkpt><trkpt lat="43.699984234572135" lon="10.39799873361"><ele>2.0</ele><time>2026-04-07T10:22:20Z</time></trkpt><trkpt lat="43.69995550248215" lon="10.398299986990407"><ele>2.0</ele><time>2026-04-07T10:22:21Z</time></trkpt><trkpt lat="43.6999287297963" lon="10.398586170056817"><ele>2.333333333333333</ele><time>2026-04-07T10:22:22Z</time></trkpt><trkpt lat="43.69989823897214" lon="10.398852142394178"><ele>2.6666666666666665</ele><time>2026-04-07T10:22:23Z</time></trkpt><trkpt lat="43.69987175883734" lon="10.399108354082053"><ele>3.0</ele><time>2026-04-07T10:22:24Z</time></trkpt><trkpt lat="43.69984568605895" lon="10.399349922451417"><ele>3.0</ele><time>2026-04-07T10:22:25Z</time></trkpt><trkpt lat="43.69982126819591" lon="10.399579655849312"><ele>3.0</ele><time>2026-04-07T10:22:26Z</time></trkpt><trkpt lat="43.69980292139294" lon="10.399798492242757"><ele>3.0</ele><time>2026-04-07T10:22:27Z</time></trkpt><trkpt lat="43.69978445441951" lon="10.40001239923743"><ele>3.0</ele><time>2026-04-07T10:22:28Z</time></trkpt><trkpt lat="43.69977453307367" lon="10.400270056161538"><ele>3.0</ele><time>2026-04-07T10:22:29Z</time></trkpt><trkpt lat="43.699755235510004" lon="10.400557880154643"><ele>3.0</ele><time>2026-04-07T10:22:30Z</time></trkpt><trkpt lat="43.69973019032894" lon="10.400836197585301"><ele>2.6666666666666665</ele><time>2026-04-07T10:22:31Z</time></trkpt><trkpt lat="43.69969498965179" lon="10.401107640338092"><ele>2.333333333333333</ele><time>2026-04-07T10:22:31.999Z</time></trkpt><trkpt lat="43.699664587986696" lon="10.401378496976092"><ele>2.0</ele><time>2026-04-07T10:22:32.999Z</time></trkpt><trkpt lat="43.699628562516146" lon="10.401656640483463"><ele>2.0</ele><time>2026-04-07T10:22:33.999Z</time></trkpt><trkpt lat="43.69959558856939" lon="10.401936515268128"><ele>2.0</ele><time>2026-04-07T10:22:34.999Z</time></trkpt><trkpt lat="43.69955996905057" lon="10.402216291674453"><ele>2.0</ele><time>2026-04-07T10:22:35.999Z</time></trkpt><trkpt lat="43.699524957562915" lon="10.402491674138668"><ele>2.0</ele><time>2026-04-07T10:22:36.999Z</time></trkpt><trkpt lat="43.69949566208406" lon="10.402771710575827"><ele>2.0</ele><time>2026-04-07T10:22:37.999Z</time></trkpt><trkpt lat="43.699460543481116" lon="10.403047694092765"><ele>2.0</ele><time>2026-04-07T10:22:38.999Z</time></trkpt><trkpt lat="43.699425804074245" lon="10.403330652494603"><ele>2.0</ele><time>2026-04-07T10:22:39.999Z</time></trkpt><trkpt lat="43.699391804955134" lon="10.403612498470528"><ele>2.0</ele><time>2026-04-07T10:22:40.999Z</time></trkpt><trkpt lat="43.69934561046985" lon="10.403888197275926"><ele>2.0</ele><time>2026-04-07T10:22:41.999Z</time></trkpt><trkpt lat="43.699292696978254" lon="10.404169190650476"><ele>2.0</ele><time>2026-04-07T10:22:42.999Z</time></trkpt><trkpt lat="43.69923547982752" lon="10.4044508290974"><ele>2.0</ele><time>2026-04-07T10:22:43.999Z</time></trkpt><trkpt lat="43.69917651799431" lon="10.404730248610894"><ele>2.0</ele><time>2026-04-07T10:22:44.999Z</time></trkpt><trkpt lat="43.69911455291569" lon="10.405010241879868"><ele>2.0</ele><time>2026-04-07T10:22:45.999Z</time></trkpt><trkpt lat="43.69904882660071" lon="10.405288460620376"><ele>2.0</ele><time>2026-04-07T10:22:46.999Z</time></trkpt><trkpt lat="43.69898101824958" lon="10.405570915158158"><ele>2.0</ele><time>2026-04-07T10:22:47.999Z</time></trkpt><trkpt lat="43.698904762923895" lon="10.405843402598215"><ele>2.0</ele><time>2026-04-07T10:22:48.999Z</time></trkpt><trkpt lat="43.69882346223666" lon="10.406115685501172"><ele>2.0</ele><time>2026-04-07T10:22:49.999Z</time></trkpt><trkpt lat="43.69873501753938" lon="10.406383334493475"><ele>2.0</ele><time>2026-04-07T10:22:50.999Z</time></trkpt><trkpt lat="43.698641505219506" lon="10.4066508999219"><ele>2.0</ele><time>2026-04-07T10:22:51.999Z</time></trkpt><trkpt lat="43.698543094348054" lon="10.406915098954004"><ele>2.0</ele><time>2026-04-07T10:22:52.999Z</time></trkpt><trkpt lat="43.69844010331388" lon="10.40717061968416"><ele>2.0</ele><time>2026-04-07T10:22:53.999Z</time></trkpt><trkpt lat="43.6983277588574" lon="10.407422593466038"><ele>2.0</ele><time>2026-04-07T10:22:54.999Z</time></trkpt><trkpt lat="43.698209987085335" lon="10.407668103669744"><ele>2.0</ele><time>2026-04-07T10:22:55.999Z</time></trkpt><trkpt lat="43.698092264715896" lon="10.407913930506343"><ele>2.0</ele><time>2026-04-07T10:22:56.999Z</time></trkpt><trkpt lat="43.69796697272346" lon="10.408144962838477"><ele>1.6666666666666665</ele><time>2026-04-07T10:22:57.999Z</time></trkpt><trkpt lat="43.69783293475124" lon="10.40837206773585"><ele>1.3333333333333333</ele><time>2026-04-07T10:22:58.999Z</time></trkpt><trkpt lat="43.69769208710515" lon="10.408590430961244"><ele>1.0</ele><time>2026-04-07T10:22:59.999Z</time></trkpt><trkpt lat="43.6975453662826" lon="10.408788719912675"><ele>1.6666666666666665</ele><time>2026-04-07T10:23:00.999Z</time></trkpt><trkpt lat="43.697396285458225" lon="10.408991522020914"><ele>2.3333333333333335</ele><time>2026-04-07T10:23:01.999Z</time></trkpt><trkpt lat="43.69724638013621" lon="10.40917918674627"><ele>3.0</ele><time>2026-04-07T10:23:02.999Z</time></trkpt><trkpt lat="43.69709011997323" lon="10.40937634166988"><ele>3.0</ele><time>2026-04-07T10:23:03.999Z</time></trkpt><trkpt lat="43.69692923523402" lon="10.409563400707468"><ele>3.0</ele><time>2026-04-07T10:23:04.999Z</time></trkpt><trkpt lat="43.69676294443436" lon="10.409752908987477"><ele>3.0</ele><time>2026-04-07T10:23:05.999Z</time></trkpt><trkpt lat="43.69659914230414" lon="10.40994107697081"><ele>2.6666666666666665</ele><time>2026-04-07T10:23:06.999Z</time></trkpt><trkpt lat="43.696437122485406" lon="10.410112066236906"><ele>2.333333333333333</ele><time>2026-04-07T10:23:07.999Z</time></trkpt><trkpt lat="43.69627248329182" lon="10.410302238868224"><ele>2.0</ele><time>2026-04-07T10:23:08.999Z</time></trkpt><trkpt lat="43.69611146168749" lon="10.410478464831813"><ele>2.333333333333333</ele><time>2026-04-07T10:23:09.999Z</time></trkpt><trkpt lat="43.69596071691316" lon="10.410647440139037"><ele>2.6666666666666665</ele><time>2026-04-07T10:23:10.999Z</time></trkpt><trkpt lat="43.69581812281316" lon="10.410818869064174"><ele>3.0</ele><time>2026-04-07T10:23:11.999Z</time></trkpt><trkpt lat="43.69568003564135" lon="10.410997682032658"><ele>3.0</ele><time>2026-04-07T10:23:12.999Z</time></trkpt><trkpt lat="43.69553669073815" lon="10.41118113641777"><ele>3.0</ele><time>2026-04-07T10:23:13.999Z</time></trkpt><trkpt lat="43.69538503770449" lon="10.411373956864729"><ele>3.0</ele><time>2026-04-07T10:23:14.999Z</time></trkpt><trkpt lat="43.69522718771235" lon="10.411572316965797"><ele>3.333333333333333</ele><time>2026-04-07T10:23:15.999Z</time></trkpt><trkpt lat="43.69506745914111" lon="10.411776123167435"><ele>3.6666666666666665</ele><time>2026-04-07T10:23:16.999Z</time></trkpt><trkpt lat="43.69491703137364" lon="10.411976225344926"><ele>4.0</ele><time>2026-04-07T10:23:17.999Z</time></trkpt><trkpt lat="43.69477879989314" lon="10.412175156198"><ele>4.0</ele><time>2026-04-07T10:23:18.999Z</time></trkpt><trkpt lat="43.694648176659086" lon="10.412379081601932"><ele>4.0</ele><time>2026-04-07T10:23:19.999Z</time></trkpt><trkpt lat="43.69452656483967" lon="10.412607434692651"><ele>4.0</ele><time>2026-04-07T10:23:20.999Z</time></trkpt><trkpt lat="43.69440782894198" lon="10.41284519600348"><ele>3.6666666666666665</ele><time>2026-04-07T10:23:22Z</time></trkpt><trkpt lat="43.69429423199955" lon="10.413094094850921"><ele>3.333333333333333</ele><time>2026-04-07T10:23:23Z</time></trkpt><trkpt lat="43.69418105336079" lon="10.413353452727545"><ele>3.0</ele><time>2026-04-07T10:23:24Z</time></trkpt><trkpt lat="43.69407546121445" lon="10.413633960488408"><ele>2.6666666666666665</ele><time>2026-04-07T10:23:25Z</time></trkpt><trkpt lat="43.693983359452595" lon="10.413899218349854"><ele>2.333333333333333</ele><time>2026-04-07T10:23:26Z</time></trkpt><trkpt lat="43.69389576175841" lon="10.41415999693107"><ele>2.0</ele><time>2026-04-07T10:23:27Z</time></trkpt><trkpt lat="43.69380956249061" lon="10.414425437492365"><ele>2.0</ele><time>2026-04-07T10:23:28Z</time></trkpt><trkpt lat="43.69372421299056" lon="10.414697374385996"><ele>2.0</ele><time>2026-04-07T10:23:29Z</time></trkpt><trkpt lat="43.69364529107997" lon="10.414995576190787"><ele>2.0</ele><time>2026-04-07T10:23:30Z</time></trkpt><trkpt lat="43.69357510185202" lon="10.415279679160573"><ele>1.3333333333333333</ele><time>2026-04-07T10:23:31Z</time></trkpt><trkpt lat="43.69350425154789" lon="10.41555154844752"><ele>0.6666666666666666</ele><time>2026-04-07T10:23:32Z</time></trkpt><trkpt lat="43.69343857166975" lon="10.415832652903209"><ele>0.0</ele><time>2026-04-07T10:23:33Z</time></trkpt><trkpt lat="43.69337671726152" lon="10.41611142524084"><ele>0.3333333333333333</ele><time>2026-04-07T10:23:34Z</time></trkpt><trkpt lat="43.69331321351365" lon="10.416398743048955"><ele>0.6666666666666666</ele><time>2026-04-07T10:23:35Z</time></trkpt><trkpt lat="43.6932555514343" lon="10.41667933260764"><ele>1.0</ele><time>2026-04-07T10:23:36Z</time></trkpt><trkpt lat="43.69319833676129" lon="10.41696520311963"><ele>0.3333333333333333</ele><time>2026-04-07T10:23:37Z</time></trkpt><trkpt lat="43.6931357345995" lon="10.417253884183102"><ele>-0.3333333333333333</ele><time>2026-04-07T10:23:38Z</time></trkpt><trkpt lat="43.69307072166649" lon="10.417536596306176"><ele>-1.0</ele><time>2026-04-07T10:23:39Z</time></trkpt><trkpt lat="43.69300660893492" lon="10.417820077545551"><ele>-1.0</ele><time>2026-04-07T10:23:40Z</time></trkpt><trkpt lat="43.69294544158172" lon="10.418101032447733"><ele>-1.0</ele><time>2026-04-07T10:23:41Z</time></trkpt><trkpt lat="43.69288373458235" lon="10.418383214921658"><ele>-1.0</ele><time>2026-04-07T10:23:42Z</time></trkpt><trkpt lat="43.69282209749845" lon="10.418666207654889"><ele>-1.0</ele><time>2026-04-07T10:23:43Z</time></trkpt><trkpt lat="43.692758864564674" lon="10.418956434285663"><ele>-1.0</ele><time>2026-04-07T10:23:44Z</time></trkpt><trkpt lat="43.69269655128345" lon="10.419238453825107"><ele>-1.0</ele><time>2026-04-07T10:23:45Z</time></trkpt><trkpt lat="43.692634026163326" lon="10.419534304199649"><ele>0.5</ele><time>2026-04-07T10:23:46Z</time></trkpt><trkpt lat="43.692566421954766" lon="10.41983888985481"><ele>2.0</ele><time>2026-04-07T10:23:47Z</time></trkpt><trkpt lat="43.69250062787814" lon="10.420141089391976"><ele>2.0</ele><time>2026-04-07T10:23:48Z</time></trkpt><trkpt lat="43.692438406327334" lon="10.420447620158892"><ele>2.0</ele><time>2026-04-07T10:23:49Z</time></trkpt><trkpt lat="43.69236649316927" lon="10.42075360251576"><ele>2.0</ele><time>2026-04-07T10:23:50Z</time></trkpt><trkpt lat="43.692311785108004" lon="10.421052873807541"><ele>2.0</ele><time>2026-04-07T10:23:51Z</time></trkpt><trkpt lat="43.69224586364895" lon="10.421357295321625"><ele>2.0</ele><time>2026-04-07T10:23:52Z</time></trkpt><trkpt lat="43.69218432313222" lon="10.421652352491025"><ele>2.0</ele><time>2026-04-07T10:23:53Z</time></trkpt><trkpt lat="43.69212650075551" lon="10.421926102137217"><ele>2.0</ele><time>2026-04-07T10:23:54Z</time></trkpt><trkpt lat="43.69206947502137" lon="10.422191432915561"><ele>2.0</ele><time>2026-04-07T10:23:55Z</time></trkpt><trkpt lat="43.69201212197311" lon="10.422457909289905"><ele>2.0</ele><time>2026-04-07T10:23:56Z</time></trkpt><trkpt lat="43.69196076030965" lon="10.422726811688104"><ele>2.0</ele><time>2026-04-07T10:23:57Z</time></trkpt><trkpt lat="43.69190549411732" lon="10.423002002503402"><ele>2.0</ele><time>2026-04-07T10:23:58Z</time></trkpt><trkpt lat="43.691853395193185" lon="10.423273709854941"><ele>2.0</ele><time>2026-04-07T10:23:59Z</time></trkpt><trkpt lat="43.69180094349562" lon="10.42355252932253"><ele>2.0</ele><time>2026-04-07T10:24:00Z</time></trkpt><trkpt lat="43.69174709020826" lon="10.423833761861747"><ele>2.0</ele><time>2026-04-07T10:24:01Z</time></trkpt><trkpt lat="43.69170264181914" lon="10.424119355292719"><ele>2.0</ele><time>2026-04-07T10:24:02Z</time></trkpt><trkpt lat="43.691670224479715" lon="10.424412463640673"><ele>2.0</ele><time>2026-04-07T10:24:03Z</time></trkpt><trkpt lat="43.69163835051954" lon="10.424703550575785"><ele>2.0</ele><time>2026-04-07T10:24:04Z</time></trkpt><trkpt lat="43.69161213087492" lon="10.425001308527422"><ele>2.0</ele><time>2026-04-07T10:24:05Z</time></trkpt><trkpt lat="43.69157798530513" lon="10.425296389080579"><ele>2.0</ele><time>2026-04-07T10:24:06Z</time></trkpt><trkpt lat="43.69155294820806" lon="10.425592146406634"><ele>2.0</ele><time>2026-04-07T10:24:07Z</time></trkpt><trkpt lat="43.6915351463778" lon="10.425891021026521"><ele>2.0</ele><time>2026-04-07T10:24:08Z</time></trkpt><trkpt lat="43.69151560295601" lon="10.426187745279057"><ele>2.0</ele><time>2026-04-07T10:24:09Z</time></trkpt><trkpt lat="43.691498190031616" lon="10.426507232707221"><ele>2.0</ele><time>2026-04-07T10:24:10Z</time></trkpt><trkpt lat="43.691476473960705" lon="10.4267960033757"><ele>2.0</ele><time>2026-04-07T10:24:11Z</time></trkpt><trkpt lat="43.69145349584896" lon="10.427098092829024"><ele>2.0</ele><time>2026-04-07T10:24:12Z</time></trkpt><trkpt lat="43.69143212224467" lon="10.42739689286709"><ele>2.333333333333333</ele><time>2026-04-07T10:24:13Z</time></trkpt><trkpt lat="43.69140415794265" lon="10.427696211411932"><ele>2.6666666666666665</ele><time>2026-04-07T10:24:14Z</time></trkpt><trkpt lat="43.69137989615183" lon="10.427980116326829"><ele>3.0</ele><time>2026-04-07T10:24:15Z</time></trkpt><trkpt lat="43.69135282636958" lon="10.42825762802447"><ele>3.333333333333333</ele><time>2026-04-07T10:24:16Z</time></trkpt><trkpt lat="43.69132217000827" lon="10.428547300711903"><ele>3.6666666666666665</ele><time>2026-04-07T10:24:17Z</time></trkpt><trkpt lat="43.69128396792697" lon="10.428838542884113"><ele>4.0</ele><time>2026-04-07T10:24:18Z</time></trkpt><trkpt lat="43.69123377277351" lon="10.429126717924323"><ele>4.0</ele><time>2026-04-07T10:24:19Z</time></trkpt><trkpt lat="43.69119154281017" lon="10.429409620578236"><ele>4.0</ele><time>2026-04-07T10:24:20Z</time></trkpt><trkpt lat="43.691124261313554" lon="10.429663072658162"><ele>4.0</ele><time>2026-04-07T10:24:21Z</time></trkpt><trkpt lat="43.6910825444377" lon="10.429934116005283"><ele>3.333333333333333</ele><time>2026-04-07T10:24:22Z</time></trkpt><trkpt lat="43.691026294798014" lon="10.430206197192591"><ele>2.6666666666666665</ele><time>2026-04-07T10:24:23Z</time></trkpt><trkpt lat="43.69096111580134" lon="10.430485827027903"><ele>2.0</ele><time>2026-04-07T10:24:24Z</time></trkpt><trkpt lat="43.690887387717154" lon="10.430759447248006"><ele>1.6666666666666665</ele><time>2026-04-07T10:24:25Z</time></trkpt><trkpt lat="43.690809194424524" lon="10.431027685442778"><ele>1.3333333333333333</ele><time>2026-04-07T10:24:26Z</time></trkpt><trkpt lat="43.69072518550775" lon="10.431296857778692"><ele>1.0</ele><time>2026-04-07T10:24:27Z</time></trkpt><trkpt lat="43.690640989027706" lon="10.431564396600503"><ele>1.0</ele><time>2026-04-07T10:24:28Z</time></trkpt><trkpt lat="43.6905558901763" lon="10.431828042333192"><ele>1.0</ele><time>2026-04-07T10:24:29Z</time></trkpt><trkpt lat="43.69046822592892" lon="10.432090779534212"><ele>1.0</ele><time>2026-04-07T10:24:29.999Z</time></trkpt><trkpt lat="43.69037866690144" lon="10.432345791039106"><ele>1.0</ele><time>2026-04-07T10:24:30.999Z</time></trkpt><trkpt lat="43.69028136372346" lon="10.432593802383376"><ele>1.0</ele><time>2026-04-07T10:24:31.999Z</time></trkpt><trkpt lat="43.6901813469946" lon="10.4328366683157"><ele>1.0</ele><time>2026-04-07T10:24:32.999Z</time></trkpt><trkpt lat="43.69008205939572" lon="10.433083375756897"><ele>1.0</ele><time>2026-04-07T10:24:33.999Z</time></trkpt><trkpt lat="43.68998279857529" lon="10.433324372541964"><ele>1.0</ele><time>2026-04-07T10:24:34.999Z</time></trkpt><trkpt lat="43.68988005370137" lon="10.43356647766492"><ele>1.0</ele><time>2026-04-07T10:24:35.999Z</time></trkpt><trkpt lat="43.689776753813746" lon="10.433804940789365"><ele>1.6666666666666665</ele><time>2026-04-07T10:24:36.999Z</time></trkpt><trkpt lat="43.689673074620686" lon="10.43404553649583"><ele>2.3333333333333335</ele><time>2026-04-07T10:24:37.999Z</time></trkpt><trkpt lat="43.6895658270254" lon="10.434284180633936"><ele>3.0</ele><time>2026-04-07T10:24:38.999Z</time></trkpt><trkpt lat="43.689456089946724" lon="10.434525202911226"><ele>2.3333333333333335</ele><time>2026-04-07T10:24:39.999Z</time></trkpt><trkpt lat="43.689347405266496" lon="10.434765713339845"><ele>1.6666666666666665</ele><time>2026-04-07T10:24:40.999Z</time></trkpt><trkpt lat="43.68923787338026" lon="10.43499867269919"><ele>1.0</ele><time>2026-04-07T10:24:41.999Z</time></trkpt><trkpt lat="43.68912904296467" lon="10.435242206918716"><ele>1.6666666666666665</ele><time>2026-04-07T10:24:42.999Z</time></trkpt><trkpt lat="43.68901783352586" lon="10.435490022056173"><ele>2.3333333333333335</ele><time>2026-04-07T10:24:43.999Z</time></trkpt><trkpt lat="43.68890515783021" lon="10.435739800769598"><ele>3.0</ele><time>2026-04-07T10:24:44.999Z</time></trkpt><trkpt lat="43.68879020715715" lon="10.435993496026496"><ele>3.0</ele><time>2026-04-07T10:24:45.999Z</time></trkpt><trkpt lat="43.68867437496223" lon="10.436245202724214"><ele>3.0</ele><time>2026-04-07T10:24:46.999Z</time></trkpt><trkpt lat="43.68855909607338" lon="10.43649317202092"><ele>3.0</ele><time>2026-04-07T10:24:47.999Z</time></trkpt><trkpt lat="43.68845432447833" lon="10.436732868077954"><ele>2.3333333333333335</ele><time>2026-04-07T10:24:48.999Z</time></trkpt><trkpt lat="43.6883455692796" lon="10.436974018102761"><ele>1.6666666666666665</ele><time>2026-04-07T10:24:49.999Z</time></trkpt><trkpt lat="43.68823784939986" lon="10.437223748941111"><ele>1.0</ele><time>2026-04-07T10:24:50.999Z</time></trkpt><trkpt lat="43.68812599330319" lon="10.437470277775962"><ele>1.0</ele><time>2026-04-07T10:24:51.999Z</time></trkpt><trkpt lat="43.68801391303039" lon="10.437706768441068"><ele>1.0</ele><time>2026-04-07T10:24:52.999Z</time></trkpt><trkpt lat="43.68790584585359" lon="10.437935592804244"><ele>1.0</ele><time>2026-04-07T10:24:53.999Z</time></trkpt><trkpt lat="43.68779617412641" lon="10.438173488079913"><ele>1.3333333333333333</ele><time>2026-04-07T10:24:54.999Z</time></trkpt><trkpt lat="43.6876833579572" lon="10.438416374621115"><ele>1.6666666666666665</ele><time>2026-04-07T10:24:55.999Z</time></trkpt><trkpt lat="43.687570249720174" lon="10.438671554131647"><ele>2.0</ele><time>2026-04-07T10:24:56.999Z</time></trkpt><trkpt lat="43.68745433770549" lon="10.438928205035777"><ele>2.0</ele><time>2026-04-07T10:24:57.999Z</time></trkpt><trkpt lat="43.68734423832325" lon="10.439168759072613"><ele>2.0</ele><time>2026-04-07T10:24:58.999Z</time></trkpt><trkpt lat="43.68723641549709" lon="10.439405537130355"><ele>2.0</ele><time>2026-04-07T10:24:59.999Z</time></trkpt><trkpt lat="43.6871270329279" lon="10.439644672801698"><ele>2.0</ele><time>2026-04-07T10:25:00.999Z</time></trkpt><trkpt lat="43.68701898455978" lon="10.439887017550255"><ele>2.0</ele><time>2026-04-07T10:25:01.999Z</time></trkpt><trkpt lat="43.686906717183604" lon="10.440134949884165"><ele>2.0</ele><time>2026-04-07T10:25:02.999Z</time></trkpt><trkpt lat="43.68679355228178" lon="10.440381208111118"><ele>2.0</ele><time>2026-04-07T10:25:03.999Z</time></trkpt><trkpt lat="43.6866800817427" lon="10.440629741498133"><ele>2.0</ele><time>2026-04-07T10:25:04.999Z</time></trkpt><trkpt lat="43.68656299726977" lon="10.440874019777766"><ele>2.0</ele><time>2026-04-07T10:25:05.999Z</time></trkpt><trkpt lat="43.68645410597086" lon="10.441112973974532"><ele>1.6666666666666665</ele><time>2026-04-07T10:25:06.999Z</time></trkpt><trkpt lat="43.68634411807608" lon="10.441354448230186"><ele>1.3333333333333333</ele><time>2026-04-07T10:25:07.999Z</time></trkpt><trkpt lat="43.68623052703342" lon="10.441599599486176"><ele>1.0</ele><time>2026-04-07T10:25:08.999Z</time></trkpt><trkpt lat="43.686112700996325" lon="10.44184684005096"><ele>1.3333333333333333</ele><time>2026-04-07T10:25:09.999Z</time></trkpt><trkpt lat="43.686008789394755" lon="10.442072944943567"><ele>1.6666666666666665</ele><time>2026-04-07T10:25:10.999Z</time></trkpt><trkpt lat="43.685912789767436" lon="10.442288683671208"><ele>2.0</ele><time>2026-04-07T10:25:11.999Z</time></trkpt><trkpt lat="43.685815545149865" lon="10.442512746163201"><ele>2.0</ele><time>2026-04-07T10:25:12.999Z</time></trkpt><trkpt lat="43.68571765524276" lon="10.442715626652623"><ele>2.0</ele><time>2026-04-07T10:25:13.999Z</time></trkpt><trkpt lat="43.685614372769344" lon="10.442944489201716"><ele>2.0</ele><time>2026-04-07T10:25:14.999Z</time></trkpt><trkpt lat="43.68552318596091" lon="10.443142498668543"><ele>2.0</ele><time>2026-04-07T10:25:15.999Z</time></trkpt><trkpt lat="43.6854409010636" lon="10.443330399945896"><ele>2.0</ele><time>2026-04-07T10:25:16.999Z</time></trkpt><trkpt lat="43.68535662203844" lon="10.443508161726001"><ele>2.0</ele><time>2026-04-07T10:25:17.999Z</time></trkpt><trkpt lat="43.68527948418854" lon="10.443676424190944"><ele>2.0</ele><time>2026-04-07T10:25:18.999Z</time></trkpt><trkpt lat="43.68520395253453" lon="10.443851829455227"><ele>2.0</ele><time>2026-04-07T10:25:19.999Z</time></trkpt><trkpt lat="43.685117474485935" lon="10.444038348080843"><ele>2.0</ele><time>2026-04-07T10:25:20.999Z</time></trkpt><trkpt lat="43.6850185212712" lon="10.444242128502752"><ele>2.0</ele><time>2026-04-07T10:25:21.999Z</time></trkpt><trkpt lat="43.684936128580304" lon="10.44441730919891"><ele>2.0</ele><time>2026-04-07T10:25:22.999Z</time></trkpt><trkpt lat="43.68485353369262" lon="10.444599446260538"><ele>2.0</ele><time>2026-04-07T10:25:23.999Z</time></trkpt><trkpt lat="43.684759223016954" lon="10.444802561942334"><ele>1.6666666666666665</ele><time>2026-04-07T10:25:24.999Z</time></trkpt><trkpt lat="43.6846612993323" lon="10.445016449563719"><ele>1.3333333333333333</ele><time>2026-04-07T10:25:25.999Z</time></trkpt><trkpt lat="43.68456550193228" lon="10.445234059404445"><ele>1.0</ele><time>2026-04-07T10:25:26.999Z</time></trkpt><trkpt lat="43.6844680711356" lon="10.44545633790492"><ele>0.6666666666666666</ele><time>2026-04-07T10:25:28Z</time></trkpt><trkpt lat="43.6843634716533" lon="10.445700506067912"><ele>0.3333333333333333</ele><time>2026-04-07T10:25:29Z</time></trkpt><trkpt lat="43.68426434008462" lon="10.445926791363085"><ele>0.0</ele><time>2026-04-07T10:25:30Z</time></trkpt><trkpt lat="43.684185209183916" lon="10.446129953277069"><ele>-0.3333333333333333</ele><time>2026-04-07T10:25:31Z</time></trkpt><trkpt lat="43.68408853120116" lon="10.446355685077386"><ele>-0.6666666666666666</ele><time>2026-04-07T10:25:32Z</time></trkpt><trkpt lat="43.68398436062954" lon="10.446587233282147"><ele>-1.0</ele><time>2026-04-07T10:25:33Z</time></trkpt><trkpt lat="43.68388637831746" lon="10.44681876956194"><ele>-1.0</ele><time>2026-04-07T10:25:34Z</time></trkpt><trkpt lat="43.68378423636316" lon="10.447050189254941"><ele>-1.0</ele><time>2026-04-07T10:25:35Z</time></trkpt><trkpt lat="43.68370777829082" lon="10.447251735355325"><ele>-1.0</ele><time>2026-04-07T10:25:36Z</time></trkpt><trkpt lat="43.68362717199089" lon="10.447447999784726"><ele>-0.6666666666666666</ele><time>2026-04-07T10:25:37Z</time></trkpt><trkpt lat="43.68354429682524" lon="10.447656558093678"><ele>-0.3333333333333333</ele><time>2026-04-07T10:25:38Z</time></trkpt><trkpt lat="43.68345382008945" lon="10.447874698154076"><ele>0.0</ele><time>2026-04-07T10:25:39Z</time></trkpt><trkpt lat="43.68337028505282" lon="10.448090389387412"><ele>0.3333333333333333</ele><time>2026-04-07T10:25:40Z</time></trkpt><trkpt lat="43.6832848567747" lon="10.448305535615084"><ele>0.6666666666666666</ele><time>2026-04-07T10:25:41Z</time></trkpt><trkpt lat="43.68319994472973" lon="10.448522881566078"><ele>1.0</ele><time>2026-04-07T10:25:42Z</time></trkpt><trkpt lat="43.68310901266426" lon="10.448743188893411"><ele>1.0</ele><time>2026-04-07T10:25:43Z</time></trkpt><trkpt lat="43.683025181643366" lon="10.44896837587972"><ele>1.0</ele><time>2026-04-07T10:25:44Z</time></trkpt><trkpt lat="43.68293072232108" lon="10.44919361439755"><ele>1.0</ele><time>2026-04-07T10:25:45Z</time></trkpt><trkpt lat="43.682852986874934" lon="10.44939641583617"><ele>1.0</ele><time>2026-04-07T10:25:46Z</time></trkpt><trkpt lat="43.68278345748265" lon="10.449592441896225"><ele>1.0</ele><time>2026-04-07T10:25:47Z</time></trkpt><trkpt lat="43.68270984297956" lon="10.44979316888502"><ele>1.0</ele><time>2026-04-07T10:25:48Z</time></trkpt><trkpt lat="43.68261918386255" lon="10.450002549418622"><ele>1.3333333333333333</ele><time>2026-04-07T10:25:49Z</time></trkpt><trkpt lat="43.6825354066295" lon="10.450204162581873"><ele>1.6666666666666665</ele><time>2026-04-07T10:25:50Z</time></trkpt><trkpt lat="43.6824625614706" lon="10.450401491681102"><ele>2.0</ele><time>2026-04-07T10:25:51Z</time></trkpt><trkpt lat="43.6823927752709" lon="10.450587603404662"><ele>1.3333333333333333</ele><time>2026-04-07T10:25:52Z</time></trkpt><trkpt lat="43.682313171480274" lon="10.450789800563369"><ele>0.6666666666666666</ele><time>2026-04-07T10:25:53Z</time></trkpt><trkpt lat="43.68222993271692" lon="10.451007130965504"><ele>0.0</ele><time>2026-04-07T10:25:54Z</time></trkpt><trkpt lat="43.68214868468801" lon="10.45124664040501"><ele>0.0</ele><time>2026-04-07T10:25:55Z</time></trkpt><trkpt lat="43.682055340728745" lon="10.451504158312867"><ele>0.0</ele><time>2026-04-07T10:25:56Z</time></trkpt><trkpt lat="43.68194768238407" lon="10.4517326812239"><ele>0.0</ele><time>2026-04-07T10:25:57Z</time></trkpt><trkpt lat="43.681880039157136" lon="10.451957585397613"><ele>0.6666666666666666</ele><time>2026-04-07T10:25:58Z</time></trkpt><trkpt lat="43.681782833093884" lon="10.452195021304421"><ele>1.3333333333333333</ele><time>2026-04-07T10:25:59Z</time></trkpt><trkpt lat="43.6816895144638" lon="10.452440558620449"><ele>2.0</ele><time>2026-04-07T10:26:00Z</time></trkpt><trkpt lat="43.68159465351807" lon="10.452691569672645"><ele>2.0</ele><time>2026-04-07T10:26:01Z</time></trkpt><trkpt lat="43.681495223774846" lon="10.452951515681786"><ele>2.0</ele><time>2026-04-07T10:26:02Z</time></trkpt><trkpt lat="43.68139617931544" lon="10.45321152644627"><ele>2.0</ele><time>2026-04-07T10:26:03Z</time></trkpt><trkpt lat="43.68128336048588" lon="10.453487913659822"><ele>2.0</ele><time>2026-04-07T10:26:04Z</time></trkpt><trkpt lat="43.681173458427004" lon="10.453768737173837"><ele>2.0</ele><time>2026-04-07T10:26:05Z</time></trkpt><trkpt lat="43.68106896243163" lon="10.454032182366062"><ele>2.0</ele><time>2026-04-07T10:26:06Z</time></trkpt><trkpt lat="43.68096351990177" lon="10.454298437020757"><ele>1.3333333333333333</ele><time>2026-04-07T10:26:07Z</time></trkpt><trkpt lat="43.68085817682249" lon="10.454569652018622"><ele>0.6666666666666666</ele><time>2026-04-07T10:26:08Z</time></trkpt><trkpt lat="43.680751480531015" lon="10.454836352927192"><ele>0.0</ele><time>2026-04-07T10:26:09Z</time></trkpt><trkpt lat="43.680651497258914" lon="10.455086721016839"><ele>0.0</ele><time>2026-04-07T10:26:10Z</time></trkpt><trkpt lat="43.68053948024431" lon="10.455346437603707"><ele>0.0</ele><time>2026-04-07T10:26:11Z</time></trkpt><trkpt lat="43.68042415824317" lon="10.455614457442012"><ele>0.0</ele><time>2026-04-07T10:26:12Z</time></trkpt><trkpt lat="43.68032503615593" lon="10.455854554709395"><ele>0.0</ele><time>2026-04-07T10:26:13Z</time></trkpt><trkpt lat="43.680230813800115" lon="10.456082304386234"><ele>0.0</ele><time>2026-04-07T10:26:14Z</time></trkpt><trkpt lat="43.68013434895839" lon="10.456314796227991"><ele>0.0</ele><time>2026-04-07T10:26:15Z</time></trkpt><trkpt lat="43.68003876679102" lon="10.456549981517888"><ele>0.0</ele><time>2026-04-07T10:26:16Z</time></trkpt><trkpt lat="43.67994259971037" lon="10.456785186444014"><ele>0.0</ele><time>2026-04-07T10:26:17Z</time></trkpt><trkpt lat="43.67984502399526" lon="10.457015721785805"><ele>0.0</ele><time>2026-04-07T10:26:18Z</time></trkpt><trkpt lat="43.67974968496592" lon="10.457241364702508"><ele>0.3333333333333333</ele><time>2026-04-07T10:26:19Z</time></trkpt><trkpt lat="43.679649923265735" lon="10.457464307096954"><ele>0.6666666666666666</ele><time>2026-04-07T10:26:20Z</time></trkpt><trkpt lat="43.67955210289712" lon="10.457687606739192"><ele>1.0</ele><time>2026-04-07T10:26:21Z</time></trkpt><trkpt lat="43.679451814300734" lon="10.457904911307693"><ele>0.6666666666666666</ele><time>2026-04-07T10:26:22Z</time></trkpt><trkpt lat="43.67934486156213" lon="10.458118790275986"><ele>0.3333333333333333</ele><time>2026-04-07T10:26:23Z</time></trkpt><trkpt lat="43.6792421754538" lon="10.458322045995532"><ele>0.0</ele><time>2026-04-07T10:26:24Z</time></trkpt><trkpt lat="43.67914430404656" lon="10.458513941890416"><ele>0.0</ele><time>2026-04-07T10:26:25Z</time></trkpt><trkpt lat="43.67904854471965" lon="10.458704916860828"><ele>0.0</ele><time>2026-04-07T10:26:26Z</time></trkpt><trkpt lat="43.678951648361945" lon="10.45889742502492"><ele>0.0</ele><time>2026-04-07T10:26:27Z</time></trkpt><trkpt lat="43.678851146672514" lon="10.459091058025464"><ele>0.3333333333333333</ele><time>2026-04-07T10:26:28Z</time></trkpt><trkpt lat="43.678751906224704" lon="10.45927368711244"><ele>0.6666666666666666</ele><time>2026-04-07T10:26:29Z</time></trkpt><trkpt lat="43.67864847286653" lon="10.459456447083157"><ele>1.0</ele><time>2026-04-07T10:26:30Z</time></trkpt><trkpt lat="43.6785451389346" lon="10.459648660620774"><ele>1.0</ele><time>2026-04-07T10:26:31Z</time></trkpt><trkpt lat="43.67843755726526" lon="10.459846421021181"><ele>1.0</ele><time>2026-04-07T10:26:32Z</time></trkpt><trkpt lat="43.67832576722265" lon="10.46004753766104"><ele>1.0</ele><time>2026-04-07T10:26:33Z</time></trkpt><trkpt lat="43.678211980621334" lon="10.460251103644278"><ele>1.3333333333333333</ele><time>2026-04-07T10:26:34Z</time></trkpt><trkpt lat="43.678100701605956" lon="10.460455636427712"><ele>1.6666666666666665</ele><time>2026-04-07T10:26:34.999Z</time></trkpt><trkpt lat="43.67799898817726" lon="10.460643480401862"><ele>2.0</ele><time>2026-04-07T10:26:35.999Z</time></trkpt><trkpt lat="43.677902554075914" lon="10.460823971846335"><ele>2.0</ele><time>2026-04-07T10:26:36.999Z</time></trkpt><trkpt lat="43.67780335263091" lon="10.461001706136962"><ele>2.0</ele><time>2026-04-07T10:26:37.999Z</time></trkpt><trkpt lat="43.67769930192587" lon="10.46118579028841"><ele>2.0</ele><time>2026-04-07T10:26:38.999Z</time></trkpt><trkpt lat="43.677594800883725" lon="10.461373203104284"><ele>2.333333333333333</ele><time>2026-04-07T10:26:39.999Z</time></trkpt><trkpt lat="43.67748827311857" lon="10.461566373855414"><ele>2.6666666666666665</ele><time>2026-04-07T10:26:40.999Z</time></trkpt><trkpt lat="43.6773806424271" lon="10.461764369864913"><ele>3.0</ele><time>2026-04-07T10:26:41.999Z</time></trkpt><trkpt lat="43.67728001711443" lon="10.4619524258407"><ele>2.6666666666666665</ele><time>2026-04-07T10:26:42.999Z</time></trkpt><trkpt lat="43.677172260586126" lon="10.46213020074453"><ele>2.333333333333333</ele><time>2026-04-07T10:26:43.999Z</time></trkpt><trkpt lat="43.67706450205467" lon="10.462321436560435"><ele>2.0</ele><time>2026-04-07T10:26:44.999Z</time></trkpt><trkpt lat="43.67696166845908" lon="10.462504475834658"><ele>2.0</ele><time>2026-04-07T10:26:45.999Z</time></trkpt><trkpt lat="43.676859870335036" lon="10.462694655094348"><ele>2.0</ele><time>2026-04-07T10:26:46.999Z</time></trkpt><trkpt lat="43.67675545493935" lon="10.462890443885092"><ele>2.0</ele><time>2026-04-07T10:26:47.999Z</time></trkpt><trkpt lat="43.67664428377458" lon="10.463108115132929"><ele>1.6666666666666665</ele><time>2026-04-07T10:26:48.999Z</time></trkpt><trkpt lat="43.67652698696964" lon="10.463341126183334"><ele>1.3333333333333333</ele><time>2026-04-07T10:26:49.999Z</time></trkpt><trkpt lat="43.67640388883622" lon="10.463593151870025"><ele>1.0</ele><time>2026-04-07T10:26:50.999Z</time></trkpt><trkpt lat="43.67627440626697" lon="10.463832208598047"><ele>1.0</ele><time>2026-04-07T10:26:51.999Z</time></trkpt><trkpt lat="43.67614570669842" lon="10.464064661892204"><ele>1.0</ele><time>2026-04-07T10:26:52.999Z</time></trkpt><trkpt lat="43.676024157680295" lon="10.464282225523695"><ele>1.0</ele><time>2026-04-07T10:26:53.999Z</time></trkpt><trkpt lat="43.67590385528899" lon="10.464498797369238"><ele>1.0</ele><time>2026-04-07T10:26:54.999Z</time></trkpt><trkpt lat="43.67578025473278" lon="10.464722309787845"><ele>1.0</ele><time>2026-04-07T10:26:55.999Z</time></trkpt><trkpt lat="43.67565283441743" lon="10.464956480646734"><ele>1.0</ele><time>2026-04-07T10:26:56.999Z</time></trkpt><trkpt lat="43.67552162628299" lon="10.465196042138725"><ele>1.0</ele><time>2026-04-07T10:26:57.999Z</time></trkpt><trkpt lat="43.675384924557775" lon="10.465442400913002"><ele>1.0</ele><time>2026-04-07T10:26:58.999Z</time></trkpt><trkpt lat="43.675244326664114" lon="10.465702023497027"><ele>1.0</ele><time>2026-04-07T10:26:59.999Z</time></trkpt><trkpt lat="43.67511174598075" lon="10.465930519144003"><ele>1.0</ele><time>2026-04-07T10:27:00.999Z</time></trkpt><trkpt lat="43.674977509498284" lon="10.466169427706538"><ele>1.0</ele><time>2026-04-07T10:27:01.999Z</time></trkpt><trkpt lat="43.67484550269723" lon="10.46640881777902"><ele>1.0</ele><time>2026-04-07T10:27:02.999Z</time></trkpt><trkpt lat="43.67470160279363" lon="10.466661724970427"><ele>1.0</ele><time>2026-04-07T10:27:03.999Z</time></trkpt><trkpt lat="43.67456983650979" lon="10.466894603116407"><ele>1.0</ele><time>2026-04-07T10:27:04.999Z</time></trkpt><trkpt lat="43.67443651592996" lon="10.467119617700655"><ele>0.5</ele><time>2026-04-07T10:27:05.999Z</time></trkpt><trkpt lat="43.674291145524535" lon="10.467366534136213"><ele>0.0</ele><time>2026-04-07T10:27:06.999Z</time></trkpt><trkpt lat="43.67414544498707" lon="10.46760786397284"><ele>0.0</ele><time>2026-04-07T10:27:07.999Z</time></trkpt><trkpt lat="43.67400660045774" lon="10.467859698621737"><ele>0.0</ele><time>2026-04-07T10:27:08.999Z</time></trkpt><trkpt lat="43.673871310693514" lon="10.468104376798474"><ele>0.0</ele><time>2026-04-07T10:27:09.999Z</time></trkpt><trkpt lat="43.673744784844686" lon="10.468340314858013"><ele>0.0</ele><time>2026-04-07T10:27:10.999Z</time></trkpt><trkpt lat="43.67361663685594" lon="10.46857352703302"><ele>0.0</ele><time>2026-04-07T10:27:11.999Z</time></trkpt><trkpt lat="43.673485823403965" lon="10.468817873955746"><ele>0.0</ele><time>2026-04-07T10:27:12.999Z</time></trkpt><trkpt lat="43.6733585891916" lon="10.469057282056191"><ele>0.0</ele><time>2026-04-07T10:27:13.999Z</time></trkpt><trkpt lat="43.673239816400674" lon="10.469304491074443"><ele>0.0</ele><time>2026-04-07T10:27:14.999Z</time></trkpt><trkpt lat="43.67311352481632" lon="10.469555278267638"><ele>0.3333333333333333</ele><time>2026-04-07T10:27:15.999Z</time></trkpt><trkpt lat="43.67298418759091" lon="10.469821467437532"><ele>0.6666666666666666</ele><time>2026-04-07T10:27:16.999Z</time></trkpt><trkpt lat="43.67287277731872" lon="10.470076448400226"><ele>1.0</ele><time>2026-04-07T10:27:17.999Z</time></trkpt><trkpt lat="43.67275773395987" lon="10.470332562436674"><ele>1.0</ele><time>2026-04-07T10:27:18.999Z</time></trkpt><trkpt lat="43.672644038860476" lon="10.470598880160924"><ele>1.0</ele><time>2026-04-07T10:27:19.999Z</time></trkpt><trkpt lat="43.672537361054815" lon="10.470854202013568"><ele>1.0</ele><time>2026-04-07T10:27:20.999Z</time></trkpt><trkpt lat="43.67242951412496" lon="10.47110663698534"><ele>0.3333333333333333</ele><time>2026-04-07T10:27:21.999Z</time></trkpt><trkpt lat="43.67233664469689" lon="10.471349589032567"><ele>-0.3333333333333333</ele><time>2026-04-07T10:27:22.999Z</time></trkpt><trkpt lat="43.6722424953176" lon="10.471612610841472"><ele>-1.0</ele><time>2026-04-07T10:27:23.999Z</time></trkpt><trkpt lat="43.672154065762136" lon="10.471895022586555"><ele>-0.6666666666666666</ele><time>2026-04-07T10:27:24.999Z</time></trkpt><trkpt lat="43.67206238131863" lon="10.472203837148315"><ele>-0.3333333333333333</ele><time>2026-04-07T10:27:25.999Z</time></trkpt><trkpt lat="43.67197247380035" lon="10.472452308460365"><ele>0.0</ele><time>2026-04-07T10:27:26.999Z</time></trkpt><trkpt lat="43.67189484621448" lon="10.472720558422628"><ele>0.6666666666666666</ele><time>2026-04-07T10:27:27.999Z</time></trkpt><trkpt lat="43.67181703836919" lon="10.472987692727271"><ele>1.3333333333333333</ele><time>2026-04-07T10:27:28.999Z</time></trkpt><trkpt lat="43.67174560976463" lon="10.473259067947156"><ele>2.0</ele><time>2026-04-07T10:27:29.999Z</time></trkpt><trkpt lat="43.6716807161212" lon="10.473537015108455"><ele>1.6666666666666665</ele><time>2026-04-07T10:27:30.999Z</time></trkpt><trkpt lat="43.67161442831157" lon="10.473816097873328"><ele>1.3333333333333333</ele><time>2026-04-07T10:27:31.999Z</time></trkpt><trkpt lat="43.67155548330158" lon="10.474093250473242"><ele>1.0</ele><time>2026-04-07T10:27:32.999Z</time></trkpt><trkpt lat="43.6714930844695" lon="10.474372293866193"><ele>0.6666666666666666</ele><time>2026-04-07T10:27:34Z</time></trkpt><trkpt lat="43.67144729727942" lon="10.47465704071941"><ele>0.3333333333333333</ele><time>2026-04-07T10:27:35Z</time></trkpt><trkpt lat="43.67140807444008" lon="10.474942016550763"><ele>0.0</ele><time>2026-04-07T10:27:36Z</time></trkpt><trkpt lat="43.67136419461441" lon="10.475220009383998"><ele>1.0</ele><time>2026-04-07T10:27:37Z</time></trkpt><trkpt lat="43.67132500827179" lon="10.475500880820267"><ele>2.0</ele><time>2026-04-07T10:27:38Z</time></trkpt><trkpt lat="43.67129521185609" lon="10.475776018919708"><ele>3.0</ele><time>2026-04-07T10:27:39Z</time></trkpt><trkpt lat="43.671272952421184" lon="10.476048031842993"><ele>2.6666666666666665</ele><time>2026-04-07T10:27:40Z</time></trkpt><trkpt lat="43.67124997888688" lon="10.476318159406244"><ele>2.333333333333333</ele><time>2026-04-07T10:27:41Z</time></trkpt><trkpt lat="43.67122504411453" lon="10.476587826490974"><ele>2.0</ele><time>2026-04-07T10:27:42Z</time></trkpt><trkpt lat="43.6712048432264" lon="10.476856896684072"><ele>1.6666666666666665</ele><time>2026-04-07T10:27:43Z</time></trkpt><trkpt lat="43.67119218068282" lon="10.477119169023409"><ele>1.3333333333333333</ele><time>2026-04-07T10:27:44Z</time></trkpt><trkpt lat="43.671180713545" lon="10.47738215335995"><ele>1.0</ele><time>2026-04-07T10:27:45Z</time></trkpt><trkpt lat="43.67117122428514" lon="10.477636197221745"><ele>1.0</ele><time>2026-04-07T10:27:46Z</time></trkpt><trkpt lat="43.671159789641806" lon="10.477893757458649"><ele>1.0</ele><time>2026-04-07T10:27:47Z</time></trkpt><trkpt lat="43.67115822197872" lon="10.47814842649069"><ele>1.0</ele><time>2026-04-07T10:27:48Z</time></trkpt><trkpt lat="43.67116548178067" lon="10.478422597489235"><ele>1.0</ele><time>2026-04-07T10:27:49Z</time></trkpt><trkpt lat="43.67117013853498" lon="10.478727653830603"><ele>1.0</ele><time>2026-04-07T10:27:50Z</time></trkpt><trkpt lat="43.67117209535201" lon="10.479028122919733"><ele>1.0</ele><time>2026-04-07T10:27:51Z</time></trkpt><trkpt lat="43.67117458476641" lon="10.479339215453047"><ele>1.3333333333333333</ele><time>2026-04-07T10:27:52Z</time></trkpt><trkpt lat="43.6711769035823" lon="10.479647694017784"><ele>1.6666666666666665</ele><time>2026-04-07T10:27:53Z</time></trkpt><trkpt lat="43.6711878295934" lon="10.479946731606008"><ele>2.0</ele><time>2026-04-07T10:27:54Z</time></trkpt><trkpt lat="43.67120509218536" lon="10.480238712360542"><ele>2.0</ele><time>2026-04-07T10:27:55Z</time></trkpt><trkpt lat="43.67121205560054" lon="10.480542412716197"><ele>2.0</ele><time>2026-04-07T10:27:56Z</time></trkpt><trkpt lat="43.67122333276325" lon="10.480856227791731"><ele>2.0</ele><time>2026-04-07T10:27:57Z</time></trkpt><trkpt lat="43.67123047601211" lon="10.481183000325531"><ele>3.0</ele><time>2026-04-07T10:27:58Z</time></trkpt><trkpt lat="43.6712414668351" lon="10.481505504724051"><ele>4.0</ele><time>2026-04-07T10:27:59Z</time></trkpt><trkpt lat="43.671263100513244" lon="10.481826436237878"><ele>3.333333333333333</ele><time>2026-04-07T10:28:00Z</time></trkpt><trkpt lat="43.6712647882837" lon="10.482115091825676"><ele>2.6666666666666665</ele><time>2026-04-07T10:28:01Z</time></trkpt><trkpt lat="43.67127954410657" lon="10.482421634160506"><ele>2.0</ele><time>2026-04-07T10:28:02Z</time></trkpt><trkpt lat="43.67129122204293" lon="10.482731008854953"><ele>1.5</ele><time>2026-04-07T10:28:03Z</time></trkpt><trkpt lat="43.671301425793786" lon="10.483040591896716"><ele>1.0</ele><time>2026-04-07T10:28:04Z</time></trkpt><trkpt lat="43.671313527862914" lon="10.483359615686322"><ele>1.0</ele><time>2026-04-07T10:28:05Z</time></trkpt><trkpt lat="43.671325452316516" lon="10.483681606018484"><ele>1.0</ele><time>2026-04-07T10:28:06Z</time></trkpt><trkpt lat="43.67133645794908" lon="10.484002251170601"><ele>1.5</ele><time>2026-04-07T10:28:07Z</time></trkpt><trkpt lat="43.67134516959141" lon="10.484323133000895"><ele>2.0</ele><time>2026-04-07T10:28:08Z</time></trkpt><trkpt lat="43.67135797198451" lon="10.484628603242607"><ele>2.0</ele><time>2026-04-07T10:28:09Z</time></trkpt><trkpt lat="43.671368956826164" lon="10.484940303832513"><ele>2.0</ele><time>2026-04-07T10:28:10Z</time></trkpt><trkpt lat="43.6713800465967" lon="10.485250362828527"><ele>2.5</ele><time>2026-04-07T10:28:11Z</time></trkpt><trkpt lat="43.671391067954374" lon="10.48556755050618"><ele>3.0</ele><time>2026-04-07T10:28:12Z</time></trkpt><trkpt lat="43.671402735861015" lon="10.485886651903689"><ele>3.0</ele><time>2026-04-07T10:28:13Z</time></trkpt><trkpt lat="43.671412730522455" lon="10.486201624123666"><ele>3.0</ele><time>2026-04-07T10:28:14Z</time></trkpt><trkpt lat="43.67142374236931" lon="10.48649467723529"><ele>3.0</ele><time>2026-04-07T10:28:15Z</time></trkpt><trkpt lat="43.67143179718059" lon="10.486793702264286"><ele>2.6666666666666665</ele><time>2026-04-07T10:28:16Z</time></trkpt><trkpt lat="43.67143938746058" lon="10.487098020251256"><ele>2.333333333333333</ele><time>2026-04-07T10:28:17Z</time></trkpt><trkpt lat="43.67145016970326" lon="10.487403727368207"><ele>2.0</ele><time>2026-04-07T10:28:18Z</time></trkpt><trkpt lat="43.67146444484683" lon="10.487715165978832"><ele>1.5</ele><time>2026-04-07T10:28:19Z</time></trkpt><trkpt lat="43.67147833851301" lon="10.488022684434668"><ele>1.0</ele><time>2026-04-07T10:28:20Z</time></trkpt><trkpt lat="43.671487660980965" lon="10.488335914821691"><ele>1.0</ele><time>2026-04-07T10:28:21Z</time></trkpt><trkpt lat="43.67149737074141" lon="10.488643139934332"><ele>1.0</ele><time>2026-04-07T10:28:22Z</time></trkpt><trkpt lat="43.67150751846787" lon="10.488956608716464"><ele>1.0</ele><time>2026-04-07T10:28:23Z</time></trkpt><trkpt lat="43.671518572330164" lon="10.489268600226557"><ele>1.0</ele><time>2026-04-07T10:28:24Z</time></trkpt><trkpt lat="43.67152792218602" lon="10.489583763590103"><ele>1.0</ele><time>2026-04-07T10:28:25Z</time></trkpt><trkpt lat="43.671539402407575" lon="10.489897072559558"><ele>1.0</ele><time>2026-04-07T10:28:26Z</time></trkpt><trkpt lat="43.67155210506106" lon="10.490211666806001"><ele>1.0</ele><time>2026-04-07T10:28:27Z</time></trkpt><trkpt lat="43.67156317066753" lon="10.490510515827493"><ele>1.0</ele><time>2026-04-07T10:28:28Z</time></trkpt><trkpt lat="43.67156960892592" lon="10.490794753473713"><ele>1.0</ele><time>2026-04-07T10:28:29Z</time></trkpt><trkpt lat="43.6715749773584" lon="10.491097364660918"><ele>1.0</ele><time>2026-04-07T10:28:30Z</time></trkpt><trkpt lat="43.67158197270234" lon="10.491392253080287"><ele>1.0</ele><time>2026-04-07T10:28:31Z</time></trkpt><trkpt lat="43.67158382996869" lon="10.491700890372728"><ele>1.3333333333333333</ele><time>2026-04-07T10:28:32Z</time></trkpt><trkpt lat="43.67158115829786" lon="10.492005935485487"><ele>1.6666666666666665</ele><time>2026-04-07T10:28:33Z</time></trkpt><trkpt lat="43.67156808668837" lon="10.492311905548275"><ele>2.0</ele><time>2026-04-07T10:28:34Z</time></trkpt><trkpt lat="43.67154723872034" lon="10.492619111840662"><ele>1.6666666666666665</ele><time>2026-04-07T10:28:35Z</time></trkpt><trkpt lat="43.671522265502645" lon="10.492929959284908"><ele>1.3333333333333333</ele><time>2026-04-07T10:28:36Z</time></trkpt><trkpt lat="43.671498712979684" lon="10.493234708678582"><ele>1.0</ele><time>2026-04-07T10:28:37Z</time></trkpt><trkpt lat="43.67146374856813" lon="10.49353991136618"><ele>1.3333333333333333</ele><time>2026-04-07T10:28:38Z</time></trkpt><trkpt lat="43.67142776189042" lon="10.493843903113458"><ele>1.6666666666666665</ele><time>2026-04-07T10:28:39Z</time></trkpt><trkpt lat="43.67139237766176" lon="10.494150370014914"><ele>2.0</ele><time>2026-04-07T10:28:40Z</time></trkpt><trkpt lat="43.671356788489035" lon="10.494460641104363"><ele>2.5</ele><time>2026-04-07T10:28:41Z</time></trkpt><trkpt lat="43.67132118484674" lon="10.494770740626354"><ele>3.0</ele><time>2026-04-07T10:28:41.999Z</time></trkpt><trkpt lat="43.67128527632836" lon="10.495080485572513"><ele>3.0</ele><time>2026-04-07T10:28:42.999Z</time></trkpt><trkpt lat="43.67124854953486" lon="10.495382387427965"><ele>3.0</ele><time>2026-04-07T10:28:43.999Z</time></trkpt><trkpt lat="43.67121236918375" lon="10.495699535453639"><ele>3.0</ele><time>2026-04-07T10:28:44.999Z</time></trkpt><trkpt lat="43.671175229966515" lon="10.496014959482721"><ele>3.0</ele><time>2026-04-07T10:28:45.999Z</time></trkpt><trkpt lat="43.67113725090722" lon="10.496324841985118"><ele>2.5</ele><time>2026-04-07T10:28:46.999Z</time></trkpt><trkpt lat="43.671102358473" lon="10.496640955512808"><ele>2.0</ele><time>2026-04-07T10:28:47.999Z</time></trkpt><trkpt lat="43.671065416126" lon="10.496946899028089"><ele>1.6666666666666665</ele><time>2026-04-07T10:28:48.999Z</time></trkpt><trkpt lat="43.671030098539205" lon="10.497238048133344"><ele>1.3333333333333333</ele><time>2026-04-07T10:28:49.999Z</time></trkpt><trkpt lat="43.670992119544366" lon="10.49754124479361"><ele>1.0</ele><time>2026-04-07T10:28:50.999Z</time></trkpt><trkpt lat="43.67095325762473" lon="10.49784334422336"><ele>1.0</ele><time>2026-04-07T10:28:51.999Z</time></trkpt><trkpt lat="43.67091764705075" lon="10.498129892421371"><ele>1.0</ele><time>2026-04-07T10:28:52.999Z</time></trkpt><trkpt lat="43.67088204232761" lon="10.498428862990957"><ele>1.0</ele><time>2026-04-07T10:28:53.999Z</time></trkpt><trkpt lat="43.67084666338325" lon="10.498735771022885"><ele>2.0</ele><time>2026-04-07T10:28:54.999Z</time></trkpt><trkpt lat="43.670809687274954" lon="10.499045627380301"><ele>3.0</ele><time>2026-04-07T10:28:55.999Z</time></trkpt><trkpt lat="43.67077423056278" lon="10.499354276048539"><ele>3.0</ele><time>2026-04-07T10:28:56.999Z</time></trkpt><trkpt lat="43.67074026716075" lon="10.499661362986044"><ele>3.0</ele><time>2026-04-07T10:28:57.999Z</time></trkpt><trkpt lat="43.67070222889939" lon="10.499967661287906"><ele>3.0</ele><time>2026-04-07T10:28:58.999Z</time></trkpt><trkpt lat="43.67066406141288" lon="10.500277294246509"><ele>3.0</ele><time>2026-04-07T10:28:59.999Z</time></trkpt><trkpt lat="43.67062426944906" lon="10.50058768573022"><ele>3.0</ele><time>2026-04-07T10:29:00.999Z</time></trkpt><trkpt lat="43.67058766675287" lon="10.500896458289498"><ele>3.0</ele><time>2026-04-07T10:29:01.999Z</time></trkpt><trkpt lat="43.67055430986915" lon="10.501206986490935"><ele>3.0</ele><time>2026-04-07T10:29:02.999Z</time></trkpt><trkpt lat="43.670519898989525" lon="10.501519672682988"><ele>3.0</ele><time>2026-04-07T10:29:03.999Z</time></trkpt><trkpt lat="43.67048123874692" lon="10.501834319635954"><ele>3.0</ele><time>2026-04-07T10:29:04.999Z</time></trkpt><trkpt lat="43.67044186963718" lon="10.502142443578345"><ele>2.5</ele><time>2026-04-07T10:29:05.999Z</time></trkpt><trkpt lat="43.67040287639036" lon="10.502457304179162"><ele>2.0</ele><time>2026-04-07T10:29:06.999Z</time></trkpt><trkpt lat="43.6703655703136" lon="10.50277401885016"><ele>2.0</ele><time>2026-04-07T10:29:07.999Z</time></trkpt><trkpt lat="43.67033080486345" lon="10.503082881595704"><ele>2.0</ele><time>2026-04-07T10:29:08.999Z</time></trkpt><trkpt lat="43.670294713302994" lon="10.503384090325765"><ele>2.0</ele><time>2026-04-07T10:29:09.999Z</time></trkpt><trkpt lat="43.67025992881739" lon="10.503665083059596"><ele>2.333333333333333</ele><time>2026-04-07T10:29:10.999Z</time></trkpt><trkpt lat="43.6702264687736" lon="10.503939930505942"><ele>2.6666666666666665</ele><time>2026-04-07T10:29:11.999Z</time></trkpt><trkpt lat="43.67019637386472" lon="10.504219166755556"><ele>3.0</ele><time>2026-04-07T10:29:12.999Z</time></trkpt><trkpt lat="43.6701653010996" lon="10.504493227057345"><ele>3.0</ele><time>2026-04-07T10:29:13.999Z</time></trkpt><trkpt lat="43.67012931368408" lon="10.504775833429408"><ele>3.0</ele><time>2026-04-07T10:29:14.999Z</time></trkpt><trkpt lat="43.67009434313799" lon="10.505056209255718"><ele>3.0</ele><time>2026-04-07T10:29:15.999Z</time></trkpt><trkpt lat="43.67006113378459" lon="10.50534121774503"><ele>2.3333333333333335</ele><time>2026-04-07T10:29:16.999Z</time></trkpt><trkpt lat="43.67002827043096" lon="10.505624406835004"><ele>1.6666666666666665</ele><time>2026-04-07T10:29:17.999Z</time></trkpt><trkpt lat="43.66999459671156" lon="10.50591449893823"><ele>1.0</ele><time>2026-04-07T10:29:18.999Z</time></trkpt><trkpt lat="43.66996074301566" lon="10.506201449347202"><ele>1.0</ele><time>2026-04-07T10:29:19.999Z</time></trkpt><trkpt lat="43.669930222951535" lon="10.506492975586099"><ele>1.0</ele><time>2026-04-07T10:29:20.999Z</time></trkpt><trkpt lat="43.66989741876773" lon="10.506783197684342"><ele>1.0</ele><time>2026-04-07T10:29:21.999Z</time></trkpt><trkpt lat="43.66986868083616" lon="10.507078177719881"><ele>1.0</ele><time>2026-04-07T10:29:22.999Z</time></trkpt><trkpt lat="43.66983308157792" lon="10.507368976405116"><ele>1.0</ele><time>2026-04-07T10:29:23.999Z</time></trkpt><trkpt lat="43.66979554887875" lon="10.507662764290215"><ele>1.0</ele><time>2026-04-07T10:29:24.999Z</time></trkpt><trkpt lat="43.669757899635265" lon="10.507954039332853"><ele>1.3333333333333333</ele><time>2026-04-07T10:29:25.999Z</time></trkpt><trkpt lat="43.66972069752209" lon="10.508258475196294"><ele>1.6666666666666665</ele><time>2026-04-07T10:29:26.999Z</time></trkpt><trkpt lat="43.6696862169392" lon="10.508539057037376"><ele>2.0</ele><time>2026-04-07T10:29:27.999Z</time></trkpt><trkpt lat="43.669654001644886" lon="10.508838248716938"><ele>2.0</ele><time>2026-04-07T10:29:28.999Z</time></trkpt><trkpt lat="43.669614895671536" lon="10.509155075027815"><ele>2.0</ele><time>2026-04-07T10:29:29.999Z</time></trkpt><trkpt lat="43.669575840305704" lon="10.509467055723475"><ele>2.333333333333333</ele><time>2026-04-07T10:29:30.999Z</time></trkpt><trkpt lat="43.669536258054315" lon="10.50979996815037"><ele>2.6666666666666665</ele><time>2026-04-07T10:29:31.999Z</time></trkpt><trkpt lat="43.669503713869105" lon="10.510058704751152"><ele>3.0</ele><time>2026-04-07T10:29:32.999Z</time></trkpt><trkpt lat="43.66946954097056" lon="10.510339776528944"><ele>3.0</ele><time>2026-04-07T10:29:33.999Z</time></trkpt><trkpt lat="43.6694339957237" lon="10.510633808056696"><ele>3.0</ele><time>2026-04-07T10:29:34.999Z</time></trkpt><trkpt lat="43.669398312317995" lon="10.510938534954178"><ele>3.0</ele><time>2026-04-07T10:29:35.999Z</time></trkpt><trkpt lat="43.66936870193294" lon="10.511224197129964"><ele>3.333333333333333</ele><time>2026-04-07T10:29:36.999Z</time></trkpt><trkpt lat="43.66933396285947" lon="10.511511366589005"><ele>3.6666666666666665</ele><time>2026-04-07T10:29:37.999Z</time></trkpt><trkpt lat="43.66930007695024" lon="10.511806688958687"><ele>4.0</ele><time>2026-04-07T10:29:38.999Z</time></trkpt><trkpt lat="43.669266797921985" lon="10.512082112909729"><ele>4.333333333333333</ele><time>2026-04-07T10:29:40Z</time></trkpt><trkpt lat="43.669232375740464" lon="10.512361896793305"><ele>4.666666666666667</ele><time>2026-04-07T10:29:41Z</time></trkpt><trkpt lat="43.66919680620393" lon="10.512645703753966"><ele>5.0</ele><time>2026-04-07T10:29:42Z</time></trkpt><trkpt lat="43.66916446266311" lon="10.512953219804167"><ele>4.333333333333334</ele><time>2026-04-07T10:29:43Z</time></trkpt><trkpt lat="43.669129940508874" lon="10.513239345928636"><ele>3.666666666666667</ele><time>2026-04-07T10:29:44Z</time></trkpt><trkpt lat="43.669095733551394" lon="10.513532191284385"><ele>3.0</ele><time>2026-04-07T10:29:45Z</time></trkpt><trkpt lat="43.66906325494098" lon="10.51381238257129"><ele>3.0</ele><time>2026-04-07T10:29:46Z</time></trkpt><trkpt lat="43.66903137274841" lon="10.514088598565882"><ele>3.0</ele><time>2026-04-07T10:29:47Z</time></trkpt><trkpt lat="43.66899690005616" lon="10.514373552788548"><ele>3.0</ele><time>2026-04-07T10:29:48Z</time></trkpt><trkpt lat="43.668961669845736" lon="10.514662650090386"><ele>2.6666666666666665</ele><time>2026-04-07T10:29:49Z</time></trkpt><trkpt lat="43.66892553632657" lon="10.514954634854076"><ele>2.333333333333333</ele><time>2026-04-07T10:29:50Z</time></trkpt><trkpt lat="43.66889211171732" lon="10.5152558266015"><ele>2.0</ele><time>2026-04-07T10:29:51Z</time></trkpt><trkpt lat="43.66885399921513" lon="10.515561054844875"><ele>2.6666666666666665</ele><time>2026-04-07T10:29:52Z</time></trkpt><trkpt lat="43.66881739257029" lon="10.515864242447138"><ele>3.333333333333333</ele><time>2026-04-07T10:29:53Z</time></trkpt><trkpt lat="43.66878245853728" lon="10.516158967707712"><ele>4.0</ele><time>2026-04-07T10:29:54Z</time></trkpt><trkpt lat="43.668744618639366" lon="10.516455637694747"><ele>4.333333333333333</ele><time>2026-04-07T10:29:55Z</time></trkpt><trkpt lat="43.668706908333476" lon="10.516756529232401"><ele>4.666666666666667</ele><time>2026-04-07T10:29:56Z</time></trkpt><trkpt lat="43.66867032130246" lon="10.517061007906259"><ele>5.0</ele><time>2026-04-07T10:29:57Z</time></trkpt><trkpt lat="43.66863612975872" lon="10.517365434980725"><ele>4.333333333333334</ele><time>2026-04-07T10:29:58Z</time></trkpt><trkpt lat="43.66860195858178" lon="10.517671103518877"><ele>3.666666666666667</ele><time>2026-04-07T10:29:59Z</time></trkpt><trkpt lat="43.66856936143553" lon="10.517975040254255"><ele>3.0</ele><time>2026-04-07T10:30:00Z</time></trkpt><trkpt lat="43.66852927055199" lon="10.518275589730711"><ele>2.6666666666666665</ele><time>2026-04-07T10:30:01Z</time></trkpt><trkpt lat="43.668495435196334" lon="10.518579579357556"><ele>2.333333333333333</ele><time>2026-04-07T10:30:02Z</time></trkpt><trkpt lat="43.668465624882714" lon="10.518873251848124"><ele>2.0</ele><time>2026-04-07T10:30:03Z</time></trkpt><trkpt lat="43.668427880862964" lon="10.519179917318867"><ele>2.0</ele><time>2026-04-07T10:30:04Z</time></trkpt><trkpt lat="43.668389122069705" lon="10.519485187084413"><ele>2.0</ele><time>2026-04-07T10:30:05Z</time></trkpt><trkpt lat="43.66832573278761" lon="10.519804964161265"><ele>2.0</ele><time>2026-04-07T10:30:06Z</time></trkpt><trkpt lat="43.6682273959666" lon="10.520148422638414"><ele>2.0</ele><time>2026-04-07T10:30:07Z</time></trkpt><trkpt lat="43.66812591344837" lon="10.520493311646806"><ele>3.5</ele><time>2026-04-07T10:30:08Z</time></trkpt><trkpt lat="43.668038606225856" lon="10.520825340778291"><ele>5.0</ele><time>2026-04-07T10:30:09Z</time></trkpt><trkpt lat="43.667942409241235" lon="10.521158203463822"><ele>5.0</ele><time>2026-04-07T10:30:10Z</time></trkpt><trkpt lat="43.66817945665889" lon="10.521214182880886"><ele>5.0</ele><time>2026-04-07T10:30:11Z</time></trkpt><trkpt lat="43.66815141304017" lon="10.521491292960562"><ele>5.0</ele><time>2026-04-07T10:30:12Z</time></trkpt><trkpt lat="43.6681167678146" lon="10.521773076855302"><ele>4.0</ele><time>2026-04-07T10:30:13Z</time></trkpt><trkpt lat="43.668085519714154" lon="10.522052498423438"><ele>3.0</ele><time>2026-04-07T10:30:14Z</time></trkpt><trkpt lat="43.66805109056214" lon="10.522336122978036"><ele>2.0</ele><time>2026-04-07T10:30:15Z</time></trkpt><trkpt lat="43.66801904062131" lon="10.522627533739072"><ele>2.6666666666666665</ele><time>2026-04-07T10:30:16Z</time></trkpt><trkpt lat="43.667986068751254" lon="10.522914362391951"><ele>3.333333333333333</ele><time>2026-04-07T10:30:17Z</time></trkpt><trkpt lat="43.66795573826643" lon="10.523202550237382"><ele>4.0</ele><time>2026-04-07T10:30:18Z</time></trkpt><trkpt lat="43.66792264053971" lon="10.523493489242817"><ele>4.333333333333333</ele><time>2026-04-07T10:30:19Z</time></trkpt><trkpt lat="43.667885583295906" lon="10.523785532167858"><ele>4.666666666666667</ele><time>2026-04-07T10:30:20Z</time></trkpt><trkpt lat="43.66784802327012" lon="10.524075457204972"><ele>5.0</ele><time>2026-04-07T10:30:21Z</time></trkpt><trkpt lat="43.667812239842085" lon="10.524364603808456"><ele>5.0</ele><time>2026-04-07T10:30:22Z</time></trkpt><trkpt lat="43.66777921742466" lon="10.524657953446043"><ele>5.0</ele><time>2026-04-07T10:30:23Z</time></trkpt><trkpt lat="43.66774408308179" lon="10.52495204949669"><ele>5.0</ele><time>2026-04-07T10:30:24Z</time></trkpt><trkpt lat="43.66770982976439" lon="10.525247316602158"><ele>4.333333333333334</ele><time>2026-04-07T10:30:25Z</time></trkpt><trkpt lat="43.667675192147094" lon="10.525542489469709"><ele>3.666666666666667</ele><time>2026-04-07T10:30:26Z</time></trkpt><trkpt lat="43.66763670348788" lon="10.525828659064496"><ele>3.0</ele><time>2026-04-07T10:30:27Z</time></trkpt><trkpt lat="43.66759708173486" lon="10.526116096115704"><ele>2.6666666666666665</ele><time>2026-04-07T10:30:28Z</time></trkpt><trkpt lat="43.667560736632105" lon="10.52640699742311"><ele>2.333333333333333</ele><time>2026-04-07T10:30:29Z</time></trkpt><trkpt lat="43.667522053582296" lon="10.526692533009268"><ele>2.0</ele><time>2026-04-07T10:30:30Z</time></trkpt><trkpt lat="43.66747550599995" lon="10.526974363372915"><ele>2.0</ele><time>2026-04-07T10:30:31Z</time></trkpt><trkpt lat="43.66742551992096" lon="10.527262912991949"><ele>2.0</ele><time>2026-04-07T10:30:32Z</time></trkpt><trkpt lat="43.66737316530899" lon="10.527545937104566"><ele>2.0</ele><time>2026-04-07T10:30:33Z</time></trkpt><trkpt lat="43.66730968461048" lon="10.527818097553377"><ele>3.333333333333333</ele><time>2026-04-07T10:30:34Z</time></trkpt><trkpt lat="43.667249014554116" lon="10.52809170705828"><ele>4.666666666666667</ele><time>2026-04-07T10:30:35Z</time></trkpt><trkpt lat="43.66718825177189" lon="10.528361178379296"><ele>6.0</ele><time>2026-04-07T10:30:36Z</time></trkpt><trkpt lat="43.667103562260834" lon="10.5286293365415"><ele>5.333333333333333</ele><time>2026-04-07T10:30:37Z</time></trkpt><trkpt lat="43.66701741524277" lon="10.528901025803432"><ele>4.666666666666666</ele><time>2026-04-07T10:30:38Z</time></trkpt><trkpt lat="43.66692606159281" lon="10.529167610666393"><ele>4.0</ele><time>2026-04-07T10:30:39Z</time></trkpt><trkpt lat="43.66682894063099" lon="10.529434700636497"><ele>4.0</ele><time>2026-04-07T10:30:40Z</time></trkpt><trkpt lat="43.66672327174" lon="10.52969176527203"><ele>4.0</ele><time>2026-04-07T10:30:41Z</time></trkpt><trkpt lat="43.66660856470993" lon="10.529953584959056"><ele>4.0</ele><time>2026-04-07T10:30:42Z</time></trkpt><trkpt lat="43.66648250052893" lon="10.530208967359911"><ele>4.0</ele><time>2026-04-07T10:30:43Z</time></trkpt><trkpt lat="43.66635067621255" lon="10.530454548750967"><ele>4.0</ele><time>2026-04-07T10:30:44Z</time></trkpt><trkpt lat="43.66621871218054" lon="10.530702010649936"><ele>4.0</ele><time>2026-04-07T10:30:45Z</time></trkpt><trkpt lat="43.66607496553691" lon="10.530942556473262"><ele>4.0</ele><time>2026-04-07T10:30:46Z</time></trkpt><trkpt lat="43.665923790561955" lon="10.531175112457428"><ele>4.0</ele><time>2026-04-07T10:30:47Z</time></trkpt><trkpt lat="43.66577162593906" lon="10.531404137616912"><ele>4.333333333333333</ele><time>2026-04-07T10:30:47.999Z</time></trkpt><trkpt lat="43.66562817454735" lon="10.531591324782022"><ele>4.666666666666667</ele><time>2026-04-07T10:30:48.999Z</time></trkpt><trkpt lat="43.66547654214212" lon="10.531776093276282"><ele>5.0</ele><time>2026-04-07T10:30:49.999Z</time></trkpt><trkpt lat="43.665322050694485" lon="10.531961432368986"><ele>5.333333333333334</ele><time>2026-04-07T10:30:50.999Z</time></trkpt><trkpt lat="43.665169536252975" lon="10.53213951262216"><ele>5.666666666666667</ele><time>2026-04-07T10:30:51.999Z</time></trkpt><trkpt lat="43.6650134174628" lon="10.53230624614099"><ele>6.0</ele><time>2026-04-07T10:30:52.999Z</time></trkpt><trkpt lat="43.664850726758345" lon="10.532459307942476"><ele>6.0</ele><time>2026-04-07T10:30:53.999Z</time></trkpt><trkpt lat="43.66468237682428" lon="10.532612778616619"><ele>6.0</ele><time>2026-04-07T10:30:54.999Z</time></trkpt><trkpt lat="43.66451283338983" lon="10.53275655814164"><ele>6.0</ele><time>2026-04-07T10:30:55.999Z</time></trkpt><trkpt lat="43.66434244624554" lon="10.532897834823299"><ele>5.666666666666667</ele><time>2026-04-07T10:30:56.999Z</time></trkpt><trkpt lat="43.664165697474736" lon="10.533029551758164"><ele>5.333333333333334</ele><time>2026-04-07T10:30:57.999Z</time></trkpt><trkpt lat="43.66398633423052" lon="10.533162748349739"><ele>5.0</ele><time>2026-04-07T10:30:58.999Z</time></trkpt><trkpt lat="43.66380454546521" lon="10.533299838945709"><ele>5.0</ele><time>2026-04-07T10:30:59.999Z</time></trkpt><trkpt lat="43.663613924446295" lon="10.533431819140867"><ele>5.0</ele><time>2026-04-07T10:31:00.999Z</time></trkpt><trkpt lat="43.66341767346609" lon="10.533560308105328"><ele>5.0</ele><time>2026-04-07T10:31:01.999Z</time></trkpt><trkpt lat="43.663218311384284" lon="10.533687414184582"><ele>4.333333333333334</ele><time>2026-04-07T10:31:02.999Z</time></trkpt><trkpt lat="43.66302437150002" lon="10.533799274225954"><ele>3.666666666666667</ele><time>2026-04-07T10:31:03.999Z</time></trkpt><trkpt lat="43.66283504755197" lon="10.533905357030482"><ele>3.0</ele><time>2026-04-07T10:31:04.999Z</time></trkpt><trkpt lat="43.66265041107422" lon="10.534023160666813"><ele>2.6666666666666665</ele><time>2026-04-07T10:31:05.999Z</time></trkpt><trkpt lat="43.662457509388645" lon="10.534139861135253"><ele>2.333333333333333</ele><time>2026-04-07T10:31:06.999Z</time></trkpt><trkpt lat="43.662267516255774" lon="10.534256400411328"><ele>2.0</ele><time>2026-04-07T10:31:07.999Z</time></trkpt><trkpt lat="43.66208999964991" lon="10.534360164788962"><ele>3.333333333333333</ele><time>2026-04-07T10:31:08.999Z</time></trkpt><trkpt lat="43.661908096359106" lon="10.534465789841198"><ele>4.666666666666667</ele><time>2026-04-07T10:31:09.999Z</time></trkpt><trkpt lat="43.66172789460045" lon="10.534573141832945"><ele>6.0</ele><time>2026-04-07T10:31:10.999Z</time></trkpt><trkpt lat="43.66154458559619" lon="10.534689799896265"><ele>6.0</ele><time>2026-04-07T10:31:11.999Z</time></trkpt><trkpt lat="43.66135913365456" lon="10.534799771361328"><ele>6.0</ele><time>2026-04-07T10:31:12.999Z</time></trkpt><trkpt lat="43.66116771385408" lon="10.534915705392269"><ele>6.0</ele><time>2026-04-07T10:31:13.999Z</time></trkpt><trkpt lat="43.66097341406687" lon="10.535037425485669"><ele>6.0</ele><time>2026-04-07T10:31:14.999Z</time></trkpt><trkpt lat="43.660779685232455" lon="10.535149710589229"><ele>6.0</ele><time>2026-04-07T10:31:15.999Z</time></trkpt><trkpt lat="43.6605805424508" lon="10.535268552913234"><ele>6.0</ele><time>2026-04-07T10:31:16.999Z</time></trkpt><trkpt lat="43.660382052620825" lon="10.535391284870228"><ele>5.333333333333333</ele><time>2026-04-07T10:31:17.999Z</time></trkpt><trkpt lat="43.66018351957787" lon="10.535513028181642"><ele>4.666666666666666</ele><time>2026-04-07T10:31:18.999Z</time></trkpt><trkpt lat="43.65998557044939" lon="10.53562886866808"><ele>4.0</ele><time>2026-04-07T10:31:19.999Z</time></trkpt><trkpt lat="43.659791869229416" lon="10.535737525279254"><ele>4.0</ele><time>2026-04-07T10:31:20.999Z</time></trkpt><trkpt lat="43.65960343211696" lon="10.53585381432468"><ele>4.0</ele><time>2026-04-07T10:31:21.999Z</time></trkpt><trkpt lat="43.65941069008597" lon="10.535973249167913"><ele>4.0</ele><time>2026-04-07T10:31:22.999Z</time></trkpt><trkpt lat="43.6592149828486" lon="10.53609017251871"><ele>4.0</ele><time>2026-04-07T10:31:23.999Z</time></trkpt><trkpt lat="43.65901689763092" lon="10.53620866516916"><ele>4.0</ele><time>2026-04-07T10:31:24.999Z</time></trkpt><trkpt lat="43.658818035866275" lon="10.536329102337254"><ele>4.0</ele><time>2026-04-07T10:31:25.999Z</time></trkpt><trkpt lat="43.658618477499765" lon="10.536452601126399"><ele>4.666666666666666</ele><time>2026-04-07T10:31:26.999Z</time></trkpt><trkpt lat="43.658411991616106" lon="10.536574633442127"><ele>5.333333333333333</ele><time>2026-04-07T10:31:27.999Z</time></trkpt><trkpt lat="43.65821050294073" lon="10.536694347990021"><ele>6.0</ele><time>2026-04-07T10:31:28.999Z</time></trkpt><trkpt lat="43.65800737582834" lon="10.536810792464058"><ele>6.0</ele><time>2026-04-07T10:31:29.999Z</time></trkpt><trkpt lat="43.657805469248245" lon="10.536935083451667"><ele>6.0</ele><time>2026-04-07T10:31:30.999Z</time></trkpt><trkpt lat="43.65761051952841" lon="10.537051482058441"><ele>6.0</ele><time>2026-04-07T10:31:31.999Z</time></trkpt><trkpt lat="43.657418368916865" lon="10.53716422649828"><ele>6.0</ele><time>2026-04-07T10:31:32.999Z</time></trkpt><trkpt lat="43.65723426905917" lon="10.537276160543202"><ele>6.0</ele><time>2026-04-07T10:31:33.999Z</time></trkpt><trkpt lat="43.65704353612895" lon="10.537388497300833"><ele>6.0</ele><time>2026-04-07T10:31:34.999Z</time></trkpt><trkpt lat="43.65684708237497" lon="10.537508314159899"><ele>6.0</ele><time>2026-04-07T10:31:35.999Z</time></trkpt><trkpt lat="43.65665475307875" lon="10.537622261527716"><ele>6.0</ele><time>2026-04-07T10:31:36.999Z</time></trkpt><trkpt lat="43.65646321791394" lon="10.53773720702417"><ele>6.0</ele><time>2026-04-07T10:31:37.999Z</time></trkpt><trkpt lat="43.65627134435166" lon="10.537849027796177"><ele>5.666666666666667</ele><time>2026-04-07T10:31:38.999Z</time></trkpt><trkpt lat="43.656084444786046" lon="10.537966433496088"><ele>5.333333333333334</ele><time>2026-04-07T10:31:39.999Z</time></trkpt><trkpt lat="43.65589350591174" lon="10.538084625494326"><ele>5.0</ele><time>2026-04-07T10:31:40.999Z</time></trkpt><trkpt lat="43.655699004439526" lon="10.538203278037209"><ele>5.0</ele><time>2026-04-07T10:31:41.999Z</time></trkpt><trkpt lat="43.65550381525042" lon="10.538315659646226"><ele>5.0</ele><time>2026-04-07T10:31:42.999Z</time></trkpt><trkpt lat="43.655310830998324" lon="10.538429143042364"><ele>5.0</ele><time>2026-04-07T10:31:43.999Z</time></trkpt><trkpt lat="43.65511891439599" lon="10.538550482879916"><ele>5.0</ele><time>2026-04-07T10:31:44.999Z</time></trkpt><trkpt lat="43.65493104037529" lon="10.538672541094245"><ele>5.0</ele><time>2026-04-07T10:31:46Z</time></trkpt><trkpt lat="43.6547412070782" lon="10.5387989770703"><ele>5.0</ele><time>2026-04-07T10:31:47Z</time></trkpt><trkpt lat="43.6545513700517" lon="10.538933086420347"><ele>5.666666666666667</ele><time>2026-04-07T10:31:48Z</time></trkpt><trkpt lat="43.654366726663994" lon="10.539075118397122"><ele>6.333333333333334</ele><time>2026-04-07T10:31:49Z</time></trkpt><trkpt lat="43.65418568095382" lon="10.539223308623095"><ele>7.0</ele><time>2026-04-07T10:31:50Z</time></trkpt><trkpt lat="43.65400690777816" lon="10.539380387806082"><ele>7.0</ele><time>2026-04-07T10:31:51Z</time></trkpt><trkpt lat="43.6538355301277" lon="10.539544941555553"><ele>7.0</ele><time>2026-04-07T10:31:52Z</time></trkpt><trkpt lat="43.65365824591214" lon="10.53970983629872"><ele>7.0</ele><time>2026-04-07T10:31:53Z</time></trkpt><trkpt lat="43.653493541333184" lon="10.539881562371225"><ele>6.333333333333334</ele><time>2026-04-07T10:31:54Z</time></trkpt><trkpt lat="43.65332578756211" lon="10.540067611796784"><ele>5.666666666666667</ele><time>2026-04-07T10:31:55Z</time></trkpt><trkpt lat="43.65316642256716" lon="10.540263393378963"><ele>5.0</ele><time>2026-04-07T10:31:56Z</time></trkpt><trkpt lat="43.65300689548819" lon="10.540455812740658"><ele>5.0</ele><time>2026-04-07T10:31:57Z</time></trkpt><trkpt lat="43.652862110606904" lon="10.540656667230353"><ele>5.0</ele><time>2026-04-07T10:31:58Z</time></trkpt><trkpt lat="43.65272705487062" lon="10.54086159979598"><ele>5.0</ele><time>2026-04-07T10:31:59Z</time></trkpt><trkpt lat="43.65259336735622" lon="10.541071021335922"><ele>5.333333333333334</ele><time>2026-04-07T10:32:00Z</time></trkpt><trkpt lat="43.65245975750695" lon="10.541290674590051"><ele>5.666666666666667</ele><time>2026-04-07T10:32:01Z</time></trkpt><trkpt lat="43.652330294566276" lon="10.541518028622306"><ele>6.0</ele><time>2026-04-07T10:32:02Z</time></trkpt><trkpt lat="43.652207023779226" lon="10.541760809162723"><ele>6.0</ele><time>2026-04-07T10:32:03Z</time></trkpt><trkpt lat="43.65208784894104" lon="10.542007774102597"><ele>6.0</ele><time>2026-04-07T10:32:04Z</time></trkpt><trkpt lat="43.6519711569538" lon="10.542261936966664"><ele>6.0</ele><time>2026-04-07T10:32:05Z</time></trkpt><trkpt lat="43.65186365308381" lon="10.54251720706631"><ele>5.666666666666667</ele><time>2026-04-07T10:32:06Z</time></trkpt><trkpt lat="43.65175890843332" lon="10.542778161081094"><ele>5.333333333333334</ele><time>2026-04-07T10:32:07Z</time></trkpt><trkpt lat="43.65166076557639" lon="10.543039227053917"><ele>5.0</ele><time>2026-04-07T10:32:08Z</time></trkpt><trkpt lat="43.65156752306608" lon="10.543301523163159"><ele>5.0</ele><time>2026-04-07T10:32:09Z</time></trkpt><trkpt lat="43.65146712083025" lon="10.543568200129977"><ele>5.0</ele><time>2026-04-07T10:32:10Z</time></trkpt><trkpt lat="43.65137298265271" lon="10.543836481101678"><ele>5.0</ele><time>2026-04-07T10:32:11Z</time></trkpt><trkpt lat="43.651279619410964" lon="10.544105594253036"><ele>5.0</ele><time>2026-04-07T10:32:12Z</time></trkpt><trkpt lat="43.65118205434364" lon="10.54438050889489"><ele>5.0</ele><time>2026-04-07T10:32:13Z</time></trkpt><trkpt lat="43.65108511379231" lon="10.544647715107475"><ele>5.0</ele><time>2026-04-07T10:32:14Z</time></trkpt><trkpt lat="43.650997026854306" lon="10.544895913996207"><ele>5.0</ele><time>2026-04-07T10:32:15Z</time></trkpt><trkpt lat="43.65091009282215" lon="10.545139630949887"><ele>5.0</ele><time>2026-04-07T10:32:16Z</time></trkpt><trkpt lat="43.650824883742814" lon="10.545383957775838"><ele>5.0</ele><time>2026-04-07T10:32:17Z</time></trkpt><trkpt lat="43.65073973872074" lon="10.545624627595979"><ele>5.0</ele><time>2026-04-07T10:32:18Z</time></trkpt><trkpt lat="43.65065226447751" lon="10.545873871321394"><ele>5.0</ele><time>2026-04-07T10:32:19Z</time></trkpt><trkpt lat="43.65057447424008" lon="10.546125782052911"><ele>5.0</ele><time>2026-04-07T10:32:20Z</time></trkpt><trkpt lat="43.65049561413745" lon="10.54636197611528"><ele>5.0</ele><time>2026-04-07T10:32:21Z</time></trkpt><trkpt lat="43.650406486959696" lon="10.546610924173548"><ele>5.0</ele><time>2026-04-07T10:32:22Z</time></trkpt><trkpt lat="43.65031982103871" lon="10.546862980005985"><ele>5.0</ele><time>2026-04-07T10:32:23Z</time></trkpt><trkpt lat="43.650240840075845" lon="10.547105447769047"><ele>5.0</ele><time>2026-04-07T10:32:24Z</time></trkpt><trkpt lat="43.65014902661878" lon="10.547344701714296"><ele>5.0</ele><time>2026-04-07T10:32:25Z</time></trkpt><trkpt lat="43.65006611024734" lon="10.547602997467608"><ele>5.0</ele><time>2026-04-07T10:32:26Z</time></trkpt><trkpt lat="43.64997294861064" lon="10.547828713880499"><ele>4.666666666666667</ele><time>2026-04-07T10:32:27Z</time></trkpt><trkpt lat="43.649901133612644" lon="10.548085054402511"><ele>4.333333333333333</ele><time>2026-04-07T10:32:28Z</time></trkpt><trkpt lat="43.649809784413094" lon="10.548330587589035"><ele>4.0</ele><time>2026-04-07T10:32:29Z</time></trkpt><trkpt lat="43.649718137187214" lon="10.548582612806227"><ele>4.333333333333333</ele><time>2026-04-07T10:32:30Z</time></trkpt><trkpt lat="43.64962739435283" lon="10.548834789505811"><ele>4.666666666666667</ele><time>2026-04-07T10:32:31Z</time></trkpt><trkpt lat="43.6495447904044" lon="10.549071173984403"><ele>5.0</ele><time>2026-04-07T10:32:32Z</time></trkpt><trkpt lat="43.64945118049317" lon="10.549331488708589"><ele>5.0</ele><time>2026-04-07T10:32:33Z</time></trkpt><trkpt lat="43.64936111692328" lon="10.54958479249823"><ele>5.0</ele><time>2026-04-07T10:32:34Z</time></trkpt><trkpt lat="43.64927193423972" lon="10.549836784853058"><ele>5.0</ele><time>2026-04-07T10:32:35Z</time></trkpt><trkpt lat="43.6491814432145" lon="10.550093834244308"><ele>5.0</ele><time>2026-04-07T10:32:36Z</time></trkpt><trkpt lat="43.64908396324359" lon="10.550349880543937"><ele>5.0</ele><time>2026-04-07T10:32:37Z</time></trkpt><trkpt lat="43.6489815818445" lon="10.550600040770858"><ele>5.0</ele><time>2026-04-07T10:32:38Z</time></trkpt><trkpt lat="43.648878474163396" lon="10.550836505406346"><ele>5.333333333333334</ele><time>2026-04-07T10:32:39Z</time></trkpt><trkpt lat="43.6487748574384" lon="10.551068628031228"><ele>5.666666666666667</ele><time>2026-04-07T10:32:40Z</time></trkpt><trkpt lat="43.64866346750675" lon="10.551296869963535"><ele>6.0</ele><time>2026-04-07T10:32:41Z</time></trkpt><trkpt lat="43.64854119770677" lon="10.551515358232153"><ele>6.0</ele><time>2026-04-07T10:32:42Z</time></trkpt><trkpt lat="43.648416183311085" lon="10.55173858680807"><ele>6.0</ele><time>2026-04-07T10:32:43Z</time></trkpt><trkpt lat="43.64828075688096" lon="10.551954707904962"><ele>6.0</ele><time>2026-04-07T10:32:44Z</time></trkpt><trkpt lat="43.64814017005443" lon="10.55216127368622"><ele>6.0</ele><time>2026-04-07T10:32:45Z</time></trkpt><trkpt lat="43.647992431815" lon="10.552361141368918"><ele>6.0</ele><time>2026-04-07T10:32:46Z</time></trkpt><trkpt lat="43.64783510566046" lon="10.552557137845294"><ele>6.0</ele><time>2026-04-07T10:32:47Z</time></trkpt><trkpt lat="43.647675715279824" lon="10.552744119447459"><ele>5.666666666666667</ele><time>2026-04-07T10:32:48Z</time></trkpt><trkpt lat="43.647513806857276" lon="10.552923490950375"><ele>5.333333333333334</ele><time>2026-04-07T10:32:49Z</time></trkpt><trkpt lat="43.64734300679216" lon="10.553101117085307"><ele>5.0</ele><time>2026-04-07T10:32:50Z</time></trkpt><trkpt lat="43.64716641440286" lon="10.553274631480749"><ele>5.0</ele><time>2026-04-07T10:32:51Z</time></trkpt><trkpt lat="43.64699402554077" lon="10.553441590741706"><ele>5.0</ele><time>2026-04-07T10:32:52Z</time></trkpt><trkpt lat="43.646818899846316" lon="10.553610488000945"><ele>5.0</ele><time>2026-04-07T10:32:52.999Z</time></trkpt><trkpt lat="43.646639518593204" lon="10.553782499113167"><ele>5.666666666666667</ele><time>2026-04-07T10:32:53.999Z</time></trkpt><trkpt lat="43.646459813234046" lon="10.553954116313376"><ele>6.333333333333334</ele><time>2026-04-07T10:32:54.999Z</time></trkpt><trkpt lat="43.64627884406673" lon="10.554119682550077"><ele>7.0</ele><time>2026-04-07T10:32:55.999Z</time></trkpt><trkpt lat="43.64609232765615" lon="10.554285714806282"><ele>7.0</ele><time>2026-04-07T10:32:56.999Z</time></trkpt><trkpt lat="43.64592937991892" lon="10.554457356411312"><ele>7.0</ele><time>2026-04-07T10:32:57.999Z</time></trkpt><trkpt lat="43.64575407786623" lon="10.55462340206435"><ele>7.0</ele><time>2026-04-07T10:32:58.999Z</time></trkpt><trkpt lat="43.64554394708973" lon="10.554788480294269"><ele>6.666666666666667</ele><time>2026-04-07T10:32:59.999Z</time></trkpt><trkpt lat="43.645355805404925" lon="10.554963579674153"><ele>6.333333333333334</ele><time>2026-04-07T10:33:00.999Z</time></trkpt><trkpt lat="43.64520012589714" lon="10.555122902354215"><ele>6.0</ele><time>2026-04-07T10:33:01.999Z</time></trkpt><trkpt lat="43.64506396247831" lon="10.555265342641066"><ele>6.0</ele><time>2026-04-07T10:33:02.999Z</time></trkpt><trkpt lat="43.644956816162846" lon="10.555390931120444"><ele>6.0</ele><time>2026-04-07T10:33:03.999Z</time></trkpt><trkpt lat="43.644860487350044" lon="10.55551199016611"><ele>6.0</ele><time>2026-04-07T10:33:04.999Z</time></trkpt><trkpt lat="43.64447894128182" lon="10.555799048259589"><ele>6.0</ele><time>2026-04-07T10:33:05.999Z</time></trkpt><trkpt lat="43.64431158919221" lon="10.555957457358364"><ele>6.0</ele><time>2026-04-07T10:33:06.999Z</time></trkpt><trkpt lat="43.644143961356335" lon="10.556115277519767"><ele>6.0</ele><time>2026-04-07T10:33:07.999Z</time></trkpt><trkpt lat="43.643973099279705" lon="10.556273396148015"><ele>6.0</ele><time>2026-04-07T10:33:08.999Z</time></trkpt><trkpt lat="43.64380290561999" lon="10.556432332145164"><ele>6.0</ele><time>2026-04-07T10:33:09.999Z</time></trkpt><trkpt lat="43.64363471790786" lon="10.556593171073608"><ele>6.0</ele><time>2026-04-07T10:33:10.999Z</time></trkpt><trkpt lat="43.643466855444565" lon="10.556756785558992"><ele>6.0</ele><time>2026-04-07T10:33:11.999Z</time></trkpt><trkpt lat="43.6432949075067" lon="10.556916078969275"><ele>6.0</ele><time>2026-04-07T10:33:12.999Z</time></trkpt><trkpt lat="43.643120834860646" lon="10.55707498234295"><ele>6.0</ele><time>2026-04-07T10:33:13.999Z</time></trkpt><trkpt lat="43.64294882175001" lon="10.557231203035403"><ele>6.0</ele><time>2026-04-07T10:33:14.999Z</time></trkpt><trkpt lat="43.64278026562399" lon="10.557389405578947"><ele>6.0</ele><time>2026-04-07T10:33:15.999Z</time></trkpt><trkpt lat="43.642609057040936" lon="10.557545458718053"><ele>6.0</ele><time>2026-04-07T10:33:16.999Z</time></trkpt><trkpt lat="43.642440284973866" lon="10.55769930666202"><ele>6.0</ele><time>2026-04-07T10:33:17.999Z</time></trkpt><trkpt lat="43.642268696569104" lon="10.557859572718943"><ele>6.0</ele><time>2026-04-07T10:33:18.999Z</time></trkpt><trkpt lat="43.64209854534878" lon="10.558015863333942"><ele>6.0</ele><time>2026-04-07T10:33:19.999Z</time></trkpt><trkpt lat="43.64192643802854" lon="10.558175272211447"><ele>6.333333333333334</ele><time>2026-04-07T10:33:20.999Z</time></trkpt><trkpt lat="43.64175060106763" lon="10.558345037233734"><ele>6.666666666666667</ele><time>2026-04-07T10:33:21.999Z</time></trkpt><trkpt lat="43.64156915417803" lon="10.558515489111398"><ele>7.0</ele><time>2026-04-07T10:33:22.999Z</time></trkpt><trkpt lat="43.64138882862268" lon="10.558677202220927"><ele>6.666666666666667</ele><time>2026-04-07T10:33:23.999Z</time></trkpt><trkpt lat="43.64121387570739" lon="10.558837538025422"><ele>6.333333333333334</ele><time>2026-04-07T10:33:24.999Z</time></trkpt><trkpt lat="43.64103101380579" lon="10.55900687010536"><ele>6.0</ele><time>2026-04-07T10:33:25.999Z</time></trkpt><trkpt lat="43.64084980792375" lon="10.559180846368454"><ele>6.666666666666666</ele><time>2026-04-07T10:33:26.999Z</time></trkpt><trkpt lat="43.64067123823753" lon="10.559348216604599"><ele>7.333333333333333</ele><time>2026-04-07T10:33:27.999Z</time></trkpt><trkpt lat="43.64048183247008" lon="10.559522359715585"><ele>8.0</ele><time>2026-04-07T10:33:28.999Z</time></trkpt><trkpt lat="43.640300985276355" lon="10.559701316284603"><ele>6.0</ele><time>2026-04-07T10:33:29.999Z</time></trkpt><trkpt lat="43.64012121777918" lon="10.55986709297668"><ele>4.0</ele><time>2026-04-07T10:33:30.999Z</time></trkpt><trkpt lat="43.63993659824611" lon="10.560039586885381"><ele>2.0</ele><time>2026-04-07T10:33:31.999Z</time></trkpt><trkpt lat="43.63974948331915" lon="10.560204191464845"><ele>1.0</ele><time>2026-04-07T10:33:32.999Z</time></trkpt><trkpt lat="43.63956293808022" lon="10.56037582586629"><ele>0.0</ele><time>2026-04-07T10:33:33.999Z</time></trkpt><trkpt lat="43.63937451543249" lon="10.560548524792452"><ele>1.3333333333333333</ele><time>2026-04-07T10:33:34.999Z</time></trkpt><trkpt lat="43.63918318236225" lon="10.560730173616546"><ele>2.6666666666666665</ele><time>2026-04-07T10:33:35.999Z</time></trkpt><trkpt lat="43.63900903351207" lon="10.560888947122354"><ele>4.0</ele><time>2026-04-07T10:33:36.999Z</time></trkpt><trkpt lat="43.638845600142716" lon="10.561040507676804"><ele>4.0</ele><time>2026-04-07T10:33:37.999Z</time></trkpt><trkpt lat="43.63868100509062" lon="10.561198627285487"><ele>4.0</ele><time>2026-04-07T10:33:38.999Z</time></trkpt><trkpt lat="43.63851005453991" lon="10.561363966543897"><ele>4.0</ele><time>2026-04-07T10:33:39.999Z</time></trkpt><trkpt lat="43.63833413090821" lon="10.561529342319506"><ele>5.333333333333333</ele><time>2026-04-07T10:33:40.999Z</time></trkpt><trkpt lat="43.638152419582546" lon="10.561701349118954"><ele>6.666666666666666</ele><time>2026-04-07T10:33:41.999Z</time></trkpt><trkpt lat="43.63796796551463" lon="10.56187176216853"><ele>8.0</ele><time>2026-04-07T10:33:42.999Z</time></trkpt><trkpt lat="43.63778729281884" lon="10.562039093486"><ele>9.333333333333332</ele><time>2026-04-07T10:33:43.999Z</time></trkpt><trkpt lat="43.63762505867071" lon="10.562190013079558"><ele>10.666666666666666</ele><time>2026-04-07T10:33:44.999Z</time></trkpt><trkpt lat="43.63746782920997" lon="10.562338263308556"><ele>12.0</ele><time>2026-04-07T10:33:45.999Z</time></trkpt><trkpt lat="43.63730896822901" lon="10.562480624901136"><ele>12.0</ele><time>2026-04-07T10:33:46.999Z</time></trkpt><trkpt lat="43.63714424030821" lon="10.56262910527306"><ele>12.0</ele><time>2026-04-07T10:33:47.999Z</time></trkpt><trkpt lat="43.63698431404104" lon="10.562792284107132"><ele>12.0</ele><time>2026-04-07T10:33:48.999Z</time></trkpt><trkpt lat="43.63681581989762" lon="10.562948216463369"><ele>11.0</ele><time>2026-04-07T10:33:49.999Z</time></trkpt><trkpt lat="43.63664408093929" lon="10.563104808284193"><ele>10.0</ele><time>2026-04-07T10:33:50.999Z</time></trkpt><trkpt lat="43.636468454575684" lon="10.56326569989741"><ele>9.0</ele><time>2026-04-07T10:33:52Z</time></trkpt><trkpt lat="43.636294492765906" lon="10.563426832890288"><ele>9.0</ele><time>2026-04-07T10:33:53Z</time></trkpt><trkpt lat="43.63611776295325" lon="10.563593565137285"><ele>9.0</ele><time>2026-04-07T10:33:54Z</time></trkpt><trkpt lat="43.635941433901046" lon="10.563761620886554"><ele>9.0</ele><time>2026-04-07T10:33:55Z</time></trkpt><trkpt lat="43.635760329053426" lon="10.56393108503514"><ele>9.0</ele><time>2026-04-07T10:33:56Z</time></trkpt><trkpt lat="43.63558361012514" lon="10.564097143402709"><ele>9.0</ele><time>2026-04-07T10:33:57Z</time></trkpt><trkpt lat="43.63540308773679" lon="10.564266639820042"><ele>9.0</ele><time>2026-04-07T10:33:58Z</time></trkpt><trkpt lat="43.635216417757334" lon="10.564448641360508"><ele>9.333333333333334</ele><time>2026-04-07T10:33:59Z</time></trkpt><trkpt lat="43.63504588056026" lon="10.564616839515795"><ele>9.666666666666668</ele><time>2026-04-07T10:34:00Z</time></trkpt><trkpt lat="43.63488493643584" lon="10.564785017954307"><ele>10.0</ele><time>2026-04-07T10:34:01Z</time></trkpt><trkpt lat="43.63472694400004" lon="10.564957159424926"><ele>10.0</ele><time>2026-04-07T10:34:02Z</time></trkpt><trkpt lat="43.63457266343317" lon="10.56513607028383"><ele>10.0</ele><time>2026-04-07T10:34:03Z</time></trkpt><trkpt lat="43.63442158747473" lon="10.565319234711001"><ele>10.0</ele><time>2026-04-07T10:34:04Z</time></trkpt><trkpt lat="43.63427229086975" lon="10.565508190073574"><ele>10.333333333333334</ele><time>2026-04-07T10:34:05Z</time></trkpt><trkpt lat="43.63412613225089" lon="10.565700558032061"><ele>10.666666666666666</ele><time>2026-04-07T10:34:06Z</time></trkpt><trkpt lat="43.63398619067186" lon="10.565906078474741"><ele>11.0</ele><time>2026-04-07T10:34:07Z</time></trkpt><trkpt lat="43.633850481925414" lon="10.566116248790259"><ele>11.0</ele><time>2026-04-07T10:34:08Z</time></trkpt><trkpt lat="43.633723000662094" lon="10.566333986933351"><ele>11.0</ele><time>2026-04-07T10:34:09Z</time></trkpt><trkpt lat="43.63360367068816" lon="10.566566332731194"><ele>11.0</ele><time>2026-04-07T10:34:10Z</time></trkpt><trkpt lat="43.63349025161984" lon="10.566803005137086"><ele>10.333333333333332</ele><time>2026-04-07T10:34:11Z</time></trkpt><trkpt lat="43.63338242774149" lon="10.567049037698471"><ele>9.666666666666666</ele><time>2026-04-07T10:34:12Z</time></trkpt><trkpt lat="43.63328166407562" lon="10.567302635790059"><ele>9.0</ele><time>2026-04-07T10:34:13Z</time></trkpt><trkpt lat="43.6331889755849" lon="10.567561674722556"><ele>9.0</ele><time>2026-04-07T10:34:14Z</time></trkpt><trkpt lat="43.63310170742384" lon="10.567828219103493"><ele>9.0</ele><time>2026-04-07T10:34:15Z</time></trkpt><trkpt lat="43.63302755723457" lon="10.568086488853917"><ele>9.0</ele><time>2026-04-07T10:34:16Z</time></trkpt><trkpt lat="43.63296703336843" lon="10.56835362650177"><ele>9.0</ele><time>2026-04-07T10:34:17Z</time></trkpt><trkpt lat="43.632910989658136" lon="10.56862270186844"><ele>9.0</ele><time>2026-04-07T10:34:18Z</time></trkpt><trkpt lat="43.63286051425836" lon="10.56890106660406"><ele>9.0</ele><time>2026-04-07T10:34:19Z</time></trkpt><trkpt lat="43.6328203536993" lon="10.569180957202612"><ele>9.0</ele><time>2026-04-07T10:34:20Z</time></trkpt><trkpt lat="43.632795331735295" lon="10.569473905920765"><ele>9.0</ele><time>2026-04-07T10:34:21Z</time></trkpt><trkpt lat="43.632779084556276" lon="10.569762269960407"><ele>9.0</ele><time>2026-04-07T10:34:22Z</time></trkpt><trkpt lat="43.63277506243278" lon="10.570041573050666"><ele>8.666666666666666</ele><time>2026-04-07T10:34:23Z</time></trkpt><trkpt lat="43.63277240510494" lon="10.57032072707594"><ele>8.333333333333332</ele><time>2026-04-07T10:34:24Z</time></trkpt><trkpt lat="43.63278037972041" lon="10.570595469668897"><ele>8.0</ele><time>2026-04-07T10:34:25Z</time></trkpt><trkpt lat="43.63280082663544" lon="10.57087731804487"><ele>8.0</ele><time>2026-04-07T10:34:26Z</time></trkpt><trkpt lat="43.63282658389331" lon="10.571157644085602"><ele>8.0</ele><time>2026-04-07T10:34:27Z</time></trkpt><trkpt lat="43.63285998428773" lon="10.571439369752941"><ele>8.0</ele><time>2026-04-07T10:34:28Z</time></trkpt><trkpt lat="43.63290042814088" lon="10.571715338546234"><ele>8.333333333333332</ele><time>2026-04-07T10:34:29Z</time></trkpt><trkpt lat="43.63295050566618" lon="10.571977545804996"><ele>8.666666666666666</ele><time>2026-04-07T10:34:30Z</time></trkpt><trkpt lat="43.63300280929228" lon="10.572228066493295"><ele>9.0</ele><time>2026-04-07T10:34:31Z</time></trkpt><trkpt lat="43.63305243836357" lon="10.572478453998436"><ele>8.333333333333334</ele><time>2026-04-07T10:34:32Z</time></trkpt><trkpt lat="43.6331071080343" lon="10.572721408990393"><ele>7.666666666666667</ele><time>2026-04-07T10:34:33Z</time></trkpt><trkpt lat="43.63315865757124" lon="10.572968129216282"><ele>7.0</ele><time>2026-04-07T10:34:34Z</time></trkpt><trkpt lat="43.63322120419776" lon="10.573201704473878"><ele>7.0</ele><time>2026-04-07T10:34:35Z</time></trkpt><trkpt lat="43.6332847267182" lon="10.573438446570151"><ele>7.0</ele><time>2026-04-07T10:34:36Z</time></trkpt><trkpt lat="43.63334959995465" lon="10.573673658553414"><ele>7.0</ele><time>2026-04-07T10:34:37Z</time></trkpt><trkpt lat="43.63340599045475" lon="10.573912146432244"><ele>7.666666666666667</ele><time>2026-04-07T10:34:38Z</time></trkpt><trkpt lat="43.63347244087771" lon="10.57414867503946"><ele>8.333333333333334</ele><time>2026-04-07T10:34:39Z</time></trkpt><trkpt lat="43.633534485698405" lon="10.574387545673273"><ele>9.0</ele><time>2026-04-07T10:34:40Z</time></trkpt><trkpt lat="43.63360080209429" lon="10.574640133206525"><ele>9.333333333333334</ele><time>2026-04-07T10:34:41Z</time></trkpt><trkpt lat="43.633665569515756" lon="10.574891848364551"><ele>9.666666666666668</ele><time>2026-04-07T10:34:42Z</time></trkpt><trkpt lat="43.63373280809633" lon="10.57515162561673"><ele>10.0</ele><time>2026-04-07T10:34:43Z</time></trkpt><trkpt lat="43.63379519009351" lon="10.575413201363826"><ele>9.333333333333334</ele><time>2026-04-07T10:34:44Z</time></trkpt><trkpt lat="43.633855273077415" lon="10.575685318994093"><ele>8.666666666666666</ele><time>2026-04-07T10:34:45Z</time></trkpt><trkpt lat="43.63391651089784" lon="10.575962455310203"><ele>8.0</ele><time>2026-04-07T10:34:46Z</time></trkpt><trkpt lat="43.63396976984405" lon="10.57623085068531"><ele>8.0</ele><time>2026-04-07T10:34:47Z</time></trkpt><trkpt lat="43.634014180957415" lon="10.576501771590218"><ele>8.0</ele><time>2026-04-07T10:34:48Z</time></trkpt><trkpt lat="43.63405634942267" lon="10.57677130396009"><ele>8.0</ele><time>2026-04-07T10:34:49Z</time></trkpt><trkpt lat="43.63408749850075" lon="10.577041596913903"><ele>8.333333333333332</ele><time>2026-04-07T10:34:50Z</time></trkpt><trkpt lat="43.63411191741965" lon="10.577314420767923"><ele>8.666666666666666</ele><time>2026-04-07T10:34:51Z</time></trkpt><trkpt lat="43.6341294445936" lon="10.577596554809077"><ele>9.0</ele><time>2026-04-07T10:34:52Z</time></trkpt><trkpt lat="43.63414107822365" lon="10.577877915889111"><ele>9.0</ele><time>2026-04-07T10:34:53Z</time></trkpt><trkpt lat="43.63414374299521" lon="10.578152324860266"><ele>9.0</ele><time>2026-04-07T10:34:54Z</time></trkpt><trkpt lat="43.63415232427004" lon="10.57843167882324"><ele>9.0</ele><time>2026-04-07T10:34:55Z</time></trkpt><trkpt lat="43.634165409136436" lon="10.57870945207296"><ele>9.0</ele><time>2026-04-07T10:34:56Z</time></trkpt><trkpt lat="43.63417611399995" lon="10.579006516554813"><ele>9.0</ele><time>2026-04-07T10:34:57Z</time></trkpt><trkpt lat="43.63418663656185" lon="10.579295811779838"><ele>9.0</ele><time>2026-04-07T10:34:57.999Z</time></trkpt><trkpt lat="43.634192531612186" lon="10.579569353592989"><ele>9.0</ele><time>2026-04-07T10:34:58.999Z</time></trkpt><trkpt lat="43.63419897755168" lon="10.579852270891633"><ele>9.0</ele><time>2026-04-07T10:34:59.999Z</time></trkpt><trkpt lat="43.63420564139311" lon="10.580133635406746"><ele>9.0</ele><time>2026-04-07T10:35:00.999Z</time></trkpt><trkpt lat="43.63421107790398" lon="10.58040742090582"><ele>9.666666666666666</ele><time>2026-04-07T10:35:01.999Z</time></trkpt><trkpt lat="43.634221063843434" lon="10.580692133344549"><ele>10.333333333333332</ele><time>2026-04-07T10:35:02.999Z</time></trkpt><trkpt lat="43.63422376798384" lon="10.580974748003284"><ele>11.0</ele><time>2026-04-07T10:35:03.999Z</time></trkpt><trkpt lat="43.63422879848707" lon="10.58124746680872"><ele>11.0</ele><time>2026-04-07T10:35:04.999Z</time></trkpt><trkpt lat="43.63423067830801" lon="10.58152826859632"><ele>11.0</ele><time>2026-04-07T10:35:05.999Z</time></trkpt><trkpt lat="43.63423429550379" lon="10.581806723231173"><ele>11.0</ele><time>2026-04-07T10:35:06.999Z</time></trkpt><trkpt lat="43.63423728562839" lon="10.582087771839488"><ele>11.333333333333332</ele><time>2026-04-07T10:35:07.999Z</time></trkpt><trkpt lat="43.634243105077836" lon="10.582365485876467"><ele>11.666666666666666</ele><time>2026-04-07T10:35:08.999Z</time></trkpt><trkpt lat="43.63424705940695" lon="10.58264698821094"><ele>12.0</ele><time>2026-04-07T10:35:09.999Z</time></trkpt><trkpt lat="43.63425192560127" lon="10.582925542135447"><ele>11.333333333333334</ele><time>2026-04-07T10:35:10.999Z</time></trkpt><trkpt lat="43.634259827247746" lon="10.583201954700757"><ele>10.666666666666668</ele><time>2026-04-07T10:35:11.999Z</time></trkpt><trkpt lat="43.63426399529489" lon="10.583486156027272"><ele>10.0</ele><time>2026-04-07T10:35:12.999Z</time></trkpt><trkpt lat="43.634270144550754" lon="10.583763131315445"><ele>9.666666666666668</ele><time>2026-04-07T10:35:13.999Z</time></trkpt><trkpt lat="43.63427516674955" lon="10.5840472548612"><ele>9.333333333333334</ele><time>2026-04-07T10:35:14.999Z</time></trkpt><trkpt lat="43.63427593215466" lon="10.584333105198978"><ele>9.0</ele><time>2026-04-07T10:35:15.999Z</time></trkpt><trkpt lat="43.63427505458076" lon="10.58461038933703"><ele>10.333333333333332</ele><time>2026-04-07T10:35:16.999Z</time></trkpt><trkpt lat="43.63427473414345" lon="10.58489015096183"><ele>11.666666666666666</ele><time>2026-04-07T10:35:17.999Z</time></trkpt><trkpt lat="43.634273907578674" lon="10.585169525838346"><ele>13.0</ele><time>2026-04-07T10:35:18.999Z</time></trkpt><trkpt lat="43.634268581010794" lon="10.585452008483877"><ele>13.0</ele><time>2026-04-07T10:35:19.999Z</time></trkpt><trkpt lat="43.63426333382341" lon="10.585740901107501"><ele>13.0</ele><time>2026-04-07T10:35:20.999Z</time></trkpt><trkpt lat="43.634251459725924" lon="10.586033297320972"><ele>13.0</ele><time>2026-04-07T10:35:21.999Z</time></trkpt><trkpt lat="43.634240727561966" lon="10.586300655377748"><ele>12.333333333333332</ele><time>2026-04-07T10:35:22.999Z</time></trkpt><trkpt lat="43.634224118566436" lon="10.58657865607874"><ele>11.666666666666666</ele><time>2026-04-07T10:35:23.999Z</time></trkpt><trkpt lat="43.63419796095727" lon="10.586868835158896"><ele>11.0</ele><time>2026-04-07T10:35:24.999Z</time></trkpt><trkpt lat="43.6341705876133" lon="10.587151442491816"><ele>11.0</ele><time>2026-04-07T10:35:25.999Z</time></trkpt><trkpt lat="43.63414337545596" lon="10.587427136002349"><ele>11.0</ele><time>2026-04-07T10:35:26.999Z</time></trkpt><trkpt lat="43.634111760651" lon="10.587708998263702"><ele>11.0</ele><time>2026-04-07T10:35:27.999Z</time></trkpt><trkpt lat="43.634078621373106" lon="10.587997980257922"><ele>11.0</ele><time>2026-04-07T10:35:28.999Z</time></trkpt><trkpt lat="43.63404238021604" lon="10.588279498454801"><ele>11.0</ele><time>2026-04-07T10:35:29.999Z</time></trkpt><trkpt lat="43.63400841068298" lon="10.588567750476779"><ele>11.0</ele><time>2026-04-07T10:35:30.999Z</time></trkpt><trkpt lat="43.63397620787986" lon="10.58884206576473"><ele>12.0</ele><time>2026-04-07T10:35:31.999Z</time></trkpt><trkpt lat="43.63394189003894" lon="10.589119543377832"><ele>13.0</ele><time>2026-04-07T10:35:32.999Z</time></trkpt><trkpt lat="43.63390947459042" lon="10.589397494534808"><ele>14.0</ele><time>2026-04-07T10:35:33.999Z</time></trkpt><trkpt lat="43.6338727670891" lon="10.58967254570766"><ele>14.0</ele><time>2026-04-07T10:35:34.999Z</time></trkpt><trkpt lat="43.633830694666806" lon="10.589961362403583"><ele>14.0</ele><time>2026-04-07T10:35:35.999Z</time></trkpt><trkpt lat="43.63379254927085" lon="10.590245076196807"><ele>14.0</ele><time>2026-04-07T10:35:36.999Z</time></trkpt><trkpt lat="43.633754817112525" lon="10.590530104525433"><ele>13.666666666666668</ele><time>2026-04-07T10:35:37.999Z</time></trkpt><trkpt lat="43.63371528185672" lon="10.590818379376971"><ele>13.333333333333332</ele><time>2026-04-07T10:35:38.999Z</time></trkpt><trkpt lat="43.63367748025412" lon="10.591110448803818"><ele>13.0</ele><time>2026-04-07T10:35:39.999Z</time></trkpt><trkpt lat="43.63363958870361" lon="10.591402222091384"><ele>13.0</ele><time>2026-04-07T10:35:40.999Z</time></trkpt><trkpt lat="43.63360571717729" lon="10.591690619873916"><ele>13.0</ele><time>2026-04-07T10:35:41.999Z</time></trkpt><trkpt lat="43.63356958495656" lon="10.5919813917201"><ele>13.0</ele><time>2026-04-07T10:35:42.999Z</time></trkpt><trkpt lat="43.63353511731305" lon="10.592270941646412"><ele>13.0</ele><time>2026-04-07T10:35:43.999Z</time></trkpt><trkpt lat="43.633497754894705" lon="10.592564182473023"><ele>13.0</ele><time>2026-04-07T10:35:44.999Z</time></trkpt><trkpt lat="43.633459475719434" lon="10.592857462759932"><ele>13.0</ele><time>2026-04-07T10:35:45.999Z</time></trkpt><trkpt lat="43.6334228135788" lon="10.59315080171297"><ele>13.333333333333332</ele><time>2026-04-07T10:35:46.999Z</time></trkpt><trkpt lat="43.633385347371565" lon="10.593427838195419"><ele>13.666666666666668</ele><time>2026-04-07T10:35:47.999Z</time></trkpt><trkpt lat="43.63335030532011" lon="10.593694888714415"><ele>14.0</ele><time>2026-04-07T10:35:48.999Z</time></trkpt><trkpt lat="43.6333144846183" lon="10.593960427789836"><ele>14.333333333333334</ele><time>2026-04-07T10:35:49.999Z</time></trkpt><trkpt lat="43.63328015895946" lon="10.594202804887342"><ele>14.666666666666668</ele><time>2026-04-07T10:35:50.999Z</time></trkpt><trkpt lat="43.633238943213726" lon="10.594426780096093"><ele>15.0</ele><time>2026-04-07T10:35:51.999Z</time></trkpt><trkpt lat="43.63320728964647" lon="10.594642331479028"><ele>14.5</ele><time>2026-04-07T10:35:52.999Z</time></trkpt><trkpt lat="43.6331763477823" lon="10.59485539610988"><ele>14.0</ele><time>2026-04-07T10:35:53.999Z</time></trkpt><trkpt lat="43.63314853114214" lon="10.595039184805922"><ele>13.5</ele><time>2026-04-07T10:35:54.999Z</time></trkpt><trkpt lat="43.63312067779796" lon="10.595214271705306"><ele>13.0</ele><time>2026-04-07T10:35:55.999Z</time></trkpt><trkpt lat="43.63309759317688" lon="10.595355184362825"><ele>12.8</ele><time>2026-04-07T10:35:56.999Z</time></trkpt><trkpt lat="43.63306450361145" lon="10.59546817296264"><ele>12.600000000000001</ele><time>2026-04-07T10:35:58Z</time></trkpt><trkpt lat="43.633030378414354" lon="10.595568447808052"><ele>12.399999999999999</ele><time>2026-04-07T10:35:59Z</time></trkpt><trkpt lat="43.63300323983895" lon="10.595651080025428"><ele>12.2</ele><time>2026-04-07T10:36:00Z</time></trkpt><trkpt lat="43.632938801094475" lon="10.595830189132247"><ele>12.0</ele><time>2026-04-07T10:36:01Z</time></trkpt><trkpt lat="43.63291014231042" lon="10.595920638512489"><ele>12.0</ele><time>2026-04-07T10:36:03Z</time></trkpt><trkpt lat="43.63290118214642" lon="10.596020978833034"><ele>12.0</ele><time>2026-04-07T10:36:45Z</time></trkpt><trkpt lat="43.632912170950206" lon="10.596108289882432"><ele>12.0</ele><time>2026-04-07T10:36:46Z</time></trkpt><trkpt lat="43.632931420039625" lon="10.596198053107289"><ele>12.0</ele><time>2026-04-07T10:36:47Z</time></trkpt><trkpt lat="43.632946993226064" lon="10.596376049330697"><ele>12.0</ele><time>2026-04-07T10:36:49Z</time></trkpt><trkpt lat="43.632941263002316" lon="10.596490063378829"><ele>12.0</ele><time>2026-04-07T10:36:50Z</time></trkpt><trkpt lat="43.63292950783762" lon="10.596617133890012"><ele>12.0</ele><time>2026-04-07T10:36:51Z</time></trkpt><trkpt lat="43.632915995929686" lon="10.59675751882037"><ele>12.0</ele><time>2026-04-07T10:36:52Z</time></trkpt><trkpt lat="43.63290209108165" lon="10.596916066632723"><ele>12.0</ele><time>2026-04-07T10:36:53Z</time></trkpt><trkpt lat="43.63288658579007" lon="10.597090747679903"><ele>12.0</ele><time>2026-04-07T10:36:54Z</time></trkpt><trkpt lat="43.63287418427387" lon="10.5972663488165"><ele>12.0</ele><time>2026-04-07T10:36:55Z</time></trkpt><trkpt lat="43.63286171847873" lon="10.597447753621603"><ele>12.0</ele><time>2026-04-07T10:36:56Z</time></trkpt><trkpt lat="43.632847679795795" lon="10.597639714209137"><ele>12.0</ele><time>2026-04-07T10:36:57Z</time></trkpt><trkpt lat="43.63283205568065" lon="10.597835096382017"><ele>12.0</ele><time>2026-04-07T10:36:58Z</time></trkpt><trkpt lat="43.63281300851712" lon="10.598029658764673"><ele>12.333333333333332</ele><time>2026-04-07T10:36:59Z</time></trkpt><trkpt lat="43.6327972862354" lon="10.598232952134307"><ele>12.666666666666666</ele><time>2026-04-07T10:37:00Z</time></trkpt><trkpt lat="43.63278111816026" lon="10.59844868084606"><ele>13.0</ele><time>2026-04-07T10:37:01Z</time></trkpt><trkpt lat="43.63276678291802" lon="10.598671211691363"><ele>13.0</ele><time>2026-04-07T10:37:02Z</time></trkpt><trkpt lat="43.6327553170762" lon="10.598906385015951"><ele>13.0</ele><time>2026-04-07T10:37:03Z</time></trkpt><trkpt lat="43.6327450210264" lon="10.59915147532257"><ele>13.0</ele><time>2026-04-07T10:37:03.999Z</time></trkpt><trkpt lat="43.632735611930585" lon="10.599384187869335"><ele>13.0</ele><time>2026-04-07T10:37:04.999Z</time></trkpt><trkpt lat="43.63272600449296" lon="10.599622915718786"><ele>13.0</ele><time>2026-04-07T10:37:05.999Z</time></trkpt><trkpt lat="43.63272202252563" lon="10.599864181782209"><ele>13.0</ele><time>2026-04-07T10:37:06.999Z</time></trkpt><trkpt lat="43.63272258472715" lon="10.600106463123973"><ele>13.333333333333332</ele><time>2026-04-07T10:37:07.999Z</time></trkpt><trkpt lat="43.63272769340907" lon="10.600359655185398"><ele>13.666666666666668</ele><time>2026-04-07T10:37:08.999Z</time></trkpt><trkpt lat="43.632737602535265" lon="10.600607102983112"><ele>14.0</ele><time>2026-04-07T10:37:09.999Z</time></trkpt><trkpt lat="43.63274949719722" lon="10.600867985372753"><ele>14.0</ele><time>2026-04-07T10:37:10.999Z</time></trkpt><trkpt lat="43.632759817601325" lon="10.601122105197978"><ele>14.0</ele><time>2026-04-07T10:37:11.999Z</time></trkpt><trkpt lat="43.632779333984075" lon="10.6013842182605"><ele>14.0</ele><time>2026-04-07T10:37:12.999Z</time></trkpt><trkpt lat="43.63280185703723" lon="10.601640477870157"><ele>14.666666666666668</ele><time>2026-04-07T10:37:13.999Z</time></trkpt><trkpt lat="43.63283080609843" lon="10.601898573395372"><ele>15.333333333333332</ele><time>2026-04-07T10:37:14.999Z</time></trkpt><trkpt lat="43.632864211738394" lon="10.602161149894807"><ele>16.0</ele><time>2026-04-07T10:37:15.999Z</time></trkpt><trkpt lat="43.6328969969973" lon="10.602421469538374"><ele>16.0</ele><time>2026-04-07T10:37:16.999Z</time></trkpt><trkpt lat="43.63293715854683" lon="10.602687115016408"><ele>16.0</ele><time>2026-04-07T10:37:17.999Z</time></trkpt><trkpt lat="43.63297785020483" lon="10.602936117123265"><ele>16.0</ele><time>2026-04-07T10:37:18.999Z</time></trkpt><trkpt lat="43.63302070348682" lon="10.603166737694053"><ele>15.666666666666666</ele><time>2026-04-07T10:37:19.999Z</time></trkpt><trkpt lat="43.63306374883889" lon="10.603389115472233"><ele>15.333333333333332</ele><time>2026-04-07T10:37:20.999Z</time></trkpt><trkpt lat="43.63310914144545" lon="10.603600628399512"><ele>15.0</ele><time>2026-04-07T10:37:21.999Z</time></trkpt><trkpt lat="43.63315497130507" lon="10.603816176607893"><ele>15.666666666666668</ele><time>2026-04-07T10:37:22.999Z</time></trkpt><trkpt lat="43.633208484915166" lon="10.604038438072859"><ele>16.333333333333336</ele><time>2026-04-07T10:37:23.999Z</time></trkpt><trkpt lat="43.633265384699385" lon="10.604270678361251"><ele>17.0</ele><time>2026-04-07T10:37:24.999Z</time></trkpt><trkpt lat="43.6333256857923" lon="10.604491268073012"><ele>17.0</ele><time>2026-04-07T10:37:25.999Z</time></trkpt><trkpt lat="43.633384453258195" lon="10.604698691299072"><ele>17.0</ele><time>2026-04-07T10:37:26.999Z</time></trkpt><trkpt lat="43.633437741146196" lon="10.604893692527865"><ele>17.0</ele><time>2026-04-07T10:37:27.999Z</time></trkpt><trkpt lat="43.633488612753744" lon="10.605070456874957"><ele>17.0</ele><time>2026-04-07T10:37:28.999Z</time></trkpt><trkpt lat="43.63353996444303" lon="10.605246493298798"><ele>17.0</ele><time>2026-04-07T10:37:29.999Z</time></trkpt><trkpt lat="43.63359406733129" lon="10.605418508310937"><ele>17.0</ele><time>2026-04-07T10:37:30.999Z</time></trkpt><trkpt lat="43.633646767002645" lon="10.605582011606195"><ele>17.0</ele><time>2026-04-07T10:37:31.999Z</time></trkpt><trkpt lat="43.63370171369215" lon="10.605731129819244"><ele>16.75</ele><time>2026-04-07T10:37:32.999Z</time></trkpt><trkpt lat="43.63375478025075" lon="10.605866191785323"><ele>16.5</ele><time>2026-04-07T10:37:33.999Z</time></trkpt><trkpt lat="43.63380439549351" lon="10.606019736766513"><ele>16.25</ele><time>2026-04-07T10:37:34.999Z</time></trkpt><trkpt lat="43.63385666954406" lon="10.606179382280684"><ele>16.0</ele><time>2026-04-07T10:37:35.999Z</time></trkpt><trkpt lat="43.63390151744272" lon="10.60635079987502"><ele>16.0</ele><time>2026-04-07T10:37:36.999Z</time></trkpt><trkpt lat="43.633944509377926" lon="10.606505854364471"><ele>16.0</ele><time>2026-04-07T10:37:37.999Z</time></trkpt><trkpt lat="43.633978446085855" lon="10.606648700052203"><ele>16.0</ele><time>2026-04-07T10:37:38.999Z</time></trkpt><trkpt lat="43.63400740416873" lon="10.60678927028484"><ele>16.0</ele><time>2026-04-07T10:37:39.999Z</time></trkpt><trkpt lat="43.63401919548438" lon="10.60692750899833"><ele>16.0</ele><time>2026-04-07T10:37:40.999Z</time></trkpt><trkpt lat="43.63401412705609" lon="10.607055370820307"><ele>15.8</ele><time>2026-04-07T10:37:41.999Z</time></trkpt><trkpt lat="43.633988410287756" lon="10.607176157964147"><ele>15.600000000000001</ele><time>2026-04-07T10:37:42.999Z</time></trkpt><trkpt lat="43.63394251995144" lon="10.607293143636587"><ele>15.4</ele><time>2026-04-07T10:37:43.999Z</time></trkpt><trkpt lat="43.63387638770646" lon="10.607396019547929"><ele>15.2</ele><time>2026-04-07T10:37:44.999Z</time></trkpt><trkpt lat="43.63379533533939" lon="10.607476439207534"><ele>15.0</ele><time>2026-04-07T10:37:45.999Z</time></trkpt><trkpt lat="43.633699735895334" lon="10.607535296217526"><ele>15.2</ele><time>2026-04-07T10:37:46.999Z</time></trkpt><trkpt lat="43.63360710381212" lon="10.607584734067805"><ele>15.4</ele><time>2026-04-07T10:37:47.999Z</time></trkpt><trkpt lat="43.633494302989085" lon="10.607546720856984"><ele>15.600000000000001</ele><time>2026-04-07T10:37:48.999Z</time></trkpt><trkpt lat="43.63339160600458" lon="10.60750773094425"><ele>15.8</ele><time>2026-04-07T10:37:49.999Z</time></trkpt><trkpt lat="43.6332912977108" lon="10.607438491442384"><ele>16.0</ele><time>2026-04-07T10:37:50.999Z</time></trkpt><trkpt lat="43.63319862690511" lon="10.607335908464904"><ele>16.0</ele><time>2026-04-07T10:37:51.999Z</time></trkpt><trkpt lat="43.63311800566607" lon="10.607201296379058"><ele>16.0</ele><time>2026-04-07T10:37:52.999Z</time></trkpt><trkpt lat="43.633080912623875" lon="10.607046240952107"><ele>16.0</ele><time>2026-04-07T10:37:53.999Z</time></trkpt><trkpt lat="43.63305602142449" lon="10.606902987262547"><ele>16.0</ele><time>2026-04-07T10:37:54.999Z</time></trkpt><trkpt lat="43.633059338393544" lon="10.606749270162062"><ele>15.75</ele><time>2026-04-07T10:37:55.999Z</time></trkpt><trkpt lat="43.63308703875619" lon="10.606580763476503"><ele>15.5</ele><time>2026-04-07T10:37:56.999Z</time></trkpt><trkpt lat="43.633142804794225" lon="10.606433571731054"><ele>15.25</ele><time>2026-04-07T10:37:57.999Z</time></trkpt><trkpt lat="43.633222670205306" lon="10.606292354966456"><ele>15.0</ele><time>2026-04-07T10:37:58.999Z</time></trkpt><trkpt lat="43.633324467774486" lon="10.606185589342964"><ele>15.0</ele><time>2026-04-07T10:37:59.999Z</time></trkpt><trkpt lat="43.63343652858282" lon="10.606076068326336"><ele>15.0</ele><time>2026-04-07T10:38:00.999Z</time></trkpt><trkpt lat="43.633555555324946" lon="10.605948818854804"><ele>15.0</ele><time>2026-04-07T10:38:01.999Z</time></trkpt><trkpt lat="43.63369038850986" lon="10.605832139435956"><ele>15.0</ele><time>2026-04-07T10:38:02.999Z</time></trkpt><trkpt lat="43.63382399101728" lon="10.605705639249537"><ele>14.666666666666668</ele><time>2026-04-07T10:38:04Z</time></trkpt><trkpt lat="43.633963685014116" lon="10.605568931889906"><ele>14.333333333333334</ele><time>2026-04-07T10:38:05Z</time></trkpt><trkpt lat="43.634086676507366" lon="10.605457447759628"><ele>14.0</ele><time>2026-04-07T10:38:06Z</time></trkpt><trkpt lat="43.634212597169686" lon="10.605337193600468"><ele>14.0</ele><time>2026-04-07T10:38:07Z</time></trkpt><trkpt lat="43.634341782315495" lon="10.605207778097064"><ele>14.0</ele><time>2026-04-07T10:38:08Z</time></trkpt><trkpt lat="43.6344694892319" lon="10.605092305967325"><ele>14.0</ele><time>2026-04-07T10:38:09Z</time></trkpt><trkpt lat="43.63458961594021" lon="10.60497853725741"><ele>14.0</ele><time>2026-04-07T10:38:10Z</time></trkpt><trkpt lat="43.63470196555537" lon="10.60487589063576"><ele>14.0</ele><time>2026-04-07T10:38:11Z</time></trkpt><trkpt lat="43.634806549674295" lon="10.604773514501757"><ele>14.0</ele><time>2026-04-07T10:38:12Z</time></trkpt><trkpt lat="43.634918816083875" lon="10.604662572384536"><ele>14.0</ele><time>2026-04-07T10:38:13Z</time></trkpt><trkpt lat="43.63503257229504" lon="10.604550308474282"><ele>14.0</ele><time>2026-04-07T10:38:14Z</time></trkpt><trkpt lat="43.63514069278567" lon="10.604442431890234"><ele>14.0</ele><time>2026-04-07T10:38:15Z</time></trkpt><trkpt lat="43.63524037781145" lon="10.604333557532428"><ele>14.0</ele><time>2026-04-07T10:38:16Z</time></trkpt><trkpt lat="43.635343166795224" lon="10.604205612081413"><ele>14.0</ele><time>2026-04-07T10:38:17Z</time></trkpt><trkpt lat="43.6354407514566" lon="10.604064717183194"><ele>13.5</ele><time>2026-04-07T10:38:18Z</time></trkpt><trkpt lat="43.63553816063966" lon="10.603920760640186"><ele>13.0</ele><time>2026-04-07T10:38:19Z</time></trkpt><trkpt lat="43.63563417127553" lon="10.603773755854922"><ele>12.5</ele><time>2026-04-07T10:38:20Z</time></trkpt><trkpt lat="43.63572183135023" lon="10.603633896051504"><ele>12.0</ele><time>2026-04-07T10:38:21Z</time></trkpt><trkpt lat="43.63581053114451" lon="10.603510925807996"><ele>12.0</ele><time>2026-04-07T10:38:22Z</time></trkpt><trkpt lat="43.63589641246541" lon="10.603372591403794"><ele>12.0</ele><time>2026-04-07T10:38:23Z</time></trkpt><trkpt lat="43.63599017676365" lon="10.603226538340397"><ele>12.0</ele><time>2026-04-07T10:38:24Z</time></trkpt><trkpt lat="43.636088831261524" lon="10.603070267737744"><ele>12.0</ele><time>2026-04-07T10:38:25Z</time></trkpt><trkpt lat="43.63618988551621" lon="10.602912852120808"><ele>12.0</ele><time>2026-04-07T10:38:26Z</time></trkpt><trkpt lat="43.63629406735576" lon="10.602753842219142"><ele>12.0</ele><time>2026-04-07T10:38:27Z</time></trkpt><trkpt lat="43.63638976214928" lon="10.602607767288129"><ele>12.0</ele><time>2026-04-07T10:38:28Z</time></trkpt><trkpt lat="43.636486587183356" lon="10.602490373642011"><ele>12.0</ele><time>2026-04-07T10:38:29Z</time></trkpt><trkpt lat="43.63657322287776" lon="10.602357087954859"><ele>12.0</ele><time>2026-04-07T10:38:30Z</time></trkpt><trkpt lat="43.6366630535359" lon="10.602218886943342"><ele>12.0</ele><time>2026-04-07T10:38:31Z</time></trkpt><trkpt lat="43.63675535491567" lon="10.602077228567385"><ele>12.0</ele><time>2026-04-07T10:38:32Z</time></trkpt><trkpt lat="43.63683641532954" lon="10.601925046654046"><ele>12.0</ele><time>2026-04-07T10:38:33Z</time></trkpt><trkpt lat="43.63692391057562" lon="10.601807435500284"><ele>12.399999999999999</ele><time>2026-04-07T10:38:34Z</time></trkpt><trkpt lat="43.637009305510794" lon="10.60168770267646"><ele>12.799999999999999</ele><time>2026-04-07T10:38:35Z</time></trkpt><trkpt lat="43.637092485060506" lon="10.601578223866793"><ele>13.2</ele><time>2026-04-07T10:38:36Z</time></trkpt><trkpt lat="43.637166872294536" lon="10.60148804234347"><ele>13.6</ele><time>2026-04-07T10:38:37Z</time></trkpt><trkpt lat="43.63723204602994" lon="10.601415054896636"><ele>14.0</ele><time>2026-04-07T10:38:38Z</time></trkpt><trkpt lat="43.63728640003835" lon="10.60135883275068"><ele>14.0</ele><time>2026-04-07T10:38:39Z</time></trkpt><trkpt lat="43.637375425089225" lon="10.60128481979915"><ele>13.999999999999998</ele><time>2026-04-07T10:38:41Z</time></trkpt><trkpt lat="43.6374435397755" lon="10.6012020943614"><ele>13.999999999999998</ele><time>2026-04-07T10:38:43Z</time></trkpt><trkpt lat="43.63754483257596" lon="10.601285660811083"><ele>14.0</ele><time>2026-04-07T10:38:44Z</time></trkpt><trkpt lat="43.63761944489862" lon="10.601319635092624"><ele>14.0</ele><time>2026-04-07T10:38:45Z</time></trkpt><trkpt lat="43.63770339292327" lon="10.601339484073518"><ele>14.0</ele><time>2026-04-07T10:38:46Z</time></trkpt><trkpt lat="43.63779971736353" lon="10.60131119670999"><ele>13.999999999999998</ele><time>2026-04-07T10:38:47Z</time></trkpt><trkpt lat="43.63788851713793" lon="10.601244375341649"><ele>13.999999999999998</ele><time>2026-04-07T10:38:48Z</time></trkpt><trkpt lat="43.63797278795213" lon="10.601165446847027"><ele>14.0</ele><time>2026-04-07T10:38:49Z</time></trkpt><trkpt lat="43.63803616827259" lon="10.601090188355895"><ele>14.0</ele><time>2026-04-07T10:38:50Z</time></trkpt><trkpt lat="43.638084389000205" lon="10.601003657344302"><ele>13.799999999999999</ele><time>2026-04-07T10:38:51Z</time></trkpt><trkpt lat="43.638191602370384" lon="10.60096713716455"><ele>13.599999999999998</ele><time>2026-04-07T10:38:52Z</time></trkpt><trkpt lat="43.6382908954109" lon="10.600921108242977"><ele>13.4</ele><time>2026-04-07T10:38:53Z</time></trkpt><trkpt lat="43.63839375771178" lon="10.600876821418048"><ele>13.2</ele><time>2026-04-07T10:38:54Z</time></trkpt><trkpt lat="43.638508708721666" lon="10.600835993977974"><ele>13.0</ele><time>2026-04-07T10:38:55Z</time></trkpt><trkpt lat="43.63862746858913" lon="10.600802063965885"><ele>13.0</ele><time>2026-04-07T10:38:56Z</time></trkpt><trkpt lat="43.638752839838105" lon="10.60077371987301"><ele>13.0</ele><time>2026-04-07T10:38:57Z</time></trkpt><trkpt lat="43.638872713676705" lon="10.600751319303097"><ele>13.0</ele><time>2026-04-07T10:38:58Z</time></trkpt><trkpt lat="43.638998432456965" lon="10.600724890428328"><ele>13.0</ele><time>2026-04-07T10:38:59Z</time></trkpt><trkpt lat="43.63912412631587" lon="10.600705537038705"><ele>13.0</ele><time>2026-04-07T10:39:00Z</time></trkpt><trkpt lat="43.639252251536085" lon="10.60069871184012"><ele>13.0</ele><time>2026-04-07T10:39:01Z</time></trkpt><trkpt lat="43.63938592787728" lon="10.600699548077449"><ele>13.0</ele><time>2026-04-07T10:39:02Z</time></trkpt><trkpt lat="43.63952413255693" lon="10.600701819217798"><ele>13.0</ele><time>2026-04-07T10:39:03Z</time></trkpt><trkpt lat="43.639668025319494" lon="10.600711192062557"><ele>13.0</ele><time>2026-04-07T10:39:04Z</time></trkpt><trkpt lat="43.63981725642216" lon="10.600726386878414"><ele>13.0</ele><time>2026-04-07T10:39:05Z</time></trkpt><trkpt lat="43.63997004304349" lon="10.60073940229862"><ele>13.0</ele><time>2026-04-07T10:39:06Z</time></trkpt><trkpt lat="43.64012815723361" lon="10.600747907881141"><ele>13.0</ele><time>2026-04-07T10:39:07Z</time></trkpt><trkpt lat="43.64028775990896" lon="10.600758830342723"><ele>13.0</ele><time>2026-04-07T10:39:08Z</time></trkpt><trkpt lat="43.64043935819261" lon="10.600772039100844"><ele>13.0</ele><time>2026-04-07T10:39:09Z</time></trkpt><trkpt lat="43.640602184543695" lon="10.60078539147526"><ele>13.0</ele><time>2026-04-07T10:39:10Z</time></trkpt><trkpt lat="43.64077528872813" lon="10.600806435575628"><ele>13.0</ele><time>2026-04-07T10:39:11Z</time></trkpt><trkpt lat="43.64095700949898" lon="10.60083811001644"><ele>13.0</ele><time>2026-04-07T10:39:12Z</time></trkpt><trkpt lat="43.64113980543082" lon="10.60088941336563"><ele>12.666666666666666</ele><time>2026-04-07T10:39:12.999Z</time></trkpt><trkpt lat="43.64131760118373" lon="10.600954758360933"><ele>12.333333333333332</ele><time>2026-04-07T10:39:13.999Z</time></trkpt><trkpt lat="43.641476596303406" lon="10.601022728037227"><ele>12.0</ele><time>2026-04-07T10:39:14.999Z</time></trkpt><trkpt lat="43.64163797516827" lon="10.601093442306388"><ele>12.0</ele><time>2026-04-07T10:39:15.999Z</time></trkpt><trkpt lat="43.641802653893926" lon="10.601173811609593"><ele>12.0</ele><time>2026-04-07T10:39:16.999Z</time></trkpt><trkpt lat="43.641964785131286" lon="10.601273540303575"><ele>12.0</ele><time>2026-04-07T10:39:17.999Z</time></trkpt><trkpt lat="43.64212495343571" lon="10.601382553357777"><ele>12.0</ele><time>2026-04-07T10:39:18.999Z</time></trkpt><trkpt lat="43.64228536479242" lon="10.60149840943142"><ele>12.0</ele><time>2026-04-07T10:39:19.999Z</time></trkpt><trkpt lat="43.64244530482043" lon="10.601620292689697"><ele>12.0</ele><time>2026-04-07T10:39:20.999Z</time></trkpt><trkpt lat="43.6426053118071" lon="10.601745185976565"><ele>12.0</ele><time>2026-04-07T10:39:21.999Z</time></trkpt><trkpt lat="43.64276663202955" lon="10.60187248616694"><ele>12.0</ele><time>2026-04-07T10:39:22.999Z</time></trkpt><trkpt lat="43.64291495827768" lon="10.601996505949193"><ele>12.0</ele><time>2026-04-07T10:39:23.999Z</time></trkpt><trkpt lat="43.643058826457036" lon="10.602110358053833"><ele>12.333333333333332</ele><time>2026-04-07T10:39:24.999Z</time></trkpt><trkpt lat="43.643203351198025" lon="10.60222372940481"><ele>12.666666666666666</ele><time>2026-04-07T10:39:25.999Z</time></trkpt><trkpt lat="43.643348845333435" lon="10.602338580563924"><ele>13.0</ele><time>2026-04-07T10:39:26.999Z</time></trkpt><trkpt lat="43.64350025767882" lon="10.60245870329158"><ele>12.666666666666666</ele><time>2026-04-07T10:39:27.999Z</time></trkpt><trkpt lat="43.643656830253406" lon="10.60258324214633"><ele>12.333333333333332</ele><time>2026-04-07T10:39:28.999Z</time></trkpt><trkpt lat="43.643815864247394" lon="10.602711760676478"><ele>12.0</ele><time>2026-04-07T10:39:29.999Z</time></trkpt><trkpt lat="43.64397441197413" lon="10.602841597561575"><ele>11.666666666666666</ele><time>2026-04-07T10:39:30.999Z</time></trkpt><trkpt lat="43.64411991476106" lon="10.6029630426849"><ele>11.333333333333332</ele><time>2026-04-07T10:39:31.999Z</time></trkpt><trkpt lat="43.6442562031581" lon="10.603072354738977"><ele>11.0</ele><time>2026-04-07T10:39:32.999Z</time></trkpt><trkpt lat="43.644382431732595" lon="10.603173682482671"><ele>11.25</ele><time>2026-04-07T10:39:33.999Z</time></trkpt><trkpt lat="43.644499672942956" lon="10.603269001345241"><ele>11.5</ele><time>2026-04-07T10:39:34.999Z</time></trkpt><trkpt lat="43.64460955059981" lon="10.603356629304765"><ele>11.75</ele><time>2026-04-07T10:39:35.999Z</time></trkpt><trkpt lat="43.644711083969916" lon="10.603441692552313"><ele>12.0</ele><time>2026-04-07T10:39:36.999Z</time></trkpt><trkpt lat="43.64480525726773" lon="10.603519875790235"><ele>12.0</ele><time>2026-04-07T10:39:37.999Z</time></trkpt><trkpt lat="43.64489234888322" lon="10.603596226713371"><ele>12.0</ele><time>2026-04-07T10:39:38.999Z</time></trkpt><trkpt lat="43.64496868574501" lon="10.603672192056468"><ele>12.0</ele><time>2026-04-07T10:39:39.999Z</time></trkpt><trkpt lat="43.64502994480124" lon="10.60376110567177"><ele>12.0</ele><time>2026-04-07T10:39:40.999Z</time></trkpt><trkpt lat="43.6450870673683" lon="10.603833706460161"><ele>12.0</ele><time>2026-04-07T10:39:41.999Z</time></trkpt><trkpt lat="43.64513567458151" lon="10.603975916966844"><ele>12.0</ele><time>2026-04-07T10:39:43.999Z</time></trkpt><trkpt lat="43.64513393034473" lon="10.604106023626546"><ele>12.0</ele><time>2026-04-07T10:39:45.999Z</time></trkpt><trkpt lat="43.64513429312759" lon="10.604201606907418"><ele>12.0</ele><time>2026-04-07T10:39:46.999Z</time></trkpt><trkpt lat="43.64517967219289" lon="10.604287695346603"><ele>12.0</ele><time>2026-04-07T10:39:47.999Z</time></trkpt><trkpt lat="43.6452438824435" lon="10.60436561246694"><ele>12.0</ele><time>2026-04-07T10:39:48.999Z</time></trkpt><trkpt lat="43.645317481107064" lon="10.60441997178083"><ele>12.0</ele><time>2026-04-07T10:39:49.999Z</time></trkpt><trkpt lat="43.64539413009047" lon="10.604442975115184"><ele>12.0</ele><time>2026-04-07T10:39:50.999Z</time></trkpt><trkpt lat="43.64547984715083" lon="10.604456665302758"><ele>12.0</ele><time>2026-04-07T10:39:51.999Z</time></trkpt><trkpt lat="43.64557548506951" lon="10.604458353944308"><ele>12.0</ele><time>2026-04-07T10:39:52.999Z</time></trkpt><trkpt lat="43.64568378062388" lon="10.60443679843848"><ele>12.0</ele><time>2026-04-07T10:39:53.999Z</time></trkpt><trkpt lat="43.64579648279334" lon="10.604464857729127"><ele>12.0</ele><time>2026-04-07T10:39:54.999Z</time></trkpt><trkpt lat="43.64590627436772" lon="10.604548393277684"><ele>12.0</ele><time>2026-04-07T10:39:55.999Z</time></trkpt><trkpt lat="43.64602665310933" lon="10.604642911635988"><ele>12.0</ele><time>2026-04-07T10:39:56.999Z</time></trkpt><trkpt lat="43.64614884392324" lon="10.60474727307006"><ele>12.0</ele><time>2026-04-07T10:39:57.999Z</time></trkpt><trkpt lat="43.64626768717586" lon="10.604847904358692"><ele>12.0</ele><time>2026-04-07T10:39:58.999Z</time></trkpt><trkpt lat="43.64639537319929" lon="10.604949083377523"><ele>11.333333333333334</ele><time>2026-04-07T10:39:59.999Z</time></trkpt><trkpt lat="43.64652919437955" lon="10.605053549500546"><ele>10.666666666666668</ele><time>2026-04-07T10:40:00.999Z</time></trkpt><trkpt lat="43.64666930013307" lon="10.60516113406023"><ele>10.0</ele><time>2026-04-07T10:40:01.999Z</time></trkpt><trkpt lat="43.64681351072698" lon="10.605271178952394"><ele>10.0</ele><time>2026-04-07T10:40:02.999Z</time></trkpt><trkpt lat="43.646951463277915" lon="10.605380361260659"><ele>10.0</ele><time>2026-04-07T10:40:03.999Z</time></trkpt><trkpt lat="43.64708329461628" lon="10.605491589289523"><ele>10.0</ele><time>2026-04-07T10:40:04.999Z</time></trkpt><trkpt lat="43.6472204599703" lon="10.605607511319523"><ele>10.333333333333334</ele><time>2026-04-07T10:40:05.999Z</time></trkpt><trkpt lat="43.647361908335185" lon="10.605723657516709"><ele>10.666666666666666</ele><time>2026-04-07T10:40:06.999Z</time></trkpt><trkpt lat="43.647506931414306" lon="10.605840683257398"><ele>11.0</ele><time>2026-04-07T10:40:07.999Z</time></trkpt><trkpt lat="43.6476555977247" lon="10.605961297669495"><ele>11.0</ele><time>2026-04-07T10:40:08.999Z</time></trkpt><trkpt lat="43.64780885461123" lon="10.606084336507365"><ele>11.0</ele><time>2026-04-07T10:40:10Z</time></trkpt><trkpt lat="43.64796348664444" lon="10.606207743834377"><ele>11.0</ele><time>2026-04-07T10:40:11Z</time></trkpt><trkpt lat="43.64811799006384" lon="10.606334071858356"><ele>11.0</ele><time>2026-04-07T10:40:12Z</time></trkpt><trkpt lat="43.64825791744415" lon="10.606451858100467"><ele>11.0</ele><time>2026-04-07T10:40:13Z</time></trkpt><trkpt lat="43.648402651594196" lon="10.60654266304864"><ele>11.0</ele><time>2026-04-07T10:40:14Z</time></trkpt><trkpt lat="43.648541147667515" lon="10.606653302194564"><ele>11.0</ele><time>2026-04-07T10:40:15Z</time></trkpt><trkpt lat="43.648680484621806" lon="10.606764613917388"><ele>11.0</ele><time>2026-04-07T10:40:16Z</time></trkpt><trkpt lat="43.6488130510785" lon="10.606895211432013"><ele>11.0</ele><time>2026-04-07T10:40:17Z</time></trkpt><trkpt lat="43.64895169517857" lon="10.607006640661822"><ele>10.666666666666666</ele><time>2026-04-07T10:40:18Z</time></trkpt><trkpt lat="43.649098935175786" lon="10.607098897888163"><ele>10.333333333333334</ele><time>2026-04-07T10:40:19Z</time></trkpt><trkpt lat="43.64923691947898" lon="10.60720977184895"><ele>10.0</ele><time>2026-04-07T10:40:20Z</time></trkpt><trkpt lat="43.64936288898513" lon="10.607312370774913"><ele>10.25</ele><time>2026-04-07T10:40:21Z</time></trkpt><trkpt lat="43.64948461058427" lon="10.607411509849102"><ele>10.5</ele><time>2026-04-07T10:40:22Z</time></trkpt><trkpt lat="43.64960886970098" lon="10.607513273951925"><ele>10.75</ele><time>2026-04-07T10:40:23Z</time></trkpt><trkpt lat="43.64972495216423" lon="10.607608563957019"><ele>11.0</ele><time>2026-04-07T10:40:24Z</time></trkpt><trkpt lat="43.649833162949754" lon="10.607705117680558"><ele>11.0</ele><time>2026-04-07T10:40:25Z</time></trkpt><trkpt lat="43.64991569665243" lon="10.607806816329088"><ele>11.0</ele><time>2026-04-07T10:40:26Z</time></trkpt><trkpt lat="43.64998749324763" lon="10.607922546678033"><ele>11.0</ele><time>2026-04-07T10:40:27Z</time></trkpt><trkpt lat="43.650033724064436" lon="10.608065445040568"><ele>11.0</ele><time>2026-04-07T10:40:28Z</time></trkpt><trkpt lat="43.65005319251914" lon="10.608188302001809"><ele>11.0</ele><time>2026-04-07T10:40:29Z</time></trkpt><trkpt lat="43.65011381240953" lon="10.60827505150506"><ele>11.0</ele><time>2026-04-07T10:40:30Z</time></trkpt><trkpt lat="43.65019274034115" lon="10.608355108422812"><ele>11.0</ele><time>2026-04-07T10:40:31Z</time></trkpt><trkpt lat="43.65028894145484" lon="10.608427126613014"><ele>11.0</ele><time>2026-04-07T10:40:32Z</time></trkpt><trkpt lat="43.65039646020042" lon="10.608464361605819"><ele>11.0</ele><time>2026-04-07T10:40:33Z</time></trkpt><trkpt lat="43.65050604853046" lon="10.608581667256255"><ele>11.0</ele><time>2026-04-07T10:40:34Z</time></trkpt><trkpt lat="43.65057777004393" lon="10.60872976861072"><ele>11.0</ele><time>2026-04-07T10:40:35Z</time></trkpt><trkpt lat="43.650635563608105" lon="10.608890464390768"><ele>11.0</ele><time>2026-04-07T10:40:36Z</time></trkpt><trkpt lat="43.65070250053284" lon="10.609051512267612"><ele>11.0</ele><time>2026-04-07T10:40:37Z</time></trkpt><trkpt lat="43.65076530991673" lon="10.609226525871536"><ele>11.0</ele><time>2026-04-07T10:40:38Z</time></trkpt><trkpt lat="43.65084052890856" lon="10.609402563405641"><ele>11.0</ele><time>2026-04-07T10:40:39Z</time></trkpt><trkpt lat="43.65091972979204" lon="10.609582306555934"><ele>11.0</ele><time>2026-04-07T10:40:40Z</time></trkpt><trkpt lat="43.650997534725356" lon="10.609753143682877"><ele>11.0</ele><time>2026-04-07T10:40:41Z</time></trkpt><trkpt lat="43.65107293713035" lon="10.609929167356519"><ele>11.333333333333332</ele><time>2026-04-07T10:40:42Z</time></trkpt><trkpt lat="43.65114212246809" lon="10.610123676643164"><ele>11.666666666666666</ele><time>2026-04-07T10:40:43Z</time></trkpt><trkpt lat="43.65122636218429" lon="10.610312370964985"><ele>12.0</ele><time>2026-04-07T10:40:44Z</time></trkpt><trkpt lat="43.651304808638834" lon="10.610507201212682"><ele>12.0</ele><time>2026-04-07T10:40:45Z</time></trkpt><trkpt lat="43.65137633903226" lon="10.610709251718646"><ele>12.0</ele><time>2026-04-07T10:40:46Z</time></trkpt><trkpt lat="43.65144433092976" lon="10.610919439553514"><ele>12.0</ele><time>2026-04-07T10:40:47Z</time></trkpt><trkpt lat="43.65150323220442" lon="10.611115721140473"><ele>11.666666666666666</ele><time>2026-04-07T10:40:48Z</time></trkpt><trkpt lat="43.65155683204414" lon="10.611310653031396"><ele>11.333333333333332</ele><time>2026-04-07T10:40:49Z</time></trkpt><trkpt lat="43.65160581255465" lon="10.611511876333157"><ele>11.0</ele><time>2026-04-07T10:40:50Z</time></trkpt><trkpt lat="43.65164728181057" lon="10.611719320140041"><ele>11.0</ele><time>2026-04-07T10:40:51Z</time></trkpt><trkpt lat="43.65168551836797" lon="10.611929705615147"><ele>11.0</ele><time>2026-04-07T10:40:52Z</time></trkpt><trkpt lat="43.65172540449325" lon="10.612141731908121"><ele>11.0</ele><time>2026-04-07T10:40:53Z</time></trkpt><trkpt lat="43.651764593829554" lon="10.612355572972175"><ele>11.0</ele><time>2026-04-07T10:40:54Z</time></trkpt><trkpt lat="43.651797476509074" lon="10.61257026842476"><ele>11.0</ele><time>2026-04-07T10:40:55Z</time></trkpt><trkpt lat="43.65183158916295" lon="10.612787521037662"><ele>11.0</ele><time>2026-04-07T10:40:56Z</time></trkpt><trkpt lat="43.65186982267936" lon="10.613014635650515"><ele>11.333333333333332</ele><time>2026-04-07T10:40:57Z</time></trkpt><trkpt lat="43.651906649601464" lon="10.613242291956409"><ele>11.666666666666666</ele><time>2026-04-07T10:40:58Z</time></trkpt><trkpt lat="43.65193947403205" lon="10.6134623915513"><ele>12.0</ele><time>2026-04-07T10:40:59Z</time></trkpt><trkpt lat="43.65197345151988" lon="10.613681730198788"><ele>12.0</ele><time>2026-04-07T10:41:00Z</time></trkpt><trkpt lat="43.652008916575234" lon="10.613913676278708"><ele>12.0</ele><time>2026-04-07T10:41:01Z</time></trkpt><trkpt lat="43.65204579048427" lon="10.614151278445437"><ele>12.0</ele><time>2026-04-07T10:41:02Z</time></trkpt><trkpt lat="43.6520842847688" lon="10.614392572616165"><ele>11.666666666666666</ele><time>2026-04-07T10:41:03Z</time></trkpt><trkpt lat="43.65212494851404" lon="10.614632476435515"><ele>11.333333333333332</ele><time>2026-04-07T10:41:04Z</time></trkpt><trkpt lat="43.65216223499048" lon="10.614855856339409"><ele>11.0</ele><time>2026-04-07T10:41:05Z</time></trkpt><trkpt lat="43.65219571850339" lon="10.615068473907554"><ele>11.0</ele><time>2026-04-07T10:41:06Z</time></trkpt><trkpt lat="43.652226447844235" lon="10.6152663668142"><ele>11.0</ele><time>2026-04-07T10:41:07Z</time></trkpt><trkpt lat="43.65225567615162" lon="10.615461540875723"><ele>11.0</ele><time>2026-04-07T10:41:08Z</time></trkpt><trkpt lat="43.65228010944804" lon="10.61564580970879"><ele>11.0</ele><time>2026-04-07T10:41:09Z</time></trkpt><trkpt lat="43.65229238550476" lon="10.615819094666104"><ele>11.200000000000001</ele><time>2026-04-07T10:41:10Z</time></trkpt><trkpt lat="43.65227912302406" lon="10.615974824693213"><ele>11.4</ele><time>2026-04-07T10:41:11Z</time></trkpt><trkpt lat="43.652270665412026" lon="10.616120006242593"><ele>11.6</ele><time>2026-04-07T10:41:12Z</time></trkpt><trkpt lat="43.652200346123486" lon="10.61624696438065"><ele>11.8</ele><time>2026-04-07T10:41:13Z</time></trkpt><trkpt lat="43.652189044687425" lon="10.616400198074205"><ele>12.0</ele><time>2026-04-07T10:41:14Z</time></trkpt><trkpt lat="43.65221080998968" lon="10.616554964599898"><ele>12.0</ele><time>2026-04-07T10:41:14.999Z</time></trkpt><trkpt lat="43.65226736113112" lon="10.616698173245123"><ele>12.0</ele><time>2026-04-07T10:41:15.999Z</time></trkpt><trkpt lat="43.652344635865056" lon="10.616826836471178"><ele>12.0</ele><time>2026-04-07T10:41:16.999Z</time></trkpt><trkpt lat="43.65244847672288" lon="10.616939446390573"><ele>12.0</ele><time>2026-04-07T10:41:17.999Z</time></trkpt><trkpt lat="43.65251638123102" lon="10.617106873230714"><ele>11.75</ele><time>2026-04-07T10:41:18.999Z</time></trkpt><trkpt lat="43.65253821845629" lon="10.61730649565714"><ele>11.5</ele><time>2026-04-07T10:41:19.999Z</time></trkpt><trkpt lat="43.652558220694445" lon="10.617488881343789"><ele>11.25</ele><time>2026-04-07T10:41:20.999Z</time></trkpt><trkpt lat="43.65257833751081" lon="10.617675771695334"><ele>11.0</ele><time>2026-04-07T10:41:21.999Z</time></trkpt><trkpt lat="43.652616448436916" lon="10.617864362894071"><ele>11.0</ele><time>2026-04-07T10:41:22.999Z</time></trkpt><trkpt lat="43.65262902443819" lon="10.61806738791432"><ele>11.0</ele><time>2026-04-07T10:41:23.999Z</time></trkpt><trkpt lat="43.65266646968998" lon="10.61827186097537"><ele>11.0</ele><time>2026-04-07T10:41:24.999Z</time></trkpt><trkpt lat="43.652682864218335" lon="10.618487387566944"><ele>11.333333333333332</ele><time>2026-04-07T10:41:25.999Z</time></trkpt><trkpt lat="43.652714414618" lon="10.618709578842747"><ele>11.666666666666666</ele><time>2026-04-07T10:41:26.999Z</time></trkpt><trkpt lat="43.65274175982616" lon="10.618940554347414"><ele>12.0</ele><time>2026-04-07T10:41:27.999Z</time></trkpt><trkpt lat="43.65278361765913" lon="10.619156054476246"><ele>11.666666666666666</ele><time>2026-04-07T10:41:28.999Z</time></trkpt><trkpt lat="43.652790208082436" lon="10.619365728400274"><ele>11.333333333333332</ele><time>2026-04-07T10:41:29.999Z</time></trkpt><trkpt lat="43.65280952709706" lon="10.619584324962442"><ele>11.0</ele><time>2026-04-07T10:41:30.999Z</time></trkpt><trkpt lat="43.65281820812962" lon="10.61981213237556"><ele>11.0</ele><time>2026-04-07T10:41:31.999Z</time></trkpt><trkpt lat="43.6528070828236" lon="10.620050242429109"><ele>11.0</ele><time>2026-04-07T10:41:32.999Z</time></trkpt><trkpt lat="43.65279881602374" lon="10.62029311689169"><ele>11.0</ele><time>2026-04-07T10:41:33.999Z</time></trkpt><trkpt lat="43.65276090937226" lon="10.62054198765273"><ele>11.333333333333332</ele><time>2026-04-07T10:41:34.999Z</time></trkpt><trkpt lat="43.65270974290073" lon="10.620789693767437"><ele>11.666666666666666</ele><time>2026-04-07T10:41:35.999Z</time></trkpt><trkpt lat="43.65263610995479" lon="10.621027162034755"><ele>12.0</ele><time>2026-04-07T10:41:36.999Z</time></trkpt><trkpt lat="43.65256823818185" lon="10.621278990085617"><ele>12.333333333333332</ele><time>2026-04-07T10:41:37.999Z</time></trkpt><trkpt lat="43.65249163316318" lon="10.621522128981871"><ele>12.666666666666666</ele><time>2026-04-07T10:41:38.999Z</time></trkpt><trkpt lat="43.652420745335505" lon="10.621746695732224"><ele>13.0</ele><time>2026-04-07T10:41:39.999Z</time></trkpt><trkpt lat="43.652350735513245" lon="10.621973127604528"><ele>14.0</ele><time>2026-04-07T10:41:40.999Z</time></trkpt><trkpt lat="43.65229378697506" lon="10.622215485669608"><ele>15.0</ele><time>2026-04-07T10:41:41.999Z</time></trkpt><trkpt lat="43.652219920213305" lon="10.622460042188234"><ele>16.0</ele><time>2026-04-07T10:41:42.999Z</time></trkpt><trkpt lat="43.65214859671364" lon="10.622696178869177"><ele>15.666666666666666</ele><time>2026-04-07T10:41:43.999Z</time></trkpt><trkpt lat="43.65206893258746" lon="10.62290743303608"><ele>15.333333333333332</ele><time>2026-04-07T10:41:44.999Z</time></trkpt><trkpt lat="43.65203198349225" lon="10.623121537245371"><ele>15.0</ele><time>2026-04-07T10:41:45.999Z</time></trkpt><trkpt lat="43.65197055468672" lon="10.623322563300862"><ele>14.333333333333332</ele><time>2026-04-07T10:41:46.999Z</time></trkpt><trkpt lat="43.65193942119233" lon="10.623532920599677"><ele>13.666666666666666</ele><time>2026-04-07T10:41:47.999Z</time></trkpt><trkpt lat="43.65191602929533" lon="10.6237451995549"><ele>13.0</ele><time>2026-04-07T10:41:48.999Z</time></trkpt><trkpt lat="43.65189332619702" lon="10.623968588941139"><ele>13.0</ele><time>2026-04-07T10:41:49.999Z</time></trkpt><trkpt lat="43.65188525062902" lon="10.624198209223882"><ele>13.0</ele><time>2026-04-07T10:41:50.999Z</time></trkpt><trkpt lat="43.65189116843726" lon="10.624441381344754"><ele>13.0</ele><time>2026-04-07T10:41:51.999Z</time></trkpt><trkpt lat="43.65191311196605" lon="10.624676263552134"><ele>13.0</ele><time>2026-04-07T10:41:52.999Z</time></trkpt><trkpt lat="43.651943078968955" lon="10.62492408440308"><ele>13.0</ele><time>2026-04-07T10:41:53.999Z</time></trkpt><trkpt lat="43.651999954769956" lon="10.625147374747193"><ele>13.0</ele><time>2026-04-07T10:41:54.999Z</time></trkpt><trkpt lat="43.652051143846855" lon="10.62535863893328"><ele>12.666666666666666</ele><time>2026-04-07T10:41:55.999Z</time></trkpt><trkpt lat="43.65210700720885" lon="10.625588118527038"><ele>12.333333333333332</ele><time>2026-04-07T10:41:56.999Z</time></trkpt><trkpt lat="43.652198014702265" lon="10.625812160003402"><ele>12.0</ele><time>2026-04-07T10:41:57.999Z</time></trkpt><trkpt lat="43.652302417402375" lon="10.626043912481823"><ele>12.0</ele><time>2026-04-07T10:41:58.999Z</time></trkpt><trkpt lat="43.65241012526302" lon="10.626273946139516"><ele>12.0</ele><time>2026-04-07T10:41:59.999Z</time></trkpt><trkpt lat="43.65252214231472" lon="10.626502610758411"><ele>12.0</ele><time>2026-04-07T10:42:00.999Z</time></trkpt><trkpt lat="43.652626071199556" lon="10.626703698141029"><ele>12.0</ele><time>2026-04-07T10:42:01.999Z</time></trkpt><trkpt lat="43.652726113723084" lon="10.626902215251071"><ele>12.0</ele><time>2026-04-07T10:42:02.999Z</time></trkpt><trkpt lat="43.65282259558374" lon="10.627059086480568"><ele>12.0</ele><time>2026-04-07T10:42:03.999Z</time></trkpt><trkpt lat="43.65287847553378" lon="10.62721474477298"><ele>12.0</ele><time>2026-04-07T10:42:04.999Z</time></trkpt><trkpt lat="43.6529045891627" lon="10.62733269264895"><ele>12.0</ele><time>2026-04-07T10:42:05.999Z</time></trkpt><trkpt lat="43.652925186899864" lon="10.62745026700088"><ele>12.0</ele><time>2026-04-07T10:42:06.999Z</time></trkpt><trkpt lat="43.652899194297035" lon="10.62757252806952"><ele>12.0</ele><time>2026-04-07T10:42:07.999Z</time></trkpt><trkpt lat="43.652911055563216" lon="10.627679603419507"><ele>12.0</ele><time>2026-04-07T10:42:08.999Z</time></trkpt><trkpt lat="43.65294280919105" lon="10.627786835634724"><ele>12.0</ele><time>2026-04-07T10:42:09.999Z</time></trkpt><trkpt lat="43.652983630294344" lon="10.62789166514435"><ele>12.2</ele><time>2026-04-07T10:42:10.999Z</time></trkpt><trkpt lat="43.65305180707158" lon="10.62796899719927"><ele>12.399999999999999</ele><time>2026-04-07T10:42:11.999Z</time></trkpt><trkpt lat="43.65313376509617" lon="10.62802454235756"><ele>12.600000000000001</ele><time>2026-04-07T10:42:12.999Z</time></trkpt><trkpt lat="43.65322287178705" lon="10.628063590235085"><ele>12.8</ele><time>2026-04-07T10:42:13.999Z</time></trkpt><trkpt lat="43.65331035577229" lon="10.628117309575195"><ele>13.0</ele><time>2026-04-07T10:42:14.999Z</time></trkpt><trkpt lat="43.65338387967535" lon="10.62818516449863"><ele>12.999999999999998</ele><time>2026-04-07T10:42:16Z</time></trkpt><trkpt lat="43.653457183723255" lon="10.628239542128993"><ele>13.0</ele><time>2026-04-07T10:42:17Z</time></trkpt><trkpt lat="43.653499909314604" lon="10.628345244802757"><ele>13.0</ele><time>2026-04-07T10:42:18Z</time></trkpt><trkpt lat="43.653562584993516" lon="10.628423334497402"><ele>13.0</ele><time>2026-04-07T10:42:19Z</time></trkpt><trkpt lat="43.65360551831209" lon="10.628532851529117"><ele>12.999999999999998</ele><time>2026-04-07T10:42:20Z</time></trkpt><trkpt lat="43.65366338851615" lon="10.628636147922826"><ele>13.0</ele><time>2026-04-07T10:42:21Z</time></trkpt><trkpt lat="43.653716021641976" lon="10.62873773383909"><ele>13.2</ele><time>2026-04-07T10:42:22Z</time></trkpt><trkpt lat="43.65376547501461" lon="10.628828217073009"><ele>13.4</ele><time>2026-04-07T10:42:23Z</time></trkpt><trkpt lat="43.65380854872691" lon="10.628928280464281"><ele>13.599999999999998</ele><time>2026-04-07T10:42:24Z</time></trkpt><trkpt lat="43.653860064785526" lon="10.629035676854556"><ele>13.799999999999999</ele><time>2026-04-07T10:42:25Z</time></trkpt><trkpt lat="43.65391228831529" lon="10.629152115536263"><ele>14.0</ele><time>2026-04-07T10:42:26Z</time></trkpt><trkpt lat="43.653956521544195" lon="10.629289916161628"><ele>14.0</ele><time>2026-04-07T10:42:27Z</time></trkpt><trkpt lat="43.65400232671924" lon="10.629436311102728"><ele>14.0</ele><time>2026-04-07T10:42:28Z</time></trkpt><trkpt lat="43.65404600996049" lon="10.629591176502377"><ele>14.0</ele><time>2026-04-07T10:42:29Z</time></trkpt><trkpt lat="43.65408096678925" lon="10.629745128252969"><ele>14.0</ele><time>2026-04-07T10:42:30Z</time></trkpt><trkpt lat="43.65411291297395" lon="10.629896155280303"><ele>14.0</ele><time>2026-04-07T10:42:31Z</time></trkpt><trkpt lat="43.65413507578216" lon="10.630047343579488"><ele>13.999999999999998</ele><time>2026-04-07T10:42:32Z</time></trkpt><trkpt lat="43.65415650464399" lon="10.630208199909315"><ele>13.999999999999998</ele><time>2026-04-07T10:42:33Z</time></trkpt><trkpt lat="43.654171500668284" lon="10.630364771007347"><ele>14.0</ele><time>2026-04-07T10:42:34Z</time></trkpt><trkpt lat="43.65418328603596" lon="10.630497097081216"><ele>14.0</ele><time>2026-04-07T10:42:35Z</time></trkpt><trkpt lat="43.65419805267168" lon="10.630621045230503"><ele>14.000000000000002</ele><time>2026-04-07T10:42:36Z</time></trkpt><trkpt lat="43.65419070835646" lon="10.630734528096742"><ele>14.0</ele><time>2026-04-07T10:42:37Z</time></trkpt><trkpt lat="43.654168594622874" lon="10.630837581617266"><ele>14.0</ele><time>2026-04-07T10:42:38Z</time></trkpt><trkpt lat="43.654139664557746" lon="10.630921720554777"><ele>14.0</ele><time>2026-04-07T10:42:39Z</time></trkpt><trkpt lat="43.65411116381533" lon="10.631026388599201"><ele>14.000000000000002</ele><time>2026-04-07T10:42:40Z</time></trkpt><trkpt lat="43.65404120500239" lon="10.631118149189431"><ele>14.0</ele><time>2026-04-07T10:42:41Z</time></trkpt><trkpt lat="43.65402906689975" lon="10.631230860563026"><ele>14.0</ele><time>2026-04-07T10:42:42Z</time></trkpt><trkpt lat="43.65404599572658" lon="10.63133431522784"><ele>13.999999999999998</ele><time>2026-04-07T10:42:43Z</time></trkpt><trkpt lat="43.654081594123745" lon="10.631443735587984"><ele>13.999999999999998</ele><time>2026-04-07T10:42:44Z</time></trkpt><trkpt lat="43.654144932547666" lon="10.631541128399498"><ele>14.0</ele><time>2026-04-07T10:42:45Z</time></trkpt><trkpt lat="43.65417915899647" lon="10.6316839127879"><ele>14.0</ele><time>2026-04-07T10:42:46Z</time></trkpt><trkpt lat="43.65419543876566" lon="10.63181555794653"><ele>14.0</ele><time>2026-04-07T10:42:47Z</time></trkpt><trkpt lat="43.65418431715454" lon="10.631954648006008"><ele>14.0</ele><time>2026-04-07T10:42:48Z</time></trkpt><trkpt lat="43.654166970103546" lon="10.632107486787772"><ele>14.0</ele><time>2026-04-07T10:42:49Z</time></trkpt><trkpt lat="43.6541494814851" lon="10.632268726977737"><ele>14.0</ele><time>2026-04-07T10:42:50Z</time></trkpt><trkpt lat="43.65413614445859" lon="10.632444796822083"><ele>14.5</ele><time>2026-04-07T10:42:51Z</time></trkpt><trkpt lat="43.65412122629011" lon="10.632634554556319"><ele>15.0</ele><time>2026-04-07T10:42:52Z</time></trkpt><trkpt lat="43.65410062968404" lon="10.63280327412686"><ele>15.5</ele><time>2026-04-07T10:42:53Z</time></trkpt><trkpt lat="43.6540858141399" lon="10.632968836193328"><ele>16.0</ele><time>2026-04-07T10:42:54Z</time></trkpt><trkpt lat="43.65407148728288" lon="10.633138202985597"><ele>16.0</ele><time>2026-04-07T10:42:55Z</time></trkpt><trkpt lat="43.654056671017756" lon="10.633306354635288"><ele>16.0</ele><time>2026-04-07T10:42:56Z</time></trkpt><trkpt lat="43.65403898902397" lon="10.633484376889383"><ele>16.0</ele><time>2026-04-07T10:42:57Z</time></trkpt><trkpt lat="43.65402284873351" lon="10.633646499004335"><ele>16.0</ele><time>2026-04-07T10:42:58Z</time></trkpt><trkpt lat="43.654010379818935" lon="10.63379639300569"><ele>16.0</ele><time>2026-04-07T10:42:59Z</time></trkpt><trkpt lat="43.653999370023804" lon="10.63393611856531"><ele>16.0</ele><time>2026-04-07T10:43:00Z</time></trkpt><trkpt lat="43.65398635826036" lon="10.634076286764909"><ele>16.0</ele><time>2026-04-07T10:43:01Z</time></trkpt><trkpt lat="43.65397567805527" lon="10.634219921050937"><ele>16.0</ele><time>2026-04-07T10:43:02Z</time></trkpt><trkpt lat="43.65396425266906" lon="10.63436196607422"><ele>16.0</ele><time>2026-04-07T10:43:03Z</time></trkpt><trkpt lat="43.65395160278821" lon="10.634503385241398"><ele>15.666666666666666</ele><time>2026-04-07T10:43:04Z</time></trkpt><trkpt lat="43.65394046092254" lon="10.634644839491692"><ele>15.333333333333332</ele><time>2026-04-07T10:43:05Z</time></trkpt><trkpt lat="43.65392146342474" lon="10.634767157518674"><ele>15.0</ele><time>2026-04-07T10:43:06Z</time></trkpt><trkpt lat="43.65388721214495" lon="10.634872377505902"><ele>14.666666666666668</ele><time>2026-04-07T10:43:07Z</time></trkpt><trkpt lat="43.65384098983909" lon="10.634965345085694"><ele>14.333333333333334</ele><time>2026-04-07T10:43:08Z</time></trkpt><trkpt lat="43.653800605801486" lon="10.635066587882175"><ele>14.0</ele><time>2026-04-07T10:43:09Z</time></trkpt><trkpt lat="43.65374012442295" lon="10.635147108880876"><ele>14.000000000000002</ele><time>2026-04-07T10:43:10Z</time></trkpt><trkpt lat="43.65371824049234" lon="10.635254154681375"><ele>14.0</ele><time>2026-04-07T10:43:11Z</time></trkpt><trkpt lat="43.653717468406356" lon="10.635365464928583"><ele>14.0</ele><time>2026-04-07T10:43:12Z</time></trkpt><trkpt lat="43.653733790967195" lon="10.635473098328479"><ele>14.0</ele><time>2026-04-07T10:43:13Z</time></trkpt><trkpt lat="43.65376674452307" lon="10.635582662068847"><ele>14.000000000000002</ele><time>2026-04-07T10:43:14Z</time></trkpt><trkpt lat="43.653799603249084" lon="10.635698161829065"><ele>14.0</ele><time>2026-04-07T10:43:15Z</time></trkpt><trkpt lat="43.65381646589125" lon="10.635830304727406"><ele>14.2</ele><time>2026-04-07T10:43:16Z</time></trkpt><trkpt lat="43.653818335274565" lon="10.635966263639459"><ele>14.399999999999999</ele><time>2026-04-07T10:43:16.999Z</time></trkpt><trkpt lat="43.65380648792985" lon="10.636108211488605"><ele>14.6</ele><time>2026-04-07T10:43:17.999Z</time></trkpt><trkpt lat="43.653808210185325" lon="10.636253830126906"><ele>14.8</ele><time>2026-04-07T10:43:18.999Z</time></trkpt><trkpt lat="43.65377979679476" lon="10.63639802958291"><ele>15.0</ele><time>2026-04-07T10:43:19.999Z</time></trkpt><trkpt lat="43.65377013496286" lon="10.636558209540132"><ele>15.25</ele><time>2026-04-07T10:43:20.999Z</time></trkpt><trkpt lat="43.65375556766256" lon="10.63672357103758"><ele>15.5</ele><time>2026-04-07T10:43:21.999Z</time></trkpt><trkpt lat="43.653742660954535" lon="10.636884077649611"><ele>15.75</ele><time>2026-04-07T10:43:22.999Z</time></trkpt><trkpt lat="43.65372837187236" lon="10.637048019536516"><ele>16.0</ele><time>2026-04-07T10:43:23.999Z</time></trkpt><trkpt lat="43.653714031126945" lon="10.637210138441903"><ele>16.0</ele><time>2026-04-07T10:43:24.999Z</time></trkpt><trkpt lat="43.65369788627722" lon="10.637382449254844"><ele>16.0</ele><time>2026-04-07T10:43:25.999Z</time></trkpt><trkpt lat="43.65368317504565" lon="10.637556176444647"><ele>16.0</ele><time>2026-04-07T10:43:26.999Z</time></trkpt><trkpt lat="43.65367042130218" lon="10.63773952579144"><ele>16.0</ele><time>2026-04-07T10:43:27.999Z</time></trkpt><trkpt lat="43.65366297271926" lon="10.637928924271858"><ele>15.75</ele><time>2026-04-07T10:43:28.999Z</time></trkpt><trkpt lat="43.65366039268414" lon="10.638111588376898"><ele>15.5</ele><time>2026-04-07T10:43:29.999Z</time></trkpt><trkpt lat="43.65366204409396" lon="10.638292397884898"><ele>15.25</ele><time>2026-04-07T10:43:30.999Z</time></trkpt><trkpt lat="43.653665513010495" lon="10.638478612681087"><ele>15.0</ele><time>2026-04-07T10:43:31.999Z</time></trkpt><trkpt lat="43.65367411341091" lon="10.638663894000068"><ele>14.75</ele><time>2026-04-07T10:43:32.999Z</time></trkpt><trkpt lat="43.65368777962061" lon="10.638851602081553"><ele>14.5</ele><time>2026-04-07T10:43:33.999Z</time></trkpt><trkpt lat="43.65370288721147" lon="10.639041073785096"><ele>14.25</ele><time>2026-04-07T10:43:34.999Z</time></trkpt><trkpt lat="43.65371874489985" lon="10.639230861288993"><ele>14.0</ele><time>2026-04-07T10:43:35.999Z</time></trkpt><trkpt lat="43.653740265544926" lon="10.639427485443079"><ele>14.75</ele><time>2026-04-07T10:43:36.999Z</time></trkpt><trkpt lat="43.653761077773865" lon="10.639628306029696"><ele>15.5</ele><time>2026-04-07T10:43:37.999Z</time></trkpt><trkpt lat="43.65378334531411" lon="10.639831985652457"><ele>16.25</ele><time>2026-04-07T10:43:38.999Z</time></trkpt><trkpt lat="43.65380607755771" lon="10.640038936309333"><ele>17.0</ele><time>2026-04-07T10:43:39.999Z</time></trkpt><trkpt lat="43.65382967971574" lon="10.640260548776709"><ele>16.0</ele><time>2026-04-07T10:43:40.999Z</time></trkpt><trkpt lat="43.6538552480564" lon="10.640484854048548"><ele>15.0</ele><time>2026-04-07T10:43:41.999Z</time></trkpt><trkpt lat="43.65388142971321" lon="10.640720537026976"><ele>14.0</ele><time>2026-04-07T10:43:42.999Z</time></trkpt><trkpt lat="43.65390834546681" lon="10.640963935688951"><ele>14.666666666666668</ele><time>2026-04-07T10:43:43.999Z</time></trkpt><trkpt lat="43.65393437705897" lon="10.641205952219101"><ele>15.333333333333332</ele><time>2026-04-07T10:43:44.999Z</time></trkpt><trkpt lat="43.65395570704561" lon="10.641430676029229"><ele>16.0</ele><time>2026-04-07T10:43:45.999Z</time></trkpt><trkpt lat="43.65397706707485" lon="10.641638364989253"><ele>16.0</ele><time>2026-04-07T10:43:46.999Z</time></trkpt><trkpt lat="43.653998794743195" lon="10.64184762682617"><ele>16.0</ele><time>2026-04-07T10:43:47.999Z</time></trkpt><trkpt lat="43.65402227491611" lon="10.642051608797122"><ele>16.0</ele><time>2026-04-07T10:43:48.999Z</time></trkpt><trkpt lat="43.6540454595633" lon="10.642261864181714"><ele>16.0</ele><time>2026-04-07T10:43:49.999Z</time></trkpt><trkpt lat="43.65406741918282" lon="10.642461697129528"><ele>16.0</ele><time>2026-04-07T10:43:50.999Z</time></trkpt><trkpt lat="43.654087461889695" lon="10.64266194385583"><ele>16.0</ele><time>2026-04-07T10:43:51.999Z</time></trkpt><trkpt lat="43.65411147223763" lon="10.642866372331989"><ele>16.0</ele><time>2026-04-07T10:43:52.999Z</time></trkpt><trkpt lat="43.65413439093494" lon="10.643085061382694"><ele>16.0</ele><time>2026-04-07T10:43:53.999Z</time></trkpt><trkpt lat="43.65415330462659" lon="10.643281852944975"><ele>16.0</ele><time>2026-04-07T10:43:54.999Z</time></trkpt><trkpt lat="43.65417406537588" lon="10.643481248434645"><ele>16.0</ele><time>2026-04-07T10:43:55.999Z</time></trkpt><trkpt lat="43.65419452175967" lon="10.643669133863169"><ele>16.0</ele><time>2026-04-07T10:43:56.999Z</time></trkpt><trkpt lat="43.65421548594445" lon="10.643854613879467"><ele>15.600000000000001</ele><time>2026-04-07T10:43:57.999Z</time></trkpt><trkpt lat="43.65423500593843" lon="10.64402422923542"><ele>15.200000000000001</ele><time>2026-04-07T10:43:58.999Z</time></trkpt><trkpt lat="43.65424674919513" lon="10.644184707198459"><ele>14.799999999999999</ele><time>2026-04-07T10:43:59.999Z</time></trkpt><trkpt lat="43.65424363843633" lon="10.644324533236635"><ele>14.399999999999999</ele><time>2026-04-07T10:44:00.999Z</time></trkpt><trkpt lat="43.65421337466271" lon="10.644437495005302"><ele>14.0</ele><time>2026-04-07T10:44:01.999Z</time></trkpt><trkpt lat="43.654167898245234" lon="10.644520444917934"><ele>14.0</ele><time>2026-04-07T10:44:02.999Z</time></trkpt><trkpt lat="43.6541397161112" lon="10.6446009894639"><ele>13.999999999999998</ele><time>2026-04-07T10:44:03.999Z</time></trkpt><trkpt lat="43.654071476714854" lon="10.644646095746106"><ele>13.999999999999998</ele><time>2026-04-07T10:44:04.999Z</time></trkpt><trkpt lat="43.6539729521506" lon="10.64474070785077"><ele>14.0</ele><time>2026-04-07T10:44:06.999Z</time></trkpt><trkpt lat="43.65386526604304" lon="10.644682004903467"><ele>14.0</ele><time>2026-04-07T10:44:07.999Z</time></trkpt><trkpt lat="43.653787152137426" lon="10.644635103378686"><ele>14.0</ele><time>2026-04-07T10:44:08.999Z</time></trkpt><trkpt lat="43.65371013648827" lon="10.644587844222952"><ele>13.999999999999998</ele><time>2026-04-07T10:44:09.999Z</time></trkpt><trkpt lat="43.653628000998914" lon="10.644531005080852"><ele>13.999999999999998</ele><time>2026-04-07T10:44:10.999Z</time></trkpt><trkpt lat="43.653542370344546" lon="10.644470108042144"><ele>14.0</ele><time>2026-04-07T10:44:11.999Z</time></trkpt><trkpt lat="43.653449012423565" lon="10.644407374503029"><ele>14.0</ele><time>2026-04-07T10:44:12.999Z</time></trkpt><trkpt lat="43.6533502626464" lon="10.644340562306054"><ele>14.0</ele><time>2026-04-07T10:44:13.999Z</time></trkpt><trkpt lat="43.65324615461959" lon="10.644269489824369"><ele>13.999999999999998</ele><time>2026-04-07T10:44:14.999Z</time></trkpt><trkpt lat="43.65315498577946" lon="10.644211471064628"><ele>13.999999999999998</ele><time>2026-04-07T10:44:15.999Z</time></trkpt><trkpt lat="43.653067878313536" lon="10.644147219433707"><ele>14.0</ele><time>2026-04-07T10:44:16.999Z</time></trkpt><trkpt lat="43.652987772718745" lon="10.644092878865932"><ele>14.0</ele><time>2026-04-07T10:44:17.999Z</time></trkpt><trkpt lat="43.65291978188088" lon="10.64403915408456"><ele>14.0</ele><time>2026-04-07T10:44:18.999Z</time></trkpt><trkpt lat="43.65286674517973" lon="10.643984035321974"><ele>14.0</ele><time>2026-04-07T10:44:19.999Z</time></trkpt><trkpt lat="43.65282342006256" lon="10.643919331268748"><ele>14.0</ele><time>2026-04-07T10:44:20.999Z</time></trkpt><trkpt lat="43.652791700818504" lon="10.643838074995344"><ele>14.0</ele><time>2026-04-07T10:44:22Z</time></trkpt><trkpt lat="43.65277189292472" lon="10.643744002031566"><ele>14.0</ele><time>2026-04-07T10:44:23Z</time></trkpt><trkpt lat="43.652773442091984" lon="10.643643910747864"><ele>14.0</ele><time>2026-04-07T10:44:24Z</time></trkpt><trkpt lat="43.652793746656585" lon="10.643545614939162"><ele>14.0</ele><time>2026-04-07T10:44:25Z</time></trkpt><trkpt lat="43.652829152892174" lon="10.643450143587309"><ele>14.0</ele><time>2026-04-07T10:44:26Z</time></trkpt><trkpt lat="43.65288045238377" lon="10.643356948404406"><ele>13.999999999999998</ele><time>2026-04-07T10:44:27Z</time></trkpt><trkpt lat="43.652940064483985" lon="10.643266338260153"><ele>13.999999999999998</ele><time>2026-04-07T10:44:28Z</time></trkpt><trkpt lat="43.65300985322489" lon="10.643167610128573"><ele>14.0</ele><time>2026-04-07T10:44:29Z</time></trkpt><trkpt lat="43.65308289907256" lon="10.64306222633632"><ele>14.0</ele><time>2026-04-07T10:44:30Z</time></trkpt><trkpt lat="43.653158203345924" lon="10.642951958413358"><ele>14.0</ele><time>2026-04-07T10:44:31Z</time></trkpt><trkpt lat="43.65323610835192" lon="10.64283154550843"><ele>14.0</ele><time>2026-04-07T10:44:32Z</time></trkpt><trkpt lat="43.65332201699664" lon="10.642706476434297"><ele>14.0</ele><time>2026-04-07T10:44:33Z</time></trkpt><trkpt lat="43.65340732762153" lon="10.64259339401081"><ele>14.0</ele><time>2026-04-07T10:44:34Z</time></trkpt><trkpt lat="43.653497071186386" lon="10.642490443285123"><ele>14.25</ele><time>2026-04-07T10:44:35Z</time></trkpt><trkpt lat="43.6535977105152" lon="10.642392962206097"><ele>14.5</ele><time>2026-04-07T10:44:36Z</time></trkpt><trkpt lat="43.653706489214706" lon="10.642306360419306"><ele>14.75</ele><time>2026-04-07T10:44:37Z</time></trkpt><trkpt lat="43.653822656071235" lon="10.642230974903034"><ele>15.0</ele><time>2026-04-07T10:44:38Z</time></trkpt><trkpt lat="43.65394111406104" lon="10.64216353572426"><ele>15.25</ele><time>2026-04-07T10:44:39Z</time></trkpt><trkpt lat="43.65406181546819" lon="10.642096919945837"><ele>15.5</ele><time>2026-04-07T10:44:40Z</time></trkpt><trkpt lat="43.654185262456835" lon="10.642025722519138"><ele>15.75</ele><time>2026-04-07T10:44:41Z</time></trkpt><trkpt lat="43.65431243786077" lon="10.641949589542381"><ele>16.0</ele><time>2026-04-07T10:44:42Z</time></trkpt><trkpt lat="43.654446033888" lon="10.641877516046629"><ele>15.75</ele><time>2026-04-07T10:44:43Z</time></trkpt><trkpt lat="43.6545665293243" lon="10.641812100876379"><ele>15.5</ele><time>2026-04-07T10:44:44Z</time></trkpt><trkpt lat="43.65467237424853" lon="10.641750169446388"><ele>15.25</ele><time>2026-04-07T10:44:45Z</time></trkpt><trkpt lat="43.65479438388885" lon="10.641684928545882"><ele>15.0</ele><time>2026-04-07T10:44:46Z</time></trkpt><trkpt lat="43.65491788963568" lon="10.64162759749664"><ele>15.0</ele><time>2026-04-07T10:44:47Z</time></trkpt><trkpt lat="43.65504599615774" lon="10.641580057770526"><ele>15.0</ele><time>2026-04-07T10:44:48Z</time></trkpt><trkpt lat="43.65517646539566" lon="10.641539845581784"><ele>15.0</ele><time>2026-04-07T10:44:49Z</time></trkpt><trkpt lat="43.65530684872162" lon="10.64150455334609"><ele>15.0</ele><time>2026-04-07T10:44:50Z</time></trkpt><trkpt lat="43.65543529261409" lon="10.641469248660453"><ele>15.0</ele><time>2026-04-07T10:44:51Z</time></trkpt><trkpt lat="43.65556545809007" lon="10.641435106134022"><ele>15.0</ele><time>2026-04-07T10:44:52Z</time></trkpt><trkpt lat="43.65569617624669" lon="10.641397877311192"><ele>15.0</ele><time>2026-04-07T10:44:53Z</time></trkpt><trkpt lat="43.65582659006825" lon="10.64136199849941"><ele>15.0</ele><time>2026-04-07T10:44:54Z</time></trkpt><trkpt lat="43.6559575312539" lon="10.641326220654928"><ele>15.0</ele><time>2026-04-07T10:44:55Z</time></trkpt><trkpt lat="43.656090008948894" lon="10.641293166029447"><ele>15.0</ele><time>2026-04-07T10:44:56Z</time></trkpt><trkpt lat="43.656226439703275" lon="10.641259459080834"><ele>15.0</ele><time>2026-04-07T10:44:57Z</time></trkpt><trkpt lat="43.656362837043346" lon="10.641225426326155"><ele>15.0</ele><time>2026-04-07T10:44:58Z</time></trkpt><trkpt lat="43.65650221734755" lon="10.641187296138144"><ele>14.75</ele><time>2026-04-07T10:44:59Z</time></trkpt><trkpt lat="43.65664089313078" lon="10.64114990510167"><ele>14.5</ele><time>2026-04-07T10:45:00Z</time></trkpt><trkpt lat="43.65678444344668" lon="10.641108915118235"><ele>14.25</ele><time>2026-04-07T10:45:01Z</time></trkpt><trkpt lat="43.65692710104724" lon="10.641071065702231"><ele>14.0</ele><time>2026-04-07T10:45:02Z</time></trkpt><trkpt lat="43.657071135039246" lon="10.641033368363962"><ele>14.0</ele><time>2026-04-07T10:45:03Z</time></trkpt><trkpt lat="43.65721486861297" lon="10.640997768499055"><ele>14.0</ele><time>2026-04-07T10:45:04Z</time></trkpt><trkpt lat="43.65736373210864" lon="10.640959178119033"><ele>14.0</ele><time>2026-04-07T10:45:05Z</time></trkpt><trkpt lat="43.65750943533117" lon="10.640921521516882"><ele>14.0</ele><time>2026-04-07T10:45:06Z</time></trkpt><trkpt lat="43.657667075762156" lon="10.64089040223239"><ele>14.666666666666668</ele><time>2026-04-07T10:45:07Z</time></trkpt><trkpt lat="43.6578246041714" lon="10.64087617190417"><ele>15.333333333333332</ele><time>2026-04-07T10:45:08Z</time></trkpt><trkpt lat="43.657972949596164" lon="10.640878076290358"><ele>16.0</ele><time>2026-04-07T10:45:09Z</time></trkpt><trkpt lat="43.65812682831158" lon="10.640884537981561"><ele>16.0</ele><time>2026-04-07T10:45:10Z</time></trkpt><trkpt lat="43.65827434680809" lon="10.640899958375332"><ele>16.0</ele><time>2026-04-07T10:45:11Z</time></trkpt><trkpt lat="43.65842724412905" lon="10.640919351222252"><ele>16.0</ele><time>2026-04-07T10:45:12Z</time></trkpt><trkpt lat="43.65857734901187" lon="10.640941400069181"><ele>15.5</ele><time>2026-04-07T10:45:13Z</time></trkpt><trkpt lat="43.65872700407056" lon="10.640964102047365"><ele>15.0</ele><time>2026-04-07T10:45:14Z</time></trkpt><trkpt lat="43.658865489254374" lon="10.640989390172306"><ele>14.5</ele><time>2026-04-07T10:45:15Z</time></trkpt><trkpt lat="43.65900347750656" lon="10.641014555281517"><ele>14.0</ele><time>2026-04-07T10:45:16Z</time></trkpt><trkpt lat="43.65914769977651" lon="10.641040499544628"><ele>14.0</ele><time>2026-04-07T10:45:17Z</time></trkpt><trkpt lat="43.65929196555781" lon="10.641068005430913"><ele>14.0</ele><time>2026-04-07T10:45:18Z</time></trkpt><trkpt lat="43.659440526830544" lon="10.641094164170994"><ele>14.0</ele><time>2026-04-07T10:45:19Z</time></trkpt><trkpt lat="43.65957683663152" lon="10.64111788283595"><ele>14.0</ele><time>2026-04-07T10:45:20Z</time></trkpt><trkpt lat="43.65970515946283" lon="10.641137893403936"><ele>13.75</ele><time>2026-04-07T10:45:21Z</time></trkpt><trkpt lat="43.659823642609375" lon="10.64115838150659"><ele>13.5</ele><time>2026-04-07T10:45:22Z</time></trkpt><trkpt lat="43.65995104535961" lon="10.641186434121646"><ele>13.25</ele><time>2026-04-07T10:45:23Z</time></trkpt><trkpt lat="43.6600889833382" lon="10.641216779649849"><ele>13.0</ele><time>2026-04-07T10:45:24Z</time></trkpt><trkpt lat="43.66023984619059" lon="10.64124033589073"><ele>13.75</ele><time>2026-04-07T10:45:25Z</time></trkpt><trkpt lat="43.660381388946874" lon="10.641267943446653"><ele>14.5</ele><time>2026-04-07T10:45:25.999Z</time></trkpt><trkpt lat="43.6605232552471" lon="10.641294057615513"><ele>15.25</ele><time>2026-04-07T10:45:26.999Z</time></trkpt><trkpt lat="43.66065627602333" lon="10.641314511916585"><ele>16.0</ele><time>2026-04-07T10:45:27.999Z</time></trkpt><trkpt lat="43.660795471853056" lon="10.641343650410821"><ele>16.0</ele><time>2026-04-07T10:45:28.999Z</time></trkpt><trkpt lat="43.660942250691775" lon="10.6413844521164"><ele>16.0</ele><time>2026-04-07T10:45:29.999Z</time></trkpt><trkpt lat="43.66106507585177" lon="10.641416104950139"><ele>16.0</ele><time>2026-04-07T10:45:30.999Z</time></trkpt><trkpt lat="43.66118049776576" lon="10.641443548945352"><ele>16.0</ele><time>2026-04-07T10:45:31.999Z</time></trkpt><trkpt lat="43.66129425489977" lon="10.641465996951814"><ele>16.25</ele><time>2026-04-07T10:45:32.999Z</time></trkpt><trkpt lat="43.66141140647218" lon="10.641494338600458"><ele>16.5</ele><time>2026-04-07T10:45:33.999Z</time></trkpt><trkpt lat="43.66152523077497" lon="10.641517950775953"><ele>16.75</ele><time>2026-04-07T10:45:34.999Z</time></trkpt><trkpt lat="43.661646020829835" lon="10.64154574052407"><ele>17.0</ele><time>2026-04-07T10:45:35.999Z</time></trkpt><trkpt lat="43.66176148943367" lon="10.641572033234862"><ele>17.0</ele><time>2026-04-07T10:45:36.999Z</time></trkpt><trkpt lat="43.66187978229789" lon="10.641595066307143"><ele>17.0</ele><time>2026-04-07T10:45:37.999Z</time></trkpt><trkpt lat="43.661993926568485" lon="10.641617154208808"><ele>17.0</ele><time>2026-04-07T10:45:38.999Z</time></trkpt><trkpt lat="43.66211095429566" lon="10.641641314482502"><ele>17.0</ele><time>2026-04-07T10:45:39.999Z</time></trkpt><trkpt lat="43.66223147312892" lon="10.641663338378429"><ele>17.0</ele><time>2026-04-07T10:45:40.999Z</time></trkpt><trkpt lat="43.66234617183855" lon="10.641679671326457"><ele>17.0</ele><time>2026-04-07T10:45:41.999Z</time></trkpt><trkpt lat="43.66246455026128" lon="10.641697912511226"><ele>17.0</ele><time>2026-04-07T10:45:42.999Z</time></trkpt><trkpt lat="43.66258044944982" lon="10.641711901708737"><ele>17.0</ele><time>2026-04-07T10:45:43.999Z</time></trkpt><trkpt lat="43.662696273329594" lon="10.64172621295298"><ele>17.0</ele><time>2026-04-07T10:45:44.999Z</time></trkpt><trkpt lat="43.66280944731366" lon="10.641737330667123"><ele>17.0</ele><time>2026-04-07T10:45:45.999Z</time></trkpt><trkpt lat="43.662916571646626" lon="10.641739224787885"><ele>17.0</ele><time>2026-04-07T10:45:46.999Z</time></trkpt><trkpt lat="43.66301416060527" lon="10.641747626204282"><ele>17.0</ele><time>2026-04-07T10:45:47.999Z</time></trkpt><trkpt lat="43.66311646982062" lon="10.641752751569026"><ele>17.0</ele><time>2026-04-07T10:45:48.999Z</time></trkpt><trkpt lat="43.6632000570863" lon="10.641769387933628"><ele>17.0</ele><time>2026-04-07T10:45:49.999Z</time></trkpt><trkpt lat="43.66328296306701" lon="10.64178074962804"><ele>17.0</ele><time>2026-04-07T10:45:50.999Z</time></trkpt><trkpt lat="43.663354037963224" lon="10.641797565044484"><ele>17.0</ele><time>2026-04-07T10:45:51.999Z</time></trkpt><trkpt lat="43.66345916834291" lon="10.641826384728613"><ele>17.0</ele><time>2026-04-07T10:45:53.999Z</time></trkpt><trkpt lat="43.66353845487812" lon="10.641839463230037"><ele>17.0</ele><time>2026-04-07T10:45:55.999Z</time></trkpt><trkpt lat="43.66360962526157" lon="10.641833308872986"><ele>17.0</ele><time>2026-04-07T10:46:41Z</time></trkpt><trkpt lat="43.66374557158104" lon="10.641847989737071"><ele>17.0</ele><time>2026-04-07T10:46:43Z</time></trkpt><trkpt lat="43.66383157627675" lon="10.641859680053148"><ele>17.0</ele><time>2026-04-07T10:46:44Z</time></trkpt><trkpt lat="43.66393054783311" lon="10.641874909357528"><ele>17.0</ele><time>2026-04-07T10:46:45Z</time></trkpt><trkpt lat="43.664029432399964" lon="10.64188831898728"><ele>17.0</ele><time>2026-04-07T10:46:46Z</time></trkpt><trkpt lat="43.66412840319237" lon="10.64190757155346"><ele>17.0</ele><time>2026-04-07T10:46:47Z</time></trkpt><trkpt lat="43.6642265642317" lon="10.64193390208748"><ele>17.0</ele><time>2026-04-07T10:46:48Z</time></trkpt><trkpt lat="43.66431571158005" lon="10.641951068873748"><ele>17.0</ele><time>2026-04-07T10:46:49Z</time></trkpt><trkpt lat="43.66441645233871" lon="10.641974110643869"><ele>17.0</ele><time>2026-04-07T10:46:50Z</time></trkpt><trkpt lat="43.66451525580813" lon="10.64198596774696"><ele>17.0</ele><time>2026-04-07T10:46:51Z</time></trkpt><trkpt lat="43.664602843532016" lon="10.64200743028929"><ele>17.0</ele><time>2026-04-07T10:46:52Z</time></trkpt><trkpt lat="43.664704814537195" lon="10.642036038361535"><ele>17.0</ele><time>2026-04-07T10:46:53Z</time></trkpt><trkpt lat="43.66479734460252" lon="10.642061534644743"><ele>17.0</ele><time>2026-04-07T10:46:54Z</time></trkpt><trkpt lat="43.66489087375817" lon="10.642081790133473"><ele>17.0</ele><time>2026-04-07T10:46:55Z</time></trkpt><trkpt lat="43.66498128386223" lon="10.642095275795649"><ele>17.0</ele><time>2026-04-07T10:46:56Z</time></trkpt><trkpt lat="43.66506717763059" lon="10.642104308087314"><ele>17.0</ele><time>2026-04-07T10:46:57Z</time></trkpt><trkpt lat="43.66514787078831" lon="10.64211798098769"><ele>17.0</ele><time>2026-04-07T10:46:58Z</time></trkpt><trkpt lat="43.66523259374227" lon="10.64213368070069"><ele>17.166666666666668</ele><time>2026-04-07T10:46:59Z</time></trkpt><trkpt lat="43.66531837518597" lon="10.642151335077529"><ele>17.333333333333336</ele><time>2026-04-07T10:47:00Z</time></trkpt><trkpt lat="43.665398010538986" lon="10.642162473326188"><ele>17.5</ele><time>2026-04-07T10:47:01Z</time></trkpt><trkpt lat="43.66547122595234" lon="10.64217269131367"><ele>17.666666666666668</ele><time>2026-04-07T10:47:02Z</time></trkpt><trkpt lat="43.665546078182224" lon="10.64218615046662"><ele>17.833333333333332</ele><time>2026-04-07T10:47:03Z</time></trkpt><trkpt lat="43.66562168490765" lon="10.642212641923768"><ele>18.0</ele><time>2026-04-07T10:47:04Z</time></trkpt><trkpt lat="43.66570191408515" lon="10.642232002256982"><ele>18.0</ele><time>2026-04-07T10:47:05Z</time></trkpt><trkpt lat="43.665792323471514" lon="10.64224070431484"><ele>18.0</ele><time>2026-04-07T10:47:06Z</time></trkpt><trkpt lat="43.6658893630706" lon="10.642245190114938"><ele>18.0</ele><time>2026-04-07T10:47:07Z</time></trkpt><trkpt lat="43.66599103759253" lon="10.642253121713697"><ele>18.0</ele><time>2026-04-07T10:47:08Z</time></trkpt><trkpt lat="43.666098431604254" lon="10.642262148701704"><ele>18.0</ele><time>2026-04-07T10:47:09Z</time></trkpt><trkpt lat="43.666198193076305" lon="10.642267308960022"><ele>17.833333333333332</ele><time>2026-04-07T10:47:10Z</time></trkpt><trkpt lat="43.6662925035767" lon="10.642265006707252"><ele>17.666666666666668</ele><time>2026-04-07T10:47:11Z</time></trkpt><trkpt lat="43.666370958269006" lon="10.642275963608201"><ele>17.5</ele><time>2026-04-07T10:47:12Z</time></trkpt><trkpt lat="43.66644491384128" lon="10.642284494377202"><ele>17.333333333333336</ele><time>2026-04-07T10:47:13Z</time></trkpt><trkpt lat="43.66650921049712" lon="10.642291887781045"><ele>17.166666666666668</ele><time>2026-04-07T10:47:14Z</time></trkpt><trkpt lat="43.66660566873509" lon="10.642292877894837"><ele>17.0</ele><time>2026-04-07T10:47:16Z</time></trkpt><trkpt lat="43.6666838924303" lon="10.642293106875005"><ele>17.0</ele><time>2026-04-07T10:47:18Z</time></trkpt><trkpt lat="43.66678864124147" lon="10.642305720998568"><ele>17.0</ele><time>2026-04-07T10:47:20Z</time></trkpt><trkpt lat="43.66685350835881" lon="10.642313267610653"><ele>17.0</ele><time>2026-04-07T10:47:21Z</time></trkpt><trkpt lat="43.666926313152544" lon="10.642318245575016"><ele>17.0</ele><time>2026-04-07T10:47:22Z</time></trkpt><trkpt lat="43.66700264445432" lon="10.642325343095346"><ele>17.0</ele><time>2026-04-07T10:47:23Z</time></trkpt><trkpt lat="43.66706696737826" lon="10.642332874482342"><ele>17.0</ele><time>2026-04-07T10:47:24Z</time></trkpt><trkpt lat="43.66713931620445" lon="10.642339390324297"><ele>17.0</ele><time>2026-04-07T10:47:25Z</time></trkpt><trkpt lat="43.667218557423105" lon="10.642345758259736"><ele>17.0</ele><time>2026-04-07T10:47:26Z</time></trkpt><trkpt lat="43.667294471785645" lon="10.642354339377576"><ele>17.0</ele><time>2026-04-07T10:47:27Z</time></trkpt><trkpt lat="43.667358249436056" lon="10.642363618359438"><ele>17.0</ele><time>2026-04-07T10:47:28Z</time></trkpt><trkpt lat="43.66747579230833" lon="10.642383936358087"><ele>17.0</ele><time>2026-04-07T10:47:30Z</time></trkpt><trkpt lat="43.66753852024157" lon="10.642392153001648"><ele>17.0</ele><time>2026-04-07T10:47:31Z</time></trkpt><trkpt lat="43.66760694306927" lon="10.642397699964325"><ele>17.0</ele><time>2026-04-07T10:47:32Z</time></trkpt><trkpt lat="43.6676923155718" lon="10.642391772951944"><ele>17.0</ele><time>2026-04-07T10:47:33Z</time></trkpt><trkpt lat="43.667768819776605" lon="10.642415241628004"><ele>17.0</ele><time>2026-04-07T10:47:34Z</time></trkpt><trkpt lat="43.66785316453273" lon="10.642407535192142"><ele>17.0</ele><time>2026-04-07T10:47:35Z</time></trkpt><trkpt lat="43.6679385534294" lon="10.642421985976204"><ele>17.0</ele><time>2026-04-07T10:47:36Z</time></trkpt><trkpt lat="43.668022989966715" lon="10.642430768961997"><ele>17.0</ele><time>2026-04-07T10:47:37Z</time></trkpt><trkpt lat="43.668115224410975" lon="10.642449404566332"><ele>17.0</ele><time>2026-04-07T10:47:37.999Z</time></trkpt><trkpt lat="43.66820579261783" lon="10.642460721445033"><ele>17.0</ele><time>2026-04-07T10:47:38.999Z</time></trkpt><trkpt lat="43.66830387420674" lon="10.642477309433254"><ele>17.0</ele><time>2026-04-07T10:47:39.999Z</time></trkpt><trkpt lat="43.668417145627984" lon="10.64249070060544"><ele>17.0</ele><time>2026-04-07T10:47:40.999Z</time></trkpt><trkpt lat="43.66853429842875" lon="10.642505310140582"><ele>17.0</ele><time>2026-04-07T10:47:41.999Z</time></trkpt><trkpt lat="43.66864751980651" lon="10.642517112489124"><ele>17.0</ele><time>2026-04-07T10:47:42.999Z</time></trkpt><trkpt lat="43.668754487285" lon="10.642527152691452"><ele>17.0</ele><time>2026-04-07T10:47:43.999Z</time></trkpt><trkpt lat="43.66885703386571" lon="10.642545976987106"><ele>17.0</ele><time>2026-04-07T10:47:44.999Z</time></trkpt><trkpt lat="43.668958013750704" lon="10.642557766635216"><ele>17.0</ele><time>2026-04-07T10:47:45.999Z</time></trkpt><trkpt lat="43.669048583205566" lon="10.642569432345722"><ele>17.0</ele><time>2026-04-07T10:47:46.999Z</time></trkpt><trkpt lat="43.66914471289944" lon="10.642577536230473"><ele>17.0</ele><time>2026-04-07T10:47:47.999Z</time></trkpt><trkpt lat="43.66923988666952" lon="10.642586381797887"><ele>17.0</ele><time>2026-04-07T10:47:48.999Z</time></trkpt><trkpt lat="43.66933465307645" lon="10.642591842524139"><ele>17.0</ele><time>2026-04-07T10:47:49.999Z</time></trkpt><trkpt lat="43.66944153187798" lon="10.64260166354723"><ele>17.0</ele><time>2026-04-07T10:47:50.999Z</time></trkpt><trkpt lat="43.669545775227924" lon="10.64261168497978"><ele>17.0</ele><time>2026-04-07T10:47:51.999Z</time></trkpt><trkpt lat="43.66965107533652" lon="10.642622256429883"><ele>17.25</ele><time>2026-04-07T10:47:52.999Z</time></trkpt><trkpt lat="43.66976594442681" lon="10.642633830981334"><ele>17.5</ele><time>2026-04-07T10:47:53.999Z</time></trkpt><trkpt lat="43.66989045248995" lon="10.642628063940016"><ele>17.75</ele><time>2026-04-07T10:47:54.999Z</time></trkpt><trkpt lat="43.670011950226645" lon="10.642639995719188"><ele>18.0</ele><time>2026-04-07T10:47:55.999Z</time></trkpt><trkpt lat="43.67012073901069" lon="10.64265479298297"><ele>18.0</ele><time>2026-04-07T10:47:56.999Z</time></trkpt><trkpt lat="43.67022115023468" lon="10.642667791406222"><ele>18.0</ele><time>2026-04-07T10:47:57.999Z</time></trkpt><trkpt lat="43.67029843985441" lon="10.642690123760707"><ele>18.0</ele><time>2026-04-07T10:47:58.999Z</time></trkpt><trkpt lat="43.67038068213528" lon="10.642702099984705"><ele>18.0</ele><time>2026-04-07T10:47:59.999Z</time></trkpt><trkpt lat="43.6704632506899" lon="10.64271169334949"><ele>18.0</ele><time>2026-04-07T10:48:00.999Z</time></trkpt><trkpt lat="43.67054083218037" lon="10.642758597903274"><ele>18.0</ele><time>2026-04-07T10:48:01.999Z</time></trkpt><trkpt lat="43.67060397578408" lon="10.642799015223318"><ele>17.8</ele><time>2026-04-07T10:48:02.999Z</time></trkpt><trkpt lat="43.670711643265435" lon="10.642834201420817"><ele>17.6</ele><time>2026-04-07T10:48:04.999Z</time></trkpt><trkpt lat="43.67076683622658" lon="10.642747285837727"><ele>17.4</ele><time>2026-04-07T10:48:06.999Z</time></trkpt><trkpt lat="43.670788993873074" lon="10.642653872557748"><ele>17.2</ele><time>2026-04-07T10:48:08.999Z</time></trkpt><trkpt lat="43.67067889045822" lon="10.642566267471198"><ele>17.0</ele><time>2026-04-07T10:48:10.999Z</time></trkpt><trkpt lat="43.67062003885772" lon="10.642600831475448"><ele>17.0</ele><time>2026-04-07T10:48:11.999Z</time></trkpt><trkpt lat="43.67051850224297" lon="10.642633430044048"><ele>17.0</ele><time>2026-04-07T10:48:13.999Z</time></trkpt><trkpt lat="43.67040411175645" lon="10.642643887237064"><ele>17.0</ele><time>2026-04-07T10:48:15.999Z</time></trkpt><trkpt lat="43.67033687723634" lon="10.642642663067583"><ele>17.0</ele><time>2026-04-07T10:48:16.999Z</time></trkpt><trkpt lat="43.670260397194255" lon="10.642639427138283"><ele>17.0</ele><time>2026-04-07T10:48:17.999Z</time></trkpt><trkpt lat="43.67017987095721" lon="10.642634881668412"><ele>17.0</ele><time>2026-04-07T10:48:18.999Z</time></trkpt><trkpt lat="43.670096846739405" lon="10.642622149710292"><ele>17.166666666666668</ele><time>2026-04-07T10:48:19.999Z</time></trkpt><trkpt lat="43.67000777855575" lon="10.642611188369262"><ele>17.333333333333336</ele><time>2026-04-07T10:48:20.999Z</time></trkpt><trkpt lat="43.66991444032478" lon="10.642602670502699"><ele>17.5</ele><time>2026-04-07T10:48:21.999Z</time></trkpt><trkpt lat="43.669831983284524" lon="10.64259608365855"><ele>17.666666666666668</ele><time>2026-04-07T10:48:22.999Z</time></trkpt><trkpt lat="43.66975142068372" lon="10.642587823794297"><ele>17.833333333333332</ele><time>2026-04-07T10:48:23.999Z</time></trkpt><trkpt lat="43.66966896015987" lon="10.6425774796527"><ele>18.0</ele><time>2026-04-07T10:48:24.999Z</time></trkpt><trkpt lat="43.66957692972234" lon="10.6425647778396"><ele>18.0</ele><time>2026-04-07T10:48:25.999Z</time></trkpt><trkpt lat="43.66947966809241" lon="10.642548904613937"><ele>18.0</ele><time>2026-04-07T10:48:26.999Z</time></trkpt><trkpt lat="43.66937723041055" lon="10.642537116587699"><ele>18.0</ele><time>2026-04-07T10:48:27.999Z</time></trkpt><trkpt lat="43.66927692005393" lon="10.642527910176879"><ele>18.0</ele><time>2026-04-07T10:48:28.999Z</time></trkpt><trkpt lat="43.66918746417954" lon="10.64251768137345"><ele>18.0</ele><time>2026-04-07T10:48:29.999Z</time></trkpt><trkpt lat="43.66909382627387" lon="10.6425034756754"><ele>17.8</ele><time>2026-04-07T10:48:30.999Z</time></trkpt><trkpt lat="43.66900216703746" lon="10.642492421538"><ele>17.6</ele><time>2026-04-07T10:48:31.999Z</time></trkpt><trkpt lat="43.668901812668715" lon="10.642483226092457"><ele>17.4</ele><time>2026-04-07T10:48:32.999Z</time></trkpt><trkpt lat="43.66880471876009" lon="10.642471551953358"><ele>17.2</ele><time>2026-04-07T10:48:34Z</time></trkpt><trkpt lat="43.66870428789639" lon="10.642464738248092"><ele>17.0</ele><time>2026-04-07T10:48:35Z</time></trkpt><trkpt lat="43.668601318094225" lon="10.642457127108289"><ele>16.833333333333336</ele><time>2026-04-07T10:48:36Z</time></trkpt><trkpt lat="43.668511999871335" lon="10.64244133471677"><ele>16.666666666666668</ele><time>2026-04-07T10:48:37Z</time></trkpt><trkpt lat="43.668417202140674" lon="10.642428942702574"><ele>16.5</ele><time>2026-04-07T10:48:38Z</time></trkpt><trkpt lat="43.66832346864049" lon="10.64242180944053"><ele>16.333333333333332</ele><time>2026-04-07T10:48:39Z</time></trkpt><trkpt lat="43.66823311621814" lon="10.64241254793605"><ele>16.166666666666664</ele><time>2026-04-07T10:48:40Z</time></trkpt><trkpt lat="43.668157023892775" lon="10.64239761717418"><ele>16.0</ele><time>2026-04-07T10:48:41Z</time></trkpt><trkpt lat="43.668077695879376" lon="10.642388415668158"><ele>15.999999999999998</ele><time>2026-04-07T10:48:42Z</time></trkpt><trkpt lat="43.66799960585194" lon="10.642379040018692"><ele>16.0</ele><time>2026-04-07T10:48:43Z</time></trkpt><trkpt lat="43.66791984429996" lon="10.64236677746586"><ele>16.0</ele><time>2026-04-07T10:48:44Z</time></trkpt><trkpt lat="43.66783698828782" lon="10.64235838962576"><ele>16.0</ele><time>2026-04-07T10:48:45Z</time></trkpt><trkpt lat="43.667753633634014" lon="10.642350433649556"><ele>15.999999999999998</ele><time>2026-04-07T10:48:46Z</time></trkpt><trkpt lat="43.667670515185485" lon="10.642340309905592"><ele>16.0</ele><time>2026-04-07T10:48:47Z</time></trkpt><trkpt lat="43.667599111890205" lon="10.642330299983511"><ele>16.2</ele><time>2026-04-07T10:48:48Z</time></trkpt><trkpt lat="43.667509175274894" lon="10.642300847723185"><ele>16.400000000000002</ele><time>2026-04-07T10:48:50Z</time></trkpt><trkpt lat="43.66744784950241" lon="10.642276342273766"><ele>16.6</ele><time>2026-04-07T10:48:52Z</time></trkpt><trkpt lat="43.667392379254125" lon="10.64221863253564"><ele>16.8</ele><time>2026-04-07T10:51:10Z</time></trkpt><trkpt lat="43.66728480608272" lon="10.642018170114508"><ele>17.0</ele><time>2026-04-07T10:51:38Z</time></trkpt><trkpt lat="43.66723563489783" lon="10.64193916983072"><ele>17.333333333333336</ele><time>2026-04-07T10:51:42Z</time></trkpt><trkpt lat="43.66719947483481" lon="10.641862140767369"><ele>17.666666666666668</ele><time>2026-04-07T10:51:43Z</time></trkpt><trkpt lat="43.667055999591945" lon="10.641400034834229"><ele>18.0</ele><time>2026-04-07T10:51:45Z</time></trkpt><trkpt lat="43.667033529172876" lon="10.641311417264689"><ele>17.0</ele><time>2026-04-07T10:51:46Z</time></trkpt><trkpt lat="43.66733444223726" lon="10.642021585492724"><ele>17.0</ele><time>2026-04-07T10:51:47Z</time></trkpt><trkpt lat="43.66741347729076" lon="10.642077751652243"><ele>17.0</ele><time>2026-04-07T10:51:48Z</time></trkpt><trkpt lat="43.667457409030945" lon="10.642176168715121"><ele>17.0</ele><time>2026-04-07T10:51:50Z</time></trkpt><trkpt lat="43.66751397498315" lon="10.642136586839932"><ele>17.0</ele><time>2026-04-07T10:51:55Z</time></trkpt><trkpt lat="43.667563763488005" lon="10.64206131734945"><ele>17.0</ele><time>2026-04-07T10:51:58Z</time></trkpt><trkpt lat="43.667492118989344" lon="10.642141642662384"><ele>17.0</ele><time>2026-04-07T10:52:08.999Z</time></trkpt><trkpt lat="43.667502952780495" lon="10.642246808866634"><ele>17.0</ele><time>2026-04-07T10:52:12.999Z</time></trkpt><trkpt lat="43.667318750393065" lon="10.64225447779856"><ele>17.0</ele><time>2026-04-07T10:52:33.861Z</time></trkpt><trkpt lat="43.667511535085225" lon="10.642249221098842"><ele>17.0</ele><time>2026-04-07T10:53:17.999Z</time></trkpt><trkpt lat="43.66745387390083" lon="10.642513365984218"><ele>17.0</ele><time>2026-04-07T11:06:15Z</time></trkpt><trkpt lat="43.66754944557722" lon="10.642312866733898"><ele>17.0</ele><time>2026-04-07T11:09:39.999Z</time></trkpt><trkpt lat="43.667494495463394" lon="10.642410005601121"><ele>17.0</ele><time>2026-04-07T11:13:51.999Z</time></trkpt><trkpt lat="43.66750614522028" lon="10.642275192166878"><ele>17.0</ele><time>2026-04-07T12:08:22.999Z</time></trkpt><trkpt lat="43.66747322940804" lon="10.642350478226692"><ele>17.0</ele><time>2026-04-07T12:10:11.999Z</time></trkpt><trkpt lat="43.66742150824617" lon="10.642270494112719"><ele>17.0</ele><time>2026-04-07T12:10:38.999Z</time></trkpt><trkpt lat="43.66736079752166" lon="10.642311187223815"><ele>17.0</ele><time>2026-04-07T12:14:32.999Z</time></trkpt><trkpt lat="43.66726570562877" lon="10.642377491956527"><ele>17.0</ele><time>2026-04-07T12:14:35.999Z</time></trkpt><trkpt lat="43.66719428391785" lon="10.642362376360879"><ele>17.0</ele><time>2026-04-07T12:14:36.999Z</time></trkpt><trkpt lat="43.66709226253561" lon="10.642320565526697"><ele>17.0</ele><time>2026-04-07T12:14:38.999Z</time></trkpt><trkpt lat="43.66704098216029" lon="10.642250673840401"><ele>17.0</ele><time>2026-04-07T12:14:39.999Z</time></trkpt><trkpt lat="43.666981459610966" lon="10.642220390711486"><ele>17.0</ele><time>2026-04-07T12:14:40.999Z</time></trkpt><trkpt lat="43.666893275793186" lon="10.642133245328777"><ele>17.0</ele><time>2026-04-07T12:14:42.999Z</time></trkpt><trkpt lat="43.66681250262616" lon="10.642033158524397"><ele>17.0</ele><time>2026-04-07T12:14:44.999Z</time></trkpt><trkpt lat="43.66669567470212" lon="10.642091811804983"><ele>17.0</ele><time>2026-04-07T12:14:46.999Z</time></trkpt><trkpt lat="43.66669795501998" lon="10.6422364016524"><ele>17.0</ele><time>2026-04-07T12:14:48.999Z</time></trkpt><trkpt lat="43.666736460566824" lon="10.642314093651995"><ele>17.0</ele><time>2026-04-07T12:14:49.999Z</time></trkpt><trkpt lat="43.66677225898016" lon="10.642426794476005"><ele>17.0</ele><time>2026-04-07T12:14:50.999Z</time></trkpt><trkpt lat="43.66679042256039" lon="10.642549203385542"><ele>17.0</ele><time>2026-04-07T12:14:51.999Z</time></trkpt><trkpt lat="43.666808878217275" lon="10.64269024187494"><ele>17.0</ele><time>2026-04-07T12:14:52.999Z</time></trkpt><trkpt lat="43.66682644193113" lon="10.64285303359505"><ele>17.0</ele><time>2026-04-07T12:14:53.999Z</time></trkpt><trkpt lat="43.66684606869822" lon="10.64301510009058"><ele>16.8</ele><time>2026-04-07T12:14:54.999Z</time></trkpt><trkpt lat="43.66685896488371" lon="10.643167796944256"><ele>16.6</ele><time>2026-04-07T12:14:55.999Z</time></trkpt><trkpt lat="43.666868118121414" lon="10.643319080342128"><ele>16.400000000000002</ele><time>2026-04-07T12:14:56.999Z</time></trkpt><trkpt lat="43.66687381429277" lon="10.64348029232512"><ele>16.2</ele><time>2026-04-07T12:14:57.999Z</time></trkpt><trkpt lat="43.66687080382892" lon="10.643627704014834"><ele>16.0</ele><time>2026-04-07T12:14:58.999Z</time></trkpt><trkpt lat="43.6668700870861" lon="10.643782271375303"><ele>16.0</ele><time>2026-04-07T12:14:59.999Z</time></trkpt><trkpt lat="43.66687058681994" lon="10.643943300095787"><ele>16.0</ele><time>2026-04-07T12:15:00.999Z</time></trkpt><trkpt lat="43.6668688304211" lon="10.644108188072714"><ele>16.0</ele><time>2026-04-07T12:15:01.999Z</time></trkpt><trkpt lat="43.66686281100353" lon="10.644264856151688"><ele>16.0</ele><time>2026-04-07T12:15:02.999Z</time></trkpt><trkpt lat="43.66685596203177" lon="10.644409407357555"><ele>16.0</ele><time>2026-04-07T12:15:03.999Z</time></trkpt><trkpt lat="43.66684724888298" lon="10.64456124882501"><ele>16.0</ele><time>2026-04-07T12:15:04.999Z</time></trkpt><trkpt lat="43.66683946914588" lon="10.644713904078579"><ele>16.0</ele><time>2026-04-07T12:15:05.999Z</time></trkpt><trkpt lat="43.666833823613445" lon="10.64487537877587"><ele>16.0</ele><time>2026-04-07T12:15:06.999Z</time></trkpt><trkpt lat="43.666826295777014" lon="10.645041958734472"><ele>16.0</ele><time>2026-04-07T12:15:07.999Z</time></trkpt><trkpt lat="43.66681795494501" lon="10.645221651392793"><ele>16.0</ele><time>2026-04-07T12:15:08.999Z</time></trkpt><trkpt lat="43.66681174232223" lon="10.645415692215423"><ele>16.0</ele><time>2026-04-07T12:15:09.999Z</time></trkpt><trkpt lat="43.66680496006937" lon="10.645583190537412"><ele>16.0</ele><time>2026-04-07T12:15:10.999Z</time></trkpt><trkpt lat="43.66679605938338" lon="10.645730255013774"><ele>15.999999999999998</ele><time>2026-04-07T12:15:11.999Z</time></trkpt><trkpt lat="43.666785900684786" lon="10.645857668848882"><ele>16.0</ele><time>2026-04-07T12:15:12.999Z</time></trkpt><trkpt lat="43.666776994673306" lon="10.645961232522161"><ele>16.0</ele><time>2026-04-07T12:15:13.999Z</time></trkpt><trkpt lat="43.666768423659335" lon="10.646056125846119"><ele>16.0</ele><time>2026-04-07T12:15:15Z</time></trkpt><trkpt lat="43.66675775320436" lon="10.646168309682256"><ele>15.999999999999998</ele><time>2026-04-07T12:15:16Z</time></trkpt><trkpt lat="43.66672920655138" lon="10.646294039829082"><ele>16.0</ele><time>2026-04-07T12:15:17Z</time></trkpt><trkpt lat="43.66671547166256" lon="10.646451108377374"><ele>15.5</ele><time>2026-04-07T12:15:18Z</time></trkpt><trkpt lat="43.66671649674313" lon="10.646609875630137"><ele>15.0</ele><time>2026-04-07T12:15:19Z</time></trkpt><trkpt lat="43.6667216190546" lon="10.646787625324041"><ele>14.5</ele><time>2026-04-07T12:15:20Z</time></trkpt><trkpt lat="43.66672063777297" lon="10.646953960095818"><ele>14.0</ele><time>2026-04-07T12:15:21Z</time></trkpt><trkpt lat="43.666714940028946" lon="10.64710983716007"><ele>13.5</ele><time>2026-04-07T12:15:22Z</time></trkpt><trkpt lat="43.666705210149644" lon="10.64728117877277"><ele>13.0</ele><time>2026-04-07T12:15:23Z</time></trkpt><trkpt lat="43.66669741751703" lon="10.647457607129164"><ele>12.5</ele><time>2026-04-07T12:15:24Z</time></trkpt><trkpt lat="43.66669276446231" lon="10.64761383655214"><ele>12.0</ele><time>2026-04-07T12:15:25Z</time></trkpt><trkpt lat="43.66668579707722" lon="10.647766511120409"><ele>12.25</ele><time>2026-04-07T12:15:26Z</time></trkpt><trkpt lat="43.66667450872243" lon="10.647924411876662"><ele>12.5</ele><time>2026-04-07T12:15:27Z</time></trkpt><trkpt lat="43.66666499095061" lon="10.648091590091354"><ele>12.75</ele><time>2026-04-07T12:15:28Z</time></trkpt><trkpt lat="43.666656872804865" lon="10.648268320562105"><ele>13.0</ele><time>2026-04-07T12:15:29Z</time></trkpt><trkpt lat="43.66664706910968" lon="10.648447816237432"><ele>13.0</ele><time>2026-04-07T12:15:30Z</time></trkpt><trkpt lat="43.66664007708253" lon="10.648607692316915"><ele>13.0</ele><time>2026-04-07T12:15:31Z</time></trkpt><trkpt lat="43.66663242686236" lon="10.648762615006769"><ele>13.0</ele><time>2026-04-07T12:15:32Z</time></trkpt><trkpt lat="43.66662292879409" lon="10.648913600802208"><ele>13.0</ele><time>2026-04-07T12:15:33Z</time></trkpt><trkpt lat="43.6666151401606" lon="10.649068942996932"><ele>13.0</ele><time>2026-04-07T12:15:34Z</time></trkpt><trkpt lat="43.666608161811574" lon="10.649240319150893"><ele>13.0</ele><time>2026-04-07T12:15:35Z</time></trkpt><trkpt lat="43.66660088221339" lon="10.649417592568925"><ele>13.0</ele><time>2026-04-07T12:15:36Z</time></trkpt><trkpt lat="43.666591735564715" lon="10.649574780985724"><ele>13.0</ele><time>2026-04-07T12:15:37Z</time></trkpt><trkpt lat="43.666582460992" lon="10.64971982361163"><ele>13.2</ele><time>2026-04-07T12:15:38Z</time></trkpt><trkpt lat="43.66657426771445" lon="10.649867458790137"><ele>13.4</ele><time>2026-04-07T12:15:39Z</time></trkpt><trkpt lat="43.666568809150235" lon="10.650014714024557"><ele>13.599999999999998</ele><time>2026-04-07T12:15:40Z</time></trkpt><trkpt lat="43.66656161312808" lon="10.65016597188903"><ele>13.799999999999999</ele><time>2026-04-07T12:15:41Z</time></trkpt><trkpt lat="43.666553580183106" lon="10.65032665381738"><ele>14.0</ele><time>2026-04-07T12:15:42Z</time></trkpt><trkpt lat="43.66654643268552" lon="10.650494387189143"><ele>14.0</ele><time>2026-04-07T12:15:43Z</time></trkpt><trkpt lat="43.666539673498114" lon="10.65065899784078"><ele>14.0</ele><time>2026-04-07T12:15:44Z</time></trkpt><trkpt lat="43.66653171343569" lon="10.65080539167257"><ele>14.0</ele><time>2026-04-07T12:15:45Z</time></trkpt><trkpt lat="43.66652359261725" lon="10.650956390578672"><ele>14.0</ele><time>2026-04-07T12:15:46Z</time></trkpt><trkpt lat="43.666516258853356" lon="10.651119216888027"><ele>13.75</ele><time>2026-04-07T12:15:47Z</time></trkpt><trkpt lat="43.66650375733024" lon="10.65128981781634"><ele>13.5</ele><time>2026-04-07T12:15:48Z</time></trkpt><trkpt lat="43.66648720341287" lon="10.651444163573588"><ele>13.25</ele><time>2026-04-07T12:15:49Z</time></trkpt><trkpt lat="43.66646731474395" lon="10.651600096342575"><ele>13.0</ele><time>2026-04-07T12:15:50Z</time></trkpt><trkpt lat="43.66644222399642" lon="10.65175855143159"><ele>13.0</ele><time>2026-04-07T12:15:51Z</time></trkpt><trkpt lat="43.66640869591249" lon="10.651920287618145"><ele>13.0</ele><time>2026-04-07T12:15:52Z</time></trkpt><trkpt lat="43.66637352398002" lon="10.652073596317784"><ele>13.0</ele><time>2026-04-07T12:15:53Z</time></trkpt><trkpt lat="43.66633876721868" lon="10.652218591944214"><ele>13.0</ele><time>2026-04-07T12:15:54Z</time></trkpt><trkpt lat="43.66630249556399" lon="10.652363065353383"><ele>13.0</ele><time>2026-04-07T12:15:55Z</time></trkpt><trkpt lat="43.66626403672954" lon="10.652509562547374"><ele>13.0</ele><time>2026-04-07T12:15:56Z</time></trkpt><trkpt lat="43.66622837040768" lon="10.652650085001513"><ele>13.0</ele><time>2026-04-07T12:15:57Z</time></trkpt><trkpt lat="43.66619332494357" lon="10.652784570037081"><ele>13.0</ele><time>2026-04-07T12:15:58Z</time></trkpt><trkpt lat="43.66615757260432" lon="10.652916429535974"><ele>13.0</ele><time>2026-04-07T12:15:59Z</time></trkpt><trkpt lat="43.666125529226385" lon="10.653033436787798"><ele>13.0</ele><time>2026-04-07T12:16:00Z</time></trkpt><trkpt lat="43.66610057064381" lon="10.653161174767664"><ele>13.0</ele><time>2026-04-07T12:16:01Z</time></trkpt><trkpt lat="43.66609002712453" lon="10.65331545161381"><ele>13.0</ele><time>2026-04-07T12:16:02Z</time></trkpt><trkpt lat="43.66608708983089" lon="10.65346838854032"><ele>13.0</ele><time>2026-04-07T12:16:03Z</time></trkpt><trkpt lat="43.666089702126925" lon="10.653633256662381"><ele>13.0</ele><time>2026-04-07T12:16:04Z</time></trkpt><trkpt lat="43.66609536269401" lon="10.653799338260441"><ele>13.0</ele><time>2026-04-07T12:16:05Z</time></trkpt><trkpt lat="43.66610352434432" lon="10.653978366212659"><ele>13.0</ele><time>2026-04-07T12:16:06Z</time></trkpt><trkpt lat="43.66611295345301" lon="10.654167566316756"><ele>13.0</ele><time>2026-04-07T12:16:07Z</time></trkpt><trkpt lat="43.66612281045866" lon="10.65436257989217"><ele>13.0</ele><time>2026-04-07T12:16:08Z</time></trkpt><trkpt lat="43.66613121329882" lon="10.654540916719721"><ele>13.0</ele><time>2026-04-07T12:16:09Z</time></trkpt><trkpt lat="43.66613723098158" lon="10.654702136999079"><ele>13.0</ele><time>2026-04-07T12:16:10Z</time></trkpt><trkpt lat="43.6661350836686" lon="10.654851741707915"><ele>13.0</ele><time>2026-04-07T12:16:11Z</time></trkpt><trkpt lat="43.66612527091646" lon="10.654989255553259"><ele>13.0</ele><time>2026-04-07T12:16:12Z</time></trkpt><trkpt lat="43.66611373125562" lon="10.655107675977176"><ele>13.0</ele><time>2026-04-07T12:16:13Z</time></trkpt><trkpt lat="43.66608728413733" lon="10.65521429878108"><ele>13.2</ele><time>2026-04-07T12:16:14Z</time></trkpt><trkpt lat="43.66604054809079" lon="10.65531175289456"><ele>13.4</ele><time>2026-04-07T12:16:15Z</time></trkpt><trkpt lat="43.66598221517127" lon="10.655408800467672"><ele>13.599999999999998</ele><time>2026-04-07T12:16:16Z</time></trkpt><trkpt lat="43.66590852621171" lon="10.655493490911352"><ele>13.799999999999999</ele><time>2026-04-07T12:16:16.999Z</time></trkpt><trkpt lat="43.66581352155401" lon="10.655564129147574"><ele>14.0</ele><time>2026-04-07T12:16:17.999Z</time></trkpt><trkpt lat="43.66571533244991" lon="10.655614263887667"><ele>14.0</ele><time>2026-04-07T12:16:18.999Z</time></trkpt><trkpt lat="43.66562493336256" lon="10.655673638665625"><ele>13.999999999999998</ele><time>2026-04-07T12:16:19.999Z</time></trkpt><trkpt lat="43.66554390230976" lon="10.655769449570144"><ele>13.999999999999998</ele><time>2026-04-07T12:16:20.999Z</time></trkpt><trkpt lat="43.665473375446766" lon="10.65589748770115"><ele>14.0</ele><time>2026-04-07T12:16:21.999Z</time></trkpt><trkpt lat="43.66542014929074" lon="10.656050857561583"><ele>14.0</ele><time>2026-04-07T12:16:22.999Z</time></trkpt><trkpt lat="43.66537965429979" lon="10.656232397289548"><ele>14.0</ele><time>2026-04-07T12:16:23.999Z</time></trkpt><trkpt lat="43.66534919786565" lon="10.656417269684292"><ele>14.0</ele><time>2026-04-07T12:16:24.999Z</time></trkpt><trkpt lat="43.66532203672618" lon="10.656592181905229"><ele>14.0</ele><time>2026-04-07T12:16:25.999Z</time></trkpt><trkpt lat="43.66529066560539" lon="10.656769090720896"><ele>14.0</ele><time>2026-04-07T12:16:26.999Z</time></trkpt><trkpt lat="43.665257815289216" lon="10.656928619578188"><ele>14.0</ele><time>2026-04-07T12:16:27.999Z</time></trkpt><trkpt lat="43.66522998102133" lon="10.657070964001326"><ele>13.999999999999998</ele><time>2026-04-07T12:16:28.999Z</time></trkpt><trkpt lat="43.66520310670275" lon="10.65720668641698"><ele>13.999999999999998</ele><time>2026-04-07T12:16:29.999Z</time></trkpt><trkpt lat="43.665176128544246" lon="10.657347678128076"><ele>14.0</ele><time>2026-04-07T12:16:30.999Z</time></trkpt><trkpt lat="43.66515402747994" lon="10.657481967538141"><ele>14.0</ele><time>2026-04-07T12:16:31.999Z</time></trkpt><trkpt lat="43.66512786216685" lon="10.657590268505205"><ele>14.0</ele><time>2026-04-07T12:16:32.999Z</time></trkpt><trkpt lat="43.66509731001448" lon="10.657683488340135"><ele>13.999999999999998</ele><time>2026-04-07T12:16:33.999Z</time></trkpt><trkpt lat="43.66502399334184" lon="10.657796452122303"><ele>13.999999999999998</ele><time>2026-04-07T12:16:35.999Z</time></trkpt><trkpt lat="43.664965449029" lon="10.657838997252693"><ele>14.0</ele><time>2026-04-07T12:16:37.999Z</time></trkpt><trkpt lat="43.66483361914194" lon="10.657866038994054"><ele>14.0</ele><time>2026-04-07T12:16:39.999Z</time></trkpt><trkpt lat="43.66473637760899" lon="10.657880034395301"><ele>14.0</ele><time>2026-04-07T12:16:40.999Z</time></trkpt><trkpt lat="43.66464380905376" lon="10.657925981594794"><ele>13.999999999999998</ele><time>2026-04-07T12:16:41.999Z</time></trkpt><trkpt lat="43.66456031085468" lon="10.658003723410273"><ele>13.999999999999998</ele><time>2026-04-07T12:16:42.999Z</time></trkpt><trkpt lat="43.664505691923644" lon="10.658094746437055"><ele>14.0</ele><time>2026-04-07T12:16:43.999Z</time></trkpt><trkpt lat="43.66447975428807" lon="10.658197353524319"><ele>14.0</ele><time>2026-04-07T12:16:44.999Z</time></trkpt><trkpt lat="43.66446470423429" lon="10.65832247942732"><ele>14.0</ele><time>2026-04-07T12:16:45.999Z</time></trkpt><trkpt lat="43.66447770711074" lon="10.65843370194565"><ele>13.999999999999998</ele><time>2026-04-07T12:16:46.999Z</time></trkpt><trkpt lat="43.66451764844915" lon="10.658535777291368"><ele>13.999999999999998</ele><time>2026-04-07T12:16:47.999Z</time></trkpt><trkpt lat="43.66458516845929" lon="10.658632769035407"><ele>14.0</ele><time>2026-04-07T12:16:48.999Z</time></trkpt><trkpt lat="43.66467472607222" lon="10.658710561845892"><ele>14.0</ele><time>2026-04-07T12:16:49.999Z</time></trkpt><trkpt lat="43.664768815342235" lon="10.658768515138592"><ele>14.2</ele><time>2026-04-07T12:16:50.999Z</time></trkpt><trkpt lat="43.664835993873304" lon="10.658840065422595"><ele>14.399999999999999</ele><time>2026-04-07T12:16:51.999Z</time></trkpt><trkpt lat="43.66487627127689" lon="10.65894117701771"><ele>14.6</ele><time>2026-04-07T12:16:52.999Z</time></trkpt><trkpt lat="43.664895960717075" lon="10.659065487196628"><ele>14.8</ele><time>2026-04-07T12:16:53.999Z</time></trkpt><trkpt lat="43.664883707108714" lon="10.65920078580879"><ele>15.0</ele><time>2026-04-07T12:16:54.999Z</time></trkpt><trkpt lat="43.66485177721465" lon="10.659366329790801"><ele>14.75</ele><time>2026-04-07T12:16:55.999Z</time></trkpt><trkpt lat="43.6648115432954" lon="10.659563465319053"><ele>14.5</ele><time>2026-04-07T12:16:56.999Z</time></trkpt><trkpt lat="43.66477759901952" lon="10.659742546688255"><ele>14.25</ele><time>2026-04-07T12:16:57.999Z</time></trkpt><trkpt lat="43.664740173477256" lon="10.65995224978034"><ele>14.0</ele><time>2026-04-07T12:16:58.999Z</time></trkpt><trkpt lat="43.6647056313869" lon="10.660154705638742"><ele>13.75</ele><time>2026-04-07T12:16:59.999Z</time></trkpt><trkpt lat="43.6646720483248" lon="10.660363754782617"><ele>13.5</ele><time>2026-04-07T12:17:00.999Z</time></trkpt><trkpt lat="43.664641477323244" lon="10.660553589571588"><ele>13.25</ele><time>2026-04-07T12:17:01.999Z</time></trkpt><trkpt lat="43.66461184339381" lon="10.660731794036671"><ele>13.0</ele><time>2026-04-07T12:17:02.999Z</time></trkpt><trkpt lat="43.66458187048944" lon="10.660895605609362"><ele>13.0</ele><time>2026-04-07T12:17:03.999Z</time></trkpt><trkpt lat="43.6645532208243" lon="10.661048765922036"><ele>13.0</ele><time>2026-04-07T12:17:04.999Z</time></trkpt><trkpt lat="43.66452711035754" lon="10.66119119457522"><ele>13.0</ele><time>2026-04-07T12:17:05.999Z</time></trkpt><trkpt lat="43.66449847306455" lon="10.66134310603525"><ele>13.0</ele><time>2026-04-07T12:17:06.999Z</time></trkpt><trkpt lat="43.664470284468244" lon="10.661503921763737"><ele>13.25</ele><time>2026-04-07T12:17:07.999Z</time></trkpt><trkpt lat="43.66444158566936" lon="10.661669876081092"><ele>13.5</ele><time>2026-04-07T12:17:08.999Z</time></trkpt><trkpt lat="43.664409023604634" lon="10.661843561802282"><ele>13.75</ele><time>2026-04-07T12:17:09.999Z</time></trkpt><trkpt lat="43.66437770179531" lon="10.662025077831128"><ele>14.0</ele><time>2026-04-07T12:17:10.999Z</time></trkpt><trkpt lat="43.66434839271186" lon="10.662197087281871"><ele>14.25</ele><time>2026-04-07T12:17:11.999Z</time></trkpt><trkpt lat="43.66431933259926" lon="10.662353518893747"><ele>14.5</ele><time>2026-04-07T12:17:12.999Z</time></trkpt><trkpt lat="43.66429360460167" lon="10.662508208251305"><ele>14.75</ele><time>2026-04-07T12:17:13.999Z</time></trkpt><trkpt lat="43.66426690681306" lon="10.662665847558541"><ele>15.0</ele><time>2026-04-07T12:17:14.999Z</time></trkpt><trkpt lat="43.66424379580199" lon="10.66280626133605"><ele>14.666666666666666</ele><time>2026-04-07T12:17:15.999Z</time></trkpt><trkpt lat="43.66422467488749" lon="10.662931222292773"><ele>14.333333333333332</ele><time>2026-04-07T12:17:16.999Z</time></trkpt><trkpt lat="43.66420505868878" lon="10.663057831148615"><ele>14.0</ele><time>2026-04-07T12:17:17.999Z</time></trkpt><trkpt lat="43.66418022297233" lon="10.663184403178132"><ele>13.666666666666666</ele><time>2026-04-07T12:17:18.999Z</time></trkpt><trkpt lat="43.664149493484665" lon="10.663276414976643"><ele>13.333333333333332</ele><time>2026-04-07T12:17:19.999Z</time></trkpt><trkpt lat="43.66411839116395" lon="10.663371115941938"><ele>13.0</ele><time>2026-04-07T12:17:21Z</time></trkpt><trkpt lat="43.664098875982596" lon="10.663467215455064"><ele>13.0</ele><time>2026-04-07T12:17:22Z</time></trkpt><trkpt lat="43.66408455070035" lon="10.663566462273167"><ele>13.0</ele><time>2026-04-07T12:17:23Z</time></trkpt><trkpt lat="43.66407000480776" lon="10.663701908673612"><ele>13.0</ele><time>2026-04-07T12:17:24Z</time></trkpt><trkpt lat="43.664048630938815" lon="10.663869757149582"><ele>13.0</ele><time>2026-04-07T12:17:25Z</time></trkpt><trkpt lat="43.664016207997804" lon="10.66407083652782"><ele>13.0</ele><time>2026-04-07T12:17:26Z</time></trkpt><trkpt lat="43.6639806433894" lon="10.664274717291399"><ele>13.5</ele><time>2026-04-07T12:17:27Z</time></trkpt><trkpt lat="43.66395141016664" lon="10.664450289680138"><ele>14.0</ele><time>2026-04-07T12:17:28Z</time></trkpt><trkpt lat="43.66392165941465" lon="10.66460757370747"><ele>14.5</ele><time>2026-04-07T12:17:29Z</time></trkpt><trkpt lat="43.66389121029843" lon="10.664768057660181"><ele>15.0</ele><time>2026-04-07T12:17:30Z</time></trkpt><trkpt lat="43.663861299572446" lon="10.664918690825925"><ele>15.0</ele><time>2026-04-07T12:17:31Z</time></trkpt><trkpt lat="43.663832300161225" lon="10.665058959299103"><ele>15.0</ele><time>2026-04-07T12:17:32Z</time></trkpt><trkpt lat="43.663801331096316" lon="10.665207807048676"><ele>15.0</ele><time>2026-04-07T12:17:33Z</time></trkpt><trkpt lat="43.663777578117596" lon="10.665348825036036"><ele>15.0</ele><time>2026-04-07T12:17:34Z</time></trkpt><trkpt lat="43.66375657786165" lon="10.665482223951678"><ele>15.0</ele><time>2026-04-07T12:17:35Z</time></trkpt><trkpt lat="43.66373157058101" lon="10.665610315391874"><ele>15.0</ele><time>2026-04-07T12:17:36Z</time></trkpt><trkpt lat="43.663709876950236" lon="10.66572618969618"><ele>15.0</ele><time>2026-04-07T12:17:37Z</time></trkpt><trkpt lat="43.663692895446445" lon="10.66584184419042"><ele>15.0</ele><time>2026-04-07T12:17:38Z</time></trkpt><trkpt lat="43.66366553305044" lon="10.665982901796559"><ele>15.0</ele><time>2026-04-07T12:17:39Z</time></trkpt><trkpt lat="43.66363770086089" lon="10.666151058081407"><ele>15.0</ele><time>2026-04-07T12:17:40Z</time></trkpt><trkpt lat="43.6636018898195" lon="10.66634008983507"><ele>15.0</ele><time>2026-04-07T12:17:41Z</time></trkpt><trkpt lat="43.663574149542626" lon="10.666499499633236"><ele>15.0</ele><time>2026-04-07T12:17:42Z</time></trkpt><trkpt lat="43.66354838865919" lon="10.666656726563216"><ele>15.0</ele><time>2026-04-07T12:17:43Z</time></trkpt><trkpt lat="43.663521047192035" lon="10.666816618259066"><ele>15.0</ele><time>2026-04-07T12:17:44Z</time></trkpt><trkpt lat="43.66349767111277" lon="10.666971503415926"><ele>15.4</ele><time>2026-04-07T12:17:45Z</time></trkpt><trkpt lat="43.66347493745253" lon="10.667105971670356"><ele>15.8</ele><time>2026-04-07T12:17:46Z</time></trkpt><trkpt lat="43.6634374243287" lon="10.667231345584817"><ele>16.2</ele><time>2026-04-07T12:17:47Z</time></trkpt><trkpt lat="43.663417073356456" lon="10.667350437046686"><ele>16.6</ele><time>2026-04-07T12:17:48Z</time></trkpt><trkpt lat="43.663412378387775" lon="10.667468182023502"><ele>17.0</ele><time>2026-04-07T12:17:49Z</time></trkpt><trkpt lat="43.66338334221829" lon="10.667580769214029"><ele>17.0</ele><time>2026-04-07T12:17:50Z</time></trkpt><trkpt lat="43.66335532279529" lon="10.667706113087734"><ele>17.0</ele><time>2026-04-07T12:17:51Z</time></trkpt><trkpt lat="43.66331500604447" lon="10.667834819396361"><ele>17.0</ele><time>2026-04-07T12:17:52Z</time></trkpt><trkpt lat="43.663260525224864" lon="10.667964568323953"><ele>17.0</ele><time>2026-04-07T12:17:53Z</time></trkpt><trkpt lat="43.66319178018695" lon="10.668095543796388"><ele>17.0</ele><time>2026-04-07T12:17:54Z</time></trkpt><trkpt lat="43.66311072611286" lon="10.668225212556749"><ele>17.0</ele><time>2026-04-07T12:17:55Z</time></trkpt><trkpt lat="43.66301971731306" lon="10.668364079658806"><ele>17.0</ele><time>2026-04-07T12:17:56Z</time></trkpt><trkpt lat="43.662928605582216" lon="10.668499741310875"><ele>17.0</ele><time>2026-04-07T12:17:57Z</time></trkpt><trkpt lat="43.66283318031359" lon="10.668640211094715"><ele>17.0</ele><time>2026-04-07T12:17:58Z</time></trkpt><trkpt lat="43.66273384390492" lon="10.668789864849304"><ele>17.0</ele><time>2026-04-07T12:17:59Z</time></trkpt><trkpt lat="43.66262548380964" lon="10.668942861299556"><ele>17.0</ele><time>2026-04-07T12:18:00Z</time></trkpt><trkpt lat="43.66252004686621" lon="10.669094481776192"><ele>17.0</ele><time>2026-04-07T12:18:01Z</time></trkpt><trkpt lat="43.66242575646666" lon="10.669243131682093"><ele>17.0</ele><time>2026-04-07T12:18:02Z</time></trkpt><trkpt lat="43.66233552777932" lon="10.66941424966111"><ele>17.0</ele><time>2026-04-07T12:18:03Z</time></trkpt><trkpt lat="43.662249985397864" lon="10.669604407644998"><ele>17.0</ele><time>2026-04-07T12:18:04Z</time></trkpt><trkpt lat="43.66217465957854" lon="10.669784875092642"><ele>16.333333333333336</ele><time>2026-04-07T12:18:05Z</time></trkpt><trkpt lat="43.66210082352651" lon="10.669960465369508"><ele>15.666666666666668</ele><time>2026-04-07T12:18:06Z</time></trkpt><trkpt lat="43.66201491400107" lon="10.670151376075074"><ele>15.0</ele><time>2026-04-07T12:18:07Z</time></trkpt><trkpt lat="43.66192772274683" lon="10.670344052407804"><ele>15.0</ele><time>2026-04-07T12:18:08Z</time></trkpt><trkpt lat="43.66184893114483" lon="10.670517871911715"><ele>15.0</ele><time>2026-04-07T12:18:09Z</time></trkpt><trkpt lat="43.66176481375693" lon="10.67069218795943"><ele>15.0</ele><time>2026-04-07T12:18:10Z</time></trkpt><trkpt lat="43.66167392378059" lon="10.670858875826296"><ele>15.0</ele><time>2026-04-07T12:18:11Z</time></trkpt><trkpt lat="43.66157570406315" lon="10.671016997604857"><ele>15.0</ele><time>2026-04-07T12:18:12Z</time></trkpt><trkpt lat="43.66147592164919" lon="10.671170262006255"><ele>15.0</ele><time>2026-04-07T12:18:13Z</time></trkpt><trkpt lat="43.66137404355708" lon="10.671327074854947"><ele>14.75</ele><time>2026-04-07T12:18:14Z</time></trkpt><trkpt lat="43.661268130451454" lon="10.671482765239173"><ele>14.5</ele><time>2026-04-07T12:18:15Z</time></trkpt><trkpt lat="43.66116352393997" lon="10.671628550046012"><ele>14.25</ele><time>2026-04-07T12:18:16Z</time></trkpt><trkpt lat="43.661070032120435" lon="10.671755621845488"><ele>14.0</ele><time>2026-04-07T12:18:17Z</time></trkpt><trkpt lat="43.660985597670695" lon="10.671868356412345"><ele>14.399999999999999</ele><time>2026-04-07T12:18:18Z</time></trkpt><trkpt lat="43.660906543725254" lon="10.671974600481231"><ele>14.799999999999999</ele><time>2026-04-07T12:18:19Z</time></trkpt><trkpt lat="43.66083292630996" lon="10.672070824946402"><ele>15.200000000000001</ele><time>2026-04-07T12:18:20Z</time></trkpt><trkpt lat="43.660753109335054" lon="10.672178353603819"><ele>15.600000000000001</ele><time>2026-04-07T12:18:21Z</time></trkpt><trkpt lat="43.66066450316341" lon="10.67230235688846"><ele>16.0</ele><time>2026-04-07T12:18:22Z</time></trkpt><trkpt lat="43.66058221425526" lon="10.672428544567742"><ele>16.0</ele><time>2026-04-07T12:18:23Z</time></trkpt><trkpt lat="43.660504187525376" lon="10.672568474979085"><ele>16.0</ele><time>2026-04-07T12:18:24Z</time></trkpt><trkpt lat="43.660426490799345" lon="10.672719814437622"><ele>16.0</ele><time>2026-04-07T12:18:25Z</time></trkpt><trkpt lat="43.660351448461554" lon="10.6728810339732"><ele>16.0</ele><time>2026-04-07T12:18:26Z</time></trkpt><trkpt lat="43.66028148721347" lon="10.673019235721203"><ele>16.8</ele><time>2026-04-07T12:18:27Z</time></trkpt><trkpt lat="43.66022093169643" lon="10.673151436997"><ele>17.6</ele><time>2026-04-07T12:18:28Z</time></trkpt><trkpt lat="43.660161493123205" lon="10.673274953448477"><ele>18.4</ele><time>2026-04-07T12:18:28.999Z</time></trkpt><trkpt lat="43.6601071597219" lon="10.67339701556369"><ele>19.2</ele><time>2026-04-07T12:18:29.999Z</time></trkpt><trkpt lat="43.66005321954138" lon="10.673511988276113"><ele>20.0</ele><time>2026-04-07T12:18:30.999Z</time></trkpt><trkpt lat="43.65999693825402" lon="10.673616012167907"><ele>20.2</ele><time>2026-04-07T12:18:31.999Z</time></trkpt><trkpt lat="43.6599416353216" lon="10.673715077702905"><ele>20.4</ele><time>2026-04-07T12:18:32.999Z</time></trkpt><trkpt lat="43.659888150159865" lon="10.673803734281675"><ele>20.6</ele><time>2026-04-07T12:18:33.999Z</time></trkpt><trkpt lat="43.659816537991325" lon="10.673875065054565"><ele>20.8</ele><time>2026-04-07T12:18:34.999Z</time></trkpt><trkpt lat="43.659756774504444" lon="10.673989185699085"><ele>21.0</ele><time>2026-04-07T12:18:35.999Z</time></trkpt><trkpt lat="43.659672657984565" lon="10.674093715193584"><ele>21.0</ele><time>2026-04-07T12:18:36.999Z</time></trkpt><trkpt lat="43.65958847096452" lon="10.674198145092973"><ele>21.0</ele><time>2026-04-07T12:18:37.999Z</time></trkpt><trkpt lat="43.65951652349392" lon="10.674287319960376"><ele>21.0</ele><time>2026-04-07T12:18:38.999Z</time></trkpt><trkpt lat="43.659438326849774" lon="10.674376802347775"><ele>21.0</ele><time>2026-04-07T12:18:39.999Z</time></trkpt><trkpt lat="43.659360026076385" lon="10.674468217916012"><ele>21.0</ele><time>2026-04-07T12:18:40.999Z</time></trkpt><trkpt lat="43.659284470973084" lon="10.67456086450576"><ele>23.0</ele><time>2026-04-07T12:18:41.999Z</time></trkpt><trkpt lat="43.65921588104712" lon="10.674645939323419"><ele>25.0</ele><time>2026-04-07T12:18:42.999Z</time></trkpt><trkpt lat="43.65914393799727" lon="10.674732709758786"><ele>27.0</ele><time>2026-04-07T12:18:43.999Z</time></trkpt><trkpt lat="43.659077087779565" lon="10.674829673512855"><ele>29.0</ele><time>2026-04-07T12:18:44.999Z</time></trkpt><trkpt lat="43.65901314315353" lon="10.674941032800175"><ele>31.0</ele><time>2026-04-07T12:18:45.999Z</time></trkpt><trkpt lat="43.6589624389991" lon="10.67506650198423"><ele>31.0</ele><time>2026-04-07T12:18:46.999Z</time></trkpt><trkpt lat="43.658907438890985" lon="10.675200600303967"><ele>31.0</ele><time>2026-04-07T12:18:47.999Z</time></trkpt><trkpt lat="43.65891705117009" lon="10.675359336722167"><ele>31.0</ele><time>2026-04-07T12:18:48.999Z</time></trkpt><trkpt lat="43.65892404561555" lon="10.675503936462372"><ele>31.0</ele><time>2026-04-07T12:18:49.999Z</time></trkpt><trkpt lat="43.658950198217575" lon="10.675658630513258"><ele>31.0</ele><time>2026-04-07T12:18:50.999Z</time></trkpt><trkpt lat="43.6589879406238" lon="10.675813362707226"><ele>29.8</ele><time>2026-04-07T12:18:51.999Z</time></trkpt><trkpt lat="43.65902894671862" lon="10.675962608075638"><ele>28.6</ele><time>2026-04-07T12:18:52.999Z</time></trkpt><trkpt lat="43.659062789933586" lon="10.67610922874069"><ele>27.4</ele><time>2026-04-07T12:18:53.999Z</time></trkpt><trkpt lat="43.65909329701375" lon="10.676254280688429"><ele>26.2</ele><time>2026-04-07T12:18:54.999Z</time></trkpt><trkpt lat="43.65912880184797" lon="10.67638673630964"><ele>25.0</ele><time>2026-04-07T12:18:55.999Z</time></trkpt><trkpt lat="43.659155075331846" lon="10.67651314235158"><ele>24.6</ele><time>2026-04-07T12:18:56.999Z</time></trkpt><trkpt lat="43.65918014807096" lon="10.67662855329419"><ele>24.2</ele><time>2026-04-07T12:18:57.999Z</time></trkpt><trkpt lat="43.659206685635105" lon="10.676744604308766"><ele>23.799999999999997</ele><time>2026-04-07T12:18:58.999Z</time></trkpt><trkpt lat="43.65923496761556" lon="10.676870306859096"><ele>23.4</ele><time>2026-04-07T12:18:59.999Z</time></trkpt><trkpt lat="43.65926610655614" lon="10.677001005554109"><ele>23.0</ele><time>2026-04-07T12:19:00.999Z</time></trkpt><trkpt lat="43.6593069425317" lon="10.677136792103234"><ele>23.0</ele><time>2026-04-07T12:19:01.999Z</time></trkpt><trkpt lat="43.659342152275165" lon="10.67729246377422"><ele>23.0</ele><time>2026-04-07T12:19:02.999Z</time></trkpt><trkpt lat="43.659380361326555" lon="10.677452717125146"><ele>23.0</ele><time>2026-04-07T12:19:03.999Z</time></trkpt><trkpt lat="43.65941945295411" lon="10.677617412157002"><ele>23.0</ele><time>2026-04-07T12:19:04.999Z</time></trkpt><trkpt lat="43.65946134678507" lon="10.677793149653922"><ele>22.5</ele><time>2026-04-07T12:19:05.999Z</time></trkpt><trkpt lat="43.659489659472534" lon="10.677985232237264"><ele>22.0</ele><time>2026-04-07T12:19:06.999Z</time></trkpt><trkpt lat="43.65952643301532" lon="10.678144211724865"><ele>21.5</ele><time>2026-04-07T12:19:07.999Z</time></trkpt><trkpt lat="43.659578684826364" lon="10.678296182617455"><ele>21.0</ele><time>2026-04-07T12:19:08.999Z</time></trkpt><trkpt lat="43.65961150597052" lon="10.678467906738884"><ele>22.25</ele><time>2026-04-07T12:19:09.999Z</time></trkpt><trkpt lat="43.65964594238341" lon="10.6786453166444"><ele>23.5</ele><time>2026-04-07T12:19:10.999Z</time></trkpt><trkpt lat="43.6596655916188" lon="10.678804955264951"><ele>24.75</ele><time>2026-04-07T12:19:11.999Z</time></trkpt><trkpt lat="43.65968032167735" lon="10.678976980601506"><ele>26.0</ele><time>2026-04-07T12:19:12.999Z</time></trkpt><trkpt lat="43.659696416185" lon="10.679166643979746"><ele>26.0</ele><time>2026-04-07T12:19:13.999Z</time></trkpt><trkpt lat="43.65971346079959" lon="10.679357856797733"><ele>26.0</ele><time>2026-04-07T12:19:14.999Z</time></trkpt><trkpt lat="43.659729891027744" lon="10.679538246726167"><ele>26.0</ele><time>2026-04-07T12:19:15.999Z</time></trkpt><trkpt lat="43.6597495504792" lon="10.679709724356856"><ele>26.0</ele><time>2026-04-07T12:19:16.999Z</time></trkpt><trkpt lat="43.65976984638574" lon="10.679875919385447"><ele>26.25</ele><time>2026-04-07T12:19:17.999Z</time></trkpt><trkpt lat="43.65978904323843" lon="10.680029686621303"><ele>26.5</ele><time>2026-04-07T12:19:18.999Z</time></trkpt><trkpt lat="43.65980108939648" lon="10.680192773708372"><ele>26.75</ele><time>2026-04-07T12:19:19.999Z</time></trkpt><trkpt lat="43.6598612697188" lon="10.680347318228973"><ele>27.0</ele><time>2026-04-07T12:19:20.999Z</time></trkpt><trkpt lat="43.6599205359944" lon="10.680501686058312"><ele>27.0</ele><time>2026-04-07T12:19:21.999Z</time></trkpt><trkpt lat="43.65998351503723" lon="10.680654713654212"><ele>27.0</ele><time>2026-04-07T12:19:22.999Z</time></trkpt><trkpt lat="43.66004810254184" lon="10.680801697972502"><ele>27.0</ele><time>2026-04-07T12:19:23.999Z</time></trkpt><trkpt lat="43.660082905317196" lon="10.680938465044049"><ele>27.0</ele><time>2026-04-07T12:19:24.999Z</time></trkpt><trkpt lat="43.66013887202755" lon="10.681045512797082"><ele>27.400000000000002</ele><time>2026-04-07T12:19:25.999Z</time></trkpt><trkpt lat="43.66017306135742" lon="10.681151612585392"><ele>27.800000000000004</ele><time>2026-04-07T12:19:27Z</time></trkpt><trkpt lat="43.660194509128154" lon="10.681273504230735"><ele>28.2</ele><time>2026-04-07T12:19:28Z</time></trkpt><trkpt lat="43.66024396839096" lon="10.681401009766022"><ele>28.6</ele><time>2026-04-07T12:19:29Z</time></trkpt><trkpt lat="43.660305045208545" lon="10.68151160460345"><ele>29.0</ele><time>2026-04-07T12:19:30Z</time></trkpt><trkpt lat="43.66039787243501" lon="10.681615024319209"><ele>27.25</ele><time>2026-04-07T12:19:31Z</time></trkpt><trkpt lat="43.66048707186657" lon="10.681733031765601"><ele>25.5</ele><time>2026-04-07T12:19:32Z</time></trkpt><trkpt lat="43.660579781392386" lon="10.681835742994773"><ele>23.75</ele><time>2026-04-07T12:19:33Z</time></trkpt><trkpt lat="43.660670547581574" lon="10.681937188932027"><ele>22.0</ele><time>2026-04-07T12:19:34Z</time></trkpt><trkpt lat="43.66075785282712" lon="10.682052256011376"><ele>22.0</ele><time>2026-04-07T12:19:35Z</time></trkpt><trkpt lat="43.66083940211465" lon="10.682193851580575"><ele>22.0</ele><time>2026-04-07T12:19:36Z</time></trkpt><trkpt lat="43.66093259200534" lon="10.682335868849716"><ele>22.0</ele><time>2026-04-07T12:19:37Z</time></trkpt><trkpt lat="43.6610058159334" lon="10.68247613407984"><ele>22.0</ele><time>2026-04-07T12:19:38Z</time></trkpt><trkpt lat="43.66107283502474" lon="10.682605646386786"><ele>20.5</ele><time>2026-04-07T12:19:39Z</time></trkpt><trkpt lat="43.66113421437412" lon="10.682737797027553"><ele>19.0</ele><time>2026-04-07T12:19:40Z</time></trkpt><trkpt lat="43.661208960867384" lon="10.68288874508649"><ele>17.5</ele><time>2026-04-07T12:19:41Z</time></trkpt><trkpt lat="43.66128718637707" lon="10.683058201442844"><ele>16.0</ele><time>2026-04-07T12:19:42Z</time></trkpt><trkpt lat="43.661374418075525" lon="10.683237956618843"><ele>16.0</ele><time>2026-04-07T12:19:43Z</time></trkpt><trkpt lat="43.66146938838437" lon="10.68342805910596"><ele>16.0</ele><time>2026-04-07T12:19:44Z</time></trkpt><trkpt lat="43.661561569248775" lon="10.683615430470235"><ele>16.0</ele><time>2026-04-07T12:19:45Z</time></trkpt><trkpt lat="43.6616464103602" lon="10.68378270494363"><ele>16.25</ele><time>2026-04-07T12:19:46Z</time></trkpt><trkpt lat="43.66172852999593" lon="10.683947602989365"><ele>16.5</ele><time>2026-04-07T12:19:47Z</time></trkpt><trkpt lat="43.66181369297358" lon="10.684122819174336"><ele>16.75</ele><time>2026-04-07T12:19:48Z</time></trkpt><trkpt lat="43.66189333775744" lon="10.684285620178304"><ele>17.0</ele><time>2026-04-07T12:19:49Z</time></trkpt><trkpt lat="43.66196598361029" lon="10.684443530353473"><ele>17.25</ele><time>2026-04-07T12:19:50Z</time></trkpt><trkpt lat="43.66204083476614" lon="10.684605426504971"><ele>17.5</ele><time>2026-04-07T12:19:51Z</time></trkpt><trkpt lat="43.6621169165376" lon="10.684776649077117"><ele>17.75</ele><time>2026-04-07T12:19:52Z</time></trkpt><trkpt lat="43.662189369821554" lon="10.684955234329221"><ele>18.0</ele><time>2026-04-07T12:19:53Z</time></trkpt><trkpt lat="43.662261596319986" lon="10.685138243127808"><ele>18.5</ele><time>2026-04-07T12:19:54Z</time></trkpt><trkpt lat="43.66232409205191" lon="10.68531055480355"><ele>19.0</ele><time>2026-04-07T12:19:55Z</time></trkpt><trkpt lat="43.662383696296985" lon="10.68547961243313"><ele>19.5</ele><time>2026-04-07T12:19:56Z</time></trkpt><trkpt lat="43.66244204406417" lon="10.685643121496533"><ele>20.0</ele><time>2026-04-07T12:19:57Z</time></trkpt><trkpt lat="43.662499916689875" lon="10.685799753349176"><ele>20.0</ele><time>2026-04-07T12:19:58Z</time></trkpt><trkpt lat="43.66255664349621" lon="10.685967886487855"><ele>20.0</ele><time>2026-04-07T12:19:59Z</time></trkpt><trkpt lat="43.662617599741424" lon="10.686141838662156"><ele>20.0</ele><time>2026-04-07T12:20:00Z</time></trkpt><trkpt lat="43.66268016007603" lon="10.686324233382273"><ele>20.0</ele><time>2026-04-07T12:20:01Z</time></trkpt><trkpt lat="43.66274918435924" lon="10.686509371254871"><ele>19.333333333333336</ele><time>2026-04-07T12:20:02Z</time></trkpt><trkpt lat="43.662823470670226" lon="10.686709930444243"><ele>18.666666666666668</ele><time>2026-04-07T12:20:03Z</time></trkpt><trkpt lat="43.66289944170738" lon="10.686917088998577"><ele>18.0</ele><time>2026-04-07T12:20:04Z</time></trkpt><trkpt lat="43.66296688137215" lon="10.687106283515835"><ele>18.0</ele><time>2026-04-07T12:20:05Z</time></trkpt><trkpt lat="43.66303431804829" lon="10.687285199691903"><ele>18.0</ele><time>2026-04-07T12:20:06Z</time></trkpt><trkpt lat="43.66309734105167" lon="10.687465408332478"><ele>18.0</ele><time>2026-04-07T12:20:07Z</time></trkpt><trkpt lat="43.66316469074105" lon="10.687654906331854"><ele>18.0</ele><time>2026-04-07T12:20:08Z</time></trkpt><trkpt lat="43.66323564978325" lon="10.68785195619307"><ele>18.0</ele><time>2026-04-07T12:20:09Z</time></trkpt><trkpt lat="43.66330905989063" lon="10.688049989485403"><ele>18.0</ele><time>2026-04-07T12:20:10Z</time></trkpt><trkpt lat="43.66338415642073" lon="10.68825002144686"><ele>18.0</ele><time>2026-04-07T12:20:11Z</time></trkpt><trkpt lat="43.66346100554402" lon="10.688454459074743"><ele>18.0</ele><time>2026-04-07T12:20:12Z</time></trkpt><trkpt lat="43.66353249241658" lon="10.688658858901396"><ele>18.0</ele><time>2026-04-07T12:20:13Z</time></trkpt><trkpt lat="43.66359057820226" lon="10.688845843907737"><ele>18.0</ele><time>2026-04-07T12:20:14Z</time></trkpt><trkpt lat="43.66363258325505" lon="10.689039168028673"><ele>18.333333333333332</ele><time>2026-04-07T12:20:15Z</time></trkpt><trkpt lat="43.66366239735284" lon="10.689245731597312"><ele>18.666666666666664</ele><time>2026-04-07T12:20:16Z</time></trkpt><trkpt lat="43.66367792449456" lon="10.689466071827875"><ele>19.0</ele><time>2026-04-07T12:20:17Z</time></trkpt><trkpt lat="43.66367681681801" lon="10.689692042342038"><ele>19.25</ele><time>2026-04-07T12:20:18Z</time></trkpt><trkpt lat="43.66367075797789" lon="10.689911659507754"><ele>19.5</ele><time>2026-04-07T12:20:19Z</time></trkpt><trkpt lat="43.66366658487915" lon="10.690114389204775"><ele>19.75</ele><time>2026-04-07T12:20:20Z</time></trkpt><trkpt lat="43.66366267051118" lon="10.690303635110206"><ele>20.0</ele><time>2026-04-07T12:20:21Z</time></trkpt><trkpt lat="43.66365784877586" lon="10.690488503253771"><ele>20.0</ele><time>2026-04-07T12:20:22Z</time></trkpt><trkpt lat="43.66365231563532" lon="10.690681485194169"><ele>20.0</ele><time>2026-04-07T12:20:23Z</time></trkpt><trkpt lat="43.66365026049688" lon="10.69086601772693"><ele>20.0</ele><time>2026-04-07T12:20:24Z</time></trkpt><trkpt lat="43.66366636381075" lon="10.691042489774802"><ele>20.0</ele><time>2026-04-07T12:20:25Z</time></trkpt><trkpt lat="43.66368665000639" lon="10.691231620806818"><ele>19.666666666666668</ele><time>2026-04-07T12:20:26Z</time></trkpt><trkpt lat="43.663751180150456" lon="10.691426154502889"><ele>19.333333333333332</ele><time>2026-04-07T12:20:27Z</time></trkpt><trkpt lat="43.66384288869405" lon="10.691600418967068"><ele>19.0</ele><time>2026-04-07T12:20:28Z</time></trkpt><trkpt lat="43.6639341095117" lon="10.691794644410257"><ele>18.0</ele><time>2026-04-07T12:20:29Z</time></trkpt><trkpt lat="43.66403652968417" lon="10.691998534633054"><ele>17.0</ele><time>2026-04-07T12:20:30Z</time></trkpt><trkpt lat="43.66414467032373" lon="10.692213403239874"><ele>16.0</ele><time>2026-04-07T12:20:31Z</time></trkpt><trkpt lat="43.66424403561247" lon="10.692415187770631"><ele>16.0</ele><time>2026-04-07T12:20:32Z</time></trkpt><trkpt lat="43.66433950020327" lon="10.692608295664057"><ele>16.0</ele><time>2026-04-07T12:20:32.999Z</time></trkpt><trkpt lat="43.664425142180576" lon="10.692799269922808"><ele>16.0</ele><time>2026-04-07T12:20:33.999Z</time></trkpt><trkpt lat="43.66449485722587" lon="10.692995591947438"><ele>16.333333333333332</ele><time>2026-04-07T12:20:34.999Z</time></trkpt><trkpt lat="43.66454941561959" lon="10.693209389069413"><ele>16.666666666666668</ele><time>2026-04-07T12:20:35.999Z</time></trkpt><trkpt lat="43.66459027455568" lon="10.693435233343425"><ele>17.0</ele><time>2026-04-07T12:20:36.999Z</time></trkpt><trkpt lat="43.66461381416058" lon="10.693651624539012"><ele>17.333333333333336</ele><time>2026-04-07T12:20:37.999Z</time></trkpt><trkpt lat="43.66463274539825" lon="10.693875127926068"><ele>17.666666666666668</ele><time>2026-04-07T12:20:38.999Z</time></trkpt><trkpt lat="43.6646524190435" lon="10.694107219802289"><ele>18.0</ele><time>2026-04-07T12:20:39.999Z</time></trkpt><trkpt lat="43.66467633809747" lon="10.694341539782716"><ele>18.0</ele><time>2026-04-07T12:20:40.999Z</time></trkpt><trkpt lat="43.664700136988564" lon="10.694582572404231"><ele>18.0</ele><time>2026-04-07T12:20:41.999Z</time></trkpt><trkpt lat="43.664721304302475" lon="10.694827111588594"><ele>18.0</ele><time>2026-04-07T12:20:42.999Z</time></trkpt><trkpt lat="43.66474563769462" lon="10.6950771518929"><ele>18.333333333333332</ele><time>2026-04-07T12:20:43.999Z</time></trkpt><trkpt lat="43.66476828406279" lon="10.695317542259668"><ele>18.666666666666664</ele><time>2026-04-07T12:20:44.999Z</time></trkpt><trkpt lat="43.66478935573363" lon="10.69554268973381"><ele>19.0</ele><time>2026-04-07T12:20:45.999Z</time></trkpt><trkpt lat="43.66481334935973" lon="10.695763800663439"><ele>19.0</ele><time>2026-04-07T12:20:46.999Z</time></trkpt><trkpt lat="43.66484148141735" lon="10.69598349908335"><ele>19.0</ele><time>2026-04-07T12:20:47.999Z</time></trkpt><trkpt lat="43.66487308807645" lon="10.696201820416244"><ele>19.0</ele><time>2026-04-07T12:20:48.999Z</time></trkpt><trkpt lat="43.66490430682424" lon="10.69642638894719"><ele>19.666666666666664</ele><time>2026-04-07T12:20:49.999Z</time></trkpt><trkpt lat="43.664933850816475" lon="10.696659766249649"><ele>20.333333333333332</ele><time>2026-04-07T12:20:50.999Z</time></trkpt><trkpt lat="43.66496455138124" lon="10.696895385936136"><ele>21.0</ele><time>2026-04-07T12:20:51.999Z</time></trkpt><trkpt lat="43.6649933664395" lon="10.69713091833599"><ele>21.666666666666668</ele><time>2026-04-07T12:20:52.999Z</time></trkpt><trkpt lat="43.66502039386359" lon="10.69737115335215"><ele>22.333333333333336</ele><time>2026-04-07T12:20:53.999Z</time></trkpt><trkpt lat="43.665040832755146" lon="10.697616326922663"><ele>23.0</ele><time>2026-04-07T12:20:54.999Z</time></trkpt><trkpt lat="43.66505009063403" lon="10.697844644655994"><ele>23.666666666666668</ele><time>2026-04-07T12:20:55.999Z</time></trkpt><trkpt lat="43.66505266013806" lon="10.698059401920018"><ele>24.333333333333336</ele><time>2026-04-07T12:20:56.999Z</time></trkpt><trkpt lat="43.66504602035276" lon="10.698278389060096"><ele>25.0</ele><time>2026-04-07T12:20:57.999Z</time></trkpt><trkpt lat="43.66502607255821" lon="10.698481276531195"><ele>25.75</ele><time>2026-04-07T12:20:58.999Z</time></trkpt><trkpt lat="43.6649825617406" lon="10.698664500896392"><ele>26.5</ele><time>2026-04-07T12:20:59.999Z</time></trkpt><trkpt lat="43.664920980333676" lon="10.698849273322775"><ele>27.25</ele><time>2026-04-07T12:21:00.999Z</time></trkpt><trkpt lat="43.66483686304712" lon="10.699031001552502"><ele>28.0</ele><time>2026-04-07T12:21:01.999Z</time></trkpt><trkpt lat="43.66474237911483" lon="10.699219877698221"><ele>28.0</ele><time>2026-04-07T12:21:02.999Z</time></trkpt><trkpt lat="43.664643737161036" lon="10.699418197652575"><ele>28.0</ele><time>2026-04-07T12:21:03.999Z</time></trkpt><trkpt lat="43.66454173168585" lon="10.699627351781993"><ele>28.0</ele><time>2026-04-07T12:21:04.999Z</time></trkpt><trkpt lat="43.664442274003584" lon="10.699821146149297"><ele>29.666666666666668</ele><time>2026-04-07T12:21:05.999Z</time></trkpt><trkpt lat="43.66434709274724" lon="10.69999834233107"><ele>31.333333333333336</ele><time>2026-04-07T12:21:06.999Z</time></trkpt><trkpt lat="43.66425119830012" lon="10.700182005439775"><ele>33.0</ele><time>2026-04-07T12:21:07.999Z</time></trkpt><trkpt lat="43.66415044394136" lon="10.70036971018241"><ele>33.0</ele><time>2026-04-07T12:21:08.999Z</time></trkpt><trkpt lat="43.66404919015773" lon="10.70055093917648"><ele>33.0</ele><time>2026-04-07T12:21:09.999Z</time></trkpt><trkpt lat="43.66395394636084" lon="10.700715643946719"><ele>33.0</ele><time>2026-04-07T12:21:10.999Z</time></trkpt><trkpt lat="43.66386501657547" lon="10.700875851528577"><ele>33.0</ele><time>2026-04-07T12:21:11.999Z</time></trkpt><trkpt lat="43.663781193894074" lon="10.701042262071184"><ele>33.0</ele><time>2026-04-07T12:21:12.999Z</time></trkpt><trkpt lat="43.66372037783739" lon="10.701223988714538"><ele>33.0</ele><time>2026-04-07T12:21:13.999Z</time></trkpt><trkpt lat="43.66369688511695" lon="10.701411048077217"><ele>33.0</ele><time>2026-04-07T12:21:14.999Z</time></trkpt><trkpt lat="43.66370328507909" lon="10.701614770578427"><ele>33.25</ele><time>2026-04-07T12:21:15.999Z</time></trkpt><trkpt lat="43.66373852446311" lon="10.701810870003998"><ele>33.5</ele><time>2026-04-07T12:21:16.999Z</time></trkpt><trkpt lat="43.66379929765036" lon="10.701989809597334"><ele>33.75</ele><time>2026-04-07T12:21:17.999Z</time></trkpt><trkpt lat="43.66389363504557" lon="10.702150548420672"><ele>34.0</ele><time>2026-04-07T12:21:18.999Z</time></trkpt><trkpt lat="43.66399104566048" lon="10.70227245770945"><ele>35.2</ele><time>2026-04-07T12:21:19.999Z</time></trkpt><trkpt lat="43.66406801162902" lon="10.70236329965748"><ele>36.4</ele><time>2026-04-07T12:21:20.999Z</time></trkpt><trkpt lat="43.66414170500443" lon="10.702450490606344"><ele>37.6</ele><time>2026-04-07T12:21:21.999Z</time></trkpt><trkpt lat="43.664219048203066" lon="10.70254242546307"><ele>38.8</ele><time>2026-04-07T12:21:22.999Z</time></trkpt><trkpt lat="43.66430669204631" lon="10.702647500993988"><ele>40.0</ele><time>2026-04-07T12:21:23.999Z</time></trkpt><trkpt lat="43.664402626442524" lon="10.702763769266177"><ele>39.5</ele><time>2026-04-07T12:21:24.999Z</time></trkpt><trkpt lat="43.66449897885727" lon="10.702887495300091"><ele>39.0</ele><time>2026-04-07T12:21:25.999Z</time></trkpt><trkpt lat="43.66460682699118" lon="10.703018807890418"><ele>38.5</ele><time>2026-04-07T12:21:26.999Z</time></trkpt><trkpt lat="43.664708901520825" lon="10.703139271284648"><ele>38.0</ele><time>2026-04-07T12:21:27.999Z</time></trkpt><trkpt lat="43.66480383955276" lon="10.703252484286569"><ele>38.0</ele><time>2026-04-07T12:21:28.999Z</time></trkpt><trkpt lat="43.66489760303259" lon="10.70336478335276"><ele>38.0</ele><time>2026-04-07T12:21:29.999Z</time></trkpt><trkpt lat="43.66498931623837" lon="10.703476032537308"><ele>38.0</ele><time>2026-04-07T12:21:30.999Z</time></trkpt><trkpt lat="43.66508572966542" lon="10.703590658468565"><ele>38.0</ele><time>2026-04-07T12:21:31.999Z</time></trkpt><trkpt lat="43.665184824820116" lon="10.703713430164616"><ele>36.25</ele><time>2026-04-07T12:21:33Z</time></trkpt><trkpt lat="43.665281254419774" lon="10.703837720059086"><ele>34.5</ele><time>2026-04-07T12:21:34Z</time></trkpt><trkpt lat="43.665374058287036" lon="10.703957281078848"><ele>32.75</ele><time>2026-04-07T12:21:35Z</time></trkpt><trkpt lat="43.66547031801759" lon="10.704077012932958"><ele>31.0</ele><time>2026-04-07T12:21:36Z</time></trkpt><trkpt lat="43.66556539620961" lon="10.70419162349945"><ele>31.0</ele><time>2026-04-07T12:21:37Z</time></trkpt><trkpt lat="43.66565677173265" lon="10.704300734771419"><ele>31.0</ele><time>2026-04-07T12:21:38Z</time></trkpt><trkpt lat="43.6657459001135" lon="10.704403880114594"><ele>31.0</ele><time>2026-04-07T12:21:39Z</time></trkpt><trkpt lat="43.665831331912024" lon="10.704507873165856"><ele>31.0</ele><time>2026-04-07T12:21:40Z</time></trkpt><trkpt lat="43.665917184759444" lon="10.704614785835046"><ele>30.25</ele><time>2026-04-07T12:21:41Z</time></trkpt><trkpt lat="43.665999097495316" lon="10.70472267829427"><ele>29.5</ele><time>2026-04-07T12:21:42Z</time></trkpt><trkpt lat="43.66608560047618" lon="10.704843336333395"><ele>28.75</ele><time>2026-04-07T12:21:43Z</time></trkpt><trkpt lat="43.666178956559015" lon="10.704980901121072"><ele>28.0</ele><time>2026-04-07T12:21:44Z</time></trkpt><trkpt lat="43.666263630439154" lon="10.705111001037377"><ele>27.5</ele><time>2026-04-07T12:21:45Z</time></trkpt><trkpt lat="43.66634302636442" lon="10.705230997285618"><ele>27.0</ele><time>2026-04-07T12:21:46Z</time></trkpt><trkpt lat="43.66642331398189" lon="10.705350303269746"><ele>26.5</ele><time>2026-04-07T12:21:47Z</time></trkpt><trkpt lat="43.6665116566092" lon="10.705482261722167"><ele>26.0</ele><time>2026-04-07T12:21:48Z</time></trkpt><trkpt lat="43.66660117286744" lon="10.705607259152252"><ele>24.75</ele><time>2026-04-07T12:21:49Z</time></trkpt><trkpt lat="43.66667914410447" lon="10.705716701217066"><ele>23.5</ele><time>2026-04-07T12:21:50Z</time></trkpt><trkpt lat="43.66676018036715" lon="10.705814366028198"><ele>22.25</ele><time>2026-04-07T12:21:51Z</time></trkpt><trkpt lat="43.66684573464142" lon="10.705924316562133"><ele>21.0</ele><time>2026-04-07T12:21:52Z</time></trkpt><trkpt lat="43.66692889106253" lon="10.706044409098938"><ele>20.75</ele><time>2026-04-07T12:21:53Z</time></trkpt><trkpt lat="43.66701305317341" lon="10.706156098626272"><ele>20.5</ele><time>2026-04-07T12:21:54Z</time></trkpt><trkpt lat="43.66708484915877" lon="10.706275142300846"><ele>20.25</ele><time>2026-04-07T12:21:55Z</time></trkpt><trkpt lat="43.66715620108904" lon="10.706396721827542"><ele>20.0</ele><time>2026-04-07T12:21:56Z</time></trkpt><trkpt lat="43.66723146034157" lon="10.706528803701731"><ele>20.0</ele><time>2026-04-07T12:21:57Z</time></trkpt><trkpt lat="43.667302656519475" lon="10.706668056465215"><ele>20.0</ele><time>2026-04-07T12:21:58Z</time></trkpt><trkpt lat="43.667371953279506" lon="10.706819170174096"><ele>20.0</ele><time>2026-04-07T12:21:59Z</time></trkpt><trkpt lat="43.66742762750231" lon="10.706965938887036"><ele>20.0</ele><time>2026-04-07T12:22:00Z</time></trkpt><trkpt lat="43.667479570164666" lon="10.707115550715143"><ele>19.75</ele><time>2026-04-07T12:22:01Z</time></trkpt><trkpt lat="43.66753345484682" lon="10.70725699042509"><ele>19.5</ele><time>2026-04-07T12:22:02Z</time></trkpt><trkpt lat="43.66759005812011" lon="10.707414229938681"><ele>19.25</ele><time>2026-04-07T12:22:03Z</time></trkpt><trkpt lat="43.667649665636404" lon="10.707578886192188"><ele>19.0</ele><time>2026-04-07T12:22:04Z</time></trkpt><trkpt lat="43.66770918261569" lon="10.707744477425663"><ele>19.0</ele><time>2026-04-07T12:22:05Z</time></trkpt><trkpt lat="43.66776287207029" lon="10.707901759953206"><ele>19.0</ele><time>2026-04-07T12:22:06Z</time></trkpt><trkpt lat="43.66781563539531" lon="10.708062389565693"><ele>19.0</ele><time>2026-04-07T12:22:07Z</time></trkpt><trkpt lat="43.6678692245914" lon="10.708228300820663"><ele>19.0</ele><time>2026-04-07T12:22:08Z</time></trkpt><trkpt lat="43.667924706404136" lon="10.708397851683088"><ele>19.0</ele><time>2026-04-07T12:22:09Z</time></trkpt><trkpt lat="43.66798114387594" lon="10.708569508766539"><ele>19.0</ele><time>2026-04-07T12:22:10Z</time></trkpt><trkpt lat="43.668036635469754" lon="10.70874638941227"><ele>19.0</ele><time>2026-04-07T12:22:11Z</time></trkpt><trkpt lat="43.66808951757955" lon="10.708925434155194"><ele>19.0</ele><time>2026-04-07T12:22:12Z</time></trkpt><trkpt lat="43.668141611046536" lon="10.709107976753911"><ele>18.75</ele><time>2026-04-07T12:22:13Z</time></trkpt><trkpt lat="43.66818906267788" lon="10.709281911174378"><ele>18.5</ele><time>2026-04-07T12:22:14Z</time></trkpt><trkpt lat="43.66823685068626" lon="10.709454229503333"><ele>18.25</ele><time>2026-04-07T12:22:15Z</time></trkpt><trkpt lat="43.66828244714565" lon="10.709634803809864"><ele>18.0</ele><time>2026-04-07T12:22:16Z</time></trkpt><trkpt lat="43.668331049853464" lon="10.709820117784009"><ele>18.0</ele><time>2026-04-07T12:22:17Z</time></trkpt><trkpt lat="43.668380408001404" lon="10.710012411087053"><ele>18.0</ele><time>2026-04-07T12:22:18Z</time></trkpt><trkpt lat="43.66843271475421" lon="10.710213424725534"><ele>18.0</ele><time>2026-04-07T12:22:19Z</time></trkpt><trkpt lat="43.6684888314452" lon="10.71042078628422"><ele>18.0</ele><time>2026-04-07T12:22:20Z</time></trkpt><trkpt lat="43.66854865709641" lon="10.710639333276145"><ele>18.0</ele><time>2026-04-07T12:22:21Z</time></trkpt><trkpt lat="43.66860892331355" lon="10.710865263719272"><ele>18.0</ele><time>2026-04-07T12:22:22Z</time></trkpt><trkpt lat="43.668664637405875" lon="10.711079731947576"><ele>17.666666666666668</ele><time>2026-04-07T12:22:23Z</time></trkpt><trkpt lat="43.6687216372734" lon="10.711296106701662"><ele>17.333333333333336</ele><time>2026-04-07T12:22:24Z</time></trkpt><trkpt lat="43.6687799489348" lon="10.711511956751202"><ele>17.0</ele><time>2026-04-07T12:22:25Z</time></trkpt><trkpt lat="43.66883989593332" lon="10.71173013677273"><ele>17.333333333333336</ele><time>2026-04-07T12:22:26Z</time></trkpt><trkpt lat="43.66889900342203" lon="10.711949870314637"><ele>17.666666666666668</ele><time>2026-04-07T12:22:27Z</time></trkpt><trkpt lat="43.66895812640465" lon="10.712170076734779"><ele>18.0</ele><time>2026-04-07T12:22:28Z</time></trkpt><trkpt lat="43.66901826180636" lon="10.712393846564334"><ele>18.0</ele><time>2026-04-07T12:22:29Z</time></trkpt><trkpt lat="43.66907952553742" lon="10.712620261230953"><ele>18.0</ele><time>2026-04-07T12:22:30Z</time></trkpt><trkpt lat="43.66914055896864" lon="10.712849366309129"><ele>18.0</ele><time>2026-04-07T12:22:31Z</time></trkpt><trkpt lat="43.66920263552969" lon="10.713080152341217"><ele>18.333333333333332</ele><time>2026-04-07T12:22:32Z</time></trkpt><trkpt lat="43.66926314426275" lon="10.713303927828761"><ele>18.666666666666664</ele><time>2026-04-07T12:22:33Z</time></trkpt><trkpt lat="43.66932501494027" lon="10.713536574173151"><ele>19.0</ele><time>2026-04-07T12:22:34Z</time></trkpt><trkpt lat="43.669388906977" lon="10.713777374289684"><ele>19.0</ele><time>2026-04-07T12:22:35Z</time></trkpt><trkpt lat="43.66944717852193" lon="10.714005846600493"><ele>19.0</ele><time>2026-04-07T12:22:36Z</time></trkpt><trkpt lat="43.6695030259496" lon="10.714223045672187"><ele>19.0</ele><time>2026-04-07T12:22:37Z</time></trkpt><trkpt lat="43.66955741548183" lon="10.714446834637263"><ele>19.0</ele><time>2026-04-07T12:22:37.999Z</time></trkpt><trkpt lat="43.66961510668272" lon="10.714666501840712"><ele>19.0</ele><time>2026-04-07T12:22:38.999Z</time></trkpt><trkpt lat="43.66966812585448" lon="10.714873579821921"><ele>19.0</ele><time>2026-04-07T12:22:39.999Z</time></trkpt><trkpt lat="43.669720699783106" lon="10.715069352215718"><ele>19.25</ele><time>2026-04-07T12:22:40.999Z</time></trkpt><trkpt lat="43.6697703195411" lon="10.71525472405109"><ele>19.5</ele><time>2026-04-07T12:22:41.999Z</time></trkpt><trkpt lat="43.6698187131605" lon="10.71544772504003"><ele>19.75</ele><time>2026-04-07T12:22:42.999Z</time></trkpt><trkpt lat="43.66987157434059" lon="10.715644003110059"><ele>20.0</ele><time>2026-04-07T12:22:43.999Z</time></trkpt><trkpt lat="43.66992163674594" lon="10.71584779937246"><ele>20.0</ele><time>2026-04-07T12:22:44.999Z</time></trkpt><trkpt lat="43.66997357541896" lon="10.71605375234519"><ele>20.0</ele><time>2026-04-07T12:22:45.999Z</time></trkpt><trkpt lat="43.67002845222251" lon="10.716263398609366"><ele>20.0</ele><time>2026-04-07T12:22:46.999Z</time></trkpt><trkpt lat="43.67008288216532" lon="10.716469102202465"><ele>20.0</ele><time>2026-04-07T12:22:47.999Z</time></trkpt><trkpt lat="43.67013448413228" lon="10.716665362662178"><ele>20.0</ele><time>2026-04-07T12:22:48.999Z</time></trkpt><trkpt lat="43.67018778638135" lon="10.716859015719042"><ele>20.0</ele><time>2026-04-07T12:22:49.999Z</time></trkpt><trkpt lat="43.67024238375546" lon="10.717054371920538"><ele>19.0</ele><time>2026-04-07T12:22:50.999Z</time></trkpt><trkpt lat="43.6702936786419" lon="10.717257754706122"><ele>18.0</ele><time>2026-04-07T12:22:51.999Z</time></trkpt><trkpt lat="43.67035351667465" lon="10.717460901288334"><ele>17.0</ele><time>2026-04-07T12:22:52.999Z</time></trkpt><trkpt lat="43.67041169863218" lon="10.717669012556101"><ele>17.666666666666668</ele><time>2026-04-07T12:22:53.999Z</time></trkpt><trkpt lat="43.67047275938393" lon="10.717881246066831"><ele>18.333333333333332</ele><time>2026-04-07T12:22:54.999Z</time></trkpt><trkpt lat="43.67053402650276" lon="10.718095682599515"><ele>19.0</ele><time>2026-04-07T12:22:55.999Z</time></trkpt><trkpt lat="43.67059445329443" lon="10.718315801074327"><ele>19.0</ele><time>2026-04-07T12:22:56.999Z</time></trkpt><trkpt lat="43.67065798211634" lon="10.718538758433596"><ele>19.0</ele><time>2026-04-07T12:22:57.999Z</time></trkpt><trkpt lat="43.67072017088961" lon="10.718758287374307"><ele>19.0</ele><time>2026-04-07T12:22:58.999Z</time></trkpt><trkpt lat="43.67077778104853" lon="10.718964584843292"><ele>19.333333333333332</ele><time>2026-04-07T12:22:59.999Z</time></trkpt><trkpt lat="43.670833989972806" lon="10.719169255690502"><ele>19.666666666666668</ele><time>2026-04-07T12:23:00.999Z</time></trkpt><trkpt lat="43.6708902266304" lon="10.719374735496546"><ele>20.0</ele><time>2026-04-07T12:23:01.999Z</time></trkpt><trkpt lat="43.670947434105074" lon="10.719582872330559"><ele>20.0</ele><time>2026-04-07T12:23:02.999Z</time></trkpt><trkpt lat="43.67100233068387" lon="10.719793369463876"><ele>20.0</ele><time>2026-04-07T12:23:03.999Z</time></trkpt><trkpt lat="43.67106044208079" lon="10.720006732506086"><ele>20.0</ele><time>2026-04-07T12:23:04.999Z</time></trkpt><trkpt lat="43.671117171511376" lon="10.720213291014646"><ele>20.0</ele><time>2026-04-07T12:23:05.999Z</time></trkpt><trkpt lat="43.67116957058839" lon="10.720410023878907"><ele>20.0</ele><time>2026-04-07T12:23:06.999Z</time></trkpt><trkpt lat="43.67122199843298" lon="10.720605773829991"><ele>20.0</ele><time>2026-04-07T12:23:07.999Z</time></trkpt><trkpt lat="43.67127167638976" lon="10.720799423218658"><ele>20.0</ele><time>2026-04-07T12:23:08.999Z</time></trkpt><trkpt lat="43.671326145692525" lon="10.720990591029459"><ele>20.0</ele><time>2026-04-07T12:23:09.999Z</time></trkpt><trkpt lat="43.67137468649378" lon="10.721182868581282"><ele>20.0</ele><time>2026-04-07T12:23:10.999Z</time></trkpt><trkpt lat="43.671427884636394" lon="10.721371888842564"><ele>20.0</ele><time>2026-04-07T12:23:11.999Z</time></trkpt><trkpt lat="43.671471504435736" lon="10.721560942960345"><ele>20.25</ele><time>2026-04-07T12:23:12.999Z</time></trkpt><trkpt lat="43.671522610935725" lon="10.721747678095234"><ele>20.5</ele><time>2026-04-07T12:23:13.999Z</time></trkpt><trkpt lat="43.67157405737547" lon="10.721932898001437"><ele>20.75</ele><time>2026-04-07T12:23:14.999Z</time></trkpt><trkpt lat="43.671623480204026" lon="10.722116998817246"><ele>21.0</ele><time>2026-04-07T12:23:15.999Z</time></trkpt><trkpt lat="43.671669414844715" lon="10.722301426602332"><ele>21.0</ele><time>2026-04-07T12:23:16.999Z</time></trkpt><trkpt lat="43.671718391809826" lon="10.722487336897627"><ele>21.0</ele><time>2026-04-07T12:23:17.999Z</time></trkpt><trkpt lat="43.67176753660358" lon="10.72267582829339"><ele>21.0</ele><time>2026-04-07T12:23:18.999Z</time></trkpt><trkpt lat="43.671818301631234" lon="10.722864836379344"><ele>21.0</ele><time>2026-04-07T12:23:19.999Z</time></trkpt><trkpt lat="43.67186478708167" lon="10.7230415871602"><ele>21.0</ele><time>2026-04-07T12:23:20.999Z</time></trkpt><trkpt lat="43.671907969535134" lon="10.723206878501811"><ele>21.0</ele><time>2026-04-07T12:23:21.999Z</time></trkpt><trkpt lat="43.671947936423805" lon="10.723374654838434"><ele>21.0</ele><time>2026-04-07T12:23:22.999Z</time></trkpt><trkpt lat="43.67199351876542" lon="10.72354337340223"><ele>21.0</ele><time>2026-04-07T12:23:23.999Z</time></trkpt><trkpt lat="43.67204236868868" lon="10.723710921995005"><ele>20.75</ele><time>2026-04-07T12:23:24.999Z</time></trkpt><trkpt lat="43.672092726392876" lon="10.723871118204533"><ele>20.5</ele><time>2026-04-07T12:23:25.999Z</time></trkpt><trkpt lat="43.67213801684518" lon="10.724022992977723"><ele>20.25</ele><time>2026-04-07T12:23:26.999Z</time></trkpt><trkpt lat="43.67218366948181" lon="10.724181700341342"><ele>20.0</ele><time>2026-04-07T12:23:27.999Z</time></trkpt><trkpt lat="43.672226504939275" lon="10.724336261359557"><ele>20.4</ele><time>2026-04-07T12:23:28.999Z</time></trkpt><trkpt lat="43.67226694103368" lon="10.724475064351918"><ele>20.8</ele><time>2026-04-07T12:23:29.999Z</time></trkpt><trkpt lat="43.67230585519823" lon="10.72460595547915"><ele>21.200000000000003</ele><time>2026-04-07T12:23:30.999Z</time></trkpt><trkpt lat="43.67234214082104" lon="10.724729660152489"><ele>21.6</ele><time>2026-04-07T12:23:31.999Z</time></trkpt><trkpt lat="43.6723756617701" lon="10.724842661320713"><ele>22.0</ele><time>2026-04-07T12:23:32.999Z</time></trkpt><trkpt lat="43.67240432563921" lon="10.724946499850423"><ele>22.0</ele><time>2026-04-07T12:23:33.999Z</time></trkpt><trkpt lat="43.672434524105746" lon="10.72505548842793"><ele>22.0</ele><time>2026-04-07T12:23:34.999Z</time></trkpt><trkpt lat="43.6724657673105" lon="10.725168368101043"><ele>22.0</ele><time>2026-04-07T12:23:35.999Z</time></trkpt><trkpt lat="43.672492248961014" lon="10.725268101648117"><ele>22.0</ele><time>2026-04-07T12:23:36.999Z</time></trkpt><trkpt lat="43.6725242477422" lon="10.725368987552084"><ele>22.0</ele><time>2026-04-07T12:23:37.999Z</time></trkpt><trkpt lat="43.67255301382813" lon="10.725477388257492"><ele>22.0</ele><time>2026-04-07T12:23:39Z</time></trkpt><trkpt lat="43.67258510824258" lon="10.725584109473852"><ele>22.0</ele><time>2026-04-07T12:23:40Z</time></trkpt><trkpt lat="43.67261864023909" lon="10.72569439648624"><ele>22.0</ele><time>2026-04-07T12:23:41Z</time></trkpt><trkpt lat="43.67265004280596" lon="10.725793473451311"><ele>22.0</ele><time>2026-04-07T12:23:42Z</time></trkpt><trkpt lat="43.67267608653563" lon="10.725877667037553"><ele>22.0</ele><time>2026-04-07T12:23:43Z</time></trkpt><trkpt lat="43.672709858810755" lon="10.725995134727444"><ele>22.0</ele><time>2026-04-07T12:23:45Z</time></trkpt><trkpt lat="43.672707486692566" lon="10.726097265491262"><ele>22.0</ele><time>2026-04-07T12:23:47Z</time></trkpt><trkpt lat="43.67265183313251" lon="10.726179570239232"><ele>22.0</ele><time>2026-04-07T12:23:49Z</time></trkpt><trkpt lat="43.67254212830513" lon="10.726180376373737"><ele>22.0</ele><time>2026-04-07T12:23:51Z</time></trkpt><trkpt lat="43.67247526318284" lon="10.72613518407546"><ele>22.0</ele><time>2026-04-07T12:23:52Z</time></trkpt><trkpt lat="43.67241689428604" lon="10.726061361902158"><ele>22.0</ele><time>2026-04-07T12:23:53Z</time></trkpt><trkpt lat="43.67236378862238" lon="10.725976087471313"><ele>22.0</ele><time>2026-04-07T12:23:54Z</time></trkpt><trkpt lat="43.672312390419066" lon="10.725888549815236"><ele>22.0</ele><time>2026-04-07T12:23:55Z</time></trkpt><trkpt lat="43.672266014726674" lon="10.725815809172532"><ele>22.0</ele><time>2026-04-07T12:23:56Z</time></trkpt><trkpt lat="43.67221536430613" lon="10.72573735433088"><ele>22.0</ele><time>2026-04-07T12:23:57Z</time></trkpt><trkpt lat="43.67215151673394" lon="10.725675350045465"><ele>22.0</ele><time>2026-04-07T12:23:58Z</time></trkpt><trkpt lat="43.6720834803674" lon="10.725605789861994"><ele>22.0</ele><time>2026-04-07T12:23:59Z</time></trkpt><trkpt lat="43.67199416958879" lon="10.725589012994002"><ele>22.0</ele><time>2026-04-07T12:24:00Z</time></trkpt><trkpt lat="43.67190412356314" lon="10.725597797500633"><ele>22.0</ele><time>2026-04-07T12:24:01Z</time></trkpt><trkpt lat="43.67181302013672" lon="10.7256149244308"><ele>21.75</ele><time>2026-04-07T12:24:02Z</time></trkpt><trkpt lat="43.671709976981795" lon="10.725639860066662"><ele>21.5</ele><time>2026-04-07T12:24:03Z</time></trkpt><trkpt lat="43.67160320254886" lon="10.725668989765232"><ele>21.25</ele><time>2026-04-07T12:24:04Z</time></trkpt><trkpt lat="43.671490784724384" lon="10.72569965909515"><ele>21.0</ele><time>2026-04-07T12:24:05Z</time></trkpt><trkpt lat="43.671370004873715" lon="10.725732609743803"><ele>21.0</ele><time>2026-04-07T12:24:06Z</time></trkpt><trkpt lat="43.671244303230836" lon="10.725766902997837"><ele>21.0</ele><time>2026-04-07T12:24:07Z</time></trkpt><trkpt lat="43.67113163009072" lon="10.725801927692824"><ele>21.0</ele><time>2026-04-07T12:24:08Z</time></trkpt><trkpt lat="43.671023444696374" lon="10.72585941615682"><ele>21.0</ele><time>2026-04-07T12:24:09Z</time></trkpt><trkpt lat="43.670913947680916" lon="10.725910786604583"><ele>21.0</ele><time>2026-04-07T12:24:10Z</time></trkpt><trkpt lat="43.67081151820391" lon="10.725950279842657"><ele>21.0</ele><time>2026-04-07T12:24:11Z</time></trkpt><trkpt lat="43.67073579305872" lon="10.726044542893417"><ele>21.0</ele><time>2026-04-07T12:24:12Z</time></trkpt><trkpt lat="43.670646963478966" lon="10.72610921873203"><ele>21.0</ele><time>2026-04-07T12:24:13Z</time></trkpt><trkpt lat="43.67057812011455" lon="10.726185421802322"><ele>21.0</ele><time>2026-04-07T12:24:14Z</time></trkpt><trkpt lat="43.670514396412884" lon="10.726255957695171"><ele>21.0</ele><time>2026-04-07T12:24:15Z</time></trkpt><trkpt lat="43.67044530378415" lon="10.726332436515442"><ele>21.0</ele><time>2026-04-07T12:24:16Z</time></trkpt><trkpt lat="43.67035644071319" lon="10.726430799003074"><ele>21.0</ele><time>2026-04-07T12:24:17Z</time></trkpt><trkpt lat="43.670262468257036" lon="10.726561098780758"><ele>21.0</ele><time>2026-04-07T12:24:18Z</time></trkpt><trkpt lat="43.67015861102718" lon="10.726671098179013"><ele>21.0</ele><time>2026-04-07T12:24:19Z</time></trkpt><trkpt lat="43.67004071126593" lon="10.726792013257727"><ele>21.0</ele><time>2026-04-07T12:24:20Z</time></trkpt><trkpt lat="43.669918248868136" lon="10.726930286528034"><ele>21.0</ele><time>2026-04-07T12:24:21Z</time></trkpt><trkpt lat="43.66981291069357" lon="10.727049170633242"><ele>21.0</ele><time>2026-04-07T12:24:22Z</time></trkpt><trkpt lat="43.66971645421498" lon="10.727149298242614"><ele>21.0</ele><time>2026-04-07T12:24:23Z</time></trkpt><trkpt lat="43.66962311728126" lon="10.727252646818503"><ele>21.0</ele><time>2026-04-07T12:24:24Z</time></trkpt><trkpt lat="43.66952258233723" lon="10.727359973396716"><ele>21.0</ele><time>2026-04-07T12:24:25Z</time></trkpt><trkpt lat="43.669416449061536" lon="10.727473758409591"><ele>21.0</ele><time>2026-04-07T12:24:26Z</time></trkpt><trkpt lat="43.66929961713984" lon="10.727584461091936"><ele>21.0</ele><time>2026-04-07T12:24:27Z</time></trkpt><trkpt lat="43.669180570667535" lon="10.72767764939792"><ele>21.0</ele><time>2026-04-07T12:24:28Z</time></trkpt><trkpt lat="43.66906098499288" lon="10.727750350216692"><ele>21.0</ele><time>2026-04-07T12:24:29Z</time></trkpt><trkpt lat="43.668929942017975" lon="10.727807907684102"><ele>21.0</ele><time>2026-04-07T12:24:30Z</time></trkpt><trkpt lat="43.668796013461744" lon="10.727872245517975"><ele>21.0</ele><time>2026-04-07T12:24:31Z</time></trkpt><trkpt lat="43.66865307480071" lon="10.727950408230699"><ele>21.0</ele><time>2026-04-07T12:24:32Z</time></trkpt><trkpt lat="43.66850846699488" lon="10.728022504070738"><ele>21.0</ele><time>2026-04-07T12:24:33Z</time></trkpt><trkpt lat="43.66839748033091" lon="10.728123486038651"><ele>21.0</ele><time>2026-04-07T12:24:34Z</time></trkpt><trkpt lat="43.668280179384716" lon="10.728196548344012"><ele>21.166666666666668</ele><time>2026-04-07T12:24:35Z</time></trkpt><trkpt lat="43.6681851827422" lon="10.728266492481827"><ele>21.333333333333332</ele><time>2026-04-07T12:24:36Z</time></trkpt><trkpt lat="43.668103425828406" lon="10.728327280868871"><ele>21.5</ele><time>2026-04-07T12:24:37Z</time></trkpt><trkpt lat="43.66803366731622" lon="10.728384563938773"><ele>21.666666666666664</ele><time>2026-04-07T12:24:38Z</time></trkpt><trkpt lat="43.6679691489387" lon="10.728434578473124"><ele>21.833333333333332</ele><time>2026-04-07T12:24:39Z</time></trkpt><trkpt lat="43.66790844351564" lon="10.728465364623748"><ele>22.0</ele><time>2026-04-07T12:24:40Z</time></trkpt><trkpt lat="43.66788791392262" lon="10.728695042421935"><ele>21.5</ele><time>2026-04-07T12:24:42Z</time></trkpt><trkpt lat="43.66791099967414" lon="10.72881442119315"><ele>21.0</ele><time>2026-04-07T12:24:43Z</time></trkpt><trkpt lat="43.667936547097796" lon="10.728962168820066"><ele>20.5</ele><time>2026-04-07T12:24:43.999Z</time></trkpt><trkpt lat="43.667958961788905" lon="10.729139722204993"><ele>20.0</ele><time>2026-04-07T12:24:44.999Z</time></trkpt><trkpt lat="43.66798279119122" lon="10.729339302661725"><ele>21.0</ele><time>2026-04-07T12:24:45.999Z</time></trkpt><trkpt lat="43.667996857904775" lon="10.729525022945744"><ele>22.0</ele><time>2026-04-07T12:24:46.999Z</time></trkpt><trkpt lat="43.6679847133803" lon="10.729734869399513"><ele>23.0</ele><time>2026-04-07T12:24:47.999Z</time></trkpt><trkpt lat="43.667982219864214" lon="10.72992770699914"><ele>24.0</ele><time>2026-04-07T12:24:48.999Z</time></trkpt><trkpt lat="43.66797816813815" lon="10.730098257082512"><ele>23.75</ele><time>2026-04-07T12:24:49.999Z</time></trkpt><trkpt lat="43.66798115008339" lon="10.730289532426884"><ele>23.5</ele><time>2026-04-07T12:24:50.999Z</time></trkpt><trkpt lat="43.66796716878499" lon="10.730477332399635"><ele>23.25</ele><time>2026-04-07T12:24:51.999Z</time></trkpt><trkpt lat="43.66796197724208" lon="10.730662583404108"><ele>23.0</ele><time>2026-04-07T12:24:52.999Z</time></trkpt><trkpt lat="43.66795814589157" lon="10.730862402556731"><ele>23.5</ele><time>2026-04-07T12:24:53.999Z</time></trkpt><trkpt lat="43.66794844332598" lon="10.731080472366234"><ele>24.0</ele><time>2026-04-07T12:24:54.999Z</time></trkpt><trkpt lat="43.667944982535055" lon="10.731292138783202"><ele>24.5</ele><time>2026-04-07T12:24:55.999Z</time></trkpt><trkpt lat="43.66793589198623" lon="10.731477943024457"><ele>25.0</ele><time>2026-04-07T12:24:56.999Z</time></trkpt><trkpt lat="43.66792992788171" lon="10.73166739769076"><ele>25.0</ele><time>2026-04-07T12:24:57.999Z</time></trkpt><trkpt lat="43.667924048552365" lon="10.731862687737879"><ele>25.0</ele><time>2026-04-07T12:24:58.999Z</time></trkpt><trkpt lat="43.66791553779461" lon="10.732030854497431"><ele>25.0</ele><time>2026-04-07T12:24:59.999Z</time></trkpt><trkpt lat="43.667913129870264" lon="10.73218685000722"><ele>25.0</ele><time>2026-04-07T12:25:00.999Z</time></trkpt><trkpt lat="43.66791748937951" lon="10.732334487357127"><ele>24.6</ele><time>2026-04-07T12:25:01.999Z</time></trkpt><trkpt lat="43.66793275659608" lon="10.7324917739799"><ele>24.2</ele><time>2026-04-07T12:25:02.999Z</time></trkpt><trkpt lat="43.66795339002885" lon="10.732634546431495"><ele>23.799999999999997</ele><time>2026-04-07T12:25:03.999Z</time></trkpt><trkpt lat="43.66798495572791" lon="10.732767116838716"><ele>23.4</ele><time>2026-04-07T12:25:04.999Z</time></trkpt><trkpt lat="43.66802098779253" lon="10.732900230475476"><ele>23.0</ele><time>2026-04-07T12:25:05.999Z</time></trkpt><trkpt lat="43.6680581361832" lon="10.733038238669529"><ele>23.799999999999997</ele><time>2026-04-07T12:25:06.999Z</time></trkpt><trkpt lat="43.66811142325252" lon="10.733182503868242"><ele>24.6</ele><time>2026-04-07T12:25:07.999Z</time></trkpt><trkpt lat="43.66817205243454" lon="10.733327713629032"><ele>25.400000000000002</ele><time>2026-04-07T12:25:08.999Z</time></trkpt><trkpt lat="43.66822945083713" lon="10.73345068852147"><ele>26.200000000000003</ele><time>2026-04-07T12:25:09.999Z</time></trkpt><trkpt lat="43.66828652938031" lon="10.733560621979306"><ele>27.0</ele><time>2026-04-07T12:25:10.999Z</time></trkpt><trkpt lat="43.668346195139094" lon="10.733672588756237"><ele>27.200000000000003</ele><time>2026-04-07T12:25:11.999Z</time></trkpt><trkpt lat="43.668403253020664" lon="10.73379111802748"><ele>27.400000000000002</ele><time>2026-04-07T12:25:12.999Z</time></trkpt><trkpt lat="43.668446916488726" lon="10.733896032138933"><ele>27.599999999999998</ele><time>2026-04-07T12:25:13.999Z</time></trkpt><trkpt lat="43.668494691018374" lon="10.734012764364167"><ele>27.799999999999997</ele><time>2026-04-07T12:25:14.999Z</time></trkpt><trkpt lat="43.66854272702619" lon="10.734146807307079"><ele>28.0</ele><time>2026-04-07T12:25:15.999Z</time></trkpt><trkpt lat="43.66858906658949" lon="10.734297456771465"><ele>27.0</ele><time>2026-04-07T12:25:16.999Z</time></trkpt><trkpt lat="43.66862436137831" lon="10.734469412930537"><ele>26.0</ele><time>2026-04-07T12:25:17.999Z</time></trkpt><trkpt lat="43.66864382324233" lon="10.73462725075143"><ele>25.0</ele><time>2026-04-07T12:25:18.999Z</time></trkpt><trkpt lat="43.66865245121896" lon="10.734780859623342"><ele>24.0</ele><time>2026-04-07T12:25:19.999Z</time></trkpt><trkpt lat="43.668656375498664" lon="10.734943117740368"><ele>24.0</ele><time>2026-04-07T12:25:20.999Z</time></trkpt><trkpt lat="43.66866031161259" lon="10.735113717052043"><ele>24.0</ele><time>2026-04-07T12:25:21.999Z</time></trkpt><trkpt lat="43.66866555011108" lon="10.735268375193323"><ele>24.0</ele><time>2026-04-07T12:25:22.999Z</time></trkpt><trkpt lat="43.66866927339777" lon="10.735412450343027"><ele>24.0</ele><time>2026-04-07T12:25:23.999Z</time></trkpt><trkpt lat="43.668669339485554" lon="10.735543467935319"><ele>24.0</ele><time>2026-04-07T12:25:24.999Z</time></trkpt><trkpt lat="43.66866863887477" lon="10.73567751724942"><ele>24.2</ele><time>2026-04-07T12:25:25.999Z</time></trkpt><trkpt lat="43.668653563534406" lon="10.735816725330597"><ele>24.4</ele><time>2026-04-07T12:25:26.999Z</time></trkpt><trkpt lat="43.66862369654878" lon="10.735971702952327"><ele>24.6</ele><time>2026-04-07T12:25:27.999Z</time></trkpt><trkpt lat="43.6685864193131" lon="10.736114478700873"><ele>24.8</ele><time>2026-04-07T12:25:28.999Z</time></trkpt><trkpt lat="43.66854540744668" lon="10.736240036983002"><ele>25.0</ele><time>2026-04-07T12:25:29.999Z</time></trkpt><trkpt lat="43.66849129551458" lon="10.736371047716954"><ele>25.75</ele><time>2026-04-07T12:25:30.999Z</time></trkpt><trkpt lat="43.66842340314609" lon="10.73652026586962"><ele>26.5</ele><time>2026-04-07T12:25:31.999Z</time></trkpt><trkpt lat="43.66834713366547" lon="10.736673676321837"><ele>27.25</ele><time>2026-04-07T12:25:32.999Z</time></trkpt><trkpt lat="43.668275321947235" lon="10.736806464046266"><ele>28.0</ele><time>2026-04-07T12:25:33.999Z</time></trkpt><trkpt lat="43.66820678626709" lon="10.73694010432494"><ele>28.0</ele><time>2026-04-07T12:25:34.999Z</time></trkpt><trkpt lat="43.6681326219334" lon="10.73708184556491"><ele>28.0</ele><time>2026-04-07T12:25:35.999Z</time></trkpt><trkpt lat="43.66806662060727" lon="10.73720669766371"><ele>28.0</ele><time>2026-04-07T12:25:36.999Z</time></trkpt><trkpt lat="43.66800539154319" lon="10.737324814908595"><ele>28.0</ele><time>2026-04-07T12:25:37.999Z</time></trkpt><trkpt lat="43.667941081203985" lon="10.737454207585788"><ele>28.0</ele><time>2026-04-07T12:25:38.999Z</time></trkpt><trkpt lat="43.66786924321443" lon="10.737599064042833"><ele>28.0</ele><time>2026-04-07T12:25:39.999Z</time></trkpt><trkpt lat="43.66778990835004" lon="10.737765901323675"><ele>28.0</ele><time>2026-04-07T12:25:40.999Z</time></trkpt><trkpt lat="43.66771387407577" lon="10.73791890092673"><ele>28.0</ele><time>2026-04-07T12:25:41.999Z</time></trkpt><trkpt lat="43.667643450007816" lon="10.73805901898567"><ele>28.0</ele><time>2026-04-07T12:25:42.999Z</time></trkpt><trkpt lat="43.667573942721745" lon="10.738190572976587"><ele>28.0</ele><time>2026-04-07T12:25:43.999Z</time></trkpt><trkpt lat="43.667500412019365" lon="10.738341296011086"><ele>28.0</ele><time>2026-04-07T12:25:45Z</time></trkpt><trkpt lat="43.66741450202738" lon="10.738505264893838"><ele>28.0</ele><time>2026-04-07T12:25:46Z</time></trkpt><trkpt lat="43.667330561598234" lon="10.738676184685843"><ele>28.0</ele><time>2026-04-07T12:25:47Z</time></trkpt><trkpt lat="43.66724843130442" lon="10.73883851097284"><ele>28.0</ele><time>2026-04-07T12:25:48Z</time></trkpt><trkpt lat="43.66716443905166" lon="10.739001798824887"><ele>28.0</ele><time>2026-04-07T12:25:49Z</time></trkpt><trkpt lat="43.66708767123145" lon="10.739150330945431"><ele>28.0</ele><time>2026-04-07T12:25:50Z</time></trkpt><trkpt lat="43.66701605639949" lon="10.739292816552986"><ele>29.5</ele><time>2026-04-07T12:25:51Z</time></trkpt><trkpt lat="43.666940274467954" lon="10.739434487637787"><ele>31.0</ele><time>2026-04-07T12:25:52Z</time></trkpt><trkpt lat="43.66686804096961" lon="10.739582422552731"><ele>32.5</ele><time>2026-04-07T12:25:53Z</time></trkpt><trkpt lat="43.66679561891024" lon="10.739736854324663"><ele>34.0</ele><time>2026-04-07T12:25:54Z</time></trkpt><trkpt lat="43.66671508783245" lon="10.739889837134724"><ele>34.0</ele><time>2026-04-07T12:25:55Z</time></trkpt><trkpt lat="43.6666369771666" lon="10.74005078370651"><ele>34.0</ele><time>2026-04-07T12:25:56Z</time></trkpt><trkpt lat="43.66656011332052" lon="10.740204564822413"><ele>34.0</ele><time>2026-04-07T12:25:57Z</time></trkpt><trkpt lat="43.66648779200877" lon="10.740351355346508"><ele>34.0</ele><time>2026-04-07T12:25:58Z</time></trkpt><trkpt lat="43.66640934423095" lon="10.74049891735385"><ele>32.5</ele><time>2026-04-07T12:25:59Z</time></trkpt><trkpt lat="43.666332205602686" lon="10.740650659977169"><ele>31.0</ele><time>2026-04-07T12:26:00Z</time></trkpt><trkpt lat="43.666252790799454" lon="10.740802089775887"><ele>29.5</ele><time>2026-04-07T12:26:01Z</time></trkpt><trkpt lat="43.66617570612065" lon="10.740938598294582"><ele>28.0</ele><time>2026-04-07T12:26:02Z</time></trkpt><trkpt lat="43.666092069251704" lon="10.74107499929301"><ele>27.75</ele><time>2026-04-07T12:26:03Z</time></trkpt><trkpt lat="43.66598227090895" lon="10.741186716009341"><ele>27.5</ele><time>2026-04-07T12:26:04Z</time></trkpt><trkpt lat="43.66587948166085" lon="10.741305703678307"><ele>27.25</ele><time>2026-04-07T12:26:05Z</time></trkpt><trkpt lat="43.665782642524356" lon="10.741409572751786"><ele>27.0</ele><time>2026-04-07T12:26:06Z</time></trkpt><trkpt lat="43.665688293925434" lon="10.741524863023164"><ele>27.0</ele><time>2026-04-07T12:26:07Z</time></trkpt><trkpt lat="43.665583101989704" lon="10.741633354127217"><ele>27.0</ele><time>2026-04-07T12:26:08Z</time></trkpt><trkpt lat="43.66548575339536" lon="10.741735237368074"><ele>27.0</ele><time>2026-04-07T12:26:09Z</time></trkpt><trkpt lat="43.66538692195073" lon="10.741842707151589"><ele>27.0</ele><time>2026-04-07T12:26:10Z</time></trkpt><trkpt lat="43.66528393345163" lon="10.741968025506"><ele>28.0</ele><time>2026-04-07T12:26:11Z</time></trkpt><trkpt lat="43.66519252863318" lon="10.742100146304388"><ele>29.0</ele><time>2026-04-07T12:26:12Z</time></trkpt><trkpt lat="43.665116446718294" lon="10.742229504617717"><ele>30.0</ele><time>2026-04-07T12:26:13Z</time></trkpt><trkpt lat="43.665039231286855" lon="10.742371106774621"><ele>31.0</ele><time>2026-04-07T12:26:14Z</time></trkpt><trkpt lat="43.66495451289796" lon="10.742521651149582"><ele>31.0</ele><time>2026-04-07T12:26:15Z</time></trkpt><trkpt lat="43.66487880050416" lon="10.742667428540127"><ele>31.0</ele><time>2026-04-07T12:26:16Z</time></trkpt><trkpt lat="43.664803097438956" lon="10.742810650325783"><ele>31.0</ele><time>2026-04-07T12:26:17Z</time></trkpt><trkpt lat="43.6647270774232" lon="10.74295623181747"><ele>31.0</ele><time>2026-04-07T12:26:18Z</time></trkpt><trkpt lat="43.66466458118848" lon="10.743095651661298"><ele>30.4</ele><time>2026-04-07T12:26:19Z</time></trkpt><trkpt lat="43.66461741632833" lon="10.743248690619955"><ele>29.8</ele><time>2026-04-07T12:26:20Z</time></trkpt><trkpt lat="43.664583027169165" lon="10.74340622151935"><ele>29.199999999999996</ele><time>2026-04-07T12:26:21Z</time></trkpt><trkpt lat="43.664564436387856" lon="10.743550792544799"><ele>28.599999999999998</ele><time>2026-04-07T12:26:22Z</time></trkpt><trkpt lat="43.664562133129216" lon="10.743692267432076"><ele>28.0</ele><time>2026-04-07T12:26:23Z</time></trkpt><trkpt lat="43.66456726069141" lon="10.743844674905066"><ele>28.0</ele><time>2026-04-07T12:26:24Z</time></trkpt><trkpt lat="43.6645840395352" lon="10.744012683285051"><ele>28.0</ele><time>2026-04-07T12:26:25Z</time></trkpt><trkpt lat="43.6646088980422" lon="10.744172361314334"><ele>28.0</ele><time>2026-04-07T12:26:26Z</time></trkpt><trkpt lat="43.664640805681586" lon="10.744318802202848"><ele>28.0</ele><time>2026-04-07T12:26:27Z</time></trkpt><trkpt lat="43.664676210906315" lon="10.744470323407006"><ele>28.2</ele><time>2026-04-07T12:26:28Z</time></trkpt><trkpt lat="43.66470996750993" lon="10.744625701826902"><ele>28.4</ele><time>2026-04-07T12:26:29Z</time></trkpt><trkpt lat="43.66473246101963" lon="10.744767522924517"><ele>28.599999999999998</ele><time>2026-04-07T12:26:30Z</time></trkpt><trkpt lat="43.66474669830669" lon="10.744905844738744"><ele>28.799999999999997</ele><time>2026-04-07T12:26:31Z</time></trkpt><trkpt lat="43.66474959127214" lon="10.745057124716142"><ele>29.0</ele><time>2026-04-07T12:26:32Z</time></trkpt><trkpt lat="43.66473954459292" lon="10.745223937873483"><ele>29.0</ele><time>2026-04-07T12:26:33Z</time></trkpt><trkpt lat="43.66471759525889" lon="10.745398517200352"><ele>29.0</ele><time>2026-04-07T12:26:34Z</time></trkpt><trkpt lat="43.66468816465253" lon="10.745552801052524"><ele>29.0</ele><time>2026-04-07T12:26:35Z</time></trkpt><trkpt lat="43.66466065057674" lon="10.745692320512559"><ele>29.0</ele><time>2026-04-07T12:26:36Z</time></trkpt><trkpt lat="43.664630483964345" lon="10.745825150196943"><ele>29.0</ele><time>2026-04-07T12:26:37Z</time></trkpt><trkpt lat="43.664590739836434" lon="10.745958199247355"><ele>28.75</ele><time>2026-04-07T12:26:38Z</time></trkpt><trkpt lat="43.664533185729205" lon="10.746093203946398"><ele>28.5</ele><time>2026-04-07T12:26:39Z</time></trkpt><trkpt lat="43.66446978291503" lon="10.746211494154512"><ele>28.25</ele><time>2026-04-07T12:26:40Z</time></trkpt><trkpt lat="43.664397089634036" lon="10.746329687887053"><ele>28.0</ele><time>2026-04-07T12:26:41Z</time></trkpt><trkpt lat="43.66431505333122" lon="10.74645340270587"><ele>28.5</ele><time>2026-04-07T12:26:42Z</time></trkpt><trkpt lat="43.66422699178491" lon="10.746581373745462"><ele>29.0</ele><time>2026-04-07T12:26:43Z</time></trkpt><trkpt lat="43.6641355862774" lon="10.746692107741822"><ele>29.5</ele><time>2026-04-07T12:26:44Z</time></trkpt><trkpt lat="43.664047493274765" lon="10.746814418182595"><ele>30.0</ele><time>2026-04-07T12:26:45Z</time></trkpt><trkpt lat="43.66395580907089" lon="10.746943361054347"><ele>30.0</ele><time>2026-04-07T12:26:46Z</time></trkpt><trkpt lat="43.663863283153376" lon="10.74707438615007"><ele>30.0</ele><time>2026-04-07T12:26:47Z</time></trkpt><trkpt lat="43.66377758102631" lon="10.747196931991082"><ele>30.0</ele><time>2026-04-07T12:26:48Z</time></trkpt><trkpt lat="43.663699286667324" lon="10.747313757001523"><ele>30.0</ele><time>2026-04-07T12:26:49Z</time></trkpt><trkpt lat="43.66362283375096" lon="10.74742786208177"><ele>30.25</ele><time>2026-04-07T12:26:50Z</time></trkpt><trkpt lat="43.66354279565222" lon="10.747539288365507"><ele>30.5</ele><time>2026-04-07T12:26:50.999Z</time></trkpt><trkpt lat="43.663461370610655" lon="10.747650652807607"><ele>30.75</ele><time>2026-04-07T12:26:51.999Z</time></trkpt><trkpt lat="43.663381377455885" lon="10.747763350599175"><ele>31.0</ele><time>2026-04-07T12:26:52.999Z</time></trkpt><trkpt lat="43.66330573646273" lon="10.747871393137343"><ele>31.0</ele><time>2026-04-07T12:26:53.999Z</time></trkpt><trkpt lat="43.66322412782971" lon="10.747983729139124"><ele>31.0</ele><time>2026-04-07T12:26:54.999Z</time></trkpt><trkpt lat="43.66313415980409" lon="10.748107278112164"><ele>31.0</ele><time>2026-04-07T12:26:55.999Z</time></trkpt><trkpt lat="43.6630373694865" lon="10.748244150883082"><ele>31.0</ele><time>2026-04-07T12:26:56.999Z</time></trkpt><trkpt lat="43.662952321022026" lon="10.74836908201955"><ele>31.0</ele><time>2026-04-07T12:26:57.999Z</time></trkpt><trkpt lat="43.662871783477144" lon="10.748481960305634"><ele>31.0</ele><time>2026-04-07T12:26:58.999Z</time></trkpt><trkpt lat="43.66278792487867" lon="10.748601805055308"><ele>31.0</ele><time>2026-04-07T12:26:59.999Z</time></trkpt><trkpt lat="43.66270308111184" lon="10.748721571983463"><ele>31.0</ele><time>2026-04-07T12:27:00.999Z</time></trkpt><trkpt lat="43.66262005292314" lon="10.748826876010119"><ele>31.0</ele><time>2026-04-07T12:27:01.999Z</time></trkpt><trkpt lat="43.66253155088332" lon="10.748929964120453"><ele>31.0</ele><time>2026-04-07T12:27:02.999Z</time></trkpt><trkpt lat="43.66243436201279" lon="10.749030483687399"><ele>31.0</ele><time>2026-04-07T12:27:03.999Z</time></trkpt><trkpt lat="43.6623267078576" lon="10.749127393971898"><ele>31.0</ele><time>2026-04-07T12:27:04.999Z</time></trkpt><trkpt lat="43.662219172159716" lon="10.749209573506214"><ele>31.0</ele><time>2026-04-07T12:27:05.999Z</time></trkpt><trkpt lat="43.66211825113007" lon="10.74927947115459"><ele>31.0</ele><time>2026-04-07T12:27:06.999Z</time></trkpt><trkpt lat="43.66201355888314" lon="10.749346075436947"><ele>31.0</ele><time>2026-04-07T12:27:07.999Z</time></trkpt><trkpt lat="43.66190291266257" lon="10.749417183937894"><ele>31.0</ele><time>2026-04-07T12:27:08.999Z</time></trkpt><trkpt lat="43.66179093872453" lon="10.749486808792657"><ele>31.200000000000003</ele><time>2026-04-07T12:27:09.999Z</time></trkpt><trkpt lat="43.66168942594264" lon="10.749553250860755"><ele>31.400000000000002</ele><time>2026-04-07T12:27:10.999Z</time></trkpt><trkpt lat="43.661598582191246" lon="10.749614200125125"><ele>31.6</ele><time>2026-04-07T12:27:11.999Z</time></trkpt><trkpt lat="43.66151649472866" lon="10.749657117862501"><ele>31.8</ele><time>2026-04-07T12:27:12.999Z</time></trkpt><trkpt lat="43.661446905739645" lon="10.74971892830697"><ele>32.0</ele><time>2026-04-07T12:27:13.999Z</time></trkpt><trkpt lat="43.66138121460802" lon="10.74979889344558"><ele>32.0</ele><time>2026-04-07T12:27:14.999Z</time></trkpt><trkpt lat="43.661322534411305" lon="10.749886314136123"><ele>32.0</ele><time>2026-04-07T12:27:15.999Z</time></trkpt><trkpt lat="43.66127398624884" lon="10.749968728577915"><ele>32.0</ele><time>2026-04-07T12:27:16.999Z</time></trkpt><trkpt lat="43.66123235617708" lon="10.750047375824654"><ele>32.0</ele><time>2026-04-07T12:27:17.999Z</time></trkpt><trkpt lat="43.661177219539624" lon="10.750110254972737"><ele>32.0</ele><time>2026-04-07T12:27:18.999Z</time></trkpt><trkpt lat="43.66102503974243" lon="10.750204670142274"><ele>33.0</ele><time>2026-04-07T12:27:20.999Z</time></trkpt><trkpt lat="43.660906081157236" lon="10.750211516577641"><ele>34.0</ele><time>2026-04-07T12:27:21.999Z</time></trkpt><trkpt lat="43.660764655218735" lon="10.750246780687483"><ele>35.0</ele><time>2026-04-07T12:27:22.999Z</time></trkpt><trkpt lat="43.66059521156314" lon="10.750296480965066"><ele>36.0</ele><time>2026-04-07T12:27:23.999Z</time></trkpt><trkpt lat="43.66041303942021" lon="10.750364393410868"><ele>36.333333333333336</ele><time>2026-04-07T12:27:24.999Z</time></trkpt><trkpt lat="43.66021399541603" lon="10.750420081092841"><ele>36.66666666666667</ele><time>2026-04-07T12:27:25.999Z</time></trkpt><trkpt lat="43.66000301972938" lon="10.75048620882804"><ele>37.0</ele><time>2026-04-07T12:27:26.999Z</time></trkpt><trkpt lat="43.6597839651081" lon="10.750551766476663"><ele>37.0</ele><time>2026-04-07T12:27:27.999Z</time></trkpt><trkpt lat="43.65955357773412" lon="10.750625331023441"><ele>37.0</ele><time>2026-04-07T12:27:28.999Z</time></trkpt><trkpt lat="43.659330995838516" lon="10.750697096027892"><ele>36.66666666666667</ele><time>2026-04-07T12:27:29.999Z</time></trkpt><trkpt lat="43.65912958381132" lon="10.750758598904543"><ele>36.333333333333336</ele><time>2026-04-07T12:27:30.999Z</time></trkpt><trkpt lat="43.65893733814511" lon="10.750816952537548"><ele>36.0</ele><time>2026-04-07T12:27:31.999Z</time></trkpt><trkpt lat="43.658759111816515" lon="10.750870350537756"><ele>35.333333333333336</ele><time>2026-04-07T12:27:32.999Z</time></trkpt><trkpt lat="43.65857836162392" lon="10.750927597906163"><ele>34.66666666666667</ele><time>2026-04-07T12:27:33.999Z</time></trkpt><trkpt lat="43.65839435948758" lon="10.75099184815802"><ele>34.0</ele><time>2026-04-07T12:27:34.999Z</time></trkpt><trkpt lat="43.65820508937621" lon="10.751067842918495"><ele>34.0</ele><time>2026-04-07T12:27:35.999Z</time></trkpt><trkpt lat="43.65801692536731" lon="10.751154944904563"><ele>34.0</ele><time>2026-04-07T12:27:36.999Z</time></trkpt><trkpt lat="43.65782838788289" lon="10.751252285043151"><ele>34.0</ele><time>2026-04-07T12:27:37.999Z</time></trkpt><trkpt lat="43.6576402400454" lon="10.751356633152362"><ele>34.66666666666667</ele><time>2026-04-07T12:27:38.999Z</time></trkpt><trkpt lat="43.65747143484242" lon="10.751451353725589"><ele>35.333333333333336</ele><time>2026-04-07T12:27:39.999Z</time></trkpt><trkpt lat="43.65731201104366" lon="10.751543100744271"><ele>36.0</ele><time>2026-04-07T12:27:40.999Z</time></trkpt><trkpt lat="43.65715594170918" lon="10.751630383064624"><ele>36.0</ele><time>2026-04-07T12:27:41.999Z</time></trkpt><trkpt lat="43.65699571590383" lon="10.751722420717975"><ele>36.0</ele><time>2026-04-07T12:27:42.999Z</time></trkpt><trkpt lat="43.65683215070184" lon="10.751814980709181"><ele>36.0</ele><time>2026-04-07T12:27:43.999Z</time></trkpt><trkpt lat="43.656663586285596" lon="10.751908349423449"><ele>36.666666666666664</ele><time>2026-04-07T12:27:44.999Z</time></trkpt><trkpt lat="43.65649230588582" lon="10.752002697915525"><ele>37.33333333333333</ele><time>2026-04-07T12:27:45.999Z</time></trkpt><trkpt lat="43.65631825083173" lon="10.752098456910577"><ele>38.0</ele><time>2026-04-07T12:27:46.999Z</time></trkpt><trkpt lat="43.65615664854287" lon="10.752187910660991"><ele>38.0</ele><time>2026-04-07T12:27:47.999Z</time></trkpt><trkpt lat="43.656002909729786" lon="10.752278836746985"><ele>38.0</ele><time>2026-04-07T12:27:48.999Z</time></trkpt><trkpt lat="43.65585117588672" lon="10.752366409040059"><ele>38.0</ele><time>2026-04-07T12:27:49.999Z</time></trkpt><trkpt lat="43.6557014356343" lon="10.752452540589866"><ele>38.0</ele><time>2026-04-07T12:27:51Z</time></trkpt><trkpt lat="43.65554379299198" lon="10.752546129740512"><ele>38.0</ele><time>2026-04-07T12:27:52Z</time></trkpt><trkpt lat="43.65537650993957" lon="10.752652015316631"><ele>38.0</ele><time>2026-04-07T12:27:53Z</time></trkpt><trkpt lat="43.65520112562841" lon="10.752767268798996"><ele>37.0</ele><time>2026-04-07T12:27:54Z</time></trkpt><trkpt lat="43.655019222372346" lon="10.752887980200365"><ele>36.0</ele><time>2026-04-07T12:27:55Z</time></trkpt><trkpt lat="43.6548371046025" lon="10.753013531197993"><ele>35.0</ele><time>2026-04-07T12:27:56Z</time></trkpt><trkpt lat="43.654668807302784" lon="10.753136919807517"><ele>35.0</ele><time>2026-04-07T12:27:57Z</time></trkpt><trkpt lat="43.65450604113415" lon="10.753255666369176"><ele>35.0</ele><time>2026-04-07T12:27:58Z</time></trkpt><trkpt lat="43.6543388154863" lon="10.753375018938428"><ele>35.0</ele><time>2026-04-07T12:27:59Z</time></trkpt><trkpt lat="43.65416777832337" lon="10.753499881810646"><ele>35.33333333333333</ele><time>2026-04-07T12:28:00Z</time></trkpt><trkpt lat="43.65399410199227" lon="10.753627095621402"><ele>35.666666666666664</ele><time>2026-04-07T12:28:01Z</time></trkpt><trkpt lat="43.65382124126665" lon="10.753753459902333"><ele>36.0</ele><time>2026-04-07T12:28:02Z</time></trkpt><trkpt lat="43.65365977478536" lon="10.753868201526448"><ele>39.666666666666664</ele><time>2026-04-07T12:28:03Z</time></trkpt><trkpt lat="43.65350824591858" lon="10.753976418653453"><ele>43.33333333333333</ele><time>2026-04-07T12:28:04Z</time></trkpt><trkpt lat="43.653356991165325" lon="10.75408834383601"><ele>47.0</ele><time>2026-04-07T12:28:05Z</time></trkpt><trkpt lat="43.65320363099091" lon="10.754202744992368"><ele>47.0</ele><time>2026-04-07T12:28:06Z</time></trkpt><trkpt lat="43.65304781384309" lon="10.754316217991597"><ele>47.0</ele><time>2026-04-07T12:28:07Z</time></trkpt><trkpt lat="43.65288814357803" lon="10.754430636758599"><ele>47.0</ele><time>2026-04-07T12:28:08Z</time></trkpt><trkpt lat="43.65272443743705" lon="10.754547673909547"><ele>47.33333333333333</ele><time>2026-04-07T12:28:09Z</time></trkpt><trkpt lat="43.652557668633" lon="10.754664050748948"><ele>47.666666666666664</ele><time>2026-04-07T12:28:10Z</time></trkpt><trkpt lat="43.65239083081514" lon="10.754784614125196"><ele>48.0</ele><time>2026-04-07T12:28:11Z</time></trkpt><trkpt lat="43.65222295472847" lon="10.754905580719194"><ele>48.0</ele><time>2026-04-07T12:28:12Z</time></trkpt><trkpt lat="43.6520555832657" lon="10.755029416295088"><ele>48.0</ele><time>2026-04-07T12:28:13Z</time></trkpt><trkpt lat="43.65189376209106" lon="10.755142928601718"><ele>48.0</ele><time>2026-04-07T12:28:14Z</time></trkpt><trkpt lat="43.65174480985173" lon="10.755257959255042"><ele>47.333333333333336</ele><time>2026-04-07T12:28:15Z</time></trkpt><trkpt lat="43.65159719493052" lon="10.755388759280507"><ele>46.66666666666667</ele><time>2026-04-07T12:28:16Z</time></trkpt><trkpt lat="43.6514520298571" lon="10.755541191297874"><ele>46.0</ele><time>2026-04-07T12:28:17Z</time></trkpt><trkpt lat="43.651310757561376" lon="10.755708571527048"><ele>46.0</ele><time>2026-04-07T12:28:18Z</time></trkpt><trkpt lat="43.65116949451538" lon="10.755885205050166"><ele>46.0</ele><time>2026-04-07T12:28:19Z</time></trkpt><trkpt lat="43.651026242462706" lon="10.756070436904857"><ele>46.0</ele><time>2026-04-07T12:28:20Z</time></trkpt><trkpt lat="43.6508779752759" lon="10.756260104598718"><ele>43.66666666666667</ele><time>2026-04-07T12:28:21Z</time></trkpt><trkpt lat="43.650736607115256" lon="10.756435967024336"><ele>41.333333333333336</ele><time>2026-04-07T12:28:22Z</time></trkpt><trkpt lat="43.650600085240775" lon="10.75660238500693"><ele>39.0</ele><time>2026-04-07T12:28:23Z</time></trkpt><trkpt lat="43.65045692302205" lon="10.756767381588343"><ele>39.333333333333336</ele><time>2026-04-07T12:28:24Z</time></trkpt><trkpt lat="43.65030161146236" lon="10.756928245037148"><ele>39.66666666666667</ele><time>2026-04-07T12:28:25Z</time></trkpt><trkpt lat="43.650139052881244" lon="10.757085164686032"><ele>40.0</ele><time>2026-04-07T12:28:26Z</time></trkpt><trkpt lat="43.64996998611838" lon="10.757220958680689"><ele>40.0</ele><time>2026-04-07T12:28:27Z</time></trkpt><trkpt lat="43.64980975705736" lon="10.757351004272262"><ele>40.0</ele><time>2026-04-07T12:28:28Z</time></trkpt><trkpt lat="43.64964941982944" lon="10.757474028965932"><ele>40.0</ele><time>2026-04-07T12:28:29Z</time></trkpt><trkpt lat="43.6494875019684" lon="10.757600838059888"><ele>39.66666666666667</ele><time>2026-04-07T12:28:30Z</time></trkpt><trkpt lat="43.64933239734525" lon="10.757734832556942"><ele>39.333333333333336</ele><time>2026-04-07T12:28:31Z</time></trkpt><trkpt lat="43.64918049182419" lon="10.757884553050353"><ele>39.0</ele><time>2026-04-07T12:28:32Z</time></trkpt><trkpt lat="43.649032672725724" lon="10.758051160338084"><ele>39.0</ele><time>2026-04-07T12:28:33Z</time></trkpt><trkpt lat="43.64887807203551" lon="10.758232922064785"><ele>39.0</ele><time>2026-04-07T12:28:34Z</time></trkpt><trkpt lat="43.64874211214876" lon="10.758408108197091"><ele>39.0</ele><time>2026-04-07T12:28:35Z</time></trkpt><trkpt lat="43.648618364879944" lon="10.758578697195693"><ele>39.333333333333336</ele><time>2026-04-07T12:28:36Z</time></trkpt><trkpt lat="43.64848993483978" lon="10.75874743542295"><ele>39.66666666666667</ele><time>2026-04-07T12:28:37Z</time></trkpt><trkpt lat="43.64835110174371" lon="10.758903513387505"><ele>40.0</ele><time>2026-04-07T12:28:38Z</time></trkpt><trkpt lat="43.64819537907771" lon="10.759038888157653"><ele>40.0</ele><time>2026-04-07T12:28:39Z</time></trkpt><trkpt lat="43.648028251019376" lon="10.759152284279644"><ele>40.0</ele><time>2026-04-07T12:28:40Z</time></trkpt><trkpt lat="43.64785316876127" lon="10.759260085255853"><ele>40.0</ele><time>2026-04-07T12:28:41Z</time></trkpt><trkpt lat="43.64768913461896" lon="10.75935755984374"><ele>40.0</ele><time>2026-04-07T12:28:42Z</time></trkpt><trkpt lat="43.64752914844991" lon="10.759452629102135"><ele>40.0</ele><time>2026-04-07T12:28:43Z</time></trkpt><trkpt lat="43.64736497301001" lon="10.759550481698252"><ele>40.0</ele><time>2026-04-07T12:28:44Z</time></trkpt><trkpt lat="43.64721008920639" lon="10.759643181583726"><ele>40.0</ele><time>2026-04-07T12:28:45Z</time></trkpt><trkpt lat="43.64704541747306" lon="10.759741739692481"><ele>40.0</ele><time>2026-04-07T12:28:46Z</time></trkpt><trkpt lat="43.64688008564587" lon="10.759840692899198"><ele>40.0</ele><time>2026-04-07T12:28:47Z</time></trkpt><trkpt lat="43.64671226414712" lon="10.759941136036495"><ele>40.333333333333336</ele><time>2026-04-07T12:28:48Z</time></trkpt><trkpt lat="43.646546710694444" lon="10.760040221981631"><ele>40.666666666666664</ele><time>2026-04-07T12:28:49Z</time></trkpt><trkpt lat="43.64639393089342" lon="10.760131132072623"><ele>41.0</ele><time>2026-04-07T12:28:50Z</time></trkpt><trkpt lat="43.646248445778305" lon="10.760217517736717"><ele>41.0</ele><time>2026-04-07T12:28:51Z</time></trkpt><trkpt lat="43.64611358067802" lon="10.760297597283692"><ele>41.0</ele><time>2026-04-07T12:28:52Z</time></trkpt><trkpt lat="43.64598718176649" lon="10.760372649783802"><ele>41.0</ele><time>2026-04-07T12:28:53Z</time></trkpt><trkpt lat="43.64586764837033" lon="10.760443625764692"><ele>41.0</ele><time>2026-04-07T12:28:54Z</time></trkpt><trkpt lat="43.64574706670126" lon="10.760515460829383"><ele>41.0</ele><time>2026-04-07T12:28:55Z</time></trkpt><trkpt lat="43.645636979431956" lon="10.760582548847738"><ele>41.0</ele><time>2026-04-07T12:28:56Z</time></trkpt><trkpt lat="43.64553850752968" lon="10.760637971576234"><ele>41.0</ele><time>2026-04-07T12:28:56.999Z</time></trkpt><trkpt lat="43.64547071681281" lon="10.76069822605411"><ele>41.0</ele><time>2026-04-07T12:28:57.999Z</time></trkpt><trkpt lat="43.64540371618577" lon="10.76070855727435"><ele>41.0</ele><time>2026-04-07T12:28:58.999Z</time></trkpt><trkpt lat="43.645334713755645" lon="10.760758916716322"><ele>41.0</ele><time>2026-04-07T12:29:00.999Z</time></trkpt><trkpt lat="43.64539118329869" lon="10.760976740136538"><ele>41.0</ele><time>2026-04-07T12:29:01.999Z</time></trkpt><trkpt lat="43.64544652507239" lon="10.761051535800235"><ele>41.0</ele><time>2026-04-07T12:29:02.999Z</time></trkpt><trkpt lat="43.64553765070625" lon="10.761119432204522"><ele>41.0</ele><time>2026-04-07T12:29:03.999Z</time></trkpt><trkpt lat="43.64565750867498" lon="10.761210251103716"><ele>41.33333333333333</ele><time>2026-04-07T12:29:04.999Z</time></trkpt><trkpt lat="43.64580266208631" lon="10.7613312499239"><ele>41.666666666666664</ele><time>2026-04-07T12:29:05.999Z</time></trkpt><trkpt lat="43.64596736501899" lon="10.761478035258788"><ele>42.0</ele><time>2026-04-07T12:29:06.999Z</time></trkpt><trkpt lat="43.64612702714856" lon="10.761622343734956"><ele>41.333333333333336</ele><time>2026-04-07T12:29:07.999Z</time></trkpt><trkpt lat="43.6462936845253" lon="10.761773047130811"><ele>40.66666666666667</ele><time>2026-04-07T12:29:08.999Z</time></trkpt><trkpt lat="43.64644369893239" lon="10.761908106393747"><ele>40.0</ele><time>2026-04-07T12:29:09.999Z</time></trkpt><trkpt lat="43.64658455122484" lon="10.762036976212197"><ele>40.0</ele><time>2026-04-07T12:29:10.999Z</time></trkpt><trkpt lat="43.64671872541272" lon="10.762156974839742"><ele>40.0</ele><time>2026-04-07T12:29:11.999Z</time></trkpt><trkpt lat="43.64686083311951" lon="10.762285175345083"><ele>40.0</ele><time>2026-04-07T12:29:12.999Z</time></trkpt><trkpt lat="43.647008932600755" lon="10.762419963787275"><ele>40.333333333333336</ele><time>2026-04-07T12:29:13.999Z</time></trkpt><trkpt lat="43.64715039239859" lon="10.7625529738474"><ele>40.666666666666664</ele><time>2026-04-07T12:29:14.999Z</time></trkpt><trkpt lat="43.647276812806005" lon="10.762677524377734"><ele>41.0</ele><time>2026-04-07T12:29:15.999Z</time></trkpt><trkpt lat="43.64738816452067" lon="10.7627959170496"><ele>41.0</ele><time>2026-04-07T12:29:16.999Z</time></trkpt><trkpt lat="43.64749356462026" lon="10.762909899521862"><ele>41.0</ele><time>2026-04-07T12:29:17.999Z</time></trkpt><trkpt lat="43.64760487405549" lon="10.763025883701328"><ele>41.0</ele><time>2026-04-07T12:29:18.999Z</time></trkpt><trkpt lat="43.64771357076891" lon="10.763160970794772"><ele>41.0</ele><time>2026-04-07T12:29:19.999Z</time></trkpt><trkpt lat="43.64779833175552" lon="10.763314627713715"><ele>41.5</ele><time>2026-04-07T12:29:20.999Z</time></trkpt><trkpt lat="43.64784998434918" lon="10.76347955469136"><ele>42.0</ele><time>2026-04-07T12:29:21.999Z</time></trkpt><trkpt lat="43.64786889477879" lon="10.763664002796602"><ele>42.5</ele><time>2026-04-07T12:29:22.999Z</time></trkpt><trkpt lat="43.64785347978222" lon="10.763866112453666"><ele>43.0</ele><time>2026-04-07T12:29:23.999Z</time></trkpt><trkpt lat="43.647784920069974" lon="10.764041215215226"><ele>43.0</ele><time>2026-04-07T12:29:24.999Z</time></trkpt><trkpt lat="43.64769668776424" lon="10.76421213893212"><ele>43.0</ele><time>2026-04-07T12:29:25.999Z</time></trkpt><trkpt lat="43.647590044237" lon="10.764406319957585"><ele>43.0</ele><time>2026-04-07T12:29:26.999Z</time></trkpt><trkpt lat="43.64746883776016" lon="10.764626363598135"><ele>45.0</ele><time>2026-04-07T12:29:27.999Z</time></trkpt><trkpt lat="43.64735772068975" lon="10.764827903566157"><ele>47.0</ele><time>2026-04-07T12:29:28.999Z</time></trkpt><trkpt lat="43.647240349801926" lon="10.765040786561736"><ele>49.0</ele><time>2026-04-07T12:29:29.999Z</time></trkpt><trkpt lat="43.64713141728701" lon="10.765239655656854"><ele>47.33333333333333</ele><time>2026-04-07T12:29:30.999Z</time></trkpt><trkpt lat="43.647022899824194" lon="10.765437799702214"><ele>45.666666666666664</ele><time>2026-04-07T12:29:31.999Z</time></trkpt><trkpt lat="43.64690854697322" lon="10.76564667880324"><ele>44.0</ele><time>2026-04-07T12:29:32.999Z</time></trkpt><trkpt lat="43.6467889458355" lon="10.765862937206034"><ele>47.666666666666664</ele><time>2026-04-07T12:29:33.999Z</time></trkpt><trkpt lat="43.6466700736964" lon="10.766081120163767"><ele>51.33333333333333</ele><time>2026-04-07T12:29:34.999Z</time></trkpt><trkpt lat="43.64655924805613" lon="10.766282400297369"><ele>55.0</ele><time>2026-04-07T12:29:35.999Z</time></trkpt><trkpt lat="43.64645421806567" lon="10.766471571706775"><ele>55.0</ele><time>2026-04-07T12:29:36.999Z</time></trkpt><trkpt lat="43.646351081641825" lon="10.766660719521173"><ele>55.0</ele><time>2026-04-07T12:29:37.999Z</time></trkpt><trkpt lat="43.6462462793684" lon="10.7668545810933"><ele>55.0</ele><time>2026-04-07T12:29:38.999Z</time></trkpt><trkpt lat="43.6461389925031" lon="10.76705303861953"><ele>53.33333333333333</ele><time>2026-04-07T12:29:39.999Z</time></trkpt><trkpt lat="43.64603123926312" lon="10.767249659954643"><ele>51.66666666666667</ele><time>2026-04-07T12:29:40.999Z</time></trkpt><trkpt lat="43.64593119393073" lon="10.767432069222219"><ele>50.0</ele><time>2026-04-07T12:29:41.999Z</time></trkpt><trkpt lat="43.64583352414034" lon="10.767613856857103"><ele>51.0</ele><time>2026-04-07T12:29:42.999Z</time></trkpt><trkpt lat="43.64573138214029" lon="10.767798341216846"><ele>52.0</ele><time>2026-04-07T12:29:43.999Z</time></trkpt><trkpt lat="43.64562515854198" lon="10.767994712454408"><ele>53.0</ele><time>2026-04-07T12:29:44.999Z</time></trkpt><trkpt lat="43.645516727278164" lon="10.768194071704999"><ele>53.0</ele><time>2026-04-07T12:29:45.999Z</time></trkpt><trkpt lat="43.645404198548825" lon="10.768402317510311"><ele>53.0</ele><time>2026-04-07T12:29:46.999Z</time></trkpt><trkpt lat="43.64529671820106" lon="10.768602221479282"><ele>53.0</ele><time>2026-04-07T12:29:47.999Z</time></trkpt><trkpt lat="43.64519657912358" lon="10.768786738611707"><ele>50.66666666666667</ele><time>2026-04-07T12:29:48.999Z</time></trkpt><trkpt lat="43.6451005991652" lon="10.768963702801788"><ele>48.333333333333336</ele><time>2026-04-07T12:29:49.999Z</time></trkpt><trkpt lat="43.645011904693234" lon="10.769129698008465"><ele>46.0</ele><time>2026-04-07T12:29:50.999Z</time></trkpt><trkpt lat="43.64492329403474" lon="10.76929552384269"><ele>47.333333333333336</ele><time>2026-04-07T12:29:51.999Z</time></trkpt><trkpt lat="43.64482762697552" lon="10.769472292403446"><ele>48.66666666666667</ele><time>2026-04-07T12:29:52.999Z</time></trkpt><trkpt lat="43.64472922271185" lon="10.769654118619677"><ele>50.0</ele><time>2026-04-07T12:29:53.999Z</time></trkpt><trkpt lat="43.64462723346884" lon="10.769847465505446"><ele>50.0</ele><time>2026-04-07T12:29:54.999Z</time></trkpt><trkpt lat="43.64452590159329" lon="10.770045139438913"><ele>50.0</ele><time>2026-04-07T12:29:55.999Z</time></trkpt><trkpt lat="43.64442552098372" lon="10.77025652171257"><ele>50.0</ele><time>2026-04-07T12:29:57Z</time></trkpt><trkpt lat="43.64433148969434" lon="10.770482042205888"><ele>50.0</ele><time>2026-04-07T12:29:58Z</time></trkpt><trkpt lat="43.64423844063762" lon="10.770712152028368"><ele>50.0</ele><time>2026-04-07T12:29:59Z</time></trkpt><trkpt lat="43.64414603506373" lon="10.770945086207698"><ele>50.0</ele><time>2026-04-07T12:30:00Z</time></trkpt><trkpt lat="43.644051976183206" lon="10.771182188013283"><ele>50.0</ele><time>2026-04-07T12:30:01Z</time></trkpt><trkpt lat="43.64396557985022" lon="10.771400593018473"><ele>50.0</ele><time>2026-04-07T12:30:02Z</time></trkpt><trkpt lat="43.64388531751977" lon="10.771604006074442"><ele>50.0</ele><time>2026-04-07T12:30:03Z</time></trkpt><trkpt lat="43.643808120123545" lon="10.771799402867403"><ele>49.0</ele><time>2026-04-07T12:30:04Z</time></trkpt><trkpt lat="43.643728459811136" lon="10.772001088694509"><ele>48.0</ele><time>2026-04-07T12:30:05Z</time></trkpt><trkpt lat="43.643644048657414" lon="10.772209261105388"><ele>47.0</ele><time>2026-04-07T12:30:06Z</time></trkpt><trkpt lat="43.643557867169775" lon="10.772421252706666"><ele>47.0</ele><time>2026-04-07T12:30:07Z</time></trkpt><trkpt lat="43.64347051717196" lon="10.772638321316599"><ele>47.0</ele><time>2026-04-07T12:30:08Z</time></trkpt><trkpt lat="43.64338366496843" lon="10.772856557781443"><ele>47.0</ele><time>2026-04-07T12:30:09Z</time></trkpt><trkpt lat="43.643292250140036" lon="10.773079180892704"><ele>48.0</ele><time>2026-04-07T12:30:10Z</time></trkpt><trkpt lat="43.643208385124616" lon="10.773288173981774"><ele>49.0</ele><time>2026-04-07T12:30:11Z</time></trkpt><trkpt lat="43.64312866788749" lon="10.773486830719872"><ele>50.0</ele><time>2026-04-07T12:30:12Z</time></trkpt><trkpt lat="43.64304606119214" lon="10.773689604846268"><ele>49.0</ele><time>2026-04-07T12:30:13Z</time></trkpt><trkpt lat="43.6429619278744" lon="10.773898581813539"><ele>48.0</ele><time>2026-04-07T12:30:14Z</time></trkpt><trkpt lat="43.64287529054857" lon="10.774115374960685"><ele>47.0</ele><time>2026-04-07T12:30:15Z</time></trkpt><trkpt lat="43.642785667561654" lon="10.774337955479812"><ele>49.33333333333333</ele><time>2026-04-07T12:30:16Z</time></trkpt><trkpt lat="43.642697671503996" lon="10.77455399590076"><ele>51.666666666666664</ele><time>2026-04-07T12:30:17Z</time></trkpt><trkpt lat="43.642616835279895" lon="10.774756553978019"><ele>54.0</ele><time>2026-04-07T12:30:18Z</time></trkpt><trkpt lat="43.6425382001234" lon="10.774955242610602"><ele>54.0</ele><time>2026-04-07T12:30:19Z</time></trkpt><trkpt lat="43.64246227578595" lon="10.775163830240427"><ele>54.0</ele><time>2026-04-07T12:30:20Z</time></trkpt><trkpt lat="43.6424012396523" lon="10.775391755158632"><ele>54.0</ele><time>2026-04-07T12:30:21Z</time></trkpt><trkpt lat="43.64235465526585" lon="10.775631259027199"><ele>55.0</ele><time>2026-04-07T12:30:22Z</time></trkpt><trkpt lat="43.64231564075082" lon="10.77586010092014"><ele>56.0</ele><time>2026-04-07T12:30:23Z</time></trkpt><trkpt lat="43.642293670556924" lon="10.776096504705878"><ele>57.0</ele><time>2026-04-07T12:30:24Z</time></trkpt><trkpt lat="43.64229270444882" lon="10.776344437988971"><ele>58.0</ele><time>2026-04-07T12:30:25Z</time></trkpt><trkpt lat="43.64229451459158" lon="10.77660356626679"><ele>59.0</ele><time>2026-04-07T12:30:26Z</time></trkpt><trkpt lat="43.64229516350459" lon="10.776869776332399"><ele>60.0</ele><time>2026-04-07T12:30:27Z</time></trkpt><trkpt lat="43.64229599754139" lon="10.777120363150216"><ele>60.0</ele><time>2026-04-07T12:30:28Z</time></trkpt><trkpt lat="43.64229680960392" lon="10.777364347591885"><ele>60.0</ele><time>2026-04-07T12:30:29Z</time></trkpt><trkpt lat="43.64229604926005" lon="10.777608997085098"><ele>60.0</ele><time>2026-04-07T12:30:30Z</time></trkpt><trkpt lat="43.64229422686715" lon="10.777857839336605"><ele>58.66666666666667</ele><time>2026-04-07T12:30:31Z</time></trkpt><trkpt lat="43.64228014912922" lon="10.778108344019973"><ele>57.333333333333336</ele><time>2026-04-07T12:30:32Z</time></trkpt><trkpt lat="43.642248988701276" lon="10.77835260953137"><ele>56.0</ele><time>2026-04-07T12:30:33Z</time></trkpt><trkpt lat="43.64220680853663" lon="10.77857503556704"><ele>56.0</ele><time>2026-04-07T12:30:34Z</time></trkpt><trkpt lat="43.64216225303543" lon="10.778771388726367"><ele>56.0</ele><time>2026-04-07T12:30:35Z</time></trkpt><trkpt lat="43.64213117360482" lon="10.778950695188954"><ele>56.0</ele><time>2026-04-07T12:30:36Z</time></trkpt><trkpt lat="43.64207350893276" lon="10.779097135537091"><ele>56.0</ele><time>2026-04-07T12:30:37Z</time></trkpt><trkpt lat="43.642049934608686" lon="10.779252039547632"><ele>56.75</ele><time>2026-04-07T12:30:38Z</time></trkpt><trkpt lat="43.642046089053096" lon="10.779403893966714"><ele>57.5</ele><time>2026-04-07T12:30:39Z</time></trkpt><trkpt lat="43.642114507085395" lon="10.779576866291084"><ele>58.25</ele><time>2026-04-07T12:30:40Z</time></trkpt><trkpt lat="43.64217795014687" lon="10.779767843419666"><ele>59.0</ele><time>2026-04-07T12:30:41Z</time></trkpt><trkpt lat="43.64228173407983" lon="10.779961792198893"><ele>59.0</ele><time>2026-04-07T12:30:42Z</time></trkpt><trkpt lat="43.642385668652075" lon="10.780123093585564"><ele>59.0</ele><time>2026-04-07T12:30:43Z</time></trkpt><trkpt lat="43.642490075992356" lon="10.780319365525784"><ele>59.0</ele><time>2026-04-07T12:30:44Z</time></trkpt><trkpt lat="43.64259850246717" lon="10.780528628882559"><ele>57.333333333333336</ele><time>2026-04-07T12:30:45Z</time></trkpt><trkpt lat="43.64269816257244" lon="10.780731140833016"><ele>55.66666666666667</ele><time>2026-04-07T12:30:46Z</time></trkpt><trkpt lat="43.64282136675404" lon="10.780932256914163"><ele>54.0</ele><time>2026-04-07T12:30:47Z</time></trkpt><trkpt lat="43.64293841338781" lon="10.78115029164649"><ele>53.33333333333333</ele><time>2026-04-07T12:30:48Z</time></trkpt><trkpt lat="43.643051118916624" lon="10.781356781166107"><ele>52.666666666666664</ele><time>2026-04-07T12:30:49Z</time></trkpt><trkpt lat="43.643155179889824" lon="10.781543602616848"><ele>52.0</ele><time>2026-04-07T12:30:50Z</time></trkpt><trkpt lat="43.643259276936845" lon="10.781733910555692"><ele>52.0</ele><time>2026-04-07T12:30:51Z</time></trkpt><trkpt lat="43.64336639030386" lon="10.78192575258352"><ele>52.0</ele><time>2026-04-07T12:30:52Z</time></trkpt><trkpt lat="43.64347789836837" lon="10.782129575801218"><ele>52.0</ele><time>2026-04-07T12:30:53Z</time></trkpt><trkpt lat="43.643592343142934" lon="10.782333047448523"><ele>51.666666666666664</ele><time>2026-04-07T12:30:54Z</time></trkpt><trkpt lat="43.64371012685321" lon="10.78253612566678"><ele>51.33333333333333</ele><time>2026-04-07T12:30:55Z</time></trkpt><trkpt lat="43.643828879044925" lon="10.78274631735781"><ele>51.0</ele><time>2026-04-07T12:30:56Z</time></trkpt><trkpt lat="43.643939296658345" lon="10.782950828160683"><ele>50.66666666666667</ele><time>2026-04-07T12:30:57Z</time></trkpt><trkpt lat="43.64403982557938" lon="10.78314548349308"><ele>50.333333333333336</ele><time>2026-04-07T12:30:58Z</time></trkpt><trkpt lat="43.64414265027454" lon="10.783340002439653"><ele>50.0</ele><time>2026-04-07T12:30:59Z</time></trkpt><trkpt lat="43.64424877087295" lon="10.783530627368323"><ele>50.66666666666667</ele><time>2026-04-07T12:31:00Z</time></trkpt><trkpt lat="43.64435510149259" lon="10.7837227266857"><ele>51.33333333333333</ele><time>2026-04-07T12:31:01Z</time></trkpt><trkpt lat="43.644452601744064" lon="10.783902885484872"><ele>52.0</ele><time>2026-04-07T12:31:02Z</time></trkpt><trkpt lat="43.644539483776946" lon="10.784078185142725"><ele>52.0</ele><time>2026-04-07T12:31:03Z</time></trkpt><trkpt lat="43.644608999836535" lon="10.784269410225203"><ele>52.0</ele><time>2026-04-07T12:31:04Z</time></trkpt><trkpt lat="43.64463564953686" lon="10.784487560571154"><ele>52.0</ele><time>2026-04-07T12:31:05Z</time></trkpt><trkpt lat="43.644669262166104" lon="10.784735510428709"><ele>52.0</ele><time>2026-04-07T12:31:05.999Z</time></trkpt><trkpt lat="43.64468701326636" lon="10.784997053790596"><ele>52.0</ele><time>2026-04-07T12:31:06.999Z</time></trkpt><trkpt lat="43.64470396067315" lon="10.785258505488985"><ele>52.0</ele><time>2026-04-07T12:31:07.999Z</time></trkpt><trkpt lat="43.644719473257105" lon="10.785500230451015"><ele>52.0</ele><time>2026-04-07T12:31:08.999Z</time></trkpt><trkpt lat="43.64474935219937" lon="10.785726116125836"><ele>52.0</ele><time>2026-04-07T12:31:09.999Z</time></trkpt><trkpt lat="43.6447470260573" lon="10.785963318921254"><ele>52.0</ele><time>2026-04-07T12:31:10.999Z</time></trkpt><trkpt lat="43.64476195934332" lon="10.78621519134345"><ele>52.0</ele><time>2026-04-07T12:31:11.999Z</time></trkpt><trkpt lat="43.644774453523624" lon="10.78648126975971"><ele>52.0</ele><time>2026-04-07T12:31:12.999Z</time></trkpt><trkpt lat="43.64478265547941" lon="10.786748547688859"><ele>52.0</ele><time>2026-04-07T12:31:13.999Z</time></trkpt><trkpt lat="43.64478446643986" lon="10.787019172058246"><ele>53.33333333333333</ele><time>2026-04-07T12:31:14.999Z</time></trkpt><trkpt lat="43.644783779109325" lon="10.787262584376899"><ele>54.66666666666667</ele><time>2026-04-07T12:31:15.999Z</time></trkpt><trkpt lat="43.64477667204327" lon="10.787499828237326"><ele>56.0</ele><time>2026-04-07T12:31:16.999Z</time></trkpt><trkpt lat="43.64477989387043" lon="10.787748180365488"><ele>56.333333333333336</ele><time>2026-04-07T12:31:17.999Z</time></trkpt><trkpt lat="43.64475908489961" lon="10.787998854603956"><ele>56.66666666666667</ele><time>2026-04-07T12:31:18.999Z</time></trkpt><trkpt lat="43.644737454512054" lon="10.788252465295889"><ele>57.0</ele><time>2026-04-07T12:31:19.999Z</time></trkpt><trkpt lat="43.64470846822403" lon="10.788509914717084"><ele>58.0</ele><time>2026-04-07T12:31:20.999Z</time></trkpt><trkpt lat="43.64466962248224" lon="10.78876866314089"><ele>59.0</ele><time>2026-04-07T12:31:21.999Z</time></trkpt><trkpt lat="43.64462602063973" lon="10.78902709029991"><ele>60.0</ele><time>2026-04-07T12:31:22.999Z</time></trkpt><trkpt lat="43.64458306889157" lon="10.789268067578574"><ele>61.0</ele><time>2026-04-07T12:31:23.999Z</time></trkpt><trkpt lat="43.64454247760827" lon="10.789505861396433"><ele>62.0</ele><time>2026-04-07T12:31:24.999Z</time></trkpt><trkpt lat="43.644501154922" lon="10.789748396169244"><ele>63.0</ele><time>2026-04-07T12:31:25.999Z</time></trkpt><trkpt lat="43.64446065543428" lon="10.78997624368471"><ele>60.66666666666667</ele><time>2026-04-07T12:31:26.999Z</time></trkpt><trkpt lat="43.64441944597243" lon="10.79020845022635"><ele>58.333333333333336</ele><time>2026-04-07T12:31:27.999Z</time></trkpt><trkpt lat="43.64437703476926" lon="10.790448762367177"><ele>56.0</ele><time>2026-04-07T12:31:28.999Z</time></trkpt><trkpt lat="43.64433396766106" lon="10.790694212102018"><ele>56.0</ele><time>2026-04-07T12:31:29.999Z</time></trkpt><trkpt lat="43.64428774677186" lon="10.790943086625093"><ele>56.0</ele><time>2026-04-07T12:31:30.999Z</time></trkpt><trkpt lat="43.644239350052494" lon="10.791198401733224"><ele>56.0</ele><time>2026-04-07T12:31:31.999Z</time></trkpt><trkpt lat="43.64419098114104" lon="10.79146040556632"><ele>56.333333333333336</ele><time>2026-04-07T12:31:32.999Z</time></trkpt><trkpt lat="43.64414441412204" lon="10.791730582283487"><ele>56.66666666666667</ele><time>2026-04-07T12:31:33.999Z</time></trkpt><trkpt lat="43.644101794158445" lon="10.791993781698785"><ele>57.0</ele><time>2026-04-07T12:31:34.999Z</time></trkpt><trkpt lat="43.644063209668026" lon="10.792235872666138"><ele>58.33333333333333</ele><time>2026-04-07T12:31:35.999Z</time></trkpt><trkpt lat="43.64402487295415" lon="10.792459897512543"><ele>59.666666666666664</ele><time>2026-04-07T12:31:36.999Z</time></trkpt><trkpt lat="43.64398432737283" lon="10.792687860163715"><ele>61.0</ele><time>2026-04-07T12:31:37.999Z</time></trkpt><trkpt lat="43.64394311750216" lon="10.792924302476674"><ele>62.33333333333333</ele><time>2026-04-07T12:31:38.999Z</time></trkpt><trkpt lat="43.64390269666041" lon="10.793146757684429"><ele>63.66666666666667</ele><time>2026-04-07T12:31:39.999Z</time></trkpt><trkpt lat="43.64386300049281" lon="10.793371441678689"><ele>65.0</ele><time>2026-04-07T12:31:40.999Z</time></trkpt><trkpt lat="43.643822271107965" lon="10.793599110108405"><ele>68.66666666666667</ele><time>2026-04-07T12:31:41.999Z</time></trkpt><trkpt lat="43.64377930461724" lon="10.793835247347092"><ele>72.33333333333333</ele><time>2026-04-07T12:31:42.999Z</time></trkpt><trkpt lat="43.64374100881607" lon="10.794067835370738"><ele>76.0</ele><time>2026-04-07T12:31:43.999Z</time></trkpt><trkpt lat="43.64370554741247" lon="10.794284842499899"><ele>78.33333333333333</ele><time>2026-04-07T12:31:44.999Z</time></trkpt><trkpt lat="43.64366913372929" lon="10.794501271693965"><ele>80.66666666666667</ele><time>2026-04-07T12:31:45.999Z</time></trkpt><trkpt lat="43.643634824947796" lon="10.7947014712721"><ele>83.0</ele><time>2026-04-07T12:31:46.999Z</time></trkpt><trkpt lat="43.6436005485637" lon="10.794889396882425"><ele>78.25</ele><time>2026-04-07T12:31:47.999Z</time></trkpt><trkpt lat="43.6435716921856" lon="10.795077604210483"><ele>73.5</ele><time>2026-04-07T12:31:48.999Z</time></trkpt><trkpt lat="43.643554696969936" lon="10.795274262937177"><ele>68.75</ele><time>2026-04-07T12:31:49.999Z</time></trkpt><trkpt lat="43.64355007707579" lon="10.795485422866975"><ele>64.0</ele><time>2026-04-07T12:31:50.999Z</time></trkpt><trkpt lat="43.64356082725049" lon="10.795708927848805"><ele>64.0</ele><time>2026-04-07T12:31:51.999Z</time></trkpt><trkpt lat="43.643583009376385" lon="10.795937427598448"><ele>64.0</ele><time>2026-04-07T12:31:52.999Z</time></trkpt><trkpt lat="43.64362233962362" lon="10.796179407197828"><ele>64.0</ele><time>2026-04-07T12:31:53.999Z</time></trkpt><trkpt lat="43.64366994128853" lon="10.796425234478166"><ele>67.0</ele><time>2026-04-07T12:31:54.999Z</time></trkpt><trkpt lat="43.643711824399745" lon="10.796649987011937"><ele>70.0</ele><time>2026-04-07T12:31:55.999Z</time></trkpt><trkpt lat="43.643755401014346" lon="10.796872663554069"><ele>73.0</ele><time>2026-04-07T12:31:56.999Z</time></trkpt><trkpt lat="43.643801020504775" lon="10.79710636176273"><ele>73.0</ele><time>2026-04-07T12:31:57.999Z</time></trkpt><trkpt lat="43.64384501575275" lon="10.7973486473292"><ele>73.0</ele><time>2026-04-07T12:31:58.999Z</time></trkpt><trkpt lat="43.64387969402536" lon="10.79758404047303"><ele>73.0</ele><time>2026-04-07T12:31:59.999Z</time></trkpt><trkpt lat="43.643906190047545" lon="10.797815097818503"><ele>73.0</ele><time>2026-04-07T12:32:00.999Z</time></trkpt><trkpt lat="43.643926212310745" lon="10.798057088103507"><ele>73.0</ele><time>2026-04-07T12:32:01.999Z</time></trkpt><trkpt lat="43.64394655496442" lon="10.7983132664909"><ele>73.0</ele><time>2026-04-07T12:32:03Z</time></trkpt><trkpt lat="43.64396641412771" lon="10.798585031915595"><ele>73.0</ele><time>2026-04-07T12:32:04Z</time></trkpt><trkpt lat="43.643982967812036" lon="10.798858186247452"><ele>73.0</ele><time>2026-04-07T12:32:05Z</time></trkpt><trkpt lat="43.6439990189416" lon="10.799110059392792"><ele>73.0</ele><time>2026-04-07T12:32:06Z</time></trkpt><trkpt lat="43.64401506315475" lon="10.799352769454519"><ele>73.33333333333333</ele><time>2026-04-07T12:32:07Z</time></trkpt><trkpt lat="43.644031358267405" lon="10.799595886761903"><ele>73.66666666666667</ele><time>2026-04-07T12:32:08Z</time></trkpt><trkpt lat="43.64404843119933" lon="10.799843492820074"><ele>74.0</ele><time>2026-04-07T12:32:09Z</time></trkpt><trkpt lat="43.64406709599626" lon="10.80009952229071"><ele>73.66666666666667</ele><time>2026-04-07T12:32:10Z</time></trkpt><trkpt lat="43.644084921050485" lon="10.800354460769423"><ele>73.33333333333333</ele><time>2026-04-07T12:32:11Z</time></trkpt><trkpt lat="43.644101323299935" lon="10.80059391942505"><ele>73.0</ele><time>2026-04-07T12:32:12Z</time></trkpt><trkpt lat="43.644117358803136" lon="10.800823935380235"><ele>75.0</ele><time>2026-04-07T12:32:13Z</time></trkpt><trkpt lat="43.64413310948074" lon="10.8010477782488"><ele>77.0</ele><time>2026-04-07T12:32:14Z</time></trkpt><trkpt lat="43.6441459750292" lon="10.801258966697956"><ele>79.0</ele><time>2026-04-07T12:32:15Z</time></trkpt><trkpt lat="43.644141031121" lon="10.801466934334464"><ele>79.0</ele><time>2026-04-07T12:32:16Z</time></trkpt><trkpt lat="43.6441209843525" lon="10.801682510246765"><ele>79.0</ele><time>2026-04-07T12:32:17Z</time></trkpt><trkpt lat="43.644067522930854" lon="10.801905176154895"><ele>79.0</ele><time>2026-04-07T12:32:18Z</time></trkpt><trkpt lat="43.6439876516548" lon="10.802124908691308"><ele>82.0</ele><time>2026-04-07T12:32:19Z</time></trkpt><trkpt lat="43.64389418985611" lon="10.802333058319729"><ele>85.0</ele><time>2026-04-07T12:32:20Z</time></trkpt><trkpt lat="43.64380315245355" lon="10.802546852084328"><ele>88.0</ele><time>2026-04-07T12:32:21Z</time></trkpt><trkpt lat="43.643714076435394" lon="10.80276767886799"><ele>82.66666666666666</ele><time>2026-04-07T12:32:22Z</time></trkpt><trkpt lat="43.643619979990135" lon="10.802995496107256"><ele>77.33333333333333</ele><time>2026-04-07T12:32:23Z</time></trkpt><trkpt lat="43.64352369648671" lon="10.80322214991723"><ele>72.0</ele><time>2026-04-07T12:32:24Z</time></trkpt><trkpt lat="43.64343559489237" lon="10.803433200746396"><ele>75.33333333333333</ele><time>2026-04-07T12:32:25Z</time></trkpt><trkpt lat="43.64335196367264" lon="10.803631723542491"><ele>78.66666666666666</ele><time>2026-04-07T12:32:26Z</time></trkpt><trkpt lat="43.6432696978647" lon="10.8038196253673"><ele>82.0</ele><time>2026-04-07T12:32:27Z</time></trkpt><trkpt lat="43.643188720685984" lon="10.804005804041166"><ele>82.0</ele><time>2026-04-07T12:32:28Z</time></trkpt><trkpt lat="43.643104080287934" lon="10.80420428126775"><ele>82.0</ele><time>2026-04-07T12:32:29Z</time></trkpt><trkpt lat="43.64302433429458" lon="10.804397897444023"><ele>82.0</ele><time>2026-04-07T12:32:30Z</time></trkpt><trkpt lat="43.64295485324285" lon="10.804585277123904"><ele>84.66666666666666</ele><time>2026-04-07T12:32:31Z</time></trkpt><trkpt lat="43.642903438231784" lon="10.804796964808556"><ele>87.33333333333333</ele><time>2026-04-07T12:32:32Z</time></trkpt><trkpt lat="43.642867658427754" lon="10.805044627968698"><ele>90.0</ele><time>2026-04-07T12:32:33Z</time></trkpt><trkpt lat="43.64284123389537" lon="10.805306896190395"><ele>92.0</ele><time>2026-04-07T12:32:34Z</time></trkpt><trkpt lat="43.642815410594864" lon="10.805545244266158"><ele>94.0</ele><time>2026-04-07T12:32:35Z</time></trkpt><trkpt lat="43.642788793284254" lon="10.805769807060356"><ele>96.0</ele><time>2026-04-07T12:32:36Z</time></trkpt><trkpt lat="43.64276504276741" lon="10.805975709723505"><ele>94.25</ele><time>2026-04-07T12:32:37Z</time></trkpt><trkpt lat="43.64274367218219" lon="10.80616334869844"><ele>92.5</ele><time>2026-04-07T12:32:38Z</time></trkpt><trkpt lat="43.64274197184042" lon="10.80634170069949"><ele>90.75</ele><time>2026-04-07T12:32:39Z</time></trkpt><trkpt lat="43.64276462687313" lon="10.806503151594473"><ele>89.0</ele><time>2026-04-07T12:32:40Z</time></trkpt><trkpt lat="43.64281518683711" lon="10.806638470151714"><ele>89.0</ele><time>2026-04-07T12:32:41Z</time></trkpt><trkpt lat="43.64288932383243" lon="10.806748013093653"><ele>89.0</ele><time>2026-04-07T12:32:42Z</time></trkpt><trkpt lat="43.642999400860226" lon="10.806841132966882"><ele>89.0</ele><time>2026-04-07T12:32:43Z</time></trkpt><trkpt lat="43.6431379216423" lon="10.80692777403125"><ele>89.0</ele><time>2026-04-07T12:32:44Z</time></trkpt><trkpt lat="43.64330342682164" lon="10.807021112569913"><ele>85.0</ele><time>2026-04-07T12:32:45Z</time></trkpt><trkpt lat="43.643470056222455" lon="10.807115529951536"><ele>81.0</ele><time>2026-04-07T12:32:46Z</time></trkpt><trkpt lat="43.64365873435034" lon="10.807202910312391"><ele>77.0</ele><time>2026-04-07T12:32:47Z</time></trkpt><trkpt lat="43.6438440279796" lon="10.807282804464908"><ele>72.33333333333334</ele><time>2026-04-07T12:32:48Z</time></trkpt><trkpt lat="43.64401566358695" lon="10.80736953569164"><ele>67.66666666666667</ele><time>2026-04-07T12:32:49Z</time></trkpt><trkpt lat="43.64418341082101" lon="10.807451254973271"><ele>63.0</ele><time>2026-04-07T12:32:50Z</time></trkpt><trkpt lat="43.6443612576767" lon="10.807539889921248"><ele>61.66666666666667</ele><time>2026-04-07T12:32:51Z</time></trkpt><trkpt lat="43.644546828984524" lon="10.807641919595225"><ele>60.333333333333336</ele><time>2026-04-07T12:32:52Z</time></trkpt><trkpt lat="43.644723344337464" lon="10.807755705377312"><ele>59.0</ele><time>2026-04-07T12:32:53Z</time></trkpt><trkpt lat="43.64488277563759" lon="10.807875838565517"><ele>59.0</ele><time>2026-04-07T12:32:54Z</time></trkpt><trkpt lat="43.64503070290398" lon="10.807998721399803"><ele>59.0</ele><time>2026-04-07T12:32:55Z</time></trkpt><trkpt lat="43.6451698199011" lon="10.808120914459353"><ele>59.0</ele><time>2026-04-07T12:32:56Z</time></trkpt><trkpt lat="43.64530086640299" lon="10.8082424562757"><ele>57.0</ele><time>2026-04-07T12:32:57Z</time></trkpt><trkpt lat="43.64542997882557" lon="10.808365500501255"><ele>55.0</ele><time>2026-04-07T12:32:58Z</time></trkpt><trkpt lat="43.645552781795175" lon="10.80848814507272"><ele>53.0</ele><time>2026-04-07T12:32:59Z</time></trkpt><trkpt lat="43.64567074649394" lon="10.808614070653572"><ele>52.66666666666667</ele><time>2026-04-07T12:33:00Z</time></trkpt><trkpt lat="43.64578432597079" lon="10.808743375878494"><ele>52.33333333333333</ele><time>2026-04-07T12:33:01Z</time></trkpt><trkpt lat="43.645902047922654" lon="10.80888169732898"><ele>52.0</ele><time>2026-04-07T12:33:02Z</time></trkpt><trkpt lat="43.646015629251906" lon="10.809019163247076"><ele>50.25</ele><time>2026-04-07T12:33:03Z</time></trkpt><trkpt lat="43.64613110280164" lon="10.809146733414108"><ele>48.5</ele><time>2026-04-07T12:33:04Z</time></trkpt><trkpt lat="43.646248898947476" lon="10.80926722677914"><ele>46.75</ele><time>2026-04-07T12:33:05Z</time></trkpt><trkpt lat="43.64636923262184" lon="10.809382171116276"><ele>45.0</ele><time>2026-04-07T12:33:06Z</time></trkpt><trkpt lat="43.646491849784994" lon="10.809488498028298"><ele>44.25</ele><time>2026-04-07T12:33:07Z</time></trkpt><trkpt lat="43.64661614875439" lon="10.809590075263234"><ele>43.5</ele><time>2026-04-07T12:33:08Z</time></trkpt><trkpt lat="43.64673570514245" lon="10.809688529159333"><ele>42.75</ele><time>2026-04-07T12:33:09Z</time></trkpt><trkpt lat="43.64685379284347" lon="10.80978988069678"><ele>42.0</ele><time>2026-04-07T12:33:10Z</time></trkpt><trkpt lat="43.64696207285961" lon="10.809886854939105"><ele>41.8</ele><time>2026-04-07T12:33:10.999Z</time></trkpt><trkpt lat="43.64706737275127" lon="10.809978783613815"><ele>41.6</ele><time>2026-04-07T12:33:11.999Z</time></trkpt><trkpt lat="43.64715899375977" lon="10.810056276399155"><ele>41.4</ele><time>2026-04-07T12:33:12.999Z</time></trkpt><trkpt lat="43.647229746392014" lon="10.810117873939609"><ele>41.199999999999996</ele><time>2026-04-07T12:33:13.999Z</time></trkpt><trkpt lat="43.64729951989129" lon="10.810197259253409"><ele>41.0</ele><time>2026-04-07T12:33:15.999Z</time></trkpt><trkpt lat="43.647351054476594" lon="10.81024752959274"><ele>41.0</ele><time>2026-04-07T12:33:18.999Z</time></trkpt><trkpt lat="43.64741623027028" lon="10.810246251754679"><ele>41.0</ele><time>2026-04-07T12:33:27.999Z</time></trkpt><trkpt lat="43.64737140733652" lon="10.810160856661563"><ele>41.0</ele><time>2026-04-07T12:33:31.999Z</time></trkpt><trkpt lat="43.64727333139427" lon="10.81009169987339"><ele>41.0</ele><time>2026-04-07T12:33:33.999Z</time></trkpt><trkpt lat="43.647205597803506" lon="10.810035204131593"><ele>41.0</ele><time>2026-04-07T12:33:34.999Z</time></trkpt><trkpt lat="43.64714221812888" lon="10.809980155880861"><ele>41.0</ele><time>2026-04-07T12:33:35.999Z</time></trkpt><trkpt lat="43.64703418519292" lon="10.809957293933776"><ele>41.25</ele><time>2026-04-07T12:33:37.999Z</time></trkpt><trkpt lat="43.64692774919357" lon="10.810040400600636"><ele>41.5</ele><time>2026-04-07T12:33:38.999Z</time></trkpt><trkpt lat="43.64686475468241" lon="10.810151103230098"><ele>41.75</ele><time>2026-04-07T12:33:39.999Z</time></trkpt><trkpt lat="43.64678078320407" lon="10.810279667485831"><ele>42.0</ele><time>2026-04-07T12:33:40.999Z</time></trkpt><trkpt lat="43.64669939845325" lon="10.810396918790822"><ele>41.5</ele><time>2026-04-07T12:33:41.999Z</time></trkpt><trkpt lat="43.64661027925469" lon="10.810519969102266"><ele>41.0</ele><time>2026-04-07T12:33:42.999Z</time></trkpt><trkpt lat="43.64651942529988" lon="10.810654896345994"><ele>40.5</ele><time>2026-04-07T12:33:43.999Z</time></trkpt><trkpt lat="43.646436189360905" lon="10.810770766315393"><ele>40.0</ele><time>2026-04-07T12:33:44.999Z</time></trkpt><trkpt lat="43.6463600445359" lon="10.810871145410388"><ele>40.0</ele><time>2026-04-07T12:33:45.999Z</time></trkpt><trkpt lat="43.64629286576847" lon="10.810978459761143"><ele>40.0</ele><time>2026-04-07T12:33:46.999Z</time></trkpt><trkpt lat="43.64620221973968" lon="10.811066495351316"><ele>40.0</ele><time>2026-04-07T12:33:47.999Z</time></trkpt><trkpt lat="43.64613982804926" lon="10.811180321941949"><ele>40.0</ele><time>2026-04-07T12:33:48.999Z</time></trkpt><trkpt lat="43.64608271528649" lon="10.811309444981577"><ele>40.0</ele><time>2026-04-07T12:33:49.999Z</time></trkpt><trkpt lat="43.64603005665783" lon="10.811440827888118"><ele>40.5</ele><time>2026-04-07T12:33:50.999Z</time></trkpt><trkpt lat="43.645989610303474" lon="10.811580434195529"><ele>41.0</ele><time>2026-04-07T12:33:51.999Z</time></trkpt><trkpt lat="43.645922954291144" lon="10.811701143459695"><ele>41.5</ele><time>2026-04-07T12:33:52.999Z</time></trkpt><trkpt lat="43.645874795409064" lon="10.81184928286851"><ele>42.0</ele><time>2026-04-07T12:33:53.999Z</time></trkpt><trkpt lat="43.64583578887007" lon="10.812011800321978"><ele>42.0</ele><time>2026-04-07T12:33:54.999Z</time></trkpt><trkpt lat="43.64581315162665" lon="10.812186819557281"><ele>42.0</ele><time>2026-04-07T12:33:55.999Z</time></trkpt><trkpt lat="43.64576839481433" lon="10.812361874702765"><ele>42.0</ele><time>2026-04-07T12:33:56.999Z</time></trkpt><trkpt lat="43.645714249651064" lon="10.81253921527164"><ele>42.0</ele><time>2026-04-07T12:33:57.999Z</time></trkpt><trkpt lat="43.645648599244645" lon="10.81271973178158"><ele>41.5</ele><time>2026-04-07T12:33:58.999Z</time></trkpt><trkpt lat="43.645581364000336" lon="10.812870846510233"><ele>41.0</ele><time>2026-04-07T12:33:59.999Z</time></trkpt><trkpt lat="43.645516250216176" lon="10.813000710407023"><ele>40.5</ele><time>2026-04-07T12:34:00.999Z</time></trkpt><trkpt lat="43.645450082216584" lon="10.81312254039608"><ele>40.0</ele><time>2026-04-07T12:34:01.999Z</time></trkpt><trkpt lat="43.645385329215195" lon="10.813249650196644"><ele>40.0</ele><time>2026-04-07T12:34:02.999Z</time></trkpt><trkpt lat="43.64532048719017" lon="10.813394051646702"><ele>40.0</ele><time>2026-04-07T12:34:03.999Z</time></trkpt><trkpt lat="43.64525359852283" lon="10.81355822335873"><ele>40.0</ele><time>2026-04-07T12:34:04.999Z</time></trkpt><trkpt lat="43.64519432236567" lon="10.81371193416288"><ele>40.0</ele><time>2026-04-07T12:34:05.999Z</time></trkpt><trkpt lat="43.64514377933852" lon="10.81386366814234"><ele>40.5</ele><time>2026-04-07T12:34:06.999Z</time></trkpt><trkpt lat="43.645101721297245" lon="10.814027321123415"><ele>41.0</ele><time>2026-04-07T12:34:07.999Z</time></trkpt><trkpt lat="43.6450693111417" lon="10.814202518922949"><ele>41.5</ele><time>2026-04-07T12:34:09Z</time></trkpt><trkpt lat="43.645043869895794" lon="10.81436268569059"><ele>42.0</ele><time>2026-04-07T12:34:10Z</time></trkpt><trkpt lat="43.645023646400844" lon="10.814513806796642"><ele>42.0</ele><time>2026-04-07T12:34:11Z</time></trkpt><trkpt lat="43.6450008113137" lon="10.814666035029912"><ele>42.0</ele><time>2026-04-07T12:34:12Z</time></trkpt><trkpt lat="43.64496780755113" lon="10.814818429895984"><ele>42.0</ele><time>2026-04-07T12:34:13Z</time></trkpt><trkpt lat="43.64492439122623" lon="10.814973006123486"><ele>42.0</ele><time>2026-04-07T12:34:14Z</time></trkpt><trkpt lat="43.64487498033621" lon="10.815130223550364"><ele>41.75</ele><time>2026-04-07T12:34:15Z</time></trkpt><trkpt lat="43.64480433301986" lon="10.815270737248708"><ele>41.5</ele><time>2026-04-07T12:34:16Z</time></trkpt><trkpt lat="43.64475450005366" lon="10.815418508916482"><ele>41.25</ele><time>2026-04-07T12:34:17Z</time></trkpt><trkpt lat="43.64470350981336" lon="10.815569712296895"><ele>41.0</ele><time>2026-04-07T12:34:18Z</time></trkpt><trkpt lat="43.64465111571045" lon="10.815725278336023"><ele>41.0</ele><time>2026-04-07T12:34:19Z</time></trkpt><trkpt lat="43.644611769615096" lon="10.815884080005622"><ele>41.0</ele><time>2026-04-07T12:34:20Z</time></trkpt><trkpt lat="43.64455818506371" lon="10.816041141957928"><ele>41.0</ele><time>2026-04-07T12:34:21Z</time></trkpt><trkpt lat="43.64450798636264" lon="10.81619132783026"><ele>41.0</ele><time>2026-04-07T12:34:22Z</time></trkpt><trkpt lat="43.644454427812995" lon="10.816345259341414"><ele>41.0</ele><time>2026-04-07T12:34:23Z</time></trkpt><trkpt lat="43.644402470174974" lon="10.816501512128115"><ele>41.0</ele><time>2026-04-07T12:34:24Z</time></trkpt><trkpt lat="43.64434948509295" lon="10.816660265645023"><ele>41.0</ele><time>2026-04-07T12:34:25Z</time></trkpt><trkpt lat="43.64429394780817" lon="10.816822425785897"><ele>41.0</ele><time>2026-04-07T12:34:26Z</time></trkpt><trkpt lat="43.64423757642185" lon="10.816979215479881"><ele>41.0</ele><time>2026-04-07T12:34:27Z</time></trkpt><trkpt lat="43.64417891446011" lon="10.817126525077075"><ele>41.0</ele><time>2026-04-07T12:34:28Z</time></trkpt><trkpt lat="43.64411157183052" lon="10.817265604254102"><ele>41.0</ele><time>2026-04-07T12:34:29Z</time></trkpt><trkpt lat="43.64403392777132" lon="10.817400553609314"><ele>41.0</ele><time>2026-04-07T12:34:30Z</time></trkpt><trkpt lat="43.6439483432289" lon="10.81753087721802"><ele>41.0</ele><time>2026-04-07T12:34:31Z</time></trkpt><trkpt lat="43.643843195833576" lon="10.81762970222877"><ele>41.0</ele><time>2026-04-07T12:34:32Z</time></trkpt><trkpt lat="43.64373678132642" lon="10.817733010009386"><ele>41.0</ele><time>2026-04-07T12:34:33Z</time></trkpt><trkpt lat="43.643631514816995" lon="10.817856002346081"><ele>41.0</ele><time>2026-04-07T12:34:34Z</time></trkpt><trkpt lat="43.643505398875604" lon="10.817933519924742"><ele>40.5</ele><time>2026-04-07T12:34:35Z</time></trkpt><trkpt lat="43.64339433215067" lon="10.818026747073125"><ele>40.0</ele><time>2026-04-07T12:34:36Z</time></trkpt><trkpt lat="43.643280825492944" lon="10.818122022257322"><ele>39.5</ele><time>2026-04-07T12:34:37Z</time></trkpt><trkpt lat="43.643163773503616" lon="10.818223249811256"><ele>39.0</ele><time>2026-04-07T12:34:38Z</time></trkpt><trkpt lat="43.64304184215982" lon="10.818340184243427"><ele>39.0</ele><time>2026-04-07T12:34:39Z</time></trkpt><trkpt lat="43.64291827935271" lon="10.81846731346377"><ele>39.0</ele><time>2026-04-07T12:34:40Z</time></trkpt><trkpt lat="43.64279107014425" lon="10.818617595357209"><ele>39.0</ele><time>2026-04-07T12:34:41Z</time></trkpt><trkpt lat="43.64266645638498" lon="10.81878320992565"><ele>39.0</ele><time>2026-04-07T12:34:42Z</time></trkpt><trkpt lat="43.64254078835015" lon="10.818963781969874"><ele>39.0</ele><time>2026-04-07T12:34:43Z</time></trkpt><trkpt lat="43.64241055311029" lon="10.819154964286627"><ele>39.0</ele><time>2026-04-07T12:34:44Z</time></trkpt><trkpt lat="43.642287851613006" lon="10.81933508726848"><ele>39.0</ele><time>2026-04-07T12:34:45Z</time></trkpt><trkpt lat="43.64217158073603" lon="10.819505633638677"><ele>39.0</ele><time>2026-04-07T12:34:46Z</time></trkpt><trkpt lat="43.64206071888839" lon="10.819668220145916"><ele>39.0</ele><time>2026-04-07T12:34:47Z</time></trkpt><trkpt lat="43.641954914396266" lon="10.819823389694275"><ele>39.333333333333336</ele><time>2026-04-07T12:34:48Z</time></trkpt><trkpt lat="43.64184932456717" lon="10.81997824441374"><ele>39.66666666666667</ele><time>2026-04-07T12:34:49Z</time></trkpt><trkpt lat="43.641740815523185" lon="10.820139321286094"><ele>40.0</ele><time>2026-04-07T12:34:50Z</time></trkpt><trkpt lat="43.64163042346239" lon="10.820305333653279"><ele>40.0</ele><time>2026-04-07T12:34:51Z</time></trkpt><trkpt lat="43.641516861426354" lon="10.820476113226169"><ele>40.0</ele><time>2026-04-07T12:34:52Z</time></trkpt><trkpt lat="43.64142003752779" lon="10.82067686305543"><ele>40.0</ele><time>2026-04-07T12:34:53Z</time></trkpt><trkpt lat="43.64130798401337" lon="10.82086563278249"><ele>40.333333333333336</ele><time>2026-04-07T12:34:54Z</time></trkpt><trkpt lat="43.641204642344476" lon="10.821069844701606"><ele>40.666666666666664</ele><time>2026-04-07T12:34:55Z</time></trkpt><trkpt lat="43.64110794109013" lon="10.821286645088772"><ele>41.0</ele><time>2026-04-07T12:34:56Z</time></trkpt><trkpt lat="43.64102236876457" lon="10.821504996628255"><ele>40.666666666666664</ele><time>2026-04-07T12:34:57Z</time></trkpt><trkpt lat="43.64095068031414" lon="10.821716389858558"><ele>40.333333333333336</ele><time>2026-04-07T12:34:58Z</time></trkpt><trkpt lat="43.64086229494111" lon="10.821929849043551"><ele>40.0</ele><time>2026-04-07T12:34:59Z</time></trkpt><trkpt lat="43.640809585273054" lon="10.822171792553087"><ele>40.0</ele><time>2026-04-07T12:35:00Z</time></trkpt><trkpt lat="43.6407660310591" lon="10.822417468105229"><ele>40.0</ele><time>2026-04-07T12:35:01Z</time></trkpt><trkpt lat="43.640737971703935" lon="10.822650064187885"><ele>40.0</ele><time>2026-04-07T12:35:02Z</time></trkpt><trkpt lat="43.64071859123452" lon="10.82289020174456"><ele>40.333333333333336</ele><time>2026-04-07T12:35:03Z</time></trkpt><trkpt lat="43.640709799884974" lon="10.823136384615719"><ele>40.666666666666664</ele><time>2026-04-07T12:35:04Z</time></trkpt><trkpt lat="43.640725349353126" lon="10.823379830748094"><ele>41.0</ele><time>2026-04-07T12:35:05Z</time></trkpt><trkpt lat="43.64072437721003" lon="10.823609928417202"><ele>41.0</ele><time>2026-04-07T12:35:06Z</time></trkpt><trkpt lat="43.640726069524305" lon="10.823836979145137"><ele>41.0</ele><time>2026-04-07T12:35:07Z</time></trkpt><trkpt lat="43.64073340354033" lon="10.824069904027276"><ele>41.0</ele><time>2026-04-07T12:35:08Z</time></trkpt><trkpt lat="43.64074225014397" lon="10.824306699611842"><ele>41.33333333333333</ele><time>2026-04-07T12:35:09Z</time></trkpt><trkpt lat="43.64075011267851" lon="10.824550053946767"><ele>41.666666666666664</ele><time>2026-04-07T12:35:10Z</time></trkpt><trkpt lat="43.64075723196791" lon="10.824796734253358"><ele>42.0</ele><time>2026-04-07T12:35:11Z</time></trkpt><trkpt lat="43.6407647814322" lon="10.82503733053308"><ele>42.0</ele><time>2026-04-07T12:35:12Z</time></trkpt><trkpt lat="43.64077157540667" lon="10.825265313142294"><ele>42.0</ele><time>2026-04-07T12:35:13Z</time></trkpt><trkpt lat="43.640779259669976" lon="10.825484984530375"><ele>42.0</ele><time>2026-04-07T12:35:14Z</time></trkpt><trkpt lat="43.64078800419871" lon="10.825712191899177"><ele>42.0</ele><time>2026-04-07T12:35:15Z</time></trkpt><trkpt lat="43.64079704861902" lon="10.825949511881154"><ele>42.0</ele><time>2026-04-07T12:35:16Z</time></trkpt><trkpt lat="43.64080508318892" lon="10.82619004909118"><ele>42.0</ele><time>2026-04-07T12:35:17Z</time></trkpt><trkpt lat="43.64081146064947" lon="10.826441000141228"><ele>41.666666666666664</ele><time>2026-04-07T12:35:17.999Z</time></trkpt><trkpt lat="43.64081709226554" lon="10.826698663600535"><ele>41.33333333333333</ele><time>2026-04-07T12:35:18.999Z</time></trkpt><trkpt lat="43.64082077064233" lon="10.826952737691464"><ele>41.0</ele><time>2026-04-07T12:35:19.999Z</time></trkpt><trkpt lat="43.64081799291549" lon="10.827202474737922"><ele>41.0</ele><time>2026-04-07T12:35:20.999Z</time></trkpt><trkpt lat="43.64080390898643" lon="10.827457160306311"><ele>41.0</ele><time>2026-04-07T12:35:21.999Z</time></trkpt><trkpt lat="43.640772694748044" lon="10.827714272079982"><ele>41.0</ele><time>2026-04-07T12:35:22.999Z</time></trkpt><trkpt lat="43.64073143783373" lon="10.827962157599806"><ele>41.0</ele><time>2026-04-07T12:35:23.999Z</time></trkpt><trkpt lat="43.640691858393936" lon="10.82819679582052"><ele>41.0</ele><time>2026-04-07T12:35:24.999Z</time></trkpt><trkpt lat="43.640633506736194" lon="10.828414601747602"><ele>41.0</ele><time>2026-04-07T12:35:25.999Z</time></trkpt><trkpt lat="43.64058856602024" lon="10.828632851747273"><ele>41.0</ele><time>2026-04-07T12:35:26.999Z</time></trkpt><trkpt lat="43.64055530527358" lon="10.82886323491631"><ele>41.0</ele><time>2026-04-07T12:35:27.999Z</time></trkpt><trkpt lat="43.640506330027385" lon="10.829089068541384"><ele>41.0</ele><time>2026-04-07T12:35:28.999Z</time></trkpt><trkpt lat="43.64045876389657" lon="10.829321336823199"><ele>40.666666666666664</ele><time>2026-04-07T12:35:29.999Z</time></trkpt><trkpt lat="43.64039547939211" lon="10.829552728110613"><ele>40.333333333333336</ele><time>2026-04-07T12:35:30.999Z</time></trkpt><trkpt lat="43.6403474375775" lon="10.829781016846868"><ele>40.0</ele><time>2026-04-07T12:35:31.999Z</time></trkpt><trkpt lat="43.64030606753654" lon="10.830000728633442"><ele>41.0</ele><time>2026-04-07T12:35:32.999Z</time></trkpt><trkpt lat="43.64028382230245" lon="10.830231448917782"><ele>42.0</ele><time>2026-04-07T12:35:33.999Z</time></trkpt><trkpt lat="43.64025588220414" lon="10.830465267131345"><ele>43.0</ele><time>2026-04-07T12:35:34.999Z</time></trkpt><trkpt lat="43.64021764541395" lon="10.830701179546313"><ele>43.0</ele><time>2026-04-07T12:35:35.999Z</time></trkpt><trkpt lat="43.640215612856245" lon="10.83095195895141"><ele>43.0</ele><time>2026-04-07T12:35:36.999Z</time></trkpt><trkpt lat="43.64019844516437" lon="10.831186719677387"><ele>43.0</ele><time>2026-04-07T12:35:37.999Z</time></trkpt><trkpt lat="43.640182006353044" lon="10.83142908150478"><ele>43.0</ele><time>2026-04-07T12:35:38.999Z</time></trkpt><trkpt lat="43.64016684084796" lon="10.831667192834843"><ele>43.0</ele><time>2026-04-07T12:35:39.999Z</time></trkpt><trkpt lat="43.64015091728245" lon="10.831886573827887"><ele>43.0</ele><time>2026-04-07T12:35:40.999Z</time></trkpt><trkpt lat="43.64013530785309" lon="10.83209531735385"><ele>43.0</ele><time>2026-04-07T12:35:41.999Z</time></trkpt><trkpt lat="43.64012891709639" lon="10.83229385420075"><ele>43.0</ele><time>2026-04-07T12:35:42.999Z</time></trkpt><trkpt lat="43.64013130455876" lon="10.83248601368721"><ele>43.0</ele><time>2026-04-07T12:35:43.999Z</time></trkpt><trkpt lat="43.640157326589566" lon="10.832662118092559"><ele>43.0</ele><time>2026-04-07T12:35:44.999Z</time></trkpt><trkpt lat="43.640188764254326" lon="10.832820580422872"><ele>43.0</ele><time>2026-04-07T12:35:45.999Z</time></trkpt><trkpt lat="43.64023215368109" lon="10.832956800016607"><ele>43.0</ele><time>2026-04-07T12:35:46.999Z</time></trkpt><trkpt lat="43.64028546918854" lon="10.833067708499074"><ele>43.0</ele><time>2026-04-07T12:35:47.999Z</time></trkpt><trkpt lat="43.64035671205373" lon="10.833156143366699"><ele>43.0</ele><time>2026-04-07T12:35:48.999Z</time></trkpt><trkpt lat="43.64044475786123" lon="10.833236846393813"><ele>43.0</ele><time>2026-04-07T12:35:49.999Z</time></trkpt><trkpt lat="43.64056930143849" lon="10.833309316005295"><ele>42.75</ele><time>2026-04-07T12:35:50.999Z</time></trkpt><trkpt lat="43.64068993104659" lon="10.833366431506834"><ele>42.5</ele><time>2026-04-07T12:35:51.999Z</time></trkpt><trkpt lat="43.64082420924997" lon="10.833433705039585"><ele>42.25</ele><time>2026-04-07T12:35:52.999Z</time></trkpt><trkpt lat="43.640963056551655" lon="10.83349346336952"><ele>42.0</ele><time>2026-04-07T12:35:53.999Z</time></trkpt><trkpt lat="43.64109035677919" lon="10.833537585269315"><ele>41.5</ele><time>2026-04-07T12:35:54.999Z</time></trkpt><trkpt lat="43.64122337112681" lon="10.833564716433107"><ele>41.0</ele><time>2026-04-07T12:35:55.999Z</time></trkpt><trkpt lat="43.641355519975725" lon="10.83358743032136"><ele>40.5</ele><time>2026-04-07T12:35:56.999Z</time></trkpt><trkpt lat="43.64148420938938" lon="10.833607775941832"><ele>40.0</ele><time>2026-04-07T12:35:57.999Z</time></trkpt><trkpt lat="43.64162141992155" lon="10.833622457641596"><ele>40.0</ele><time>2026-04-07T12:35:58.999Z</time></trkpt><trkpt lat="43.64175691023844" lon="10.833625267771172"><ele>40.0</ele><time>2026-04-07T12:35:59.999Z</time></trkpt><trkpt lat="43.64188728325341" lon="10.833625012047174"><ele>40.0</ele><time>2026-04-07T12:36:00.999Z</time></trkpt><trkpt lat="43.6420262201265" lon="10.833616899612748"><ele>40.0</ele><time>2026-04-07T12:36:01.999Z</time></trkpt><trkpt lat="43.642166600687915" lon="10.833609193862788"><ele>41.0</ele><time>2026-04-07T12:36:02.999Z</time></trkpt><trkpt lat="43.64229932471284" lon="10.83360524820946"><ele>42.0</ele><time>2026-04-07T12:36:03.999Z</time></trkpt><trkpt lat="43.64243687615865" lon="10.833604952622874"><ele>43.0</ele><time>2026-04-07T12:36:04.999Z</time></trkpt><trkpt lat="43.64257866354943" lon="10.833610455837718"><ele>44.0</ele><time>2026-04-07T12:36:05.999Z</time></trkpt><trkpt lat="43.642724863317795" lon="10.833619319707205"><ele>44.0</ele><time>2026-04-07T12:36:06.999Z</time></trkpt><trkpt lat="43.64287624714781" lon="10.833627901911349"><ele>44.0</ele><time>2026-04-07T12:36:07.999Z</time></trkpt><trkpt lat="43.643012913320995" lon="10.833636726334028"><ele>44.0</ele><time>2026-04-07T12:36:08.999Z</time></trkpt><trkpt lat="43.64313417037869" lon="10.833649072400192"><ele>44.0</ele><time>2026-04-07T12:36:09.999Z</time></trkpt><trkpt lat="43.64325155933442" lon="10.833662379100653"><ele>44.0</ele><time>2026-04-07T12:36:10.999Z</time></trkpt><trkpt lat="43.64337477471594" lon="10.83368493177901"><ele>44.0</ele><time>2026-04-07T12:36:11.999Z</time></trkpt><trkpt lat="43.64350166455048" lon="10.833708446894716"><ele>44.0</ele><time>2026-04-07T12:36:12.999Z</time></trkpt><trkpt lat="43.64361022834911" lon="10.83372999306072"><ele>44.0</ele><time>2026-04-07T12:36:13.999Z</time></trkpt><trkpt lat="43.64372688651932" lon="10.833752360289438"><ele>45.166666666666664</ele><time>2026-04-07T12:36:15Z</time></trkpt><trkpt lat="43.64383961551807" lon="10.833778359852833"><ele>46.33333333333333</ele><time>2026-04-07T12:36:16Z</time></trkpt><trkpt lat="43.64393704142689" lon="10.833815872870316"><ele>47.5</ele><time>2026-04-07T12:36:17Z</time></trkpt><trkpt lat="43.64401208543352" lon="10.833871595147095"><ele>48.666666666666664</ele><time>2026-04-07T12:36:18Z</time></trkpt><trkpt lat="43.644062121710945" lon="10.833949008318145"><ele>49.833333333333336</ele><time>2026-04-07T12:36:19Z</time></trkpt><trkpt lat="43.6440907656441" lon="10.834038053222624"><ele>51.0</ele><time>2026-04-07T12:36:20Z</time></trkpt><trkpt lat="43.64408891685323" lon="10.834138097877723"><ele>51.0</ele><time>2026-04-07T12:36:21Z</time></trkpt><trkpt lat="43.64404730065009" lon="10.834248189848113"><ele>51.0</ele><time>2026-04-07T12:36:22Z</time></trkpt><trkpt lat="43.644018035434854" lon="10.834408385664549"><ele>51.0</ele><time>2026-04-07T12:36:23Z</time></trkpt><trkpt lat="43.64394573645543" lon="10.834580550463556"><ele>51.0</ele><time>2026-04-07T12:36:24Z</time></trkpt><trkpt lat="43.64383183057205" lon="10.834743185707913"><ele>50.33333333333333</ele><time>2026-04-07T12:36:25Z</time></trkpt><trkpt lat="43.643723559979044" lon="10.83490931739823"><ele>49.666666666666664</ele><time>2026-04-07T12:36:26Z</time></trkpt><trkpt lat="43.64360851593941" lon="10.835083463113046"><ele>49.0</ele><time>2026-04-07T12:36:27Z</time></trkpt><trkpt lat="43.64349935284874" lon="10.835248014367474"><ele>47.33333333333333</ele><time>2026-04-07T12:36:28Z</time></trkpt><trkpt lat="43.64338963247461" lon="10.83541367065343"><ele>45.666666666666664</ele><time>2026-04-07T12:36:29Z</time></trkpt><trkpt lat="43.643275416260224" lon="10.835586217455198"><ele>44.0</ele><time>2026-04-07T12:36:30Z</time></trkpt><trkpt lat="43.643159867840886" lon="10.835760918275959"><ele>44.0</ele><time>2026-04-07T12:36:31Z</time></trkpt><trkpt lat="43.64304180531782" lon="10.8359394202382"><ele>44.0</ele><time>2026-04-07T12:36:32Z</time></trkpt><trkpt lat="43.64292070382886" lon="10.836122516898072"><ele>44.0</ele><time>2026-04-07T12:36:33Z</time></trkpt><trkpt lat="43.64279705879356" lon="10.83630926687196"><ele>43.666666666666664</ele><time>2026-04-07T12:36:34Z</time></trkpt><trkpt lat="43.642670762677334" lon="10.836499392382274"><ele>43.333333333333336</ele><time>2026-04-07T12:36:35Z</time></trkpt><trkpt lat="43.642540762647926" lon="10.836695093741623"><ele>43.0</ele><time>2026-04-07T12:36:36Z</time></trkpt><trkpt lat="43.642409759066574" lon="10.83689230584622"><ele>43.0</ele><time>2026-04-07T12:36:37Z</time></trkpt><trkpt lat="43.64227712666702" lon="10.837091969961946"><ele>43.0</ele><time>2026-04-07T12:36:38Z</time></trkpt><trkpt lat="43.642141580778095" lon="10.837296020032927"><ele>43.0</ele><time>2026-04-07T12:36:39Z</time></trkpt><trkpt lat="43.64200476898363" lon="10.837502668091343"><ele>43.333333333333336</ele><time>2026-04-07T12:36:40Z</time></trkpt><trkpt lat="43.641871382014266" lon="10.837704964215739"><ele>43.666666666666664</ele><time>2026-04-07T12:36:41Z</time></trkpt><trkpt lat="43.64174665681682" lon="10.837894123806713"><ele>44.0</ele><time>2026-04-07T12:36:42Z</time></trkpt><trkpt lat="43.64162689298915" lon="10.838075224563356"><ele>44.0</ele><time>2026-04-07T12:36:43Z</time></trkpt><trkpt lat="43.64150826041117" lon="10.838253908234995"><ele>44.0</ele><time>2026-04-07T12:36:44Z</time></trkpt><trkpt lat="43.64138590068323" lon="10.838438205726142"><ele>44.0</ele><time>2026-04-07T12:36:45Z</time></trkpt><trkpt lat="43.64126169999089" lon="10.838625276060945"><ele>44.0</ele><time>2026-04-07T12:36:46Z</time></trkpt><trkpt lat="43.64113625487869" lon="10.838814220734402"><ele>44.0</ele><time>2026-04-07T12:36:47Z</time></trkpt><trkpt lat="43.641007464016425" lon="10.839008204758038"><ele>44.0</ele><time>2026-04-07T12:36:48Z</time></trkpt><trkpt lat="43.64087700327645" lon="10.839204703935303"><ele>44.33333333333333</ele><time>2026-04-07T12:36:49Z</time></trkpt><trkpt lat="43.64074476993822" lon="10.839403872996364"><ele>44.666666666666664</ele><time>2026-04-07T12:36:50Z</time></trkpt><trkpt lat="43.640611777282494" lon="10.83960444354857"><ele>45.0</ele><time>2026-04-07T12:36:51Z</time></trkpt><trkpt lat="43.64047701627209" lon="10.839807892299055"><ele>45.0</ele><time>2026-04-07T12:36:52Z</time></trkpt><trkpt lat="43.64034069590429" lon="10.840013695212805"><ele>45.0</ele><time>2026-04-07T12:36:53Z</time></trkpt><trkpt lat="43.64020318482193" lon="10.840221295747234"><ele>45.0</ele><time>2026-04-07T12:36:54Z</time></trkpt><trkpt lat="43.64006512200725" lon="10.840429729235858"><ele>45.0</ele><time>2026-04-07T12:36:55Z</time></trkpt><trkpt lat="43.63993530614074" lon="10.840625712293624"><ele>45.0</ele><time>2026-04-07T12:36:56Z</time></trkpt><trkpt lat="43.63981157956896" lon="10.840812502354233"><ele>45.0</ele><time>2026-04-07T12:36:57Z</time></trkpt><trkpt lat="43.63968622612117" lon="10.84100174850116"><ele>45.333333333333336</ele><time>2026-04-07T12:36:58Z</time></trkpt><trkpt lat="43.63955837074091" lon="10.841194771819488"><ele>45.66666666666667</ele><time>2026-04-07T12:36:59Z</time></trkpt><trkpt lat="43.639428790847745" lon="10.841390398635102"><ele>46.0</ele><time>2026-04-07T12:37:00Z</time></trkpt><trkpt lat="43.639297310120654" lon="10.841588895143289"><ele>45.66666666666667</ele><time>2026-04-07T12:37:01Z</time></trkpt><trkpt lat="43.6391637942648" lon="10.841790464083097"><ele>45.333333333333336</ele><time>2026-04-07T12:37:02Z</time></trkpt><trkpt lat="43.63902929521648" lon="10.841993517348309"><ele>45.0</ele><time>2026-04-07T12:37:03Z</time></trkpt><trkpt lat="43.63889302043314" lon="10.84219925144351"><ele>45.0</ele><time>2026-04-07T12:37:04Z</time></trkpt><trkpt lat="43.6387566203196" lon="10.842405174748407"><ele>45.0</ele><time>2026-04-07T12:37:05Z</time></trkpt><trkpt lat="43.63862899939633" lon="10.842597844107704"><ele>45.0</ele><time>2026-04-07T12:37:06Z</time></trkpt><trkpt lat="43.6385000126665" lon="10.84279257542198"><ele>45.333333333333336</ele><time>2026-04-07T12:37:07Z</time></trkpt><trkpt lat="43.63837263937612" lon="10.842984870928285"><ele>45.66666666666667</ele><time>2026-04-07T12:37:08Z</time></trkpt><trkpt lat="43.638243411238264" lon="10.84317996670094"><ele>46.0</ele><time>2026-04-07T12:37:09Z</time></trkpt><trkpt lat="43.638114699592364" lon="10.84337385556985"><ele>46.0</ele><time>2026-04-07T12:37:10Z</time></trkpt><trkpt lat="43.63798694526929" lon="10.84356663793479"><ele>46.0</ele><time>2026-04-07T12:37:11Z</time></trkpt><trkpt lat="43.63786057538192" lon="10.843757848071814"><ele>46.0</ele><time>2026-04-07T12:37:12Z</time></trkpt><trkpt lat="43.63773488701274" lon="10.84394802699896"><ele>46.0</ele><time>2026-04-07T12:37:13Z</time></trkpt><trkpt lat="43.63760934184529" lon="10.844137989289594"><ele>46.0</ele><time>2026-04-07T12:37:14Z</time></trkpt><trkpt lat="43.637483059085845" lon="10.844329067567221"><ele>46.0</ele><time>2026-04-07T12:37:15Z</time></trkpt><trkpt lat="43.637358882008726" lon="10.844516959765764"><ele>46.66666666666667</ele><time>2026-04-07T12:37:16Z</time></trkpt><trkpt lat="43.63723407306382" lon="10.844705808028728"><ele>47.333333333333336</ele><time>2026-04-07T12:37:17Z</time></trkpt><trkpt lat="43.63710932375784" lon="10.844894239906315"><ele>48.0</ele><time>2026-04-07T12:37:17.999Z</time></trkpt><trkpt lat="43.63698432936603" lon="10.84508286276591"><ele>47.666666666666664</ele><time>2026-04-07T12:37:18.999Z</time></trkpt><trkpt lat="43.6368586292595" lon="10.845272550584262"><ele>47.33333333333333</ele><time>2026-04-07T12:37:19.999Z</time></trkpt><trkpt lat="43.6367336270518" lon="10.84546118523713"><ele>47.0</ele><time>2026-04-07T12:37:20.999Z</time></trkpt><trkpt lat="43.636605373366805" lon="10.8456547265363"><ele>47.0</ele><time>2026-04-07T12:37:21.999Z</time></trkpt><trkpt lat="43.63647396573465" lon="10.845853027297657"><ele>47.0</ele><time>2026-04-07T12:37:22.999Z</time></trkpt><trkpt lat="43.63633943669621" lon="10.846056038420349"><ele>47.0</ele><time>2026-04-07T12:37:23.999Z</time></trkpt><trkpt lat="43.63620325168884" lon="10.846261548490688"><ele>46.666666666666664</ele><time>2026-04-07T12:37:24.999Z</time></trkpt><trkpt lat="43.63606629634382" lon="10.846468221032817"><ele>46.333333333333336</ele><time>2026-04-07T12:37:25.999Z</time></trkpt><trkpt lat="43.63593706727697" lon="10.846662637984767"><ele>46.0</ele><time>2026-04-07T12:37:26.999Z</time></trkpt><trkpt lat="43.63580932052874" lon="10.846855246144111"><ele>47.333333333333336</ele><time>2026-04-07T12:37:27.999Z</time></trkpt><trkpt lat="43.63568054719282" lon="10.847049959602531"><ele>48.66666666666667</ele><time>2026-04-07T12:37:28.999Z</time></trkpt><trkpt lat="43.63555029875695" lon="10.847247195482439"><ele>50.0</ele><time>2026-04-07T12:37:29.999Z</time></trkpt><trkpt lat="43.63541898155216" lon="10.847446415037481"><ele>49.66666666666667</ele><time>2026-04-07T12:37:30.999Z</time></trkpt><trkpt lat="43.63528553887109" lon="10.847648859125364"><ele>49.33333333333333</ele><time>2026-04-07T12:37:31.999Z</time></trkpt><trkpt lat="43.63515185450524" lon="10.847851669868643"><ele>49.0</ele><time>2026-04-07T12:37:32.999Z</time></trkpt><trkpt lat="43.63501631194319" lon="10.848057299657995"><ele>49.0</ele><time>2026-04-07T12:37:33.999Z</time></trkpt><trkpt lat="43.63487869143026" lon="10.848261657132547"><ele>49.0</ele><time>2026-04-07T12:37:34.999Z</time></trkpt><trkpt lat="43.63473739949269" lon="10.848465352046274"><ele>49.0</ele><time>2026-04-07T12:37:35.999Z</time></trkpt><trkpt lat="43.634601659119454" lon="10.848654590034164"><ele>49.0</ele><time>2026-04-07T12:37:36.999Z</time></trkpt><trkpt lat="43.63446866714398" lon="10.84883133329018"><ele>49.0</ele><time>2026-04-07T12:37:37.999Z</time></trkpt><trkpt lat="43.63433533426218" lon="10.849006589937302"><ele>49.0</ele><time>2026-04-07T12:37:38.999Z</time></trkpt><trkpt lat="43.6341983325636" lon="10.84918355258968"><ele>49.33333333333333</ele><time>2026-04-07T12:37:39.999Z</time></trkpt><trkpt lat="43.63405754583711" lon="10.849360909098497"><ele>49.66666666666667</ele><time>2026-04-07T12:37:40.999Z</time></trkpt><trkpt lat="43.63391417064325" lon="10.849541526446872"><ele>50.0</ele><time>2026-04-07T12:37:41.999Z</time></trkpt><trkpt lat="43.63376929109623" lon="10.849724038903329"><ele>49.66666666666667</ele><time>2026-04-07T12:37:42.999Z</time></trkpt><trkpt lat="43.63362439370081" lon="10.849906573847337"><ele>49.33333333333333</ele><time>2026-04-07T12:37:43.999Z</time></trkpt><trkpt lat="43.633480609740275" lon="10.850087706131655"><ele>49.0</ele><time>2026-04-07T12:37:44.999Z</time></trkpt><trkpt lat="43.63333397716209" lon="10.85027242697536"><ele>49.0</ele><time>2026-04-07T12:37:45.999Z</time></trkpt><trkpt lat="43.63318493264164" lon="10.85046002748146"><ele>49.0</ele><time>2026-04-07T12:37:46.999Z</time></trkpt><trkpt lat="43.633032110137144" lon="10.850652127956883"><ele>49.0</ele><time>2026-04-07T12:37:47.999Z</time></trkpt><trkpt lat="43.632882728171225" lon="10.850839903615523"><ele>49.33333333333333</ele><time>2026-04-07T12:37:48.999Z</time></trkpt><trkpt lat="43.63274306220644" lon="10.851016077109822"><ele>49.66666666666667</ele><time>2026-04-07T12:37:49.999Z</time></trkpt><trkpt lat="43.632612552030636" lon="10.851181289845607"><ele>50.0</ele><time>2026-04-07T12:37:50.999Z</time></trkpt><trkpt lat="43.632484720731895" lon="10.851343111401192"><ele>50.0</ele><time>2026-04-07T12:37:51.999Z</time></trkpt><trkpt lat="43.63235485907105" lon="10.851507464533718"><ele>50.0</ele><time>2026-04-07T12:37:52.999Z</time></trkpt><trkpt lat="43.63222172649955" lon="10.851675949956656"><ele>50.0</ele><time>2026-04-07T12:37:53.999Z</time></trkpt><trkpt lat="43.63208652644114" lon="10.85184705187979"><ele>50.333333333333336</ele><time>2026-04-07T12:37:54.999Z</time></trkpt><trkpt lat="43.6319495007215" lon="10.852019966018323"><ele>50.66666666666667</ele><time>2026-04-07T12:37:55.999Z</time></trkpt><trkpt lat="43.63181067326307" lon="10.852194955234815"><ele>51.0</ele><time>2026-04-07T12:37:56.999Z</time></trkpt><trkpt lat="43.631667384164224" lon="10.852375568258804"><ele>51.0</ele><time>2026-04-07T12:37:57.999Z</time></trkpt><trkpt lat="43.631522514119276" lon="10.852558174035336"><ele>51.0</ele><time>2026-04-07T12:37:58.999Z</time></trkpt><trkpt lat="43.631375391216274" lon="10.852743619494259"><ele>51.0</ele><time>2026-04-07T12:37:59.999Z</time></trkpt><trkpt lat="43.631227094879094" lon="10.8529305440413"><ele>51.66666666666667</ele><time>2026-04-07T12:38:00.999Z</time></trkpt><trkpt lat="43.63107563232747" lon="10.853121459539738"><ele>52.333333333333336</ele><time>2026-04-07T12:38:01.999Z</time></trkpt><trkpt lat="43.630924142091715" lon="10.853312409930334"><ele>53.0</ele><time>2026-04-07T12:38:02.999Z</time></trkpt><trkpt lat="43.6307692627146" lon="10.85350763229785"><ele>53.0</ele><time>2026-04-07T12:38:03.999Z</time></trkpt><trkpt lat="43.63061551375814" lon="10.853701431096253"><ele>53.0</ele><time>2026-04-07T12:38:04.999Z</time></trkpt><trkpt lat="43.63047340135666" lon="10.853880956551464"><ele>53.0</ele><time>2026-04-07T12:38:05.999Z</time></trkpt><trkpt lat="43.63033286924798" lon="10.854058542664795"><ele>52.0</ele><time>2026-04-07T12:38:06.999Z</time></trkpt><trkpt lat="43.63018971631816" lon="10.85423944059932"><ele>51.0</ele><time>2026-04-07T12:38:07.999Z</time></trkpt><trkpt lat="43.63004066270344" lon="10.85442704516464"><ele>50.0</ele><time>2026-04-07T12:38:08.999Z</time></trkpt><trkpt lat="43.6298910632994" lon="10.85461621617664"><ele>50.0</ele><time>2026-04-07T12:38:09.999Z</time></trkpt><trkpt lat="43.62973982398453" lon="10.854807722062368"><ele>50.0</ele><time>2026-04-07T12:38:10.999Z</time></trkpt><trkpt lat="43.6295907157933" lon="10.854996529423588"><ele>50.0</ele><time>2026-04-07T12:38:11.999Z</time></trkpt><trkpt lat="43.629450441648075" lon="10.855174684719993"><ele>51.0</ele><time>2026-04-07T12:38:12.999Z</time></trkpt><trkpt lat="43.629307684876686" lon="10.855356141555573"><ele>52.0</ele><time>2026-04-07T12:38:13.999Z</time></trkpt><trkpt lat="43.62916475612836" lon="10.855537816984588"><ele>53.0</ele><time>2026-04-07T12:38:14.999Z</time></trkpt><trkpt lat="43.6290204506344" lon="10.855722466229011"><ele>53.0</ele><time>2026-04-07T12:38:15.999Z</time></trkpt><trkpt lat="43.62887592020518" lon="10.8559135276844"><ele>53.0</ele><time>2026-04-07T12:38:16.999Z</time></trkpt><trkpt lat="43.62873058119909" lon="10.856110303483138"><ele>53.0</ele><time>2026-04-07T12:38:17.999Z</time></trkpt><trkpt lat="43.62858868914112" lon="10.856309151701096"><ele>52.66666666666667</ele><time>2026-04-07T12:38:18.999Z</time></trkpt><trkpt lat="43.62845960145971" lon="10.85649596640341"><ele>52.33333333333333</ele><time>2026-04-07T12:38:19.999Z</time></trkpt><trkpt lat="43.62833713346629" lon="10.85667626656705"><ele>52.0</ele><time>2026-04-07T12:38:21Z</time></trkpt><trkpt lat="43.62821612321055" lon="10.856862307361121"><ele>52.666666666666664</ele><time>2026-04-07T12:38:22Z</time></trkpt><trkpt lat="43.62809607038969" lon="10.857053935747919"><ele>53.33333333333333</ele><time>2026-04-07T12:38:23Z</time></trkpt><trkpt lat="43.62797788669847" lon="10.857249928020309"><ele>54.0</ele><time>2026-04-07T12:38:24Z</time></trkpt><trkpt lat="43.627859918358375" lon="10.857452983544782"><ele>52.33333333333333</ele><time>2026-04-07T12:38:25Z</time></trkpt><trkpt lat="43.62774613068148" lon="10.85765483694477"><ele>50.666666666666664</ele><time>2026-04-07T12:38:26Z</time></trkpt><trkpt lat="43.62763768196847" lon="10.857847219306846"><ele>49.0</ele><time>2026-04-07T12:38:27Z</time></trkpt><trkpt lat="43.627529272842324" lon="10.858040277087264"><ele>49.0</ele><time>2026-04-07T12:38:28Z</time></trkpt><trkpt lat="43.627419024526084" lon="10.858224224779674"><ele>49.0</ele><time>2026-04-07T12:38:29Z</time></trkpt><trkpt lat="43.62731138617408" lon="10.858388985124764"><ele>49.0</ele><time>2026-04-07T12:38:30Z</time></trkpt><trkpt lat="43.6271980012831" lon="10.858523328863573"><ele>49.33333333333333</ele><time>2026-04-07T12:38:31Z</time></trkpt><trkpt lat="43.627076832110816" lon="10.858637108381883"><ele>49.66666666666667</ele><time>2026-04-07T12:38:32Z</time></trkpt><trkpt lat="43.62694611055785" lon="10.858741400472312"><ele>50.0</ele><time>2026-04-07T12:38:33Z</time></trkpt><trkpt lat="43.626803366905946" lon="10.858828370461632"><ele>50.0</ele><time>2026-04-07T12:38:34Z</time></trkpt><trkpt lat="43.62664795893467" lon="10.85889848519705"><ele>50.0</ele><time>2026-04-07T12:38:35Z</time></trkpt><trkpt lat="43.62648288572146" lon="10.858942862302147"><ele>50.0</ele><time>2026-04-07T12:38:36Z</time></trkpt><trkpt lat="43.62632519787823" lon="10.858953750330604"><ele>50.0</ele><time>2026-04-07T12:38:37Z</time></trkpt><trkpt lat="43.62617902211705" lon="10.858940065387495"><ele>50.0</ele><time>2026-04-07T12:38:38Z</time></trkpt><trkpt lat="43.62604696612729" lon="10.858913383801418"><ele>50.0</ele><time>2026-04-07T12:38:39Z</time></trkpt><trkpt lat="43.62592832467061" lon="10.858891054342594"><ele>50.0</ele><time>2026-04-07T12:38:40Z</time></trkpt><trkpt lat="43.625811547734216" lon="10.85890934681084"><ele>50.25</ele><time>2026-04-07T12:38:41Z</time></trkpt><trkpt lat="43.625708872466944" lon="10.858921406788332"><ele>50.5</ele><time>2026-04-07T12:38:42Z</time></trkpt><trkpt lat="43.62560080129265" lon="10.858962721285364"><ele>50.75</ele><time>2026-04-07T12:38:43Z</time></trkpt><trkpt lat="43.625483977209306" lon="10.85905176812819"><ele>51.0</ele><time>2026-04-07T12:38:44Z</time></trkpt><trkpt lat="43.62533812740296" lon="10.859148376040139"><ele>51.0</ele><time>2026-04-07T12:38:45Z</time></trkpt><trkpt lat="43.62522924936832" lon="10.859306113294672"><ele>51.0</ele><time>2026-04-07T12:38:46Z</time></trkpt><trkpt lat="43.625114553865934" lon="10.859481979734488"><ele>51.0</ele><time>2026-04-07T12:38:47Z</time></trkpt><trkpt lat="43.624989615213536" lon="10.85967355233206"><ele>51.0</ele><time>2026-04-07T12:38:48Z</time></trkpt><trkpt lat="43.6248707925709" lon="10.859855747025042"><ele>51.0</ele><time>2026-04-07T12:38:49Z</time></trkpt><trkpt lat="43.6247549521184" lon="10.860045909547397"><ele>51.0</ele><time>2026-04-07T12:38:50Z</time></trkpt><trkpt lat="43.62465329219118" lon="10.860260467203084"><ele>50.66666666666667</ele><time>2026-04-07T12:38:51Z</time></trkpt><trkpt lat="43.62456482624987" lon="10.860475197327457"><ele>50.333333333333336</ele><time>2026-04-07T12:38:52Z</time></trkpt><trkpt lat="43.624477436956745" lon="10.860709265930828"><ele>50.0</ele><time>2026-04-07T12:38:53Z</time></trkpt><trkpt lat="43.62438373492786" lon="10.860958416436914"><ele>50.66666666666667</ele><time>2026-04-07T12:38:54Z</time></trkpt><trkpt lat="43.624288520085955" lon="10.861210670577671"><ele>51.33333333333333</ele><time>2026-04-07T12:38:55Z</time></trkpt><trkpt lat="43.62420013996256" lon="10.861444817375267"><ele>52.0</ele><time>2026-04-07T12:38:56Z</time></trkpt><trkpt lat="43.624112378888825" lon="10.861677324056348"><ele>52.33333333333333</ele><time>2026-04-07T12:38:57Z</time></trkpt><trkpt lat="43.62402208917562" lon="10.861914163160355"><ele>52.66666666666667</ele><time>2026-04-07T12:38:58Z</time></trkpt><trkpt lat="43.62393800064593" lon="10.862133587371781"><ele>53.0</ele><time>2026-04-07T12:38:59Z</time></trkpt><trkpt lat="43.62385803795653" lon="10.862342328061125"><ele>53.0</ele><time>2026-04-07T12:39:00Z</time></trkpt><trkpt lat="43.62378320130648" lon="10.86253806095449"><ele>53.0</ele><time>2026-04-07T12:39:01Z</time></trkpt><trkpt lat="43.62371208102129" lon="10.862724073818006"><ele>53.0</ele><time>2026-04-07T12:39:02Z</time></trkpt><trkpt lat="43.62364247152172" lon="10.862902292148517"><ele>52.75</ele><time>2026-04-07T12:39:03Z</time></trkpt><trkpt lat="43.62357397775529" lon="10.863070244516043"><ele>52.5</ele><time>2026-04-07T12:39:04Z</time></trkpt><trkpt lat="43.623506300911366" lon="10.86322734830479"><ele>52.25</ele><time>2026-04-07T12:39:05Z</time></trkpt><trkpt lat="43.62343630387426" lon="10.863384890244461"><ele>52.0</ele><time>2026-04-07T12:39:06Z</time></trkpt><trkpt lat="43.623366622970295" lon="10.863541344779804"><ele>51.75</ele><time>2026-04-07T12:39:07Z</time></trkpt><trkpt lat="43.62329854493691" lon="10.863694200373015"><ele>51.5</ele><time>2026-04-07T12:39:08Z</time></trkpt><trkpt lat="43.62322899794892" lon="10.863850082031183"><ele>51.25</ele><time>2026-04-07T12:39:09Z</time></trkpt><trkpt lat="43.623162144417016" lon="10.863999816980494"><ele>51.0</ele><time>2026-04-07T12:39:10Z</time></trkpt><trkpt lat="43.62309941608659" lon="10.864140312492506"><ele>51.0</ele><time>2026-04-07T12:39:11Z</time></trkpt><trkpt lat="43.62303836312168" lon="10.864275068104034"><ele>51.0</ele><time>2026-04-07T12:39:12Z</time></trkpt><trkpt lat="43.62297550797159" lon="10.86441226833395"><ele>51.0</ele><time>2026-04-07T12:39:13Z</time></trkpt><trkpt lat="43.6229136549214" lon="10.864547281166981"><ele>51.0</ele><time>2026-04-07T12:39:14Z</time></trkpt><trkpt lat="43.622851702523946" lon="10.864682510847706"><ele>51.4</ele><time>2026-04-07T12:39:15Z</time></trkpt><trkpt lat="43.62278974644855" lon="10.864817968484966"><ele>51.8</ele><time>2026-04-07T12:39:16Z</time></trkpt><trkpt lat="43.62272860350084" lon="10.864951985536173"><ele>52.199999999999996</ele><time>2026-04-07T12:39:17Z</time></trkpt><trkpt lat="43.622667906477304" lon="10.865085025181983"><ele>52.599999999999994</ele><time>2026-04-07T12:39:18Z</time></trkpt><trkpt lat="43.62261207112129" lon="10.865207685832043"><ele>53.0</ele><time>2026-04-07T12:39:19Z</time></trkpt><trkpt lat="43.62255643525555" lon="10.865329915385058"><ele>53.0</ele><time>2026-04-07T12:39:20Z</time></trkpt><trkpt lat="43.62250145567418" lon="10.865444011178253"><ele>53.0</ele><time>2026-04-07T12:39:21Z</time></trkpt><trkpt lat="43.62244149091257" lon="10.865562848446093"><ele>53.0</ele><time>2026-04-07T12:39:22Z</time></trkpt><trkpt lat="43.62237693169461" lon="10.865679446941053"><ele>53.0</ele><time>2026-04-07T12:39:23Z</time></trkpt><trkpt lat="43.622308081474436" lon="10.86579117085613"><ele>53.0</ele><time>2026-04-07T12:39:24Z</time></trkpt><trkpt lat="43.62222977632208" lon="10.86589759289913"><ele>52.5</ele><time>2026-04-07T12:39:25Z</time></trkpt><trkpt lat="43.62214697756924" lon="10.866005099506532"><ele>52.0</ele><time>2026-04-07T12:39:26Z</time></trkpt><trkpt lat="43.62206598536314" lon="10.866110260464835"><ele>51.5</ele><time>2026-04-07T12:39:27Z</time></trkpt><trkpt lat="43.62198517703316" lon="10.866221036510789"><ele>51.0</ele><time>2026-04-07T12:39:28Z</time></trkpt><trkpt lat="43.621910352300084" lon="10.866343420695042"><ele>52.0</ele><time>2026-04-07T12:39:29Z</time></trkpt><trkpt lat="43.62184107055202" lon="10.866471356856659"><ele>53.0</ele><time>2026-04-07T12:39:30Z</time></trkpt><trkpt lat="43.62177369508085" lon="10.866599674234934"><ele>54.0</ele><time>2026-04-07T12:39:31Z</time></trkpt><trkpt lat="43.621708774443704" lon="10.866728317039922"><ele>55.0</ele><time>2026-04-07T12:39:31.999Z</time></trkpt><trkpt lat="43.621649526534476" lon="10.866857183132964"><ele>54.99999999999999</ele><time>2026-04-07T12:39:32.999Z</time></trkpt><trkpt lat="43.621602335982004" lon="10.866983387524314"><ele>55.0</ele><time>2026-04-07T12:39:33.999Z</time></trkpt><trkpt lat="43.62156223155784" lon="10.867091725828399"><ele>55.0</ele><time>2026-04-07T12:39:34.999Z</time></trkpt><trkpt lat="43.6215244198903" lon="10.867187171763284"><ele>55.0</ele><time>2026-04-07T12:39:35.999Z</time></trkpt><trkpt lat="43.621482024665426" lon="10.86728350650319"><ele>54.99999999999999</ele><time>2026-04-07T12:39:36.999Z</time></trkpt><trkpt lat="43.62143582001924" lon="10.867379473515289"><ele>55.0</ele><time>2026-04-07T12:39:37.999Z</time></trkpt><trkpt lat="43.62138342186029" lon="10.86748194500706"><ele>55.0</ele><time>2026-04-07T12:39:38.999Z</time></trkpt><trkpt lat="43.62132742211074" lon="10.867577739267118"><ele>55.0</ele><time>2026-04-07T12:39:39.999Z</time></trkpt><trkpt lat="43.62126657785399" lon="10.867681850040265"><ele>55.0</ele><time>2026-04-07T12:39:40.999Z</time></trkpt><trkpt lat="43.6212008849474" lon="10.867793685494487"><ele>55.0</ele><time>2026-04-07T12:39:41.999Z</time></trkpt><trkpt lat="43.621131947380775" lon="10.867910432670584"><ele>55.0</ele><time>2026-04-07T12:39:42.999Z</time></trkpt><trkpt lat="43.62105830675018" lon="10.868034801806543"><ele>55.0</ele><time>2026-04-07T12:39:43.999Z</time></trkpt><trkpt lat="43.62098925495071" lon="10.86815142101214"><ele>55.0</ele><time>2026-04-07T12:39:44.999Z</time></trkpt><trkpt lat="43.62092423969838" lon="10.868261223052873"><ele>55.0</ele><time>2026-04-07T12:39:45.999Z</time></trkpt><trkpt lat="43.62085656571914" lon="10.86837766838628"><ele>55.0</ele><time>2026-04-07T12:39:46.999Z</time></trkpt><trkpt lat="43.62078939730899" lon="10.868495594068737"><ele>55.0</ele><time>2026-04-07T12:39:47.999Z</time></trkpt><trkpt lat="43.62072318647709" lon="10.86861797298806"><ele>55.0</ele><time>2026-04-07T12:39:48.999Z</time></trkpt><trkpt lat="43.62065898874756" lon="10.868743337451528"><ele>55.0</ele><time>2026-04-07T12:39:49.999Z</time></trkpt><trkpt lat="43.620594585092654" lon="10.868868962636894"><ele>55.0</ele><time>2026-04-07T12:39:50.999Z</time></trkpt><trkpt lat="43.62052853382563" lon="10.868992132625806"><ele>55.0</ele><time>2026-04-07T12:39:51.999Z</time></trkpt><trkpt lat="43.62046047756363" lon="10.86911376036095"><ele>55.0</ele><time>2026-04-07T12:39:52.999Z</time></trkpt><trkpt lat="43.62039049121734" lon="10.869235695100647"><ele>55.5</ele><time>2026-04-07T12:39:53.999Z</time></trkpt><trkpt lat="43.62032605535202" lon="10.86936707436248"><ele>56.0</ele><time>2026-04-07T12:39:54.999Z</time></trkpt><trkpt lat="43.62025019436313" lon="10.86949067074921"><ele>56.5</ele><time>2026-04-07T12:39:55.999Z</time></trkpt><trkpt lat="43.620168077631895" lon="10.86960840019371"><ele>57.0</ele><time>2026-04-07T12:39:56.999Z</time></trkpt><trkpt lat="43.62008748478599" lon="10.869730560488929"><ele>57.0</ele><time>2026-04-07T12:39:57.999Z</time></trkpt><trkpt lat="43.61999717848167" lon="10.869844611805833"><ele>57.0</ele><time>2026-04-07T12:39:58.999Z</time></trkpt><trkpt lat="43.619904282166935" lon="10.869959702190766"><ele>57.0</ele><time>2026-04-07T12:39:59.999Z</time></trkpt><trkpt lat="43.619812218493756" lon="10.870081291366297"><ele>57.0</ele><time>2026-04-07T12:40:00.999Z</time></trkpt><trkpt lat="43.61971407752788" lon="10.870205349859262"><ele>56.75</ele><time>2026-04-07T12:40:01.999Z</time></trkpt><trkpt lat="43.619613788033064" lon="10.87033939042721"><ele>56.5</ele><time>2026-04-07T12:40:02.999Z</time></trkpt><trkpt lat="43.61950868037636" lon="10.87047678390774"><ele>56.25</ele><time>2026-04-07T12:40:03.999Z</time></trkpt><trkpt lat="43.61939515059488" lon="10.870618352643156"><ele>56.0</ele><time>2026-04-07T12:40:04.999Z</time></trkpt><trkpt lat="43.61928495526979" lon="10.87076306377715"><ele>56.0</ele><time>2026-04-07T12:40:05.999Z</time></trkpt><trkpt lat="43.61917216040566" lon="10.870909295242551"><ele>56.0</ele><time>2026-04-07T12:40:06.999Z</time></trkpt><trkpt lat="43.61906165166768" lon="10.87106497183926"><ele>56.0</ele><time>2026-04-07T12:40:07.999Z</time></trkpt><trkpt lat="43.61894184593097" lon="10.871215661228169"><ele>56.333333333333336</ele><time>2026-04-07T12:40:08.999Z</time></trkpt><trkpt lat="43.61881975321594" lon="10.871372207074666"><ele>56.66666666666667</ele><time>2026-04-07T12:40:09.999Z</time></trkpt><trkpt lat="43.61869383845112" lon="10.871529581032025"><ele>57.0</ele><time>2026-04-07T12:40:10.999Z</time></trkpt><trkpt lat="43.618580067965084" lon="10.871680908798545"><ele>56.75</ele><time>2026-04-07T12:40:11.999Z</time></trkpt><trkpt lat="43.61847298164636" lon="10.871822845892133"><ele>56.5</ele><time>2026-04-07T12:40:12.999Z</time></trkpt><trkpt lat="43.61836745585297" lon="10.871962532490814"><ele>56.25</ele><time>2026-04-07T12:40:13.999Z</time></trkpt><trkpt lat="43.61825898355863" lon="10.87210160757092"><ele>56.0</ele><time>2026-04-07T12:40:14.999Z</time></trkpt><trkpt lat="43.61815071633383" lon="10.87224443063452"><ele>56.0</ele><time>2026-04-07T12:40:15.999Z</time></trkpt><trkpt lat="43.61804116559111" lon="10.872387513536694"><ele>56.0</ele><time>2026-04-07T12:40:16.999Z</time></trkpt><trkpt lat="43.617935027812194" lon="10.872520864492063"><ele>56.0</ele><time>2026-04-07T12:40:17.999Z</time></trkpt><trkpt lat="43.61783281472269" lon="10.87265350930032"><ele>56.0</ele><time>2026-04-07T12:40:18.999Z</time></trkpt><trkpt lat="43.6177309951454" lon="10.872784729230482"><ele>56.5</ele><time>2026-04-07T12:40:19.999Z</time></trkpt><trkpt lat="43.61763312256764" lon="10.872912265228333"><ele>57.0</ele><time>2026-04-07T12:40:20.999Z</time></trkpt><trkpt lat="43.61754098721357" lon="10.873027985496392"><ele>57.5</ele><time>2026-04-07T12:40:21.999Z</time></trkpt><trkpt lat="43.61745309712749" lon="10.873146794484743"><ele>58.0</ele><time>2026-04-07T12:40:22.999Z</time></trkpt><trkpt lat="43.617357389748186" lon="10.873266533229893"><ele>58.0</ele><time>2026-04-07T12:40:23.999Z</time></trkpt><trkpt lat="43.61726890312621" lon="10.873374070518269"><ele>58.0</ele><time>2026-04-07T12:40:24.999Z</time></trkpt><trkpt lat="43.61718885670997" lon="10.873480222638099"><ele>58.0</ele><time>2026-04-07T12:40:25.999Z</time></trkpt><trkpt lat="43.61710365802477" lon="10.873588145623556"><ele>58.0</ele><time>2026-04-07T12:40:27Z</time></trkpt><trkpt lat="43.617027798386246" lon="10.873686822248256"><ele>58.0</ele><time>2026-04-07T12:40:28Z</time></trkpt><trkpt lat="43.6169604927051" lon="10.873771559239472"><ele>58.2</ele><time>2026-04-07T12:40:29Z</time></trkpt><trkpt lat="43.616901790831044" lon="10.873841682931294"><ele>58.4</ele><time>2026-04-07T12:40:30Z</time></trkpt><trkpt lat="43.61685799210865" lon="10.873911382231162"><ele>58.60000000000001</ele><time>2026-04-07T12:40:31Z</time></trkpt><trkpt lat="43.61678284420573" lon="10.873987859796337"><ele>58.800000000000004</ele><time>2026-04-07T12:40:33Z</time></trkpt><trkpt lat="43.61688157576907" lon="10.87418308263891"><ele>59.0</ele><time>2026-04-07T12:40:34Z</time></trkpt><trkpt lat="43.61694135659975" lon="10.87431569652834"><ele>58.75</ele><time>2026-04-07T12:40:35Z</time></trkpt><trkpt lat="43.61699663572734" lon="10.874473098014768"><ele>58.5</ele><time>2026-04-07T12:40:36Z</time></trkpt><trkpt lat="43.61706365909843" lon="10.87460931118128"><ele>58.25</ele><time>2026-04-07T12:40:37Z</time></trkpt><trkpt lat="43.61714738464853" lon="10.874754681965744"><ele>58.0</ele><time>2026-04-07T12:40:38Z</time></trkpt><trkpt lat="43.617231455616256" lon="10.874921899702963"><ele>58.0</ele><time>2026-04-07T12:40:39Z</time></trkpt><trkpt lat="43.61731144167779" lon="10.87509887260199"><ele>58.0</ele><time>2026-04-07T12:40:40Z</time></trkpt><trkpt lat="43.61738227717589" lon="10.875258077331877"><ele>58.0</ele><time>2026-04-07T12:40:41Z</time></trkpt><trkpt lat="43.617461976090745" lon="10.875408610013524"><ele>58.0</ele><time>2026-04-07T12:40:42Z</time></trkpt><trkpt lat="43.61754230933568" lon="10.875571937957664"><ele>58.25</ele><time>2026-04-07T12:40:43Z</time></trkpt><trkpt lat="43.617656044556554" lon="10.875695935450688"><ele>58.5</ele><time>2026-04-07T12:40:44Z</time></trkpt><trkpt lat="43.61776438802574" lon="10.875826693679915"><ele>58.75</ele><time>2026-04-07T12:40:45Z</time></trkpt><trkpt lat="43.617881674625124" lon="10.875964321631782"><ele>59.0</ele><time>2026-04-07T12:40:46Z</time></trkpt><trkpt lat="43.61800640919008" lon="10.876109098922791"><ele>59.66666666666667</ele><time>2026-04-07T12:40:47Z</time></trkpt><trkpt lat="43.61813508321274" lon="10.876259244003238"><ele>60.33333333333333</ele><time>2026-04-07T12:40:48Z</time></trkpt><trkpt lat="43.618252438583106" lon="10.87639982840923"><ele>61.0</ele><time>2026-04-07T12:40:49Z</time></trkpt><trkpt lat="43.618361664499226" lon="10.876528727436025"><ele>61.0</ele><time>2026-04-07T12:40:50Z</time></trkpt><trkpt lat="43.618466020246935" lon="10.876651269407793"><ele>61.0</ele><time>2026-04-07T12:40:51Z</time></trkpt><trkpt lat="43.61856425953291" lon="10.876779117698797"><ele>61.0</ele><time>2026-04-07T12:40:52Z</time></trkpt><trkpt lat="43.61866189727812" lon="10.876930511129434"><ele>61.0</ele><time>2026-04-07T12:40:53Z</time></trkpt><trkpt lat="43.618752452953444" lon="10.877101049633527"><ele>60.33333333333333</ele><time>2026-04-07T12:40:54Z</time></trkpt><trkpt lat="43.61884276068597" lon="10.877286158950833"><ele>59.66666666666667</ele><time>2026-04-07T12:40:55Z</time></trkpt><trkpt lat="43.61894185346443" lon="10.877481704441882"><ele>59.0</ele><time>2026-04-07T12:40:56Z</time></trkpt><trkpt lat="43.619033067459064" lon="10.877678881566172"><ele>59.0</ele><time>2026-04-07T12:40:57Z</time></trkpt><trkpt lat="43.61911412866885" lon="10.877884172502865"><ele>59.0</ele><time>2026-04-07T12:40:58Z</time></trkpt><trkpt lat="43.61918469583222" lon="10.878108235321063"><ele>59.0</ele><time>2026-04-07T12:40:59Z</time></trkpt><trkpt lat="43.61925225618553" lon="10.878342155916329"><ele>59.0</ele><time>2026-04-07T12:41:00Z</time></trkpt><trkpt lat="43.61931750803494" lon="10.878555324699326"><ele>59.0</ele><time>2026-04-07T12:41:01Z</time></trkpt><trkpt lat="43.619381516786895" lon="10.87875544418296"><ele>59.0</ele><time>2026-04-07T12:41:02Z</time></trkpt><trkpt lat="43.619449992189" lon="10.878960542675182"><ele>59.0</ele><time>2026-04-07T12:41:03Z</time></trkpt><trkpt lat="43.61952081598664" lon="10.879172651890807"><ele>59.0</ele><time>2026-04-07T12:41:04Z</time></trkpt><trkpt lat="43.61958857046075" lon="10.879392091750432"><ele>59.0</ele><time>2026-04-07T12:41:05Z</time></trkpt><trkpt lat="43.61965959151187" lon="10.879617928296968"><ele>59.0</ele><time>2026-04-07T12:41:06Z</time></trkpt><trkpt lat="43.619730556625065" lon="10.879848632437781"><ele>59.0</ele><time>2026-04-07T12:41:07Z</time></trkpt><trkpt lat="43.61980333179412" lon="10.880081617779089"><ele>59.0</ele><time>2026-04-07T12:41:08Z</time></trkpt><trkpt lat="43.61987892533824" lon="10.880320006580622"><ele>59.333333333333336</ele><time>2026-04-07T12:41:09Z</time></trkpt><trkpt lat="43.61995536105283" lon="10.880562493406387"><ele>59.66666666666667</ele><time>2026-04-07T12:41:10Z</time></trkpt><trkpt lat="43.620035040411864" lon="10.88080804782817"><ele>60.0</ele><time>2026-04-07T12:41:11Z</time></trkpt><trkpt lat="43.620119044520465" lon="10.881050805047499"><ele>60.0</ele><time>2026-04-07T12:41:12Z</time></trkpt><trkpt lat="43.62020440228584" lon="10.881283357139141"><ele>60.0</ele><time>2026-04-07T12:41:13Z</time></trkpt><trkpt lat="43.6202870985934" lon="10.88150076383651"><ele>60.0</ele><time>2026-04-07T12:41:14Z</time></trkpt><trkpt lat="43.62036293477398" lon="10.881706942495319"><ele>59.66666666666667</ele><time>2026-04-07T12:41:15Z</time></trkpt><trkpt lat="43.62043865296427" lon="10.881916675696688"><ele>59.333333333333336</ele><time>2026-04-07T12:41:16Z</time></trkpt><trkpt lat="43.62051634484262" lon="10.882129859953185"><ele>59.0</ele><time>2026-04-07T12:41:17Z</time></trkpt><trkpt lat="43.620596747602924" lon="10.882346189847164"><ele>59.0</ele><time>2026-04-07T12:41:18Z</time></trkpt><trkpt lat="43.62068276332086" lon="10.882566925282601"><ele>59.0</ele><time>2026-04-07T12:41:19Z</time></trkpt><trkpt lat="43.62076477382676" lon="10.882790421621806"><ele>59.0</ele><time>2026-04-07T12:41:20Z</time></trkpt><trkpt lat="43.620828115926294" lon="10.883002059161893"><ele>59.66666666666667</ele><time>2026-04-07T12:41:21Z</time></trkpt><trkpt lat="43.620903016254054" lon="10.883201411434692"><ele>60.33333333333333</ele><time>2026-04-07T12:41:22Z</time></trkpt><trkpt lat="43.620982221467834" lon="10.883412221389293"><ele>61.0</ele><time>2026-04-07T12:41:23Z</time></trkpt><trkpt lat="43.62106346192742" lon="10.88362844827396"><ele>61.0</ele><time>2026-04-07T12:41:24Z</time></trkpt><trkpt lat="43.62114629173445" lon="10.883848905303367"><ele>61.0</ele><time>2026-04-07T12:41:25Z</time></trkpt><trkpt lat="43.62123175574788" lon="10.88407641214401"><ele>61.0</ele><time>2026-04-07T12:41:26Z</time></trkpt><trkpt lat="43.62131780212273" lon="10.884307048361768"><ele>62.666666666666664</ele><time>2026-04-07T12:41:27Z</time></trkpt><trkpt lat="43.621403730355865" lon="10.884537367927186"><ele>64.33333333333333</ele><time>2026-04-07T12:41:28Z</time></trkpt><trkpt lat="43.62148310268008" lon="10.884750116282621"><ele>66.0</ele><time>2026-04-07T12:41:29Z</time></trkpt><trkpt lat="43.62155830462056" lon="10.884948309490722"><ele>66.66666666666667</ele><time>2026-04-07T12:41:30Z</time></trkpt><trkpt lat="43.621630862890804" lon="10.885137689396455"><ele>67.33333333333334</ele><time>2026-04-07T12:41:31Z</time></trkpt><trkpt lat="43.621710333524895" lon="10.885332960133681"><ele>68.0</ele><time>2026-04-07T12:41:32Z</time></trkpt><trkpt lat="43.62174629700457" lon="10.885554545184842"><ele>68.0</ele><time>2026-04-07T12:41:33Z</time></trkpt><trkpt lat="43.621776959409615" lon="10.885783019674996"><ele>68.0</ele><time>2026-04-07T12:41:34Z</time></trkpt><trkpt lat="43.62177905382896" lon="10.886024981845143"><ele>68.0</ele><time>2026-04-07T12:41:35Z</time></trkpt><trkpt lat="43.621753614935336" lon="10.886268278385867"><ele>68.0</ele><time>2026-04-07T12:41:36Z</time></trkpt><trkpt lat="43.621699084439" lon="10.886511197978702"><ele>68.0</ele><time>2026-04-07T12:41:36.999Z</time></trkpt><trkpt lat="43.621616835807465" lon="10.886746331907295"><ele>68.0</ele><time>2026-04-07T12:41:37.999Z</time></trkpt><trkpt lat="43.621522110849234" lon="10.886985999943553"><ele>70.33333333333334</ele><time>2026-04-07T12:41:38.999Z</time></trkpt><trkpt lat="43.621419781235545" lon="10.887240648252632"><ele>72.66666666666667</ele><time>2026-04-07T12:41:39.999Z</time></trkpt><trkpt lat="43.62131763626933" lon="10.887494837846479"><ele>75.0</ele><time>2026-04-07T12:41:40.999Z</time></trkpt><trkpt lat="43.621225711440694" lon="10.887723596872569"><ele>74.0</ele><time>2026-04-07T12:41:41.999Z</time></trkpt><trkpt lat="43.62113252835165" lon="10.88795548713745"><ele>73.0</ele><time>2026-04-07T12:41:42.999Z</time></trkpt><trkpt lat="43.62107487946245" lon="10.888209270236292"><ele>72.0</ele><time>2026-04-07T12:41:43.999Z</time></trkpt><trkpt lat="43.62098663118951" lon="10.888427787125032"><ele>72.0</ele><time>2026-04-07T12:41:44.999Z</time></trkpt><trkpt lat="43.620900086023376" lon="10.888654845836555"><ele>72.0</ele><time>2026-04-07T12:41:45.999Z</time></trkpt><trkpt lat="43.62081091974801" lon="10.88888913494616"><ele>72.0</ele><time>2026-04-07T12:41:46.999Z</time></trkpt><trkpt lat="43.620715229147656" lon="10.889124506014388"><ele>73.0</ele><time>2026-04-07T12:41:47.999Z</time></trkpt><trkpt lat="43.62062398962387" lon="10.889347057063413"><ele>74.0</ele><time>2026-04-07T12:41:48.999Z</time></trkpt><trkpt lat="43.62053783942985" lon="10.889559519918524"><ele>75.0</ele><time>2026-04-07T12:41:49.999Z</time></trkpt><trkpt lat="43.62046177222771" lon="10.889761354278116"><ele>75.0</ele><time>2026-04-07T12:41:50.999Z</time></trkpt><trkpt lat="43.62040004498891" lon="10.889975092274872"><ele>75.0</ele><time>2026-04-07T12:41:51.999Z</time></trkpt><trkpt lat="43.620353598879724" lon="10.890219501485923"><ele>75.0</ele><time>2026-04-07T12:41:52.999Z</time></trkpt><trkpt lat="43.62032297371275" lon="10.89046518889008"><ele>71.33333333333333</ele><time>2026-04-07T12:41:53.999Z</time></trkpt><trkpt lat="43.62029628330969" lon="10.890724630291643"><ele>67.66666666666666</ele><time>2026-04-07T12:41:54.999Z</time></trkpt><trkpt lat="43.62026016877772" lon="10.890987923059935"><ele>64.0</ele><time>2026-04-07T12:41:55.999Z</time></trkpt><trkpt lat="43.62021879917635" lon="10.891255694049521"><ele>64.0</ele><time>2026-04-07T12:41:56.999Z</time></trkpt><trkpt lat="43.620174997965805" lon="10.891531766210258"><ele>64.0</ele><time>2026-04-07T12:41:57.999Z</time></trkpt><trkpt lat="43.62012300914742" lon="10.89181463746644"><ele>64.0</ele><time>2026-04-07T12:41:58.999Z</time></trkpt><trkpt lat="43.62006032823307" lon="10.892096271874031"><ele>63.666666666666664</ele><time>2026-04-07T12:41:59.999Z</time></trkpt><trkpt lat="43.61998686484485" lon="10.892362353240179"><ele>63.33333333333333</ele><time>2026-04-07T12:42:00.999Z</time></trkpt><trkpt lat="43.619916695431506" lon="10.892612932322786"><ele>63.0</ele><time>2026-04-07T12:42:01.999Z</time></trkpt><trkpt lat="43.61984910969318" lon="10.892861489711755"><ele>63.66666666666667</ele><time>2026-04-07T12:42:02.999Z</time></trkpt><trkpt lat="43.61978389527161" lon="10.893110168144096"><ele>64.33333333333334</ele><time>2026-04-07T12:42:03.999Z</time></trkpt><trkpt lat="43.619716481540905" lon="10.893368500979651"><ele>65.0</ele><time>2026-04-07T12:42:04.999Z</time></trkpt><trkpt lat="43.61964517848776" lon="10.893628989838552"><ele>66.66666666666667</ele><time>2026-04-07T12:42:05.999Z</time></trkpt><trkpt lat="43.61957550278709" lon="10.89389281824603"><ele>68.33333333333333</ele><time>2026-04-07T12:42:06.999Z</time></trkpt><trkpt lat="43.619503625772104" lon="10.894159423458168"><ele>70.0</ele><time>2026-04-07T12:42:07.999Z</time></trkpt><trkpt lat="43.619432501889065" lon="10.89441643613724"><ele>70.0</ele><time>2026-04-07T12:42:08.999Z</time></trkpt><trkpt lat="43.61936595999605" lon="10.894655073326696"><ele>70.0</ele><time>2026-04-07T12:42:09.999Z</time></trkpt><trkpt lat="43.619301054785986" lon="10.894894513306236"><ele>70.0</ele><time>2026-04-07T12:42:10.999Z</time></trkpt><trkpt lat="43.61924603089715" lon="10.895141653659179"><ele>71.33333333333333</ele><time>2026-04-07T12:42:11.999Z</time></trkpt><trkpt lat="43.61920281439715" lon="10.895399689377973"><ele>72.66666666666667</ele><time>2026-04-07T12:42:12.999Z</time></trkpt><trkpt lat="43.61916950066324" lon="10.895668805979803"><ele>74.0</ele><time>2026-04-07T12:42:13.999Z</time></trkpt><trkpt lat="43.61914159472704" lon="10.895946236237073"><ele>74.0</ele><time>2026-04-07T12:42:14.999Z</time></trkpt><trkpt lat="43.619117003588705" lon="10.896214545804826"><ele>74.0</ele><time>2026-04-07T12:42:15.999Z</time></trkpt><trkpt lat="43.619091248497334" lon="10.896458260181841"><ele>74.0</ele><time>2026-04-07T12:42:16.999Z</time></trkpt><trkpt lat="43.619063933738076" lon="10.89670767196113"><ele>73.66666666666667</ele><time>2026-04-07T12:42:17.999Z</time></trkpt><trkpt lat="43.61903592492167" lon="10.896967962158849"><ele>73.33333333333333</ele><time>2026-04-07T12:42:18.999Z</time></trkpt><trkpt lat="43.619010282321334" lon="10.897213971589286"><ele>73.0</ele><time>2026-04-07T12:42:19.999Z</time></trkpt><trkpt lat="43.61898859361515" lon="10.897446137428512"><ele>72.33333333333333</ele><time>2026-04-07T12:42:20.999Z</time></trkpt><trkpt lat="43.61895989363793" lon="10.89766707906787"><ele>71.66666666666667</ele><time>2026-04-07T12:42:21.999Z</time></trkpt><trkpt lat="43.618911561365934" lon="10.89788372265964"><ele>71.0</ele><time>2026-04-07T12:42:22.999Z</time></trkpt><trkpt lat="43.61882631056254" lon="10.898101001065191"><ele>71.0</ele><time>2026-04-07T12:42:23.999Z</time></trkpt><trkpt lat="43.61871537051993" lon="10.898303565303278"><ele>71.0</ele><time>2026-04-07T12:42:24.999Z</time></trkpt><trkpt lat="43.61859162344004" lon="10.898483102862116"><ele>71.0</ele><time>2026-04-07T12:42:25.999Z</time></trkpt><trkpt lat="43.61845714347122" lon="10.898667365775465"><ele>71.66666666666667</ele><time>2026-04-07T12:42:26.999Z</time></trkpt><trkpt lat="43.618313683742834" lon="10.898862347239614"><ele>72.33333333333333</ele><time>2026-04-07T12:42:27.999Z</time></trkpt><trkpt lat="43.618168715667885" lon="10.89907012746445"><ele>73.0</ele><time>2026-04-07T12:42:28.999Z</time></trkpt><trkpt lat="43.618020145767744" lon="10.89928524026666"><ele>73.0</ele><time>2026-04-07T12:42:29.999Z</time></trkpt><trkpt lat="43.61786700581419" lon="10.89950045859322"><ele>73.0</ele><time>2026-04-07T12:42:30.999Z</time></trkpt><trkpt lat="43.61771687137088" lon="10.899715689895004"><ele>73.0</ele><time>2026-04-07T12:42:31.999Z</time></trkpt><trkpt lat="43.61758243605183" lon="10.89991577519869"><ele>77.33333333333333</ele><time>2026-04-07T12:42:33Z</time></trkpt><trkpt lat="43.61744544198913" lon="10.900121290629656"><ele>81.66666666666667</ele><time>2026-04-07T12:42:34Z</time></trkpt><trkpt lat="43.6173015294733" lon="10.900327381728651"><ele>86.0</ele><time>2026-04-07T12:42:35Z</time></trkpt><trkpt lat="43.61715979215979" lon="10.900528712943654"><ele>86.0</ele><time>2026-04-07T12:42:36Z</time></trkpt><trkpt lat="43.61702879518621" lon="10.900716646982456"><ele>86.0</ele><time>2026-04-07T12:42:37Z</time></trkpt><trkpt lat="43.616893177048205" lon="10.90090126893446"><ele>86.0</ele><time>2026-04-07T12:42:38Z</time></trkpt><trkpt lat="43.61674660404053" lon="10.901078124964826"><ele>82.0</ele><time>2026-04-07T12:42:39Z</time></trkpt><trkpt lat="43.61659454711463" lon="10.901235456437938"><ele>78.0</ele><time>2026-04-07T12:42:40Z</time></trkpt><trkpt lat="43.6164499082519" lon="10.9013725092597"><ele>74.0</ele><time>2026-04-07T12:42:41Z</time></trkpt><trkpt lat="43.61630482835047" lon="10.901508823167559"><ele>74.0</ele><time>2026-04-07T12:42:42Z</time></trkpt><trkpt lat="43.61616067367986" lon="10.901666364458404"><ele>74.0</ele><time>2026-04-07T12:42:43Z</time></trkpt><trkpt lat="43.61602939825139" lon="10.901839441077126"><ele>74.0</ele><time>2026-04-07T12:42:44Z</time></trkpt><trkpt lat="43.61590042574436" lon="10.902026957180631"><ele>74.0</ele><time>2026-04-07T12:42:45Z</time></trkpt><trkpt lat="43.615767429901695" lon="10.902223905140309"><ele>74.0</ele><time>2026-04-07T12:42:46Z</time></trkpt><trkpt lat="43.615630907648644" lon="10.90242547569878"><ele>74.0</ele><time>2026-04-07T12:42:47Z</time></trkpt><trkpt lat="43.61548580938776" lon="10.90263366859144"><ele>72.66666666666667</ele><time>2026-04-07T12:42:48Z</time></trkpt><trkpt lat="43.6153359002231" lon="10.9028448609854"><ele>71.33333333333333</ele><time>2026-04-07T12:42:49Z</time></trkpt><trkpt lat="43.61518379849415" lon="10.903061570952415"><ele>70.0</ele><time>2026-04-07T12:42:50Z</time></trkpt><trkpt lat="43.61503928311895" lon="10.903276722112249"><ele>73.33333333333333</ele><time>2026-04-07T12:42:51Z</time></trkpt><trkpt lat="43.61490734684437" lon="10.903475633771142"><ele>76.66666666666667</ele><time>2026-04-07T12:42:52Z</time></trkpt><trkpt lat="43.6147778578221" lon="10.903665253005322"><ele>80.0</ele><time>2026-04-07T12:42:53Z</time></trkpt><trkpt lat="43.61464500078663" lon="10.903855377345678"><ele>80.0</ele><time>2026-04-07T12:42:54Z</time></trkpt><trkpt lat="43.61451702152738" lon="10.904037712706836"><ele>80.0</ele><time>2026-04-07T12:42:55Z</time></trkpt><trkpt lat="43.61439919294278" lon="10.904214365778543"><ele>80.0</ele><time>2026-04-07T12:42:56Z</time></trkpt><trkpt lat="43.614277466731195" lon="10.904401281471584"><ele>77.66666666666667</ele><time>2026-04-07T12:42:57Z</time></trkpt><trkpt lat="43.614157951855915" lon="10.904611567090123"><ele>75.33333333333333</ele><time>2026-04-07T12:42:58Z</time></trkpt><trkpt lat="43.61404572291204" lon="10.904839102368802"><ele>73.0</ele><time>2026-04-07T12:42:59Z</time></trkpt><trkpt lat="43.61393841741862" lon="10.905074185581316"><ele>72.33333333333333</ele><time>2026-04-07T12:43:00Z</time></trkpt><trkpt lat="43.61383687169265" lon="10.905318361204229"><ele>71.66666666666667</ele><time>2026-04-07T12:43:01Z</time></trkpt><trkpt lat="43.61373360648096" lon="10.905567986604563"><ele>71.0</ele><time>2026-04-07T12:43:02Z</time></trkpt><trkpt lat="43.613627429771725" lon="10.905819949261517"><ele>72.0</ele><time>2026-04-07T12:43:03Z</time></trkpt><trkpt lat="43.61352029616623" lon="10.906073817604629"><ele>73.0</ele><time>2026-04-07T12:43:04Z</time></trkpt><trkpt lat="43.61341984113217" lon="10.90631859043868"><ele>74.0</ele><time>2026-04-07T12:43:05Z</time></trkpt><trkpt lat="43.61332674082378" lon="10.906546516287003"><ele>74.0</ele><time>2026-04-07T12:43:06Z</time></trkpt><trkpt lat="43.61323531428387" lon="10.90676777590025"><ele>74.0</ele><time>2026-04-07T12:43:07Z</time></trkpt><trkpt lat="43.61314005367853" lon="10.907001839453795"><ele>74.0</ele><time>2026-04-07T12:43:08Z</time></trkpt><trkpt lat="43.61304255042636" lon="10.907243277241486"><ele>74.0</ele><time>2026-04-07T12:43:09Z</time></trkpt><trkpt lat="43.6129418931897" lon="10.907487203778931"><ele>74.0</ele><time>2026-04-07T12:43:10Z</time></trkpt><trkpt lat="43.61284592211778" lon="10.907720131804822"><ele>74.0</ele><time>2026-04-07T12:43:11Z</time></trkpt><trkpt lat="43.61274934486227" lon="10.907954905699858"><ele>74.0</ele><time>2026-04-07T12:43:12Z</time></trkpt><trkpt lat="43.612649106664655" lon="10.908197302137784"><ele>74.0</ele><time>2026-04-07T12:43:13Z</time></trkpt><trkpt lat="43.61255066328661" lon="10.908441598511633"><ele>74.0</ele><time>2026-04-07T12:43:14Z</time></trkpt><trkpt lat="43.61244920755376" lon="10.908691421801912"><ele>74.0</ele><time>2026-04-07T12:43:15Z</time></trkpt><trkpt lat="43.61234842169367" lon="10.908942280081828"><ele>74.0</ele><time>2026-04-07T12:43:16Z</time></trkpt><trkpt lat="43.61224235314825" lon="10.909197147862441"><ele>74.0</ele><time>2026-04-07T12:43:17Z</time></trkpt><trkpt lat="43.612137054090645" lon="10.909450278651665"><ele>74.0</ele><time>2026-04-07T12:43:18Z</time></trkpt><trkpt lat="43.612036297979465" lon="10.90969368319636"><ele>74.0</ele><time>2026-04-07T12:43:19Z</time></trkpt><trkpt lat="43.611945695711476" lon="10.909918383080738"><ele>74.0</ele><time>2026-04-07T12:43:20Z</time></trkpt><trkpt lat="43.61185676548708" lon="10.910133052333444"><ele>75.0</ele><time>2026-04-07T12:43:21Z</time></trkpt><trkpt lat="43.61176694758133" lon="10.910349820845415"><ele>76.0</ele><time>2026-04-07T12:43:22Z</time></trkpt><trkpt lat="43.61167249791051" lon="10.910572533385329"><ele>77.0</ele><time>2026-04-07T12:43:23Z</time></trkpt><trkpt lat="43.611571893268795" lon="10.910800379420492"><ele>78.33333333333334</ele><time>2026-04-07T12:43:24Z</time></trkpt><trkpt lat="43.61146688795352" lon="10.911036535723198"><ele>79.66666666666667</ele><time>2026-04-07T12:43:25Z</time></trkpt><trkpt lat="43.611365058745456" lon="10.911263349710515"><ele>81.0</ele><time>2026-04-07T12:43:26Z</time></trkpt><trkpt lat="43.611269884108154" lon="10.911476913110418"><ele>81.0</ele><time>2026-04-07T12:43:27Z</time></trkpt><trkpt lat="43.61117621030178" lon="10.911684184303978"><ele>81.0</ele><time>2026-04-07T12:43:28Z</time></trkpt><trkpt lat="43.61107725874474" lon="10.911901404406269"><ele>81.0</ele><time>2026-04-07T12:43:29Z</time></trkpt><trkpt lat="43.61097068274886" lon="10.912122494436664"><ele>79.0</ele><time>2026-04-07T12:43:30Z</time></trkpt><trkpt lat="43.61084907053487" lon="10.91233859358726"><ele>77.0</ele><time>2026-04-07T12:43:31Z</time></trkpt><trkpt lat="43.610716220210165" lon="10.912534573375357"><ele>75.0</ele><time>2026-04-07T12:43:32Z</time></trkpt><trkpt lat="43.61058763603265" lon="10.9127093849033"><ele>75.66666666666667</ele><time>2026-04-07T12:43:33Z</time></trkpt><trkpt lat="43.61046577603077" lon="10.91287962456261"><ele>76.33333333333334</ele><time>2026-04-07T12:43:34Z</time></trkpt><trkpt lat="43.61034241818846" lon="10.9130527671984"><ele>77.0</ele><time>2026-04-07T12:43:35Z</time></trkpt><trkpt lat="43.610217209595326" lon="10.913232575916899"><ele>78.66666666666667</ele><time>2026-04-07T12:43:36Z</time></trkpt><trkpt lat="43.610089316037254" lon="10.913418442839165"><ele>80.33333333333333</ele><time>2026-04-07T12:43:37Z</time></trkpt><trkpt lat="43.609956723863384" lon="10.913605609622794"><ele>82.0</ele><time>2026-04-07T12:43:38Z</time></trkpt><trkpt lat="43.60982423464279" lon="10.913788269472676"><ele>82.0</ele><time>2026-04-07T12:43:39Z</time></trkpt><trkpt lat="43.60969760979078" lon="10.913960725151897"><ele>82.0</ele><time>2026-04-07T12:43:40Z</time></trkpt><trkpt lat="43.60957712646764" lon="10.914126816651496"><ele>82.0</ele><time>2026-04-07T12:43:41Z</time></trkpt><trkpt lat="43.60945440791526" lon="10.914283241727054"><ele>80.66666666666666</ele><time>2026-04-07T12:43:42Z</time></trkpt><trkpt lat="43.60932382787896" lon="10.914420024326356"><ele>79.33333333333333</ele><time>2026-04-07T12:43:43Z</time></trkpt><trkpt lat="43.609176230570505" lon="10.914548208126266"><ele>78.0</ele><time>2026-04-07T12:43:44Z</time></trkpt><trkpt lat="43.60901411252501" lon="10.91466589136257"><ele>78.0</ele><time>2026-04-07T12:43:44.999Z</time></trkpt><trkpt lat="43.60883858699596" lon="10.91474453587344"><ele>78.0</ele><time>2026-04-07T12:43:45.999Z</time></trkpt><trkpt lat="43.608671797739795" lon="10.91485318651255"><ele>78.0</ele><time>2026-04-07T12:43:46.999Z</time></trkpt><trkpt lat="43.608511707029" lon="10.914957449396912"><ele>78.0</ele><time>2026-04-07T12:43:47.999Z</time></trkpt><trkpt lat="43.60836606218848" lon="10.915052304031782"><ele>78.0</ele><time>2026-04-07T12:43:48.999Z</time></trkpt><trkpt lat="43.60822924823717" lon="10.915153485351917"><ele>78.0</ele><time>2026-04-07T12:43:49.999Z</time></trkpt><trkpt lat="43.608094341945964" lon="10.915289515851567"><ele>78.0</ele><time>2026-04-07T12:43:50.999Z</time></trkpt><trkpt lat="43.607960935195514" lon="10.915459673196537"><ele>78.0</ele><time>2026-04-07T12:43:51.999Z</time></trkpt><trkpt lat="43.60782519590081" lon="10.915665498122761"><ele>78.0</ele><time>2026-04-07T12:43:52.999Z</time></trkpt><trkpt lat="43.60768396877885" lon="10.915888104647232"><ele>81.33333333333333</ele><time>2026-04-07T12:43:53.999Z</time></trkpt><trkpt lat="43.607552057370874" lon="10.916096491546018"><ele>84.66666666666666</ele><time>2026-04-07T12:43:54.999Z</time></trkpt><trkpt lat="43.607431125162414" lon="10.916287534874668"><ele>88.0</ele><time>2026-04-07T12:43:55.999Z</time></trkpt><trkpt lat="43.60731504392459" lon="10.916457773010324"><ele>88.0</ele><time>2026-04-07T12:43:56.999Z</time></trkpt><trkpt lat="43.60719086176396" lon="10.916601756117842"><ele>88.0</ele><time>2026-04-07T12:43:57.999Z</time></trkpt><trkpt lat="43.60704507645869" lon="10.916715686347967"><ele>88.0</ele><time>2026-04-07T12:43:58.999Z</time></trkpt><trkpt lat="43.60688270540855" lon="10.916808559035857"><ele>87.0</ele><time>2026-04-07T12:43:59.999Z</time></trkpt><trkpt lat="43.60671247244778" lon="10.916897692842166"><ele>86.0</ele><time>2026-04-07T12:44:00.999Z</time></trkpt><trkpt lat="43.60653800069058" lon="10.916997060693161"><ele>85.0</ele><time>2026-04-07T12:44:01.999Z</time></trkpt><trkpt lat="43.606367141810075" lon="10.917079289957016"><ele>85.0</ele><time>2026-04-07T12:44:02.999Z</time></trkpt><trkpt lat="43.60619019718921" lon="10.91714006769089"><ele>85.0</ele><time>2026-04-07T12:44:03.999Z</time></trkpt><trkpt lat="43.60600332454083" lon="10.917161415805205"><ele>85.0</ele><time>2026-04-07T12:44:04.999Z</time></trkpt><trkpt lat="43.6058108069417" lon="10.91715149454549"><ele>85.0</ele><time>2026-04-07T12:44:05.999Z</time></trkpt><trkpt lat="43.605631707826966" lon="10.917130840311037"><ele>85.0</ele><time>2026-04-07T12:44:06.999Z</time></trkpt><trkpt lat="43.60546424163976" lon="10.917106260307726"><ele>85.0</ele><time>2026-04-07T12:44:07.999Z</time></trkpt><trkpt lat="43.605306197134546" lon="10.917105347778442"><ele>86.33333333333333</ele><time>2026-04-07T12:44:08.999Z</time></trkpt><trkpt lat="43.60515259195234" lon="10.9170917272268"><ele>87.66666666666667</ele><time>2026-04-07T12:44:09.999Z</time></trkpt><trkpt lat="43.60499479299851" lon="10.917078751968507"><ele>89.0</ele><time>2026-04-07T12:44:10.999Z</time></trkpt><trkpt lat="43.60483199051316" lon="10.917142285644418"><ele>89.0</ele><time>2026-04-07T12:44:11.999Z</time></trkpt><trkpt lat="43.60467352620055" lon="10.917244384077978"><ele>89.0</ele><time>2026-04-07T12:44:12.999Z</time></trkpt><trkpt lat="43.60451165214138" lon="10.917361866973788"><ele>89.0</ele><time>2026-04-07T12:44:13.999Z</time></trkpt><trkpt lat="43.60434296303115" lon="10.917485387203627"><ele>91.66666666666667</ele><time>2026-04-07T12:44:14.999Z</time></trkpt><trkpt lat="43.604183261387426" lon="10.917598421128753"><ele>94.33333333333334</ele><time>2026-04-07T12:44:15.999Z</time></trkpt><trkpt lat="43.604030484679576" lon="10.917683661734053"><ele>97.0</ele><time>2026-04-07T12:44:16.999Z</time></trkpt><trkpt lat="43.60388004066836" lon="10.917740508608535"><ele>97.0</ele><time>2026-04-07T12:44:17.999Z</time></trkpt><trkpt lat="43.60372825570775" lon="10.917753975951234"><ele>97.0</ele><time>2026-04-07T12:44:18.999Z</time></trkpt><trkpt lat="43.603564508131804" lon="10.917713572215064"><ele>97.0</ele><time>2026-04-07T12:44:19.999Z</time></trkpt><trkpt lat="43.60339034594908" lon="10.917629900534711"><ele>90.0</ele><time>2026-04-07T12:44:20.999Z</time></trkpt><trkpt lat="43.60322419155988" lon="10.917543310478372"><ele>83.0</ele><time>2026-04-07T12:44:21.999Z</time></trkpt><trkpt lat="43.60304348879535" lon="10.917467749546164"><ele>76.0</ele><time>2026-04-07T12:44:22.999Z</time></trkpt><trkpt lat="43.602858462415426" lon="10.917372801271117"><ele>75.66666666666666</ele><time>2026-04-07T12:44:23.999Z</time></trkpt><trkpt lat="43.60266716791539" lon="10.917277536923246"><ele>75.33333333333333</ele><time>2026-04-07T12:44:24.999Z</time></trkpt><trkpt lat="43.602494669832815" lon="10.917164614534627"><ele>75.0</ele><time>2026-04-07T12:44:25.999Z</time></trkpt><trkpt lat="43.60233927699055" lon="10.917087862664403"><ele>75.0</ele><time>2026-04-07T12:44:26.999Z</time></trkpt><trkpt lat="43.60218614906958" lon="10.917064030522605"><ele>75.0</ele><time>2026-04-07T12:44:27.999Z</time></trkpt><trkpt lat="43.60204573738792" lon="10.917063329253851"><ele>75.0</ele><time>2026-04-07T12:44:28.999Z</time></trkpt><trkpt lat="43.60190400331281" lon="10.917077988546325"><ele>75.0</ele><time>2026-04-07T12:44:29.999Z</time></trkpt><trkpt lat="43.60174313433589" lon="10.917166238466754"><ele>76.66666666666667</ele><time>2026-04-07T12:44:30.999Z</time></trkpt><trkpt lat="43.601574205176725" lon="10.917282238704189"><ele>78.33333333333334</ele><time>2026-04-07T12:44:31.999Z</time></trkpt><trkpt lat="43.60138670896141" lon="10.917411711973616"><ele>80.0</ele><time>2026-04-07T12:44:32.999Z</time></trkpt><trkpt lat="43.60121361616505" lon="10.917532019929444"><ele>79.0</ele><time>2026-04-07T12:44:33.999Z</time></trkpt><trkpt lat="43.60103449244055" lon="10.917656821861732"><ele>78.0</ele><time>2026-04-07T12:44:34.999Z</time></trkpt><trkpt lat="43.60084886213324" lon="10.917780816277874"><ele>77.0</ele><time>2026-04-07T12:44:35.999Z</time></trkpt><trkpt lat="43.60066831763811" lon="10.917922908687236"><ele>77.0</ele><time>2026-04-07T12:44:36.999Z</time></trkpt><trkpt lat="43.60047290089164" lon="10.918029939312326"><ele>77.0</ele><time>2026-04-07T12:44:37.999Z</time></trkpt><trkpt lat="43.600265183636466" lon="10.918095041130993"><ele>77.0</ele><time>2026-04-07T12:44:39Z</time></trkpt><trkpt lat="43.60005952924524" lon="10.918169234027665"><ele>79.33333333333334</ele><time>2026-04-07T12:44:40Z</time></trkpt><trkpt lat="43.59986182054261" lon="10.918237248817906"><ele>81.66666666666667</ele><time>2026-04-07T12:44:41Z</time></trkpt><trkpt lat="43.59967916627231" lon="10.918297337364884"><ele>84.0</ele><time>2026-04-07T12:44:42Z</time></trkpt><trkpt lat="43.59950888096467" lon="10.918355407955014"><ele>82.0</ele><time>2026-04-07T12:44:43Z</time></trkpt><trkpt lat="43.59934135067294" lon="10.918412855977364"><ele>80.0</ele><time>2026-04-07T12:44:44Z</time></trkpt><trkpt lat="43.59917183419654" lon="10.918468283592071"><ele>78.0</ele><time>2026-04-07T12:44:45Z</time></trkpt><trkpt lat="43.598998245689266" lon="10.918517275447828"><ele>78.0</ele><time>2026-04-07T12:44:46Z</time></trkpt><trkpt lat="43.59881531706273" lon="10.918556347170428"><ele>78.0</ele><time>2026-04-07T12:44:47Z</time></trkpt><trkpt lat="43.598644293026474" lon="10.918609813761002"><ele>78.0</ele><time>2026-04-07T12:44:48Z</time></trkpt><trkpt lat="43.598483844084384" lon="10.918638261949344"><ele>78.25</ele><time>2026-04-07T12:44:49Z</time></trkpt><trkpt lat="43.598338906264" lon="10.918640539156488"><ele>78.5</ele><time>2026-04-07T12:44:50Z</time></trkpt><trkpt lat="43.5982091671973" lon="10.918670821359635"><ele>78.75</ele><time>2026-04-07T12:44:51Z</time></trkpt><trkpt lat="43.598083236084314" lon="10.918715262504577"><ele>79.0</ele><time>2026-04-07T12:44:52Z</time></trkpt><trkpt lat="43.59796143480965" lon="10.918795589550296"><ele>79.0</ele><time>2026-04-07T12:44:53Z</time></trkpt><trkpt lat="43.59785500671686" lon="10.918913474291749"><ele>79.0</ele><time>2026-04-07T12:44:54Z</time></trkpt><trkpt lat="43.59777569839753" lon="10.919078243414999"><ele>79.0</ele><time>2026-04-07T12:44:55Z</time></trkpt><trkpt lat="43.5977609152996" lon="10.91929375885867"><ele>79.0</ele><time>2026-04-07T12:44:56Z</time></trkpt><trkpt lat="43.597745636833174" lon="10.919525421360081"><ele>79.33333333333333</ele><time>2026-04-07T12:44:57Z</time></trkpt><trkpt lat="43.597714809660765" lon="10.919782235480518"><ele>79.66666666666667</ele><time>2026-04-07T12:44:58Z</time></trkpt><trkpt lat="43.597674473068935" lon="10.92000926818941"><ele>80.0</ele><time>2026-04-07T12:44:59Z</time></trkpt><trkpt lat="43.59761003252942" lon="10.920204516798943"><ele>80.0</ele><time>2026-04-07T12:45:00Z</time></trkpt><trkpt lat="43.597512124952765" lon="10.92039242177892"><ele>80.0</ele><time>2026-04-07T12:45:01Z</time></trkpt><trkpt lat="43.59738236337512" lon="10.920570731358875"><ele>80.0</ele><time>2026-04-07T12:45:02Z</time></trkpt><trkpt lat="43.59724525260632" lon="10.92075270577954"><ele>79.33333333333334</ele><time>2026-04-07T12:45:03Z</time></trkpt><trkpt lat="43.59709659600942" lon="10.920945305074113"><ele>78.66666666666667</ele><time>2026-04-07T12:45:04Z</time></trkpt><trkpt lat="43.596939141782755" lon="10.921149302571234"><ele>78.0</ele><time>2026-04-07T12:45:05Z</time></trkpt><trkpt lat="43.596798045731816" lon="10.921332106420984"><ele>78.0</ele><time>2026-04-07T12:45:06Z</time></trkpt><trkpt lat="43.59666581453789" lon="10.921504144768946"><ele>78.0</ele><time>2026-04-07T12:45:07Z</time></trkpt><trkpt lat="43.596540883004636" lon="10.921666934332249"><ele>78.0</ele><time>2026-04-07T12:45:08Z</time></trkpt><trkpt lat="43.5964193191127" lon="10.921816811464105"><ele>78.0</ele><time>2026-04-07T12:45:09Z</time></trkpt><trkpt lat="43.59629130364959" lon="10.921962140858241"><ele>78.0</ele><time>2026-04-07T12:45:10Z</time></trkpt><trkpt lat="43.59615051806749" lon="10.922079186292217"><ele>78.0</ele><time>2026-04-07T12:45:11Z</time></trkpt><trkpt lat="43.5959929722692" lon="10.922168140927303"><ele>78.66666666666667</ele><time>2026-04-07T12:45:12Z</time></trkpt><trkpt lat="43.595827239732245" lon="10.922230046780221"><ele>79.33333333333334</ele><time>2026-04-07T12:45:13Z</time></trkpt><trkpt lat="43.59564671652666" lon="10.922283137597924"><ele>80.0</ele><time>2026-04-07T12:45:14Z</time></trkpt><trkpt lat="43.59545970654186" lon="10.922340252212157"><ele>80.66666666666667</ele><time>2026-04-07T12:45:15Z</time></trkpt><trkpt lat="43.595285829892376" lon="10.92239410740093"><ele>81.33333333333333</ele><time>2026-04-07T12:45:16Z</time></trkpt><trkpt lat="43.595126766319005" lon="10.92244483256449"><ele>82.0</ele><time>2026-04-07T12:45:17Z</time></trkpt><trkpt lat="43.594987161143045" lon="10.922494518374393"><ele>80.66666666666666</ele><time>2026-04-07T12:45:18Z</time></trkpt><trkpt lat="43.59485809612371" lon="10.92257563365717"><ele>79.33333333333333</ele><time>2026-04-07T12:45:19Z</time></trkpt><trkpt lat="43.59474108279762" lon="10.92270666799012"><ele>78.0</ele><time>2026-04-07T12:45:20Z</time></trkpt><trkpt lat="43.594637824060776" lon="10.922882825228728"><ele>78.0</ele><time>2026-04-07T12:45:21Z</time></trkpt><trkpt lat="43.59457346745459" lon="10.923112602934753"><ele>78.0</ele><time>2026-04-07T12:45:22Z</time></trkpt><trkpt lat="43.59453625427647" lon="10.923341917932527"><ele>78.0</ele><time>2026-04-07T12:45:23Z</time></trkpt><trkpt lat="43.59451019453856" lon="10.923573509192112"><ele>78.66666666666667</ele><time>2026-04-07T12:45:24Z</time></trkpt><trkpt lat="43.59448578024986" lon="10.923833091141814"><ele>79.33333333333334</ele><time>2026-04-07T12:45:25Z</time></trkpt><trkpt lat="43.59446018751891" lon="10.924087971447252"><ele>80.0</ele><time>2026-04-07T12:45:26Z</time></trkpt><trkpt lat="43.59443719848415" lon="10.924316921336896"><ele>80.75</ele><time>2026-04-07T12:45:27Z</time></trkpt><trkpt lat="43.5944147501561" lon="10.924527807748142"><ele>81.5</ele><time>2026-04-07T12:45:28Z</time></trkpt><trkpt lat="43.59437475662398" lon="10.924715364438816"><ele>82.25</ele><time>2026-04-07T12:45:29Z</time></trkpt><trkpt lat="43.59430031232656" lon="10.924883594736542"><ele>83.0</ele><time>2026-04-07T12:45:30Z</time></trkpt><trkpt lat="43.594186549662744" lon="10.925041627584552"><ele>85.66666666666667</ele><time>2026-04-07T12:45:31Z</time></trkpt><trkpt lat="43.59404111690166" lon="10.92516918363501"><ele>88.33333333333333</ele><time>2026-04-07T12:45:32Z</time></trkpt><trkpt lat="43.59389199710357" lon="10.925290907129966"><ele>91.0</ele><time>2026-04-07T12:45:33Z</time></trkpt><trkpt lat="43.59372722193621" lon="10.925428595834244"><ele>86.5</ele><time>2026-04-07T12:45:34Z</time></trkpt><trkpt lat="43.59354153927174" lon="10.925586243801314"><ele>82.0</ele><time>2026-04-07T12:45:35Z</time></trkpt><trkpt lat="43.59334104416378" lon="10.925756437885427"><ele>86.5</ele><time>2026-04-07T12:45:36Z</time></trkpt><trkpt lat="43.59313003193625" lon="10.92593437564453"><ele>91.0</ele><time>2026-04-07T12:45:37Z</time></trkpt><trkpt lat="43.59292798327072" lon="10.926102802462951"><ele>90.33333333333333</ele><time>2026-04-07T12:45:38Z</time></trkpt><trkpt lat="43.59275254066786" lon="10.926249836568498"><ele>89.66666666666667</ele><time>2026-04-07T12:45:39Z</time></trkpt><trkpt lat="43.592594363201734" lon="10.926389518397798"><ele>89.0</ele><time>2026-04-07T12:45:40Z</time></trkpt><trkpt lat="43.592455610056874" lon="10.926548000695167"><ele>93.66666666666667</ele><time>2026-04-07T12:45:41Z</time></trkpt><trkpt lat="43.59231701090602" lon="10.926730710476829"><ele>98.33333333333334</ele><time>2026-04-07T12:45:42Z</time></trkpt><trkpt lat="43.5921745785818" lon="10.926930513012008"><ele>103.0</ele><time>2026-04-07T12:45:43Z</time></trkpt><trkpt lat="43.59202727339817" lon="10.927134524879282"><ele>101.66666666666667</ele><time>2026-04-07T12:45:44Z</time></trkpt><trkpt lat="43.59189416216385" lon="10.92731510120272"><ele>100.33333333333334</ele><time>2026-04-07T12:45:45Z</time></trkpt><trkpt lat="43.59177601314537" lon="10.92747538005347"><ele>99.0</ele><time>2026-04-07T12:45:46Z</time></trkpt><trkpt lat="43.591670740093335" lon="10.927618191620388"><ele>99.0</ele><time>2026-04-07T12:45:47Z</time></trkpt><trkpt lat="43.59157789887641" lon="10.927748251710947"><ele>99.0</ele><time>2026-04-07T12:45:48Z</time></trkpt><trkpt lat="43.59149739161842" lon="10.927893392421874"><ele>99.0</ele><time>2026-04-07T12:45:49Z</time></trkpt><trkpt lat="43.5914407148684" lon="10.928072342238545"><ele>99.0</ele><time>2026-04-07T12:45:50Z</time></trkpt><trkpt lat="43.591410325246116" lon="10.928278436898921"><ele>99.0</ele><time>2026-04-07T12:45:51Z</time></trkpt><trkpt lat="43.59141668110271" lon="10.928494861648314"><ele>99.0</ele><time>2026-04-07T12:45:51.999Z</time></trkpt><trkpt lat="43.59147058664965" lon="10.928716364742325"><ele>99.0</ele><time>2026-04-07T12:45:52.999Z</time></trkpt><trkpt lat="43.59155899186107" lon="10.928924748148647"><ele>99.0</ele><time>2026-04-07T12:45:53.999Z</time></trkpt><trkpt lat="43.59164990701072" lon="10.92916417923879"><ele>99.0</ele><time>2026-04-07T12:45:54.999Z</time></trkpt><trkpt lat="43.59172172488142" lon="10.92941456622586"><ele>99.0</ele><time>2026-04-07T12:45:55.999Z</time></trkpt><trkpt lat="43.59179370320766" lon="10.929619586566046"><ele>99.33333333333334</ele><time>2026-04-07T12:45:56.999Z</time></trkpt><trkpt lat="43.59188194363863" lon="10.929790802355763"><ele>99.66666666666667</ele><time>2026-04-07T12:45:57.999Z</time></trkpt><trkpt lat="43.59197029497038" lon="10.929945960820714"><ele>100.0</ele><time>2026-04-07T12:45:58.999Z</time></trkpt><trkpt lat="43.59208923126287" lon="10.930083324107933"><ele>102.0</ele><time>2026-04-07T12:45:59.999Z</time></trkpt><trkpt lat="43.59224007559127" lon="10.930207439619652"><ele>104.0</ele><time>2026-04-07T12:46:00.999Z</time></trkpt><trkpt lat="43.59240841695472" lon="10.930311890042049"><ele>106.0</ele><time>2026-04-07T12:46:01.999Z</time></trkpt><trkpt lat="43.59256252928893" lon="10.930381346290927"><ele>106.0</ele><time>2026-04-07T12:46:02.999Z</time></trkpt><trkpt lat="43.592710240688476" lon="10.930432197255524"><ele>106.0</ele><time>2026-04-07T12:46:03.999Z</time></trkpt><trkpt lat="43.592854122045864" lon="10.930481200321259"><ele>106.0</ele><time>2026-04-07T12:46:04.999Z</time></trkpt><trkpt lat="43.59298797183896" lon="10.930562864191257"><ele>106.0</ele><time>2026-04-07T12:46:05.999Z</time></trkpt><trkpt lat="43.59311024334812" lon="10.930665167874727"><ele>103.66666666666667</ele><time>2026-04-07T12:46:06.999Z</time></trkpt><trkpt lat="43.5932432497161" lon="10.930786228669266"><ele>101.33333333333334</ele><time>2026-04-07T12:46:07.999Z</time></trkpt><trkpt lat="43.593377118141184" lon="10.930910037904653"><ele>99.0</ele><time>2026-04-07T12:46:08.999Z</time></trkpt><trkpt lat="43.593497629739744" lon="10.931021804577462"><ele>99.25</ele><time>2026-04-07T12:46:09.999Z</time></trkpt><trkpt lat="43.59361634006071" lon="10.931131526656776"><ele>99.5</ele><time>2026-04-07T12:46:10.999Z</time></trkpt><trkpt lat="43.5937212681883" lon="10.931253803324651"><ele>99.75</ele><time>2026-04-07T12:46:11.999Z</time></trkpt><trkpt lat="43.59380091889293" lon="10.931407075085977"><ele>100.0</ele><time>2026-04-07T12:46:12.999Z</time></trkpt><trkpt lat="43.5938351397498" lon="10.931606464670004"><ele>98.0</ele><time>2026-04-07T12:46:13.999Z</time></trkpt><trkpt lat="43.593864975378935" lon="10.931822847268318"><ele>96.0</ele><time>2026-04-07T12:46:14.999Z</time></trkpt><trkpt lat="43.5938883770083" lon="10.932054520380252"><ele>94.0</ele><time>2026-04-07T12:46:15.999Z</time></trkpt><trkpt lat="43.5939123203103" lon="10.932262881927919"><ele>94.0</ele><time>2026-04-07T12:46:16.999Z</time></trkpt><trkpt lat="43.59393949573856" lon="10.932455885548285"><ele>94.0</ele><time>2026-04-07T12:46:17.999Z</time></trkpt><trkpt lat="43.593971747921316" lon="10.932638113876136"><ele>94.0</ele><time>2026-04-07T12:46:18.999Z</time></trkpt><trkpt lat="43.59403737403182" lon="10.932808719984822"><ele>94.0</ele><time>2026-04-07T12:46:19.999Z</time></trkpt><trkpt lat="43.59410138104944" lon="10.932982362941853"><ele>92.0</ele><time>2026-04-07T12:46:20.999Z</time></trkpt><trkpt lat="43.59416948719351" lon="10.933155260162835"><ele>90.0</ele><time>2026-04-07T12:46:21.999Z</time></trkpt><trkpt lat="43.594227267802836" lon="10.933319225964496"><ele>88.0</ele><time>2026-04-07T12:46:22.999Z</time></trkpt><trkpt lat="43.594268224361805" lon="10.93348368853258"><ele>86.0</ele><time>2026-04-07T12:46:23.999Z</time></trkpt><trkpt lat="43.59425676312356" lon="10.933654577132474"><ele>85.0</ele><time>2026-04-07T12:46:24.999Z</time></trkpt><trkpt lat="43.59423157424573" lon="10.933821944732795"><ele>84.0</ele><time>2026-04-07T12:46:25.999Z</time></trkpt><trkpt lat="43.59417685080911" lon="10.933985941825197"><ele>83.0</ele><time>2026-04-07T12:46:26.999Z</time></trkpt><trkpt lat="43.59412398720705" lon="10.934137833278763"><ele>82.0</ele><time>2026-04-07T12:46:27.999Z</time></trkpt><trkpt lat="43.59408050838704" lon="10.934280237464"><ele>80.5</ele><time>2026-04-07T12:46:28.999Z</time></trkpt><trkpt lat="43.59405572726332" lon="10.934432665566051"><ele>79.0</ele><time>2026-04-07T12:46:29.999Z</time></trkpt><trkpt lat="43.594058944264646" lon="10.934607286088509"><ele>77.5</ele><time>2026-04-07T12:46:30.999Z</time></trkpt><trkpt lat="43.59410533196882" lon="10.934793359933568"><ele>76.0</ele><time>2026-04-07T12:46:31.999Z</time></trkpt><trkpt lat="43.59420156719834" lon="10.934958121197123"><ele>73.66666666666666</ele><time>2026-04-07T12:46:32.999Z</time></trkpt><trkpt lat="43.59430339241881" lon="10.93515022530545"><ele>71.33333333333333</ele><time>2026-04-07T12:46:33.999Z</time></trkpt><trkpt lat="43.5943859306908" lon="10.935343101457615"><ele>69.0</ele><time>2026-04-07T12:46:34.999Z</time></trkpt><trkpt lat="43.59447655359436" lon="10.935518731508408"><ele>69.0</ele><time>2026-04-07T12:46:35.999Z</time></trkpt><trkpt lat="43.5944909442387" lon="10.935724408093296"><ele>69.0</ele><time>2026-04-07T12:46:36.999Z</time></trkpt><trkpt lat="43.59447949712205" lon="10.935920233763749"><ele>69.0</ele><time>2026-04-07T12:46:37.999Z</time></trkpt><trkpt lat="43.59444440553526" lon="10.93614527325343"><ele>68.0</ele><time>2026-04-07T12:46:38.999Z</time></trkpt><trkpt lat="43.59440354026673" lon="10.936364189949959"><ele>67.0</ele><time>2026-04-07T12:46:39.999Z</time></trkpt><trkpt lat="43.594361292830925" lon="10.936586276600865"><ele>66.0</ele><time>2026-04-07T12:46:40.999Z</time></trkpt><trkpt lat="43.59431649694481" lon="10.936820753608945"><ele>65.0</ele><time>2026-04-07T12:46:41.999Z</time></trkpt><trkpt lat="43.59427447885728" lon="10.937048754228906"><ele>64.0</ele><time>2026-04-07T12:46:42.999Z</time></trkpt><trkpt lat="43.59423438482727" lon="10.937266314412676"><ele>63.0</ele><time>2026-04-07T12:46:43.999Z</time></trkpt><trkpt lat="43.59419558186521" lon="10.937476868935601"><ele>62.33333333333333</ele><time>2026-04-07T12:46:45Z</time></trkpt><trkpt lat="43.59415688601256" lon="10.937686842243423"><ele>61.666666666666664</ele><time>2026-04-07T12:46:46Z</time></trkpt><trkpt lat="43.59412963785676" lon="10.937927586316714"><ele>61.0</ele><time>2026-04-07T12:46:47Z</time></trkpt><trkpt lat="43.59413209127033" lon="10.93820149787372"><ele>60.666666666666664</ele><time>2026-04-07T12:46:48Z</time></trkpt><trkpt lat="43.5941453705176" lon="10.938478527832581"><ele>60.33333333333333</ele><time>2026-04-07T12:46:49Z</time></trkpt><trkpt lat="43.59416054549676" lon="10.938723184871114"><ele>60.0</ele><time>2026-04-07T12:46:50Z</time></trkpt><trkpt lat="43.59417279557255" lon="10.9389537305126"><ele>60.0</ele><time>2026-04-07T12:46:51Z</time></trkpt><trkpt lat="43.59418320713735" lon="10.939177579131027"><ele>60.0</ele><time>2026-04-07T12:46:52Z</time></trkpt><trkpt lat="43.59419322624471" lon="10.93938288913389"><ele>60.0</ele><time>2026-04-07T12:46:53Z</time></trkpt><trkpt lat="43.594220390413035" lon="10.93957489636394"><ele>59.75</ele><time>2026-04-07T12:46:54Z</time></trkpt><trkpt lat="43.59423932270183" lon="10.93975881148254"><ele>59.5</ele><time>2026-04-07T12:46:55Z</time></trkpt><trkpt lat="43.59429623053078" lon="10.939932188829276"><ele>59.25</ele><time>2026-04-07T12:46:56Z</time></trkpt><trkpt lat="43.59438102605442" lon="10.940084085905715"><ele>59.0</ele><time>2026-04-07T12:46:57Z</time></trkpt><trkpt lat="43.5944986847797" lon="10.940201402156223"><ele>62.66666666666667</ele><time>2026-04-07T12:46:58Z</time></trkpt><trkpt lat="43.59464558291346" lon="10.94027971446575"><ele>66.33333333333333</ele><time>2026-04-07T12:46:59Z</time></trkpt><trkpt lat="43.59479649104518" lon="10.9403290337973"><ele>70.0</ele><time>2026-04-07T12:47:00Z</time></trkpt><trkpt lat="43.594953038760224" lon="10.940383875276972"><ele>70.0</ele><time>2026-04-07T12:47:01Z</time></trkpt><trkpt lat="43.595130156635385" lon="10.940447708992062"><ele>70.0</ele><time>2026-04-07T12:47:02Z</time></trkpt><trkpt lat="43.59531779751844" lon="10.940523549830313"><ele>70.0</ele><time>2026-04-07T12:47:03Z</time></trkpt><trkpt lat="43.59548319402154" lon="10.940589036601645"><ele>68.0</ele><time>2026-04-07T12:47:04Z</time></trkpt><trkpt lat="43.595635342776745" lon="10.940662126588071"><ele>66.0</ele><time>2026-04-07T12:47:05Z</time></trkpt><trkpt lat="43.595782149406894" lon="10.940719427486618"><ele>64.0</ele><time>2026-04-07T12:47:06Z</time></trkpt><trkpt lat="43.59592418428071" lon="10.940804532426862"><ele>62.666666666666664</ele><time>2026-04-07T12:47:07Z</time></trkpt><trkpt lat="43.59607392233223" lon="10.940888090085009"><ele>61.33333333333333</ele><time>2026-04-07T12:47:08Z</time></trkpt><trkpt lat="43.59622775432327" lon="10.940976617320272"><ele>60.0</ele><time>2026-04-07T12:47:09Z</time></trkpt><trkpt lat="43.596389637275365" lon="10.941065099792459"><ele>60.0</ele><time>2026-04-07T12:47:10Z</time></trkpt><trkpt lat="43.59654412868697" lon="10.94114765193799"><ele>60.0</ele><time>2026-04-07T12:47:11Z</time></trkpt><trkpt lat="43.5966911834497" lon="10.941229798756956"><ele>60.0</ele><time>2026-04-07T12:47:12Z</time></trkpt><trkpt lat="43.59683493151336" lon="10.941302123207658"><ele>60.0</ele><time>2026-04-07T12:47:13Z</time></trkpt><trkpt lat="43.59698004256596" lon="10.941373807546205"><ele>60.0</ele><time>2026-04-07T12:47:14Z</time></trkpt><trkpt lat="43.597114047976056" lon="10.94147401343935"><ele>60.0</ele><time>2026-04-07T12:47:15Z</time></trkpt><trkpt lat="43.59722145804578" lon="10.941610887645973"><ele>60.5</ele><time>2026-04-07T12:47:16Z</time></trkpt><trkpt lat="43.5973113419396" lon="10.941783705090465"><ele>61.0</ele><time>2026-04-07T12:47:17Z</time></trkpt><trkpt lat="43.59737474853672" lon="10.941953489600248"><ele>61.5</ele><time>2026-04-07T12:47:18Z</time></trkpt><trkpt lat="43.59740889501025" lon="10.942115861268046"><ele>62.0</ele><time>2026-04-07T12:47:19Z</time></trkpt><trkpt lat="43.59740032501937" lon="10.942284483099447"><ele>62.0</ele><time>2026-04-07T12:47:20Z</time></trkpt><trkpt lat="43.597326083863386" lon="10.94244176481076"><ele>62.0</ele><time>2026-04-07T12:47:21Z</time></trkpt><trkpt lat="43.59724544860868" lon="10.94261422146769"><ele>62.0</ele><time>2026-04-07T12:47:22Z</time></trkpt><trkpt lat="43.59716892297942" lon="10.942783844455013"><ele>62.0</ele><time>2026-04-07T12:47:23Z</time></trkpt><trkpt lat="43.59708841204561" lon="10.94296508673149"><ele>61.66666666666667</ele><time>2026-04-07T12:47:24Z</time></trkpt><trkpt lat="43.59700221249887" lon="10.94315913493411"><ele>61.33333333333333</ele><time>2026-04-07T12:47:25Z</time></trkpt><trkpt lat="43.596908953323066" lon="10.943367932928348"><ele>61.0</ele><time>2026-04-07T12:47:26Z</time></trkpt><trkpt lat="43.59681356576888" lon="10.94358005147222"><ele>61.0</ele><time>2026-04-07T12:47:27Z</time></trkpt><trkpt lat="43.59672697152127" lon="10.943772276470082"><ele>61.0</ele><time>2026-04-07T12:47:28Z</time></trkpt><trkpt lat="43.596639864461125" lon="10.943957384083232"><ele>61.0</ele><time>2026-04-07T12:47:29Z</time></trkpt><trkpt lat="43.596546442668156" lon="10.94415044521934"><ele>64.0</ele><time>2026-04-07T12:47:30Z</time></trkpt><trkpt lat="43.59644443898637" lon="10.944348537572287"><ele>67.0</ele><time>2026-04-07T12:47:31Z</time></trkpt><trkpt lat="43.596339134926055" lon="10.944553039281026"><ele>70.0</ele><time>2026-04-07T12:47:32Z</time></trkpt><trkpt lat="43.596236663791494" lon="10.94475019556336"><ele>67.33333333333333</ele><time>2026-04-07T12:47:33Z</time></trkpt><trkpt lat="43.59614287949547" lon="10.944931117572164"><ele>64.66666666666667</ele><time>2026-04-07T12:47:34Z</time></trkpt><trkpt lat="43.596055342507405" lon="10.945099872115975"><ele>62.0</ele><time>2026-04-07T12:47:35Z</time></trkpt><trkpt lat="43.59596278214024" lon="10.945278310130341"><ele>62.0</ele><time>2026-04-07T12:47:36Z</time></trkpt><trkpt lat="43.59585886141157" lon="10.945477984198662"><ele>62.0</ele><time>2026-04-07T12:47:37Z</time></trkpt><trkpt lat="43.59574814184262" lon="10.945688652506462"><ele>62.0</ele><time>2026-04-07T12:47:38Z</time></trkpt><trkpt lat="43.59564090281249" lon="10.945892699285642"><ele>62.66666666666667</ele><time>2026-04-07T12:47:39Z</time></trkpt><trkpt lat="43.595545432491576" lon="10.946074074452008"><ele>63.33333333333333</ele><time>2026-04-07T12:47:40Z</time></trkpt><trkpt lat="43.595456572085766" lon="10.946242720030765"><ele>64.0</ele><time>2026-04-07T12:47:41Z</time></trkpt><trkpt lat="43.59537587986176" lon="10.946395863129508"><ele>64.0</ele><time>2026-04-07T12:47:42Z</time></trkpt><trkpt lat="43.59530698510254" lon="10.94653860583721"><ele>64.0</ele><time>2026-04-07T12:47:43Z</time></trkpt><trkpt lat="43.59525078735714" lon="10.946677971410463"><ele>64.0</ele><time>2026-04-07T12:47:44Z</time></trkpt><trkpt lat="43.59521799973529" lon="10.94686799957415"><ele>64.0</ele><time>2026-04-07T12:47:45Z</time></trkpt><trkpt lat="43.595215451300426" lon="10.947081060438691"><ele>65.0</ele><time>2026-04-07T12:47:46Z</time></trkpt><trkpt lat="43.5952508938882" lon="10.947306338434961"><ele>66.0</ele><time>2026-04-07T12:47:47Z</time></trkpt><trkpt lat="43.59527689525898" lon="10.947544734035548"><ele>67.0</ele><time>2026-04-07T12:47:48Z</time></trkpt><trkpt lat="43.59528524098898" lon="10.947774919839423"><ele>67.0</ele><time>2026-04-07T12:47:49Z</time></trkpt><trkpt lat="43.59531087221434" lon="10.948019097553077"><ele>67.0</ele><time>2026-04-07T12:47:50Z</time></trkpt><trkpt lat="43.59533555221875" lon="10.948253598258306"><ele>67.0</ele><time>2026-04-07T12:47:51Z</time></trkpt><trkpt lat="43.59536057465335" lon="10.948491352529873"><ele>71.66666666666666</ele><time>2026-04-07T12:47:52Z</time></trkpt><trkpt lat="43.59538708320603" lon="10.948743227566744"><ele>76.33333333333333</ele><time>2026-04-07T12:47:53Z</time></trkpt><trkpt lat="43.59541447811796" lon="10.949003524271443"><ele>81.0</ele><time>2026-04-07T12:47:54Z</time></trkpt><trkpt lat="43.59543844584357" lon="10.949243264097882"><ele>82.0</ele><time>2026-04-07T12:47:55Z</time></trkpt><trkpt lat="43.59546166041569" lon="10.949465276431285"><ele>83.0</ele><time>2026-04-07T12:47:56Z</time></trkpt><trkpt lat="43.59548549874759" lon="10.949693254151674"><ele>84.0</ele><time>2026-04-07T12:47:57Z</time></trkpt><trkpt lat="43.59551035070142" lon="10.949930925360563"><ele>84.66666666666667</ele><time>2026-04-07T12:47:58Z</time></trkpt><trkpt lat="43.5955358728641" lon="10.95017500615136"><ele>85.33333333333334</ele><time>2026-04-07T12:47:59Z</time></trkpt><trkpt lat="43.595561802271135" lon="10.95042298161523"><ele>86.0</ele><time>2026-04-07T12:48:00Z</time></trkpt><trkpt lat="43.59558736556177" lon="10.950673249894981"><ele>86.33333333333334</ele><time>2026-04-07T12:48:01Z</time></trkpt><trkpt lat="43.59561085904451" lon="10.95090296918547"><ele>86.66666666666667</ele><time>2026-04-07T12:48:02Z</time></trkpt><trkpt lat="43.59563381505445" lon="10.951124617369098"><ele>87.0</ele><time>2026-04-07T12:48:03Z</time></trkpt><trkpt lat="43.59565826760871" lon="10.95136071468657"><ele>87.0</ele><time>2026-04-07T12:48:04Z</time></trkpt><trkpt lat="43.59568213923683" lon="10.95159120280883"><ele>87.0</ele><time>2026-04-07T12:48:05Z</time></trkpt><trkpt lat="43.595703506181806" lon="10.951797507603425"><ele>87.0</ele><time>2026-04-07T12:48:06Z</time></trkpt><trkpt lat="43.59572466840818" lon="10.952005008700539"><ele>87.5</ele><time>2026-04-07T12:48:06.999Z</time></trkpt><trkpt lat="43.59574665645016" lon="10.952223001758288"><ele>88.0</ele><time>2026-04-07T12:48:07.999Z</time></trkpt><trkpt lat="43.595767521465675" lon="10.952429861804749"><ele>88.5</ele><time>2026-04-07T12:48:08.999Z</time></trkpt><trkpt lat="43.59578566328304" lon="10.952609723076337"><ele>89.0</ele><time>2026-04-07T12:48:09.999Z</time></trkpt><trkpt lat="43.59580217019208" lon="10.95277555970862"><ele>88.2</ele><time>2026-04-07T12:48:10.999Z</time></trkpt><trkpt lat="43.59581627544835" lon="10.95292836709923"><ele>87.4</ele><time>2026-04-07T12:48:11.999Z</time></trkpt><trkpt lat="43.59583589489714" lon="10.953065685006766"><ele>86.6</ele><time>2026-04-07T12:48:12.999Z</time></trkpt><trkpt lat="43.59578296359345" lon="10.953175641605768"><ele>85.8</ele><time>2026-04-07T12:48:13.999Z</time></trkpt><trkpt lat="43.595691480626826" lon="10.953254733085648"><ele>85.0</ele><time>2026-04-07T12:48:15.999Z</time></trkpt><trkpt lat="43.59562622715518" lon="10.953269608436159"><ele>85.0</ele><time>2026-04-07T12:48:16.999Z</time></trkpt><trkpt lat="43.59553282777092" lon="10.953246250853702"><ele>85.0</ele><time>2026-04-07T12:48:17.999Z</time></trkpt><trkpt lat="43.59541400844386" lon="10.953181225231369"><ele>85.0</ele><time>2026-04-07T12:48:18.999Z</time></trkpt><trkpt lat="43.595277981988396" lon="10.95311865896826"><ele>85.0</ele><time>2026-04-07T12:48:19.999Z</time></trkpt><trkpt lat="43.59515726563599" lon="10.953040474904924"><ele>83.6</ele><time>2026-04-07T12:48:20.999Z</time></trkpt><trkpt lat="43.595055470824356" lon="10.952982415901397"><ele>82.2</ele><time>2026-04-07T12:48:21.999Z</time></trkpt><trkpt lat="43.5949596061807" lon="10.952965043352217"><ele>80.8</ele><time>2026-04-07T12:48:22.999Z</time></trkpt><trkpt lat="43.594870039331276" lon="10.952954752978181"><ele>79.4</ele><time>2026-04-07T12:48:23.999Z</time></trkpt><trkpt lat="43.594796308344485" lon="10.952992678303644"><ele>78.0</ele><time>2026-04-07T12:48:24.999Z</time></trkpt><trkpt lat="43.59475354775052" lon="10.953080656861431"><ele>78.0</ele><time>2026-04-07T12:48:25.999Z</time></trkpt><trkpt lat="43.594789400100936" lon="10.953190928442304"><ele>78.0</ele><time>2026-04-07T12:48:26.999Z</time></trkpt><trkpt lat="43.59482950137829" lon="10.95326425244036"><ele>78.0</ele><time>2026-04-07T12:48:27.999Z</time></trkpt><trkpt lat="43.594930038120744" lon="10.953333652253669"><ele>78.0</ele><time>2026-04-07T12:48:28.999Z</time></trkpt><trkpt lat="43.595027853683376" lon="10.953416011483343"><ele>78.0</ele><time>2026-04-07T12:48:29.999Z</time></trkpt><trkpt lat="43.595143808852114" lon="10.953510326168157"><ele>76.5</ele><time>2026-04-07T12:48:30.999Z</time></trkpt><trkpt lat="43.59527453086163" lon="10.953629504647965"><ele>75.0</ele><time>2026-04-07T12:48:31.999Z</time></trkpt><trkpt lat="43.595382190292185" lon="10.953761393844102"><ele>73.5</ele><time>2026-04-07T12:48:32.999Z</time></trkpt><trkpt lat="43.59545416249417" lon="10.953920297813523"><ele>72.0</ele><time>2026-04-07T12:48:33.999Z</time></trkpt><trkpt lat="43.5955335380948" lon="10.954027101189258"><ele>72.0</ele><time>2026-04-07T12:48:34.999Z</time></trkpt><trkpt lat="43.59560870488562" lon="10.954129911282571"><ele>72.0</ele><time>2026-04-07T12:48:35.999Z</time></trkpt><trkpt lat="43.59570423686495" lon="10.954197572445384"><ele>72.0</ele><time>2026-04-07T12:48:36.999Z</time></trkpt><trkpt lat="43.59581893290625" lon="10.954226017467008"><ele>72.0</ele><time>2026-04-07T12:48:37.999Z</time></trkpt><trkpt lat="43.59594261110791" lon="10.95421907972977"><ele>72.0</ele><time>2026-04-07T12:48:38.999Z</time></trkpt><trkpt lat="43.59608570333688" lon="10.95419496316311"><ele>72.0</ele><time>2026-04-07T12:48:39.999Z</time></trkpt><trkpt lat="43.596242763625376" lon="10.954179958104561"><ele>72.0</ele><time>2026-04-07T12:48:40.999Z</time></trkpt><trkpt lat="43.596389084209896" lon="10.954204908939852"><ele>72.0</ele><time>2026-04-07T12:48:41.999Z</time></trkpt><trkpt lat="43.5965224190085" lon="10.954253607980174"><ele>69.0</ele><time>2026-04-07T12:48:42.999Z</time></trkpt><trkpt lat="43.59664346403548" lon="10.954314851561582"><ele>66.0</ele><time>2026-04-07T12:48:43.999Z</time></trkpt><trkpt lat="43.59675780033571" lon="10.95437582158368"><ele>63.0</ele><time>2026-04-07T12:48:44.999Z</time></trkpt><trkpt lat="43.59686896954263" lon="10.95444503645375"><ele>60.0</ele><time>2026-04-07T12:48:45.999Z</time></trkpt><trkpt lat="43.59696129790385" lon="10.954552751586219"><ele>60.0</ele><time>2026-04-07T12:48:46.999Z</time></trkpt><trkpt lat="43.59700489657369" lon="10.9547056208849"><ele>60.0</ele><time>2026-04-07T12:48:47.999Z</time></trkpt><trkpt lat="43.59706051620643" lon="10.954873903345542"><ele>60.0</ele><time>2026-04-07T12:48:48.999Z</time></trkpt><trkpt lat="43.59709262669933" lon="10.955069622685926"><ele>60.0</ele><time>2026-04-07T12:48:49.999Z</time></trkpt><trkpt lat="43.59712391324199" lon="10.95524111723462"><ele>60.0</ele><time>2026-04-07T12:48:51Z</time></trkpt><trkpt lat="43.59715012060049" lon="10.955409599116896"><ele>60.0</ele><time>2026-04-07T12:48:52Z</time></trkpt><trkpt lat="43.597179356467706" lon="10.955567133728332"><ele>60.0</ele><time>2026-04-07T12:48:53Z</time></trkpt><trkpt lat="43.5972086932472" lon="10.955717690060458"><ele>60.0</ele><time>2026-04-07T12:48:54Z</time></trkpt><trkpt lat="43.59724441682058" lon="10.955872239353685"><ele>58.75</ele><time>2026-04-07T12:48:55Z</time></trkpt><trkpt lat="43.597280711961794" lon="10.956043340781866"><ele>57.5</ele><time>2026-04-07T12:48:56Z</time></trkpt><trkpt lat="43.59733039673128" lon="10.95618981754242"><ele>56.25</ele><time>2026-04-07T12:48:57Z</time></trkpt><trkpt lat="43.59738978434942" lon="10.956330858422032"><ele>55.0</ele><time>2026-04-07T12:48:58Z</time></trkpt><trkpt lat="43.59746645974127" lon="10.956497455194178"><ele>55.0</ele><time>2026-04-07T12:48:59Z</time></trkpt><trkpt lat="43.59755029046213" lon="10.956649878857405"><ele>55.0</ele><time>2026-04-07T12:49:00Z</time></trkpt><trkpt lat="43.59763151469889" lon="10.956783017767988"><ele>55.0</ele><time>2026-04-07T12:49:01Z</time></trkpt><trkpt lat="43.597720340300846" lon="10.956906662195498"><ele>55.0</ele><time>2026-04-07T12:49:02Z</time></trkpt><trkpt lat="43.597815875664345" lon="10.95703316627419"><ele>54.75</ele><time>2026-04-07T12:49:03Z</time></trkpt><trkpt lat="43.59791832817965" lon="10.95715934844386"><ele>54.5</ele><time>2026-04-07T12:49:04Z</time></trkpt><trkpt lat="43.598011377368245" lon="10.957285769123226"><ele>54.25</ele><time>2026-04-07T12:49:05Z</time></trkpt><trkpt lat="43.59808946003446" lon="10.95741121761596"><ele>54.0</ele><time>2026-04-07T12:49:06Z</time></trkpt><trkpt lat="43.59815882210287" lon="10.957542944955303"><ele>53.5</ele><time>2026-04-07T12:49:07Z</time></trkpt><trkpt lat="43.59821327424711" lon="10.957683606455955"><ele>53.0</ele><time>2026-04-07T12:49:08Z</time></trkpt><trkpt lat="43.59826768812441" lon="10.957839723459093"><ele>52.5</ele><time>2026-04-07T12:49:09Z</time></trkpt><trkpt lat="43.59832286952702" lon="10.958007865544324"><ele>52.0</ele><time>2026-04-07T12:49:10Z</time></trkpt><trkpt lat="43.598375790997736" lon="10.95818109234326"><ele>52.5</ele><time>2026-04-07T12:49:11Z</time></trkpt><trkpt lat="43.59842898474018" lon="10.958368532819673"><ele>53.0</ele><time>2026-04-07T12:49:12Z</time></trkpt><trkpt lat="43.598469651794844" lon="10.958542840252582"><ele>53.5</ele><time>2026-04-07T12:49:13Z</time></trkpt><trkpt lat="43.59850207686428" lon="10.95870930434049"><ele>54.0</ele><time>2026-04-07T12:49:14Z</time></trkpt><trkpt lat="43.598535039549155" lon="10.958884662750778"><ele>54.0</ele><time>2026-04-07T12:49:15Z</time></trkpt><trkpt lat="43.598568758209865" lon="10.959066989917453"><ele>54.0</ele><time>2026-04-07T12:49:16Z</time></trkpt><trkpt lat="43.59859965802115" lon="10.959260155008177"><ele>54.0</ele><time>2026-04-07T12:49:17Z</time></trkpt><trkpt lat="43.59862956021864" lon="10.95944684248564"><ele>54.0</ele><time>2026-04-07T12:49:18Z</time></trkpt><trkpt lat="43.598658644831985" lon="10.959615119933465"><ele>53.5</ele><time>2026-04-07T12:49:19Z</time></trkpt><trkpt lat="43.598686423632955" lon="10.959774357512996"><ele>53.0</ele><time>2026-04-07T12:49:20Z</time></trkpt><trkpt lat="43.59871201115782" lon="10.959939166583476"><ele>52.5</ele><time>2026-04-07T12:49:21Z</time></trkpt><trkpt lat="43.59873560642633" lon="10.960112856092833"><ele>52.0</ele><time>2026-04-07T12:49:22Z</time></trkpt><trkpt lat="43.59876578400165" lon="10.960286212503725"><ele>52.0</ele><time>2026-04-07T12:49:23Z</time></trkpt><trkpt lat="43.59879506086843" lon="10.960448409251974"><ele>52.0</ele><time>2026-04-07T12:49:24Z</time></trkpt><trkpt lat="43.59882850727782" lon="10.96060548491899"><ele>52.0</ele><time>2026-04-07T12:49:25Z</time></trkpt><trkpt lat="43.59886793963234" lon="10.960763415687289"><ele>52.0</ele><time>2026-04-07T12:49:26Z</time></trkpt><trkpt lat="43.5989257892966" lon="10.960916264510058"><ele>51.5</ele><time>2026-04-07T12:49:27Z</time></trkpt><trkpt lat="43.59900582046349" lon="10.961056198076744"><ele>51.0</ele><time>2026-04-07T12:49:28Z</time></trkpt><trkpt lat="43.59909992438998" lon="10.961181436255028"><ele>50.5</ele><time>2026-04-07T12:49:29Z</time></trkpt><trkpt lat="43.59918870001892" lon="10.961295471185068"><ele>50.0</ele><time>2026-04-07T12:49:30Z</time></trkpt><trkpt lat="43.59926705817586" lon="10.96138905632919"><ele>50.0</ele><time>2026-04-07T12:49:31Z</time></trkpt><trkpt lat="43.59932969488257" lon="10.96147075178056"><ele>50.0</ele><time>2026-04-07T12:49:32Z</time></trkpt><trkpt lat="43.59939189590257" lon="10.961563121356114"><ele>50.0</ele><time>2026-04-07T12:49:34Z</time></trkpt><trkpt lat="43.5994502329256" lon="10.961619432239207"><ele>50.0</ele><time>2026-04-07T12:49:43Z</time></trkpt><trkpt lat="43.599546160448526" lon="10.961727301807079"><ele>50.0</ele><time>2026-04-07T12:49:45Z</time></trkpt><trkpt lat="43.59962537319964" lon="10.961832988092306"><ele>50.0</ele><time>2026-04-07T12:49:47Z</time></trkpt><trkpt lat="43.59957192399281" lon="10.9619937948859"><ele>50.0</ele><time>2026-04-07T12:49:50Z</time></trkpt><trkpt lat="43.59949954336356" lon="10.962023543512611"><ele>50.0</ele><time>2026-04-07T12:49:51Z</time></trkpt><trkpt lat="43.59941653378964" lon="10.962053139595909"><ele>50.0</ele><time>2026-04-07T12:49:52Z</time></trkpt><trkpt lat="43.59934370963211" lon="10.962085830721986"><ele>50.0</ele><time>2026-04-07T12:49:53Z</time></trkpt><trkpt lat="43.59925710315575" lon="10.962132521729192"><ele>50.0</ele><time>2026-04-07T12:49:54Z</time></trkpt><trkpt lat="43.599156204215454" lon="10.962179283666602"><ele>50.0</ele><time>2026-04-07T12:49:55Z</time></trkpt><trkpt lat="43.59905412021234" lon="10.962220636086396"><ele>50.0</ele><time>2026-04-07T12:49:56Z</time></trkpt><trkpt lat="43.5989345896918" lon="10.962281253482466"><ele>50.0</ele><time>2026-04-07T12:49:57Z</time></trkpt><trkpt lat="43.59879532475919" lon="10.962354451194368"><ele>49.66666666666667</ele><time>2026-04-07T12:49:58Z</time></trkpt><trkpt lat="43.59864713448667" lon="10.96239958154982"><ele>49.33333333333333</ele><time>2026-04-07T12:49:59Z</time></trkpt><trkpt lat="43.59849485245964" lon="10.962469248201911"><ele>49.0</ele><time>2026-04-07T12:50:00Z</time></trkpt><trkpt lat="43.598332283706846" lon="10.962540470355952"><ele>49.666666666666664</ele><time>2026-04-07T12:50:01Z</time></trkpt><trkpt lat="43.59817365746156" lon="10.9626062965615"><ele>50.33333333333333</ele><time>2026-04-07T12:50:02Z</time></trkpt><trkpt lat="43.59802743048642" lon="10.962690296680908"><ele>51.0</ele><time>2026-04-07T12:50:03Z</time></trkpt><trkpt lat="43.59787499500438" lon="10.962755107577156"><ele>51.33333333333333</ele><time>2026-04-07T12:50:04Z</time></trkpt><trkpt lat="43.597734805335726" lon="10.96281354569164"><ele>51.666666666666664</ele><time>2026-04-07T12:50:05Z</time></trkpt><trkpt lat="43.597595280744976" lon="10.962871309248538"><ele>52.0</ele><time>2026-04-07T12:50:06Z</time></trkpt><trkpt lat="43.597441950719826" lon="10.962933828561866"><ele>52.0</ele><time>2026-04-07T12:50:07Z</time></trkpt><trkpt lat="43.59727705272027" lon="10.963003505406796"><ele>52.0</ele><time>2026-04-07T12:50:08Z</time></trkpt><trkpt lat="43.59710432060891" lon="10.963073778943524"><ele>52.0</ele><time>2026-04-07T12:50:09Z</time></trkpt><trkpt lat="43.59694752898646" lon="10.963141015071082"><ele>51.0</ele><time>2026-04-07T12:50:10Z</time></trkpt><trkpt lat="43.59678945723188" lon="10.963207043689856"><ele>50.0</ele><time>2026-04-07T12:50:11Z</time></trkpt><trkpt lat="43.59662064658723" lon="10.963279253003597"><ele>49.0</ele><time>2026-04-07T12:50:11.999Z</time></trkpt><trkpt lat="43.59646025318014" lon="10.96335309548751"><ele>49.33333333333333</ele><time>2026-04-07T12:50:12.999Z</time></trkpt><trkpt lat="43.59630037399444" lon="10.963424721887689"><ele>49.66666666666667</ele><time>2026-04-07T12:50:13.999Z</time></trkpt><trkpt lat="43.596132124949264" lon="10.963495008692103"><ele>50.0</ele><time>2026-04-07T12:50:14.999Z</time></trkpt><trkpt lat="43.595962836288024" lon="10.963569389222686"><ele>50.0</ele><time>2026-04-07T12:50:15.999Z</time></trkpt><trkpt lat="43.59579030950521" lon="10.963661355916901"><ele>50.0</ele><time>2026-04-07T12:50:16.999Z</time></trkpt><trkpt lat="43.5956183159307" lon="10.963770908219448"><ele>50.0</ele><time>2026-04-07T12:50:17.999Z</time></trkpt><trkpt lat="43.59544742632865" lon="10.963896198013684"><ele>50.0</ele><time>2026-04-07T12:50:18.999Z</time></trkpt><trkpt lat="43.59527829901991" lon="10.964012234173367"><ele>50.0</ele><time>2026-04-07T12:50:19.999Z</time></trkpt><trkpt lat="43.595140230450106" lon="10.964175371157319"><ele>50.0</ele><time>2026-04-07T12:50:20.999Z</time></trkpt><trkpt lat="43.59499751834779" lon="10.96429971998598"><ele>50.0</ele><time>2026-04-07T12:50:21.999Z</time></trkpt><trkpt lat="43.5948712285575" lon="10.964452231694692"><ele>50.0</ele><time>2026-04-07T12:50:22.999Z</time></trkpt><trkpt lat="43.59475767917563" lon="10.964616586324812"><ele>50.0</ele><time>2026-04-07T12:50:23.999Z</time></trkpt><trkpt lat="43.59465641004665" lon="10.964777418860628"><ele>50.0</ele><time>2026-04-07T12:50:24.999Z</time></trkpt><trkpt lat="43.59456639578444" lon="10.964934469222746"><ele>50.0</ele><time>2026-04-07T12:50:25.999Z</time></trkpt><trkpt lat="43.59448768718304" lon="10.965093303228576"><ele>50.0</ele><time>2026-04-07T12:50:26.999Z</time></trkpt><trkpt lat="43.59442216461977" lon="10.965243982527857"><ele>50.0</ele><time>2026-04-07T12:50:27.999Z</time></trkpt><trkpt lat="43.59436356514199" lon="10.965390167977112"><ele>50.0</ele><time>2026-04-07T12:50:28.999Z</time></trkpt><trkpt lat="43.594309985379226" lon="10.9655253441442"><ele>50.0</ele><time>2026-04-07T12:50:29.999Z</time></trkpt><trkpt lat="43.59426349417977" lon="10.965655011858843"><ele>50.0</ele><time>2026-04-07T12:50:30.999Z</time></trkpt><trkpt lat="43.594231137141136" lon="10.965781590356519"><ele>50.0</ele><time>2026-04-07T12:50:31.999Z</time></trkpt><trkpt lat="43.59418160341025" lon="10.96589074826922"><ele>50.0</ele><time>2026-04-07T12:50:32.999Z</time></trkpt><trkpt lat="43.59412730895697" lon="10.965992803363033"><ele>50.333333333333336</ele><time>2026-04-07T12:50:33.999Z</time></trkpt><trkpt lat="43.59407792175603" lon="10.966079337294763"><ele>50.66666666666667</ele><time>2026-04-07T12:50:34.999Z</time></trkpt><trkpt lat="43.59402853267667" lon="10.966151226540099"><ele>51.0</ele><time>2026-04-07T12:50:35.999Z</time></trkpt><trkpt lat="43.59393101604805" lon="10.966260311209963"><ele>51.33333333333333</ele><time>2026-04-07T12:50:37.999Z</time></trkpt><trkpt lat="43.593870405587516" lon="10.96628947307829"><ele>51.666666666666664</ele><time>2026-04-07T12:50:38.999Z</time></trkpt><trkpt lat="43.59381313653403" lon="10.966345227633393"><ele>52.0</ele><time>2026-04-07T12:50:39.999Z</time></trkpt><trkpt lat="43.59377350013451" lon="10.966431322173893"><ele>51.99999999999999</ele><time>2026-04-07T12:50:40.999Z</time></trkpt><trkpt lat="43.59377644124298" lon="10.966596364355032"><ele>52.0</ele><time>2026-04-07T12:50:42.999Z</time></trkpt><trkpt lat="43.593802806987696" lon="10.966683379929023"><ele>52.0</ele><time>2026-04-07T12:50:43.999Z</time></trkpt><trkpt lat="43.59383391762943" lon="10.966777445458995"><ele>52.0</ele><time>2026-04-07T12:50:44.999Z</time></trkpt><trkpt lat="43.59383334068985" lon="10.9668874529448"><ele>51.99999999999999</ele><time>2026-04-07T12:50:45.999Z</time></trkpt><trkpt lat="43.593813287813944" lon="10.967028404010456"><ele>52.0</ele><time>2026-04-07T12:50:46.999Z</time></trkpt><trkpt lat="43.59375712465224" lon="10.967154447794199"><ele>51.75</ele><time>2026-04-07T12:50:47.999Z</time></trkpt><trkpt lat="43.593710500956604" lon="10.96728907004671"><ele>51.5</ele><time>2026-04-07T12:50:48.999Z</time></trkpt><trkpt lat="43.593660309421665" lon="10.967436585098469"><ele>51.25</ele><time>2026-04-07T12:50:49.999Z</time></trkpt><trkpt lat="43.59360781114792" lon="10.967593002568027"><ele>51.0</ele><time>2026-04-07T12:50:50.999Z</time></trkpt><trkpt lat="43.59355325442571" lon="10.967756250735945"><ele>50.8</ele><time>2026-04-07T12:50:51.999Z</time></trkpt><trkpt lat="43.59350108947349" lon="10.96791234224653"><ele>50.599999999999994</ele><time>2026-04-07T12:50:52.999Z</time></trkpt><trkpt lat="43.59345514065671" lon="10.968049832148704"><ele>50.4</ele><time>2026-04-07T12:50:53.999Z</time></trkpt><trkpt lat="43.593410914568075" lon="10.968181129308604"><ele>50.2</ele><time>2026-04-07T12:50:54.999Z</time></trkpt><trkpt lat="43.593366711943716" lon="10.968312725726129"><ele>50.0</ele><time>2026-04-07T12:50:55.999Z</time></trkpt><trkpt lat="43.59331927497139" lon="10.968461963369688"><ele>50.0</ele><time>2026-04-07T12:50:57Z</time></trkpt><trkpt lat="43.593270405451456" lon="10.968636965718158"><ele>50.0</ele><time>2026-04-07T12:50:58Z</time></trkpt><trkpt lat="43.59323744252691" lon="10.968838247799688"><ele>50.0</ele><time>2026-04-07T12:50:59Z</time></trkpt><trkpt lat="43.59319376214782" lon="10.969030856086942"><ele>50.0</ele><time>2026-04-07T12:51:00Z</time></trkpt><trkpt lat="43.59315783285921" lon="10.969212276642889"><ele>50.25</ele><time>2026-04-07T12:51:01Z</time></trkpt><trkpt lat="43.59312501483839" lon="10.969400304750627"><ele>50.5</ele><time>2026-04-07T12:51:02Z</time></trkpt><trkpt lat="43.593095774930454" lon="10.96959490380003"><ele>50.75</ele><time>2026-04-07T12:51:03Z</time></trkpt><trkpt lat="43.59307239383332" lon="10.969789501371698"><ele>51.0</ele><time>2026-04-07T12:51:04Z</time></trkpt><trkpt lat="43.59303277598921" lon="10.969979388183521"><ele>51.0</ele><time>2026-04-07T12:51:05Z</time></trkpt><trkpt lat="43.59301192387055" lon="10.970156253756562"><ele>51.0</ele><time>2026-04-07T12:51:06Z</time></trkpt><trkpt lat="43.59300467130418" lon="10.970322200391362"><ele>51.0</ele><time>2026-04-07T12:51:07Z</time></trkpt><trkpt lat="43.592980530381745" lon="10.97049136232684"><ele>51.0</ele><time>2026-04-07T12:51:08Z</time></trkpt><trkpt lat="43.592962105248475" lon="10.970669391716186"><ele>51.0</ele><time>2026-04-07T12:51:09Z</time></trkpt><trkpt lat="43.5929395250038" lon="10.970852513063344"><ele>51.0</ele><time>2026-04-07T12:51:10Z</time></trkpt><trkpt lat="43.592920463415616" lon="10.9710166799167"><ele>51.0</ele><time>2026-04-07T12:51:11Z</time></trkpt><trkpt lat="43.59290140207843" lon="10.971166488356738"><ele>51.0</ele><time>2026-04-07T12:51:12Z</time></trkpt><trkpt lat="43.592881777289456" lon="10.971299749562373"><ele>51.0</ele><time>2026-04-07T12:51:13Z</time></trkpt><trkpt lat="43.5928663835288" lon="10.97142476696419"><ele>51.0</ele><time>2026-04-07T12:51:14Z</time></trkpt><trkpt lat="43.59285481004071" lon="10.971537243135487"><ele>51.0</ele><time>2026-04-07T12:51:15Z</time></trkpt><trkpt lat="43.59284303438263" lon="10.971645341616407"><ele>51.0</ele><time>2026-04-07T12:51:16Z</time></trkpt><trkpt lat="43.59281823734868" lon="10.971760710021158"><ele>51.0</ele><time>2026-04-07T12:51:17Z</time></trkpt><trkpt lat="43.592786968828634" lon="10.971850970648806"><ele>51.0</ele><time>2026-04-07T12:51:18Z</time></trkpt><trkpt lat="43.59274483214439" lon="10.971929207151252"><ele>51.0</ele><time>2026-04-07T12:51:20Z</time></trkpt><trkpt lat="43.592698445971656" lon="10.972017420733955"><ele>51.0</ele><time>2026-04-07T12:51:22Z</time></trkpt><trkpt lat="43.59263399727405" lon="10.97213626561239"><ele>51.0</ele><time>2026-04-07T12:51:24Z</time></trkpt><trkpt lat="43.59257773685283" lon="10.972271338503136"><ele>51.0</ele><time>2026-04-07T12:51:26Z</time></trkpt><trkpt lat="43.59261328579023" lon="10.972393214475892"><ele>51.0</ele><time>2026-04-07T12:51:27Z</time></trkpt><trkpt lat="43.59263647720025" lon="10.972485188516348"><ele>51.0</ele><time>2026-04-07T12:51:28Z</time></trkpt><trkpt lat="43.59266232531657" lon="10.972573380539835"><ele>51.0</ele><time>2026-04-07T12:51:29Z</time></trkpt><trkpt lat="43.59267605539187" lon="10.972671628141104"><ele>51.0</ele><time>2026-04-07T12:51:30Z</time></trkpt><trkpt lat="43.59268267446863" lon="10.97278752877681"><ele>51.0</ele><time>2026-04-07T12:51:31Z</time></trkpt><trkpt lat="43.59265826677537" lon="10.972929585685002"><ele>51.0</ele><time>2026-04-07T12:51:32Z</time></trkpt><trkpt lat="43.59263656524777" lon="10.97307279289559"><ele>51.0</ele><time>2026-04-07T12:51:33Z</time></trkpt><trkpt lat="43.592628127823815" lon="10.973231879150644"><ele>51.0</ele><time>2026-04-07T12:51:34Z</time></trkpt><trkpt lat="43.59259605739892" lon="10.97340989823104"><ele>51.0</ele><time>2026-04-07T12:51:35Z</time></trkpt><trkpt lat="43.59256777597172" lon="10.973600586338632"><ele>51.0</ele><time>2026-04-07T12:51:36Z</time></trkpt><trkpt lat="43.59254057234244" lon="10.973781322609131"><ele>51.0</ele><time>2026-04-07T12:51:37Z</time></trkpt><trkpt lat="43.59249914288262" lon="10.973966745351621"><ele>51.0</ele><time>2026-04-07T12:51:38Z</time></trkpt><trkpt lat="43.59246648113765" lon="10.974168455113029"><ele>51.0</ele><time>2026-04-07T12:51:39Z</time></trkpt><trkpt lat="43.59243452987952" lon="10.974381012174538"><ele>51.0</ele><time>2026-04-07T12:51:40Z</time></trkpt><trkpt lat="43.59240279485791" lon="10.974599598777802"><ele>51.0</ele><time>2026-04-07T12:51:41Z</time></trkpt><trkpt lat="43.59236933890883" lon="10.974799845193779"><ele>51.0</ele><time>2026-04-07T12:51:42Z</time></trkpt><trkpt lat="43.592339139167194" lon="10.974991157861254"><ele>51.0</ele><time>2026-04-07T12:51:43Z</time></trkpt><trkpt lat="43.592318456209696" lon="10.975187021492536"><ele>51.0</ele><time>2026-04-07T12:51:44Z</time></trkpt><trkpt lat="43.59230687798928" lon="10.97538205727183"><ele>51.0</ele><time>2026-04-07T12:51:45Z</time></trkpt><trkpt lat="43.592302930342036" lon="10.975588360835603"><ele>51.0</ele><time>2026-04-07T12:51:46Z</time></trkpt><trkpt lat="43.592309483374706" lon="10.975806514199814"><ele>51.0</ele><time>2026-04-07T12:51:47Z</time></trkpt><trkpt lat="43.59232910713434" lon="10.976034125617302"><ele>51.0</ele><time>2026-04-07T12:51:48Z</time></trkpt><trkpt lat="43.59235982618454" lon="10.976273321653986"><ele>51.0</ele><time>2026-04-07T12:51:49Z</time></trkpt><trkpt lat="43.59239740278753" lon="10.976511305665982"><ele>51.0</ele><time>2026-04-07T12:51:50Z</time></trkpt><trkpt lat="43.59243306821575" lon="10.976725793756573"><ele>51.0</ele><time>2026-04-07T12:51:51Z</time></trkpt><trkpt lat="43.59246983692766" lon="10.976937375655188"><ele>51.0</ele><time>2026-04-07T12:51:52Z</time></trkpt><trkpt lat="43.59250569498856" lon="10.977158448643497"><ele>51.0</ele><time>2026-04-07T12:51:53Z</time></trkpt><trkpt lat="43.59254298155653" lon="10.977380863147904"><ele>51.33333333333333</ele><time>2026-04-07T12:51:54Z</time></trkpt><trkpt lat="43.592580316114585" lon="10.977598694439356"><ele>51.666666666666664</ele><time>2026-04-07T12:51:55Z</time></trkpt><trkpt lat="43.59261663517207" lon="10.977821497676965"><ele>52.0</ele><time>2026-04-07T12:51:56Z</time></trkpt><trkpt lat="43.59265325010843" lon="10.978046796416704"><ele>52.0</ele><time>2026-04-07T12:51:57Z</time></trkpt><trkpt lat="43.5926888001891" lon="10.978263106245862"><ele>52.0</ele><time>2026-04-07T12:51:58Z</time></trkpt><trkpt lat="43.592723142842246" lon="10.978477269981514"><ele>52.0</ele><time>2026-04-07T12:51:59Z</time></trkpt><trkpt lat="43.59275970992533" lon="10.978696401932345"><ele>52.0</ele><time>2026-04-07T12:52:00Z</time></trkpt><trkpt lat="43.59279770214832" lon="10.978925109814936"><ele>52.0</ele><time>2026-04-07T12:52:01Z</time></trkpt><trkpt lat="43.59283667937698" lon="10.979153846358768"><ele>52.0</ele><time>2026-04-07T12:52:02Z</time></trkpt><trkpt lat="43.59287515406637" lon="10.97938747073254"><ele>51.666666666666664</ele><time>2026-04-07T12:52:03Z</time></trkpt><trkpt lat="43.59290841331849" lon="10.979619883212075"><ele>51.33333333333333</ele><time>2026-04-07T12:52:04Z</time></trkpt><trkpt lat="43.592942334816144" lon="10.979825365969491"><ele>51.0</ele><time>2026-04-07T12:52:05Z</time></trkpt><trkpt lat="43.59297417901203" lon="10.98002129984366"><ele>51.0</ele><time>2026-04-07T12:52:06Z</time></trkpt><trkpt lat="43.5930073359316" lon="10.980216627097063"><ele>51.0</ele><time>2026-04-07T12:52:07Z</time></trkpt><trkpt lat="43.59303773674668" lon="10.980403172569352"><ele>51.0</ele><time>2026-04-07T12:52:08Z</time></trkpt><trkpt lat="43.59306668570615" lon="10.98057823788697"><ele>51.0</ele><time>2026-04-07T12:52:09Z</time></trkpt><trkpt lat="43.59309175058164" lon="10.98074018868109"><ele>51.75</ele><time>2026-04-07T12:52:10Z</time></trkpt><trkpt lat="43.59311758349017" lon="10.980902945642622"><ele>52.5</ele><time>2026-04-07T12:52:11Z</time></trkpt><trkpt lat="43.59312619000798" lon="10.981073462772935"><ele>53.25</ele><time>2026-04-07T12:52:12Z</time></trkpt><trkpt lat="43.59310925279064" lon="10.981250556302047"><ele>54.0</ele><time>2026-04-07T12:52:13Z</time></trkpt><trkpt lat="43.59307168815613" lon="10.981439583949868"><ele>54.0</ele><time>2026-04-07T12:52:14Z</time></trkpt><trkpt lat="43.59301299832637" lon="10.981613231663044"><ele>54.0</ele><time>2026-04-07T12:52:15Z</time></trkpt><trkpt lat="43.592931431279" lon="10.981780125693929"><ele>54.0</ele><time>2026-04-07T12:52:16Z</time></trkpt><trkpt lat="43.59282587405837" lon="10.981911273730837"><ele>54.0</ele><time>2026-04-07T12:52:16.999Z</time></trkpt><trkpt lat="43.59272914714819" lon="10.982053974110297"><ele>53.800000000000004</ele><time>2026-04-07T12:52:17.999Z</time></trkpt><trkpt lat="43.592640917774965" lon="10.982184765686675"><ele>53.60000000000001</ele><time>2026-04-07T12:52:18.999Z</time></trkpt><trkpt lat="43.59255818233476" lon="10.982309055924397"><ele>53.4</ele><time>2026-04-07T12:52:19.999Z</time></trkpt><trkpt lat="43.592489728116895" lon="10.982416166890319"><ele>53.2</ele><time>2026-04-07T12:52:20.999Z</time></trkpt><trkpt lat="43.592444417563755" lon="10.982523913660478"><ele>53.0</ele><time>2026-04-07T12:52:21.999Z</time></trkpt><trkpt lat="43.59238785287007" lon="10.982602515160039"><ele>53.00000000000001</ele><time>2026-04-07T12:52:22.999Z</time></trkpt><trkpt lat="43.59233392969819" lon="10.982675953309943"><ele>53.0</ele><time>2026-04-07T12:52:23.999Z</time></trkpt><trkpt lat="43.592275036129834" lon="10.982752245026623"><ele>53.0</ele><time>2026-04-07T12:52:24.999Z</time></trkpt><trkpt lat="43.592222381401044" lon="10.982849737144967"><ele>53.0</ele><time>2026-04-07T12:52:25.999Z</time></trkpt><trkpt lat="43.592186456474046" lon="10.982973921789487"><ele>53.00000000000001</ele><time>2026-04-07T12:52:26.999Z</time></trkpt><trkpt lat="43.59218029715108" lon="10.983092602963616"><ele>53.0</ele><time>2026-04-07T12:52:27.999Z</time></trkpt><trkpt lat="43.59220146524974" lon="10.983199160138453"><ele>53.00000000000001</ele><time>2026-04-07T12:52:28.999Z</time></trkpt><trkpt lat="43.5922400030191" lon="10.98330571990609"><ele>53.0</ele><time>2026-04-07T12:52:29.999Z</time></trkpt><trkpt lat="43.592274359857235" lon="10.98341219413384"><ele>53.0</ele><time>2026-04-07T12:52:30.999Z</time></trkpt><trkpt lat="43.59227935141517" lon="10.983515129972947"><ele>53.0</ele><time>2026-04-07T12:52:31.999Z</time></trkpt><trkpt lat="43.59226333572593" lon="10.983610010799914"><ele>53.00000000000001</ele><time>2026-04-07T12:52:32.999Z</time></trkpt><trkpt lat="43.59220766508095" lon="10.983696341853866"><ele>53.0</ele><time>2026-04-07T12:52:33.999Z</time></trkpt><trkpt lat="43.59214914529157" lon="10.983802305208002"><ele>53.0</ele><time>2026-04-07T12:52:34.999Z</time></trkpt><trkpt lat="43.59208173011934" lon="10.983919154831229"><ele>53.0</ele><time>2026-04-07T12:52:35.999Z</time></trkpt><trkpt lat="43.59200650297093" lon="10.984049544912322"><ele>53.0</ele><time>2026-04-07T12:52:36.999Z</time></trkpt><trkpt lat="43.59192788490701" lon="10.984185812168713"><ele>53.0</ele><time>2026-04-07T12:52:37.999Z</time></trkpt><trkpt lat="43.59185596739629" lon="10.984310717846817"><ele>52.8</ele><time>2026-04-07T12:52:38.999Z</time></trkpt><trkpt lat="43.59179138590188" lon="10.984423091157133"><ele>52.599999999999994</ele><time>2026-04-07T12:52:39.999Z</time></trkpt><trkpt lat="43.59173024757628" lon="10.984529473871785"><ele>52.400000000000006</ele><time>2026-04-07T12:52:40.999Z</time></trkpt><trkpt lat="43.59166817894455" lon="10.984637479218934"><ele>52.2</ele><time>2026-04-07T12:52:41.999Z</time></trkpt><trkpt lat="43.591602914863984" lon="10.984754800344561"><ele>52.0</ele><time>2026-04-07T12:52:42.999Z</time></trkpt><trkpt lat="43.59153407922141" lon="10.984878692416745"><ele>52.0</ele><time>2026-04-07T12:52:43.999Z</time></trkpt><trkpt lat="43.59146118923104" lon="10.985009881312003"><ele>52.0</ele><time>2026-04-07T12:52:44.999Z</time></trkpt><trkpt lat="43.59138223668576" lon="10.985151987373511"><ele>52.0</ele><time>2026-04-07T12:52:45.999Z</time></trkpt><trkpt lat="43.59130506902199" lon="10.98528767399591"><ele>52.0</ele><time>2026-04-07T12:52:46.999Z</time></trkpt><trkpt lat="43.591221573561505" lon="10.985435671091835"><ele>52.0</ele><time>2026-04-07T12:52:47.999Z</time></trkpt><trkpt lat="43.59113299210901" lon="10.985592682961682"><ele>52.0</ele><time>2026-04-07T12:52:48.999Z</time></trkpt><trkpt lat="43.591042990206404" lon="10.985752559702323"><ele>52.0</ele><time>2026-04-07T12:52:49.999Z</time></trkpt><trkpt lat="43.59095871151609" lon="10.985902732610441"><ele>52.0</ele><time>2026-04-07T12:52:50.999Z</time></trkpt><trkpt lat="43.590885316360655" lon="10.98603351281813"><ele>51.75</ele><time>2026-04-07T12:52:51.999Z</time></trkpt><trkpt lat="43.59081316052472" lon="10.986161983520631"><ele>51.5</ele><time>2026-04-07T12:52:52.999Z</time></trkpt><trkpt lat="43.590736273481326" lon="10.98630008739101"><ele>51.25</ele><time>2026-04-07T12:52:53.999Z</time></trkpt><trkpt lat="43.590654804361364" lon="10.98644416596898"><ele>51.0</ele><time>2026-04-07T12:52:54.999Z</time></trkpt><trkpt lat="43.59057240357094" lon="10.986590431377502"><ele>51.0</ele><time>2026-04-07T12:52:55.999Z</time></trkpt><trkpt lat="43.59049416537304" lon="10.986727388792707"><ele>51.0</ele><time>2026-04-07T12:52:56.999Z</time></trkpt><trkpt lat="43.590408076507316" lon="10.98687808914448"><ele>51.0</ele><time>2026-04-07T12:52:57.999Z</time></trkpt><trkpt lat="43.59031481886984" lon="10.98704133811651"><ele>51.0</ele><time>2026-04-07T12:52:58.999Z</time></trkpt><trkpt lat="43.59022260500932" lon="10.987202813918854"><ele>51.75</ele><time>2026-04-07T12:52:59.999Z</time></trkpt><trkpt lat="43.59013235383116" lon="10.987361023518488"><ele>52.5</ele><time>2026-04-07T12:53:00.999Z</time></trkpt><trkpt lat="43.590041153490475" lon="10.987520896965474"><ele>53.25</ele><time>2026-04-07T12:53:01.999Z</time></trkpt><trkpt lat="43.58995235243173" lon="10.987680226399961"><ele>54.0</ele><time>2026-04-07T12:53:03Z</time></trkpt><trkpt lat="43.58986502517373" lon="10.98783661211158"><ele>54.0</ele><time>2026-04-07T12:53:04Z</time></trkpt><trkpt lat="43.58977916465453" lon="10.98798989424797"><ele>54.0</ele><time>2026-04-07T12:53:05Z</time></trkpt><trkpt lat="43.58969325406617" lon="10.988143265782718"><ele>54.0</ele><time>2026-04-07T12:53:06Z</time></trkpt><trkpt lat="43.58962650685831" lon="10.988323817256775"><ele>54.0</ele><time>2026-04-07T12:53:07Z</time></trkpt><trkpt lat="43.589542426089004" lon="10.988482152825581"><ele>53.75</ele><time>2026-04-07T12:53:08Z</time></trkpt><trkpt lat="43.589454887580644" lon="10.988639216922083"><ele>53.5</ele><time>2026-04-07T12:53:09Z</time></trkpt><trkpt lat="43.58936554667635" lon="10.988795475353477"><ele>53.25</ele><time>2026-04-07T12:53:10Z</time></trkpt><trkpt lat="43.5892728921381" lon="10.98896091612807"><ele>53.0</ele><time>2026-04-07T12:53:11Z</time></trkpt><trkpt lat="43.589152432111725" lon="10.989100854569857"><ele>53.5</ele><time>2026-04-07T12:53:12Z</time></trkpt><trkpt lat="43.589089257187304" lon="10.989285751519855"><ele>54.0</ele><time>2026-04-07T12:53:13Z</time></trkpt><trkpt lat="43.58900192493913" lon="10.989438213286965"><ele>54.5</ele><time>2026-04-07T12:53:14Z</time></trkpt><trkpt lat="43.58891036231741" lon="10.989596614472948"><ele>55.0</ele><time>2026-04-07T12:53:15Z</time></trkpt><trkpt lat="43.588817465204485" lon="10.98976218620145"><ele>55.0</ele><time>2026-04-07T12:53:16Z</time></trkpt><trkpt lat="43.58869878852232" lon="10.989910545166547"><ele>55.0</ele><time>2026-04-07T12:53:17Z</time></trkpt><trkpt lat="43.58859927627539" lon="10.990089131786418"><ele>55.0</ele><time>2026-04-07T12:53:18Z</time></trkpt><trkpt lat="43.58849636382716" lon="10.990273820510572"><ele>54.33333333333333</ele><time>2026-04-07T12:53:19Z</time></trkpt><trkpt lat="43.58839694820599" lon="10.990452233789277"><ele>53.66666666666667</ele><time>2026-04-07T12:53:20Z</time></trkpt><trkpt lat="43.588304555637784" lon="10.990619055926677"><ele>53.0</ele><time>2026-04-07T12:53:21Z</time></trkpt><trkpt lat="43.588213829620784" lon="10.990782045330178"><ele>53.333333333333336</ele><time>2026-04-07T12:53:22Z</time></trkpt><trkpt lat="43.58812278174138" lon="10.990946320632943"><ele>53.66666666666667</ele><time>2026-04-07T12:53:23Z</time></trkpt><trkpt lat="43.58803296603595" lon="10.991108372774963"><ele>54.0</ele><time>2026-04-07T12:53:24Z</time></trkpt><trkpt lat="43.58793986931538" lon="10.991274977075413"><ele>54.0</ele><time>2026-04-07T12:53:25Z</time></trkpt><trkpt lat="43.58784700674238" lon="10.991442301771254"><ele>54.0</ele><time>2026-04-07T12:53:26Z</time></trkpt><trkpt lat="43.58775361029082" lon="10.991611175622953"><ele>54.0</ele><time>2026-04-07T12:53:27Z</time></trkpt><trkpt lat="43.587658817991795" lon="10.991780670236958"><ele>54.66666666666667</ele><time>2026-04-07T12:53:28Z</time></trkpt><trkpt lat="43.5875619721242" lon="10.991953836717839"><ele>55.333333333333336</ele><time>2026-04-07T12:53:29Z</time></trkpt><trkpt lat="43.58746388175029" lon="10.992129228475848"><ele>56.0</ele><time>2026-04-07T12:53:30Z</time></trkpt><trkpt lat="43.58736398693801" lon="10.992307846675342"><ele>56.0</ele><time>2026-04-07T12:53:31Z</time></trkpt><trkpt lat="43.58726278725131" lon="10.992488798081553"><ele>56.0</ele><time>2026-04-07T12:53:32Z</time></trkpt><trkpt lat="43.587162888616064" lon="10.992667422450456"><ele>56.0</ele><time>2026-04-07T12:53:33Z</time></trkpt><trkpt lat="43.587061966204764" lon="10.992848841433506"><ele>55.333333333333336</ele><time>2026-04-07T12:53:34Z</time></trkpt><trkpt lat="43.586957277188894" lon="10.993036037895532"><ele>54.66666666666667</ele><time>2026-04-07T12:53:35Z</time></trkpt><trkpt lat="43.586850362966196" lon="10.993227213336942"><ele>54.0</ele><time>2026-04-07T12:53:36Z</time></trkpt><trkpt lat="43.58675011590973" lon="10.993406467029173"><ele>54.0</ele><time>2026-04-07T12:53:37Z</time></trkpt><trkpt lat="43.586654135702325" lon="10.993578091080916"><ele>54.0</ele><time>2026-04-07T12:53:38Z</time></trkpt><trkpt lat="43.586562793588506" lon="10.993741421686922"><ele>54.0</ele><time>2026-04-07T12:53:39Z</time></trkpt><trkpt lat="43.58647242115241" lon="10.993903018420461"><ele>54.0</ele><time>2026-04-07T12:53:40Z</time></trkpt><trkpt lat="43.58638925829644" lon="10.99405172329706"><ele>54.0</ele><time>2026-04-07T12:53:41Z</time></trkpt><trkpt lat="43.586309327035025" lon="10.99419465010841"><ele>54.0</ele><time>2026-04-07T12:53:42Z</time></trkpt><trkpt lat="43.58622696915704" lon="10.99434191574052"><ele>54.0</ele><time>2026-04-07T12:53:43Z</time></trkpt><trkpt lat="43.58614262440261" lon="10.994492740400922"><ele>54.25</ele><time>2026-04-07T12:53:44Z</time></trkpt><trkpt lat="43.58605264957654" lon="10.994653595740228"><ele>54.5</ele><time>2026-04-07T12:53:45Z</time></trkpt><trkpt lat="43.58597023944479" lon="10.994800940076736"><ele>54.75</ele><time>2026-04-07T12:53:46Z</time></trkpt><trkpt lat="43.585884059449015" lon="10.99495460547549"><ele>55.0</ele><time>2026-04-07T12:53:47Z</time></trkpt><trkpt lat="43.585794501674314" lon="10.995114121230825"><ele>55.0</ele><time>2026-04-07T12:53:48Z</time></trkpt><trkpt lat="43.585702304118236" lon="10.995278338657489"><ele>55.0</ele><time>2026-04-07T12:53:49Z</time></trkpt><trkpt lat="43.58560416217" lon="10.995453144119805"><ele>55.0</ele><time>2026-04-07T12:53:50Z</time></trkpt><trkpt lat="43.585505862032214" lon="10.995628231146172"><ele>55.0</ele><time>2026-04-07T12:53:51Z</time></trkpt><trkpt lat="43.5854141528963" lon="10.995791578611913"><ele>55.0</ele><time>2026-04-07T12:53:52Z</time></trkpt><trkpt lat="43.585321271577406" lon="10.995957015252516"><ele>55.0</ele><time>2026-04-07T12:53:53Z</time></trkpt><trkpt lat="43.58522542912374" lon="10.996127170528721"><ele>54.666666666666664</ele><time>2026-04-07T12:53:54Z</time></trkpt><trkpt lat="43.58512773039866" lon="10.996300456945985"><ele>54.33333333333333</ele><time>2026-04-07T12:53:55Z</time></trkpt><trkpt lat="43.58503134350005" lon="10.996474596023123"><ele>54.0</ele><time>2026-04-07T12:53:56Z</time></trkpt><trkpt lat="43.58494007422294" lon="10.996638863465396"><ele>53.33333333333333</ele><time>2026-04-07T12:53:57Z</time></trkpt><trkpt lat="43.584844836701464" lon="10.996810272900204"><ele>52.666666666666664</ele><time>2026-04-07T12:53:58Z</time></trkpt><trkpt lat="43.58474982354978" lon="10.996980872088802"><ele>52.0</ele><time>2026-04-07T12:53:59Z</time></trkpt><trkpt lat="43.58465039804275" lon="10.997159351635503"><ele>52.0</ele><time>2026-04-07T12:54:00Z</time></trkpt><trkpt lat="43.584552395862964" lon="10.997337537988132"><ele>52.0</ele><time>2026-04-07T12:54:01Z</time></trkpt><trkpt lat="43.58446178055344" lon="10.997500263335782"><ele>52.0</ele><time>2026-04-07T12:54:02Z</time></trkpt><trkpt lat="43.58437942780612" lon="10.997648150848262"><ele>52.0</ele><time>2026-04-07T12:54:03Z</time></trkpt><trkpt lat="43.58430516805284" lon="10.997781505093982"><ele>52.8</ele><time>2026-04-07T12:54:04Z</time></trkpt><trkpt lat="43.584237147664865" lon="10.997903725971742"><ele>53.6</ele><time>2026-04-07T12:54:05Z</time></trkpt><trkpt lat="43.584171332572396" lon="10.998022119597445"><ele>54.39999999999999</ele><time>2026-04-07T12:54:06Z</time></trkpt><trkpt lat="43.58410501013631" lon="10.998139918940335"><ele>55.199999999999996</ele><time>2026-04-07T12:54:07Z</time></trkpt><trkpt lat="43.5840298062436" lon="10.998271402505676"><ele>56.0</ele><time>2026-04-07T12:54:08Z</time></trkpt><trkpt lat="43.58395147303434" lon="10.99841021448458"><ele>56.25</ele><time>2026-04-07T12:54:09Z</time></trkpt><trkpt lat="43.58386886600085" lon="10.998554750512216"><ele>56.5</ele><time>2026-04-07T12:54:10Z</time></trkpt><trkpt lat="43.58378199371654" lon="10.998706749396751"><ele>56.75</ele><time>2026-04-07T12:54:11Z</time></trkpt><trkpt lat="43.583695660137735" lon="10.998860965422715"><ele>57.0</ele><time>2026-04-07T12:54:12Z</time></trkpt><trkpt lat="43.58361483238937" lon="10.999005714066096"><ele>57.0</ele><time>2026-04-07T12:54:13Z</time></trkpt><trkpt lat="43.583533600911274" lon="10.999151185638345"><ele>57.0</ele><time>2026-04-07T12:54:14Z</time></trkpt><trkpt lat="43.58345213556164" lon="10.99929707606435"><ele>57.0</ele><time>2026-04-07T12:54:15Z</time></trkpt><trkpt lat="43.58337138558797" lon="10.999441685138708"><ele>57.0</ele><time>2026-04-07T12:54:16Z</time></trkpt><trkpt lat="43.58328929557321" lon="10.999587525884694"><ele>57.0</ele><time>2026-04-07T12:54:17Z</time></trkpt><trkpt lat="43.583205386884316" lon="10.99973670982945"><ele>57.0</ele><time>2026-04-07T12:54:18Z</time></trkpt><trkpt lat="43.58312156020134" lon="10.999885747987225"><ele>57.0</ele><time>2026-04-07T12:54:19Z</time></trkpt><trkpt lat="43.583038943338984" lon="11.000032635152078"><ele>57.0</ele><time>2026-04-07T12:54:20Z</time></trkpt><trkpt lat="43.582956015662894" lon="11.000180074937496"><ele>57.0</ele><time>2026-04-07T12:54:21Z</time></trkpt><trkpt lat="43.58287310383462" lon="11.00032748653763"><ele>57.0</ele><time>2026-04-07T12:54:21.999Z</time></trkpt><trkpt lat="43.582790902815816" lon="11.00047363437076"><ele>57.0</ele><time>2026-04-07T12:54:22.999Z</time></trkpt><trkpt lat="43.58271247444365" lon="11.000612635898257"><ele>57.0</ele><time>2026-04-07T12:54:23.999Z</time></trkpt><trkpt lat="43.58264071061217" lon="11.00073861119527"><ele>57.0</ele><time>2026-04-07T12:54:24.999Z</time></trkpt><trkpt lat="43.58257298082823" lon="11.00085750508323"><ele>57.0</ele><time>2026-04-07T12:54:25.999Z</time></trkpt><trkpt lat="43.58250577955194" lon="11.000975509438687"><ele>57.0</ele><time>2026-04-07T12:54:26.999Z</time></trkpt><trkpt lat="43.58243700751065" lon="11.00109680399606"><ele>57.0</ele><time>2026-04-07T12:54:27.999Z</time></trkpt><trkpt lat="43.58236759828401" lon="11.001219222328988"><ele>57.0</ele><time>2026-04-07T12:54:28.999Z</time></trkpt><trkpt lat="43.58229667294362" lon="11.00134431468006"><ele>57.0</ele><time>2026-04-07T12:54:29.999Z</time></trkpt><trkpt lat="43.5822264142529" lon="11.001469123118808"><ele>57.0</ele><time>2026-04-07T12:54:30.999Z</time></trkpt><trkpt lat="43.58216221276249" lon="11.001583259096934"><ele>57.0</ele><time>2026-04-07T12:54:31.999Z</time></trkpt><trkpt lat="43.58210222526461" lon="11.00168990358257"><ele>57.0</ele><time>2026-04-07T12:54:32.999Z</time></trkpt><trkpt lat="43.58203986390635" lon="11.00180076818463"><ele>57.0</ele><time>2026-04-07T12:54:33.999Z</time></trkpt><trkpt lat="43.58197519657158" lon="11.001915732346765"><ele>56.75</ele><time>2026-04-07T12:54:34.999Z</time></trkpt><trkpt lat="43.581900852187324" lon="11.002047900096606"><ele>56.5</ele><time>2026-04-07T12:54:35.999Z</time></trkpt><trkpt lat="43.58182983088484" lon="11.002174160248698"><ele>56.25</ele><time>2026-04-07T12:54:36.999Z</time></trkpt><trkpt lat="43.58175602636732" lon="11.002305368240744"><ele>56.0</ele><time>2026-04-07T12:54:37.999Z</time></trkpt><trkpt lat="43.581685051257196" lon="11.002431545530367"><ele>56.0</ele><time>2026-04-07T12:54:38.999Z</time></trkpt><trkpt lat="43.58161988858205" lon="11.002549117569037"><ele>55.99999999999999</ele><time>2026-04-07T12:54:39.999Z</time></trkpt><trkpt lat="43.581558350348175" lon="11.00265962891692"><ele>55.99999999999999</ele><time>2026-04-07T12:54:40.999Z</time></trkpt><trkpt lat="43.5814969591014" lon="11.002769876295053"><ele>56.0</ele><time>2026-04-07T12:54:41.999Z</time></trkpt><trkpt lat="43.58143403323919" lon="11.002883006704694"><ele>56.0</ele><time>2026-04-07T12:54:42.999Z</time></trkpt><trkpt lat="43.581374280674346" lon="11.003007230592813"><ele>56.0</ele><time>2026-04-07T12:54:43.999Z</time></trkpt><trkpt lat="43.58131014641331" lon="11.003124148496573"><ele>55.99999999999999</ele><time>2026-04-07T12:54:44.999Z</time></trkpt><trkpt lat="43.58124248197981" lon="11.003245542984473"><ele>55.99999999999999</ele><time>2026-04-07T12:54:45.999Z</time></trkpt><trkpt lat="43.581171354256846" lon="11.00336981740133"><ele>56.0</ele><time>2026-04-07T12:54:46.999Z</time></trkpt><trkpt lat="43.581100384564586" lon="11.003497884038577"><ele>56.0</ele><time>2026-04-07T12:54:47.999Z</time></trkpt><trkpt lat="43.581028577003735" lon="11.003630257585542"><ele>56.0</ele><time>2026-04-07T12:54:48.999Z</time></trkpt><trkpt lat="43.58095794244784" lon="11.003759682688717"><ele>56.0</ele><time>2026-04-07T12:54:49.999Z</time></trkpt><trkpt lat="43.58088162657049" lon="11.003886822583693"><ele>56.0</ele><time>2026-04-07T12:54:50.999Z</time></trkpt><trkpt lat="43.5808015405946" lon="11.00402648195379"><ele>56.0</ele><time>2026-04-07T12:54:51.999Z</time></trkpt><trkpt lat="43.580717323316655" lon="11.004180050571453"><ele>56.0</ele><time>2026-04-07T12:54:52.999Z</time></trkpt><trkpt lat="43.58062658775802" lon="11.00434608982848"><ele>56.0</ele><time>2026-04-07T12:54:53.999Z</time></trkpt><trkpt lat="43.5805384761667" lon="11.004504048090084"><ele>56.0</ele><time>2026-04-07T12:54:54.999Z</time></trkpt><trkpt lat="43.58045022434929" lon="11.004655791154658"><ele>56.0</ele><time>2026-04-07T12:54:55.999Z</time></trkpt><trkpt lat="43.58035836320842" lon="11.004808148608886"><ele>55.75</ele><time>2026-04-07T12:54:56.999Z</time></trkpt><trkpt lat="43.580259858243146" lon="11.004957740265873"><ele>55.5</ele><time>2026-04-07T12:54:57.999Z</time></trkpt><trkpt lat="43.580152377702134" lon="11.00509463407143"><ele>55.25</ele><time>2026-04-07T12:54:58.999Z</time></trkpt><trkpt lat="43.58004590087171" lon="11.005210351835233"><ele>55.0</ele><time>2026-04-07T12:54:59.999Z</time></trkpt><trkpt lat="43.579934073656396" lon="11.005324104845426"><ele>55.5</ele><time>2026-04-07T12:55:00.999Z</time></trkpt><trkpt lat="43.57981988076755" lon="11.005441648423774"><ele>56.0</ele><time>2026-04-07T12:55:01.999Z</time></trkpt><trkpt lat="43.579709729973914" lon="11.005552921789377"><ele>56.5</ele><time>2026-04-07T12:55:02.999Z</time></trkpt><trkpt lat="43.57960837071129" lon="11.005654588729568"><ele>57.0</ele><time>2026-04-07T12:55:03.999Z</time></trkpt><trkpt lat="43.57951871349435" lon="11.005749740494538"><ele>57.25</ele><time>2026-04-07T12:55:04.999Z</time></trkpt><trkpt lat="43.57942493716952" lon="11.005837782985088"><ele>57.5</ele><time>2026-04-07T12:55:05.999Z</time></trkpt><trkpt lat="43.579329882746244" lon="11.005928843152034"><ele>57.75</ele><time>2026-04-07T12:55:06.999Z</time></trkpt><trkpt lat="43.579231069624036" lon="11.006021053814147"><ele>58.0</ele><time>2026-04-07T12:55:07.999Z</time></trkpt><trkpt lat="43.57913411017872" lon="11.006117640849466"><ele>58.0</ele><time>2026-04-07T12:55:09Z</time></trkpt><trkpt lat="43.5790333760058" lon="11.006217975070104"><ele>58.0</ele><time>2026-04-07T12:55:10Z</time></trkpt><trkpt lat="43.578930836156644" lon="11.006319156660803"><ele>58.0</ele><time>2026-04-07T12:55:11Z</time></trkpt><trkpt lat="43.57882869568807" lon="11.00642524797326"><ele>58.0</ele><time>2026-04-07T12:55:12Z</time></trkpt><trkpt lat="43.578725164192704" lon="11.00652687050332"><ele>58.0</ele><time>2026-04-07T12:55:13Z</time></trkpt><trkpt lat="43.578631047811825" lon="11.006621388536471"><ele>58.0</ele><time>2026-04-07T12:55:14Z</time></trkpt><trkpt lat="43.578535822240035" lon="11.00671285892039"><ele>58.0</ele><time>2026-04-07T12:55:15Z</time></trkpt><trkpt lat="43.578438040452" lon="11.006805576599115"><ele>58.0</ele><time>2026-04-07T12:55:16Z</time></trkpt><trkpt lat="43.57834119459875" lon="11.006898903617635"><ele>58.0</ele><time>2026-04-07T12:55:17Z</time></trkpt><trkpt lat="43.5782421309334" lon="11.00699521681194"><ele>58.0</ele><time>2026-04-07T12:55:18Z</time></trkpt><trkpt lat="43.57814246569285" lon="11.007091796428508"><ele>58.0</ele><time>2026-04-07T12:55:19Z</time></trkpt><trkpt lat="43.57804396087553" lon="11.007188618284617"><ele>58.0</ele><time>2026-04-07T12:55:20Z</time></trkpt><trkpt lat="43.57794396768871" lon="11.007284378777946"><ele>58.0</ele><time>2026-04-07T12:55:21Z</time></trkpt><trkpt lat="43.577838724775404" lon="11.007380003868418"><ele>58.0</ele><time>2026-04-07T12:55:22Z</time></trkpt><trkpt lat="43.57773377826873" lon="11.007480772462747"><ele>58.0</ele><time>2026-04-07T12:55:23Z</time></trkpt><trkpt lat="43.57762657246759" lon="11.00758694457951"><ele>58.0</ele><time>2026-04-07T12:55:24Z</time></trkpt><trkpt lat="43.57751609151926" lon="11.007695033418761"><ele>58.0</ele><time>2026-04-07T12:55:25Z</time></trkpt><trkpt lat="43.57741100987785" lon="11.007797629956839"><ele>58.0</ele><time>2026-04-07T12:55:26Z</time></trkpt><trkpt lat="43.577309259157424" lon="11.007899063028672"><ele>58.0</ele><time>2026-04-07T12:55:27Z</time></trkpt><trkpt lat="43.57720364483891" lon="11.00799840582434"><ele>58.0</ele><time>2026-04-07T12:55:28Z</time></trkpt><trkpt lat="43.57709602080682" lon="11.008099477299918"><ele>57.75</ele><time>2026-04-07T12:55:29Z</time></trkpt><trkpt lat="43.57698818393892" lon="11.00820448931623"><ele>57.5</ele><time>2026-04-07T12:55:30Z</time></trkpt><trkpt lat="43.576879149977636" lon="11.00830876773763"><ele>57.25</ele><time>2026-04-07T12:55:31Z</time></trkpt><trkpt lat="43.576766701159535" lon="11.00841562490172"><ele>57.0</ele><time>2026-04-07T12:55:32Z</time></trkpt><trkpt lat="43.57665527030511" lon="11.008521855663771"><ele>57.0</ele><time>2026-04-07T12:55:33Z</time></trkpt><trkpt lat="43.5765473597332" lon="11.008639069463959"><ele>57.0</ele><time>2026-04-07T12:55:34Z</time></trkpt><trkpt lat="43.57642874167006" lon="11.008745509314279"><ele>57.0</ele><time>2026-04-07T12:55:35Z</time></trkpt><trkpt lat="43.576326065680504" lon="11.008879303789112"><ele>57.0</ele><time>2026-04-07T12:55:36Z</time></trkpt><trkpt lat="43.57624200965197" lon="11.009024543119207"><ele>57.0</ele><time>2026-04-07T12:55:37Z</time></trkpt><trkpt lat="43.57615440090533" lon="11.009146697787195"><ele>57.0</ele><time>2026-04-07T12:55:38Z</time></trkpt><trkpt lat="43.57606531950346" lon="11.009267843459394"><ele>57.0</ele><time>2026-04-07T12:55:39Z</time></trkpt><trkpt lat="43.57597352113889" lon="11.009379862304494"><ele>57.0</ele><time>2026-04-07T12:55:40Z</time></trkpt><trkpt lat="43.57587183828327" lon="11.00949157656926"><ele>56.25</ele><time>2026-04-07T12:55:41Z</time></trkpt><trkpt lat="43.57576039947783" lon="11.009602311916414"><ele>55.5</ele><time>2026-04-07T12:55:42Z</time></trkpt><trkpt lat="43.57564073441936" lon="11.009701047164258"><ele>54.75</ele><time>2026-04-07T12:55:43Z</time></trkpt><trkpt lat="43.5755186873517" lon="11.009811042031004"><ele>54.0</ele><time>2026-04-07T12:55:44Z</time></trkpt><trkpt lat="43.575404588317355" lon="11.009925461778781"><ele>54.75</ele><time>2026-04-07T12:55:45Z</time></trkpt><trkpt lat="43.57528567562368" lon="11.01001794129171"><ele>55.5</ele><time>2026-04-07T12:55:46Z</time></trkpt><trkpt lat="43.57518591138079" lon="11.010150677570143"><ele>56.25</ele><time>2026-04-07T12:55:47Z</time></trkpt><trkpt lat="43.57507423242711" lon="11.010269887102464"><ele>57.0</ele><time>2026-04-07T12:55:48Z</time></trkpt><trkpt lat="43.57496009470679" lon="11.010390726024328"><ele>57.0</ele><time>2026-04-07T12:55:49Z</time></trkpt><trkpt lat="43.57484135809075" lon="11.010515573323982"><ele>57.0</ele><time>2026-04-07T12:55:50Z</time></trkpt><trkpt lat="43.57471756014212" lon="11.010643904399704"><ele>57.0</ele><time>2026-04-07T12:55:51Z</time></trkpt><trkpt lat="43.57459041175747" lon="11.010768878627063"><ele>57.0</ele><time>2026-04-07T12:55:52Z</time></trkpt><trkpt lat="43.57447334849315" lon="11.01087873774498"><ele>57.0</ele><time>2026-04-07T12:55:53Z</time></trkpt><trkpt lat="43.574360564334995" lon="11.010986239985778"><ele>57.0</ele><time>2026-04-07T12:55:54Z</time></trkpt><trkpt lat="43.57424579719105" lon="11.011096038215664"><ele>57.0</ele><time>2026-04-07T12:55:55Z</time></trkpt><trkpt lat="43.57412461840295" lon="11.011207600862974"><ele>57.0</ele><time>2026-04-07T12:55:56Z</time></trkpt><trkpt lat="43.57399738471524" lon="11.01132894701022"><ele>57.0</ele><time>2026-04-07T12:55:57Z</time></trkpt><trkpt lat="43.57387145276649" lon="11.011453945185751"><ele>57.0</ele><time>2026-04-07T12:55:58Z</time></trkpt><trkpt lat="43.5737572414165" lon="11.01157631561"><ele>56.75</ele><time>2026-04-07T12:55:59Z</time></trkpt><trkpt lat="43.573652199608375" lon="11.011701313429223"><ele>56.5</ele><time>2026-04-07T12:56:00Z</time></trkpt><trkpt lat="43.57354997941776" lon="11.01183355119797"><ele>56.25</ele><time>2026-04-07T12:56:01Z</time></trkpt><trkpt lat="43.57344807497385" lon="11.011978167162793"><ele>56.0</ele><time>2026-04-07T12:56:02Z</time></trkpt><trkpt lat="43.573348235491075" lon="11.012131448582412"><ele>56.0</ele><time>2026-04-07T12:56:03Z</time></trkpt><trkpt lat="43.57325088422708" lon="11.012298943378763"><ele>56.0</ele><time>2026-04-07T12:56:04Z</time></trkpt><trkpt lat="43.57316351476165" lon="11.012459890901297"><ele>56.0</ele><time>2026-04-07T12:56:05Z</time></trkpt><trkpt lat="43.57308837843792" lon="11.012612971534326"><ele>56.0</ele><time>2026-04-07T12:56:06Z</time></trkpt><trkpt lat="43.57301696691953" lon="11.01277061113983"><ele>56.5</ele><time>2026-04-07T12:56:07Z</time></trkpt><trkpt lat="43.57295481047669" lon="11.012939668752715"><ele>57.0</ele><time>2026-04-07T12:56:08Z</time></trkpt><trkpt lat="43.572898824861745" lon="11.013118252246096"><ele>57.5</ele><time>2026-04-07T12:56:09Z</time></trkpt><trkpt lat="43.572840637934206" lon="11.013287526749021"><ele>58.0</ele><time>2026-04-07T12:56:10Z</time></trkpt><trkpt lat="43.57280810888819" lon="11.01345526970418"><ele>58.0</ele><time>2026-04-07T12:56:11Z</time></trkpt><trkpt lat="43.57278780200945" lon="11.013633318914016"><ele>58.0</ele><time>2026-04-07T12:56:12Z</time></trkpt><trkpt lat="43.572749385957074" lon="11.013820241638138"><ele>58.0</ele><time>2026-04-07T12:56:13Z</time></trkpt><trkpt lat="43.5727169770764" lon="11.014005417886247"><ele>58.0</ele><time>2026-04-07T12:56:14Z</time></trkpt><trkpt lat="43.57268467597681" lon="11.014175293405778"><ele>58.25</ele><time>2026-04-07T12:56:15Z</time></trkpt><trkpt lat="43.57265071034375" lon="11.014348278114168"><ele>58.5</ele><time>2026-04-07T12:56:16Z</time></trkpt><trkpt lat="43.57261806946215" lon="11.014514253568356"><ele>58.75</ele><time>2026-04-07T12:56:17Z</time></trkpt><trkpt lat="43.572582738169594" lon="11.014663683568832"><ele>59.0</ele><time>2026-04-07T12:56:18Z</time></trkpt><trkpt lat="43.572540067566386" lon="11.014803892048466"><ele>59.0</ele><time>2026-04-07T12:56:19Z</time></trkpt><trkpt lat="43.572489597165" lon="11.014917933160454"><ele>59.00000000000001</ele><time>2026-04-07T12:56:20Z</time></trkpt><trkpt lat="43.57242331193978" lon="11.015023201521352"><ele>59.00000000000001</ele><time>2026-04-07T12:56:21Z</time></trkpt><trkpt lat="43.57233685985819" lon="11.015121833068665"><ele>59.0</ele><time>2026-04-07T12:56:22Z</time></trkpt><trkpt lat="43.57223635030577" lon="11.015203851784475"><ele>59.0</ele><time>2026-04-07T12:56:23Z</time></trkpt><trkpt lat="43.57212071023707" lon="11.015265259544611"><ele>58.75</ele><time>2026-04-07T12:56:23.999Z</time></trkpt><trkpt lat="43.57200970380376" lon="11.015292846345357"><ele>58.5</ele><time>2026-04-07T12:56:24.999Z</time></trkpt><trkpt lat="43.571893025427066" lon="11.015283557604175"><ele>58.25</ele><time>2026-04-07T12:56:25.999Z</time></trkpt><trkpt lat="43.5717722433595" lon="11.015282515112826"><ele>58.0</ele><time>2026-04-07T12:56:26.999Z</time></trkpt><trkpt lat="43.571662564403205" lon="11.01521377002824"><ele>58.0</ele><time>2026-04-07T12:56:27.999Z</time></trkpt><trkpt lat="43.57154930719243" lon="11.015112339431994"><ele>58.0</ele><time>2026-04-07T12:56:28.999Z</time></trkpt><trkpt lat="43.571439980907115" lon="11.014995867248116"><ele>58.0</ele><time>2026-04-07T12:56:29.999Z</time></trkpt><trkpt lat="43.57133026334914" lon="11.014866916586291"><ele>58.0</ele><time>2026-04-07T12:56:30.999Z</time></trkpt><trkpt lat="43.57121439002556" lon="11.014739456136981"><ele>57.666666666666664</ele><time>2026-04-07T12:56:31.999Z</time></trkpt><trkpt lat="43.571086925331336" lon="11.01461565661981"><ele>57.33333333333333</ele><time>2026-04-07T12:56:32.999Z</time></trkpt><trkpt lat="43.57094624597571" lon="11.014499428490305"><ele>57.0</ele><time>2026-04-07T12:56:33.999Z</time></trkpt><trkpt lat="43.57081988051694" lon="11.014402486560206"><ele>57.0</ele><time>2026-04-07T12:56:34.999Z</time></trkpt><trkpt lat="43.570701779312316" lon="11.01430652612307"><ele>57.0</ele><time>2026-04-07T12:56:35.999Z</time></trkpt><trkpt lat="43.570585585774744" lon="11.014194488026103"><ele>57.0</ele><time>2026-04-07T12:56:36.999Z</time></trkpt><trkpt lat="43.570469534733704" lon="11.01406141211595"><ele>57.0</ele><time>2026-04-07T12:56:37.999Z</time></trkpt><trkpt lat="43.57035935803167" lon="11.01391093964967"><ele>57.25</ele><time>2026-04-07T12:56:38.999Z</time></trkpt><trkpt lat="43.57026384585835" lon="11.013756628519829"><ele>57.5</ele><time>2026-04-07T12:56:39.999Z</time></trkpt><trkpt lat="43.570179396229776" lon="11.013604145133034"><ele>57.75</ele><time>2026-04-07T12:56:40.999Z</time></trkpt><trkpt lat="43.57009559212201" lon="11.013450743567267"><ele>58.0</ele><time>2026-04-07T12:56:41.999Z</time></trkpt><trkpt lat="43.570007404976174" lon="11.013292790848611"><ele>58.0</ele><time>2026-04-07T12:56:42.999Z</time></trkpt><trkpt lat="43.569914954798136" lon="11.013130008968458"><ele>58.0</ele><time>2026-04-07T12:56:43.999Z</time></trkpt><trkpt lat="43.56981655855204" lon="11.012964859142482"><ele>58.0</ele><time>2026-04-07T12:56:44.999Z</time></trkpt><trkpt lat="43.569716453779996" lon="11.01279732465336"><ele>58.0</ele><time>2026-04-07T12:56:45.999Z</time></trkpt><trkpt lat="43.56961633889201" lon="11.012620348353373"><ele>58.0</ele><time>2026-04-07T12:56:46.999Z</time></trkpt><trkpt lat="43.56952115357252" lon="11.01245444940281"><ele>58.0</ele><time>2026-04-07T12:56:47.999Z</time></trkpt><trkpt lat="43.56943400710201" lon="11.012302808714098"><ele>57.75</ele><time>2026-04-07T12:56:48.999Z</time></trkpt><trkpt lat="43.56934123459058" lon="11.01215001370631"><ele>57.5</ele><time>2026-04-07T12:56:49.999Z</time></trkpt><trkpt lat="43.56924539548839" lon="11.01199304086199"><ele>57.25</ele><time>2026-04-07T12:56:50.999Z</time></trkpt><trkpt lat="43.56916051327646" lon="11.011854124692192"><ele>57.0</ele><time>2026-04-07T12:56:51.999Z</time></trkpt><trkpt lat="43.56907948515563" lon="11.011715257236991"><ele>57.0</ele><time>2026-04-07T12:56:52.999Z</time></trkpt><trkpt lat="43.56898849769418" lon="11.011563250462496"><ele>57.0</ele><time>2026-04-07T12:56:53.999Z</time></trkpt><trkpt lat="43.5688908330429" lon="11.011400423866199"><ele>57.0</ele><time>2026-04-07T12:56:54.999Z</time></trkpt><trkpt lat="43.568809862758265" lon="11.011261887897842"><ele>57.0</ele><time>2026-04-07T12:56:55.999Z</time></trkpt><trkpt lat="43.56873811655717" lon="11.011140281698669"><ele>57.0</ele><time>2026-04-07T12:56:56.999Z</time></trkpt><trkpt lat="43.568672861403265" lon="11.011022455665916"><ele>57.0</ele><time>2026-04-07T12:56:57.999Z</time></trkpt><trkpt lat="43.5686129779081" lon="11.010907036993471"><ele>57.0</ele><time>2026-04-07T12:56:58.999Z</time></trkpt><trkpt lat="43.56855709242148" lon="11.010775248641501"><ele>57.0</ele><time>2026-04-07T12:56:59.999Z</time></trkpt><trkpt lat="43.568506069844815" lon="11.01062713863218"><ele>57.0</ele><time>2026-04-07T12:57:00.999Z</time></trkpt><trkpt lat="43.56846347880414" lon="11.01045935962283"><ele>56.75</ele><time>2026-04-07T12:57:01.999Z</time></trkpt><trkpt lat="43.568434141198026" lon="11.010284344528573"><ele>56.5</ele><time>2026-04-07T12:57:02.999Z</time></trkpt><trkpt lat="43.568414738803526" lon="11.01012241148883"><ele>56.25</ele><time>2026-04-07T12:57:03.999Z</time></trkpt><trkpt lat="43.56840411677595" lon="11.0099572359199"><ele>56.0</ele><time>2026-04-07T12:57:04.999Z</time></trkpt><trkpt lat="43.568400571746935" lon="11.00977892980805"><ele>56.333333333333336</ele><time>2026-04-07T12:57:05.999Z</time></trkpt><trkpt lat="43.56840713262649" lon="11.009579486007738"><ele>56.66666666666667</ele><time>2026-04-07T12:57:06.999Z</time></trkpt><trkpt lat="43.56841733393765" lon="11.009364446528524"><ele>57.0</ele><time>2026-04-07T12:57:07.999Z</time></trkpt><trkpt lat="43.56843244639156" lon="11.009158730387119"><ele>57.0</ele><time>2026-04-07T12:57:08.999Z</time></trkpt><trkpt lat="43.56845114404555" lon="11.008950555042107"><ele>57.0</ele><time>2026-04-07T12:57:09.999Z</time></trkpt><trkpt lat="43.56846749681644" lon="11.008739134717956"><ele>57.0</ele><time>2026-04-07T12:57:10.999Z</time></trkpt><trkpt lat="43.56848376283202" lon="11.008521814334868"><ele>56.66666666666667</ele><time>2026-04-07T12:57:11.999Z</time></trkpt><trkpt lat="43.56849848180589" lon="11.008297139517863"><ele>56.333333333333336</ele><time>2026-04-07T12:57:12.999Z</time></trkpt><trkpt lat="43.56851651006984" lon="11.008069453459175"><ele>56.0</ele><time>2026-04-07T12:57:13.999Z</time></trkpt><trkpt lat="43.568532686518445" lon="11.00783757890018"><ele>56.0</ele><time>2026-04-07T12:57:15Z</time></trkpt><trkpt lat="43.56853252540613" lon="11.007615350238034"><ele>56.0</ele><time>2026-04-07T12:57:16Z</time></trkpt><trkpt lat="43.56852878075378" lon="11.0074126366644"><ele>56.0</ele><time>2026-04-07T12:57:17Z</time></trkpt><trkpt lat="43.56850550725479" lon="11.007211280505045"><ele>56.25</ele><time>2026-04-07T12:57:18Z</time></trkpt><trkpt lat="43.56845602351831" lon="11.007020018529376"><ele>56.5</ele><time>2026-04-07T12:57:19Z</time></trkpt><trkpt lat="43.568387077263196" lon="11.006835107853407"><ele>56.75</ele><time>2026-04-07T12:57:20Z</time></trkpt><trkpt lat="43.56829551764526" lon="11.006700566586037"><ele>57.0</ele><time>2026-04-07T12:57:21Z</time></trkpt><trkpt lat="43.56818434224284" lon="11.00658379548285"><ele>57.0</ele><time>2026-04-07T12:57:22Z</time></trkpt><trkpt lat="43.56804957641457" lon="11.006481586429915"><ele>57.0</ele><time>2026-04-07T12:57:23Z</time></trkpt><trkpt lat="43.567918632337516" lon="11.006413405325995"><ele>57.0</ele><time>2026-04-07T12:57:24Z</time></trkpt><trkpt lat="43.56778461764763" lon="11.006389972261188"><ele>57.0</ele><time>2026-04-07T12:57:25Z</time></trkpt><trkpt lat="43.567640989310725" lon="11.0063966954697"><ele>57.0</ele><time>2026-04-07T12:57:26Z</time></trkpt><trkpt lat="43.567483623520886" lon="11.006436894319457"><ele>57.0</ele><time>2026-04-07T12:57:27Z</time></trkpt><trkpt lat="43.56731983647341" lon="11.006500648146684"><ele>57.0</ele><time>2026-04-07T12:57:28Z</time></trkpt><trkpt lat="43.5671693307972" lon="11.006591745345226"><ele>56.66666666666667</ele><time>2026-04-07T12:57:29Z</time></trkpt><trkpt lat="43.567018382598846" lon="11.006701510265358"><ele>56.333333333333336</ele><time>2026-04-07T12:57:30Z</time></trkpt><trkpt lat="43.5668642763017" lon="11.00682730247693"><ele>56.0</ele><time>2026-04-07T12:57:31Z</time></trkpt><trkpt lat="43.566714580674535" lon="11.006962393500554"><ele>56.0</ele><time>2026-04-07T12:57:32Z</time></trkpt><trkpt lat="43.56655548459412" lon="11.007098527746722"><ele>56.0</ele><time>2026-04-07T12:57:33Z</time></trkpt><trkpt lat="43.56639180494849" lon="11.00723592311131"><ele>56.0</ele><time>2026-04-07T12:57:34Z</time></trkpt><trkpt lat="43.566235633842425" lon="11.007339955492634"><ele>55.66666666666667</ele><time>2026-04-07T12:57:35Z</time></trkpt><trkpt lat="43.56609841713103" lon="11.007455643811484"><ele>55.33333333333333</ele><time>2026-04-07T12:57:36Z</time></trkpt><trkpt lat="43.56596130251999" lon="11.007571244264588"><ele>55.0</ele><time>2026-04-07T12:57:37Z</time></trkpt><trkpt lat="43.56582190115721" lon="11.0076878906832"><ele>55.0</ele><time>2026-04-07T12:57:38Z</time></trkpt><trkpt lat="43.565674589497135" lon="11.007810606327679"><ele>55.0</ele><time>2026-04-07T12:57:39Z</time></trkpt><trkpt lat="43.56552547852194" lon="11.00793667643597"><ele>55.0</ele><time>2026-04-07T12:57:40Z</time></trkpt><trkpt lat="43.56537336531197" lon="11.00806528489639"><ele>55.0</ele><time>2026-04-07T12:57:41Z</time></trkpt><trkpt lat="43.5652197248053" lon="11.00819518463267"><ele>55.0</ele><time>2026-04-07T12:57:42Z</time></trkpt><trkpt lat="43.565062371903686" lon="11.00832817536746"><ele>55.0</ele><time>2026-04-07T12:57:43Z</time></trkpt><trkpt lat="43.564900064902204" lon="11.00846526283595"><ele>55.0</ele><time>2026-04-07T12:57:44Z</time></trkpt><trkpt lat="43.56473365596036" lon="11.008605814855386"><ele>55.0</ele><time>2026-04-07T12:57:45Z</time></trkpt><trkpt lat="43.564566159173694" lon="11.008748092905241"><ele>55.0</ele><time>2026-04-07T12:57:46Z</time></trkpt><trkpt lat="43.56441158732597" lon="11.008881442540789"><ele>55.33333333333333</ele><time>2026-04-07T12:57:47Z</time></trkpt><trkpt lat="43.5642634418906" lon="11.009011220619966"><ele>55.66666666666667</ele><time>2026-04-07T12:57:48Z</time></trkpt><trkpt lat="43.56411540953616" lon="11.00914325717461"><ele>56.0</ele><time>2026-04-07T12:57:49Z</time></trkpt><trkpt lat="43.56396345947358" lon="11.00928454748504"><ele>56.0</ele><time>2026-04-07T12:57:50Z</time></trkpt><trkpt lat="43.56381007215147" lon="11.009435493461577"><ele>56.0</ele><time>2026-04-07T12:57:51Z</time></trkpt><trkpt lat="43.563657362895704" lon="11.009591684658508"><ele>56.0</ele><time>2026-04-07T12:57:52Z</time></trkpt><trkpt lat="43.56350263188595" lon="11.009761091290862"><ele>56.0</ele><time>2026-04-07T12:57:53Z</time></trkpt><trkpt lat="43.56335113189437" lon="11.009932055503011"><ele>56.0</ele><time>2026-04-07T12:57:54Z</time></trkpt><trkpt lat="43.56321238036947" lon="11.01009319777489"><ele>56.0</ele><time>2026-04-07T12:57:55Z</time></trkpt><trkpt lat="43.56307758827477" lon="11.010259909442539"><ele>56.333333333333336</ele><time>2026-04-07T12:57:56Z</time></trkpt><trkpt lat="43.56294643502992" lon="11.010439704783407"><ele>56.66666666666667</ele><time>2026-04-07T12:57:57Z</time></trkpt><trkpt lat="43.56281284119898" lon="11.010628618597933"><ele>57.0</ele><time>2026-04-07T12:57:58Z</time></trkpt><trkpt lat="43.56267734464708" lon="11.01082604015866"><ele>57.0</ele><time>2026-04-07T12:57:59Z</time></trkpt><trkpt lat="43.56254303624848" lon="11.011030772777728"><ele>57.0</ele><time>2026-04-07T12:58:00Z</time></trkpt><trkpt lat="43.562414303869055" lon="11.011243783800907"><ele>57.0</ele><time>2026-04-07T12:58:01Z</time></trkpt><trkpt lat="43.56228664735806" lon="11.011466226298449"><ele>57.0</ele><time>2026-04-07T12:58:02Z</time></trkpt><trkpt lat="43.5621611780312" lon="11.011697595854592"><ele>57.0</ele><time>2026-04-07T12:58:03Z</time></trkpt><trkpt lat="43.56204144532629" lon="11.011922926559988"><ele>57.0</ele><time>2026-04-07T12:58:04Z</time></trkpt><trkpt lat="43.56193133239179" lon="11.012143144524238"><ele>57.0</ele><time>2026-04-07T12:58:05Z</time></trkpt><trkpt lat="43.56182544663181" lon="11.012360623994839"><ele>57.0</ele><time>2026-04-07T12:58:06Z</time></trkpt><trkpt lat="43.56172277800403" lon="11.01258038881295"><ele>57.0</ele><time>2026-04-07T12:58:07Z</time></trkpt><trkpt lat="43.561619534583706" lon="11.012801384095123"><ele>57.0</ele><time>2026-04-07T12:58:08Z</time></trkpt><trkpt lat="43.561512087346436" lon="11.013021200535983"><ele>57.0</ele><time>2026-04-07T12:58:09Z</time></trkpt><trkpt lat="43.561407502593156" lon="11.013244417223412"><ele>57.0</ele><time>2026-04-07T12:58:10Z</time></trkpt><trkpt lat="43.561302738719014" lon="11.013467427302858"><ele>57.66666666666667</ele><time>2026-04-07T12:58:11Z</time></trkpt><trkpt lat="43.561197604294954" lon="11.013689473238568"><ele>58.333333333333336</ele><time>2026-04-07T12:58:12Z</time></trkpt><trkpt lat="43.56109316525284" lon="11.01391246931294"><ele>59.0</ele><time>2026-04-07T12:58:13Z</time></trkpt><trkpt lat="43.56098598372755" lon="11.014141321311998"><ele>58.66666666666667</ele><time>2026-04-07T12:58:14Z</time></trkpt><trkpt lat="43.56087444555294" lon="11.014378965303397"><ele>58.33333333333333</ele><time>2026-04-07T12:58:15Z</time></trkpt><trkpt lat="43.56075878635346" lon="11.014622059530684"><ele>58.0</ele><time>2026-04-07T12:58:16Z</time></trkpt><trkpt lat="43.56064145212145" lon="11.014871937367566"><ele>58.33333333333333</ele><time>2026-04-07T12:58:17Z</time></trkpt><trkpt lat="43.56052194604504" lon="11.015126607586884"><ele>58.66666666666667</ele><time>2026-04-07T12:58:18Z</time></trkpt><trkpt lat="43.560397948412884" lon="11.015391305092274"><ele>59.0</ele><time>2026-04-07T12:58:19Z</time></trkpt><trkpt lat="43.56027401548148" lon="11.015654063190233"><ele>58.5</ele><time>2026-04-07T12:58:20Z</time></trkpt><trkpt lat="43.56014430431634" lon="11.015930217019779"><ele>58.0</ele><time>2026-04-07T12:58:21Z</time></trkpt><trkpt lat="43.56001408702289" lon="11.016207645699847"><ele>58.0</ele><time>2026-04-07T12:58:22Z</time></trkpt><trkpt lat="43.559889490801105" lon="11.016473098781397"><ele>58.0</ele><time>2026-04-07T12:58:23Z</time></trkpt><trkpt lat="43.559773213112344" lon="11.016720828918276"><ele>58.0</ele><time>2026-04-07T12:58:24Z</time></trkpt><trkpt lat="43.55965879194344" lon="11.016964529410272"><ele>58.33333333333333</ele><time>2026-04-07T12:58:25Z</time></trkpt><trkpt lat="43.55954187722019" lon="11.01721346077511"><ele>58.66666666666667</ele><time>2026-04-07T12:58:26Z</time></trkpt><trkpt lat="43.5594218517094" lon="11.017469015570148"><ele>59.0</ele><time>2026-04-07T12:58:27Z</time></trkpt><trkpt lat="43.559299191842776" lon="11.017730339584677"><ele>59.5</ele><time>2026-04-07T12:58:28Z</time></trkpt><trkpt lat="43.559176549278064" lon="11.017992285058105"><ele>60.0</ele><time>2026-04-07T12:58:29Z</time></trkpt><trkpt lat="43.55904802163663" lon="11.018258320044463"><ele>60.0</ele><time>2026-04-07T12:58:29.999Z</time></trkpt><trkpt lat="43.55892770215985" lon="11.018507365230128"><ele>60.0</ele><time>2026-04-07T12:58:30.999Z</time></trkpt><trkpt lat="43.558807514304306" lon="11.018743191171739"><ele>60.0</ele><time>2026-04-07T12:58:31.999Z</time></trkpt><trkpt lat="43.558686671112575" lon="11.018973438951623"><ele>59.66666666666667</ele><time>2026-04-07T12:58:32.999Z</time></trkpt><trkpt lat="43.558557655796456" lon="11.01919694257312"><ele>59.333333333333336</ele><time>2026-04-07T12:58:33.999Z</time></trkpt><trkpt lat="43.558424330076704" lon="11.019424935607121"><ele>59.0</ele><time>2026-04-07T12:58:34.999Z</time></trkpt><trkpt lat="43.55828802031524" lon="11.019658032392702"><ele>59.0</ele><time>2026-04-07T12:58:35.999Z</time></trkpt><trkpt lat="43.55814570232902" lon="11.019891506574739"><ele>59.0</ele><time>2026-04-07T12:58:36.999Z</time></trkpt><trkpt lat="43.557981649424995" lon="11.020104000370083"><ele>59.0</ele><time>2026-04-07T12:58:37.999Z</time></trkpt><trkpt lat="43.557809520377" lon="11.020305297563812"><ele>59.0</ele><time>2026-04-07T12:58:38.999Z</time></trkpt><trkpt lat="43.557629803541936" lon="11.020502687833586"><ele>59.0</ele><time>2026-04-07T12:58:39.999Z</time></trkpt><trkpt lat="43.557442767913116" lon="11.020687569811551"><ele>59.0</ele><time>2026-04-07T12:58:40.999Z</time></trkpt><trkpt lat="43.557246032808415" lon="11.020867823761288"><ele>59.0</ele><time>2026-04-07T12:58:41.999Z</time></trkpt><trkpt lat="43.55704069912357" lon="11.021037012789575"><ele>59.0</ele><time>2026-04-07T12:58:42.999Z</time></trkpt><trkpt lat="43.55683490913217" lon="11.021190365133801"><ele>59.0</ele><time>2026-04-07T12:58:43.999Z</time></trkpt><trkpt lat="43.55663255189866" lon="11.021324523155222"><ele>59.0</ele><time>2026-04-07T12:58:44.999Z</time></trkpt><trkpt lat="43.556425973455326" lon="11.021450212912624"><ele>59.0</ele><time>2026-04-07T12:58:45.999Z</time></trkpt><trkpt lat="43.55620906621231" lon="11.021564311468852"><ele>59.5</ele><time>2026-04-07T12:58:46.999Z</time></trkpt><trkpt lat="43.55598837777284" lon="11.021662882192791"><ele>60.0</ele><time>2026-04-07T12:58:47.999Z</time></trkpt><trkpt lat="43.55576355821842" lon="11.02175162976946"><ele>60.0</ele><time>2026-04-07T12:58:48.999Z</time></trkpt><trkpt lat="43.555532529128556" lon="11.02182900190363"><ele>60.0</ele><time>2026-04-07T12:58:49.999Z</time></trkpt><trkpt lat="43.555296595146444" lon="11.021888424415323"><ele>60.5</ele><time>2026-04-07T12:58:50.999Z</time></trkpt><trkpt lat="43.55505504939501" lon="11.021931999059476"><ele>61.0</ele><time>2026-04-07T12:58:51.999Z</time></trkpt><trkpt lat="43.55481329999712" lon="11.021966327655232"><ele>61.0</ele><time>2026-04-07T12:58:52.999Z</time></trkpt><trkpt lat="43.55458178971836" lon="11.021987397973808"><ele>61.0</ele><time>2026-04-07T12:58:53.999Z</time></trkpt><trkpt lat="43.55436431294392" lon="11.02199636865549"><ele>61.0</ele><time>2026-04-07T12:58:54.999Z</time></trkpt><trkpt lat="43.55415466824934" lon="11.02199239310022"><ele>61.0</ele><time>2026-04-07T12:58:55.999Z</time></trkpt><trkpt lat="43.55395173069952" lon="11.021985492235638"><ele>61.0</ele><time>2026-04-07T12:58:56.999Z</time></trkpt><trkpt lat="43.55376231468908" lon="11.02197339046646"><ele>60.666666666666664</ele><time>2026-04-07T12:58:57.999Z</time></trkpt><trkpt lat="43.55358247742761" lon="11.02196298941994"><ele>60.33333333333333</ele><time>2026-04-07T12:58:58.999Z</time></trkpt><trkpt lat="43.553408126049234" lon="11.021951367135134"><ele>60.0</ele><time>2026-04-07T12:58:59.999Z</time></trkpt><trkpt lat="43.5532336803274" lon="11.021935913028603"><ele>60.0</ele><time>2026-04-07T12:59:00.999Z</time></trkpt><trkpt lat="43.553058488741776" lon="11.02191922968273"><ele>60.0</ele><time>2026-04-07T12:59:01.999Z</time></trkpt><trkpt lat="43.55288538339612" lon="11.021907760754917"><ele>60.0</ele><time>2026-04-07T12:59:02.999Z</time></trkpt><trkpt lat="43.55271010851115" lon="11.021892096798176"><ele>64.0</ele><time>2026-04-07T12:59:03.999Z</time></trkpt><trkpt lat="43.552537319160976" lon="11.021875375753718"><ele>68.0</ele><time>2026-04-07T12:59:04.999Z</time></trkpt><trkpt lat="43.5523668106768" lon="11.021858150296248"><ele>72.0</ele><time>2026-04-07T12:59:05.999Z</time></trkpt><trkpt lat="43.55220610986165" lon="11.0218420758467"><ele>72.0</ele><time>2026-04-07T12:59:06.999Z</time></trkpt><trkpt lat="43.55204189394527" lon="11.021829064759526"><ele>72.0</ele><time>2026-04-07T12:59:07.999Z</time></trkpt><trkpt lat="43.55186948485925" lon="11.021814032976094"><ele>72.0</ele><time>2026-04-07T12:59:08.999Z</time></trkpt><trkpt lat="43.551695949322536" lon="11.021800430842564"><ele>78.33333333333333</ele><time>2026-04-07T12:59:09.999Z</time></trkpt><trkpt lat="43.55150961745514" lon="11.021782758469646"><ele>84.66666666666666</ele><time>2026-04-07T12:59:10.999Z</time></trkpt><trkpt lat="43.5513355156665" lon="11.02176434804708"><ele>91.0</ele><time>2026-04-07T12:59:12.015Z</time></trkpt><trkpt lat="43.5511757908081" lon="11.021746093814064"><ele>92.0</ele><time>2026-04-07T12:59:13.018Z</time></trkpt><trkpt lat="43.55100745012513" lon="11.021727094157269"><ele>93.0</ele><time>2026-04-07T12:59:14.02Z</time></trkpt><trkpt lat="43.550829300028724" lon="11.021706890660681"><ele>94.0</ele><time>2026-04-07T12:59:15.019Z</time></trkpt><trkpt lat="43.550660433584426" lon="11.021692565246063"><ele>90.0</ele><time>2026-04-07T12:59:16.02Z</time></trkpt><trkpt lat="43.54755775075736" lon="11.021464141096008"><ele>90.0</ele><time>2026-04-07T12:59:34.999Z</time></trkpt><trkpt lat="43.54739849321277" lon="11.021442576443546"><ele>90.0</ele><time>2026-04-07T12:59:35.999Z</time></trkpt><trkpt lat="43.547247923816784" lon="11.021388813988358"><ele>90.0</ele><time>2026-04-07T12:59:36.999Z</time></trkpt><trkpt lat="43.547101107799435" lon="11.021394149353855"><ele>93.66666666666666</ele><time>2026-04-07T12:59:37.999Z</time></trkpt><trkpt lat="43.54694471925318" lon="11.021387235137313"><ele>97.33333333333333</ele><time>2026-04-07T12:59:38.999Z</time></trkpt><trkpt lat="43.54678771633727" lon="11.021375591524848"><ele>101.0</ele><time>2026-04-07T12:59:39.999Z</time></trkpt><trkpt lat="43.54662772198965" lon="11.02136283357868"><ele>101.0</ele><time>2026-04-07T12:59:41Z</time></trkpt><trkpt lat="43.546464050177626" lon="11.021349522509436"><ele>101.0</ele><time>2026-04-07T12:59:42Z</time></trkpt><trkpt lat="43.5462965035398" lon="11.021336569788565"><ele>101.0</ele><time>2026-04-07T12:59:43Z</time></trkpt><trkpt lat="43.54612466249092" lon="11.021324530244272"><ele>106.66666666666666</ele><time>2026-04-07T12:59:44.019Z</time></trkpt><trkpt lat="43.545962404925966" lon="11.021315805878185"><ele>112.33333333333334</ele><time>2026-04-07T12:59:45.02Z</time></trkpt><trkpt lat="43.5458051547459" lon="11.021284116738036"><ele>118.0</ele><time>2026-04-07T12:59:46.02Z</time></trkpt><trkpt lat="43.545646200436806" lon="11.021272702260607"><ele>91.0</ele><time>2026-04-07T12:59:47.023Z</time></trkpt><trkpt lat="43.54291757107111" lon="11.022221110771431"><ele>86.66666666666666</ele><time>2026-04-07T13:00:05Z</time></trkpt><trkpt lat="43.54277771613939" lon="11.022334749146813"><ele>82.33333333333333</ele><time>2026-04-07T13:00:06Z</time></trkpt><trkpt lat="43.542632326850644" lon="11.022437774722842"><ele>78.0</ele><time>2026-04-07T13:00:07Z</time></trkpt><trkpt lat="43.54250358737934" lon="11.02257453993347"><ele>77.33333333333333</ele><time>2026-04-07T13:00:08Z</time></trkpt><trkpt lat="43.542384758244765" lon="11.022713862178561"><ele>76.66666666666666</ele><time>2026-04-07T13:00:09Z</time></trkpt><trkpt lat="43.54226289270285" lon="11.022861023980767"><ele>76.0</ele><time>2026-04-07T13:00:10Z</time></trkpt><trkpt lat="43.54213916626693" lon="11.023015830007349"><ele>74.0</ele><time>2026-04-07T13:00:11Z</time></trkpt><trkpt lat="43.542014513671056" lon="11.023174644383865"><ele>72.0</ele><time>2026-04-07T13:00:12Z</time></trkpt><trkpt lat="43.54188564495668" lon="11.023338789997673"><ele>70.0</ele><time>2026-04-07T13:00:13Z</time></trkpt><trkpt lat="43.541755256051474" lon="11.023504539170187"><ele>69.66666666666666</ele><time>2026-04-07T13:00:14Z</time></trkpt><trkpt lat="43.54162040809065" lon="11.023675748408602"><ele>69.33333333333333</ele><time>2026-04-07T13:00:15Z</time></trkpt><trkpt lat="43.54149109619329" lon="11.023839951115349"><ele>69.0</ele><time>2026-04-07T13:00:16Z</time></trkpt><trkpt lat="43.54137044304595" lon="11.023994009264786"><ele>69.0</ele><time>2026-04-07T13:00:17Z</time></trkpt><trkpt lat="43.54125267964032" lon="11.024144078037768"><ele>69.0</ele><time>2026-04-07T13:00:18Z</time></trkpt><trkpt lat="43.54113216023026" lon="11.024297182387118"><ele>69.0</ele><time>2026-04-07T13:00:19Z</time></trkpt><trkpt lat="43.54100883542133" lon="11.024453850638583"><ele>69.0</ele><time>2026-04-07T13:00:20Z</time></trkpt><trkpt lat="43.540882620285856" lon="11.024614190670214"><ele>69.0</ele><time>2026-04-07T13:00:21Z</time></trkpt><trkpt lat="43.540752696240936" lon="11.024779242395978"><ele>69.0</ele><time>2026-04-07T13:00:22Z</time></trkpt><trkpt lat="43.540617278120685" lon="11.024951273631029"><ele>69.33333333333333</ele><time>2026-04-07T13:00:23Z</time></trkpt><trkpt lat="43.5404905870584" lon="11.025116765556692"><ele>69.66666666666666</ele><time>2026-04-07T13:00:24Z</time></trkpt><trkpt lat="43.54037111424537" lon="11.0252704860662"><ele>70.0</ele><time>2026-04-07T13:00:25Z</time></trkpt><trkpt lat="43.540248918379994" lon="11.025424364858893"><ele>70.66666666666666</ele><time>2026-04-07T13:00:26Z</time></trkpt><trkpt lat="43.540123585280384" lon="11.025581573311596"><ele>71.33333333333333</ele><time>2026-04-07T13:00:27Z</time></trkpt><trkpt lat="43.54000058881683" lon="11.025741144692784"><ele>72.0</ele><time>2026-04-07T13:00:28Z</time></trkpt><trkpt lat="43.53988085684523" lon="11.025896480830353"><ele>73.33333333333333</ele><time>2026-04-07T13:00:29Z</time></trkpt><trkpt lat="43.539764003631014" lon="11.026044897497375"><ele>74.66666666666666</ele><time>2026-04-07T13:00:30Z</time></trkpt><trkpt lat="43.53964764521407" lon="11.026191600218382"><ele>76.0</ele><time>2026-04-07T13:00:31Z</time></trkpt><trkpt lat="43.539529962152116" lon="11.026339973024937"><ele>83.33333333333333</ele><time>2026-04-07T13:00:32Z</time></trkpt><trkpt lat="43.53940654620096" lon="11.02649557375774"><ele>90.66666666666666</ele><time>2026-04-07T13:00:33.016Z</time></trkpt><trkpt lat="43.53928064761058" lon="11.02664974351063"><ele>98.0</ele><time>2026-04-07T13:00:34.016Z</time></trkpt><trkpt lat="43.53914903205728" lon="11.02680408541626"><ele>99.33333333333333</ele><time>2026-04-07T13:00:35.016Z</time></trkpt><trkpt lat="43.539010673915435" lon="11.026955787513078"><ele>100.66666666666666</ele><time>2026-04-07T13:00:36.016Z</time></trkpt><trkpt lat="43.53886988697637" lon="11.02710504385319"><ele>102.0</ele><time>2026-04-07T13:00:37.015Z</time></trkpt><trkpt lat="43.533788966055525" lon="11.031931545595668"><ele>94.33333333333333</ele><time>2026-04-07T13:01:14.999Z</time></trkpt><trkpt lat="43.533687441390526" lon="11.032097389629044"><ele>86.66666666666666</ele><time>2026-04-07T13:01:15.999Z</time></trkpt><trkpt lat="43.53359613221611" lon="11.032285753797568"><ele>79.0</ele><time>2026-04-07T13:01:16.999Z</time></trkpt><trkpt lat="43.533494870176725" lon="11.032486083963152"><ele>76.66666666666666</ele><time>2026-04-07T13:01:17.999Z</time></trkpt><trkpt lat="43.53335105289931" lon="11.032657813004677"><ele>74.33333333333333</ele><time>2026-04-07T13:01:18.999Z</time></trkpt><trkpt lat="43.53325765664" lon="11.032874763643507"><ele>72.0</ele><time>2026-04-07T13:01:19.999Z</time></trkpt><trkpt lat="43.533168368700316" lon="11.03309129471417"><ele>72.0</ele><time>2026-04-07T13:01:20.999Z</time></trkpt><trkpt lat="43.533088585291" lon="11.033296735091248"><ele>72.0</ele><time>2026-04-07T13:01:21.999Z</time></trkpt><trkpt lat="43.53301555178942" lon="11.03350841666218"><ele>72.0</ele><time>2026-04-07T13:01:22.999Z</time></trkpt><trkpt lat="43.53294593411096" lon="11.033726761535497"><ele>72.0</ele><time>2026-04-07T13:01:23.999Z</time></trkpt><trkpt lat="43.53287910878487" lon="11.033948199325442"><ele>72.0</ele><time>2026-04-07T13:01:24.999Z</time></trkpt><trkpt lat="43.532819497534156" lon="11.034183600409419"><ele>72.0</ele><time>2026-04-07T13:01:25.999Z</time></trkpt><trkpt lat="43.53276430632157" lon="11.034411301703496"><ele>72.0</ele><time>2026-04-07T13:01:26.999Z</time></trkpt><trkpt lat="43.53271650895046" lon="11.034628587804823"><ele>72.0</ele><time>2026-04-07T13:01:27.999Z</time></trkpt><trkpt lat="43.53267565554431" lon="11.03484631515874"><ele>72.0</ele><time>2026-04-07T13:01:28.999Z</time></trkpt><trkpt lat="43.53263956857495" lon="11.035065491714015"><ele>71.66666666666667</ele><time>2026-04-07T13:01:29.999Z</time></trkpt><trkpt lat="43.53260873333253" lon="11.035288173655449"><ele>71.33333333333334</ele><time>2026-04-07T13:01:30.999Z</time></trkpt><trkpt lat="43.532583676258916" lon="11.03551327203154"><ele>71.0</ele><time>2026-04-07T13:01:31.999Z</time></trkpt><trkpt lat="43.53256171686137" lon="11.035739790404092"><ele>70.33333333333334</ele><time>2026-04-07T13:01:32.999Z</time></trkpt><trkpt lat="43.532541574329386" lon="11.035969218134708"><ele>69.66666666666667</ele><time>2026-04-07T13:01:33.999Z</time></trkpt><trkpt lat="43.5325274752459" lon="11.03619515858002"><ele>69.0</ele><time>2026-04-07T13:01:34.999Z</time></trkpt><trkpt lat="43.53252062894405" lon="11.036412518503711"><ele>69.0</ele><time>2026-04-07T13:01:35.999Z</time></trkpt><trkpt lat="43.53252614365178" lon="11.036634985594393"><ele>69.0</ele><time>2026-04-07T13:01:36.999Z</time></trkpt><trkpt lat="43.53254486530967" lon="11.036852411945649"><ele>69.0</ele><time>2026-04-07T13:01:37.999Z</time></trkpt><trkpt lat="43.53258301059263" lon="11.037068736305516"><ele>68.66666666666667</ele><time>2026-04-07T13:01:38.999Z</time></trkpt><trkpt lat="43.53262890949047" lon="11.037277047885217"><ele>68.33333333333334</ele><time>2026-04-07T13:01:39.999Z</time></trkpt><trkpt lat="43.532690957674234" lon="11.037485005490336"><ele>68.0</ele><time>2026-04-07T13:01:40.999Z</time></trkpt><trkpt lat="43.53277265259" lon="11.037669342900957"><ele>68.0</ele><time>2026-04-07T13:01:41.999Z</time></trkpt><trkpt lat="43.53286364321292" lon="11.037834049844701"><ele>68.0</ele><time>2026-04-07T13:01:42.999Z</time></trkpt><trkpt lat="43.532970712697534" lon="11.03797377483881"><ele>68.0</ele><time>2026-04-07T13:01:43.999Z</time></trkpt><trkpt lat="43.53309931960135" lon="11.038082051870063"><ele>68.0</ele><time>2026-04-07T13:01:44.999Z</time></trkpt><trkpt lat="43.53322366211592" lon="11.038203611207562"><ele>67.5</ele><time>2026-04-07T13:01:45.999Z</time></trkpt><trkpt lat="43.53334500880717" lon="11.038315151170845"><ele>67.0</ele><time>2026-04-07T13:01:47Z</time></trkpt><trkpt lat="43.53346327086305" lon="11.038427299004155"><ele>66.5</ele><time>2026-04-07T13:01:48Z</time></trkpt><trkpt lat="43.53357530737746" lon="11.038548361838213"><ele>66.0</ele><time>2026-04-07T13:01:49Z</time></trkpt><trkpt lat="43.533667800212335" lon="11.03867190161299"><ele>66.0</ele><time>2026-04-07T13:01:50Z</time></trkpt><trkpt lat="43.5337435659786" lon="11.03880797217787"><ele>66.0</ele><time>2026-04-07T13:01:51Z</time></trkpt><trkpt lat="43.533772805825855" lon="11.038965594241414"><ele>66.0</ele><time>2026-04-07T13:01:52Z</time></trkpt><trkpt lat="43.533806266810885" lon="11.039102210371732"><ele>66.0</ele><time>2026-04-07T13:01:53Z</time></trkpt><trkpt lat="43.53383092744655" lon="11.039225875840568"><ele>66.0</ele><time>2026-04-07T13:01:54Z</time></trkpt><trkpt lat="43.53386274956889" lon="11.039316481609177"><ele>66.0</ele><time>2026-04-07T13:01:55Z</time></trkpt><trkpt lat="43.533870727869584" lon="11.039436464847789"><ele>66.0</ele><time>2026-04-07T13:01:57Z</time></trkpt><trkpt lat="43.53385394058676" lon="11.039531646242848"><ele>66.0</ele><time>2026-04-07T13:02:03Z</time></trkpt><trkpt lat="43.533817098267896" lon="11.039677528924061"><ele>66.0</ele><time>2026-04-07T13:02:05Z</time></trkpt><trkpt lat="43.53377172302558" lon="11.03975898921974"><ele>66.0</ele><time>2026-04-07T13:02:06Z</time></trkpt><trkpt lat="43.53376265316976" lon="11.039857898964991"><ele>66.0</ele><time>2026-04-07T13:02:07Z</time></trkpt><trkpt lat="43.53374931661659" lon="11.040030642619048"><ele>66.0</ele><time>2026-04-07T13:02:09Z</time></trkpt><trkpt lat="43.53377366739303" lon="11.040128836241562"><ele>66.0</ele><time>2026-04-07T13:02:10Z</time></trkpt><trkpt lat="43.53381736612097" lon="11.040240095787786"><ele>66.0</ele><time>2026-04-07T13:02:11Z</time></trkpt><trkpt lat="43.53385260575619" lon="11.040350975251116"><ele>66.0</ele><time>2026-04-07T13:02:12Z</time></trkpt><trkpt lat="43.53387584564353" lon="11.040483524512798"><ele>66.0</ele><time>2026-04-07T13:02:13Z</time></trkpt><trkpt lat="43.533885326752525" lon="11.040633101023083"><ele>65.5</ele><time>2026-04-07T13:02:14Z</time></trkpt><trkpt lat="43.533875073721816" lon="11.040802441390424"><ele>65.0</ele><time>2026-04-07T13:02:15Z</time></trkpt><trkpt lat="43.53385228911027" lon="11.040985365659992"><ele>64.5</ele><time>2026-04-07T13:02:16Z</time></trkpt><trkpt lat="43.53379671563574" lon="11.041156078111657"><ele>64.0</ele><time>2026-04-07T13:02:17Z</time></trkpt><trkpt lat="43.533754162090986" lon="11.041338952743331"><ele>64.5</ele><time>2026-04-07T13:02:18Z</time></trkpt><trkpt lat="43.533701139201206" lon="11.04152639760416"><ele>65.0</ele><time>2026-04-07T13:02:19Z</time></trkpt><trkpt lat="43.533646037711534" lon="11.041705260179342"><ele>65.5</ele><time>2026-04-07T13:02:20Z</time></trkpt><trkpt lat="43.53358937745214" lon="11.041874235784213"><ele>66.0</ele><time>2026-04-07T13:02:21Z</time></trkpt><trkpt lat="43.5335264172802" lon="11.042053664886561"><ele>66.0</ele><time>2026-04-07T13:02:22Z</time></trkpt><trkpt lat="43.5334589981997" lon="11.04223575252871"><ele>66.0</ele><time>2026-04-07T13:02:23Z</time></trkpt><trkpt lat="43.53339303801257" lon="11.04241312431949"><ele>66.0</ele><time>2026-04-07T13:02:24Z</time></trkpt><trkpt lat="43.5333236545792" lon="11.04259801253678"><ele>66.0</ele><time>2026-04-07T13:02:25Z</time></trkpt><trkpt lat="43.53325105125972" lon="11.04278868235088"><ele>66.0</ele><time>2026-04-07T13:02:26Z</time></trkpt><trkpt lat="43.53317688777804" lon="11.042983449545522"><ele>66.0</ele><time>2026-04-07T13:02:27Z</time></trkpt><trkpt lat="43.53310109939122" lon="11.043182889539663"><ele>66.0</ele><time>2026-04-07T13:02:28Z</time></trkpt><trkpt lat="43.53302493663548" lon="11.043387127528916"><ele>66.0</ele><time>2026-04-07T13:02:29Z</time></trkpt><trkpt lat="43.532951089287195" lon="11.043585156520793"><ele>66.0</ele><time>2026-04-07T13:02:30Z</time></trkpt><trkpt lat="43.53288158176395" lon="11.04377154787965"><ele>66.0</ele><time>2026-04-07T13:02:31Z</time></trkpt><trkpt lat="43.532811247199845" lon="11.043960157048994"><ele>66.0</ele><time>2026-04-07T13:02:32Z</time></trkpt><trkpt lat="43.5327378748606" lon="11.04415564029621"><ele>66.0</ele><time>2026-04-07T13:02:33Z</time></trkpt><trkpt lat="43.53266129194405" lon="11.044358436499122"><ele>66.0</ele><time>2026-04-07T13:02:34Z</time></trkpt><trkpt lat="43.53258265811873" lon="11.044566587569458"><ele>66.0</ele><time>2026-04-07T13:02:35Z</time></trkpt><trkpt lat="43.53250102579142" lon="11.044782302151052"><ele>66.0</ele><time>2026-04-07T13:02:36Z</time></trkpt><trkpt lat="43.53242466007456" lon="11.044983822708717"><ele>66.0</ele><time>2026-04-07T13:02:37Z</time></trkpt><trkpt lat="43.5323519384804" lon="11.045187451728614"><ele>66.0</ele><time>2026-04-07T13:02:38Z</time></trkpt><trkpt lat="43.53227748655158" lon="11.045399941867581"><ele>66.0</ele><time>2026-04-07T13:02:39Z</time></trkpt><trkpt lat="43.5322043739636" lon="11.04561873124028"><ele>66.0</ele><time>2026-04-07T13:02:40Z</time></trkpt><trkpt lat="43.53213625373402" lon="11.045841039126087"><ele>65.66666666666667</ele><time>2026-04-07T13:02:41Z</time></trkpt><trkpt lat="43.532076305564054" lon="11.046062487661295"><ele>65.33333333333334</ele><time>2026-04-07T13:02:42Z</time></trkpt><trkpt lat="43.532017598335614" lon="11.046296394730774"><ele>65.0</ele><time>2026-04-07T13:02:43Z</time></trkpt><trkpt lat="43.53196144021601" lon="11.046545639515774"><ele>65.33333333333334</ele><time>2026-04-07T13:02:44Z</time></trkpt><trkpt lat="43.53191447787013" lon="11.04678718167153"><ele>65.66666666666667</ele><time>2026-04-07T13:02:45Z</time></trkpt><trkpt lat="43.5318700275781" lon="11.047029405261291"><ele>66.0</ele><time>2026-04-07T13:02:46Z</time></trkpt><trkpt lat="43.53183426440831" lon="11.04727264797988"><ele>66.33333333333333</ele><time>2026-04-07T13:02:47Z</time></trkpt><trkpt lat="43.5318067953216" lon="11.047519653628182"><ele>66.66666666666666</ele><time>2026-04-07T13:02:48Z</time></trkpt><trkpt lat="43.53178103214272" lon="11.047766513253334"><ele>67.0</ele><time>2026-04-07T13:02:49Z</time></trkpt><trkpt lat="43.53176114588049" lon="11.048015746092753"><ele>67.0</ele><time>2026-04-07T13:02:50Z</time></trkpt><trkpt lat="43.53175017235381" lon="11.048276347368965"><ele>67.0</ele><time>2026-04-07T13:02:51Z</time></trkpt><trkpt lat="43.53174551925061" lon="11.048534021154552"><ele>67.0</ele><time>2026-04-07T13:02:52Z</time></trkpt><trkpt lat="43.53174684306931" lon="11.048791892562788"><ele>67.0</ele><time>2026-04-07T13:02:53Z</time></trkpt><trkpt lat="43.531754192285035" lon="11.0490557900278"><ele>67.0</ele><time>2026-04-07T13:02:54Z</time></trkpt><trkpt lat="43.53176889454566" lon="11.04932044121464"><ele>67.0</ele><time>2026-04-07T13:02:55Z</time></trkpt><trkpt lat="43.53179085735568" lon="11.049589096982839"><ele>67.33333333333333</ele><time>2026-04-07T13:02:56Z</time></trkpt><trkpt lat="43.53182044735019" lon="11.04985944796501"><ele>67.66666666666667</ele><time>2026-04-07T13:02:57Z</time></trkpt><trkpt lat="43.53185685060137" lon="11.050133838396329"><ele>68.0</ele><time>2026-04-07T13:02:58Z</time></trkpt><trkpt lat="43.531898442944524" lon="11.050401390907897"><ele>68.0</ele><time>2026-04-07T13:02:59Z</time></trkpt><trkpt lat="43.531944902068204" lon="11.050644430669571"><ele>68.0</ele><time>2026-04-07T13:03:00Z</time></trkpt><trkpt lat="43.53199590659187" lon="11.050878557209108"><ele>68.0</ele><time>2026-04-07T13:03:01Z</time></trkpt><trkpt lat="43.53204944152401" lon="11.051109413103216"><ele>68.0</ele><time>2026-04-07T13:03:02Z</time></trkpt><trkpt lat="43.53210543229739" lon="11.051339398566649"><ele>68.0</ele><time>2026-04-07T13:03:02.999Z</time></trkpt><trkpt lat="43.53216356480541" lon="11.051568529446948"><ele>68.0</ele><time>2026-04-07T13:03:03.999Z</time></trkpt><trkpt lat="43.532224456791276" lon="11.051800125537389"><ele>68.0</ele><time>2026-04-07T13:03:04.999Z</time></trkpt><trkpt lat="43.53228801014946" lon="11.052037114024422"><ele>68.0</ele><time>2026-04-07T13:03:05.999Z</time></trkpt><trkpt lat="43.53235255790115" lon="11.052278744034446"><ele>68.0</ele><time>2026-04-07T13:03:06.999Z</time></trkpt><trkpt lat="43.532414373575506" lon="11.052515597937504"><ele>67.66666666666667</ele><time>2026-04-07T13:03:07.999Z</time></trkpt><trkpt lat="43.53247258672547" lon="11.052735727880767"><ele>67.33333333333333</ele><time>2026-04-07T13:03:08.999Z</time></trkpt><trkpt lat="43.532526779853924" lon="11.052949934169456"><ele>67.0</ele><time>2026-04-07T13:03:09.999Z</time></trkpt><trkpt lat="43.532576337345404" lon="11.053171077718156"><ele>67.0</ele><time>2026-04-07T13:03:10.999Z</time></trkpt><trkpt lat="43.53261882548571" lon="11.053405163037567"><ele>67.0</ele><time>2026-04-07T13:03:11.999Z</time></trkpt><trkpt lat="43.532658352565726" lon="11.053642822562978"><ele>67.0</ele><time>2026-04-07T13:03:12.999Z</time></trkpt><trkpt lat="43.53268781153025" lon="11.053885722783445"><ele>67.0</ele><time>2026-04-07T13:03:13.999Z</time></trkpt><trkpt lat="43.532708591691794" lon="11.054119100041754"><ele>67.0</ele><time>2026-04-07T13:03:14.999Z</time></trkpt><trkpt lat="43.532722462977375" lon="11.05435087863693"><ele>67.0</ele><time>2026-04-07T13:03:15.999Z</time></trkpt><trkpt lat="43.53272755735337" lon="11.05459056089093"><ele>67.0</ele><time>2026-04-07T13:03:16.999Z</time></trkpt><trkpt lat="43.53272644311475" lon="11.054839074258197"><ele>67.0</ele><time>2026-04-07T13:03:17.999Z</time></trkpt><trkpt lat="43.53271856076919" lon="11.055092226739239"><ele>67.0</ele><time>2026-04-07T13:03:18.999Z</time></trkpt><trkpt lat="43.53270078368151" lon="11.055352124389048"><ele>67.0</ele><time>2026-04-07T13:03:19.999Z</time></trkpt><trkpt lat="43.532672838863604" lon="11.055614805441577"><ele>67.0</ele><time>2026-04-07T13:03:20.999Z</time></trkpt><trkpt lat="43.5326357862966" lon="11.055860171608206"><ele>67.0</ele><time>2026-04-07T13:03:21.999Z</time></trkpt><trkpt lat="43.53259593328973" lon="11.056093671127408"><ele>67.0</ele><time>2026-04-07T13:03:22.999Z</time></trkpt><trkpt lat="43.532548611255976" lon="11.056328311725078"><ele>67.0</ele><time>2026-04-07T13:03:23.999Z</time></trkpt><trkpt lat="43.53249076101494" lon="11.056565127278954"><ele>67.0</ele><time>2026-04-07T13:03:24.999Z</time></trkpt><trkpt lat="43.5324245999113" lon="11.056800551135362"><ele>67.66666666666666</ele><time>2026-04-07T13:03:25.999Z</time></trkpt><trkpt lat="43.53234904487241" lon="11.057033702844224"><ele>68.33333333333333</ele><time>2026-04-07T13:03:26.999Z</time></trkpt><trkpt lat="43.53226154994137" lon="11.057274696311753"><ele>69.0</ele><time>2026-04-07T13:03:27.999Z</time></trkpt><trkpt lat="43.53216540821258" lon="11.057510177360003"><ele>69.33333333333333</ele><time>2026-04-07T13:03:28.999Z</time></trkpt><trkpt lat="43.5320673167317" lon="11.057726448881594"><ele>69.66666666666666</ele><time>2026-04-07T13:03:29.999Z</time></trkpt><trkpt lat="43.531964573055006" lon="11.057932051165839"><ele>70.0</ele><time>2026-04-07T13:03:30.999Z</time></trkpt><trkpt lat="43.5318530786057" lon="11.05813361427083"><ele>69.0</ele><time>2026-04-07T13:03:31.999Z</time></trkpt><trkpt lat="43.53173519725144" lon="11.05833559076678"><ele>68.0</ele><time>2026-04-07T13:03:32.999Z</time></trkpt><trkpt lat="43.53161020304796" lon="11.058533816304914"><ele>67.0</ele><time>2026-04-07T13:03:33.999Z</time></trkpt><trkpt lat="43.531476431886446" lon="11.058731383033457"><ele>67.0</ele><time>2026-04-07T13:03:34.999Z</time></trkpt><trkpt lat="43.53134274080624" lon="11.05892668636125"><ele>67.0</ele><time>2026-04-07T13:03:35.999Z</time></trkpt><trkpt lat="43.53121646534514" lon="11.059109622839236"><ele>67.0</ele><time>2026-04-07T13:03:36.999Z</time></trkpt><trkpt lat="43.53109183294853" lon="11.059288542277942"><ele>67.66666666666666</ele><time>2026-04-07T13:03:37.999Z</time></trkpt><trkpt lat="43.53096651669254" lon="11.059468442940835"><ele>68.33333333333333</ele><time>2026-04-07T13:03:38.999Z</time></trkpt><trkpt lat="43.53083988617343" lon="11.05964965369613"><ele>69.0</ele><time>2026-04-07T13:03:39.999Z</time></trkpt><trkpt lat="43.530708630621504" lon="11.059837270572809"><ele>69.0</ele><time>2026-04-07T13:03:40.999Z</time></trkpt><trkpt lat="43.53057552584264" lon="11.06003187609216"><ele>69.0</ele><time>2026-04-07T13:03:41.999Z</time></trkpt><trkpt lat="43.530440482929656" lon="11.06023183763273"><ele>69.0</ele><time>2026-04-07T13:03:42.999Z</time></trkpt><trkpt lat="43.530304945313006" lon="11.060440850851009"><ele>69.0</ele><time>2026-04-07T13:03:43.999Z</time></trkpt><trkpt lat="43.53017099456125" lon="11.060655743095861"><ele>69.0</ele><time>2026-04-07T13:03:44.999Z</time></trkpt><trkpt lat="43.53003848772662" lon="11.060879278042192"><ele>69.0</ele><time>2026-04-07T13:03:45.999Z</time></trkpt><trkpt lat="43.52991193573746" lon="11.06111152972586"><ele>70.0</ele><time>2026-04-07T13:03:46.999Z</time></trkpt><trkpt lat="43.529800733136994" lon="11.061334937841892"><ele>71.0</ele><time>2026-04-07T13:03:47.999Z</time></trkpt><trkpt lat="43.529692999760954" lon="11.061564896583478"><ele>72.0</ele><time>2026-04-07T13:03:48.999Z</time></trkpt><trkpt lat="43.529592950380845" lon="11.061805040382087"><ele>71.66666666666667</ele><time>2026-04-07T13:03:49.999Z</time></trkpt><trkpt lat="43.52950156882096" lon="11.062053483731143"><ele>71.33333333333334</ele><time>2026-04-07T13:03:50.999Z</time></trkpt><trkpt lat="43.52941896084236" lon="11.062315174186178"><ele>71.0</ele><time>2026-04-07T13:03:51.999Z</time></trkpt><trkpt lat="43.529341364868976" lon="11.06258586201257"><ele>71.0</ele><time>2026-04-07T13:03:53Z</time></trkpt><trkpt lat="43.52927305193562" lon="11.06286670754929"><ele>71.0</ele><time>2026-04-07T13:03:54Z</time></trkpt><trkpt lat="43.52921789124907" lon="11.063157148502352"><ele>71.0</ele><time>2026-04-07T13:03:55Z</time></trkpt><trkpt lat="43.52917245464059" lon="11.063441764620185"><ele>71.33333333333334</ele><time>2026-04-07T13:03:56Z</time></trkpt><trkpt lat="43.52913536162765" lon="11.06371161342171"><ele>71.66666666666667</ele><time>2026-04-07T13:03:57Z</time></trkpt><trkpt lat="43.52910519765521" lon="11.063978417988134"><ele>72.0</ele><time>2026-04-07T13:03:58Z</time></trkpt><trkpt lat="43.52907691056087" lon="11.064243320483257"><ele>72.0</ele><time>2026-04-07T13:03:59Z</time></trkpt><trkpt lat="43.52904833472932" lon="11.064510760212002"><ele>72.0</ele><time>2026-04-07T13:04:00Z</time></trkpt><trkpt lat="43.529019468361035" lon="11.064780786111443"><ele>72.0</ele><time>2026-04-07T13:04:01Z</time></trkpt><trkpt lat="43.52899011350097" lon="11.065055382085426"><ele>72.0</ele><time>2026-04-07T13:04:02Z</time></trkpt><trkpt lat="43.52896004948453" lon="11.06533661196612"><ele>72.0</ele><time>2026-04-07T13:04:03Z</time></trkpt><trkpt lat="43.52892930219643" lon="11.065624233328577"><ele>72.0</ele><time>2026-04-07T13:04:04Z</time></trkpt><trkpt lat="43.52889916553184" lon="11.065906142399102"><ele>71.66666666666667</ele><time>2026-04-07T13:04:05Z</time></trkpt><trkpt lat="43.528870763496165" lon="11.066171825236035"><ele>71.33333333333334</ele><time>2026-04-07T13:04:06Z</time></trkpt><trkpt lat="43.528842461644196" lon="11.066436570712229"><ele>71.0</ele><time>2026-04-07T13:04:07Z</time></trkpt><trkpt lat="43.52881323667234" lon="11.066709951544793"><ele>71.0</ele><time>2026-04-07T13:04:08Z</time></trkpt><trkpt lat="43.52878367963141" lon="11.06698643885126"><ele>71.0</ele><time>2026-04-07T13:04:09Z</time></trkpt><trkpt lat="43.52875368593832" lon="11.067267010752063"><ele>71.0</ele><time>2026-04-07T13:04:10Z</time></trkpt><trkpt lat="43.52872324739788" lon="11.067551743576756"><ele>71.0</ele><time>2026-04-07T13:04:11Z</time></trkpt><trkpt lat="43.528692982493176" lon="11.067834852698748"><ele>71.0</ele><time>2026-04-07T13:04:12Z</time></trkpt><trkpt lat="43.528664254152005" lon="11.068102309633332"><ele>71.0</ele><time>2026-04-07T13:04:13Z</time></trkpt><trkpt lat="43.5286356705345" lon="11.06836606581236"><ele>71.33333333333334</ele><time>2026-04-07T13:04:14Z</time></trkpt><trkpt lat="43.52860665088389" lon="11.068633844912123"><ele>71.66666666666667</ele><time>2026-04-07T13:04:15Z</time></trkpt><trkpt lat="43.52857667520375" lon="11.068908687699725"><ele>72.0</ele><time>2026-04-07T13:04:16Z</time></trkpt><trkpt lat="43.528545459637655" lon="11.069186491521704"><ele>72.0</ele><time>2026-04-07T13:04:17Z</time></trkpt><trkpt lat="43.528511475461684" lon="11.06946672472019"><ele>72.0</ele><time>2026-04-07T13:04:18Z</time></trkpt><trkpt lat="43.5284762001736" lon="11.069735540755378"><ele>72.0</ele><time>2026-04-07T13:04:19Z</time></trkpt><trkpt lat="43.528436910978236" lon="11.06998911257332"><ele>72.0</ele><time>2026-04-07T13:04:20Z</time></trkpt><trkpt lat="43.52839332781035" lon="11.07022645212359"><ele>72.0</ele><time>2026-04-07T13:04:21Z</time></trkpt><trkpt lat="43.52834731402224" lon="11.070466210677116"><ele>72.0</ele><time>2026-04-07T13:04:22Z</time></trkpt><trkpt lat="43.52829663449161" lon="11.070710182163142"><ele>72.0</ele><time>2026-04-07T13:04:23Z</time></trkpt><trkpt lat="43.52823709232673" lon="11.070958226933186"><ele>72.0</ele><time>2026-04-07T13:04:24Z</time></trkpt><trkpt lat="43.52817279000013" lon="11.071209393830978"><ele>72.0</ele><time>2026-04-07T13:04:25Z</time></trkpt><trkpt lat="43.52810272979835" lon="11.071464344912025"><ele>72.0</ele><time>2026-04-07T13:04:26Z</time></trkpt><trkpt lat="43.52802641832457" lon="11.071718738111747"><ele>72.0</ele><time>2026-04-07T13:04:27Z</time></trkpt><trkpt lat="43.527941212575115" lon="11.071975155257418"><ele>72.0</ele><time>2026-04-07T13:04:28Z</time></trkpt><trkpt lat="43.527850766670106" lon="11.072228115387135"><ele>72.0</ele><time>2026-04-07T13:04:29Z</time></trkpt><trkpt lat="43.52775691674972" lon="11.07247487072813"><ele>72.0</ele><time>2026-04-07T13:04:30Z</time></trkpt><trkpt lat="43.52766241989823" lon="11.072705198683634"><ele>72.0</ele><time>2026-04-07T13:04:31Z</time></trkpt><trkpt lat="43.52756028445148" lon="11.072937641682124"><ele>72.0</ele><time>2026-04-07T13:04:32Z</time></trkpt><trkpt lat="43.52745333019012" lon="11.073172520239973"><ele>72.0</ele><time>2026-04-07T13:04:33Z</time></trkpt><trkpt lat="43.52733982788573" lon="11.073404502717986"><ele>72.0</ele><time>2026-04-07T13:04:34Z</time></trkpt><trkpt lat="43.52723070272171" lon="11.073627542781805"><ele>71.66666666666667</ele><time>2026-04-07T13:04:35Z</time></trkpt><trkpt lat="43.527136032141264" lon="11.073855471322432"><ele>71.33333333333334</ele><time>2026-04-07T13:04:36Z</time></trkpt><trkpt lat="43.527016505302925" lon="11.07405481853482"><ele>71.0</ele><time>2026-04-07T13:04:37Z</time></trkpt><trkpt lat="43.52689489958109" lon="11.074248039531472"><ele>71.0</ele><time>2026-04-07T13:04:38Z</time></trkpt><trkpt lat="43.5267653395623" lon="11.074438170894885"><ele>71.0</ele><time>2026-04-07T13:04:39Z</time></trkpt><trkpt lat="43.526634411276554" lon="11.074624332110826"><ele>71.0</ele><time>2026-04-07T13:04:40Z</time></trkpt><trkpt lat="43.526498713030406" lon="11.074807941660794"><ele>71.33333333333334</ele><time>2026-04-07T13:04:41Z</time></trkpt><trkpt lat="43.526358892346046" lon="11.074991902668792"><ele>71.66666666666667</ele><time>2026-04-07T13:04:42Z</time></trkpt><trkpt lat="43.52621229941229" lon="11.075170397044463"><ele>72.0</ele><time>2026-04-07T13:04:43Z</time></trkpt><trkpt lat="43.526066412096505" lon="11.075345989053153"><ele>72.0</ele><time>2026-04-07T13:04:44Z</time></trkpt><trkpt lat="43.52591177376106" lon="11.075517494463984"><ele>72.0</ele><time>2026-04-07T13:04:45Z</time></trkpt><trkpt lat="43.52575311791742" lon="11.07568362356293"><ele>72.0</ele><time>2026-04-07T13:04:46Z</time></trkpt><trkpt lat="43.525589865154124" lon="11.075844010013387"><ele>72.0</ele><time>2026-04-07T13:04:47Z</time></trkpt><trkpt lat="43.5254200764169" lon="11.075998617272038"><ele>72.0</ele><time>2026-04-07T13:04:48Z</time></trkpt><trkpt lat="43.525248168369984" lon="11.076151381714707"><ele>72.0</ele><time>2026-04-07T13:04:49Z</time></trkpt><trkpt lat="43.5250744862189" lon="11.0763048811269"><ele>72.0</ele><time>2026-04-07T13:04:50Z</time></trkpt><trkpt lat="43.52489786993524" lon="11.07645719462903"><ele>72.0</ele><time>2026-04-07T13:04:51Z</time></trkpt><trkpt lat="43.52471825175185" lon="11.076613813369178"><ele>72.0</ele><time>2026-04-07T13:04:52Z</time></trkpt><trkpt lat="43.52454035377278" lon="11.076771385507389"><ele>72.33333333333333</ele><time>2026-04-07T13:04:53Z</time></trkpt><trkpt lat="43.52436300675488" lon="11.076928910061575"><ele>72.66666666666666</ele><time>2026-04-07T13:04:54Z</time></trkpt><trkpt lat="43.52418461947649" lon="11.077086941011801"><ele>73.0</ele><time>2026-04-07T13:04:55Z</time></trkpt><trkpt lat="43.524006023154996" lon="11.077243648186316"><ele>73.0</ele><time>2026-04-07T13:04:56Z</time></trkpt><trkpt lat="43.52382574154901" lon="11.077405085079196"><ele>73.0</ele><time>2026-04-07T13:04:57Z</time></trkpt><trkpt lat="43.52363775618339" lon="11.07757076903078"><ele>73.0</ele><time>2026-04-07T13:04:58Z</time></trkpt><trkpt lat="43.523443014975754" lon="11.077739173660824"><ele>72.33333333333333</ele><time>2026-04-07T13:04:59Z</time></trkpt><trkpt lat="43.523264529884" lon="11.07789864658589"><ele>71.66666666666667</ele><time>2026-04-07T13:05:00Z</time></trkpt><trkpt lat="43.523093775367485" lon="11.078045961323973"><ele>71.0</ele><time>2026-04-07T13:05:01Z</time></trkpt><trkpt lat="43.52292447074967" lon="11.078191638581776"><ele>71.0</ele><time>2026-04-07T13:05:02Z</time></trkpt><trkpt lat="43.52275231299552" lon="11.078341427602304"><ele>71.0</ele><time>2026-04-07T13:05:03Z</time></trkpt><trkpt lat="43.52257375809452" lon="11.078498348619696"><ele>71.0</ele><time>2026-04-07T13:05:04Z</time></trkpt><trkpt lat="43.52239364797564" lon="11.078659872373926"><ele>71.0</ele><time>2026-04-07T13:05:05Z</time></trkpt><trkpt lat="43.522211023669236" lon="11.078824606304824"><ele>71.0</ele><time>2026-04-07T13:05:06Z</time></trkpt><trkpt lat="43.52202292861639" lon="11.07898744132215"><ele>71.0</ele><time>2026-04-07T13:05:07Z</time></trkpt><trkpt lat="43.52183890830449" lon="11.079150522581704"><ele>71.33333333333334</ele><time>2026-04-07T13:05:08Z</time></trkpt><trkpt lat="43.52166184522312" lon="11.07930391938584"><ele>71.66666666666667</ele><time>2026-04-07T13:05:09Z</time></trkpt><trkpt lat="43.521483564759095" lon="11.079456671417383"><ele>72.0</ele><time>2026-04-07T13:05:10Z</time></trkpt><trkpt lat="43.52130506368722" lon="11.079614984169893"><ele>72.0</ele><time>2026-04-07T13:05:10.999Z</time></trkpt><trkpt lat="43.52112583180683" lon="11.079773222720915"><ele>72.0</ele><time>2026-04-07T13:05:11.999Z</time></trkpt><trkpt lat="43.520945474192494" lon="11.079934098405525"><ele>72.0</ele><time>2026-04-07T13:05:12.999Z</time></trkpt><trkpt lat="43.520763355353814" lon="11.080094963769616"><ele>72.33333333333333</ele><time>2026-04-07T13:05:13.999Z</time></trkpt><trkpt lat="43.520578721873" lon="11.080258682318851"><ele>72.66666666666666</ele><time>2026-04-07T13:05:14.999Z</time></trkpt><trkpt lat="43.520404618263974" lon="11.080415060353598"><ele>73.0</ele><time>2026-04-07T13:05:15.999Z</time></trkpt><trkpt lat="43.52023684795008" lon="11.080565399067691"><ele>73.33333333333333</ele><time>2026-04-07T13:05:16.999Z</time></trkpt><trkpt lat="43.52006592950594" lon="11.080716137629837"><ele>73.66666666666667</ele><time>2026-04-07T13:05:17.999Z</time></trkpt><trkpt lat="43.51989093811378" lon="11.080864183409668"><ele>74.0</ele><time>2026-04-07T13:05:18.999Z</time></trkpt><trkpt lat="43.519712026874295" lon="11.081009384564874"><ele>74.33333333333334</ele><time>2026-04-07T13:05:19.999Z</time></trkpt><trkpt lat="43.5195267574116" lon="11.081143922546048"><ele>74.66666666666667</ele><time>2026-04-07T13:05:20.999Z</time></trkpt><trkpt lat="43.51933454002679" lon="11.081262937599348"><ele>75.0</ele><time>2026-04-07T13:05:21.999Z</time></trkpt><trkpt lat="43.51913853347888" lon="11.081363553393262"><ele>75.0</ele><time>2026-04-07T13:05:22.999Z</time></trkpt><trkpt lat="43.51893638148721" lon="11.081448732316472"><ele>75.0</ele><time>2026-04-07T13:05:23.999Z</time></trkpt><trkpt lat="43.51873212624769" lon="11.08151961701079"><ele>75.0</ele><time>2026-04-07T13:05:24.999Z</time></trkpt><trkpt lat="43.51853200891546" lon="11.081577344428457"><ele>74.0</ele><time>2026-04-07T13:05:25.999Z</time></trkpt><trkpt lat="43.518339335861995" lon="11.081620792007957"><ele>73.0</ele><time>2026-04-07T13:05:26.999Z</time></trkpt><trkpt lat="43.51815284564773" lon="11.081648100034696"><ele>72.0</ele><time>2026-04-07T13:05:27.999Z</time></trkpt><trkpt lat="43.51795770333042" lon="11.081656974438134"><ele>72.0</ele><time>2026-04-07T13:05:28.999Z</time></trkpt><trkpt lat="43.5177752797774" lon="11.081654387676567"><ele>72.0</ele><time>2026-04-07T13:05:29.999Z</time></trkpt><trkpt lat="43.51760149621408" lon="11.081640028202493"><ele>72.0</ele><time>2026-04-07T13:05:30.999Z</time></trkpt><trkpt lat="43.51742602604211" lon="11.081622524891598"><ele>72.0</ele><time>2026-04-07T13:05:31.999Z</time></trkpt><trkpt lat="43.51724585683594" lon="11.08160933661743"><ele>72.0</ele><time>2026-04-07T13:05:32.999Z</time></trkpt><trkpt lat="43.517060888141486" lon="11.081608915664233"><ele>72.0</ele><time>2026-04-07T13:05:33.999Z</time></trkpt><trkpt lat="43.516890316175726" lon="11.0816215299034"><ele>72.66666666666667</ele><time>2026-04-07T13:05:34.999Z</time></trkpt><trkpt lat="43.5167156304242" lon="11.081618881024482"><ele>73.33333333333334</ele><time>2026-04-07T13:05:35.999Z</time></trkpt><trkpt lat="43.51653611188962" lon="11.08165286902935"><ele>74.0</ele><time>2026-04-07T13:05:36.999Z</time></trkpt><trkpt lat="43.51635750781318" lon="11.081713247710372"><ele>73.33333333333334</ele><time>2026-04-07T13:05:37.999Z</time></trkpt><trkpt lat="43.51618174884515" lon="11.081794533233932"><ele>72.66666666666667</ele><time>2026-04-07T13:05:38.999Z</time></trkpt><trkpt lat="43.51602508440981" lon="11.081887774842063"><ele>72.0</ele><time>2026-04-07T13:05:39.999Z</time></trkpt><trkpt lat="43.515886560574934" lon="11.081989334889084"><ele>72.0</ele><time>2026-04-07T13:05:40.999Z</time></trkpt><trkpt lat="43.51576491844694" lon="11.082088302652574"><ele>72.0</ele><time>2026-04-07T13:05:41.999Z</time></trkpt><trkpt lat="43.5156625354502" lon="11.082184051964674"><ele>72.0</ele><time>2026-04-07T13:05:42.999Z</time></trkpt><trkpt lat="43.515564898464696" lon="11.082242231646962"><ele>72.0</ele><time>2026-04-07T13:05:43.999Z</time></trkpt><trkpt lat="43.515478651679416" lon="11.082284430553779"><ele>72.0</ele><time>2026-04-07T13:05:44.999Z</time></trkpt><trkpt lat="43.51541179822391" lon="11.082305522700667"><ele>72.0</ele><time>2026-04-07T13:05:46.999Z</time></trkpt><trkpt lat="43.51533208462409" lon="11.08231966127245"><ele>72.0</ele><time>2026-04-07T13:05:55.999Z</time></trkpt><trkpt lat="43.51526737608762" lon="11.082339642286698"><ele>72.0</ele><time>2026-04-07T13:05:56.999Z</time></trkpt><trkpt lat="43.51518214271672" lon="11.082356389857113"><ele>72.0</ele><time>2026-04-07T13:05:57.999Z</time></trkpt><trkpt lat="43.51510067629332" lon="11.082409866301369"><ele>72.0</ele><time>2026-04-07T13:05:59Z</time></trkpt><trkpt lat="43.51502313063017" lon="11.082494466527312"><ele>72.25</ele><time>2026-04-07T13:06:00Z</time></trkpt><trkpt lat="43.51491574468033" lon="11.082542583169992"><ele>72.5</ele><time>2026-04-07T13:06:01Z</time></trkpt><trkpt lat="43.51480001459621" lon="11.08257800771504"><ele>72.75</ele><time>2026-04-07T13:06:02Z</time></trkpt><trkpt lat="43.51467901168263" lon="11.082607049247876"><ele>73.0</ele><time>2026-04-07T13:06:03Z</time></trkpt><trkpt lat="43.51454794369536" lon="11.082633406060989"><ele>73.5</ele><time>2026-04-07T13:06:04Z</time></trkpt><trkpt lat="43.51442190773179" lon="11.08265791401883"><ele>74.0</ele><time>2026-04-07T13:06:05Z</time></trkpt><trkpt lat="43.514296108279645" lon="11.08267704693592"><ele>74.5</ele><time>2026-04-07T13:06:06Z</time></trkpt><trkpt lat="43.514155048021166" lon="11.082700001928117"><ele>75.0</ele><time>2026-04-07T13:06:07Z</time></trkpt><trkpt lat="43.5140073926814" lon="11.082725399178436"><ele>75.0</ele><time>2026-04-07T13:06:08Z</time></trkpt><trkpt lat="43.51385588231732" lon="11.082741444024636"><ele>75.0</ele><time>2026-04-07T13:06:09Z</time></trkpt><trkpt lat="43.513694787765736" lon="11.082764707585637"><ele>75.0</ele><time>2026-04-07T13:06:10Z</time></trkpt><trkpt lat="43.5135329707455" lon="11.082784365954415"><ele>74.66666666666667</ele><time>2026-04-07T13:06:11Z</time></trkpt><trkpt lat="43.51338262527112" lon="11.08280462043398"><ele>74.33333333333334</ele><time>2026-04-07T13:06:12Z</time></trkpt><trkpt lat="43.513228795031814" lon="11.082824940204805"><ele>74.0</ele><time>2026-04-07T13:06:13Z</time></trkpt><trkpt lat="43.51306976972742" lon="11.082843935924942"><ele>74.0</ele><time>2026-04-07T13:06:14Z</time></trkpt><trkpt lat="43.51291524462285" lon="11.082865432187939"><ele>74.0</ele><time>2026-04-07T13:06:15Z</time></trkpt><trkpt lat="43.51276895776412" lon="11.082886304025168"><ele>74.0</ele><time>2026-04-07T13:06:16Z</time></trkpt><trkpt lat="43.51262116062243" lon="11.082906102929797"><ele>74.33333333333334</ele><time>2026-04-07T13:06:17Z</time></trkpt><trkpt lat="43.5124660826491" lon="11.082929884277306"><ele>74.66666666666667</ele><time>2026-04-07T13:06:18Z</time></trkpt><trkpt lat="43.51230380486948" lon="11.082951094821132"><ele>75.0</ele><time>2026-04-07T13:06:19Z</time></trkpt><trkpt lat="43.51214072938203" lon="11.082973462713642"><ele>74.66666666666667</ele><time>2026-04-07T13:06:20Z</time></trkpt><trkpt lat="43.51197198717656" lon="11.083000102511782"><ele>74.33333333333334</ele><time>2026-04-07T13:06:21Z</time></trkpt><trkpt lat="43.51180354350325" lon="11.083034463888085"><ele>74.0</ele><time>2026-04-07T13:06:22Z</time></trkpt><trkpt lat="43.51163702394787" lon="11.08307754772105"><ele>74.0</ele><time>2026-04-07T13:06:23Z</time></trkpt><trkpt lat="43.51147953266571" lon="11.083126185428547"><ele>74.0</ele><time>2026-04-07T13:06:24Z</time></trkpt><trkpt lat="43.51130937700184" lon="11.08318566853682"><ele>74.0</ele><time>2026-04-07T13:06:25Z</time></trkpt><trkpt lat="43.511124793787474" lon="11.083230053892034"><ele>73.66666666666667</ele><time>2026-04-07T13:06:26Z</time></trkpt><trkpt lat="43.510932425452395" lon="11.083309288358675"><ele>73.33333333333333</ele><time>2026-04-07T13:06:27Z</time></trkpt><trkpt lat="43.51074759722819" lon="11.083416060700053"><ele>73.0</ele><time>2026-04-07T13:06:28Z</time></trkpt><trkpt lat="43.51057034646514" lon="11.083496810260973"><ele>74.0</ele><time>2026-04-07T13:06:29Z</time></trkpt><trkpt lat="43.510399916970954" lon="11.083579809447057"><ele>75.0</ele><time>2026-04-07T13:06:30Z</time></trkpt><trkpt lat="43.51023086892087" lon="11.083667336727151"><ele>76.0</ele><time>2026-04-07T13:06:31Z</time></trkpt><trkpt lat="43.510057448611065" lon="11.083754428898501"><ele>76.0</ele><time>2026-04-07T13:06:32Z</time></trkpt><trkpt lat="43.50989318197996" lon="11.0838311269424"><ele>76.0</ele><time>2026-04-07T13:06:33Z</time></trkpt><trkpt lat="43.5097352802441" lon="11.083905973232941"><ele>76.0</ele><time>2026-04-07T13:06:34Z</time></trkpt><trkpt lat="43.509571387857406" lon="11.083983122043849"><ele>75.33333333333333</ele><time>2026-04-07T13:06:35Z</time></trkpt><trkpt lat="43.50940369297676" lon="11.08406821612791"><ele>74.66666666666667</ele><time>2026-04-07T13:06:36Z</time></trkpt><trkpt lat="43.50923680166956" lon="11.084153422930507"><ele>74.0</ele><time>2026-04-07T13:06:37Z</time></trkpt><trkpt lat="43.50908129646412" lon="11.084232528431352"><ele>74.0</ele><time>2026-04-07T13:06:38Z</time></trkpt><trkpt lat="43.508929208285544" lon="11.084310272364881"><ele>74.0</ele><time>2026-04-07T13:06:39Z</time></trkpt><trkpt lat="43.508777216486" lon="11.084387119949112"><ele>74.0</ele><time>2026-04-07T13:06:40Z</time></trkpt><trkpt lat="43.508620825917845" lon="11.084465274054814"><ele>74.33333333333334</ele><time>2026-04-07T13:06:41Z</time></trkpt><trkpt lat="43.50846111341188" lon="11.08454483943418"><ele>74.66666666666667</ele><time>2026-04-07T13:06:42Z</time></trkpt><trkpt lat="43.50829956139155" lon="11.084628043059343"><ele>75.0</ele><time>2026-04-07T13:06:43Z</time></trkpt><trkpt lat="43.50813190491161" lon="11.084712426939612"><ele>75.0</ele><time>2026-04-07T13:06:44Z</time></trkpt><trkpt lat="43.50796204419145" lon="11.084795947590521"><ele>75.0</ele><time>2026-04-07T13:06:45Z</time></trkpt><trkpt lat="43.5077872666386" lon="11.084888181378336"><ele>75.0</ele><time>2026-04-07T13:06:46Z</time></trkpt><trkpt lat="43.50761043906702" lon="11.084975469059533"><ele>75.0</ele><time>2026-04-07T13:06:47Z</time></trkpt><trkpt lat="43.50742850237122" lon="11.085065870352794"><ele>75.0</ele><time>2026-04-07T13:06:48Z</time></trkpt><trkpt lat="43.507244640043254" lon="11.08515939625265"><ele>75.0</ele><time>2026-04-07T13:06:49Z</time></trkpt><trkpt lat="43.507059499928154" lon="11.085245764858314"><ele>75.33333333333333</ele><time>2026-04-07T13:06:50Z</time></trkpt><trkpt lat="43.506884335826925" lon="11.085331735968579"><ele>75.66666666666666</ele><time>2026-04-07T13:06:51Z</time></trkpt><trkpt lat="43.506723870277206" lon="11.085412219880837"><ele>76.0</ele><time>2026-04-07T13:06:52Z</time></trkpt><trkpt lat="43.50656160614127" lon="11.085494483107164"><ele>76.0</ele><time>2026-04-07T13:06:53Z</time></trkpt><trkpt lat="43.50640374137155" lon="11.085582153533714"><ele>76.0</ele><time>2026-04-07T13:06:54Z</time></trkpt><trkpt lat="43.506241736541035" lon="11.085656981844961"><ele>76.0</ele><time>2026-04-07T13:06:55Z</time></trkpt><trkpt lat="43.506086949119094" lon="11.085755042084095"><ele>76.0</ele><time>2026-04-07T13:06:56Z</time></trkpt><trkpt lat="43.505938620130095" lon="11.085855397678495"><ele>76.0</ele><time>2026-04-07T13:06:57Z</time></trkpt><trkpt lat="43.505805132775855" lon="11.085955988165088"><ele>76.0</ele><time>2026-04-07T13:06:58Z</time></trkpt><trkpt lat="43.50568342418082" lon="11.086056665940049"><ele>76.0</ele><time>2026-04-07T13:06:59Z</time></trkpt><trkpt lat="43.50556952187537" lon="11.086159610356065"><ele>76.0</ele><time>2026-04-07T13:07:00Z</time></trkpt><trkpt lat="43.50546780546851" lon="11.0862557168441"><ele>76.0</ele><time>2026-04-07T13:07:01Z</time></trkpt><trkpt lat="43.505375692233805" lon="11.086343740462679"><ele>76.0</ele><time>2026-04-07T13:07:02Z</time></trkpt><trkpt lat="43.50528926896591" lon="11.086430758413226"><ele>76.39999999999999</ele><time>2026-04-07T13:07:03Z</time></trkpt><trkpt lat="43.50520365069857" lon="11.086524261966241"><ele>76.8</ele><time>2026-04-07T13:07:04Z</time></trkpt><trkpt lat="43.50512779023363" lon="11.086613342197836"><ele>77.19999999999999</ele><time>2026-04-07T13:07:05Z</time></trkpt><trkpt lat="43.50506493511147" lon="11.08668944099293"><ele>77.6</ele><time>2026-04-07T13:07:06Z</time></trkpt><trkpt lat="43.505008051539846" lon="11.086769613565636"><ele>78.0</ele><time>2026-04-07T13:07:07Z</time></trkpt><trkpt lat="43.504934942426985" lon="11.086831041429596"><ele>78.0</ele><time>2026-04-07T13:07:08Z</time></trkpt><trkpt lat="43.504871430433965" lon="11.086886568845339"><ele>78.0</ele><time>2026-04-07T13:07:09Z</time></trkpt><trkpt lat="43.50480836417392" lon="11.086944832316119"><ele>78.0</ele><time>2026-04-07T13:07:10Z</time></trkpt><trkpt lat="43.504732360969385" lon="11.086989162309573"><ele>78.0</ele><time>2026-04-07T13:07:11Z</time></trkpt><trkpt lat="43.50466068331059" lon="11.086993980249062"><ele>78.0</ele><time>2026-04-07T13:07:12Z</time></trkpt><trkpt lat="43.50459219794519" lon="11.086967198385375"><ele>78.0</ele><time>2026-04-07T13:07:13Z</time></trkpt><trkpt lat="43.50452224294811" lon="11.086916834075137"><ele>78.0</ele><time>2026-04-07T13:07:14Z</time></trkpt><trkpt lat="43.50445809744224" lon="11.086831864862118"><ele>78.0</ele><time>2026-04-07T13:07:15Z</time></trkpt><trkpt lat="43.504385276206335" lon="11.086716595404349"><ele>78.0</ele><time>2026-04-07T13:07:16Z</time></trkpt><trkpt lat="43.50429715055133" lon="11.08663793857352"><ele>78.0</ele><time>2026-04-07T13:07:17Z</time></trkpt><trkpt lat="43.504241716229224" lon="11.086478195877412"><ele>78.0</ele><time>2026-04-07T13:07:18Z</time></trkpt><trkpt lat="43.50416895408058" lon="11.086345100147188"><ele>78.33333333333333</ele><time>2026-04-07T13:07:18.999Z</time></trkpt><trkpt lat="43.50411470372991" lon="11.086220443949314"><ele>78.66666666666667</ele><time>2026-04-07T13:07:19.999Z</time></trkpt><trkpt lat="43.504056197404005" lon="11.086142135307448"><ele>79.0</ele><time>2026-04-07T13:07:20.999Z</time></trkpt><trkpt lat="43.504013687337675" lon="11.086056951235534"><ele>79.33333333333334</ele><time>2026-04-07T13:07:21.999Z</time></trkpt><trkpt lat="43.50397671351994" lon="11.085982248208461"><ele>79.66666666666667</ele><time>2026-04-07T13:07:22.999Z</time></trkpt><trkpt lat="43.503921306673355" lon="11.08587030243281"><ele>80.0</ele><time>2026-04-07T13:07:24.999Z</time></trkpt><trkpt lat="43.503803998668175" lon="11.085810396911505"><ele>80.75</ele><time>2026-04-07T13:07:26.999Z</time></trkpt><trkpt lat="43.50373246936975" lon="11.085880992926477"><ele>81.5</ele><time>2026-04-07T13:07:27.999Z</time></trkpt><trkpt lat="43.50363513882792" lon="11.085977216918842"><ele>82.25</ele><time>2026-04-07T13:07:28.999Z</time></trkpt><trkpt lat="43.503513437647754" lon="11.086099620123948"><ele>83.0</ele><time>2026-04-07T13:07:29.999Z</time></trkpt><trkpt lat="43.50338439568117" lon="11.086232532694337"><ele>83.0</ele><time>2026-04-07T13:07:30.999Z</time></trkpt><trkpt lat="43.5032463947748" lon="11.086378759380002"><ele>83.0</ele><time>2026-04-07T13:07:31.999Z</time></trkpt><trkpt lat="43.50310540068283" lon="11.086537697109378"><ele>83.0</ele><time>2026-04-07T13:07:32.999Z</time></trkpt><trkpt lat="43.50297943749911" lon="11.086693098760067"><ele>87.66666666666667</ele><time>2026-04-07T13:07:33.999Z</time></trkpt><trkpt lat="43.502863758594344" lon="11.086836997305852"><ele>92.33333333333334</ele><time>2026-04-07T13:07:34.999Z</time></trkpt><trkpt lat="43.50274674523624" lon="11.086983576156559"><ele>97.0</ele><time>2026-04-07T13:07:35.999Z</time></trkpt><trkpt lat="43.50262727344604" lon="11.087133992314323"><ele>97.0</ele><time>2026-04-07T13:07:36.999Z</time></trkpt><trkpt lat="43.50249905497264" lon="11.087295420681572"><ele>97.0</ele><time>2026-04-07T13:07:37.999Z</time></trkpt><trkpt lat="43.50238430596069" lon="11.087439890790566"><ele>97.0</ele><time>2026-04-07T13:07:38.999Z</time></trkpt><trkpt lat="43.50227383712619" lon="11.087578143281533"><ele>94.66666666666667</ele><time>2026-04-07T13:07:39.999Z</time></trkpt><trkpt lat="43.5021630464867" lon="11.087729200772575"><ele>92.33333333333334</ele><time>2026-04-07T13:07:40.999Z</time></trkpt><trkpt lat="43.50206454662519" lon="11.087881158236735"><ele>90.0</ele><time>2026-04-07T13:07:41.999Z</time></trkpt><trkpt lat="43.50196805525544" lon="11.088050397024437"><ele>93.33333333333334</ele><time>2026-04-07T13:07:42.999Z</time></trkpt><trkpt lat="43.5018772471694" lon="11.0882362261199"><ele>96.66666666666667</ele><time>2026-04-07T13:07:43.999Z</time></trkpt><trkpt lat="43.50178797555349" lon="11.088445037986316"><ele>100.0</ele><time>2026-04-07T13:07:44.999Z</time></trkpt><trkpt lat="43.501697858133504" lon="11.088660661533261"><ele>100.0</ele><time>2026-04-07T13:07:45.999Z</time></trkpt><trkpt lat="43.50161386481435" lon="11.08886163193963"><ele>100.0</ele><time>2026-04-07T13:07:46.999Z</time></trkpt><trkpt lat="43.501534746939974" lon="11.089050936947014"><ele>100.0</ele><time>2026-04-07T13:07:47.999Z</time></trkpt><trkpt lat="43.50145732001551" lon="11.089231153722144"><ele>96.66666666666667</ele><time>2026-04-07T13:07:48.999Z</time></trkpt><trkpt lat="43.50137513674827" lon="11.08941323989093"><ele>93.33333333333334</ele><time>2026-04-07T13:07:49.999Z</time></trkpt><trkpt lat="43.50127874939898" lon="11.089592873560415"><ele>90.0</ele><time>2026-04-07T13:07:50.999Z</time></trkpt><trkpt lat="43.50116487107285" lon="11.08977192295044"><ele>93.0</ele><time>2026-04-07T13:07:51.999Z</time></trkpt><trkpt lat="43.50104603461884" lon="11.089931321549129"><ele>96.0</ele><time>2026-04-07T13:07:52.999Z</time></trkpt><trkpt lat="43.50092155864612" lon="11.090083938274324"><ele>99.0</ele><time>2026-04-07T13:07:53.999Z</time></trkpt><trkpt lat="43.50079282692272" lon="11.090241772821654"><ele>99.0</ele><time>2026-04-07T13:07:54.999Z</time></trkpt><trkpt lat="43.50065760739515" lon="11.090408363095273"><ele>99.0</ele><time>2026-04-07T13:07:55.999Z</time></trkpt><trkpt lat="43.500529344730744" lon="11.090566850644743"><ele>99.0</ele><time>2026-04-07T13:07:56.999Z</time></trkpt><trkpt lat="43.50040865205558" lon="11.090715984243694"><ele>96.0</ele><time>2026-04-07T13:07:57.999Z</time></trkpt><trkpt lat="43.50029378610535" lon="11.090855278592317"><ele>93.0</ele><time>2026-04-07T13:07:58.999Z</time></trkpt><trkpt lat="43.500184177862955" lon="11.09098717728951"><ele>90.0</ele><time>2026-04-07T13:07:59.999Z</time></trkpt><trkpt lat="43.500062803826026" lon="11.091132217912524"><ele>90.0</ele><time>2026-04-07T13:08:00.999Z</time></trkpt><trkpt lat="43.499936427426505" lon="11.09128146404651"><ele>90.0</ele><time>2026-04-07T13:08:01.999Z</time></trkpt><trkpt lat="43.499797447483395" lon="11.091441254144266"><ele>90.0</ele><time>2026-04-07T13:08:02.999Z</time></trkpt><trkpt lat="43.4996679284841" lon="11.091599721111725"><ele>92.33333333333334</ele><time>2026-04-07T13:08:03.999Z</time></trkpt><trkpt lat="43.499537931389135" lon="11.091730502603603"><ele>94.66666666666667</ele><time>2026-04-07T13:08:05Z</time></trkpt><trkpt lat="43.49940226972652" lon="11.09185251715509"><ele>97.0</ele><time>2026-04-07T13:08:06Z</time></trkpt><trkpt lat="43.49927529878627" lon="11.09197820411278"><ele>97.0</ele><time>2026-04-07T13:08:07Z</time></trkpt><trkpt lat="43.499142801670104" lon="11.09210624460883"><ele>97.0</ele><time>2026-04-07T13:08:08Z</time></trkpt><trkpt lat="43.49900291938546" lon="11.092240850468214"><ele>97.0</ele><time>2026-04-07T13:08:09Z</time></trkpt><trkpt lat="43.4988570026641" lon="11.092378233158794"><ele>97.0</ele><time>2026-04-07T13:08:10Z</time></trkpt><trkpt lat="43.49869896584884" lon="11.092501763294736"><ele>97.0</ele><time>2026-04-07T13:08:11Z</time></trkpt><trkpt lat="43.498556055908786" lon="11.09266353805661"><ele>97.0</ele><time>2026-04-07T13:08:12Z</time></trkpt><trkpt lat="43.49838878576605" lon="11.09279304475794"><ele>97.0</ele><time>2026-04-07T13:08:13Z</time></trkpt><trkpt lat="43.498240030897335" lon="11.092932736308441"><ele>97.0</ele><time>2026-04-07T13:08:14Z</time></trkpt><trkpt lat="43.49810950683595" lon="11.093082742430067"><ele>97.0</ele><time>2026-04-07T13:08:15Z</time></trkpt><trkpt lat="43.49797877597978" lon="11.093204871749542"><ele>98.0</ele><time>2026-04-07T13:08:16Z</time></trkpt><trkpt lat="43.49785715584933" lon="11.09331901348135"><ele>99.0</ele><time>2026-04-07T13:08:17Z</time></trkpt><trkpt lat="43.49773324916481" lon="11.093444541763398"><ele>100.0</ele><time>2026-04-07T13:08:18Z</time></trkpt><trkpt lat="43.4976060589608" lon="11.093588454144548"><ele>100.0</ele><time>2026-04-07T13:08:19Z</time></trkpt><trkpt lat="43.49750601956332" lon="11.09376702903656"><ele>100.0</ele><time>2026-04-07T13:08:20Z</time></trkpt><trkpt lat="43.497437783886646" lon="11.093977873509136"><ele>100.0</ele><time>2026-04-07T13:08:21Z</time></trkpt><trkpt lat="43.497344880648896" lon="11.094181079288372"><ele>96.66666666666667</ele><time>2026-04-07T13:08:22Z</time></trkpt><trkpt lat="43.497264629045425" lon="11.094404050206387"><ele>93.33333333333334</ele><time>2026-04-07T13:08:23Z</time></trkpt><trkpt lat="43.497185024157126" lon="11.094625224184107"><ele>90.0</ele><time>2026-04-07T13:08:24Z</time></trkpt><trkpt lat="43.49710014362228" lon="11.0948610559773"><ele>94.66666666666666</ele><time>2026-04-07T13:08:25Z</time></trkpt><trkpt lat="43.49701274181587" lon="11.09510380333436"><ele>99.33333333333333</ele><time>2026-04-07T13:08:26Z</time></trkpt><trkpt lat="43.496920754055154" lon="11.095360277090135"><ele>104.0</ele><time>2026-04-07T13:08:27Z</time></trkpt><trkpt lat="43.496838196976306" lon="11.09559878151983"><ele>98.66666666666666</ele><time>2026-04-07T13:08:28Z</time></trkpt><trkpt lat="43.496763996994545" lon="11.095825580601161"><ele>93.33333333333333</ele><time>2026-04-07T13:08:29Z</time></trkpt><trkpt lat="43.49669532930156" lon="11.096048720245687"><ele>88.0</ele><time>2026-04-07T13:08:30Z</time></trkpt><trkpt lat="43.49663917842375" lon="11.096255571049412"><ele>88.0</ele><time>2026-04-07T13:08:31Z</time></trkpt><trkpt lat="43.49659383404805" lon="11.096488113786112"><ele>88.0</ele><time>2026-04-07T13:08:32Z</time></trkpt><trkpt lat="43.496535694321594" lon="11.096727022091322"><ele>88.0</ele><time>2026-04-07T13:08:33Z</time></trkpt><trkpt lat="43.49647703464408" lon="11.09697207240082"><ele>87.0</ele><time>2026-04-07T13:08:34Z</time></trkpt><trkpt lat="43.496407374946415" lon="11.097181345364326"><ele>86.0</ele><time>2026-04-07T13:08:35Z</time></trkpt><trkpt lat="43.4963584778029" lon="11.097377730613228"><ele>85.0</ele><time>2026-04-07T13:08:36Z</time></trkpt><trkpt lat="43.496306792731296" lon="11.097585312983647"><ele>93.0</ele><time>2026-04-07T13:08:37Z</time></trkpt><trkpt lat="43.496247072280326" lon="11.097815666041788"><ele>101.0</ele><time>2026-04-07T13:08:38Z</time></trkpt><trkpt lat="43.49618854888281" lon="11.098027721681037"><ele>109.0</ele><time>2026-04-07T13:08:39Z</time></trkpt><trkpt lat="43.49612243757151" lon="11.098208034292707"><ele>107.0</ele><time>2026-04-07T13:08:40Z</time></trkpt><trkpt lat="43.49603373609391" lon="11.098393168002984"><ele>105.0</ele><time>2026-04-07T13:08:41Z</time></trkpt><trkpt lat="43.49592655164334" lon="11.098584771197643"><ele>103.0</ele><time>2026-04-07T13:08:42Z</time></trkpt><trkpt lat="43.49581124302654" lon="11.09877594617846"><ele>103.0</ele><time>2026-04-07T13:08:43Z</time></trkpt><trkpt lat="43.49568685535182" lon="11.098980141437663"><ele>103.0</ele><time>2026-04-07T13:08:44Z</time></trkpt><trkpt lat="43.495572578938145" lon="11.099176341841417"><ele>103.0</ele><time>2026-04-07T13:08:45Z</time></trkpt><trkpt lat="43.49547052030039" lon="11.099370371126511"><ele>103.33333333333334</ele><time>2026-04-07T13:08:46Z</time></trkpt><trkpt lat="43.495372167456516" lon="11.09958332449779"><ele>103.66666666666666</ele><time>2026-04-07T13:08:47Z</time></trkpt><trkpt lat="43.49528145799159" lon="11.09982543537663"><ele>104.0</ele><time>2026-04-07T13:08:48Z</time></trkpt><trkpt lat="43.49519160904197" lon="11.10007708148492"><ele>104.0</ele><time>2026-04-07T13:08:49Z</time></trkpt><trkpt lat="43.49510274105565" lon="11.100325980048432"><ele>104.0</ele><time>2026-04-07T13:08:50Z</time></trkpt><trkpt lat="43.49502234733836" lon="11.100554639456076"><ele>104.0</ele><time>2026-04-07T13:08:51Z</time></trkpt><trkpt lat="43.49494578629648" lon="11.100769374550156"><ele>100.33333333333333</ele><time>2026-04-07T13:08:52Z</time></trkpt><trkpt lat="43.49487075623741" lon="11.100979551554113"><ele>96.66666666666666</ele><time>2026-04-07T13:08:53Z</time></trkpt><trkpt lat="43.494792189545045" lon="11.101199634854408"><ele>93.0</ele><time>2026-04-07T13:08:54Z</time></trkpt><trkpt lat="43.49471247196579" lon="11.10142294166024"><ele>91.0</ele><time>2026-04-07T13:08:55Z</time></trkpt><trkpt lat="43.494628764616145" lon="11.101657425071355"><ele>89.0</ele><time>2026-04-07T13:08:56Z</time></trkpt><trkpt lat="43.494550483379506" lon="11.101878678810646"><ele>87.0</ele><time>2026-04-07T13:08:57Z</time></trkpt><trkpt lat="43.49449040167503" lon="11.102112155643363"><ele>89.33333333333333</ele><time>2026-04-07T13:08:58Z</time></trkpt><trkpt lat="43.49438765538063" lon="11.10232521044449"><ele>91.66666666666666</ele><time>2026-04-07T13:08:59Z</time></trkpt><trkpt lat="43.49430792093994" lon="11.102551264542749"><ele>94.0</ele><time>2026-04-07T13:09:00Z</time></trkpt><trkpt lat="43.494231771690906" lon="11.102767463683179"><ele>94.0</ele><time>2026-04-07T13:09:01Z</time></trkpt><trkpt lat="43.494150724767735" lon="11.102997568040832"><ele>94.0</ele><time>2026-04-07T13:09:02Z</time></trkpt><trkpt lat="43.494085283861054" lon="11.103226325562286"><ele>94.0</ele><time>2026-04-07T13:09:03Z</time></trkpt><trkpt lat="43.49398877299382" lon="11.103434262162029"><ele>93.0</ele><time>2026-04-07T13:09:04Z</time></trkpt><trkpt lat="43.4938918642877" lon="11.103663283829697"><ele>92.0</ele><time>2026-04-07T13:09:05Z</time></trkpt><trkpt lat="43.49378259719717" lon="11.10389024521352"><ele>91.0</ele><time>2026-04-07T13:09:06Z</time></trkpt><trkpt lat="43.49366246022725" lon="11.10413843669988"><ele>93.33333333333333</ele><time>2026-04-07T13:09:07Z</time></trkpt><trkpt lat="43.49353190705787" lon="11.104368529618512"><ele>95.66666666666666</ele><time>2026-04-07T13:09:08Z</time></trkpt><trkpt lat="43.49341271418514" lon="11.104573590917475"><ele>98.0</ele><time>2026-04-07T13:09:09Z</time></trkpt><trkpt lat="43.49330284698629" lon="11.104769784425642"><ele>94.66666666666666</ele><time>2026-04-07T13:09:10Z</time></trkpt><trkpt lat="43.493196698220146" lon="11.104955772421535"><ele>91.33333333333333</ele><time>2026-04-07T13:09:11Z</time></trkpt><trkpt lat="43.49307312359147" lon="11.105138479921388"><ele>88.0</ele><time>2026-04-07T13:09:12Z</time></trkpt><trkpt lat="43.49295121999039" lon="11.105349676375354"><ele>90.66666666666666</ele><time>2026-04-07T13:09:13Z</time></trkpt><trkpt lat="43.492839478417466" lon="11.105543220099046"><ele>93.33333333333333</ele><time>2026-04-07T13:09:14Z</time></trkpt><trkpt lat="43.492734147511385" lon="11.105723893073478"><ele>96.0</ele><time>2026-04-07T13:09:15Z</time></trkpt><trkpt lat="43.4926336769487" lon="11.10589293896329"><ele>96.0</ele><time>2026-04-07T13:09:16Z</time></trkpt><trkpt lat="43.49254044033553" lon="11.106067744545125"><ele>96.0</ele><time>2026-04-07T13:09:17Z</time></trkpt><trkpt lat="43.49241583687739" lon="11.106179209511003"><ele>96.0</ele><time>2026-04-07T13:09:18Z</time></trkpt><trkpt lat="43.49228242575035" lon="11.106282053515516"><ele>96.0</ele><time>2026-04-07T13:09:19Z</time></trkpt><trkpt lat="43.49213773005056" lon="11.106375137241246"><ele>96.0</ele><time>2026-04-07T13:09:20Z</time></trkpt><trkpt lat="43.491985191653335" lon="11.106496867460637"><ele>96.0</ele><time>2026-04-07T13:09:21Z</time></trkpt><trkpt lat="43.491823965681256" lon="11.106594316424076"><ele>96.0</ele><time>2026-04-07T13:09:22Z</time></trkpt><trkpt lat="43.49167396207432" lon="11.106668822968183"><ele>96.0</ele><time>2026-04-07T13:09:23Z</time></trkpt><trkpt lat="43.49154153773126" lon="11.106788550569856"><ele>96.0</ele><time>2026-04-07T13:09:23.999Z</time></trkpt><trkpt lat="43.491416758459266" lon="11.106948018610277"><ele>96.0</ele><time>2026-04-07T13:09:24.999Z</time></trkpt><trkpt lat="43.491301349959635" lon="11.107159740561832"><ele>96.0</ele><time>2026-04-07T13:09:25.999Z</time></trkpt><trkpt lat="43.49120929579593" lon="11.107389476979185"><ele>96.0</ele><time>2026-04-07T13:09:26.999Z</time></trkpt><trkpt lat="43.4911006505896" lon="11.107574589598165"><ele>96.0</ele><time>2026-04-07T13:09:27.999Z</time></trkpt><trkpt lat="43.49099446927791" lon="11.107770492793826"><ele>96.0</ele><time>2026-04-07T13:09:28.999Z</time></trkpt><trkpt lat="43.4908720752213" lon="11.107949617785561"><ele>96.0</ele><time>2026-04-07T13:09:29.999Z</time></trkpt><trkpt lat="43.49074011754195" lon="11.10811029499443"><ele>96.66666666666666</ele><time>2026-04-07T13:09:30.999Z</time></trkpt><trkpt lat="43.490595355005574" lon="11.10827400292002"><ele>97.33333333333333</ele><time>2026-04-07T13:09:31.999Z</time></trkpt><trkpt lat="43.490442927457316" lon="11.108445133587693"><ele>98.0</ele><time>2026-04-07T13:09:32.999Z</time></trkpt><trkpt lat="43.49028356400258" lon="11.108623407587203"><ele>98.0</ele><time>2026-04-07T13:09:33.999Z</time></trkpt><trkpt lat="43.49011501194784" lon="11.108811961814517"><ele>98.0</ele><time>2026-04-07T13:09:34.999Z</time></trkpt><trkpt lat="43.48995114504993" lon="11.108998032114037"><ele>98.0</ele><time>2026-04-07T13:09:35.999Z</time></trkpt><trkpt lat="43.489798785924116" lon="11.10917110087475"><ele>95.66666666666666</ele><time>2026-04-07T13:09:36.999Z</time></trkpt><trkpt lat="43.48965491944031" lon="11.109332953099036"><ele>93.33333333333333</ele><time>2026-04-07T13:09:37.999Z</time></trkpt><trkpt lat="43.48951425273014" lon="11.109491359145768"><ele>91.0</ele><time>2026-04-07T13:09:38.999Z</time></trkpt><trkpt lat="43.489361569986926" lon="11.109663296282458"><ele>91.0</ele><time>2026-04-07T13:09:39.999Z</time></trkpt><trkpt lat="43.489203044889855" lon="11.109841812889005"><ele>91.0</ele><time>2026-04-07T13:09:40.999Z</time></trkpt><trkpt lat="43.489040513247396" lon="11.11002564137375"><ele>91.0</ele><time>2026-04-07T13:09:41.999Z</time></trkpt><trkpt lat="43.48889442103982" lon="11.110191249908592"><ele>89.66666666666666</ele><time>2026-04-07T13:09:42.999Z</time></trkpt><trkpt lat="43.488762910134035" lon="11.11034032952212"><ele>88.33333333333333</ele><time>2026-04-07T13:09:43.999Z</time></trkpt><trkpt lat="43.488645839687585" lon="11.110475000581763"><ele>87.0</ele><time>2026-04-07T13:09:44.999Z</time></trkpt><trkpt lat="43.48853138192252" lon="11.110632784800877"><ele>91.33333333333334</ele><time>2026-04-07T13:09:45.999Z</time></trkpt><trkpt lat="43.488392991813846" lon="11.110784539933112"><ele>95.66666666666667</ele><time>2026-04-07T13:09:46.999Z</time></trkpt><trkpt lat="43.48824023897231" lon="11.110942211478752"><ele>100.0</ele><time>2026-04-07T13:09:47.999Z</time></trkpt><trkpt lat="43.48806597814924" lon="11.111068280222216"><ele>102.66666666666667</ele><time>2026-04-07T13:09:48.999Z</time></trkpt><trkpt lat="43.487910797210084" lon="11.111213874171806"><ele>105.33333333333334</ele><time>2026-04-07T13:09:49.999Z</time></trkpt><trkpt lat="43.48774990608924" lon="11.111336318865314"><ele>108.0</ele><time>2026-04-07T13:09:50.999Z</time></trkpt><trkpt lat="43.487588132594496" lon="11.1114337260714"><ele>108.0</ele><time>2026-04-07T13:09:51.999Z</time></trkpt><trkpt lat="43.487441428334286" lon="11.111556429314899"><ele>108.0</ele><time>2026-04-07T13:09:52.999Z</time></trkpt><trkpt lat="43.487289439759444" lon="11.111684703724453"><ele>108.0</ele><time>2026-04-07T13:09:53.999Z</time></trkpt><trkpt lat="43.48713516274504" lon="11.111843438669602"><ele>107.66666666666666</ele><time>2026-04-07T13:09:54.999Z</time></trkpt><trkpt lat="43.486959462364" lon="11.111969015794404"><ele>107.33333333333333</ele><time>2026-04-07T13:09:55.999Z</time></trkpt><trkpt lat="43.48678885152494" lon="11.11211663273959"><ele>107.0</ele><time>2026-04-07T13:09:56.999Z</time></trkpt><trkpt lat="43.48662891660683" lon="11.112255012819915"><ele>107.0</ele><time>2026-04-07T13:09:57.999Z</time></trkpt><trkpt lat="43.486468911634006" lon="11.112393230652366"><ele>107.0</ele><time>2026-04-07T13:09:58.999Z</time></trkpt><trkpt lat="43.48629705037688" lon="11.112541613605579"><ele>107.0</ele><time>2026-04-07T13:09:59.999Z</time></trkpt><trkpt lat="43.48612109366896" lon="11.11269353253884"><ele>106.33333333333333</ele><time>2026-04-07T13:10:00.999Z</time></trkpt><trkpt lat="43.4859407033611" lon="11.112849279356096"><ele>105.66666666666666</ele><time>2026-04-07T13:10:01.999Z</time></trkpt><trkpt lat="43.4857636352214" lon="11.113002330145882"><ele>105.0</ele><time>2026-04-07T13:10:02.999Z</time></trkpt><trkpt lat="43.48559757350277" lon="11.113146082321364"><ele>104.0</ele><time>2026-04-07T13:10:03.999Z</time></trkpt><trkpt lat="43.48543901856036" lon="11.113283336389667"><ele>103.0</ele><time>2026-04-07T13:10:04.999Z</time></trkpt><trkpt lat="43.48528652360087" lon="11.113415345906976"><ele>102.0</ele><time>2026-04-07T13:10:05.999Z</time></trkpt><trkpt lat="43.48512683656757" lon="11.11354978972241"><ele>102.0</ele><time>2026-04-07T13:10:06.999Z</time></trkpt><trkpt lat="43.484961134393636" lon="11.11367720463421"><ele>102.0</ele><time>2026-04-07T13:10:07.999Z</time></trkpt><trkpt lat="43.484787713844874" lon="11.11378839554178"><ele>102.0</ele><time>2026-04-07T13:10:08.999Z</time></trkpt><trkpt lat="43.48460120968411" lon="11.113887685150308"><ele>103.33333333333334</ele><time>2026-04-07T13:10:09.999Z</time></trkpt><trkpt lat="43.484424452598766" lon="11.113976852580047"><ele>104.66666666666667</ele><time>2026-04-07T13:10:11Z</time></trkpt><trkpt lat="43.48424318531273" lon="11.114068219499853"><ele>106.0</ele><time>2026-04-07T13:10:12Z</time></trkpt><trkpt lat="43.48406002273922" lon="11.114161314216327"><ele>106.66666666666667</ele><time>2026-04-07T13:10:13Z</time></trkpt><trkpt lat="43.483876711435485" lon="11.114257681909924"><ele>107.33333333333334</ele><time>2026-04-07T13:10:14Z</time></trkpt><trkpt lat="43.48369534447971" lon="11.114355224202725"><ele>108.0</ele><time>2026-04-07T13:10:15Z</time></trkpt><trkpt lat="43.4835081110233" lon="11.1144638989001"><ele>108.0</ele><time>2026-04-07T13:10:16Z</time></trkpt><trkpt lat="43.483317773909256" lon="11.114582053114486"><ele>108.0</ele><time>2026-04-07T13:10:17Z</time></trkpt><trkpt lat="43.483124527199855" lon="11.114705795673773"><ele>108.0</ele><time>2026-04-07T13:10:18Z</time></trkpt><trkpt lat="43.48292828363526" lon="11.114831457010363"><ele>105.33333333333334</ele><time>2026-04-07T13:10:19Z</time></trkpt><trkpt lat="43.482731008026605" lon="11.114959561913684"><ele>102.66666666666667</ele><time>2026-04-07T13:10:20Z</time></trkpt><trkpt lat="43.482552098470485" lon="11.115076619168079"><ele>100.0</ele><time>2026-04-07T13:10:21Z</time></trkpt><trkpt lat="43.482388834564894" lon="11.115181921962348"><ele>100.0</ele><time>2026-04-07T13:10:22Z</time></trkpt><trkpt lat="43.482236543216686" lon="11.115279719550369"><ele>100.0</ele><time>2026-04-07T13:10:23Z</time></trkpt><trkpt lat="43.48208739779521" lon="11.11537549687351"><ele>100.0</ele><time>2026-04-07T13:10:24Z</time></trkpt><trkpt lat="43.48192899493487" lon="11.115477219104882"><ele>98.66666666666667</ele><time>2026-04-07T13:10:25Z</time></trkpt><trkpt lat="43.48176542666584" lon="11.11558225841755"><ele>97.33333333333334</ele><time>2026-04-07T13:10:26Z</time></trkpt><trkpt lat="43.48159611073104" lon="11.115690988732045"><ele>96.0</ele><time>2026-04-07T13:10:27Z</time></trkpt><trkpt lat="43.48141800661523" lon="11.115805362623489"><ele>100.66666666666666</ele><time>2026-04-07T13:10:28Z</time></trkpt><trkpt lat="43.48122650321246" lon="11.115928341144748"><ele>105.33333333333333</ele><time>2026-04-07T13:10:29Z</time></trkpt><trkpt lat="43.48104268899275" lon="11.116046547148839"><ele>110.0</ele><time>2026-04-07T13:10:30Z</time></trkpt><trkpt lat="43.48087716012323" lon="11.116153089843689"><ele>110.0</ele><time>2026-04-07T13:10:31Z</time></trkpt><trkpt lat="43.48071721783774" lon="11.116256036742918"><ele>110.0</ele><time>2026-04-07T13:10:32Z</time></trkpt><trkpt lat="43.48054755123982" lon="11.116365242682729"><ele>110.0</ele><time>2026-04-07T13:10:33Z</time></trkpt><trkpt lat="43.480377075644505" lon="11.116474969366516"><ele>112.66666666666666</ele><time>2026-04-07T13:10:34Z</time></trkpt><trkpt lat="43.480217727792564" lon="11.116564632408569"><ele>115.33333333333334</ele><time>2026-04-07T13:10:35Z</time></trkpt><trkpt lat="43.48006069134926" lon="11.116638103395255"><ele>118.0</ele><time>2026-04-07T13:10:36Z</time></trkpt><trkpt lat="43.47988450516759" lon="11.116699795528772"><ele>113.33333333333334</ele><time>2026-04-07T13:10:37Z</time></trkpt><trkpt lat="43.47970406005964" lon="11.116776934228643"><ele>108.66666666666666</ele><time>2026-04-07T13:10:38Z</time></trkpt><trkpt lat="43.479530895856534" lon="11.116820218823207"><ele>104.0</ele><time>2026-04-07T13:10:39Z</time></trkpt><trkpt lat="43.47936097281665" lon="11.116874715157614"><ele>104.0</ele><time>2026-04-07T13:10:40Z</time></trkpt><trkpt lat="43.47917795403889" lon="11.116951383333918"><ele>104.0</ele><time>2026-04-07T13:10:41Z</time></trkpt><trkpt lat="43.478988530517015" lon="11.11701778620693"><ele>104.0</ele><time>2026-04-07T13:10:42Z</time></trkpt><trkpt lat="43.47882035469828" lon="11.1171330067109"><ele>104.0</ele><time>2026-04-07T13:10:43Z</time></trkpt><trkpt lat="43.47866868438349" lon="11.117266091785243"><ele>104.0</ele><time>2026-04-07T13:10:44Z</time></trkpt><trkpt lat="43.47851180845294" lon="11.117409311733539"><ele>104.0</ele><time>2026-04-07T13:10:45Z</time></trkpt><trkpt lat="43.478366384325085" lon="11.117544264291828"><ele>104.0</ele><time>2026-04-07T13:10:46Z</time></trkpt><trkpt lat="43.47822918263483" lon="11.117667951298795"><ele>104.0</ele><time>2026-04-07T13:10:47Z</time></trkpt><trkpt lat="43.478083090045374" lon="11.11780094366622"><ele>104.0</ele><time>2026-04-07T13:10:48Z</time></trkpt><trkpt lat="43.47795299674061" lon="11.117930643925718"><ele>105.75</ele><time>2026-04-07T13:10:49Z</time></trkpt><trkpt lat="43.47782217846739" lon="11.118017708071266"><ele>107.5</ele><time>2026-04-07T13:10:50Z</time></trkpt><trkpt lat="43.47768910699551" lon="11.118069502481266"><ele>109.25</ele><time>2026-04-07T13:10:51Z</time></trkpt><trkpt lat="43.47754256123877" lon="11.118087758105633"><ele>111.0</ele><time>2026-04-07T13:10:52Z</time></trkpt><trkpt lat="43.477389656385164" lon="11.118073647649258"><ele>111.0</ele><time>2026-04-07T13:10:53Z</time></trkpt><trkpt lat="43.47723839221917" lon="11.118027083386393"><ele>111.0</ele><time>2026-04-07T13:10:54Z</time></trkpt><trkpt lat="43.47709167661226" lon="11.117957614127512"><ele>111.0</ele><time>2026-04-07T13:10:55Z</time></trkpt><trkpt lat="43.4769640373316" lon="11.117900632338683"><ele>111.0</ele><time>2026-04-07T13:10:56Z</time></trkpt><trkpt lat="43.47684546288856" lon="11.117868266851588"><ele>108.5</ele><time>2026-04-07T13:10:57Z</time></trkpt><trkpt lat="43.47672474331027" lon="11.117859956825557"><ele>106.0</ele><time>2026-04-07T13:10:58Z</time></trkpt><trkpt lat="43.47661653430949" lon="11.117872491830276"><ele>103.5</ele><time>2026-04-07T13:10:59Z</time></trkpt><trkpt lat="43.476507665221305" lon="11.117913473968233"><ele>101.0</ele><time>2026-04-07T13:11:00Z</time></trkpt><trkpt lat="43.476373558585884" lon="11.117988244893489"><ele>102.0</ele><time>2026-04-07T13:11:01Z</time></trkpt><trkpt lat="43.47623626215393" lon="11.118048571234727"><ele>103.0</ele><time>2026-04-07T13:11:02Z</time></trkpt><trkpt lat="43.47612346364303" lon="11.11810204920634"><ele>104.0</ele><time>2026-04-07T13:11:03Z</time></trkpt><trkpt lat="43.476019840059905" lon="11.11816125663311"><ele>105.0</ele><time>2026-04-07T13:11:04Z</time></trkpt><trkpt lat="43.47592151071433" lon="11.118255095732504"><ele>106.33333333333334</ele><time>2026-04-07T13:11:05Z</time></trkpt><trkpt lat="43.47582501499886" lon="11.118387162146075"><ele>107.66666666666667</ele><time>2026-04-07T13:11:06Z</time></trkpt><trkpt lat="43.47574663020673" lon="11.11856597097731"><ele>109.0</ele><time>2026-04-07T13:11:07Z</time></trkpt><trkpt lat="43.47567994589898" lon="11.118773463048882"><ele>109.0</ele><time>2026-04-07T13:11:08Z</time></trkpt><trkpt lat="43.47559948439005" lon="11.118917105394157"><ele>109.0</ele><time>2026-04-07T13:11:09Z</time></trkpt><trkpt lat="43.47550843401819" lon="11.119031828841976"><ele>109.0</ele><time>2026-04-07T13:11:10Z</time></trkpt><trkpt lat="43.475388429779144" lon="11.119135733330564"><ele>109.0</ele><time>2026-04-07T13:11:11Z</time></trkpt><trkpt lat="43.47525363960582" lon="11.119246833439986"><ele>112.33333333333334</ele><time>2026-04-07T13:11:12Z</time></trkpt><trkpt lat="43.47511228122668" lon="11.11936444065279"><ele>115.66666666666666</ele><time>2026-04-07T13:11:13Z</time></trkpt><trkpt lat="43.474976929646836" lon="11.119477953718535"><ele>119.0</ele><time>2026-04-07T13:11:14Z</time></trkpt><trkpt lat="43.474849475997644" lon="11.119588654492818"><ele>119.0</ele><time>2026-04-07T13:11:15Z</time></trkpt><trkpt lat="43.474729179998825" lon="11.119688557791521"><ele>119.0</ele><time>2026-04-07T13:11:16Z</time></trkpt><trkpt lat="43.47460894655551" lon="11.11976101592564"><ele>119.0</ele><time>2026-04-07T13:11:17Z</time></trkpt><trkpt lat="43.47447932534634" lon="11.119803640661342"><ele>119.0</ele><time>2026-04-07T13:11:18Z</time></trkpt><trkpt lat="43.47432898197625" lon="11.11982881746234"><ele>122.0</ele><time>2026-04-07T13:11:19Z</time></trkpt><trkpt lat="43.47415964232382" lon="11.119874553859882"><ele>125.0</ele><time>2026-04-07T13:11:20Z</time></trkpt><trkpt lat="43.473968157132774" lon="11.11989254026137"><ele>128.0</ele><time>2026-04-07T13:11:21Z</time></trkpt><trkpt lat="43.47379179208918" lon="11.119924454363455"><ele>119.0</ele><time>2026-04-07T13:11:22Z</time></trkpt><trkpt lat="43.47363091895257" lon="11.119957918482656"><ele>110.0</ele><time>2026-04-07T13:11:23Z</time></trkpt><trkpt lat="43.47347559836541" lon="11.119996168147903"><ele>101.0</ele><time>2026-04-07T13:11:24Z</time></trkpt><trkpt lat="43.473332542962225" lon="11.120030139087623"><ele>101.0</ele><time>2026-04-07T13:11:25Z</time></trkpt><trkpt lat="43.473204716342714" lon="11.12006069529141"><ele>101.0</ele><time>2026-04-07T13:11:26Z</time></trkpt><trkpt lat="43.47309342012505" lon="11.120094896020788"><ele>101.0</ele><time>2026-04-07T13:11:27Z</time></trkpt><trkpt lat="43.47298990253186" lon="11.120153626794314"><ele>101.0</ele><time>2026-04-07T13:11:28Z</time></trkpt><trkpt lat="43.47291171565687" lon="11.120252996798563"><ele>99.75</ele><time>2026-04-07T13:11:29Z</time></trkpt><trkpt lat="43.472851727805555" lon="11.120380688565449"><ele>98.5</ele><time>2026-04-07T13:11:30Z</time></trkpt><trkpt lat="43.47282129909099" lon="11.120560423085932"><ele>97.25</ele><time>2026-04-07T13:11:31Z</time></trkpt><trkpt lat="43.472815611810816" lon="11.120744131405404"><ele>96.0</ele><time>2026-04-07T13:11:31.999Z</time></trkpt><trkpt lat="43.47280735605264" lon="11.120954233905971"><ele>94.75</ele><time>2026-04-07T13:11:32.999Z</time></trkpt><trkpt lat="43.472796301550645" lon="11.121172162655874"><ele>93.5</ele><time>2026-04-07T13:11:33.999Z</time></trkpt><trkpt lat="43.47278315795983" lon="11.121362289811202"><ele>92.25</ele><time>2026-04-07T13:11:34.999Z</time></trkpt><trkpt lat="43.47275941941574" lon="11.121534524109807"><ele>91.0</ele><time>2026-04-07T13:11:35.999Z</time></trkpt><trkpt lat="43.47272771111415" lon="11.121686852531155"><ele>91.0</ele><time>2026-04-07T13:11:36.999Z</time></trkpt><trkpt lat="43.472680714006536" lon="11.12184094688395"><ele>91.0</ele><time>2026-04-07T13:11:37.999Z</time></trkpt><trkpt lat="43.47263820148493" lon="11.122038540484246"><ele>91.0</ele><time>2026-04-07T13:11:38.999Z</time></trkpt><trkpt lat="43.47255733424946" lon="11.122188053432092"><ele>91.0</ele><time>2026-04-07T13:11:39.999Z</time></trkpt><trkpt lat="43.47247668762118" lon="11.12231524805737"><ele>90.75</ele><time>2026-04-07T13:11:40.999Z</time></trkpt><trkpt lat="43.472384442232425" lon="11.122449225861148"><ele>90.5</ele><time>2026-04-07T13:11:41.999Z</time></trkpt><trkpt lat="43.47227249599684" lon="11.122525677032439"><ele>90.25</ele><time>2026-04-07T13:11:42.999Z</time></trkpt><trkpt lat="43.472170320761876" lon="11.122602287177749"><ele>90.0</ele><time>2026-04-07T13:11:43.999Z</time></trkpt><trkpt lat="43.47205781718549" lon="11.12267069719317"><ele>90.0</ele><time>2026-04-07T13:11:44.999Z</time></trkpt><trkpt lat="43.47192904672393" lon="11.122739917667797"><ele>90.0</ele><time>2026-04-07T13:11:45.999Z</time></trkpt><trkpt lat="43.47182621877077" lon="11.122827969187131"><ele>90.0</ele><time>2026-04-07T13:11:46.999Z</time></trkpt><trkpt lat="43.471717669790046" lon="11.122883496082554"><ele>90.0</ele><time>2026-04-07T13:11:47.999Z</time></trkpt><trkpt lat="43.471601348099256" lon="11.122959375968977"><ele>90.0</ele><time>2026-04-07T13:11:48.999Z</time></trkpt><trkpt lat="43.47149406966702" lon="11.123063886340073"><ele>90.0</ele><time>2026-04-07T13:11:49.999Z</time></trkpt><trkpt lat="43.471399662001886" lon="11.123197157193317"><ele>90.0</ele><time>2026-04-07T13:11:50.999Z</time></trkpt><trkpt lat="43.471325056349556" lon="11.123337823223533"><ele>90.0</ele><time>2026-04-07T13:11:51.999Z</time></trkpt><trkpt lat="43.47124735756579" lon="11.123491696277304"><ele>90.25</ele><time>2026-04-07T13:11:52.999Z</time></trkpt><trkpt lat="43.47116933176937" lon="11.123640389941139"><ele>90.5</ele><time>2026-04-07T13:11:53.999Z</time></trkpt><trkpt lat="43.471099376817996" lon="11.12377648838363"><ele>90.75</ele><time>2026-04-07T13:11:54.999Z</time></trkpt><trkpt lat="43.470993596102446" lon="11.12390339769829"><ele>91.0</ele><time>2026-04-07T13:11:55.999Z</time></trkpt><trkpt lat="43.470915217713674" lon="11.124065674167475"><ele>91.0</ele><time>2026-04-07T13:11:56.999Z</time></trkpt><trkpt lat="43.47084295809876" lon="11.12421458672019"><ele>91.0</ele><time>2026-04-07T13:11:57.999Z</time></trkpt><trkpt lat="43.47077723572172" lon="11.124366577214357"><ele>91.0</ele><time>2026-04-07T13:11:58.999Z</time></trkpt><trkpt lat="43.470715998565574" lon="11.1245188098691"><ele>91.0</ele><time>2026-04-07T13:11:59.999Z</time></trkpt><trkpt lat="43.470660799633684" lon="11.124662682277739"><ele>91.0</ele><time>2026-04-07T13:12:00.999Z</time></trkpt><trkpt lat="43.47060693147249" lon="11.124811838456786"><ele>91.0</ele><time>2026-04-07T13:12:01.999Z</time></trkpt><trkpt lat="43.47055392380024" lon="11.124969223142573"><ele>91.0</ele><time>2026-04-07T13:12:02.999Z</time></trkpt><trkpt lat="43.47050723349549" lon="11.12510687211574"><ele>91.0</ele><time>2026-04-07T13:12:03.999Z</time></trkpt><trkpt lat="43.47045602432723" lon="11.125251672279695"><ele>91.25</ele><time>2026-04-07T13:12:04.999Z</time></trkpt><trkpt lat="43.47040300915062" lon="11.125404878352077"><ele>91.5</ele><time>2026-04-07T13:12:05.999Z</time></trkpt><trkpt lat="43.4703473771075" lon="11.125574580711096"><ele>91.75</ele><time>2026-04-07T13:12:06.999Z</time></trkpt><trkpt lat="43.470298361096575" lon="11.125724101141495"><ele>92.0</ele><time>2026-04-07T13:12:07.999Z</time></trkpt><trkpt lat="43.470251680635386" lon="11.125860946089556"><ele>92.25</ele><time>2026-04-07T13:12:08.999Z</time></trkpt><trkpt lat="43.47020603127211" lon="11.125995422823841"><ele>92.5</ele><time>2026-04-07T13:12:09.999Z</time></trkpt><trkpt lat="43.47015604881993" lon="11.126142664236754"><ele>92.75</ele><time>2026-04-07T13:12:10.999Z</time></trkpt><trkpt lat="43.47010291036017" lon="11.126299202811488"><ele>93.0</ele><time>2026-04-07T13:12:11.999Z</time></trkpt><trkpt lat="43.470071017047175" lon="11.126443406553776"><ele>93.0</ele><time>2026-04-07T13:12:12.999Z</time></trkpt><trkpt lat="43.4700271526237" lon="11.12655880336372"><ele>93.0</ele><time>2026-04-07T13:12:13.999Z</time></trkpt><trkpt lat="43.469985895751016" lon="11.12666772305772"><ele>93.0</ele><time>2026-04-07T13:12:14.999Z</time></trkpt><trkpt lat="43.46994887590252" lon="11.126783609251396"><ele>93.0</ele><time>2026-04-07T13:12:15.999Z</time></trkpt><trkpt lat="43.469906560124436" lon="11.126866085064284"><ele>93.0</ele><time>2026-04-07T13:12:17Z</time></trkpt><trkpt lat="43.46984846460594" lon="11.126908989230337"><ele>93.0</ele><time>2026-04-07T13:12:19Z</time></trkpt><trkpt lat="43.46973665680712" lon="11.126951377345973"><ele>93.4</ele><time>2026-04-07T13:12:22Z</time></trkpt><trkpt lat="43.46965453512452" lon="11.126895459442682"><ele>93.80000000000001</ele><time>2026-04-07T13:12:24Z</time></trkpt><trkpt lat="43.469561580104674" lon="11.127113005673062"><ele>94.2</ele><time>2026-04-07T13:12:30Z</time></trkpt><trkpt lat="43.469586281543876" lon="11.127206428221848"><ele>94.6</ele><time>2026-04-07T13:12:31Z</time></trkpt><trkpt lat="43.46964927470834" lon="11.127281332884161"><ele>95.0</ele><time>2026-04-07T13:12:32Z</time></trkpt><trkpt lat="43.46969962641535" lon="11.127355004767821"><ele>95.0</ele><time>2026-04-07T13:12:33Z</time></trkpt><trkpt lat="43.469745715007065" lon="11.127416847576356"><ele>95.0</ele><time>2026-04-07T13:12:34Z</time></trkpt><trkpt lat="43.46979058329672" lon="11.127480621401421"><ele>95.0</ele><time>2026-04-07T13:12:35Z</time></trkpt><trkpt lat="43.46984065870846" lon="11.127549703771635"><ele>95.0</ele><time>2026-04-07T13:12:36Z</time></trkpt><trkpt lat="43.46989894117209" lon="11.127622341599587"><ele>95.0</ele><time>2026-04-07T13:12:37Z</time></trkpt><trkpt lat="43.46996116224211" lon="11.127699422395123"><ele>95.0</ele><time>2026-04-07T13:12:38Z</time></trkpt><trkpt lat="43.47002356799395" lon="11.127788731276642"><ele>95.0</ele><time>2026-04-07T13:12:39Z</time></trkpt><trkpt lat="43.470077583903084" lon="11.127866756453985"><ele>95.0</ele><time>2026-04-07T13:12:40Z</time></trkpt><trkpt lat="43.470129091383136" lon="11.127938386833474"><ele>95.0</ele><time>2026-04-07T13:12:41Z</time></trkpt><trkpt lat="43.47017546537235" lon="11.128000137612332"><ele>95.0</ele><time>2026-04-07T13:12:42Z</time></trkpt><trkpt lat="43.47023368426742" lon="11.128155352651282"><ele>95.0</ele><time>2026-04-07T13:12:44Z</time></trkpt><trkpt lat="43.4702395532621" lon="11.128330063525288"><ele>95.33333333333334</ele><time>2026-04-07T13:12:46Z</time></trkpt><trkpt lat="43.47023472431413" lon="11.128432680438335"><ele>95.66666666666667</ele><time>2026-04-07T13:12:47Z</time></trkpt><trkpt lat="43.470170210816924" lon="11.128524501480157"><ele>96.0</ele><time>2026-04-07T13:12:48Z</time></trkpt><trkpt lat="43.47010811951651" lon="11.12860590662651"><ele>96.33333333333334</ele><time>2026-04-07T13:12:49Z</time></trkpt><trkpt lat="43.470029751363256" lon="11.128647583697044"><ele>96.66666666666667</ele><time>2026-04-07T13:12:50Z</time></trkpt><trkpt lat="43.46996053159528" lon="11.128732523868688"><ele>97.0</ele><time>2026-04-07T13:12:51Z</time></trkpt><trkpt lat="43.46987751194206" lon="11.12880631213339"><ele>97.0</ele><time>2026-04-07T13:12:52Z</time></trkpt><trkpt lat="43.46978816930564" lon="11.12889322565081"><ele>97.0</ele><time>2026-04-07T13:12:53Z</time></trkpt><trkpt lat="43.46972685753537" lon="11.129023420327455"><ele>97.0</ele><time>2026-04-07T13:12:54Z</time></trkpt><trkpt lat="43.46968662831292" lon="11.129180445981063"><ele>97.0</ele><time>2026-04-07T13:12:55Z</time></trkpt><trkpt lat="43.46966803590671" lon="11.129366312082393"><ele>96.25</ele><time>2026-04-07T13:12:56Z</time></trkpt><trkpt lat="43.46966205881964" lon="11.12955718910319"><ele>95.5</ele><time>2026-04-07T13:12:57Z</time></trkpt><trkpt lat="43.46966579899762" lon="11.129754039273942"><ele>94.75</ele><time>2026-04-07T13:12:58Z</time></trkpt><trkpt lat="43.46968533245087" lon="11.129929009181236"><ele>94.0</ele><time>2026-04-07T13:12:59Z</time></trkpt><trkpt lat="43.46968917329435" lon="11.130103819666063"><ele>94.0</ele><time>2026-04-07T13:13:00Z</time></trkpt><trkpt lat="43.46968079751749" lon="11.130291371617307"><ele>94.0</ele><time>2026-04-07T13:13:01Z</time></trkpt><trkpt lat="43.46968682380755" lon="11.13048488002165"><ele>94.0</ele><time>2026-04-07T13:13:02Z</time></trkpt><trkpt lat="43.469691673003446" lon="11.130694036371956"><ele>94.0</ele><time>2026-04-07T13:13:03Z</time></trkpt><trkpt lat="43.46969967199495" lon="11.130903609104244"><ele>94.0</ele><time>2026-04-07T13:13:04Z</time></trkpt><trkpt lat="43.46970317224019" lon="11.131096940600422"><ele>94.0</ele><time>2026-04-07T13:13:05Z</time></trkpt><trkpt lat="43.46969729527755" lon="11.131286452014482"><ele>94.0</ele><time>2026-04-07T13:13:06Z</time></trkpt><trkpt lat="43.46968863974429" lon="11.131479749482242"><ele>94.0</ele><time>2026-04-07T13:13:07Z</time></trkpt><trkpt lat="43.469671919876674" lon="11.131667103188898"><ele>93.75</ele><time>2026-04-07T13:13:08Z</time></trkpt><trkpt lat="43.469652064082396" lon="11.131839464677633"><ele>93.5</ele><time>2026-04-07T13:13:09Z</time></trkpt><trkpt lat="43.469627985550495" lon="11.13201645169067"><ele>93.25</ele><time>2026-04-07T13:13:10Z</time></trkpt><trkpt lat="43.46960507397114" lon="11.132204055428378"><ele>93.0</ele><time>2026-04-07T13:13:11Z</time></trkpt><trkpt lat="43.46958799072839" lon="11.132376502554477"><ele>98.5</ele><time>2026-04-07T13:13:12Z</time></trkpt><trkpt lat="43.46956083853978" lon="11.132553062190917"><ele>104.0</ele><time>2026-04-07T13:13:13Z</time></trkpt><trkpt lat="43.4695405010343" lon="11.132744319194531"><ele>109.5</ele><time>2026-04-07T13:13:14Z</time></trkpt><trkpt lat="43.46951159068239" lon="11.13294048633981"><ele>115.0</ele><time>2026-04-07T13:13:15Z</time></trkpt><trkpt lat="43.46947021772008" lon="11.133140791647945"><ele>109.5</ele><time>2026-04-07T13:13:16Z</time></trkpt><trkpt lat="43.46944656924726" lon="11.13333019000709"><ele>104.0</ele><time>2026-04-07T13:13:17Z</time></trkpt><trkpt lat="43.46942264331933" lon="11.13351108099788"><ele>98.5</ele><time>2026-04-07T13:13:18Z</time></trkpt><trkpt lat="43.46939892831019" lon="11.13369536776405"><ele>93.0</ele><time>2026-04-07T13:13:19Z</time></trkpt><trkpt lat="43.469376913371235" lon="11.133865338977577"><ele>93.0</ele><time>2026-04-07T13:13:20Z</time></trkpt><trkpt lat="43.469353791824624" lon="11.134033569487478"><ele>93.0</ele><time>2026-04-07T13:13:21Z</time></trkpt><trkpt lat="43.469329581624265" lon="11.1342015338305"><ele>93.0</ele><time>2026-04-07T13:13:22Z</time></trkpt><trkpt lat="43.469301699758915" lon="11.13438096267138"><ele>93.0</ele><time>2026-04-07T13:13:23Z</time></trkpt><trkpt lat="43.469268729286675" lon="11.134565421518738"><ele>92.75</ele><time>2026-04-07T13:13:24Z</time></trkpt><trkpt lat="43.46922532830575" lon="11.134744406626796"><ele>92.5</ele><time>2026-04-07T13:13:25Z</time></trkpt><trkpt lat="43.46918759335724" lon="11.134910947059904"><ele>92.25</ele><time>2026-04-07T13:13:26Z</time></trkpt><trkpt lat="43.46914151395447" lon="11.135074144459338"><ele>92.0</ele><time>2026-04-07T13:13:27Z</time></trkpt><trkpt lat="43.46909109215141" lon="11.135241266201165"><ele>92.0</ele><time>2026-04-07T13:13:28Z</time></trkpt><trkpt lat="43.46904260942204" lon="11.135398349491771"><ele>92.0</ele><time>2026-04-07T13:13:29Z</time></trkpt><trkpt lat="43.46899415605436" lon="11.135550440694232"><ele>92.0</ele><time>2026-04-07T13:13:30Z</time></trkpt><trkpt lat="43.468945067381476" lon="11.135703919019155"><ele>92.0</ele><time>2026-04-07T13:13:31Z</time></trkpt><trkpt lat="43.46889256104602" lon="11.135858559404195"><ele>92.0</ele><time>2026-04-07T13:13:32Z</time></trkpt><trkpt lat="43.46884319867598" lon="11.135996225691498"><ele>92.0</ele><time>2026-04-07T13:13:33Z</time></trkpt><trkpt lat="43.46879543689167" lon="11.136140241080563"><ele>92.0</ele><time>2026-04-07T13:13:33.999Z</time></trkpt><trkpt lat="43.46875150306743" lon="11.136286645586788"><ele>92.0</ele><time>2026-04-07T13:13:34.999Z</time></trkpt><trkpt lat="43.468699279256334" lon="11.13644020777398"><ele>92.75</ele><time>2026-04-07T13:13:35.999Z</time></trkpt><trkpt lat="43.46865043419636" lon="11.136599776677846"><ele>93.5</ele><time>2026-04-07T13:13:36.999Z</time></trkpt><trkpt lat="43.468600374201145" lon="11.136761154121666"><ele>94.25</ele><time>2026-04-07T13:13:37.999Z</time></trkpt><trkpt lat="43.46855340459381" lon="11.136902048762604"><ele>95.0</ele><time>2026-04-07T13:13:38.999Z</time></trkpt><trkpt lat="43.46850855690188" lon="11.137048499132716"><ele>95.0</ele><time>2026-04-07T13:13:39.999Z</time></trkpt><trkpt lat="43.46846123923629" lon="11.137201185914417"><ele>95.0</ele><time>2026-04-07T13:13:40.999Z</time></trkpt><trkpt lat="43.46841345717548" lon="11.137351904377047"><ele>95.0</ele><time>2026-04-07T13:13:41.999Z</time></trkpt><trkpt lat="43.46836195365091" lon="11.137504922527361"><ele>95.0</ele><time>2026-04-07T13:13:42.999Z</time></trkpt><trkpt lat="43.468313735203786" lon="11.137663482289899"><ele>95.0</ele><time>2026-04-07T13:13:43.999Z</time></trkpt><trkpt lat="43.468260699200336" lon="11.137826859646207"><ele>95.0</ele><time>2026-04-07T13:13:44.999Z</time></trkpt><trkpt lat="43.46820639671375" lon="11.137985986324782"><ele>95.0</ele><time>2026-04-07T13:13:45.999Z</time></trkpt><trkpt lat="43.46813973471408" lon="11.138146394353221"><ele>95.0</ele><time>2026-04-07T13:13:46.999Z</time></trkpt><trkpt lat="43.46806202394694" lon="11.138304443341163"><ele>95.0</ele><time>2026-04-07T13:13:47.999Z</time></trkpt><trkpt lat="43.467975189050776" lon="11.138459406979369"><ele>95.0</ele><time>2026-04-07T13:13:48.999Z</time></trkpt><trkpt lat="43.46788339074804" lon="11.138609154662749"><ele>95.0</ele><time>2026-04-07T13:13:49.999Z</time></trkpt><trkpt lat="43.467789158234744" lon="11.13876613389041"><ele>95.0</ele><time>2026-04-07T13:13:50.999Z</time></trkpt><trkpt lat="43.46769641478784" lon="11.13891402199487"><ele>95.0</ele><time>2026-04-07T13:13:51.999Z</time></trkpt><trkpt lat="43.467613144500156" lon="11.139050514369181"><ele>95.0</ele><time>2026-04-07T13:13:52.999Z</time></trkpt><trkpt lat="43.46753383349471" lon="11.139182680965716"><ele>95.0</ele><time>2026-04-07T13:13:53.999Z</time></trkpt><trkpt lat="43.46744922265743" lon="11.139325555920289"><ele>95.0</ele><time>2026-04-07T13:13:54.999Z</time></trkpt><trkpt lat="43.467375172647934" lon="11.139464703485908"><ele>95.0</ele><time>2026-04-07T13:13:55.999Z</time></trkpt><trkpt lat="43.467307956538974" lon="11.139592874047802"><ele>95.0</ele><time>2026-04-07T13:13:56.999Z</time></trkpt><trkpt lat="43.46724854171594" lon="11.139725909179626"><ele>95.0</ele><time>2026-04-07T13:13:57.999Z</time></trkpt><trkpt lat="43.46720946757709" lon="11.139877861519624"><ele>95.0</ele><time>2026-04-07T13:13:58.999Z</time></trkpt><trkpt lat="43.467178358462235" lon="11.140031043781747"><ele>95.16666666666667</ele><time>2026-04-07T13:13:59.999Z</time></trkpt><trkpt lat="43.46716398615085" lon="11.140170339830423"><ele>95.33333333333334</ele><time>2026-04-07T13:14:00.999Z</time></trkpt><trkpt lat="43.46715656448016" lon="11.14029883321881"><ele>95.5</ele><time>2026-04-07T13:14:01.999Z</time></trkpt><trkpt lat="43.467151028355936" lon="11.140408706170357"><ele>95.66666666666667</ele><time>2026-04-07T13:14:02.999Z</time></trkpt><trkpt lat="43.46713917244781" lon="11.140501731026715"><ele>95.83333333333333</ele><time>2026-04-07T13:14:03.999Z</time></trkpt><trkpt lat="43.46711292744392" lon="11.140586494215958"><ele>96.0</ele><time>2026-04-07T13:14:04.999Z</time></trkpt><trkpt lat="43.46707233784686" lon="11.140665109864877"><ele>96.0</ele><time>2026-04-07T13:14:05.999Z</time></trkpt><trkpt lat="43.467036233185816" lon="11.140743532455561"><ele>96.0</ele><time>2026-04-07T13:14:06.999Z</time></trkpt><trkpt lat="43.46701390770222" lon="11.140842323636502"><ele>96.0</ele><time>2026-04-07T13:14:07.999Z</time></trkpt><trkpt lat="43.4670458136675" lon="11.140958739805845"><ele>96.0</ele><time>2026-04-07T13:14:08.999Z</time></trkpt><trkpt lat="43.4671291792413" lon="11.141053443448936"><ele>96.0</ele><time>2026-04-07T13:14:09.999Z</time></trkpt><trkpt lat="43.46716118931443" lon="11.141178514188436"><ele>96.0</ele><time>2026-04-07T13:14:10.999Z</time></trkpt><trkpt lat="43.46722070984905" lon="11.141315147455709"><ele>96.0</ele><time>2026-04-07T13:14:11.999Z</time></trkpt><trkpt lat="43.4672831319949" lon="11.141446557957435"><ele>96.0</ele><time>2026-04-07T13:14:12.999Z</time></trkpt><trkpt lat="43.467348073659025" lon="11.141586471520284"><ele>96.0</ele><time>2026-04-07T13:14:13.999Z</time></trkpt><trkpt lat="43.467403566644236" lon="11.141712087961492"><ele>96.0</ele><time>2026-04-07T13:14:14.999Z</time></trkpt><trkpt lat="43.467451699932454" lon="11.14185241285839"><ele>96.0</ele><time>2026-04-07T13:14:15.999Z</time></trkpt><trkpt lat="43.46748416667652" lon="11.141981127681813"><ele>96.0</ele><time>2026-04-07T13:14:16.999Z</time></trkpt><trkpt lat="43.46751905000441" lon="11.142116914149591"><ele>96.0</ele><time>2026-04-07T13:14:17.999Z</time></trkpt><trkpt lat="43.46755960014292" lon="11.142274435695688"><ele>96.0</ele><time>2026-04-07T13:14:18.999Z</time></trkpt><trkpt lat="43.467597671482956" lon="11.142422710257055"><ele>96.0</ele><time>2026-04-07T13:14:19.999Z</time></trkpt><trkpt lat="43.46764417299244" lon="11.142539647881895"><ele>96.0</ele><time>2026-04-07T13:14:20.999Z</time></trkpt><trkpt lat="43.467674116562094" lon="11.142658353726901"><ele>96.0</ele><time>2026-04-07T13:14:21.999Z</time></trkpt><trkpt lat="43.46769158513721" lon="11.14279597186259"><ele>96.0</ele><time>2026-04-07T13:14:23Z</time></trkpt><trkpt lat="43.4677251907757" lon="11.142931068572386"><ele>96.0</ele><time>2026-04-07T13:14:24Z</time></trkpt><trkpt lat="43.467750999942346" lon="11.143034822993913"><ele>96.0</ele><time>2026-04-07T13:14:25Z</time></trkpt><trkpt lat="43.467774373748846" lon="11.143128787106573"><ele>96.0</ele><time>2026-04-07T13:14:26Z</time></trkpt><trkpt lat="43.46781416930303" lon="11.143284259801993"><ele>96.8</ele><time>2026-04-07T13:14:28Z</time></trkpt><trkpt lat="43.46781135209996" lon="11.14342973290117"><ele>97.6</ele><time>2026-04-07T13:14:30Z</time></trkpt><trkpt lat="43.46770692639282" lon="11.1435383017402"><ele>98.4</ele><time>2026-04-07T13:14:32Z</time></trkpt><trkpt lat="43.46762641875487" lon="11.143595144202191"><ele>99.2</ele><time>2026-04-07T13:14:33Z</time></trkpt><trkpt lat="43.46755060248396" lon="11.143636841984796"><ele>100.0</ele><time>2026-04-07T13:14:34Z</time></trkpt><trkpt lat="43.46748267336662" lon="11.143678875605252"><ele>100.00000000000001</ele><time>2026-04-07T13:14:35Z</time></trkpt><trkpt lat="43.46742337572183" lon="11.143722272536879"><ele>100.0</ele><time>2026-04-07T13:14:36Z</time></trkpt><trkpt lat="43.46736275749217" lon="11.143765794753486"><ele>100.0</ele><time>2026-04-07T13:14:37Z</time></trkpt><trkpt lat="43.46729968913146" lon="11.143813092307301"><ele>100.0</ele><time>2026-04-07T13:14:38Z</time></trkpt><trkpt lat="43.46722453434465" lon="11.14384345249271"><ele>100.0</ele><time>2026-04-07T13:14:39Z</time></trkpt><trkpt lat="43.46715249553005" lon="11.143891808972983"><ele>100.00000000000001</ele><time>2026-04-07T13:14:40Z</time></trkpt><trkpt lat="43.46707743187913" lon="11.14394219588955"><ele>100.0</ele><time>2026-04-07T13:14:41Z</time></trkpt><trkpt lat="43.46701048044388" lon="11.143987137431331"><ele>99.8</ele><time>2026-04-07T13:14:42Z</time></trkpt><trkpt lat="43.46694411479238" lon="11.144030169615132"><ele>99.6</ele><time>2026-04-07T13:14:43Z</time></trkpt><trkpt lat="43.466875122638854" lon="11.144073774323347"><ele>99.4</ele><time>2026-04-07T13:14:44Z</time></trkpt><trkpt lat="43.466809127510224" lon="11.14411522526372"><ele>99.2</ele><time>2026-04-07T13:14:45Z</time></trkpt><trkpt lat="43.46670038374919" lon="11.144180613636232"><ele>99.0</ele><time>2026-04-07T13:14:47Z</time></trkpt><trkpt lat="43.46658406539524" lon="11.144241973805498"><ele>99.28571428571429</ele><time>2026-04-07T13:14:49Z</time></trkpt><trkpt lat="43.46652318001117" lon="11.144273072594011"><ele>99.57142857142857</ele><time>2026-04-07T13:14:50Z</time></trkpt><trkpt lat="43.46646313507987" lon="11.144301859655634"><ele>99.85714285714286</ele><time>2026-04-07T13:14:51Z</time></trkpt><trkpt lat="43.46639610603978" lon="11.144332631973462"><ele>100.14285714285714</ele><time>2026-04-07T13:14:52Z</time></trkpt><trkpt lat="43.466329868660296" lon="11.144363040849022"><ele>100.42857142857142</ele><time>2026-04-07T13:14:53Z</time></trkpt><trkpt lat="43.46626726166835" lon="11.144391783057888"><ele>100.71428571428571</ele><time>2026-04-07T13:14:54Z</time></trkpt><trkpt lat="43.46620653002537" lon="11.144419664297713"><ele>101.0</ele><time>2026-04-07T13:14:55Z</time></trkpt><trkpt lat="43.46614968978363" lon="11.144469122855764"><ele>101.28571428571428</ele><time>2026-04-07T13:14:56Z</time></trkpt><trkpt lat="43.46608562247066" lon="11.14449786219794"><ele>101.57142857142857</ele><time>2026-04-07T13:14:57Z</time></trkpt><trkpt lat="43.46601926583774" lon="11.144506643713388"><ele>101.85714285714286</ele><time>2026-04-07T13:14:58Z</time></trkpt><trkpt lat="43.465955917111145" lon="11.144535906994998"><ele>102.14285714285714</ele><time>2026-04-07T13:14:59Z</time></trkpt><trkpt lat="43.46589173980625" lon="11.144565553028762"><ele>102.42857142857143</ele><time>2026-04-07T13:15:00Z</time></trkpt><trkpt lat="43.46582309946847" lon="11.144597260673521"><ele>102.71428571428571</ele><time>2026-04-07T13:15:01Z</time></trkpt><trkpt lat="43.46575166938498" lon="11.144630383173416"><ele>103.0</ele><time>2026-04-07T13:15:02Z</time></trkpt><trkpt lat="43.4656807824703" lon="11.144663218785121"><ele>103.00000000000001</ele><time>2026-04-07T13:15:03Z</time></trkpt><trkpt lat="43.465603923081716" lon="11.144698820218268"><ele>103.0</ele><time>2026-04-07T13:15:04Z</time></trkpt><trkpt lat="43.46553115975584" lon="11.144732524350784"><ele>103.0</ele><time>2026-04-07T13:15:05Z</time></trkpt><trkpt lat="43.465453825902934" lon="11.144768345557361"><ele>103.0</ele><time>2026-04-07T13:15:06Z</time></trkpt><trkpt lat="43.46537148553805" lon="11.14480607419271"><ele>103.00000000000001</ele><time>2026-04-07T13:15:07Z</time></trkpt><trkpt lat="43.46528977336887" lon="11.144842847524231"><ele>103.0</ele><time>2026-04-07T13:15:08Z</time></trkpt><trkpt lat="43.465218474669584" lon="11.144874934434105"><ele>104.50000000000001</ele><time>2026-04-07T13:15:09Z</time></trkpt><trkpt lat="43.465152918805565" lon="11.144904436861939"><ele>106.0</ele><time>2026-04-07T13:15:10Z</time></trkpt><trkpt lat="43.465092838707236" lon="11.144952624292452"><ele>107.5</ele><time>2026-04-07T13:15:11Z</time></trkpt><trkpt lat="43.46501993819546" lon="11.144975590052708"><ele>109.0</ele><time>2026-04-07T13:15:12Z</time></trkpt><trkpt lat="43.4649478927208" lon="11.14500868253418"><ele>110.50000000000001</ele><time>2026-04-07T13:15:13Z</time></trkpt><trkpt lat="43.46486648496316" lon="11.14503779079535"><ele>112.0</ele><time>2026-04-07T13:15:14Z</time></trkpt><trkpt lat="43.464786029122834" lon="11.145073389427063"><ele>112.00000000000001</ele><time>2026-04-07T13:15:15Z</time></trkpt><trkpt lat="43.464713209483065" lon="11.145104010321505"><ele>112.0</ele><time>2026-04-07T13:15:16Z</time></trkpt><trkpt lat="43.46464146534195" lon="11.14513521775323"><ele>112.0</ele><time>2026-04-07T13:15:17Z</time></trkpt><trkpt lat="43.46456500455462" lon="11.145165701183434"><ele>112.0</ele><time>2026-04-07T13:15:18Z</time></trkpt><trkpt lat="43.46448580657106" lon="11.145189626067918"><ele>112.00000000000001</ele><time>2026-04-07T13:15:19Z</time></trkpt><trkpt lat="43.46440896611118" lon="11.145218061678005"><ele>112.0</ele><time>2026-04-07T13:15:20Z</time></trkpt><trkpt lat="43.4643307959962" lon="11.145250323466582"><ele>114.66666666666667</ele><time>2026-04-07T13:15:21Z</time></trkpt><trkpt lat="43.464249400904045" lon="11.145278579802048"><ele>117.33333333333334</ele><time>2026-04-07T13:15:22Z</time></trkpt><trkpt lat="43.46416605747248" lon="11.145310869911969"><ele>120.0</ele><time>2026-04-07T13:15:23Z</time></trkpt><trkpt lat="43.464078735015235" lon="11.145321178418857"><ele>122.66666666666666</ele><time>2026-04-07T13:15:24Z</time></trkpt><trkpt lat="43.46399950774154" lon="11.145369190513724"><ele>125.33333333333333</ele><time>2026-04-07T13:15:25Z</time></trkpt><trkpt lat="43.46390575093809" lon="11.1453993244867"><ele>128.0</ele><time>2026-04-07T13:15:26Z</time></trkpt><trkpt lat="43.463815481514146" lon="11.145426999717959"><ele>132.6</ele><time>2026-04-07T13:15:27Z</time></trkpt><trkpt lat="43.46372227625465" lon="11.145463976684397"><ele>137.20000000000002</ele><time>2026-04-07T13:15:28Z</time></trkpt><trkpt lat="43.463628643844096" lon="11.145487856047092"><ele>141.8</ele><time>2026-04-07T13:15:29Z</time></trkpt><trkpt lat="43.4635327695679" lon="11.145534241323915"><ele>146.4</ele><time>2026-04-07T13:15:30Z</time></trkpt><trkpt lat="43.4634494748633" lon="11.145558700640382"><ele>151.0</ele><time>2026-04-07T13:15:31Z</time></trkpt><trkpt lat="43.46335750046481" lon="11.145596606471567"><ele>151.0</ele><time>2026-04-07T13:15:32Z</time></trkpt><trkpt lat="43.463260228249005" lon="11.145618391886327"><ele>151.0</ele><time>2026-04-07T13:15:33Z</time></trkpt><trkpt lat="43.46313819911193" lon="11.145668330619843"><ele>151.0</ele><time>2026-04-07T13:15:34Z</time></trkpt><trkpt lat="43.463026334330195" lon="11.145719380165719"><ele>151.0</ele><time>2026-04-07T13:15:35Z</time></trkpt><trkpt lat="43.46293082285609" lon="11.145749111706314"><ele>151.0</ele><time>2026-04-07T13:15:36Z</time></trkpt><trkpt lat="43.46284610759417" lon="11.145776125670201"><ele>148.2</ele><time>2026-04-07T13:15:37Z</time></trkpt><trkpt lat="43.4627664137568" lon="11.145809638429883"><ele>145.39999999999998</ele><time>2026-04-07T13:15:37.999Z</time></trkpt><trkpt lat="43.462670961807845" lon="11.14584966594203"><ele>142.6</ele><time>2026-04-07T13:15:38.999Z</time></trkpt><trkpt lat="43.46257001778149" lon="11.145891426895366"><ele>139.79999999999998</ele><time>2026-04-07T13:15:39.999Z</time></trkpt><trkpt lat="43.46248981956205" lon="11.145919452798157"><ele>137.0</ele><time>2026-04-07T13:15:40.999Z</time></trkpt><trkpt lat="43.462405564136766" lon="11.145947863079892"><ele>137.0</ele><time>2026-04-07T13:15:41.999Z</time></trkpt><trkpt lat="43.462318339584975" lon="11.145982252459081"><ele>137.0</ele><time>2026-04-07T13:15:42.999Z</time></trkpt><trkpt lat="43.4622267147312" lon="11.146016928765377"><ele>137.0</ele><time>2026-04-07T13:15:43.999Z</time></trkpt><trkpt lat="43.46213260168509" lon="11.146056813546236"><ele>137.0</ele><time>2026-04-07T13:15:44.999Z</time></trkpt><trkpt lat="43.46203726468359" lon="11.146096479908044"><ele>137.0</ele><time>2026-04-07T13:15:45.999Z</time></trkpt><trkpt lat="43.46194077408342" lon="11.146128609926999"><ele>139.0</ele><time>2026-04-07T13:15:46.999Z</time></trkpt><trkpt lat="43.46183655829999" lon="11.146168107519607"><ele>141.0</ele><time>2026-04-07T13:15:47.999Z</time></trkpt><trkpt lat="43.46171528414124" lon="11.146209363549696"><ele>143.0</ele><time>2026-04-07T13:15:48.999Z</time></trkpt><trkpt lat="43.46159680347029" lon="11.146250598029743"><ele>145.0</ele><time>2026-04-07T13:15:49.999Z</time></trkpt><trkpt lat="43.46146687899096" lon="11.146285562952905"><ele>145.0</ele><time>2026-04-07T13:15:50.999Z</time></trkpt><trkpt lat="43.46133515848012" lon="11.146338026217594"><ele>145.0</ele><time>2026-04-07T13:15:51.999Z</time></trkpt><trkpt lat="43.46119255876022" lon="11.146394484335234"><ele>145.0</ele><time>2026-04-07T13:15:52.999Z</time></trkpt><trkpt lat="43.46104727955006" lon="11.146453137504691"><ele>145.0</ele><time>2026-04-07T13:15:53.999Z</time></trkpt><trkpt lat="43.46092380521912" lon="11.146495317786712"><ele>148.0</ele><time>2026-04-07T13:15:54.999Z</time></trkpt><trkpt lat="43.46081370237658" lon="11.146552601955035"><ele>151.0</ele><time>2026-04-07T13:15:55.999Z</time></trkpt><trkpt lat="43.46070034482207" lon="11.146603291902313"><ele>154.0</ele><time>2026-04-07T13:15:56.999Z</time></trkpt><trkpt lat="43.46057692311207" lon="11.146683063894605"><ele>157.0</ele><time>2026-04-07T13:15:57.999Z</time></trkpt><trkpt lat="43.460448541714655" lon="11.146780124318626"><ele>159.25</ele><time>2026-04-07T13:15:58.999Z</time></trkpt><trkpt lat="43.46032212792329" lon="11.146889741911192"><ele>161.5</ele><time>2026-04-07T13:15:59.999Z</time></trkpt><trkpt lat="43.46020814008755" lon="11.146988345856663"><ele>163.75</ele><time>2026-04-07T13:16:00.999Z</time></trkpt><trkpt lat="43.460108506515354" lon="11.147074532799435"><ele>166.0</ele><time>2026-04-07T13:16:01.999Z</time></trkpt><trkpt lat="43.46000771346188" lon="11.147178946212621"><ele>166.0</ele><time>2026-04-07T13:16:02.999Z</time></trkpt><trkpt lat="43.45989801385211" lon="11.147274553051068"><ele>166.0</ele><time>2026-04-07T13:16:03.999Z</time></trkpt><trkpt lat="43.45978200432394" lon="11.147378416861807"><ele>166.0</ele><time>2026-04-07T13:16:04.999Z</time></trkpt><trkpt lat="43.45965789067047" lon="11.147459667394417"><ele>166.0</ele><time>2026-04-07T13:16:05.999Z</time></trkpt><trkpt lat="43.459557082415586" lon="11.147547788951588"><ele>166.25</ele><time>2026-04-07T13:16:06.999Z</time></trkpt><trkpt lat="43.45945522275617" lon="11.147641205236175"><ele>166.5</ele><time>2026-04-07T13:16:07.999Z</time></trkpt><trkpt lat="43.45935214415019" lon="11.147744322035836"><ele>166.75</ele><time>2026-04-07T13:16:08.999Z</time></trkpt><trkpt lat="43.459243697509365" lon="11.147865533384563"><ele>167.0</ele><time>2026-04-07T13:16:09.999Z</time></trkpt><trkpt lat="43.45913593948156" lon="11.147997409547457"><ele>167.0</ele><time>2026-04-07T13:16:10.999Z</time></trkpt><trkpt lat="43.459046502359165" lon="11.148117444847468"><ele>167.0</ele><time>2026-04-07T13:16:11.999Z</time></trkpt><trkpt lat="43.45897368727996" lon="11.148234107205186"><ele>167.0</ele><time>2026-04-07T13:16:12.999Z</time></trkpt><trkpt lat="43.45890718818591" lon="11.148351381174768"><ele>167.0</ele><time>2026-04-07T13:16:13.999Z</time></trkpt><trkpt lat="43.45883690488431" lon="11.148469587087122"><ele>169.39999999999998</ele><time>2026-04-07T13:16:14.999Z</time></trkpt><trkpt lat="43.458766318514115" lon="11.14858928641496"><ele>171.79999999999998</ele><time>2026-04-07T13:16:15.999Z</time></trkpt><trkpt lat="43.45869387152158" lon="11.148707521149824"><ele>174.2</ele><time>2026-04-07T13:16:16.999Z</time></trkpt><trkpt lat="43.45863001853148" lon="11.148809872616265"><ele>176.6</ele><time>2026-04-07T13:16:17.999Z</time></trkpt><trkpt lat="43.458569514094734" lon="11.148908435423149"><ele>179.0</ele><time>2026-04-07T13:16:18.999Z</time></trkpt><trkpt lat="43.458509963439845" lon="11.14901106252923"><ele>178.25</ele><time>2026-04-07T13:16:19.999Z</time></trkpt><trkpt lat="43.45844188452761" lon="11.14912718256304"><ele>177.5</ele><time>2026-04-07T13:16:20.999Z</time></trkpt><trkpt lat="43.458366167935345" lon="11.149256100190323"><ele>176.75</ele><time>2026-04-07T13:16:21.999Z</time></trkpt><trkpt lat="43.458280300582665" lon="11.149403976222336"><ele>176.0</ele><time>2026-04-07T13:16:22.999Z</time></trkpt><trkpt lat="43.45820186822412" lon="11.14952340309547"><ele>176.0</ele><time>2026-04-07T13:16:23.999Z</time></trkpt><trkpt lat="43.458138520263766" lon="11.14963734634793"><ele>176.0</ele><time>2026-04-07T13:16:24.999Z</time></trkpt><trkpt lat="43.458078862004335" lon="11.149740727041697"><ele>176.0</ele><time>2026-04-07T13:16:25.999Z</time></trkpt><trkpt lat="43.45801942791953" lon="11.149840025259058"><ele>176.0</ele><time>2026-04-07T13:16:26.999Z</time></trkpt><trkpt lat="43.45795704754753" lon="11.149947556744317"><ele>176.0</ele><time>2026-04-07T13:16:27.999Z</time></trkpt><trkpt lat="43.457889166710125" lon="11.150064920110507"><ele>175.5</ele><time>2026-04-07T13:16:29Z</time></trkpt><trkpt lat="43.4578201274219" lon="11.150180046269211"><ele>175.0</ele><time>2026-04-07T13:16:30Z</time></trkpt><trkpt lat="43.45775147953536" lon="11.150300843124596"><ele>174.5</ele><time>2026-04-07T13:16:31Z</time></trkpt><trkpt lat="43.4576751054595" lon="11.150429524283973"><ele>174.0</ele><time>2026-04-07T13:16:32Z</time></trkpt><trkpt lat="43.45759143258111" lon="11.150569607996367"><ele>174.0</ele><time>2026-04-07T13:16:33Z</time></trkpt><trkpt lat="43.45750578929148" lon="11.150703921977115"><ele>174.0</ele><time>2026-04-07T13:16:34Z</time></trkpt><trkpt lat="43.45742372017507" lon="11.150837549577936"><ele>174.0</ele><time>2026-04-07T13:16:35Z</time></trkpt><trkpt lat="43.45734123077845" lon="11.150975777272535"><ele>174.0</ele><time>2026-04-07T13:16:36Z</time></trkpt><trkpt lat="43.45725969436406" lon="11.151112464900867"><ele>173.75</ele><time>2026-04-07T13:16:37Z</time></trkpt><trkpt lat="43.45716957357902" lon="11.151262501980879"><ele>173.5</ele><time>2026-04-07T13:16:38Z</time></trkpt><trkpt lat="43.4570829054996" lon="11.151407844337438"><ele>173.25</ele><time>2026-04-07T13:16:39Z</time></trkpt><trkpt lat="43.457001504477056" lon="11.15154268743186"><ele>173.0</ele><time>2026-04-07T13:16:40Z</time></trkpt><trkpt lat="43.45691763915646" lon="11.151664241848177"><ele>169.4</ele><time>2026-04-07T13:16:41Z</time></trkpt><trkpt lat="43.45683099740079" lon="11.1517716465593"><ele>165.8</ele><time>2026-04-07T13:16:42Z</time></trkpt><trkpt lat="43.45673823541913" lon="11.151854589057688"><ele>162.2</ele><time>2026-04-07T13:16:43Z</time></trkpt><trkpt lat="43.45664711421382" lon="11.151930743842058"><ele>158.6</ele><time>2026-04-07T13:16:44Z</time></trkpt><trkpt lat="43.456542196864405" lon="11.151928751977742"><ele>155.0</ele><time>2026-04-07T13:16:45Z</time></trkpt><trkpt lat="43.45642513569678" lon="11.151892377904476"><ele>155.0</ele><time>2026-04-07T13:16:46Z</time></trkpt><trkpt lat="43.456290935129466" lon="11.151812093548921"><ele>155.0</ele><time>2026-04-07T13:16:47Z</time></trkpt><trkpt lat="43.456155130141816" lon="11.151713072805586"><ele>155.0</ele><time>2026-04-07T13:16:48Z</time></trkpt><trkpt lat="43.45601685113431" lon="11.151600817537986"><ele>157.25</ele><time>2026-04-07T13:16:49Z</time></trkpt><trkpt lat="43.4558905898365" lon="11.151505902248926"><ele>159.5</ele><time>2026-04-07T13:16:50Z</time></trkpt><trkpt lat="43.45578334612878" lon="11.151415263929538"><ele>161.75</ele><time>2026-04-07T13:16:51Z</time></trkpt><trkpt lat="43.455673196875615" lon="11.151335615811073"><ele>164.0</ele><time>2026-04-07T13:16:52Z</time></trkpt><trkpt lat="43.45556506231582" lon="11.151259435602373"><ele>164.0</ele><time>2026-04-07T13:16:53Z</time></trkpt><trkpt lat="43.455458076855855" lon="11.151176554266726"><ele>164.0</ele><time>2026-04-07T13:16:54Z</time></trkpt><trkpt lat="43.45534990717806" lon="11.151085912543731"><ele>164.0</ele><time>2026-04-07T13:16:55Z</time></trkpt><trkpt lat="43.4552347922102" lon="11.150997578906843"><ele>164.0</ele><time>2026-04-07T13:16:56Z</time></trkpt><trkpt lat="43.45512181368273" lon="11.150907807992295"><ele>163.75</ele><time>2026-04-07T13:16:57Z</time></trkpt><trkpt lat="43.45500399494202" lon="11.150820100838454"><ele>163.5</ele><time>2026-04-07T13:16:58Z</time></trkpt><trkpt lat="43.45488532806532" lon="11.150724855625286"><ele>163.25</ele><time>2026-04-07T13:16:59Z</time></trkpt><trkpt lat="43.45476260674247" lon="11.150634923217828"><ele>163.0</ele><time>2026-04-07T13:17:00Z</time></trkpt><trkpt lat="43.45465393416335" lon="11.150553474902763"><ele>159.0</ele><time>2026-04-07T13:17:01Z</time></trkpt><trkpt lat="43.454544424007985" lon="11.15046976710793"><ele>155.0</ele><time>2026-04-07T13:17:02Z</time></trkpt><trkpt lat="43.454434101899174" lon="11.150386665680704"><ele>151.0</ele><time>2026-04-07T13:17:03Z</time></trkpt><trkpt lat="43.45432864972945" lon="11.150306405965523"><ele>147.0</ele><time>2026-04-07T13:17:04Z</time></trkpt><trkpt lat="43.4542323345273" lon="11.150226773071823"><ele>147.0</ele><time>2026-04-07T13:17:05Z</time></trkpt><trkpt lat="43.454142519835024" lon="11.150159936516769"><ele>147.0</ele><time>2026-04-07T13:17:06Z</time></trkpt><trkpt lat="43.45404920570969" lon="11.150099376957463"><ele>147.0</ele><time>2026-04-07T13:17:07Z</time></trkpt><trkpt lat="43.45396452001818" lon="11.150051140836535"><ele>147.0</ele><time>2026-04-07T13:17:08Z</time></trkpt><trkpt lat="43.45387549208448" lon="11.150008897909027"><ele>147.0</ele><time>2026-04-07T13:17:09Z</time></trkpt><trkpt lat="43.45378156542902" lon="11.150011586751882"><ele>144.0</ele><time>2026-04-07T13:17:10Z</time></trkpt><trkpt lat="43.453676669028084" lon="11.150049553854267"><ele>141.0</ele><time>2026-04-07T13:17:11Z</time></trkpt><trkpt lat="43.45359577272818" lon="11.150145328853906"><ele>138.0</ele><time>2026-04-07T13:17:12Z</time></trkpt><trkpt lat="43.45352548212726" lon="11.150238230413471"><ele>135.0</ele><time>2026-04-07T13:17:13Z</time></trkpt><trkpt lat="43.45346474678261" lon="11.150352973979516"><ele>132.0</ele><time>2026-04-07T13:17:14Z</time></trkpt><trkpt lat="43.45340344313577" lon="11.150476460494255"><ele>132.0</ele><time>2026-04-07T13:17:15Z</time></trkpt><trkpt lat="43.45335243950097" lon="11.150587293940493"><ele>132.0</ele><time>2026-04-07T13:17:16Z</time></trkpt><trkpt lat="43.453307013097685" lon="11.150691556313149"><ele>132.0</ele><time>2026-04-07T13:17:17Z</time></trkpt><trkpt lat="43.45325852023798" lon="11.150785211411604"><ele>132.0</ele><time>2026-04-07T13:17:18Z</time></trkpt><trkpt lat="43.453219019538714" lon="11.150873168440407"><ele>132.0</ele><time>2026-04-07T13:17:19Z</time></trkpt><trkpt lat="43.45317719658977" lon="11.150955716175917"><ele>132.0</ele><time>2026-04-07T13:17:20Z</time></trkpt><trkpt lat="43.45311414564324" lon="11.151011148363294"><ele>131.0</ele><time>2026-04-07T13:17:21Z</time></trkpt><trkpt lat="43.45306669608756" lon="11.151078291579871"><ele>130.0</ele><time>2026-04-07T13:17:22Z</time></trkpt><trkpt lat="43.45297192112327" lon="11.151134278618274"><ele>129.0</ele><time>2026-04-07T13:17:24Z</time></trkpt><trkpt lat="43.452921054725465" lon="11.15104460078205"><ele>128.0</ele><time>2026-04-07T13:17:25Z</time></trkpt><trkpt lat="43.45281612954689" lon="11.150983361037865"><ele>127.0</ele><time>2026-04-07T13:17:27Z</time></trkpt><trkpt lat="43.45278064090232" lon="11.150888321962713"><ele>126.0</ele><time>2026-04-07T13:17:28Z</time></trkpt><trkpt lat="43.452730532882065" lon="11.150815926532502"><ele>125.33333333333333</ele><time>2026-04-07T13:17:29Z</time></trkpt><trkpt lat="43.45272025080538" lon="11.150709498257102"><ele>124.66666666666666</ele><time>2026-04-07T13:17:30Z</time></trkpt><trkpt lat="43.45267124481356" lon="11.150641491062888"><ele>124.0</ele><time>2026-04-07T13:17:31Z</time></trkpt><trkpt lat="43.45260964920862" lon="11.150579460717589"><ele>123.33333333333333</ele><time>2026-04-07T13:17:32Z</time></trkpt><trkpt lat="43.45252746769584" lon="11.15051555683885"><ele>122.66666666666666</ele><time>2026-04-07T13:17:33Z</time></trkpt><trkpt lat="43.45243777344862" lon="11.150461809538037"><ele>122.0</ele><time>2026-04-07T13:17:34Z</time></trkpt><trkpt lat="43.45233876900117" lon="11.150414356226213"><ele>122.0</ele><time>2026-04-07T13:17:35Z</time></trkpt><trkpt lat="43.45222643410328" lon="11.150374743052542"><ele>122.0</ele><time>2026-04-07T13:17:36Z</time></trkpt><trkpt lat="43.45209991713745" lon="11.15033420050555"><ele>122.0</ele><time>2026-04-07T13:17:37Z</time></trkpt><trkpt lat="43.45196631591776" lon="11.150279645669734"><ele>122.0</ele><time>2026-04-07T13:17:38Z</time></trkpt><trkpt lat="43.451846609260805" lon="11.150205505864957"><ele>123.5</ele><time>2026-04-07T13:17:39Z</time></trkpt><trkpt lat="43.451738468763146" lon="11.150122762033309"><ele>125.0</ele><time>2026-04-07T13:17:40Z</time></trkpt><trkpt lat="43.45163384500489" lon="11.150017216829141"><ele>126.5</ele><time>2026-04-07T13:17:41Z</time></trkpt><trkpt lat="43.45153472985235" lon="11.14990199903112"><ele>128.0</ele><time>2026-04-07T13:17:42Z</time></trkpt><trkpt lat="43.45143044044906" lon="11.149788988560333"><ele>128.0</ele><time>2026-04-07T13:17:43Z</time></trkpt><trkpt lat="43.45133169349887" lon="11.149693082316173"><ele>128.0</ele><time>2026-04-07T13:17:44Z</time></trkpt><trkpt lat="43.45123288290228" lon="11.149606108380278"><ele>128.0</ele><time>2026-04-07T13:17:45Z</time></trkpt><trkpt lat="43.45112721115579" lon="11.149527129814281"><ele>128.0</ele><time>2026-04-07T13:17:45.999Z</time></trkpt><trkpt lat="43.451021447284084" lon="11.149462013769009"><ele>127.0</ele><time>2026-04-07T13:17:46.999Z</time></trkpt><trkpt lat="43.450914507515385" lon="11.149405497338895"><ele>126.0</ele><time>2026-04-07T13:17:47.999Z</time></trkpt><trkpt lat="43.45080641709207" lon="11.14935495549604"><ele>125.0</ele><time>2026-04-07T13:17:48.999Z</time></trkpt><trkpt lat="43.450693554230206" lon="11.149307273687155"><ele>124.0</ele><time>2026-04-07T13:17:49.999Z</time></trkpt><trkpt lat="43.45058417212718" lon="11.14924843189345"><ele>124.0</ele><time>2026-04-07T13:17:50.999Z</time></trkpt><trkpt lat="43.450476283604694" lon="11.1491723290693"><ele>124.0</ele><time>2026-04-07T13:17:51.999Z</time></trkpt><trkpt lat="43.450367403121504" lon="11.149068839771736"><ele>124.0</ele><time>2026-04-07T13:17:52.999Z</time></trkpt><trkpt lat="43.45026731274582" lon="11.148951608920214"><ele>124.0</ele><time>2026-04-07T13:17:53.999Z</time></trkpt><trkpt lat="43.450173022379516" lon="11.148822544617525"><ele>124.25</ele><time>2026-04-07T13:17:54.999Z</time></trkpt><trkpt lat="43.45008070218256" lon="11.148690083699778"><ele>124.5</ele><time>2026-04-07T13:17:55.999Z</time></trkpt><trkpt lat="43.4499731662052" lon="11.148557316644052"><ele>124.75</ele><time>2026-04-07T13:17:56.999Z</time></trkpt><trkpt lat="43.449865337256284" lon="11.148417832108276"><ele>125.0</ele><time>2026-04-07T13:17:57.999Z</time></trkpt><trkpt lat="43.44977675714875" lon="11.148291666930584"><ele>126.75</ele><time>2026-04-07T13:17:58.999Z</time></trkpt><trkpt lat="43.44968551193236" lon="11.148175932452144"><ele>128.5</ele><time>2026-04-07T13:17:59.999Z</time></trkpt><trkpt lat="43.449575550094984" lon="11.148078914521516"><ele>130.25</ele><time>2026-04-07T13:18:00.999Z</time></trkpt><trkpt lat="43.44944489664771" lon="11.148008893011786"><ele>132.0</ele><time>2026-04-07T13:18:01.999Z</time></trkpt><trkpt lat="43.449313145421236" lon="11.147955750554312"><ele>132.5</ele><time>2026-04-07T13:18:02.999Z</time></trkpt><trkpt lat="43.449192525103165" lon="11.147915354021327"><ele>133.0</ele><time>2026-04-07T13:18:03.999Z</time></trkpt><trkpt lat="43.44906381199602" lon="11.147917248641354"><ele>133.5</ele><time>2026-04-07T13:18:04.999Z</time></trkpt><trkpt lat="43.44893082683698" lon="11.147952836598735"><ele>134.0</ele><time>2026-04-07T13:18:05.999Z</time></trkpt><trkpt lat="43.44879963457984" lon="11.1480318765482"><ele>135.25</ele><time>2026-04-07T13:18:06.999Z</time></trkpt><trkpt lat="43.44868046374862" lon="11.148094572868585"><ele>136.5</ele><time>2026-04-07T13:18:07.999Z</time></trkpt><trkpt lat="43.44856747666422" lon="11.148166454051932"><ele>137.75</ele><time>2026-04-07T13:18:08.999Z</time></trkpt><trkpt lat="43.4484625233409" lon="11.148261987404991"><ele>139.0</ele><time>2026-04-07T13:18:09.999Z</time></trkpt><trkpt lat="43.44836122882679" lon="11.148376012178174"><ele>138.25</ele><time>2026-04-07T13:18:10.999Z</time></trkpt><trkpt lat="43.448244704369884" lon="11.148494059887277"><ele>137.5</ele><time>2026-04-07T13:18:11.999Z</time></trkpt><trkpt lat="43.44812790362704" lon="11.14863755974157"><ele>136.75</ele><time>2026-04-07T13:18:12.999Z</time></trkpt><trkpt lat="43.448016387704975" lon="11.148767546069346"><ele>136.0</ele><time>2026-04-07T13:18:13.999Z</time></trkpt><trkpt lat="43.44791548795563" lon="11.148880263573492"><ele>136.0</ele><time>2026-04-07T13:18:14.999Z</time></trkpt><trkpt lat="43.4478140833426" lon="11.148987391576284"><ele>136.0</ele><time>2026-04-07T13:18:15.999Z</time></trkpt><trkpt lat="43.447698740166885" lon="11.149094851438631"><ele>136.0</ele><time>2026-04-07T13:18:16.999Z</time></trkpt><trkpt lat="43.447572452840426" lon="11.149187594847564"><ele>136.0</ele><time>2026-04-07T13:18:17.999Z</time></trkpt><trkpt lat="43.447443160489144" lon="11.149250508982554"><ele>135.5</ele><time>2026-04-07T13:18:18.999Z</time></trkpt><trkpt lat="43.447321720137104" lon="11.149300513679664"><ele>135.0</ele><time>2026-04-07T13:18:19.999Z</time></trkpt><trkpt lat="43.44718915710308" lon="11.149308890628664"><ele>134.5</ele><time>2026-04-07T13:18:20.999Z</time></trkpt><trkpt lat="43.44704747804063" lon="11.149310925823906"><ele>134.0</ele><time>2026-04-07T13:18:21.999Z</time></trkpt><trkpt lat="43.446901891206494" lon="11.149317712591374"><ele>134.0</ele><time>2026-04-07T13:18:22.999Z</time></trkpt><trkpt lat="43.44675070392927" lon="11.149326424630027"><ele>134.0</ele><time>2026-04-07T13:18:23.999Z</time></trkpt><trkpt lat="43.44659168762664" lon="11.149338407909292"><ele>134.0</ele><time>2026-04-07T13:18:24.999Z</time></trkpt><trkpt lat="43.44642693201098" lon="11.149364991687904"><ele>134.66666666666666</ele><time>2026-04-07T13:18:25.999Z</time></trkpt><trkpt lat="43.44625817215727" lon="11.149397505903352"><ele>135.33333333333334</ele><time>2026-04-07T13:18:26.999Z</time></trkpt><trkpt lat="43.4461016449858" lon="11.149423874208756"><ele>136.0</ele><time>2026-04-07T13:18:27.999Z</time></trkpt><trkpt lat="43.44595353906716" lon="11.14944998784045"><ele>136.0</ele><time>2026-04-07T13:18:28.999Z</time></trkpt><trkpt lat="43.44581313318698" lon="11.14947477471908"><ele>136.0</ele><time>2026-04-07T13:18:29.999Z</time></trkpt><trkpt lat="43.44566169676732" lon="11.149501173659518"><ele>136.0</ele><time>2026-04-07T13:18:30.999Z</time></trkpt><trkpt lat="43.44550322121771" lon="11.149526901613557"><ele>135.25</ele><time>2026-04-07T13:18:31.999Z</time></trkpt><trkpt lat="43.445355223656634" lon="11.149537888989839"><ele>134.5</ele><time>2026-04-07T13:18:32.999Z</time></trkpt><trkpt lat="43.44520894712819" lon="11.149548713323103"><ele>133.75</ele><time>2026-04-07T13:18:33.999Z</time></trkpt><trkpt lat="43.44506110502862" lon="11.149559002223894"><ele>133.0</ele><time>2026-04-07T13:18:35Z</time></trkpt><trkpt lat="43.444909836271655" lon="11.149564974633009"><ele>133.0</ele><time>2026-04-07T13:18:36Z</time></trkpt><trkpt lat="43.4447473199494" lon="11.149565662338917"><ele>133.0</ele><time>2026-04-07T13:18:37Z</time></trkpt><trkpt lat="43.444590011274094" lon="11.149569977844505"><ele>133.0</ele><time>2026-04-07T13:18:38Z</time></trkpt><trkpt lat="43.44443001954172" lon="11.14957544129671"><ele>133.0</ele><time>2026-04-07T13:18:39Z</time></trkpt><trkpt lat="43.4442819200233" lon="11.14957852779653"><ele>133.0</ele><time>2026-04-07T13:18:40Z</time></trkpt><trkpt lat="43.44414001298946" lon="11.149578284255695"><ele>133.0</ele><time>2026-04-07T13:18:41Z</time></trkpt><trkpt lat="43.44399145197757" lon="11.149571752026088"><ele>133.0</ele><time>2026-04-07T13:18:42Z</time></trkpt><trkpt lat="43.44383852289962" lon="11.149570332721327"><ele>136.0</ele><time>2026-04-07T13:18:43Z</time></trkpt><trkpt lat="43.44368048892707" lon="11.149573128053728"><ele>139.0</ele><time>2026-04-07T13:18:44Z</time></trkpt><trkpt lat="43.443516736407204" lon="11.14957747602119"><ele>142.0</ele><time>2026-04-07T13:18:45Z</time></trkpt><trkpt lat="43.44334075279984" lon="11.149578017310002"><ele>142.0</ele><time>2026-04-07T13:18:46Z</time></trkpt><trkpt lat="43.44316954010608" lon="11.149573146389022"><ele>142.0</ele><time>2026-04-07T13:18:47Z</time></trkpt><trkpt lat="43.443024781155565" lon="11.149562770184446"><ele>142.0</ele><time>2026-04-07T13:18:48Z</time></trkpt><trkpt lat="43.442864980392834" lon="11.14955316587225"><ele>145.66666666666669</ele><time>2026-04-07T13:18:49Z</time></trkpt><trkpt lat="43.442691529549954" lon="11.149547224188463"><ele>149.33333333333334</ele><time>2026-04-07T13:18:50Z</time></trkpt><trkpt lat="43.4425185823832" lon="11.149522087445284"><ele>153.0</ele><time>2026-04-07T13:18:51Z</time></trkpt><trkpt lat="43.44236163129287" lon="11.149529565111203"><ele>153.0</ele><time>2026-04-07T13:18:52Z</time></trkpt><trkpt lat="43.44219596123315" lon="11.149574559547863"><ele>153.0</ele><time>2026-04-07T13:18:53Z</time></trkpt><trkpt lat="43.44201453987897" lon="11.149577778187101"><ele>153.0</ele><time>2026-04-07T13:18:54Z</time></trkpt><trkpt lat="43.44184418982904" lon="11.149602540940663"><ele>157.0</ele><time>2026-04-07T13:18:55Z</time></trkpt><trkpt lat="43.44169092732905" lon="11.149624819785778"><ele>161.0</ele><time>2026-04-07T13:18:56Z</time></trkpt><trkpt lat="43.44153831602178" lon="11.14966342446627"><ele>165.0</ele><time>2026-04-07T13:18:57Z</time></trkpt><trkpt lat="43.44138799505784" lon="11.149669473364957"><ele>163.75</ele><time>2026-04-07T13:18:58Z</time></trkpt><trkpt lat="43.441249649077285" lon="11.149663332376036"><ele>162.5</ele><time>2026-04-07T13:18:59Z</time></trkpt><trkpt lat="43.44111509962702" lon="11.149643479726569"><ele>161.25</ele><time>2026-04-07T13:19:00Z</time></trkpt><trkpt lat="43.44097541171217" lon="11.149621930302736"><ele>160.0</ele><time>2026-04-07T13:19:01Z</time></trkpt><trkpt lat="43.44083420913823" lon="11.14959680758201"><ele>160.0</ele><time>2026-04-07T13:19:02Z</time></trkpt><trkpt lat="43.44068957478553" lon="11.149569204863688"><ele>160.0</ele><time>2026-04-07T13:19:03Z</time></trkpt><trkpt lat="43.44054167043799" lon="11.149532337347125"><ele>160.0</ele><time>2026-04-07T13:19:04Z</time></trkpt><trkpt lat="43.44039009297673" lon="11.149489208532591"><ele>160.0</ele><time>2026-04-07T13:19:05Z</time></trkpt><trkpt lat="43.440235456804054" lon="11.149435744688338"><ele>160.0</ele><time>2026-04-07T13:19:06Z</time></trkpt><trkpt lat="43.440083157853245" lon="11.149366778479033"><ele>160.0</ele><time>2026-04-07T13:19:07Z</time></trkpt><trkpt lat="43.439941714297674" lon="11.149291018554116"><ele>160.0</ele><time>2026-04-07T13:19:08Z</time></trkpt><trkpt lat="43.43981612745499" lon="11.149209447327653"><ele>160.0</ele><time>2026-04-07T13:19:09Z</time></trkpt><trkpt lat="43.43970311727447" lon="11.149134566751279"><ele>160.0</ele><time>2026-04-07T13:19:10Z</time></trkpt><trkpt lat="43.439600333864874" lon="11.14906507518151"><ele>160.0</ele><time>2026-04-07T13:19:11Z</time></trkpt><trkpt lat="43.43949476566536" lon="11.148989431406184"><ele>161.5</ele><time>2026-04-07T13:19:12Z</time></trkpt><trkpt lat="43.43938730367235" lon="11.148901265869526"><ele>163.0</ele><time>2026-04-07T13:19:13Z</time></trkpt><trkpt lat="43.43927693837936" lon="11.148782850875733"><ele>164.5</ele><time>2026-04-07T13:19:14Z</time></trkpt><trkpt lat="43.43917018712409" lon="11.148628729886784"><ele>166.0</ele><time>2026-04-07T13:19:15Z</time></trkpt><trkpt lat="43.439057452237925" lon="11.148474992150081"><ele>166.0</ele><time>2026-04-07T13:19:16Z</time></trkpt><trkpt lat="43.43893799992862" lon="11.148311718958952"><ele>166.0</ele><time>2026-04-07T13:19:17Z</time></trkpt><trkpt lat="43.438828482548516" lon="11.148162670614177"><ele>166.0</ele><time>2026-04-07T13:19:18Z</time></trkpt><trkpt lat="43.438727323471625" lon="11.14802235307745"><ele>164.0</ele><time>2026-04-07T13:19:19Z</time></trkpt><trkpt lat="43.43862955983406" lon="11.147887522760051"><ele>162.0</ele><time>2026-04-07T13:19:20Z</time></trkpt><trkpt lat="43.438514322458246" lon="11.147738345256696"><ele>160.0</ele><time>2026-04-07T13:19:21Z</time></trkpt><trkpt lat="43.438409072115405" lon="11.147585668133374"><ele>158.0</ele><time>2026-04-07T13:19:22Z</time></trkpt><trkpt lat="43.43831057327038" lon="11.147444683691973"><ele>154.66666666666666</ele><time>2026-04-07T13:19:23Z</time></trkpt><trkpt lat="43.438208741270664" lon="11.147301417023087"><ele>151.33333333333334</ele><time>2026-04-07T13:19:24Z</time></trkpt><trkpt lat="43.43809782944443" lon="11.14714197927086"><ele>148.0</ele><time>2026-04-07T13:19:25Z</time></trkpt><trkpt lat="43.43798143060917" lon="11.146973308883261"><ele>146.33333333333334</ele><time>2026-04-07T13:19:26Z</time></trkpt><trkpt lat="43.437869243693655" lon="11.146817283309812"><ele>144.66666666666666</ele><time>2026-04-07T13:19:27Z</time></trkpt><trkpt lat="43.43776027357913" lon="11.146665475356246"><ele>143.0</ele><time>2026-04-07T13:19:28Z</time></trkpt><trkpt lat="43.437654159090165" lon="11.146517514924904"><ele>143.0</ele><time>2026-04-07T13:19:29Z</time></trkpt><trkpt lat="43.43755109070711" lon="11.146370739841398"><ele>143.0</ele><time>2026-04-07T13:19:30Z</time></trkpt><trkpt lat="43.43744285080528" lon="11.146213603049306"><ele>143.0</ele><time>2026-04-07T13:19:31Z</time></trkpt><trkpt lat="43.43733598089215" lon="11.146060732002148"><ele>143.0</ele><time>2026-04-07T13:19:32Z</time></trkpt><trkpt lat="43.437231187720755" lon="11.145915723441982"><ele>143.0</ele><time>2026-04-07T13:19:33Z</time></trkpt><trkpt lat="43.43713202259492" lon="11.145778385446782"><ele>143.0</ele><time>2026-04-07T13:19:34Z</time></trkpt><trkpt lat="43.43703062846507" lon="11.145644816212299"><ele>143.0</ele><time>2026-04-07T13:19:35Z</time></trkpt><trkpt lat="43.4369202703056" lon="11.14552447964776"><ele>141.25</ele><time>2026-04-07T13:19:36Z</time></trkpt><trkpt lat="43.436802834406386" lon="11.145428791575783"><ele>139.5</ele><time>2026-04-07T13:19:37Z</time></trkpt><trkpt lat="43.43669008541216" lon="11.145359597993922"><ele>137.75</ele><time>2026-04-07T13:19:38Z</time></trkpt><trkpt lat="43.43656808917918" lon="11.145308773333058"><ele>136.0</ele><time>2026-04-07T13:19:39Z</time></trkpt><trkpt lat="43.43642972258878" lon="11.145277154681645"><ele>134.33333333333334</ele><time>2026-04-07T13:19:40Z</time></trkpt><trkpt lat="43.436264845671495" lon="11.145269511824077"><ele>132.66666666666666</ele><time>2026-04-07T13:19:41Z</time></trkpt><trkpt lat="43.4361054057702" lon="11.145268966505233"><ele>131.0</ele><time>2026-04-07T13:19:42Z</time></trkpt><trkpt lat="43.43595182789411" lon="11.14528177717921"><ele>131.0</ele><time>2026-04-07T13:19:43Z</time></trkpt><trkpt lat="43.43580256035992" lon="11.145284787106045"><ele>131.0</ele><time>2026-04-07T13:19:44Z</time></trkpt><trkpt lat="43.43564222432695" lon="11.145267459387533"><ele>131.0</ele><time>2026-04-07T13:19:45Z</time></trkpt><trkpt lat="43.43548779806775" lon="11.145219173671675"><ele>130.25</ele><time>2026-04-07T13:19:46Z</time></trkpt><trkpt lat="43.435342873933486" lon="11.145149895089746"><ele>129.5</ele><time>2026-04-07T13:19:47Z</time></trkpt><trkpt lat="43.435209465756955" lon="11.14507329901168"><ele>128.75</ele><time>2026-04-07T13:19:48Z</time></trkpt><trkpt lat="43.435077960641465" lon="11.144999118741762"><ele>128.0</ele><time>2026-04-07T13:19:49Z</time></trkpt><trkpt lat="43.43493108258439" lon="11.144919566720572"><ele>126.25</ele><time>2026-04-07T13:19:50Z</time></trkpt><trkpt lat="43.43478959849198" lon="11.144838970047548"><ele>124.5</ele><time>2026-04-07T13:19:51Z</time></trkpt><trkpt lat="43.43466005537287" lon="11.144762258375433"><ele>122.75</ele><time>2026-04-07T13:19:52Z</time></trkpt><trkpt lat="43.43453992187708" lon="11.144671329774322"><ele>121.0</ele><time>2026-04-07T13:19:52.999Z</time></trkpt><trkpt lat="43.43442379011872" lon="11.144563963493136"><ele>121.0</ele><time>2026-04-07T13:19:53.999Z</time></trkpt><trkpt lat="43.43431540962457" lon="11.144441547735665"><ele>121.0</ele><time>2026-04-07T13:19:54.999Z</time></trkpt><trkpt lat="43.43422951941569" lon="11.14431164628544"><ele>121.0</ele><time>2026-04-07T13:19:55.999Z</time></trkpt><trkpt lat="43.434159189995846" lon="11.144190755690333"><ele>121.0</ele><time>2026-04-07T13:19:56.999Z</time></trkpt><trkpt lat="43.43411079308838" lon="11.144084372387999"><ele>121.33333333333334</ele><time>2026-04-07T13:19:57.999Z</time></trkpt><trkpt lat="43.43407740047023" lon="11.143997752769367"><ele>121.66666666666667</ele><time>2026-04-07T13:19:58.999Z</time></trkpt><trkpt lat="43.434053107694396" lon="11.143908110028715"><ele>122.0</ele><time>2026-04-07T13:19:59.999Z</time></trkpt><trkpt lat="43.43403261682582" lon="11.14379831533577"><ele>122.33333333333334</ele><time>2026-04-07T13:20:00.999Z</time></trkpt><trkpt lat="43.43401676025623" lon="11.143655740818595"><ele>122.66666666666667</ele><time>2026-04-07T13:20:01.999Z</time></trkpt><trkpt lat="43.434017610303314" lon="11.143507131773648"><ele>123.0</ele><time>2026-04-07T13:20:02.999Z</time></trkpt><trkpt lat="43.43402710432053" lon="11.143349493040642"><ele>122.80000000000001</ele><time>2026-04-07T13:20:03.999Z</time></trkpt><trkpt lat="43.43403573057257" lon="11.14317625119802"><ele>122.60000000000001</ele><time>2026-04-07T13:20:04.999Z</time></trkpt><trkpt lat="43.434037015528894" lon="11.14302151698783"><ele>122.39999999999999</ele><time>2026-04-07T13:20:05.999Z</time></trkpt><trkpt lat="43.434021939498926" lon="11.142912993329825"><ele>122.19999999999999</ele><time>2026-04-07T13:20:06.999Z</time></trkpt><trkpt lat="43.434003263661815" lon="11.142788878444279"><ele>122.0</ele><time>2026-04-07T13:20:08.999Z</time></trkpt><trkpt lat="43.43398186857529" lon="11.142682551235174"><ele>121.99999999999999</ele><time>2026-04-07T13:20:11.999Z</time></trkpt><trkpt lat="43.433956773506" lon="11.142587738354482"><ele>122.0</ele><time>2026-04-07T13:20:13.999Z</time></trkpt><trkpt lat="43.43393269000519" lon="11.142485292824004"><ele>122.0</ele><time>2026-04-07T13:20:15.999Z</time></trkpt><trkpt lat="43.433816181753144" lon="11.142543650896423"><ele>122.0</ele><time>2026-04-07T13:20:16.999Z</time></trkpt><trkpt lat="43.43375043549082" lon="11.14253909423568"><ele>121.99999999999999</ele><time>2026-04-07T13:20:17.999Z</time></trkpt><trkpt lat="43.43367569558921" lon="11.14253257694795"><ele>122.0</ele><time>2026-04-07T13:20:18.999Z</time></trkpt><trkpt lat="43.433594326537566" lon="11.142496662598816"><ele>122.66666666666666</ele><time>2026-04-07T13:20:19.999Z</time></trkpt><trkpt lat="43.43352294099704" lon="11.142491306357323"><ele>123.33333333333333</ele><time>2026-04-07T13:20:20.999Z</time></trkpt><trkpt lat="43.43344781907634" lon="11.1424635320488"><ele>124.0</ele><time>2026-04-07T13:20:21.999Z</time></trkpt><trkpt lat="43.43337032285526" lon="11.142422255961542"><ele>124.66666666666666</ele><time>2026-04-07T13:20:22.999Z</time></trkpt><trkpt lat="43.43328749173829" lon="11.142376639747674"><ele>125.33333333333333</ele><time>2026-04-07T13:20:23.999Z</time></trkpt><trkpt lat="43.43320102468548" lon="11.142324256457044"><ele>126.0</ele><time>2026-04-07T13:20:24.999Z</time></trkpt><trkpt lat="43.433114470881016" lon="11.14225543038771"><ele>126.0</ele><time>2026-04-07T13:20:25.999Z</time></trkpt><trkpt lat="43.43304358684692" lon="11.142180395335323"><ele>126.0</ele><time>2026-04-07T13:20:26.999Z</time></trkpt><trkpt lat="43.43297170486974" lon="11.142095291960004"><ele>126.0</ele><time>2026-04-07T13:20:27.999Z</time></trkpt><trkpt lat="43.4329088062358" lon="11.141998490454192"><ele>126.0</ele><time>2026-04-07T13:20:28.999Z</time></trkpt><trkpt lat="43.43284409778713" lon="11.141901109405373"><ele>126.0</ele><time>2026-04-07T13:20:29.999Z</time></trkpt><trkpt lat="43.43277728465001" lon="11.141816446520158"><ele>130.25</ele><time>2026-04-07T13:20:30.999Z</time></trkpt><trkpt lat="43.432695511179006" lon="11.141753170573562"><ele>134.5</ele><time>2026-04-07T13:20:31.999Z</time></trkpt><trkpt lat="43.43259861293409" lon="11.141690033278621"><ele>138.75</ele><time>2026-04-07T13:20:32.999Z</time></trkpt><trkpt lat="43.432480991516776" lon="11.141640291751308"><ele>143.0</ele><time>2026-04-07T13:20:33.999Z</time></trkpt><trkpt lat="43.43234276781344" lon="11.141586248713612"><ele>143.75</ele><time>2026-04-07T13:20:34.999Z</time></trkpt><trkpt lat="43.43222039066904" lon="11.141540507979"><ele>144.5</ele><time>2026-04-07T13:20:35.999Z</time></trkpt><trkpt lat="43.43212390158549" lon="11.14146799700401"><ele>145.25</ele><time>2026-04-07T13:20:36.999Z</time></trkpt><trkpt lat="43.4320288452971" lon="11.141359950828488"><ele>146.0</ele><time>2026-04-07T13:20:37.999Z</time></trkpt><trkpt lat="43.43193849306219" lon="11.141244450461329"><ele>146.0</ele><time>2026-04-07T13:20:38.999Z</time></trkpt><trkpt lat="43.43187560912293" lon="11.141144767019718"><ele>146.0</ele><time>2026-04-07T13:20:39.999Z</time></trkpt><trkpt lat="43.43181101397614" lon="11.14105607606639"><ele>146.0</ele><time>2026-04-07T13:20:41Z</time></trkpt><trkpt lat="43.4317284367742" lon="11.1409775978258"><ele>146.0</ele><time>2026-04-07T13:20:42Z</time></trkpt><trkpt lat="43.43162867409582" lon="11.140910145149084"><ele>146.0</ele><time>2026-04-07T13:20:43Z</time></trkpt><trkpt lat="43.43150205673709" lon="11.140855858653437"><ele>146.0</ele><time>2026-04-07T13:20:44Z</time></trkpt><trkpt lat="43.431378893003455" lon="11.140824587581147"><ele>146.0</ele><time>2026-04-07T13:20:45Z</time></trkpt><trkpt lat="43.431260355455024" lon="11.140803589172968"><ele>146.0</ele><time>2026-04-07T13:20:46Z</time></trkpt><trkpt lat="43.4311403091411" lon="11.140780440878995"><ele>146.0</ele><time>2026-04-07T13:20:47Z</time></trkpt><trkpt lat="43.43101698913688" lon="11.14075377046142"><ele>148.5</ele><time>2026-04-07T13:20:48Z</time></trkpt><trkpt lat="43.4308930433999" lon="11.140723121424344"><ele>151.0</ele><time>2026-04-07T13:20:49Z</time></trkpt><trkpt lat="43.430763830532975" lon="11.14069113471471"><ele>153.5</ele><time>2026-04-07T13:20:50Z</time></trkpt><trkpt lat="43.43062785382058" lon="11.140651270324096"><ele>156.0</ele><time>2026-04-07T13:20:51Z</time></trkpt><trkpt lat="43.430487827319645" lon="11.140600161534332"><ele>159.0</ele><time>2026-04-07T13:20:52Z</time></trkpt><trkpt lat="43.430343884049094" lon="11.140529306591137"><ele>162.0</ele><time>2026-04-07T13:20:53Z</time></trkpt><trkpt lat="43.43019590169619" lon="11.140449773815263"><ele>165.0</ele><time>2026-04-07T13:20:54Z</time></trkpt><trkpt lat="43.430051361463164" lon="11.140370155197377"><ele>165.0</ele><time>2026-04-07T13:20:55Z</time></trkpt><trkpt lat="43.42992206219802" lon="11.140296548334385"><ele>165.0</ele><time>2026-04-07T13:20:56Z</time></trkpt><trkpt lat="43.42978909655746" lon="11.14020950739839"><ele>165.0</ele><time>2026-04-07T13:20:57Z</time></trkpt><trkpt lat="43.429667148946834" lon="11.14012131477067"><ele>165.0</ele><time>2026-04-07T13:20:58Z</time></trkpt><trkpt lat="43.42954770995292" lon="11.140025489756813"><ele>165.5</ele><time>2026-04-07T13:20:59Z</time></trkpt><trkpt lat="43.42942361382686" lon="11.139914760980389"><ele>166.0</ele><time>2026-04-07T13:21:00Z</time></trkpt><trkpt lat="43.42929822081958" lon="11.139798655417367"><ele>166.5</ele><time>2026-04-07T13:21:01Z</time></trkpt><trkpt lat="43.42917318354536" lon="11.139691733431645"><ele>167.0</ele><time>2026-04-07T13:21:02Z</time></trkpt><trkpt lat="43.42905164916602" lon="11.139585365955739"><ele>166.5</ele><time>2026-04-07T13:21:03Z</time></trkpt><trkpt lat="43.42892973330707" lon="11.139478051324845"><ele>166.0</ele><time>2026-04-07T13:21:04Z</time></trkpt><trkpt lat="43.42880807689638" lon="11.139376108970277"><ele>165.5</ele><time>2026-04-07T13:21:05Z</time></trkpt><trkpt lat="43.42868400776875" lon="11.139269134344422"><ele>165.0</ele><time>2026-04-07T13:21:06Z</time></trkpt><trkpt lat="43.428556373759186" lon="11.139152476681444"><ele>164.66666666666666</ele><time>2026-04-07T13:21:07Z</time></trkpt><trkpt lat="43.42841960153475" lon="11.13904090089045"><ele>164.33333333333331</ele><time>2026-04-07T13:21:08Z</time></trkpt><trkpt lat="43.42827451373148" lon="11.13892469201746"><ele>164.0</ele><time>2026-04-07T13:21:09Z</time></trkpt><trkpt lat="43.42812508808632" lon="11.138804316305865"><ele>164.0</ele><time>2026-04-07T13:21:10Z</time></trkpt><trkpt lat="43.427991242814066" lon="11.13869244626615"><ele>164.0</ele><time>2026-04-07T13:21:11Z</time></trkpt><trkpt lat="43.42786233761589" lon="11.1385783527394"><ele>164.0</ele><time>2026-04-07T13:21:12Z</time></trkpt><trkpt lat="43.427743942533944" lon="11.138470947839782"><ele>164.0</ele><time>2026-04-07T13:21:13Z</time></trkpt><trkpt lat="43.42763452431749" lon="11.138369853738082"><ele>164.0</ele><time>2026-04-07T13:21:14Z</time></trkpt><trkpt lat="43.427533209338954" lon="11.138280032825826"><ele>164.0</ele><time>2026-04-07T13:21:15Z</time></trkpt><trkpt lat="43.42744349295157" lon="11.138194332212493"><ele>164.0</ele><time>2026-04-07T13:21:16Z</time></trkpt><trkpt lat="43.427364067040344" lon="11.13810282103778"><ele>164.0</ele><time>2026-04-07T13:21:17Z</time></trkpt><trkpt lat="43.427290680428285" lon="11.138017998169738"><ele>164.0</ele><time>2026-04-07T13:21:18Z</time></trkpt><trkpt lat="43.42721719964914" lon="11.137931185951725"><ele>164.0</ele><time>2026-04-07T13:21:19Z</time></trkpt><trkpt lat="43.42713628162974" lon="11.137827523981278"><ele>164.0</ele><time>2026-04-07T13:21:20Z</time></trkpt><trkpt lat="43.427041071280655" lon="11.13770527342062"><ele>164.0</ele><time>2026-04-07T13:21:21Z</time></trkpt><trkpt lat="43.42693952276873" lon="11.13757363959334"><ele>164.0</ele><time>2026-04-07T13:21:22Z</time></trkpt><trkpt lat="43.42682708535776" lon="11.137429218240591"><ele>164.0</ele><time>2026-04-07T13:21:23Z</time></trkpt><trkpt lat="43.42671859267373" lon="11.137291595247808"><ele>164.0</ele><time>2026-04-07T13:21:24Z</time></trkpt><trkpt lat="43.42660694370138" lon="11.137146939134771"><ele>164.0</ele><time>2026-04-07T13:21:25Z</time></trkpt><trkpt lat="43.42649085519522" lon="11.136996594072452"><ele>164.0</ele><time>2026-04-07T13:21:26Z</time></trkpt><trkpt lat="43.426369673248225" lon="11.136845744336478"><ele>164.0</ele><time>2026-04-07T13:21:27Z</time></trkpt><trkpt lat="43.42624387669375" lon="11.136692299165063"><ele>163.66666666666666</ele><time>2026-04-07T13:21:28Z</time></trkpt><trkpt lat="43.42612562158414" lon="11.136544819230457"><ele>163.33333333333334</ele><time>2026-04-07T13:21:29Z</time></trkpt><trkpt lat="43.426013270048685" lon="11.136406531706072"><ele>163.0</ele><time>2026-04-07T13:21:30Z</time></trkpt><trkpt lat="43.425906115410704" lon="11.136276141818351"><ele>163.0</ele><time>2026-04-07T13:21:31Z</time></trkpt><trkpt lat="43.42579852025705" lon="11.136145955136278"><ele>163.0</ele><time>2026-04-07T13:21:32Z</time></trkpt><trkpt lat="43.4256917850023" lon="11.136012616410294"><ele>163.0</ele><time>2026-04-07T13:21:33Z</time></trkpt><trkpt lat="43.425584340667754" lon="11.13587822398971"><ele>163.0</ele><time>2026-04-07T13:21:34Z</time></trkpt><trkpt lat="43.4254740766041" lon="11.135745715303091"><ele>163.5</ele><time>2026-04-07T13:21:35Z</time></trkpt><trkpt lat="43.42536219635118" lon="11.135610341622872"><ele>164.0</ele><time>2026-04-07T13:21:36Z</time></trkpt><trkpt lat="43.42524960622885" lon="11.135473082760148"><ele>164.5</ele><time>2026-04-07T13:21:37Z</time></trkpt><trkpt lat="43.42513739569485" lon="11.135337117584962"><ele>165.0</ele><time>2026-04-07T13:21:38Z</time></trkpt><trkpt lat="43.42502435241271" lon="11.135201988793694"><ele>165.0</ele><time>2026-04-07T13:21:39Z</time></trkpt><trkpt lat="43.424910819435894" lon="11.135063741330997"><ele>165.0</ele><time>2026-04-07T13:21:40Z</time></trkpt><trkpt lat="43.42479574602079" lon="11.134921305407111"><ele>165.0</ele><time>2026-04-07T13:21:41Z</time></trkpt><trkpt lat="43.4246803145068" lon="11.134782447166577"><ele>165.0</ele><time>2026-04-07T13:21:42Z</time></trkpt><trkpt lat="43.42456879099063" lon="11.134652654098787"><ele>165.0</ele><time>2026-04-07T13:21:43Z</time></trkpt><trkpt lat="43.42445373931276" lon="11.134522437316647"><ele>165.0</ele><time>2026-04-07T13:21:44Z</time></trkpt><trkpt lat="43.42434602530041" lon="11.134386650822051"><ele>165.0</ele><time>2026-04-07T13:21:45Z</time></trkpt><trkpt lat="43.424243969624264" lon="11.13424266372172"><ele>165.0</ele><time>2026-04-07T13:21:46Z</time></trkpt><trkpt lat="43.42414561926159" lon="11.134119145408546"><ele>165.0</ele><time>2026-04-07T13:21:47Z</time></trkpt><trkpt lat="43.42405479055501" lon="11.134004616339436"><ele>165.0</ele><time>2026-04-07T13:21:48Z</time></trkpt><trkpt lat="43.423975976144895" lon="11.133907398609196"><ele>165.0</ele><time>2026-04-07T13:21:49Z</time></trkpt><trkpt lat="43.42391056349241" lon="11.133823075076533"><ele>164.83333333333334</ele><time>2026-04-07T13:21:50Z</time></trkpt><trkpt lat="43.423866896232624" lon="11.133757277875723"><ele>164.66666666666666</ele><time>2026-04-07T13:21:51Z</time></trkpt><trkpt lat="43.4238056522507" lon="11.133616099026383"><ele>164.5</ele><time>2026-04-07T13:21:53Z</time></trkpt><trkpt lat="43.42376692318923" lon="11.133538206899953"><ele>164.33333333333331</ele><time>2026-04-07T13:21:54Z</time></trkpt><trkpt lat="43.42369267490989" lon="11.133454326158022"><ele>164.16666666666666</ele><time>2026-04-07T13:21:55Z</time></trkpt><trkpt lat="43.42361686880211" lon="11.133373571563885"><ele>164.0</ele><time>2026-04-07T13:21:56Z</time></trkpt><trkpt lat="43.423530463024186" lon="11.133264648902443"><ele>162.2</ele><time>2026-04-07T13:21:57Z</time></trkpt><trkpt lat="43.42344421877751" lon="11.133141615315461"><ele>160.39999999999998</ele><time>2026-04-07T13:21:58Z</time></trkpt><trkpt lat="43.42337178649509" lon="11.133037687067633"><ele>158.6</ele><time>2026-04-07T13:21:59Z</time></trkpt><trkpt lat="43.423321757274515" lon="11.13296339757156"><ele>156.8</ele><time>2026-04-07T13:22:00Z</time></trkpt><trkpt lat="43.42328918235094" lon="11.132826514441374"><ele>155.0</ele><time>2026-04-07T13:22:01.999Z</time></trkpt><trkpt lat="43.42331458735047" lon="11.132688480607062"><ele>155.0</ele><time>2026-04-07T13:22:03.999Z</time></trkpt><trkpt lat="43.423358121452814" lon="11.132577417856343"><ele>155.0</ele><time>2026-04-07T13:22:05.999Z</time></trkpt><trkpt lat="43.42337299575208" lon="11.132476227869187"><ele>155.0</ele><time>2026-04-07T13:22:08.999Z</time></trkpt><trkpt lat="43.42337047211921" lon="11.132372065914755"><ele>155.0</ele><time>2026-04-07T13:22:22.999Z</time></trkpt><trkpt lat="43.4233084145955" lon="11.132308273439937"><ele>155.0</ele><time>2026-04-07T13:22:25.999Z</time></trkpt><trkpt lat="43.42324303736716" lon="11.132306986694424"><ele>155.0</ele><time>2026-04-07T13:22:26.999Z</time></trkpt><trkpt lat="43.42314972754701" lon="11.132278515081214"><ele>152.6</ele><time>2026-04-07T13:22:27.999Z</time></trkpt><trkpt lat="43.423062250956285" lon="11.13224980382341"><ele>150.2</ele><time>2026-04-07T13:22:28.999Z</time></trkpt><trkpt lat="43.42297388093099" lon="11.132216682823545"><ele>147.8</ele><time>2026-04-07T13:22:29.999Z</time></trkpt><trkpt lat="43.42286668967878" lon="11.132172918252385"><ele>145.4</ele><time>2026-04-07T13:22:30.999Z</time></trkpt><trkpt lat="43.42275856188588" lon="11.132133934560859"><ele>143.0</ele><time>2026-04-07T13:22:31.999Z</time></trkpt><trkpt lat="43.42264299009452" lon="11.132108728697848"><ele>143.0</ele><time>2026-04-07T13:22:32.999Z</time></trkpt><trkpt lat="43.42252114001877" lon="11.13211465772418"><ele>143.0</ele><time>2026-04-07T13:22:33.999Z</time></trkpt><trkpt lat="43.422400285805374" lon="11.132145343594756"><ele>143.0</ele><time>2026-04-07T13:22:34.999Z</time></trkpt><trkpt lat="43.42226387285812" lon="11.13221161964401"><ele>143.0</ele><time>2026-04-07T13:22:35.999Z</time></trkpt><trkpt lat="43.42213095402246" lon="11.132288678988195"><ele>141.5</ele><time>2026-04-07T13:22:36.999Z</time></trkpt><trkpt lat="43.42201661064966" lon="11.132346629005765"><ele>140.0</ele><time>2026-04-07T13:22:37.999Z</time></trkpt><trkpt lat="43.4219203285053" lon="11.132445500686948"><ele>138.5</ele><time>2026-04-07T13:22:38.999Z</time></trkpt><trkpt lat="43.42182497438619" lon="11.132576347515915"><ele>137.0</ele><time>2026-04-07T13:22:39.999Z</time></trkpt><trkpt lat="43.421731243429534" lon="11.132710026967901"><ele>141.25</ele><time>2026-04-07T13:22:40.999Z</time></trkpt><trkpt lat="43.42162865546467" lon="11.132855637759711"><ele>145.5</ele><time>2026-04-07T13:22:41.999Z</time></trkpt><trkpt lat="43.42153161797186" lon="11.132992638538873"><ele>149.75</ele><time>2026-04-07T13:22:42.999Z</time></trkpt><trkpt lat="43.42143021712509" lon="11.133135763067177"><ele>154.0</ele><time>2026-04-07T13:22:43.999Z</time></trkpt><trkpt lat="43.42132167947734" lon="11.133288960965517"><ele>153.33333333333334</ele><time>2026-04-07T13:22:44.999Z</time></trkpt><trkpt lat="43.42120632533913" lon="11.133451780249688"><ele>152.66666666666666</ele><time>2026-04-07T13:22:45.999Z</time></trkpt><trkpt lat="43.421100413467926" lon="11.133604331903888"><ele>152.0</ele><time>2026-04-07T13:22:47Z</time></trkpt><trkpt lat="43.42100333246081" lon="11.133751803016755"><ele>152.0</ele><time>2026-04-07T13:22:48Z</time></trkpt><trkpt lat="43.42090733028043" lon="11.133912545024195"><ele>152.0</ele><time>2026-04-07T13:22:49Z</time></trkpt><trkpt lat="43.420820720717664" lon="11.134078623800388"><ele>152.0</ele><time>2026-04-07T13:22:50Z</time></trkpt><trkpt lat="43.420754905857315" lon="11.13423259892731"><ele>152.0</ele><time>2026-04-07T13:22:51Z</time></trkpt><trkpt lat="43.42070361067982" lon="11.134373561770902"><ele>154.75</ele><time>2026-04-07T13:22:52Z</time></trkpt><trkpt lat="43.420683092139576" lon="11.134518039542222"><ele>157.5</ele><time>2026-04-07T13:22:53Z</time></trkpt><trkpt lat="43.42063099723629" lon="11.13464680886168"><ele>160.25</ele><time>2026-04-07T13:22:54Z</time></trkpt><trkpt lat="43.42058704945397" lon="11.134806797598246"><ele>163.0</ele><time>2026-04-07T13:22:55Z</time></trkpt><trkpt lat="43.42053883099963" lon="11.13498306265419"><ele>162.4</ele><time>2026-04-07T13:22:56Z</time></trkpt><trkpt lat="43.42049953555774" lon="11.135130693341546"><ele>161.8</ele><time>2026-04-07T13:22:57Z</time></trkpt><trkpt lat="43.42046482796428" lon="11.135261087828535"><ele>161.2</ele><time>2026-04-07T13:22:58Z</time></trkpt><trkpt lat="43.42043544203118" lon="11.1353714892126"><ele>160.6</ele><time>2026-04-07T13:22:59Z</time></trkpt><trkpt lat="43.42040573419349" lon="11.13548355250338"><ele>160.0</ele><time>2026-04-07T13:23:00Z</time></trkpt><trkpt lat="43.420373019172054" lon="11.13560798561544"><ele>162.5</ele><time>2026-04-07T13:23:01Z</time></trkpt><trkpt lat="43.42033729812095" lon="11.135743852258999"><ele>165.0</ele><time>2026-04-07T13:23:02Z</time></trkpt><trkpt lat="43.42029357946635" lon="11.135910138644473"><ele>167.5</ele><time>2026-04-07T13:23:03Z</time></trkpt><trkpt lat="43.420242614775" lon="11.136103985100371"><ele>170.0</ele><time>2026-04-07T13:23:04Z</time></trkpt><trkpt lat="43.420185727154475" lon="11.136320359978047"><ele>170.0</ele><time>2026-04-07T13:23:05Z</time></trkpt><trkpt lat="43.42012557447577" lon="11.136548832415576"><ele>170.0</ele><time>2026-04-07T13:23:06Z</time></trkpt><trkpt lat="43.42007086711518" lon="11.1367559941856"><ele>170.0</ele><time>2026-04-07T13:23:07Z</time></trkpt><trkpt lat="43.42002098931735" lon="11.136944867891852"><ele>170.4</ele><time>2026-04-07T13:23:08Z</time></trkpt><trkpt lat="43.41997634021324" lon="11.13711394166766"><ele>170.8</ele><time>2026-04-07T13:23:09Z</time></trkpt><trkpt lat="43.41993715749549" lon="11.137262316000266"><ele>171.2</ele><time>2026-04-07T13:23:10Z</time></trkpt><trkpt lat="43.41990149789507" lon="11.137397224660976"><ele>171.6</ele><time>2026-04-07T13:23:11Z</time></trkpt><trkpt lat="43.4198685817452" lon="11.137521546189781"><ele>172.0</ele><time>2026-04-07T13:23:12Z</time></trkpt><trkpt lat="43.4198347300266" lon="11.137649393620022"><ele>172.33333333333334</ele><time>2026-04-07T13:23:13Z</time></trkpt><trkpt lat="43.41980266883862" lon="11.137776415567103"><ele>172.66666666666669</ele><time>2026-04-07T13:23:14Z</time></trkpt><trkpt lat="43.4197766748265" lon="11.137904457456369"><ele>173.0</ele><time>2026-04-07T13:23:15Z</time></trkpt><trkpt lat="43.41971457433896" lon="11.138002416496265"><ele>173.33333333333334</ele><time>2026-04-07T13:23:16Z</time></trkpt><trkpt lat="43.419658072241404" lon="11.138072049936497"><ele>173.66666666666666</ele><time>2026-04-07T13:23:17Z</time></trkpt><trkpt lat="43.419612380055774" lon="11.138150222288548"><ele>174.0</ele><time>2026-04-07T13:23:18Z</time></trkpt><trkpt lat="43.41958390773628" lon="11.138266738526886"><ele>174.39999999999998</ele><time>2026-04-07T13:23:19Z</time></trkpt><trkpt lat="43.41958177610975" lon="11.138403277672754"><ele>174.8</ele><time>2026-04-07T13:23:20Z</time></trkpt><trkpt lat="43.419591545370174" lon="11.138537476673642"><ele>175.2</ele><time>2026-04-07T13:23:21Z</time></trkpt><trkpt lat="43.41957432356061" lon="11.138680840178884"><ele>175.60000000000002</ele><time>2026-04-07T13:23:22Z</time></trkpt><trkpt lat="43.41953713876214" lon="11.13884509849581"><ele>176.0</ele><time>2026-04-07T13:23:23Z</time></trkpt><trkpt lat="43.41949131271445" lon="11.139016120367963"><ele>177.25</ele><time>2026-04-07T13:23:24Z</time></trkpt><trkpt lat="43.41944623955481" lon="11.139186102775081"><ele>178.5</ele><time>2026-04-07T13:23:25Z</time></trkpt><trkpt lat="43.419399923167205" lon="11.139368398597268"><ele>179.75</ele><time>2026-04-07T13:23:26Z</time></trkpt><trkpt lat="43.419354471102494" lon="11.139562841799124"><ele>181.0</ele><time>2026-04-07T13:23:27Z</time></trkpt><trkpt lat="43.41930346670248" lon="11.139764661920525"><ele>181.5</ele><time>2026-04-07T13:23:28Z</time></trkpt><trkpt lat="43.41925591405393" lon="11.139948243757866"><ele>182.0</ele><time>2026-04-07T13:23:29Z</time></trkpt><trkpt lat="43.41921796811211" lon="11.14011392781624"><ele>182.5</ele><time>2026-04-07T13:23:30Z</time></trkpt><trkpt lat="43.41917858806476" lon="11.140271608061907"><ele>183.0</ele><time>2026-04-07T13:23:31Z</time></trkpt><trkpt lat="43.419135495648014" lon="11.14043924726205"><ele>183.0</ele><time>2026-04-07T13:23:32Z</time></trkpt><trkpt lat="43.41908918501839" lon="11.140617058984887"><ele>183.0</ele><time>2026-04-07T13:23:33Z</time></trkpt><trkpt lat="43.41904389026641" lon="11.140799814210506"><ele>183.0</ele><time>2026-04-07T13:23:34Z</time></trkpt><trkpt lat="43.41897752818408" lon="11.141000479054576"><ele>183.0</ele><time>2026-04-07T13:23:35Z</time></trkpt><trkpt lat="43.4189201904899" lon="11.14122797208504"><ele>183.0</ele><time>2026-04-07T13:23:36Z</time></trkpt><trkpt lat="43.41885957935068" lon="11.141468911175844"><ele>183.0</ele><time>2026-04-07T13:23:37Z</time></trkpt><trkpt lat="43.418824112354365" lon="11.141676964465116"><ele>183.0</ele><time>2026-04-07T13:23:38Z</time></trkpt><trkpt lat="43.418778648929816" lon="11.141862734361439"><ele>183.0</ele><time>2026-04-07T13:23:39Z</time></trkpt><trkpt lat="43.418719674754975" lon="11.142028908903185"><ele>183.0</ele><time>2026-04-07T13:23:40Z</time></trkpt><trkpt lat="43.41867563305797" lon="11.142205714491942"><ele>183.0</ele><time>2026-04-07T13:23:41Z</time></trkpt><trkpt lat="43.41862995019009" lon="11.1423896169841"><ele>183.0</ele><time>2026-04-07T13:23:42Z</time></trkpt><trkpt lat="43.41858358812055" lon="11.142577279696782"><ele>183.66666666666666</ele><time>2026-04-07T13:23:43Z</time></trkpt><trkpt lat="43.41853678935389" lon="11.142766312963568"><ele>184.33333333333331</ele><time>2026-04-07T13:23:44Z</time></trkpt><trkpt lat="43.41848439097076" lon="11.142976338745687"><ele>185.0</ele><time>2026-04-07T13:23:45Z</time></trkpt><trkpt lat="43.41843559824466" lon="11.143171912545537"><ele>185.75</ele><time>2026-04-07T13:23:46Z</time></trkpt><trkpt lat="43.41840150666629" lon="11.14334297451314"><ele>186.5</ele><time>2026-04-07T13:23:47Z</time></trkpt><trkpt lat="43.41835032625317" lon="11.14348498379352"><ele>187.25</ele><time>2026-04-07T13:23:48Z</time></trkpt><trkpt lat="43.41827854989945" lon="11.143603453158025"><ele>188.0</ele><time>2026-04-07T13:23:49Z</time></trkpt><trkpt lat="43.41818574537241" lon="11.14370422187054"><ele>188.0</ele><time>2026-04-07T13:23:50Z</time></trkpt><trkpt lat="43.41807391015963" lon="11.143779400063279"><ele>188.0</ele><time>2026-04-07T13:23:51Z</time></trkpt><trkpt lat="43.41794102798564" lon="11.143808773969797"><ele>188.0</ele><time>2026-04-07T13:23:52Z</time></trkpt><trkpt lat="43.41778780222274" lon="11.14381202028667"><ele>188.0</ele><time>2026-04-07T13:23:53Z</time></trkpt><trkpt lat="43.417613721083534" lon="11.143801625938329"><ele>188.33333333333331</ele><time>2026-04-07T13:23:54Z</time></trkpt><trkpt lat="43.417430004364434" lon="11.143797175654424"><ele>188.66666666666666</ele><time>2026-04-07T13:23:55Z</time></trkpt><trkpt lat="43.41726218143762" lon="11.143794053056755"><ele>189.0</ele><time>2026-04-07T13:23:56Z</time></trkpt><trkpt lat="43.41708786891474" lon="11.143790577728117"><ele>190.75</ele><time>2026-04-07T13:23:57Z</time></trkpt><trkpt lat="43.4169201748608" lon="11.143765764804995"><ele>192.5</ele><time>2026-04-07T13:23:58Z</time></trkpt><trkpt lat="43.41677300575254" lon="11.143781223042492"><ele>194.25</ele><time>2026-04-07T13:23:59Z</time></trkpt><trkpt lat="43.41663990264648" lon="11.14377303591517"><ele>196.0</ele><time>2026-04-07T13:24:00Z</time></trkpt><trkpt lat="43.41652105123249" lon="11.143779679939392"><ele>196.0</ele><time>2026-04-07T13:24:01Z</time></trkpt><trkpt lat="43.416402757050136" lon="11.14379303975262"><ele>196.0</ele><time>2026-04-07T13:24:02Z</time></trkpt><trkpt lat="43.41627875776025" lon="11.143888531876023"><ele>196.0</ele><time>2026-04-07T13:24:03Z</time></trkpt><trkpt lat="43.416185544145485" lon="11.144006562227025"><ele>196.0</ele><time>2026-04-07T13:24:03.999Z</time></trkpt><trkpt lat="43.4161221889231" lon="11.144157696978683"><ele>197.0</ele><time>2026-04-07T13:24:04.999Z</time></trkpt><trkpt lat="43.41608810234337" lon="11.144288279687078"><ele>198.0</ele><time>2026-04-07T13:24:05.999Z</time></trkpt><trkpt lat="43.41611187309238" lon="11.144422551432575"><ele>199.0</ele><time>2026-04-07T13:24:06.999Z</time></trkpt><trkpt lat="43.41615379631012" lon="11.144551700113455"><ele>200.0</ele><time>2026-04-07T13:24:07.999Z</time></trkpt><trkpt lat="43.4162166505144" lon="11.144703449979806"><ele>201.0</ele><time>2026-04-07T13:24:08.999Z</time></trkpt><trkpt lat="43.41626757503508" lon="11.14488771440284"><ele>204.33333333333331</ele><time>2026-04-07T13:24:09.999Z</time></trkpt><trkpt lat="43.41633105593459" lon="11.145104963437639"><ele>207.66666666666666</ele><time>2026-04-07T13:24:10.999Z</time></trkpt><trkpt lat="43.41634845541742" lon="11.145360183141213"><ele>211.0</ele><time>2026-04-07T13:24:11.999Z</time></trkpt><trkpt lat="43.41634680941822" lon="11.145572681343356"><ele>210.25</ele><time>2026-04-07T13:24:12.999Z</time></trkpt><trkpt lat="43.41631676600362" lon="11.145756929293322"><ele>209.5</ele><time>2026-04-07T13:24:13.999Z</time></trkpt><trkpt lat="43.41628739733557" lon="11.145925767842764"><ele>208.75</ele><time>2026-04-07T13:24:14.999Z</time></trkpt><trkpt lat="43.41627588691818" lon="11.146089419478928"><ele>208.0</ele><time>2026-04-07T13:24:15.999Z</time></trkpt><trkpt lat="43.416294447634684" lon="11.146287005812791"><ele>210.33333333333331</ele><time>2026-04-07T13:24:16.999Z</time></trkpt><trkpt lat="43.416344526478376" lon="11.146486904669409"><ele>212.66666666666669</ele><time>2026-04-07T13:24:17.999Z</time></trkpt><trkpt lat="43.41640040052493" lon="11.146686761820556"><ele>215.0</ele><time>2026-04-07T13:24:18.999Z</time></trkpt><trkpt lat="43.41647402504689" lon="11.14689026570023"><ele>215.75</ele><time>2026-04-07T13:24:19.999Z</time></trkpt><trkpt lat="43.41652969823793" lon="11.147094666749151"><ele>216.5</ele><time>2026-04-07T13:24:20.999Z</time></trkpt><trkpt lat="43.41657649203988" lon="11.147274022717298"><ele>217.25</ele><time>2026-04-07T13:24:21.999Z</time></trkpt><trkpt lat="43.41662280284881" lon="11.147442718521749"><ele>218.0</ele><time>2026-04-07T13:24:22.999Z</time></trkpt><trkpt lat="43.416674527450404" lon="11.147625265866894"><ele>218.33333333333334</ele><time>2026-04-07T13:24:23.999Z</time></trkpt><trkpt lat="43.41672703926951" lon="11.147821743559032"><ele>218.66666666666669</ele><time>2026-04-07T13:24:24.999Z</time></trkpt><trkpt lat="43.41678289824864" lon="11.148030197641079"><ele>219.0</ele><time>2026-04-07T13:24:25.999Z</time></trkpt><trkpt lat="43.41683648320385" lon="11.148221877991006"><ele>218.5</ele><time>2026-04-07T13:24:26.999Z</time></trkpt><trkpt lat="43.416879013394464" lon="11.148400047373917"><ele>218.0</ele><time>2026-04-07T13:24:27.999Z</time></trkpt><trkpt lat="43.416911022968456" lon="11.148588903249834"><ele>217.5</ele><time>2026-04-07T13:24:28.999Z</time></trkpt><trkpt lat="43.41692585979311" lon="11.148794615007263"><ele>217.0</ele><time>2026-04-07T13:24:29.999Z</time></trkpt><trkpt lat="43.4169192765677" lon="11.149014112213857"><ele>218.0</ele><time>2026-04-07T13:24:30.999Z</time></trkpt><trkpt lat="43.4168982247877" lon="11.149230961407602"><ele>219.0</ele><time>2026-04-07T13:24:31.999Z</time></trkpt><trkpt lat="43.41684900137749" lon="11.149412219405773"><ele>220.0</ele><time>2026-04-07T13:24:32.999Z</time></trkpt><trkpt lat="43.41682802207281" lon="11.149590672619746"><ele>221.0</ele><time>2026-04-07T13:24:33.999Z</time></trkpt><trkpt lat="43.41678237215153" lon="11.14976728943911"><ele>222.33333333333334</ele><time>2026-04-07T13:24:34.999Z</time></trkpt><trkpt lat="43.416731752665214" lon="11.149956649685185"><ele>223.66666666666669</ele><time>2026-04-07T13:24:35.999Z</time></trkpt><trkpt lat="43.416683015506074" lon="11.150155400605765"><ele>225.0</ele><time>2026-04-07T13:24:36.999Z</time></trkpt><trkpt lat="43.416636000129884" lon="11.150354848296198"><ele>225.0</ele><time>2026-04-07T13:24:37.999Z</time></trkpt><trkpt lat="43.41659290803828" lon="11.15052743027654"><ele>225.0</ele><time>2026-04-07T13:24:38.999Z</time></trkpt><trkpt lat="43.416546959470296" lon="11.150704495573134"><ele>225.0</ele><time>2026-04-07T13:24:39.999Z</time></trkpt><trkpt lat="43.41649899232824" lon="11.150898322918549"><ele>225.0</ele><time>2026-04-07T13:24:40.999Z</time></trkpt><trkpt lat="43.41645234260652" lon="11.151095586118375"><ele>225.0</ele><time>2026-04-07T13:24:41.999Z</time></trkpt><trkpt lat="43.41640905024741" lon="11.151279524134953"><ele>225.0</ele><time>2026-04-07T13:24:42.999Z</time></trkpt><trkpt lat="43.416365249462274" lon="11.151473170317994"><ele>225.0</ele><time>2026-04-07T13:24:43.999Z</time></trkpt><trkpt lat="43.416315251676195" lon="11.15167555600069"><ele>225.0</ele><time>2026-04-07T13:24:44.999Z</time></trkpt><trkpt lat="43.41626562609274" lon="11.151884140022524"><ele>225.33333333333331</ele><time>2026-04-07T13:24:45.999Z</time></trkpt><trkpt lat="43.41621566052643" lon="11.152099270039324"><ele>225.66666666666666</ele><time>2026-04-07T13:24:46.999Z</time></trkpt><trkpt lat="43.416160662269675" lon="11.152319588219406"><ele>226.0</ele><time>2026-04-07T13:24:47.999Z</time></trkpt><trkpt lat="43.416110306163326" lon="11.152520680660542"><ele>226.0</ele><time>2026-04-07T13:24:48.999Z</time></trkpt><trkpt lat="43.416062350915624" lon="11.152724615308815"><ele>226.0</ele><time>2026-04-07T13:24:49.999Z</time></trkpt><trkpt lat="43.416013293743056" lon="11.152933559228781"><ele>226.0</ele><time>2026-04-07T13:24:50.999Z</time></trkpt><trkpt lat="43.41596300530951" lon="11.15314743947946"><ele>226.66666666666666</ele><time>2026-04-07T13:24:51.999Z</time></trkpt><trkpt lat="43.41590929602045" lon="11.153366807450444"><ele>227.33333333333331</ele><time>2026-04-07T13:24:53Z</time></trkpt><trkpt lat="43.415857358075435" lon="11.153585075884001"><ele>228.0</ele><time>2026-04-07T13:24:54Z</time></trkpt><trkpt lat="43.41580195687599" lon="11.153808780358336"><ele>228.0</ele><time>2026-04-07T13:24:55Z</time></trkpt><trkpt lat="43.415754521008026" lon="11.154013172001664"><ele>228.0</ele><time>2026-04-07T13:24:56Z</time></trkpt><trkpt lat="43.415707147859" lon="11.154217408339486"><ele>228.0</ele><time>2026-04-07T13:24:57Z</time></trkpt><trkpt lat="43.415654056464874" lon="11.154432653642411"><ele>228.33333333333331</ele><time>2026-04-07T13:24:58Z</time></trkpt><trkpt lat="43.41559161142309" lon="11.154662874116086"><ele>228.66666666666666</ele><time>2026-04-07T13:24:59Z</time></trkpt><trkpt lat="43.415532636026576" lon="11.154875653699735"><ele>229.0</ele><time>2026-04-07T13:25:00Z</time></trkpt><trkpt lat="43.4154735589183" lon="11.155073126248775"><ele>229.0</ele><time>2026-04-07T13:25:01Z</time></trkpt><trkpt lat="43.415403439314694" lon="11.15527587810046"><ele>229.0</ele><time>2026-04-07T13:25:02Z</time></trkpt><trkpt lat="43.4153213687633" lon="11.155479139446937"><ele>229.0</ele><time>2026-04-07T13:25:03Z</time></trkpt><trkpt lat="43.41523149824799" lon="11.155686732237834"><ele>230.33333333333331</ele><time>2026-04-07T13:25:04Z</time></trkpt><trkpt lat="43.415147184533396" lon="11.155876237133093"><ele>231.66666666666669</ele><time>2026-04-07T13:25:05Z</time></trkpt><trkpt lat="43.41506755353473" lon="11.156053399977914"><ele>233.0</ele><time>2026-04-07T13:25:06Z</time></trkpt><trkpt lat="43.414986345978846" lon="11.156233764842765"><ele>233.0</ele><time>2026-04-07T13:25:07Z</time></trkpt><trkpt lat="43.41490027409845" lon="11.156413891837765"><ele>233.0</ele><time>2026-04-07T13:25:08Z</time></trkpt><trkpt lat="43.414817290305606" lon="11.156601285507243"><ele>233.0</ele><time>2026-04-07T13:25:09Z</time></trkpt><trkpt lat="43.41473823790353" lon="11.156788365629993"><ele>233.25</ele><time>2026-04-07T13:25:10Z</time></trkpt><trkpt lat="43.41465855878024" lon="11.156964151333609"><ele>233.5</ele><time>2026-04-07T13:25:11Z</time></trkpt><trkpt lat="43.41457710835483" lon="11.1571269620004"><ele>233.75</ele><time>2026-04-07T13:25:12Z</time></trkpt><trkpt lat="43.41449235302158" lon="11.157265865971086"><ele>234.0</ele><time>2026-04-07T13:25:13Z</time></trkpt><trkpt lat="43.4143928383421" lon="11.15740950404831"><ele>232.75</ele><time>2026-04-07T13:25:14Z</time></trkpt><trkpt lat="43.4142802567905" lon="11.157548058670645"><ele>231.5</ele><time>2026-04-07T13:25:15Z</time></trkpt><trkpt lat="43.414173617183856" lon="11.157670134474621"><ele>230.25</ele><time>2026-04-07T13:25:16Z</time></trkpt><trkpt lat="43.41406450026874" lon="11.157759854700954"><ele>229.0</ele><time>2026-04-07T13:25:17Z</time></trkpt><trkpt lat="43.41397059395755" lon="11.157862173945357"><ele>228.99999999999997</ele><time>2026-04-07T13:25:18Z</time></trkpt><trkpt lat="43.41388336371792" lon="11.157957356625767"><ele>229.0</ele><time>2026-04-07T13:25:19Z</time></trkpt><trkpt lat="43.41380756583691" lon="11.158041450826683"><ele>229.0</ele><time>2026-04-07T13:25:20Z</time></trkpt><trkpt lat="43.41374167048635" lon="11.158114558592569"><ele>229.0</ele><time>2026-04-07T13:25:21Z</time></trkpt><trkpt lat="43.41369651419901" lon="11.158183548411344"><ele>228.99999999999997</ele><time>2026-04-07T13:25:22Z</time></trkpt><trkpt lat="43.41362266564534" lon="11.158241062252"><ele>229.0</ele><time>2026-04-07T13:25:24Z</time></trkpt><trkpt lat="43.413561051228804" lon="11.15826535955416"><ele>228.49999999999997</ele><time>2026-04-07T13:25:26Z</time></trkpt><trkpt lat="43.41349600489916" lon="11.158287044427286"><ele>228.0</ele><time>2026-04-07T13:25:28Z</time></trkpt><trkpt lat="43.41341967113564" lon="11.158232164918427"><ele>227.5</ele><time>2026-04-07T13:25:31Z</time></trkpt><trkpt lat="43.41334126413906" lon="11.15823174466591"><ele>227.0</ele><time>2026-04-07T13:25:33Z</time></trkpt><trkpt lat="43.41326165585375" lon="11.158247118613906"><ele>226.49999999999997</ele><time>2026-04-07T13:25:35Z</time></trkpt><trkpt lat="43.41316933072986" lon="11.158343193082448"><ele>226.0</ele><time>2026-04-07T13:25:37Z</time></trkpt><trkpt lat="43.41311999143064" lon="11.158440786352296"><ele>226.0</ele><time>2026-04-07T13:25:38Z</time></trkpt><trkpt lat="43.41309563680337" lon="11.158546571269378"><ele>226.00000000000003</ele><time>2026-04-07T13:25:39Z</time></trkpt><trkpt lat="43.41308906573558" lon="11.158672729283472"><ele>226.00000000000003</ele><time>2026-04-07T13:25:40Z</time></trkpt><trkpt lat="43.41307638997557" lon="11.158785514351255"><ele>226.0</ele><time>2026-04-07T13:25:41Z</time></trkpt><trkpt lat="43.41299409045802" lon="11.158976429702927"><ele>226.0</ele><time>2026-04-07T13:25:43Z</time></trkpt><trkpt lat="43.41290985763025" lon="11.159063944769803"><ele>226.4</ele><time>2026-04-07T13:25:44Z</time></trkpt><trkpt lat="43.41282357906514" lon="11.15916505873468"><ele>226.8</ele><time>2026-04-07T13:25:45Z</time></trkpt><trkpt lat="43.412751656589506" lon="11.1592479745632"><ele>227.20000000000002</ele><time>2026-04-07T13:25:46Z</time></trkpt><trkpt lat="43.41266839555864" lon="11.159343965074457"><ele>227.60000000000002</ele><time>2026-04-07T13:25:47Z</time></trkpt><trkpt lat="43.412592709014554" lon="11.15943571927284"><ele>228.0</ele><time>2026-04-07T13:25:48Z</time></trkpt><trkpt lat="43.41252376134415" lon="11.159517541377053"><ele>228.0</ele><time>2026-04-07T13:25:49Z</time></trkpt><trkpt lat="43.41246963222608" lon="11.159609024012584"><ele>228.0</ele><time>2026-04-07T13:25:50Z</time></trkpt><trkpt lat="43.41240233012794" lon="11.159682458689089"><ele>228.0</ele><time>2026-04-07T13:25:51Z</time></trkpt><trkpt lat="43.41232809145506" lon="11.159761314118924"><ele>228.0</ele><time>2026-04-07T13:25:52Z</time></trkpt><trkpt lat="43.412246503300935" lon="11.15986331411658"><ele>228.0</ele><time>2026-04-07T13:25:53Z</time></trkpt><trkpt lat="43.4121426255323" lon="11.159968914539244"><ele>228.16666666666666</ele><time>2026-04-07T13:25:54Z</time></trkpt><trkpt lat="43.41205025775825" lon="11.160077468896686"><ele>228.33333333333331</ele><time>2026-04-07T13:25:55Z</time></trkpt><trkpt lat="43.4119807884105" lon="11.160159112328545"><ele>228.5</ele><time>2026-04-07T13:25:56Z</time></trkpt><trkpt lat="43.41192645780042" lon="11.160240021303624"><ele>228.66666666666666</ele><time>2026-04-07T13:25:57Z</time></trkpt><trkpt lat="43.41187190693436" lon="11.160292875480021"><ele>228.83333333333331</ele><time>2026-04-07T13:25:58Z</time></trkpt><trkpt lat="43.41181954514949" lon="11.160358168616732"><ele>229.0</ele><time>2026-04-07T13:25:59Z</time></trkpt><trkpt lat="43.41175869741481" lon="11.160443440638003"><ele>229.0</ele><time>2026-04-07T13:26:00Z</time></trkpt><trkpt lat="43.41166876020912" lon="11.160528589651127"><ele>229.0</ele><time>2026-04-07T13:26:01Z</time></trkpt><trkpt lat="43.4115754487189" lon="11.160671697318952"><ele>229.0</ele><time>2026-04-07T13:26:02Z</time></trkpt><trkpt lat="43.411467837644786" lon="11.160804801623671"><ele>229.0</ele><time>2026-04-07T13:26:03Z</time></trkpt><trkpt lat="43.41134555947295" lon="11.160960509640432"><ele>229.0</ele><time>2026-04-07T13:26:04Z</time></trkpt><trkpt lat="43.411217164139" lon="11.161134434153137"><ele>229.0</ele><time>2026-04-07T13:26:05Z</time></trkpt><trkpt lat="43.41111128727008" lon="11.161277695050405"><ele>229.0</ele><time>2026-04-07T13:26:06Z</time></trkpt><trkpt lat="43.41101995933765" lon="11.161403326666488"><ele>229.0</ele><time>2026-04-07T13:26:07Z</time></trkpt><trkpt lat="43.41093104288238" lon="11.161527969020668"><ele>229.0</ele><time>2026-04-07T13:26:08Z</time></trkpt><trkpt lat="43.410831038940124" lon="11.16166510407535"><ele>229.0</ele><time>2026-04-07T13:26:09Z</time></trkpt><trkpt lat="43.41072183870603" lon="11.161815741706375"><ele>229.0</ele><time>2026-04-07T13:26:10Z</time></trkpt><trkpt lat="43.41062850935453" lon="11.161945430739511"><ele>229.0</ele><time>2026-04-07T13:26:11Z</time></trkpt><trkpt lat="43.410541253683135" lon="11.162069302762651"><ele>229.0</ele><time>2026-04-07T13:26:12Z</time></trkpt><trkpt lat="43.41045607290077" lon="11.162192757082051"><ele>229.0</ele><time>2026-04-07T13:26:12.999Z</time></trkpt><trkpt lat="43.41037480915573" lon="11.162308622858658"><ele>229.0</ele><time>2026-04-07T13:26:13.999Z</time></trkpt><trkpt lat="43.41029217051672" lon="11.162428313757621"><ele>229.5</ele><time>2026-04-07T13:26:14.999Z</time></trkpt><trkpt lat="43.41020546859057" lon="11.162551067008113"><ele>230.0</ele><time>2026-04-07T13:26:15.999Z</time></trkpt><trkpt lat="43.41011797746394" lon="11.16267740549696"><ele>230.5</ele><time>2026-04-07T13:26:16.999Z</time></trkpt><trkpt lat="43.41002752566502" lon="11.162814322953071"><ele>231.0</ele><time>2026-04-07T13:26:17.999Z</time></trkpt><trkpt lat="43.40993262221836" lon="11.16295024873062"><ele>231.0</ele><time>2026-04-07T13:26:18.999Z</time></trkpt><trkpt lat="43.40983513501153" lon="11.163096173047224"><ele>231.0</ele><time>2026-04-07T13:26:19.999Z</time></trkpt><trkpt lat="43.409736187911776" lon="11.163247767562364"><ele>231.0</ele><time>2026-04-07T13:26:20.999Z</time></trkpt><trkpt lat="43.40963779752899" lon="11.163400088794338"><ele>231.0</ele><time>2026-04-07T13:26:21.999Z</time></trkpt><trkpt lat="43.40953162174925" lon="11.163559515353795"><ele>231.75</ele><time>2026-04-07T13:26:22.999Z</time></trkpt><trkpt lat="43.40943573114475" lon="11.163702231695414"><ele>232.5</ele><time>2026-04-07T13:26:23.999Z</time></trkpt><trkpt lat="43.40934911701716" lon="11.163837706897082"><ele>233.25</ele><time>2026-04-07T13:26:24.999Z</time></trkpt><trkpt lat="43.40925770251788" lon="11.163977993236927"><ele>234.0</ele><time>2026-04-07T13:26:25.999Z</time></trkpt><trkpt lat="43.40916395214069" lon="11.164115844938582"><ele>234.0</ele><time>2026-04-07T13:26:26.999Z</time></trkpt><trkpt lat="43.40906626268809" lon="11.164256291767988"><ele>234.0</ele><time>2026-04-07T13:26:27.999Z</time></trkpt><trkpt lat="43.408978898919294" lon="11.164374678471374"><ele>234.0</ele><time>2026-04-07T13:26:28.999Z</time></trkpt><trkpt lat="43.40888315206023" lon="11.164508601288734"><ele>234.0</ele><time>2026-04-07T13:26:29.999Z</time></trkpt><trkpt lat="43.40878164449368" lon="11.164651618771751"><ele>234.25</ele><time>2026-04-07T13:26:30.999Z</time></trkpt><trkpt lat="43.4086718784208" lon="11.164802900303542"><ele>234.5</ele><time>2026-04-07T13:26:31.999Z</time></trkpt><trkpt lat="43.408570514725845" lon="11.164947067501108"><ele>234.75</ele><time>2026-04-07T13:26:32.999Z</time></trkpt><trkpt lat="43.40847455722657" lon="11.165083832925376"><ele>235.0</ele><time>2026-04-07T13:26:33.999Z</time></trkpt><trkpt lat="43.408374772469735" lon="11.165214334619046"><ele>235.0</ele><time>2026-04-07T13:26:34.999Z</time></trkpt><trkpt lat="43.40828219434519" lon="11.165333237344742"><ele>235.0</ele><time>2026-04-07T13:26:35.999Z</time></trkpt><trkpt lat="43.40819139334043" lon="11.165453852540004"><ele>235.0</ele><time>2026-04-07T13:26:36.999Z</time></trkpt><trkpt lat="43.40809666363395" lon="11.165576958376606"><ele>235.0</ele><time>2026-04-07T13:26:37.999Z</time></trkpt><trkpt lat="43.4080078057904" lon="11.165691315890816"><ele>234.5</ele><time>2026-04-07T13:26:38.999Z</time></trkpt><trkpt lat="43.407927078498055" lon="11.165795524061659"><ele>234.0</ele><time>2026-04-07T13:26:39.999Z</time></trkpt><trkpt lat="43.407842083148815" lon="11.16590415971825"><ele>233.5</ele><time>2026-04-07T13:26:40.999Z</time></trkpt><trkpt lat="43.40775855876413" lon="11.16601472154913"><ele>233.0</ele><time>2026-04-07T13:26:41.999Z</time></trkpt><trkpt lat="43.407680356590035" lon="11.166116924447072"><ele>233.0</ele><time>2026-04-07T13:26:42.999Z</time></trkpt><trkpt lat="43.407599377782944" lon="11.166222086421978"><ele>233.0</ele><time>2026-04-07T13:26:43.999Z</time></trkpt><trkpt lat="43.407498850912006" lon="11.166333141030071"><ele>233.0</ele><time>2026-04-07T13:26:44.999Z</time></trkpt><trkpt lat="43.40740503499989" lon="11.166442021834285"><ele>233.0</ele><time>2026-04-07T13:26:45.999Z</time></trkpt><trkpt lat="43.40731477136188" lon="11.166538999432778"><ele>232.0</ele><time>2026-04-07T13:26:46.999Z</time></trkpt><trkpt lat="43.40722651415466" lon="11.16663313336507"><ele>231.0</ele><time>2026-04-07T13:26:47.999Z</time></trkpt><trkpt lat="43.40714032564165" lon="11.166717448070123"><ele>230.0</ele><time>2026-04-07T13:26:48.999Z</time></trkpt><trkpt lat="43.40706412885242" lon="11.166789701071114"><ele>229.0</ele><time>2026-04-07T13:26:49.999Z</time></trkpt><trkpt lat="43.406992533372865" lon="11.166842546328267"><ele>228.0</ele><time>2026-04-07T13:26:50.999Z</time></trkpt><trkpt lat="43.40691120361656" lon="11.166871102327095"><ele>228.0</ele><time>2026-04-07T13:26:51.999Z</time></trkpt><trkpt lat="43.40682617784057" lon="11.166905912269398"><ele>228.0</ele><time>2026-04-07T13:26:52.999Z</time></trkpt><trkpt lat="43.4067436985949" lon="11.166979629225382"><ele>228.0</ele><time>2026-04-07T13:26:53.999Z</time></trkpt><trkpt lat="43.406671440396124" lon="11.167107210971796"><ele>228.0</ele><time>2026-04-07T13:26:54.999Z</time></trkpt><trkpt lat="43.40661353466815" lon="11.167251453292973"><ele>228.0</ele><time>2026-04-07T13:26:55.999Z</time></trkpt><trkpt lat="43.406533316494794" lon="11.167394727407952"><ele>227.25</ele><time>2026-04-07T13:26:56.999Z</time></trkpt><trkpt lat="43.4064284055393" lon="11.167528378591449"><ele>226.5</ele><time>2026-04-07T13:26:57.999Z</time></trkpt><trkpt lat="43.40631365950542" lon="11.167650064005906"><ele>225.75</ele><time>2026-04-07T13:26:59Z</time></trkpt><trkpt lat="43.40618519256427" lon="11.167781364184778"><ele>225.0</ele><time>2026-04-07T13:27:00Z</time></trkpt><trkpt lat="43.40604486438335" lon="11.167933720343163"><ele>225.0</ele><time>2026-04-07T13:27:01Z</time></trkpt><trkpt lat="43.40588807937427" lon="11.168113159311076"><ele>225.0</ele><time>2026-04-07T13:27:02Z</time></trkpt><trkpt lat="43.40573691836078" lon="11.168278373624554"><ele>225.0</ele><time>2026-04-07T13:27:03Z</time></trkpt><trkpt lat="43.405604469618424" lon="11.168423451185317"><ele>225.25</ele><time>2026-04-07T13:27:04Z</time></trkpt><trkpt lat="43.4054886205221" lon="11.168558151072265"><ele>225.5</ele><time>2026-04-07T13:27:05Z</time></trkpt><trkpt lat="43.40537491064696" lon="11.168685434636528"><ele>225.75</ele><time>2026-04-07T13:27:06Z</time></trkpt><trkpt lat="43.40525695848238" lon="11.16880560438543"><ele>226.0</ele><time>2026-04-07T13:27:07Z</time></trkpt><trkpt lat="43.40514290814002" lon="11.168929309342042"><ele>225.66666666666666</ele><time>2026-04-07T13:27:08Z</time></trkpt><trkpt lat="43.405028280604924" lon="11.169051631018412"><ele>225.33333333333331</ele><time>2026-04-07T13:27:09Z</time></trkpt><trkpt lat="43.40490719681739" lon="11.16917694893399"><ele>225.0</ele><time>2026-04-07T13:27:10Z</time></trkpt><trkpt lat="43.40477921376862" lon="11.169306074006206"><ele>224.66666666666669</ele><time>2026-04-07T13:27:11Z</time></trkpt><trkpt lat="43.40464133107315" lon="11.169436493812562"><ele>224.33333333333334</ele><time>2026-04-07T13:27:12Z</time></trkpt><trkpt lat="43.40450911190485" lon="11.169549783435675"><ele>224.0</ele><time>2026-04-07T13:27:13Z</time></trkpt><trkpt lat="43.40438470370948" lon="11.169646195443821"><ele>224.0</ele><time>2026-04-07T13:27:14Z</time></trkpt><trkpt lat="43.40426071569214" lon="11.169748489887697"><ele>224.0</ele><time>2026-04-07T13:27:15Z</time></trkpt><trkpt lat="43.4041353304674" lon="11.169862243032828"><ele>224.0</ele><time>2026-04-07T13:27:16Z</time></trkpt><trkpt lat="43.404007815477065" lon="11.169989022128107"><ele>224.0</ele><time>2026-04-07T13:27:17Z</time></trkpt><trkpt lat="43.40387620689223" lon="11.170122964969767"><ele>224.0</ele><time>2026-04-07T13:27:18Z</time></trkpt><trkpt lat="43.403742198205485" lon="11.170263373655226"><ele>224.0</ele><time>2026-04-07T13:27:19Z</time></trkpt><trkpt lat="43.40361314623979" lon="11.170396500695565"><ele>223.33333333333334</ele><time>2026-04-07T13:27:20Z</time></trkpt><trkpt lat="43.40348371592371" lon="11.170524547884739"><ele>222.66666666666669</ele><time>2026-04-07T13:27:21Z</time></trkpt><trkpt lat="43.4033665273786" lon="11.170684491879582"><ele>222.0</ele><time>2026-04-07T13:27:22Z</time></trkpt><trkpt lat="43.40324522200085" lon="11.170850984944032"><ele>221.66666666666669</ele><time>2026-04-07T13:27:23Z</time></trkpt><trkpt lat="43.40313636534131" lon="11.17103418227475"><ele>221.33333333333334</ele><time>2026-04-07T13:27:24Z</time></trkpt><trkpt lat="43.403039637965335" lon="11.171220013111988"><ele>221.0</ele><time>2026-04-07T13:27:25Z</time></trkpt><trkpt lat="43.40294686568682" lon="11.171402015603737"><ele>220.33333333333334</ele><time>2026-04-07T13:27:26Z</time></trkpt><trkpt lat="43.40284345985982" lon="11.171592337039941"><ele>219.66666666666669</ele><time>2026-04-07T13:27:27Z</time></trkpt><trkpt lat="43.40273153909942" lon="11.171788587593685"><ele>219.0</ele><time>2026-04-07T13:27:28Z</time></trkpt><trkpt lat="43.40261597529143" lon="11.171991034313097"><ele>219.0</ele><time>2026-04-07T13:27:29Z</time></trkpt><trkpt lat="43.40250596973011" lon="11.172186855187359"><ele>219.0</ele><time>2026-04-07T13:27:30Z</time></trkpt><trkpt lat="43.402404437151176" lon="11.172375781154559"><ele>219.0</ele><time>2026-04-07T13:27:31Z</time></trkpt><trkpt lat="43.40230201859636" lon="11.172578668568129"><ele>219.0</ele><time>2026-04-07T13:27:32Z</time></trkpt><trkpt lat="43.40220515398511" lon="11.172780688286325"><ele>219.0</ele><time>2026-04-07T13:27:33Z</time></trkpt><trkpt lat="43.40211430500315" lon="11.17297253319867"><ele>219.0</ele><time>2026-04-07T13:27:34Z</time></trkpt><trkpt lat="43.40202719311257" lon="11.173167244885951"><ele>218.66666666666669</ele><time>2026-04-07T13:27:35Z</time></trkpt><trkpt lat="43.40194857583809" lon="11.173375717064964"><ele>218.33333333333334</ele><time>2026-04-07T13:27:36Z</time></trkpt><trkpt lat="43.40185891167932" lon="11.173568116451992"><ele>218.0</ele><time>2026-04-07T13:27:37Z</time></trkpt><trkpt lat="43.401803413795214" lon="11.173772639548586"><ele>218.0</ele><time>2026-04-07T13:27:38Z</time></trkpt><trkpt lat="43.401732743867605" lon="11.173955138780203"><ele>218.0</ele><time>2026-04-07T13:27:39Z</time></trkpt><trkpt lat="43.401652551971374" lon="11.174123270424541"><ele>218.0</ele><time>2026-04-07T13:27:40Z</time></trkpt><trkpt lat="43.40155224137691" lon="11.174280236835575"><ele>218.0</ele><time>2026-04-07T13:27:41Z</time></trkpt><trkpt lat="43.40142875664815" lon="11.174422221340919"><ele>217.66666666666669</ele><time>2026-04-07T13:27:42Z</time></trkpt><trkpt lat="43.40129657458995" lon="11.174556465428163"><ele>217.33333333333331</ele><time>2026-04-07T13:27:43Z</time></trkpt><trkpt lat="43.40116182280132" lon="11.174675313711314"><ele>217.0</ele><time>2026-04-07T13:27:44Z</time></trkpt><trkpt lat="43.40102363987071" lon="11.174802927469456"><ele>217.0</ele><time>2026-04-07T13:27:45Z</time></trkpt><trkpt lat="43.40088456391386" lon="11.174939663034076"><ele>217.0</ele><time>2026-04-07T13:27:46Z</time></trkpt><trkpt lat="43.40074213317716" lon="11.175077608339977"><ele>217.0</ele><time>2026-04-07T13:27:47Z</time></trkpt><trkpt lat="43.40059314735683" lon="11.175214959255696"><ele>217.0</ele><time>2026-04-07T13:27:48Z</time></trkpt><trkpt lat="43.40044861969614" lon="11.175355445037688"><ele>217.0</ele><time>2026-04-07T13:27:49Z</time></trkpt><trkpt lat="43.400312321612695" lon="11.175485425476717"><ele>217.0</ele><time>2026-04-07T13:27:50Z</time></trkpt><trkpt lat="43.40017695893694" lon="11.175613707011674"><ele>217.0</ele><time>2026-04-07T13:27:51Z</time></trkpt><trkpt lat="43.40003850087653" lon="11.175745154778307"><ele>217.0</ele><time>2026-04-07T13:27:52Z</time></trkpt><trkpt lat="43.399899439780164" lon="11.17587768847668"><ele>217.0</ele><time>2026-04-07T13:27:53Z</time></trkpt><trkpt lat="43.399759185913446" lon="11.176014625327348"><ele>217.33333333333331</ele><time>2026-04-07T13:27:54Z</time></trkpt><trkpt lat="43.399618338868606" lon="11.176152665467505"><ele>217.66666666666669</ele><time>2026-04-07T13:27:55Z</time></trkpt><trkpt lat="43.39947555098705" lon="11.176292504446044"><ele>218.0</ele><time>2026-04-07T13:27:56Z</time></trkpt><trkpt lat="43.39932262997087" lon="11.176413438438995"><ele>218.0</ele><time>2026-04-07T13:27:57Z</time></trkpt><trkpt lat="43.39917819861381" lon="11.176552737277238"><ele>218.0</ele><time>2026-04-07T13:27:58Z</time></trkpt><trkpt lat="43.39903135092569" lon="11.176694269028031"><ele>218.0</ele><time>2026-04-07T13:27:59Z</time></trkpt><trkpt lat="43.39888328624183" lon="11.176836971727434"><ele>218.0</ele><time>2026-04-07T13:28:00Z</time></trkpt><trkpt lat="43.398758381753446" lon="11.176985177084902"><ele>218.0</ele><time>2026-04-07T13:28:01Z</time></trkpt><trkpt lat="43.39862316422964" lon="11.177114711126691"><ele>218.0</ele><time>2026-04-07T13:28:02Z</time></trkpt><trkpt lat="43.39848654263517" lon="11.177251456878038"><ele>218.33333333333334</ele><time>2026-04-07T13:28:03Z</time></trkpt><trkpt lat="43.398346539759316" lon="11.177388732480717"><ele>218.66666666666669</ele><time>2026-04-07T13:28:04Z</time></trkpt><trkpt lat="43.39820094914776" lon="11.177530146777606"><ele>219.0</ele><time>2026-04-07T13:28:05Z</time></trkpt><trkpt lat="43.39804951070509" lon="11.17766865385894"><ele>218.66666666666669</ele><time>2026-04-07T13:28:06Z</time></trkpt><trkpt lat="43.39789687454379" lon="11.177813437075045"><ele>218.33333333333334</ele><time>2026-04-07T13:28:07Z</time></trkpt><trkpt lat="43.397742265259886" lon="11.17796199366813"><ele>218.0</ele><time>2026-04-07T13:28:08Z</time></trkpt><trkpt lat="43.39758313747318" lon="11.178111248845372"><ele>219.0</ele><time>2026-04-07T13:28:09Z</time></trkpt><trkpt lat="43.397424404156034" lon="11.178262937280163"><ele>220.0</ele><time>2026-04-07T13:28:10Z</time></trkpt><trkpt lat="43.397280480604216" lon="11.17840363594649"><ele>221.0</ele><time>2026-04-07T13:28:11Z</time></trkpt><trkpt lat="43.39714301519624" lon="11.178545305707493"><ele>221.66666666666669</ele><time>2026-04-07T13:28:12Z</time></trkpt><trkpt lat="43.39700702696847" lon="11.178701001792556"><ele>222.33333333333331</ele><time>2026-04-07T13:28:13Z</time></trkpt><trkpt lat="43.39686845263958" lon="11.178869057513827"><ele>223.0</ele><time>2026-04-07T13:28:14Z</time></trkpt><trkpt lat="43.39675630906921" lon="11.179070764249413"><ele>223.0</ele><time>2026-04-07T13:28:15Z</time></trkpt><trkpt lat="43.396667208574485" lon="11.179303784078176"><ele>223.0</ele><time>2026-04-07T13:28:15.999Z</time></trkpt><trkpt lat="43.39656472390524" lon="11.1795361348376"><ele>223.0</ele><time>2026-04-07T13:28:16.999Z</time></trkpt><trkpt lat="43.3964602036051" lon="11.179776497347513"><ele>223.66666666666666</ele><time>2026-04-07T13:28:17.999Z</time></trkpt><trkpt lat="43.39636603115467" lon="11.180000450617099"><ele>224.33333333333331</ele><time>2026-04-07T13:28:18.999Z</time></trkpt><trkpt lat="43.39626046802711" lon="11.180208591195022"><ele>225.0</ele><time>2026-04-07T13:28:19.999Z</time></trkpt><trkpt lat="43.396180290300286" lon="11.180441889094526"><ele>223.66666666666669</ele><time>2026-04-07T13:28:20.999Z</time></trkpt><trkpt lat="43.39609057983784" lon="11.180668979235241"><ele>222.33333333333334</ele><time>2026-04-07T13:28:21.999Z</time></trkpt><trkpt lat="43.396007424322875" lon="11.180883214353075"><ele>221.0</ele><time>2026-04-07T13:28:22.999Z</time></trkpt><trkpt lat="43.39592509818641" lon="11.181096816130369"><ele>221.0</ele><time>2026-04-07T13:28:23.999Z</time></trkpt><trkpt lat="43.39584370457115" lon="11.181309863342277"><ele>221.0</ele><time>2026-04-07T13:28:24.999Z</time></trkpt><trkpt lat="43.3957568713377" lon="11.181526193038424"><ele>221.0</ele><time>2026-04-07T13:28:25.999Z</time></trkpt><trkpt lat="43.39566755648559" lon="11.181749929775526"><ele>221.0</ele><time>2026-04-07T13:28:26.999Z</time></trkpt><trkpt lat="43.39557441843006" lon="11.181986659401957"><ele>221.0</ele><time>2026-04-07T13:28:27.999Z</time></trkpt><trkpt lat="43.39548076138667" lon="11.182234381459786"><ele>221.0</ele><time>2026-04-07T13:28:28.999Z</time></trkpt><trkpt lat="43.395386233382034" lon="11.182478654970042"><ele>221.66666666666669</ele><time>2026-04-07T13:28:29.999Z</time></trkpt><trkpt lat="43.39529563442238" lon="11.182703401434601"><ele>222.33333333333331</ele><time>2026-04-07T13:28:30.999Z</time></trkpt><trkpt lat="43.39521262931376" lon="11.182912359097493"><ele>223.0</ele><time>2026-04-07T13:28:31.999Z</time></trkpt><trkpt lat="43.39511627530345" lon="11.183113573526109"><ele>223.0</ele><time>2026-04-07T13:28:32.999Z</time></trkpt><trkpt lat="43.39504447851105" lon="11.183343822494558"><ele>223.0</ele><time>2026-04-07T13:28:33.999Z</time></trkpt><trkpt lat="43.39495293441301" lon="11.183566295621628"><ele>223.0</ele><time>2026-04-07T13:28:34.999Z</time></trkpt><trkpt lat="43.394861582831865" lon="11.183796591164565"><ele>223.33333333333331</ele><time>2026-04-07T13:28:35.999Z</time></trkpt><trkpt lat="43.394771756780145" lon="11.184028207669286"><ele>223.66666666666669</ele><time>2026-04-07T13:28:36.999Z</time></trkpt><trkpt lat="43.39467061795057" lon="11.184238173712917"><ele>224.0</ele><time>2026-04-07T13:28:37.999Z</time></trkpt><trkpt lat="43.39460369710427" lon="11.184457186338093"><ele>224.66666666666669</ele><time>2026-04-07T13:28:38.999Z</time></trkpt><trkpt lat="43.39452045923464" lon="11.184665894893133"><ele>225.33333333333331</ele><time>2026-04-07T13:28:39.999Z</time></trkpt><trkpt lat="43.39443256604714" lon="11.18488030795903"><ele>226.0</ele><time>2026-04-07T13:28:40.999Z</time></trkpt><trkpt lat="43.39434267226634" lon="11.185095631754896"><ele>226.33333333333331</ele><time>2026-04-07T13:28:41.999Z</time></trkpt><trkpt lat="43.39424875319759" lon="11.185321462412675"><ele>226.66666666666669</ele><time>2026-04-07T13:28:42.999Z</time></trkpt><trkpt lat="43.39415929633466" lon="11.185543437424288"><ele>227.0</ele><time>2026-04-07T13:28:43.999Z</time></trkpt><trkpt lat="43.39407192778479" lon="11.185752763764842"><ele>226.33333333333334</ele><time>2026-04-07T13:28:44.999Z</time></trkpt><trkpt lat="43.393988198208135" lon="11.185958651531402"><ele>225.66666666666669</ele><time>2026-04-07T13:28:45.999Z</time></trkpt><trkpt lat="43.39390496529807" lon="11.18616054858296"><ele>225.0</ele><time>2026-04-07T13:28:46.999Z</time></trkpt><trkpt lat="43.39382236760588" lon="11.186351709862471"><ele>222.0</ele><time>2026-04-07T13:28:47.999Z</time></trkpt><trkpt lat="43.39374329817551" lon="11.186537506773778"><ele>219.0</ele><time>2026-04-07T13:28:48.999Z</time></trkpt><trkpt lat="43.39366844280434" lon="11.186722473054816"><ele>216.0</ele><time>2026-04-07T13:28:49.999Z</time></trkpt><trkpt lat="43.39360315652998" lon="11.186907840693118"><ele>216.0</ele><time>2026-04-07T13:28:50.999Z</time></trkpt><trkpt lat="43.39354435061469" lon="11.187106510902593"><ele>216.0</ele><time>2026-04-07T13:28:51.999Z</time></trkpt><trkpt lat="43.393464537820726" lon="11.187303231038978"><ele>216.0</ele><time>2026-04-07T13:28:52.999Z</time></trkpt><trkpt lat="43.39341125549893" lon="11.187502981656577"><ele>215.0</ele><time>2026-04-07T13:28:53.999Z</time></trkpt><trkpt lat="43.39336492898626" lon="11.187701540302388"><ele>214.0</ele><time>2026-04-07T13:28:54.999Z</time></trkpt><trkpt lat="43.39332685407168" lon="11.187900196555955"><ele>213.0</ele><time>2026-04-07T13:28:55.999Z</time></trkpt><trkpt lat="43.393293040874525" lon="11.188109035103075"><ele>212.33333333333331</ele><time>2026-04-07T13:28:56.999Z</time></trkpt><trkpt lat="43.39326436575069" lon="11.188335060176842"><ele>211.66666666666666</ele><time>2026-04-07T13:28:57.999Z</time></trkpt><trkpt lat="43.39324740016954" lon="11.188569658419558"><ele>211.0</ele><time>2026-04-07T13:28:58.999Z</time></trkpt><trkpt lat="43.393241047817185" lon="11.188785963878603"><ele>211.0</ele><time>2026-04-07T13:28:59.999Z</time></trkpt><trkpt lat="43.393234819078565" lon="11.18899806082755"><ele>211.0</ele><time>2026-04-07T13:29:00.999Z</time></trkpt><trkpt lat="43.393230173154706" lon="11.18920780739585"><ele>211.0</ele><time>2026-04-07T13:29:01.999Z</time></trkpt><trkpt lat="43.393242391775104" lon="11.189417026735864"><ele>210.5</ele><time>2026-04-07T13:29:02.999Z</time></trkpt><trkpt lat="43.39323752309501" lon="11.189613361419289"><ele>210.0</ele><time>2026-04-07T13:29:03.999Z</time></trkpt><trkpt lat="43.393232857303836" lon="11.189807060866196"><ele>209.5</ele><time>2026-04-07T13:29:05Z</time></trkpt><trkpt lat="43.393231074256725" lon="11.189998072830349"><ele>209.0</ele><time>2026-04-07T13:29:06Z</time></trkpt><trkpt lat="43.39322708580683" lon="11.1901801341794"><ele>208.6</ele><time>2026-04-07T13:29:07Z</time></trkpt><trkpt lat="43.39321779007894" lon="11.19035586202311"><ele>208.2</ele><time>2026-04-07T13:29:08Z</time></trkpt><trkpt lat="43.39321505797996" lon="11.19051556196216"><ele>207.79999999999998</ele><time>2026-04-07T13:29:09Z</time></trkpt><trkpt lat="43.39320838344693" lon="11.190651107872842"><ele>207.39999999999998</ele><time>2026-04-07T13:29:10Z</time></trkpt><trkpt lat="43.39319496806751" lon="11.190762625133429"><ele>207.0</ele><time>2026-04-07T13:29:11Z</time></trkpt><trkpt lat="43.39316725205436" lon="11.190849075243328"><ele>206.83333333333334</ele><time>2026-04-07T13:29:12Z</time></trkpt><trkpt lat="43.39312038207684" lon="11.190921016260782"><ele>206.66666666666669</ele><time>2026-04-07T13:29:13Z</time></trkpt><trkpt lat="43.39306518259668" lon="11.191000691504668"><ele>206.5</ele><time>2026-04-07T13:29:14Z</time></trkpt><trkpt lat="43.3930243319466" lon="11.191110885485745"><ele>206.33333333333334</ele><time>2026-04-07T13:29:15Z</time></trkpt><trkpt lat="43.3929907182916" lon="11.191230161143457"><ele>206.16666666666669</ele><time>2026-04-07T13:29:16Z</time></trkpt><trkpt lat="43.39301429757214" lon="11.191358504011653"><ele>206.0</ele><time>2026-04-07T13:29:17Z</time></trkpt><trkpt lat="43.39308278493617" lon="11.191467315981566"><ele>205.25</ele><time>2026-04-07T13:29:18Z</time></trkpt><trkpt lat="43.393138508475076" lon="11.191584908107483"><ele>204.5</ele><time>2026-04-07T13:29:19Z</time></trkpt><trkpt lat="43.393182454995404" lon="11.191732385716243"><ele>203.75</ele><time>2026-04-07T13:29:20Z</time></trkpt><trkpt lat="43.393195008158514" lon="11.191900648715658"><ele>203.0</ele><time>2026-04-07T13:29:21Z</time></trkpt><trkpt lat="43.393195551643124" lon="11.19210241311455"><ele>203.0</ele><time>2026-04-07T13:29:22Z</time></trkpt><trkpt lat="43.39318813069545" lon="11.192299550920755"><ele>203.0</ele><time>2026-04-07T13:29:23Z</time></trkpt><trkpt lat="43.393164028282456" lon="11.192515946349522"><ele>203.0</ele><time>2026-04-07T13:29:24Z</time></trkpt><trkpt lat="43.39316009859127" lon="11.19272988332041"><ele>203.33333333333334</ele><time>2026-04-07T13:29:25Z</time></trkpt><trkpt lat="43.39315665748562" lon="11.192946241823433"><ele>203.66666666666669</ele><time>2026-04-07T13:29:26Z</time></trkpt><trkpt lat="43.39316925587331" lon="11.193161462555485"><ele>204.0</ele><time>2026-04-07T13:29:27Z</time></trkpt><trkpt lat="43.39316629253558" lon="11.193374860314556"><ele>204.0</ele><time>2026-04-07T13:29:28Z</time></trkpt><trkpt lat="43.39314567890972" lon="11.193597094654287"><ele>204.0</ele><time>2026-04-07T13:29:29Z</time></trkpt><trkpt lat="43.39314080354505" lon="11.193824276727621"><ele>204.0</ele><time>2026-04-07T13:29:30Z</time></trkpt><trkpt lat="43.39313570627979" lon="11.194061798899464"><ele>203.33333333333331</ele><time>2026-04-07T13:29:31Z</time></trkpt><trkpt lat="43.39313122330458" lon="11.194307834815522"><ele>202.66666666666666</ele><time>2026-04-07T13:29:32Z</time></trkpt><trkpt lat="43.39312754403158" lon="11.194558610884513"><ele>202.0</ele><time>2026-04-07T13:29:33Z</time></trkpt><trkpt lat="43.39312325200194" lon="11.194812500804982"><ele>201.66666666666666</ele><time>2026-04-07T13:29:34Z</time></trkpt><trkpt lat="43.39311888449447" lon="11.195071985956526"><ele>201.33333333333331</ele><time>2026-04-07T13:29:35Z</time></trkpt><trkpt lat="43.393112034391116" lon="11.195321754564699"><ele>201.0</ele><time>2026-04-07T13:29:36Z</time></trkpt><trkpt lat="43.393105661481876" lon="11.19555565606522"><ele>200.66666666666669</ele><time>2026-04-07T13:29:37Z</time></trkpt><trkpt lat="43.39309955164204" lon="11.195779901629908"><ele>200.33333333333334</ele><time>2026-04-07T13:29:38Z</time></trkpt><trkpt lat="43.39309505581653" lon="11.196010418498114"><ele>200.0</ele><time>2026-04-07T13:29:39Z</time></trkpt><trkpt lat="43.39309088563115" lon="11.196243810762923"><ele>200.0</ele><time>2026-04-07T13:29:40Z</time></trkpt><trkpt lat="43.39308824785161" lon="11.19648641529286"><ele>200.0</ele><time>2026-04-07T13:29:41Z</time></trkpt><trkpt lat="43.393083399508974" lon="11.1967390977657"><ele>200.0</ele><time>2026-04-07T13:29:42Z</time></trkpt><trkpt lat="43.39307855447304" lon="11.196991607919255"><ele>199.66666666666669</ele><time>2026-04-07T13:29:43Z</time></trkpt><trkpt lat="43.39307361902665" lon="11.197248830062223"><ele>199.33333333333331</ele><time>2026-04-07T13:29:44Z</time></trkpt><trkpt lat="43.39306860918904" lon="11.197509929217434"><ele>199.0</ele><time>2026-04-07T13:29:45Z</time></trkpt><trkpt lat="43.393063471388416" lon="11.19777769765346"><ele>198.66666666666666</ele><time>2026-04-07T13:29:46Z</time></trkpt><trkpt lat="43.39305829104767" lon="11.198047682951918"><ele>198.33333333333331</ele><time>2026-04-07T13:29:47Z</time></trkpt><trkpt lat="43.39305341741928" lon="11.198302513614683"><ele>198.0</ele><time>2026-04-07T13:29:48Z</time></trkpt><trkpt lat="43.393048583568735" lon="11.198557685111576"><ele>198.0</ele><time>2026-04-07T13:29:49Z</time></trkpt><trkpt lat="43.393043661735945" lon="11.198817501143292"><ele>198.0</ele><time>2026-04-07T13:29:50Z</time></trkpt><trkpt lat="43.39303867473903" lon="11.199080759329995"><ele>198.0</ele><time>2026-04-07T13:29:51Z</time></trkpt><trkpt lat="43.39303314811287" lon="11.199340047879833"><ele>198.0</ele><time>2026-04-07T13:29:52Z</time></trkpt><trkpt lat="43.393028189653656" lon="11.199583578624292"><ele>198.0</ele><time>2026-04-07T13:29:53Z</time></trkpt><trkpt lat="43.393023569755336" lon="11.19981776356075"><ele>198.0</ele><time>2026-04-07T13:29:54Z</time></trkpt><trkpt lat="43.39301888065972" lon="11.200058831418666"><ele>198.0</ele><time>2026-04-07T13:29:55Z</time></trkpt><trkpt lat="43.39301398843989" lon="11.200307321469781"><ele>198.0</ele><time>2026-04-07T13:29:56Z</time></trkpt><trkpt lat="43.39300888947037" lon="11.200565143371238"><ele>198.0</ele><time>2026-04-07T13:29:57Z</time></trkpt><trkpt lat="43.39300377625643" lon="11.200827734884674"><ele>197.66666666666669</ele><time>2026-04-07T13:29:58Z</time></trkpt><trkpt lat="43.39299882813308" lon="11.20109493349801"><ele>197.33333333333334</ele><time>2026-04-07T13:29:59Z</time></trkpt><trkpt lat="43.39299370444008" lon="11.20137161291641"><ele>197.0</ele><time>2026-04-07T13:30:00Z</time></trkpt><trkpt lat="43.392987480894966" lon="11.201651883060551"><ele>197.0</ele><time>2026-04-07T13:30:01Z</time></trkpt><trkpt lat="43.392981165161984" lon="11.201940441904842"><ele>197.0</ele><time>2026-04-07T13:30:02Z</time></trkpt><trkpt lat="43.39297510206078" lon="11.20223185940033"><ele>197.0</ele><time>2026-04-07T13:30:03Z</time></trkpt><trkpt lat="43.392968963043984" lon="11.202526925070313"><ele>196.66666666666669</ele><time>2026-04-07T13:30:04Z</time></trkpt><trkpt lat="43.39296287654625" lon="11.202828082709315"><ele>196.33333333333331</ele><time>2026-04-07T13:30:05Z</time></trkpt><trkpt lat="43.39295670377515" lon="11.20313545288061"><ele>196.0</ele><time>2026-04-07T13:30:06Z</time></trkpt><trkpt lat="43.392950303352" lon="11.203442173495754"><ele>196.0</ele><time>2026-04-07T13:30:07Z</time></trkpt><trkpt lat="43.39294356974445" lon="11.203750135296383"><ele>196.0</ele><time>2026-04-07T13:30:08Z</time></trkpt><trkpt lat="43.39293760938665" lon="11.204050263514498"><ele>196.0</ele><time>2026-04-07T13:30:09Z</time></trkpt><trkpt lat="43.39293202192094" lon="11.204344789553927"><ele>196.33333333333331</ele><time>2026-04-07T13:30:10Z</time></trkpt><trkpt lat="43.39292638147114" lon="11.204642108599637"><ele>196.66666666666669</ele><time>2026-04-07T13:30:11Z</time></trkpt><trkpt lat="43.39292073929887" lon="11.204939518392868"><ele>197.0</ele><time>2026-04-07T13:30:12Z</time></trkpt><trkpt lat="43.39291492404027" lon="11.205239843670432"><ele>197.0</ele><time>2026-04-07T13:30:13Z</time></trkpt><trkpt lat="43.39290876412651" lon="11.205548137332645"><ele>197.0</ele><time>2026-04-07T13:30:14Z</time></trkpt><trkpt lat="43.39290261071374" lon="11.20585610573404"><ele>197.0</ele><time>2026-04-07T13:30:15Z</time></trkpt><trkpt lat="43.392896234379094" lon="11.206178672360274"><ele>196.33333333333334</ele><time>2026-04-07T13:30:16Z</time></trkpt><trkpt lat="43.392890022776136" lon="11.206498384097243"><ele>195.66666666666669</ele><time>2026-04-07T13:30:17Z</time></trkpt><trkpt lat="43.39288411766682" lon="11.206796007389016"><ele>195.0</ele><time>2026-04-07T13:30:18Z</time></trkpt><trkpt lat="43.39287844311324" lon="11.207075451318438"><ele>194.33333333333331</ele><time>2026-04-07T13:30:19Z</time></trkpt><trkpt lat="43.39287251830371" lon="11.207367219216911"><ele>193.66666666666666</ele><time>2026-04-07T13:30:20Z</time></trkpt><trkpt lat="43.39286650994348" lon="11.20766307002884"><ele>193.0</ele><time>2026-04-07T13:30:21Z</time></trkpt><trkpt lat="43.39286038603246" lon="11.207960415799786"><ele>192.66666666666666</ele><time>2026-04-07T13:30:22Z</time></trkpt><trkpt lat="43.392854165383795" lon="11.208262458605091"><ele>192.33333333333331</ele><time>2026-04-07T13:30:23Z</time></trkpt><trkpt lat="43.39284767479702" lon="11.20857760827262"><ele>192.0</ele><time>2026-04-07T13:30:23.999Z</time></trkpt><trkpt lat="43.39284127484114" lon="11.208888357414136"><ele>192.0</ele><time>2026-04-07T13:30:24.999Z</time></trkpt><trkpt lat="43.392834787246194" lon="11.209203361801274"><ele>192.0</ele><time>2026-04-07T13:30:25.999Z</time></trkpt><trkpt lat="43.39282816017611" lon="11.20952513841632"><ele>191.5</ele><time>2026-04-07T13:30:26.999Z</time></trkpt><trkpt lat="43.39282145615253" lon="11.209850651477076"><ele>191.0</ele><time>2026-04-07T13:30:27.999Z</time></trkpt><trkpt lat="43.3928147318295" lon="11.210177150164409"><ele>191.0</ele><time>2026-04-07T13:30:28.999Z</time></trkpt><trkpt lat="43.39280831959377" lon="11.210488495523549"><ele>191.0</ele><time>2026-04-07T13:30:29.999Z</time></trkpt><trkpt lat="43.39280219822908" lon="11.210785717510038"><ele>191.0</ele><time>2026-04-07T13:30:30.999Z</time></trkpt><trkpt lat="43.392796204617724" lon="11.211076736740944"><ele>191.33333333333331</ele><time>2026-04-07T13:30:31.999Z</time></trkpt><trkpt lat="43.39279006039691" lon="11.211375068592647"><ele>191.66666666666666</ele><time>2026-04-07T13:30:32.999Z</time></trkpt><trkpt lat="43.392783802433776" lon="11.211678923262426"><ele>192.0</ele><time>2026-04-07T13:30:33.999Z</time></trkpt><trkpt lat="43.39277715798022" lon="11.211988868180649"><ele>192.5</ele><time>2026-04-07T13:30:34.999Z</time></trkpt><trkpt lat="43.39277065324755" lon="11.212297163427227"><ele>193.0</ele><time>2026-04-07T13:30:35.999Z</time></trkpt><trkpt lat="43.39276400505285" lon="11.212612258034302"><ele>193.0</ele><time>2026-04-07T13:30:36.999Z</time></trkpt><trkpt lat="43.39275730087688" lon="11.212930005982471"><ele>193.0</ele><time>2026-04-07T13:30:37.999Z</time></trkpt><trkpt lat="43.39275062281702" lon="11.213246516137303"><ele>192.33333333333331</ele><time>2026-04-07T13:30:38.999Z</time></trkpt><trkpt lat="43.39274427634832" lon="11.213547310267266"><ele>191.66666666666666</ele><time>2026-04-07T13:30:39.999Z</time></trkpt><trkpt lat="43.39273827322341" lon="11.21383183152408"><ele>191.0</ele><time>2026-04-07T13:30:40.999Z</time></trkpt><trkpt lat="43.39273247190578" lon="11.214106788080235"><ele>191.0</ele><time>2026-04-07T13:30:41.999Z</time></trkpt><trkpt lat="43.3927266208577" lon="11.214384101493579"><ele>191.0</ele><time>2026-04-07T13:30:42.999Z</time></trkpt><trkpt lat="43.39272090069883" lon="11.214666812320038"><ele>191.0</ele><time>2026-04-07T13:30:43.999Z</time></trkpt><trkpt lat="43.3927151497991" lon="11.214952075200138"><ele>191.0</ele><time>2026-04-07T13:30:44.999Z</time></trkpt><trkpt lat="43.39270921297457" lon="11.215242855716339"><ele>191.0</ele><time>2026-04-07T13:30:45.999Z</time></trkpt><trkpt lat="43.39270316694769" lon="11.215537599499182"><ele>191.0</ele><time>2026-04-07T13:30:46.999Z</time></trkpt><trkpt lat="43.39269717155116" lon="11.215829875126223"><ele>191.33333333333331</ele><time>2026-04-07T13:30:47.999Z</time></trkpt><trkpt lat="43.39269159181436" lon="11.216101887358228"><ele>191.66666666666666</ele><time>2026-04-07T13:30:48.999Z</time></trkpt><trkpt lat="43.39268649535204" lon="11.216350340048725"><ele>192.0</ele><time>2026-04-07T13:30:49.999Z</time></trkpt><trkpt lat="43.39268220412222" lon="11.21656789794007"><ele>192.75</ele><time>2026-04-07T13:30:50.999Z</time></trkpt><trkpt lat="43.39268030634753" lon="11.216767733561344"><ele>193.5</ele><time>2026-04-07T13:30:51.999Z</time></trkpt><trkpt lat="43.392688437440505" lon="11.216953908377745"><ele>194.25</ele><time>2026-04-07T13:30:52.999Z</time></trkpt><trkpt lat="43.39269555360784" lon="11.21712092640582"><ele>195.0</ele><time>2026-04-07T13:30:53.999Z</time></trkpt><trkpt lat="43.392704014345455" lon="11.2173195017637"><ele>196.0</ele><time>2026-04-07T13:30:54.999Z</time></trkpt><trkpt lat="43.39288636619055" lon="11.217488131282142"><ele>197.0</ele><time>2026-04-07T13:30:55.999Z</time></trkpt><trkpt lat="43.39298650960358" lon="11.217635698515105"><ele>198.0</ele><time>2026-04-07T13:30:56.999Z</time></trkpt><trkpt lat="43.39307236544228" lon="11.21774908407632"><ele>198.0</ele><time>2026-04-07T13:30:57.999Z</time></trkpt><trkpt lat="43.39313011077245" lon="11.217847294764274"><ele>198.0</ele><time>2026-04-07T13:30:58.999Z</time></trkpt><trkpt lat="43.39316348721715" lon="11.217947470094627"><ele>198.0</ele><time>2026-04-07T13:30:59.999Z</time></trkpt><trkpt lat="43.393167424762275" lon="11.218057999470709"><ele>198.0</ele><time>2026-04-07T13:31:00.999Z</time></trkpt><trkpt lat="43.3931731811741" lon="11.218197078524557"><ele>198.0</ele><time>2026-04-07T13:31:01.999Z</time></trkpt><trkpt lat="43.393178657929234" lon="11.218350620937606"><ele>198.66666666666666</ele><time>2026-04-07T13:31:02.999Z</time></trkpt><trkpt lat="43.39316603028554" lon="11.218467553455255"><ele>199.33333333333331</ele><time>2026-04-07T13:31:03.999Z</time></trkpt><trkpt lat="43.39312771300605" lon="11.218571925937658"><ele>200.0</ele><time>2026-04-07T13:31:04.999Z</time></trkpt><trkpt lat="43.39306930231684" lon="11.218664538168024"><ele>200.66666666666666</ele><time>2026-04-07T13:31:05.999Z</time></trkpt><trkpt lat="43.39299274676325" lon="11.218741010898132"><ele>201.33333333333331</ele><time>2026-04-07T13:31:06.999Z</time></trkpt><trkpt lat="43.39292503149882" lon="11.21880503965214"><ele>202.0</ele><time>2026-04-07T13:31:07.999Z</time></trkpt><trkpt lat="43.39285990723251" lon="11.218877401294723"><ele>202.8</ele><time>2026-04-07T13:31:08.999Z</time></trkpt><trkpt lat="43.39279189065371" lon="11.218965299317128"><ele>203.6</ele><time>2026-04-07T13:31:09.999Z</time></trkpt><trkpt lat="43.39271352985317" lon="11.219052723005875"><ele>204.4</ele><time>2026-04-07T13:31:11Z</time></trkpt><trkpt lat="43.39262831601155" lon="11.219142933162278"><ele>205.20000000000002</ele><time>2026-04-07T13:31:12Z</time></trkpt><trkpt lat="43.39254437351831" lon="11.219230086509446"><ele>206.0</ele><time>2026-04-07T13:31:13Z</time></trkpt><trkpt lat="43.392451048053886" lon="11.219295142397794"><ele>206.5</ele><time>2026-04-07T13:31:14Z</time></trkpt><trkpt lat="43.39234635614994" lon="11.219344244509225"><ele>207.0</ele><time>2026-04-07T13:31:15Z</time></trkpt><trkpt lat="43.39223047976032" lon="11.219362798912524"><ele>207.5</ele><time>2026-04-07T13:31:16Z</time></trkpt><trkpt lat="43.39211080390797" lon="11.219354784349017"><ele>208.0</ele><time>2026-04-07T13:31:17Z</time></trkpt><trkpt lat="43.391995763183694" lon="11.219365070872609"><ele>209.75</ele><time>2026-04-07T13:31:18Z</time></trkpt><trkpt lat="43.39188454427287" lon="11.21937632736047"><ele>211.5</ele><time>2026-04-07T13:31:19Z</time></trkpt><trkpt lat="43.391777017689876" lon="11.219403464191954"><ele>213.25</ele><time>2026-04-07T13:31:20Z</time></trkpt><trkpt lat="43.3916479153681" lon="11.219485209033472"><ele>215.0</ele><time>2026-04-07T13:31:21Z</time></trkpt><trkpt lat="43.391516136204494" lon="11.219595974418503"><ele>215.0</ele><time>2026-04-07T13:31:22Z</time></trkpt><trkpt lat="43.39140167420035" lon="11.219700233336615"><ele>215.0</ele><time>2026-04-07T13:31:23Z</time></trkpt><trkpt lat="43.391283054007616" lon="11.219790798727685"><ele>215.0</ele><time>2026-04-07T13:31:24Z</time></trkpt><trkpt lat="43.39114257512215" lon="11.219857566126322"><ele>215.0</ele><time>2026-04-07T13:31:25Z</time></trkpt><trkpt lat="43.390998158252486" lon="11.219890216071414"><ele>214.75</ele><time>2026-04-07T13:31:26Z</time></trkpt><trkpt lat="43.39084890357642" lon="11.219892068497364"><ele>214.5</ele><time>2026-04-07T13:31:27Z</time></trkpt><trkpt lat="43.390710754754636" lon="11.219887836017524"><ele>214.25</ele><time>2026-04-07T13:31:28Z</time></trkpt><trkpt lat="43.39059129935901" lon="11.219891324907996"><ele>214.0</ele><time>2026-04-07T13:31:29Z</time></trkpt><trkpt lat="43.39047425626916" lon="11.219899493693537"><ele>215.0</ele><time>2026-04-07T13:31:30Z</time></trkpt><trkpt lat="43.39035718163634" lon="11.219914769841369"><ele>216.0</ele><time>2026-04-07T13:31:31Z</time></trkpt><trkpt lat="43.39023621196733" lon="11.219951530299877"><ele>217.0</ele><time>2026-04-07T13:31:32Z</time></trkpt><trkpt lat="43.390109085530874" lon="11.220020804781043"><ele>218.0</ele><time>2026-04-07T13:31:33Z</time></trkpt><trkpt lat="43.38997739881388" lon="11.220103136999498"><ele>218.0</ele><time>2026-04-07T13:31:34Z</time></trkpt><trkpt lat="43.38984061157326" lon="11.220201050548628"><ele>218.0</ele><time>2026-04-07T13:31:35Z</time></trkpt><trkpt lat="43.38969319915384" lon="11.220319932140486"><ele>218.0</ele><time>2026-04-07T13:31:36Z</time></trkpt><trkpt lat="43.389555079856585" lon="11.22043934888461"><ele>217.75</ele><time>2026-04-07T13:31:37Z</time></trkpt><trkpt lat="43.38942535960694" lon="11.220541458309969"><ele>217.5</ele><time>2026-04-07T13:31:38Z</time></trkpt><trkpt lat="43.389298448606205" lon="11.220650376621998"><ele>217.25</ele><time>2026-04-07T13:31:39Z</time></trkpt><trkpt lat="43.389181021739184" lon="11.220760444221009"><ele>217.0</ele><time>2026-04-07T13:31:40Z</time></trkpt><trkpt lat="43.389060651569245" lon="11.220874677318875"><ele>218.33333333333331</ele><time>2026-04-07T13:31:41Z</time></trkpt><trkpt lat="43.38893547045163" lon="11.221002695299731"><ele>219.66666666666669</ele><time>2026-04-07T13:31:42Z</time></trkpt><trkpt lat="43.38881724474087" lon="11.221127256325227"><ele>221.0</ele><time>2026-04-07T13:31:43Z</time></trkpt><trkpt lat="43.3886915502342" lon="11.22125792928963"><ele>221.0</ele><time>2026-04-07T13:31:44Z</time></trkpt><trkpt lat="43.388555134409366" lon="11.221399735650738"><ele>221.0</ele><time>2026-04-07T13:31:45Z</time></trkpt><trkpt lat="43.388415759241944" lon="11.221549858980373"><ele>221.0</ele><time>2026-04-07T13:31:46Z</time></trkpt><trkpt lat="43.38829601126289" lon="11.221687690852832"><ele>221.66666666666669</ele><time>2026-04-07T13:31:47Z</time></trkpt><trkpt lat="43.388178012046865" lon="11.221823654701629"><ele>222.33333333333331</ele><time>2026-04-07T13:31:48Z</time></trkpt><trkpt lat="43.38804948258622" lon="11.221961703988626"><ele>223.0</ele><time>2026-04-07T13:31:49Z</time></trkpt><trkpt lat="43.387921297285935" lon="11.222102519507736"><ele>223.0</ele><time>2026-04-07T13:31:50Z</time></trkpt><trkpt lat="43.38779733503539" lon="11.222243326151126"><ele>223.0</ele><time>2026-04-07T13:31:51Z</time></trkpt><trkpt lat="43.38768953699063" lon="11.222369769559988"><ele>223.0</ele><time>2026-04-07T13:31:52Z</time></trkpt><trkpt lat="43.38757989042497" lon="11.2225013858509"><ele>223.0</ele><time>2026-04-07T13:31:53Z</time></trkpt><trkpt lat="43.38746273423233" lon="11.22264931702151"><ele>224.0</ele><time>2026-04-07T13:31:54Z</time></trkpt><trkpt lat="43.38733966341417" lon="11.222802830358269"><ele>225.0</ele><time>2026-04-07T13:31:55Z</time></trkpt><trkpt lat="43.38721457084804" lon="11.222957480378756"><ele>226.0</ele><time>2026-04-07T13:31:56Z</time></trkpt><trkpt lat="43.387098073281436" lon="11.223093619139641"><ele>226.33333333333331</ele><time>2026-04-07T13:31:57Z</time></trkpt><trkpt lat="43.386986133281496" lon="11.223234791181639"><ele>226.66666666666669</ele><time>2026-04-07T13:31:58Z</time></trkpt><trkpt lat="43.38687204544019" lon="11.22338712082775"><ele>227.0</ele><time>2026-04-07T13:31:59Z</time></trkpt><trkpt lat="43.38675775255953" lon="11.22355273722663"><ele>227.0</ele><time>2026-04-07T13:32:00Z</time></trkpt><trkpt lat="43.386621002121956" lon="11.223704661285234"><ele>227.0</ele><time>2026-04-07T13:32:01Z</time></trkpt><trkpt lat="43.38650025142197" lon="11.223892173244199"><ele>227.0</ele><time>2026-04-07T13:32:02Z</time></trkpt><trkpt lat="43.386389393329715" lon="11.224064905167568"><ele>229.0</ele><time>2026-04-07T13:32:03Z</time></trkpt><trkpt lat="43.38628525854464" lon="11.224227406845062"><ele>231.0</ele><time>2026-04-07T13:32:04Z</time></trkpt><trkpt lat="43.386184108913874" lon="11.22438525011686"><ele>233.0</ele><time>2026-04-07T13:32:05Z</time></trkpt><trkpt lat="43.38609143185518" lon="11.224529872062135"><ele>233.0</ele><time>2026-04-07T13:32:06Z</time></trkpt><trkpt lat="43.38600231815911" lon="11.224671980335374"><ele>233.0</ele><time>2026-04-07T13:32:07Z</time></trkpt><trkpt lat="43.385917919225044" lon="11.224826802671208"><ele>233.0</ele><time>2026-04-07T13:32:08Z</time></trkpt><trkpt lat="43.38584842328445" lon="11.22502041274849"><ele>233.0</ele><time>2026-04-07T13:32:09Z</time></trkpt><trkpt lat="43.385800553694295" lon="11.225238588767446"><ele>234.0</ele><time>2026-04-07T13:32:10Z</time></trkpt><trkpt lat="43.38576399645175" lon="11.225429991190772"><ele>235.0</ele><time>2026-04-07T13:32:11Z</time></trkpt><trkpt lat="43.38573411976862" lon="11.225595196867136"><ele>236.0</ele><time>2026-04-07T13:32:12Z</time></trkpt><trkpt lat="43.38570852901933" lon="11.225736703176572"><ele>237.0</ele><time>2026-04-07T13:32:13Z</time></trkpt><trkpt lat="43.38568276205393" lon="11.225879183772097"><ele>238.0</ele><time>2026-04-07T13:32:14Z</time></trkpt><trkpt lat="43.38565754848473" lon="11.2260186032899"><ele>239.0</ele><time>2026-04-07T13:32:15Z</time></trkpt><trkpt lat="43.38563236319421" lon="11.22615880015956"><ele>240.0</ele><time>2026-04-07T13:32:16Z</time></trkpt><trkpt lat="43.38560589369532" lon="11.226305860540554"><ele>241.0</ele><time>2026-04-07T13:32:17Z</time></trkpt><trkpt lat="43.385577949485885" lon="11.226461112780093"><ele>242.0</ele><time>2026-04-07T13:32:18Z</time></trkpt><trkpt lat="43.385548417625905" lon="11.226628665306473"><ele>241.75</ele><time>2026-04-07T13:32:19Z</time></trkpt><trkpt lat="43.38551802631893" lon="11.226800006216628"><ele>241.5</ele><time>2026-04-07T13:32:20Z</time></trkpt><trkpt lat="43.38548576693208" lon="11.226979205902163"><ele>241.25</ele><time>2026-04-07T13:32:21Z</time></trkpt><trkpt lat="43.385454582692866" lon="11.22715156657284"><ele>241.0</ele><time>2026-04-07T13:32:22Z</time></trkpt><trkpt lat="43.38542658167318" lon="11.22731384023712"><ele>240.5</ele><time>2026-04-07T13:32:23Z</time></trkpt><trkpt lat="43.38540057319368" lon="11.227467268823592"><ele>240.0</ele><time>2026-04-07T13:32:24Z</time></trkpt><trkpt lat="43.38537403372653" lon="11.227624945847532"><ele>239.5</ele><time>2026-04-07T13:32:25Z</time></trkpt><trkpt lat="43.38534487659352" lon="11.227798174999192"><ele>239.0</ele><time>2026-04-07T13:32:26Z</time></trkpt><trkpt lat="43.38531329012318" lon="11.227985837443198"><ele>238.5</ele><time>2026-04-07T13:32:27Z</time></trkpt><trkpt lat="43.38528060093358" lon="11.228184052815513"><ele>238.0</ele><time>2026-04-07T13:32:27.999Z</time></trkpt><trkpt lat="43.38525166996715" lon="11.228370941409574"><ele>237.5</ele><time>2026-04-07T13:32:28.999Z</time></trkpt><trkpt lat="43.38522433887264" lon="11.228554207973557"><ele>237.0</ele><time>2026-04-07T13:32:29.999Z</time></trkpt><trkpt lat="43.3851993585066" lon="11.228748823684656"><ele>237.0</ele><time>2026-04-07T13:32:30.999Z</time></trkpt><trkpt lat="43.38517845347333" lon="11.228944683325906"><ele>237.0</ele><time>2026-04-07T13:32:31.999Z</time></trkpt><trkpt lat="43.38515910447236" lon="11.22913753033697"><ele>237.0</ele><time>2026-04-07T13:32:32.999Z</time></trkpt><trkpt lat="43.38514198516291" lon="11.229322554824146"><ele>237.0</ele><time>2026-04-07T13:32:33.999Z</time></trkpt><trkpt lat="43.3851258394336" lon="11.22950163471839"><ele>236.66666666666669</ele><time>2026-04-07T13:32:34.999Z</time></trkpt><trkpt lat="43.385108447823356" lon="11.229694533188326"><ele>236.33333333333334</ele><time>2026-04-07T13:32:35.999Z</time></trkpt><trkpt lat="43.38508876020027" lon="11.229912897820435"><ele>236.0</ele><time>2026-04-07T13:32:36.999Z</time></trkpt><trkpt lat="43.38506917207088" lon="11.230130158998556"><ele>236.0</ele><time>2026-04-07T13:32:37.999Z</time></trkpt><trkpt lat="43.385050959173746" lon="11.23033216678351"><ele>236.0</ele><time>2026-04-07T13:32:38.999Z</time></trkpt><trkpt lat="43.385034307370844" lon="11.230516859763759"><ele>236.0</ele><time>2026-04-07T13:32:39.999Z</time></trkpt><trkpt lat="43.38501857020165" lon="11.23069140817677"><ele>236.0</ele><time>2026-04-07T13:32:40.999Z</time></trkpt><trkpt lat="43.38500364254667" lon="11.230856977786708"><ele>235.75</ele><time>2026-04-07T13:32:41.999Z</time></trkpt><trkpt lat="43.384989075214584" lon="11.231015192562145"><ele>235.5</ele><time>2026-04-07T13:32:42.999Z</time></trkpt><trkpt lat="43.384972930986514" lon="11.231180389298878"><ele>235.25</ele><time>2026-04-07T13:32:43.999Z</time></trkpt><trkpt lat="43.38495870393953" lon="11.231374372356955"><ele>235.0</ele><time>2026-04-07T13:32:44.999Z</time></trkpt><trkpt lat="43.38495540287266" lon="11.231585816795423"><ele>234.5</ele><time>2026-04-07T13:32:45.999Z</time></trkpt><trkpt lat="43.38496277644373" lon="11.231785600104972"><ele>234.0</ele><time>2026-04-07T13:32:46.999Z</time></trkpt><trkpt lat="43.38497781920811" lon="11.231978470862684"><ele>233.5</ele><time>2026-04-07T13:32:47.999Z</time></trkpt><trkpt lat="43.384994431155285" lon="11.232158564896409"><ele>233.0</ele><time>2026-04-07T13:32:48.999Z</time></trkpt><trkpt lat="43.385012888558656" lon="11.232353415023386"><ele>231.33333333333334</ele><time>2026-04-07T13:32:49.999Z</time></trkpt><trkpt lat="43.38504245238034" lon="11.23257004724904"><ele>229.66666666666669</ele><time>2026-04-07T13:32:50.999Z</time></trkpt><trkpt lat="43.385083530947846" lon="11.232785792891896"><ele>228.0</ele><time>2026-04-07T13:32:51.999Z</time></trkpt><trkpt lat="43.38513660682922" lon="11.23298518363097"><ele>227.0</ele><time>2026-04-07T13:32:52.999Z</time></trkpt><trkpt lat="43.38519075504206" lon="11.233165922731985"><ele>226.0</ele><time>2026-04-07T13:32:53.999Z</time></trkpt><trkpt lat="43.38524643308856" lon="11.233341464907378"><ele>225.0</ele><time>2026-04-07T13:32:54.999Z</time></trkpt><trkpt lat="43.38530119584572" lon="11.233513702360323"><ele>224.0</ele><time>2026-04-07T13:32:55.999Z</time></trkpt><trkpt lat="43.38536145024244" lon="11.233703211932026"><ele>224.0</ele><time>2026-04-07T13:32:56.999Z</time></trkpt><trkpt lat="43.38541855072848" lon="11.233882801836586"><ele>224.0</ele><time>2026-04-07T13:32:57.999Z</time></trkpt><trkpt lat="43.38547921718024" lon="11.234073607420745"><ele>224.0</ele><time>2026-04-07T13:32:58.999Z</time></trkpt><trkpt lat="43.385540468755764" lon="11.234266253261836"><ele>224.0</ele><time>2026-04-07T13:32:59.999Z</time></trkpt><trkpt lat="43.3856013768805" lon="11.234457817423564"><ele>223.25</ele><time>2026-04-07T13:33:00.999Z</time></trkpt><trkpt lat="43.38565679153351" lon="11.234634187845812"><ele>222.5</ele><time>2026-04-07T13:33:01.999Z</time></trkpt><trkpt lat="43.38571346650886" lon="11.234810680973087"><ele>221.75</ele><time>2026-04-07T13:33:02.999Z</time></trkpt><trkpt lat="43.38577281309641" lon="11.234995307826576"><ele>221.0</ele><time>2026-04-07T13:33:03.999Z</time></trkpt><trkpt lat="43.38585139811566" lon="11.235181801335058"><ele>221.0</ele><time>2026-04-07T13:33:04.999Z</time></trkpt><trkpt lat="43.38590140431772" lon="11.235394674430944"><ele>221.0</ele><time>2026-04-07T13:33:05.999Z</time></trkpt><trkpt lat="43.385966571396146" lon="11.235599172634853"><ele>221.0</ele><time>2026-04-07T13:33:06.999Z</time></trkpt><trkpt lat="43.386027586157226" lon="11.235790640594171"><ele>221.75</ele><time>2026-04-07T13:33:07.999Z</time></trkpt><trkpt lat="43.386085791338104" lon="11.23597329191088"><ele>222.5</ele><time>2026-04-07T13:33:08.999Z</time></trkpt><trkpt lat="43.38614373481288" lon="11.236157126921666"><ele>223.25</ele><time>2026-04-07T13:33:09.999Z</time></trkpt><trkpt lat="43.386208353485465" lon="11.23631767050057"><ele>224.0</ele><time>2026-04-07T13:33:10.999Z</time></trkpt><trkpt lat="43.38622328137569" lon="11.236487921532598"><ele>225.25</ele><time>2026-04-07T13:33:11.999Z</time></trkpt><trkpt lat="43.38623678094561" lon="11.236648464448345"><ele>226.5</ele><time>2026-04-07T13:33:12.999Z</time></trkpt><trkpt lat="43.38618614651526" lon="11.236819408457762"><ele>227.75</ele><time>2026-04-07T13:33:13.999Z</time></trkpt><trkpt lat="43.38607245523262" lon="11.236964316216802"><ele>229.0</ele><time>2026-04-07T13:33:14.999Z</time></trkpt><trkpt lat="43.385943045736624" lon="11.237119577011303"><ele>229.0</ele><time>2026-04-07T13:33:15.999Z</time></trkpt><trkpt lat="43.38578705296602" lon="11.237269718806694"><ele>229.0</ele><time>2026-04-07T13:33:17Z</time></trkpt><trkpt lat="43.385634087859835" lon="11.237407213732967"><ele>229.0</ele><time>2026-04-07T13:33:18Z</time></trkpt><trkpt lat="43.38549448333293" lon="11.237532103711512"><ele>232.33333333333331</ele><time>2026-04-07T13:33:19Z</time></trkpt><trkpt lat="43.385364002319655" lon="11.237648831760108"><ele>235.66666666666669</ele><time>2026-04-07T13:33:20Z</time></trkpt><trkpt lat="43.38523781465577" lon="11.237761719063835"><ele>239.0</ele><time>2026-04-07T13:33:21Z</time></trkpt><trkpt lat="43.38510892920222" lon="11.237875917912255"><ele>239.0</ele><time>2026-04-07T13:33:22Z</time></trkpt><trkpt lat="43.384974184287884" lon="11.237996223095212"><ele>239.0</ele><time>2026-04-07T13:33:23Z</time></trkpt><trkpt lat="43.38483491376344" lon="11.238118130058195"><ele>239.0</ele><time>2026-04-07T13:33:24Z</time></trkpt><trkpt lat="43.384689847952956" lon="11.238246053247702"><ele>240.66666666666669</ele><time>2026-04-07T13:33:25Z</time></trkpt><trkpt lat="43.384540508439066" lon="11.238377945076474"><ele>242.33333333333331</ele><time>2026-04-07T13:33:26Z</time></trkpt><trkpt lat="43.38437949327295" lon="11.23852014834468"><ele>244.0</ele><time>2026-04-07T13:33:27Z</time></trkpt><trkpt lat="43.38421337557507" lon="11.238666858031921"><ele>244.0</ele><time>2026-04-07T13:33:28Z</time></trkpt><trkpt lat="43.38405411468033" lon="11.238807511979733"><ele>244.0</ele><time>2026-04-07T13:33:29Z</time></trkpt><trkpt lat="43.38391573123435" lon="11.238929727734522"><ele>244.0</ele><time>2026-04-07T13:33:30Z</time></trkpt><trkpt lat="43.383788296235295" lon="11.23904222170272"><ele>242.66666666666666</ele><time>2026-04-07T13:33:31Z</time></trkpt><trkpt lat="43.38366131913351" lon="11.239154240712603"><ele>241.33333333333331</ele><time>2026-04-07T13:33:32Z</time></trkpt><trkpt lat="43.383532345589735" lon="11.239294451504085"><ele>240.0</ele><time>2026-04-07T13:33:33Z</time></trkpt><trkpt lat="43.38338308680327" lon="11.239422241547633"><ele>240.0</ele><time>2026-04-07T13:33:34Z</time></trkpt><trkpt lat="43.383248151178634" lon="11.239539315650068"><ele>240.0</ele><time>2026-04-07T13:33:35Z</time></trkpt><trkpt lat="43.38312817540874" lon="11.239647620542232"><ele>240.0</ele><time>2026-04-07T13:33:36Z</time></trkpt><trkpt lat="43.3830183608763" lon="11.239772198779558"><ele>240.0</ele><time>2026-04-07T13:33:37Z</time></trkpt><trkpt lat="43.38290647784962" lon="11.239919501586959"><ele>241.33333333333331</ele><time>2026-04-07T13:33:38Z</time></trkpt><trkpt lat="43.38284182847056" lon="11.240140924257448"><ele>242.66666666666666</ele><time>2026-04-07T13:33:39Z</time></trkpt><trkpt lat="43.382750497479115" lon="11.24037183459748"><ele>244.0</ele><time>2026-04-07T13:33:40Z</time></trkpt><trkpt lat="43.38266779777292" lon="11.24062772246524"><ele>243.66666666666666</ele><time>2026-04-07T13:33:41Z</time></trkpt><trkpt lat="43.38259545552513" lon="11.240846978989143"><ele>243.33333333333331</ele><time>2026-04-07T13:33:42Z</time></trkpt><trkpt lat="43.38252734818451" lon="11.241052856825338"><ele>243.0</ele><time>2026-04-07T13:33:43Z</time></trkpt><trkpt lat="43.38246263102389" lon="11.241248486552118"><ele>243.0</ele><time>2026-04-07T13:33:44Z</time></trkpt><trkpt lat="43.38240319477127" lon="11.241428816921779"><ele>243.0</ele><time>2026-04-07T13:33:45Z</time></trkpt><trkpt lat="43.382346736974576" lon="11.241600109338124"><ele>243.0</ele><time>2026-04-07T13:33:46Z</time></trkpt><trkpt lat="43.38229189979786" lon="11.241766486624849"><ele>243.0</ele><time>2026-04-07T13:33:47Z</time></trkpt><trkpt lat="43.38224126559412" lon="11.241919581956111"><ele>241.5</ele><time>2026-04-07T13:33:48Z</time></trkpt><trkpt lat="43.38218671576526" lon="11.242084604435757"><ele>240.0</ele><time>2026-04-07T13:33:49Z</time></trkpt><trkpt lat="43.38212379196362" lon="11.242274959675065"><ele>238.5</ele><time>2026-04-07T13:33:50Z</time></trkpt><trkpt lat="43.38206863930413" lon="11.242441805496528"><ele>237.0</ele><time>2026-04-07T13:33:51Z</time></trkpt><trkpt lat="43.38201661195981" lon="11.242599196909138"><ele>237.25</ele><time>2026-04-07T13:33:52Z</time></trkpt><trkpt lat="43.381967935795494" lon="11.242751452460642"><ele>237.5</ele><time>2026-04-07T13:33:53Z</time></trkpt><trkpt lat="43.381927254359226" lon="11.242905998654825"><ele>237.75</ele><time>2026-04-07T13:33:54Z</time></trkpt><trkpt lat="43.38193595035642" lon="11.243087217105046"><ele>238.0</ele><time>2026-04-07T13:33:55Z</time></trkpt><trkpt lat="43.38195780416284" lon="11.243260468033835"><ele>238.0</ele><time>2026-04-07T13:33:56Z</time></trkpt><trkpt lat="43.38201861188031" lon="11.243437157712822"><ele>238.0</ele><time>2026-04-07T13:33:57Z</time></trkpt><trkpt lat="43.38211123802684" lon="11.243613923746246"><ele>238.0</ele><time>2026-04-07T13:33:58Z</time></trkpt><trkpt lat="43.38220328107476" lon="11.243754528877783"><ele>238.0</ele><time>2026-04-07T13:33:59Z</time></trkpt><trkpt lat="43.38227248689619" lon="11.243902029492864"><ele>238.2</ele><time>2026-04-07T13:34:00Z</time></trkpt><trkpt lat="43.38233964475189" lon="11.244034424260523"><ele>238.4</ele><time>2026-04-07T13:34:01Z</time></trkpt><trkpt lat="43.382371476374416" lon="11.244183211150073"><ele>238.59999999999997</ele><time>2026-04-07T13:34:02Z</time></trkpt><trkpt lat="43.38238850279624" lon="11.244326669319378"><ele>238.79999999999998</ele><time>2026-04-07T13:34:03Z</time></trkpt><trkpt lat="43.38237118946571" lon="11.244479228253267"><ele>239.0</ele><time>2026-04-07T13:34:04Z</time></trkpt><trkpt lat="43.382346383450454" lon="11.244645297839831"><ele>239.5</ele><time>2026-04-07T13:34:05Z</time></trkpt><trkpt lat="43.38229174902255" lon="11.244812651372989"><ele>240.0</ele><time>2026-04-07T13:34:06Z</time></trkpt><trkpt lat="43.38220503035131" lon="11.244976647082384"><ele>240.5</ele><time>2026-04-07T13:34:07Z</time></trkpt><trkpt lat="43.3821001052967" lon="11.245094213863513"><ele>241.0</ele><time>2026-04-07T13:34:08Z</time></trkpt><trkpt lat="43.38197110905616" lon="11.245181462409247"><ele>241.0</ele><time>2026-04-07T13:34:09Z</time></trkpt><trkpt lat="43.38180686085361" lon="11.245245436411567"><ele>241.0</ele><time>2026-04-07T13:34:10Z</time></trkpt><trkpt lat="43.38163154733709" lon="11.24531854617118"><ele>241.0</ele><time>2026-04-07T13:34:11Z</time></trkpt><trkpt lat="43.38148409934503" lon="11.245367951885774"><ele>241.0</ele><time>2026-04-07T13:34:12Z</time></trkpt><trkpt lat="43.38135036245758" lon="11.245451408343063"><ele>241.0</ele><time>2026-04-07T13:34:13Z</time></trkpt><trkpt lat="43.381222450003214" lon="11.245529300196534"><ele>241.0</ele><time>2026-04-07T13:34:14Z</time></trkpt><trkpt lat="43.38109518760966" lon="11.245647599139373"><ele>241.0</ele><time>2026-04-07T13:34:15Z</time></trkpt><trkpt lat="43.38097754471307" lon="11.245766923796518"><ele>240.5</ele><time>2026-04-07T13:34:16Z</time></trkpt><trkpt lat="43.380868087519396" lon="11.24587129655191"><ele>240.0</ele><time>2026-04-07T13:34:17Z</time></trkpt><trkpt lat="43.380750871191516" lon="11.245960476706001"><ele>239.5</ele><time>2026-04-07T13:34:18Z</time></trkpt><trkpt lat="43.380618359985846" lon="11.246061305868132"><ele>239.0</ele><time>2026-04-07T13:34:19Z</time></trkpt><trkpt lat="43.380457786540234" lon="11.246115615094554"><ele>241.33333333333334</ele><time>2026-04-07T13:34:20Z</time></trkpt><trkpt lat="43.38030869392574" lon="11.246149262465492"><ele>243.66666666666669</ele><time>2026-04-07T13:34:21Z</time></trkpt><trkpt lat="43.38016181864477" lon="11.246166062081933"><ele>246.0</ele><time>2026-04-07T13:34:22Z</time></trkpt><trkpt lat="43.380006542995886" lon="11.246187625949846"><ele>246.0</ele><time>2026-04-07T13:34:23Z</time></trkpt><trkpt lat="43.37984849592982" lon="11.246215382613178"><ele>246.0</ele><time>2026-04-07T13:34:24Z</time></trkpt><trkpt lat="43.37970973337448" lon="11.246239905697264"><ele>246.0</ele><time>2026-04-07T13:34:25Z</time></trkpt><trkpt lat="43.37958115050015" lon="11.246260029831854"><ele>246.0</ele><time>2026-04-07T13:34:26Z</time></trkpt><trkpt lat="43.37944727660014" lon="11.246299829317135"><ele>246.66666666666669</ele><time>2026-04-07T13:34:27Z</time></trkpt><trkpt lat="43.37931830277996" lon="11.246387645496128"><ele>247.33333333333334</ele><time>2026-04-07T13:34:28Z</time></trkpt><trkpt lat="43.37917987016705" lon="11.24650274395311"><ele>248.0</ele><time>2026-04-07T13:34:29Z</time></trkpt><trkpt lat="43.37905493454762" lon="11.246640650864945"><ele>245.5</ele><time>2026-04-07T13:34:30Z</time></trkpt><trkpt lat="43.3789483594885" lon="11.246758115533774"><ele>243.0</ele><time>2026-04-07T13:34:31Z</time></trkpt><trkpt lat="43.378856955718454" lon="11.246858858849002"><ele>240.5</ele><time>2026-04-07T13:34:32Z</time></trkpt><trkpt lat="43.37876666651735" lon="11.24695837358587"><ele>238.0</ele><time>2026-04-07T13:34:33Z</time></trkpt><trkpt lat="43.378679827274226" lon="11.247078876455282"><ele>240.25</ele><time>2026-04-07T13:34:34Z</time></trkpt><trkpt lat="43.37856275304194" lon="11.24719338767377"><ele>242.5</ele><time>2026-04-07T13:34:35Z</time></trkpt><trkpt lat="43.378483976349195" lon="11.24734679637052"><ele>244.75</ele><time>2026-04-07T13:34:36Z</time></trkpt><trkpt lat="43.37839917516073" lon="11.247504003391601"><ele>247.0</ele><time>2026-04-07T13:34:36.999Z</time></trkpt><trkpt lat="43.378314840120254" lon="11.247676340516428"><ele>247.0</ele><time>2026-04-07T13:34:37.999Z</time></trkpt><trkpt lat="43.37823069016744" lon="11.247854871910368"><ele>247.0</ele><time>2026-04-07T13:34:38.999Z</time></trkpt><trkpt lat="43.37815350231066" lon="11.248012210155855"><ele>247.0</ele><time>2026-04-07T13:34:39.999Z</time></trkpt><trkpt lat="43.378078128398286" lon="11.248164879789172"><ele>247.0</ele><time>2026-04-07T13:34:40.999Z</time></trkpt><trkpt lat="43.37799908657366" lon="11.248338256865479"><ele>249.33333333333331</ele><time>2026-04-07T13:34:41.999Z</time></trkpt><trkpt lat="43.37791609823489" lon="11.248516422281341"><ele>251.66666666666669</ele><time>2026-04-07T13:34:42.999Z</time></trkpt><trkpt lat="43.3778017558247" lon="11.248659921491369"><ele>254.0</ele><time>2026-04-07T13:34:43.999Z</time></trkpt><trkpt lat="43.377682057280346" lon="11.24881612927058"><ele>254.0</ele><time>2026-04-07T13:34:44.999Z</time></trkpt><trkpt lat="43.37754163842649" lon="11.2489002347387"><ele>254.0</ele><time>2026-04-07T13:34:45.999Z</time></trkpt><trkpt lat="43.377391248962915" lon="11.248956175976165"><ele>254.0</ele><time>2026-04-07T13:34:46.999Z</time></trkpt><trkpt lat="43.377233358315465" lon="11.24900040524679"><ele>254.0</ele><time>2026-04-07T13:34:47.999Z</time></trkpt><trkpt lat="43.37709575213954" lon="11.249028115402842"><ele>254.0</ele><time>2026-04-07T13:34:48.999Z</time></trkpt><trkpt lat="43.376972316168015" lon="11.249056526302041"><ele>254.0</ele><time>2026-04-07T13:34:49.999Z</time></trkpt><trkpt lat="43.376855282790345" lon="11.249114834767367"><ele>254.0</ele><time>2026-04-07T13:34:50.999Z</time></trkpt><trkpt lat="43.37673474001006" lon="11.24920403625663"><ele>254.0</ele><time>2026-04-07T13:34:51.999Z</time></trkpt><trkpt lat="43.37662048429065" lon="11.249336023308187"><ele>254.0</ele><time>2026-04-07T13:34:52.999Z</time></trkpt><trkpt lat="43.37652232031377" lon="11.249472262410134"><ele>254.0</ele><time>2026-04-07T13:34:53.999Z</time></trkpt><trkpt lat="43.37646150882452" lon="11.249633929028375"><ele>254.0</ele><time>2026-04-07T13:34:54.999Z</time></trkpt><trkpt lat="43.37637943201615" lon="11.24977320047175"><ele>258.75</ele><time>2026-04-07T13:34:55.999Z</time></trkpt><trkpt lat="43.376305163975275" lon="11.24993083464271"><ele>263.5</ele><time>2026-04-07T13:34:56.999Z</time></trkpt><trkpt lat="43.376225994225415" lon="11.25009813796754"><ele>268.25</ele><time>2026-04-07T13:34:57.999Z</time></trkpt><trkpt lat="43.376146791871825" lon="11.25028170607105"><ele>273.0</ele><time>2026-04-07T13:34:58.999Z</time></trkpt><trkpt lat="43.37607024936631" lon="11.250446942882222"><ele>273.0</ele><time>2026-04-07T13:34:59.999Z</time></trkpt><trkpt lat="43.375999976913285" lon="11.25059501132364"><ele>273.0</ele><time>2026-04-07T13:35:00.999Z</time></trkpt><trkpt lat="43.37593453157093" lon="11.250753842924926"><ele>273.0</ele><time>2026-04-07T13:35:01.999Z</time></trkpt><trkpt lat="43.37588549072652" lon="11.250901815596146"><ele>273.0</ele><time>2026-04-07T13:35:02.999Z</time></trkpt><trkpt lat="43.3758520167256" lon="11.251056329208406"><ele>271.0</ele><time>2026-04-07T13:35:03.999Z</time></trkpt><trkpt lat="43.375816309982575" lon="11.251234163709"><ele>269.0</ele><time>2026-04-07T13:35:04.999Z</time></trkpt><trkpt lat="43.37581852153483" lon="11.251433270635363"><ele>267.0</ele><time>2026-04-07T13:35:05.999Z</time></trkpt><trkpt lat="43.37579842263053" lon="11.25160849144298"><ele>265.0</ele><time>2026-04-07T13:35:06.999Z</time></trkpt><trkpt lat="43.37579626733063" lon="11.251800623833962"><ele>264.5</ele><time>2026-04-07T13:35:07.999Z</time></trkpt><trkpt lat="43.375777350490054" lon="11.252008655811267"><ele>264.0</ele><time>2026-04-07T13:35:08.999Z</time></trkpt><trkpt lat="43.37574094432997" lon="11.252189207981667"><ele>263.5</ele><time>2026-04-07T13:35:09.999Z</time></trkpt><trkpt lat="43.37568779164063" lon="11.252342511449188"><ele>263.0</ele><time>2026-04-07T13:35:10.999Z</time></trkpt><trkpt lat="43.37562477066303" lon="11.252498043871485"><ele>263.0</ele><time>2026-04-07T13:35:11.999Z</time></trkpt><trkpt lat="43.37554118099955" lon="11.252658810862107"><ele>263.0</ele><time>2026-04-07T13:35:12.999Z</time></trkpt><trkpt lat="43.37546071165182" lon="11.252817551032004"><ele>263.0</ele><time>2026-04-07T13:35:13.999Z</time></trkpt><trkpt lat="43.37538653681431" lon="11.25295292581067"><ele>263.0</ele><time>2026-04-07T13:35:14.999Z</time></trkpt><trkpt lat="43.37529291069664" lon="11.253078775312664"><ele>264.25</ele><time>2026-04-07T13:35:15.999Z</time></trkpt><trkpt lat="43.37518057315667" lon="11.253192035668148"><ele>265.5</ele><time>2026-04-07T13:35:16.999Z</time></trkpt><trkpt lat="43.37504852970123" lon="11.253283925371795"><ele>266.75</ele><time>2026-04-07T13:35:17.999Z</time></trkpt><trkpt lat="43.374906410537704" lon="11.2533722587364"><ele>268.0</ele><time>2026-04-07T13:35:18.999Z</time></trkpt><trkpt lat="43.37477263992886" lon="11.253461164555898"><ele>272.0</ele><time>2026-04-07T13:35:19.999Z</time></trkpt><trkpt lat="43.374669572615325" lon="11.253555132100164"><ele>276.0</ele><time>2026-04-07T13:35:20.999Z</time></trkpt><trkpt lat="43.37456462406323" lon="11.253671051648467"><ele>280.0</ele><time>2026-04-07T13:35:21.999Z</time></trkpt><trkpt lat="43.374460568953346" lon="11.25380697547684"><ele>284.0</ele><time>2026-04-07T13:35:23Z</time></trkpt><trkpt lat="43.3743558955957" lon="11.253942829154472"><ele>279.75</ele><time>2026-04-07T13:35:24Z</time></trkpt><trkpt lat="43.37426184523192" lon="11.254068888025634"><ele>275.5</ele><time>2026-04-07T13:35:25Z</time></trkpt><trkpt lat="43.37417151953886" lon="11.254176874568328"><ele>271.25</ele><time>2026-04-07T13:35:26Z</time></trkpt><trkpt lat="43.374091496995725" lon="11.254273121963303"><ele>267.0</ele><time>2026-04-07T13:35:27Z</time></trkpt><trkpt lat="43.37401979796827" lon="11.254371212083022"><ele>267.0</ele><time>2026-04-07T13:35:28Z</time></trkpt><trkpt lat="43.37393517549525" lon="11.254490768623716"><ele>267.0</ele><time>2026-04-07T13:35:29Z</time></trkpt><trkpt lat="43.373844034923565" lon="11.254627797442797"><ele>267.0</ele><time>2026-04-07T13:35:30Z</time></trkpt><trkpt lat="43.373756364953" lon="11.254751097088517"><ele>267.0</ele><time>2026-04-07T13:35:31Z</time></trkpt><trkpt lat="43.373661790440394" lon="11.2548372761721"><ele>266.8</ele><time>2026-04-07T13:35:32Z</time></trkpt><trkpt lat="43.37356151698731" lon="11.254939539212234"><ele>266.6</ele><time>2026-04-07T13:35:33Z</time></trkpt><trkpt lat="43.37346211951264" lon="11.25502168590962"><ele>266.40000000000003</ele><time>2026-04-07T13:35:34Z</time></trkpt><trkpt lat="43.37337514798884" lon="11.255097900665866"><ele>266.2</ele><time>2026-04-07T13:35:35Z</time></trkpt><trkpt lat="43.373290646620276" lon="11.255138792977316"><ele>266.0</ele><time>2026-04-07T13:35:36Z</time></trkpt><trkpt lat="43.373200129248296" lon="11.255168329750482"><ele>266.0</ele><time>2026-04-07T13:35:37Z</time></trkpt><trkpt lat="43.37309865914082" lon="11.255178602267994"><ele>266.0</ele><time>2026-04-07T13:35:38Z</time></trkpt><trkpt lat="43.37299112163618" lon="11.255169058954728"><ele>266.0</ele><time>2026-04-07T13:35:39Z</time></trkpt><trkpt lat="43.37287325425486" lon="11.255132123360374"><ele>266.0</ele><time>2026-04-07T13:35:40Z</time></trkpt><trkpt lat="43.372777223997105" lon="11.255081093035255"><ele>266.0</ele><time>2026-04-07T13:35:41Z</time></trkpt><trkpt lat="43.37270386454589" lon="11.255039411388049"><ele>266.75</ele><time>2026-04-07T13:35:42Z</time></trkpt><trkpt lat="43.3726335108324" lon="11.255013809550205"><ele>267.5</ele><time>2026-04-07T13:35:43Z</time></trkpt><trkpt lat="43.37253042486354" lon="11.254978399635425"><ele>268.25</ele><time>2026-04-07T13:35:44Z</time></trkpt><trkpt lat="43.37238662292402" lon="11.254952600878227"><ele>269.0</ele><time>2026-04-07T13:35:45Z</time></trkpt><trkpt lat="43.37226141793474" lon="11.254938420121087"><ele>269.33333333333337</ele><time>2026-04-07T13:35:46Z</time></trkpt><trkpt lat="43.37216904248943" lon="11.254929783583114"><ele>269.6666666666667</ele><time>2026-04-07T13:35:47Z</time></trkpt><trkpt lat="43.37208882360735" lon="11.254922283600216"><ele>270.0</ele><time>2026-04-07T13:35:48Z</time></trkpt><trkpt lat="43.37201756838766" lon="11.25491562168622"><ele>270.3333333333333</ele><time>2026-04-07T13:35:49Z</time></trkpt><trkpt lat="43.371947049958386" lon="11.254909028664692"><ele>270.66666666666663</ele><time>2026-04-07T13:35:50Z</time></trkpt><trkpt lat="43.3718392751234" lon="11.254898952387038"><ele>271.0</ele><time>2026-04-07T13:35:51Z</time></trkpt><trkpt lat="43.37170421000542" lon="11.254886261901996"><ele>271.0</ele><time>2026-04-07T13:35:52Z</time></trkpt><trkpt lat="43.371555882080834" lon="11.254893542545263"><ele>271.0</ele><time>2026-04-07T13:35:53Z</time></trkpt><trkpt lat="43.3714090794203" lon="11.254862052384285"><ele>271.0</ele><time>2026-04-07T13:35:54Z</time></trkpt><trkpt lat="43.37122720505291" lon="11.254843785908891"><ele>273.66666666666663</ele><time>2026-04-07T13:35:55Z</time></trkpt><trkpt lat="43.37104846626536" lon="11.25482187066092"><ele>276.3333333333333</ele><time>2026-04-07T13:35:56Z</time></trkpt><trkpt lat="43.37085543112251" lon="11.254806594345396"><ele>279.0</ele><time>2026-04-07T13:35:57Z</time></trkpt><trkpt lat="43.37065016249681" lon="11.254790421176082"><ele>277.3333333333333</ele><time>2026-04-07T13:35:58Z</time></trkpt><trkpt lat="43.37047389781051" lon="11.254768893398207"><ele>275.66666666666663</ele><time>2026-04-07T13:35:59Z</time></trkpt><trkpt lat="43.37031138982364" lon="11.25475260970285"><ele>274.0</ele><time>2026-04-07T13:36:00Z</time></trkpt><trkpt lat="43.37015152104069" lon="11.254722641879491"><ele>274.0</ele><time>2026-04-07T13:36:01Z</time></trkpt><trkpt lat="43.36997772185656" lon="11.254647892532928"><ele>274.0</ele><time>2026-04-07T13:36:02Z</time></trkpt><trkpt lat="43.36979792334097" lon="11.254561700340918"><ele>274.0</ele><time>2026-04-07T13:36:03Z</time></trkpt><trkpt lat="43.36964352866912" lon="11.25448866310575"><ele>277.66666666666663</ele><time>2026-04-07T13:36:04Z</time></trkpt><trkpt lat="43.3694915118971" lon="11.254421842376791"><ele>281.3333333333333</ele><time>2026-04-07T13:36:05Z</time></trkpt><trkpt lat="43.36934655681385" lon="11.254350020507665"><ele>285.0</ele><time>2026-04-07T13:36:06Z</time></trkpt><trkpt lat="43.36920488365294" lon="11.254281374705021"><ele>285.0</ele><time>2026-04-07T13:36:07Z</time></trkpt><trkpt lat="43.369042078512116" lon="11.254230116247966"><ele>285.0</ele><time>2026-04-07T13:36:08Z</time></trkpt><trkpt lat="43.36886406084542" lon="11.254193054873562"><ele>285.0</ele><time>2026-04-07T13:36:09Z</time></trkpt><trkpt lat="43.368685910115396" lon="11.25418197347974"><ele>286.0</ele><time>2026-04-07T13:36:10Z</time></trkpt><trkpt lat="43.36852517550861" lon="11.254194249849139"><ele>287.0</ele><time>2026-04-07T13:36:11Z</time></trkpt><trkpt lat="43.36834869768689" lon="11.254223586305176"><ele>288.0</ele><time>2026-04-07T13:36:12Z</time></trkpt><trkpt lat="43.36817137862223" lon="11.254226513723493"><ele>288.3333333333333</ele><time>2026-04-07T13:36:13Z</time></trkpt><trkpt lat="43.36801453620955" lon="11.254242809558196"><ele>288.66666666666663</ele><time>2026-04-07T13:36:14Z</time></trkpt><trkpt lat="43.36786926053635" lon="11.254280014451004"><ele>289.0</ele><time>2026-04-07T13:36:15Z</time></trkpt><trkpt lat="43.36770522394533" lon="11.254297093508224"><ele>289.0</ele><time>2026-04-07T13:36:16Z</time></trkpt><trkpt lat="43.3675260365335" lon="11.254309975533571"><ele>289.0</ele><time>2026-04-07T13:36:17Z</time></trkpt><trkpt lat="43.36732870038711" lon="11.254286257464122"><ele>289.0</ele><time>2026-04-07T13:36:18Z</time></trkpt><trkpt lat="43.36715132025918" lon="11.254287248464225"><ele>289.66666666666663</ele><time>2026-04-07T13:36:19Z</time></trkpt><trkpt lat="43.36699254256134" lon="11.254263553054157"><ele>290.3333333333333</ele><time>2026-04-07T13:36:20Z</time></trkpt><trkpt lat="43.36683774210934" lon="11.254240744339093"><ele>291.0</ele><time>2026-04-07T13:36:21Z</time></trkpt><trkpt lat="43.36667301762567" lon="11.254224031228503"><ele>291.0</ele><time>2026-04-07T13:36:22Z</time></trkpt><trkpt lat="43.3664905967676" lon="11.25418315154131"><ele>291.0</ele><time>2026-04-07T13:36:23Z</time></trkpt><trkpt lat="43.36631454169183" lon="11.25416255624756"><ele>291.0</ele><time>2026-04-07T13:36:24Z</time></trkpt><trkpt lat="43.366157961479104" lon="11.254161140043838"><ele>292.3333333333333</ele><time>2026-04-07T13:36:25Z</time></trkpt><trkpt lat="43.36600703624116" lon="11.254139762612857"><ele>293.66666666666663</ele><time>2026-04-07T13:36:26Z</time></trkpt><trkpt lat="43.365845407902434" lon="11.254141059175002"><ele>295.0</ele><time>2026-04-07T13:36:27Z</time></trkpt><trkpt lat="43.36567845793247" lon="11.254150341783452"><ele>293.5</ele><time>2026-04-07T13:36:28Z</time></trkpt><trkpt lat="43.36552773878944" lon="11.254195923522047"><ele>292.0</ele><time>2026-04-07T13:36:29Z</time></trkpt><trkpt lat="43.365393048327505" lon="11.254265756852606"><ele>290.5</ele><time>2026-04-07T13:36:30Z</time></trkpt><trkpt lat="43.365268208837314" lon="11.254357649008616"><ele>289.0</ele><time>2026-04-07T13:36:31Z</time></trkpt><trkpt lat="43.36513863746939" lon="11.254469006688035"><ele>289.0</ele><time>2026-04-07T13:36:32Z</time></trkpt><trkpt lat="43.36499534012146" lon="11.254607258031484"><ele>289.0</ele><time>2026-04-07T13:36:33Z</time></trkpt><trkpt lat="43.364834728579694" lon="11.25476190764391"><ele>289.0</ele><time>2026-04-07T13:36:34Z</time></trkpt><trkpt lat="43.36468100241179" lon="11.254909927382855"><ele>287.66666666666663</ele><time>2026-04-07T13:36:35Z</time></trkpt><trkpt lat="43.364540928487514" lon="11.255043854104553"><ele>286.3333333333333</ele><time>2026-04-07T13:36:36Z</time></trkpt><trkpt lat="43.36441068095519" lon="11.255167501701688"><ele>285.0</ele><time>2026-04-07T13:36:37Z</time></trkpt><trkpt lat="43.364286755205754" lon="11.255286812942295"><ele>285.0</ele><time>2026-04-07T13:36:38Z</time></trkpt><trkpt lat="43.364167099232105" lon="11.255393854931121"><ele>285.0</ele><time>2026-04-07T13:36:39Z</time></trkpt><trkpt lat="43.36403699927977" lon="11.255479324716626"><ele>285.0</ele><time>2026-04-07T13:36:40Z</time></trkpt><trkpt lat="43.363879062529385" lon="11.255537509686429"><ele>283.3333333333333</ele><time>2026-04-07T13:36:41Z</time></trkpt><trkpt lat="43.363724737830395" lon="11.255554029988092"><ele>281.66666666666663</ele><time>2026-04-07T13:36:42Z</time></trkpt><trkpt lat="43.36357798718708" lon="11.255546828879966"><ele>280.0</ele><time>2026-04-07T13:36:42.999Z</time></trkpt><trkpt lat="43.36340981271104" lon="11.255500919387616"><ele>280.0</ele><time>2026-04-07T13:36:43.999Z</time></trkpt><trkpt lat="43.363252444881425" lon="11.255450669552525"><ele>280.0</ele><time>2026-04-07T13:36:44.999Z</time></trkpt><trkpt lat="43.363115161306794" lon="11.25540769999414"><ele>280.0</ele><time>2026-04-07T13:36:45.999Z</time></trkpt><trkpt lat="43.36298338216926" lon="11.255369579257906"><ele>280.0</ele><time>2026-04-07T13:36:46.999Z</time></trkpt><trkpt lat="43.36286019252401" lon="11.255350912444857"><ele>279.25</ele><time>2026-04-07T13:36:47.999Z</time></trkpt><trkpt lat="43.36274507953261" lon="11.255351914425248"><ele>278.5</ele><time>2026-04-07T13:36:48.999Z</time></trkpt><trkpt lat="43.36262800328649" lon="11.255410408015335"><ele>277.75</ele><time>2026-04-07T13:36:49.999Z</time></trkpt><trkpt lat="43.362509801515984" lon="11.255533079761848"><ele>277.0</ele><time>2026-04-07T13:36:50.999Z</time></trkpt><trkpt lat="43.36239813454381" lon="11.255697217361119"><ele>276.66666666666663</ele><time>2026-04-07T13:36:51.999Z</time></trkpt><trkpt lat="43.36227660546836" lon="11.255889777363286"><ele>276.3333333333333</ele><time>2026-04-07T13:36:52.999Z</time></trkpt><trkpt lat="43.36216302601442" lon="11.256122197128681"><ele>276.0</ele><time>2026-04-07T13:36:53.999Z</time></trkpt><trkpt lat="43.362054444682194" lon="11.256379573827342"><ele>274.6666666666667</ele><time>2026-04-07T13:36:54.999Z</time></trkpt><trkpt lat="43.361959556047715" lon="11.256609999481316"><ele>273.33333333333337</ele><time>2026-04-07T13:36:55.999Z</time></trkpt><trkpt lat="43.361871027380516" lon="11.256826950495649"><ele>272.0</ele><time>2026-04-07T13:36:56.999Z</time></trkpt><trkpt lat="43.361788516242044" lon="11.25702915492767"><ele>272.0</ele><time>2026-04-07T13:36:57.999Z</time></trkpt><trkpt lat="43.361708451820896" lon="11.25722229711747"><ele>272.0</ele><time>2026-04-07T13:36:58.999Z</time></trkpt><trkpt lat="43.361620987112744" lon="11.257422733471596"><ele>272.0</ele><time>2026-04-07T13:36:59.999Z</time></trkpt><trkpt lat="43.36150648972364" lon="11.257597914810722"><ele>272.0</ele><time>2026-04-07T13:37:00.999Z</time></trkpt><trkpt lat="43.36139428823163" lon="11.257750136629339"><ele>272.0</ele><time>2026-04-07T13:37:01.999Z</time></trkpt><trkpt lat="43.36127373044095" lon="11.257900827564516"><ele>272.0</ele><time>2026-04-07T13:37:02.999Z</time></trkpt><trkpt lat="43.36113242502697" lon="11.25807718121644"><ele>272.6666666666667</ele><time>2026-04-07T13:37:03.999Z</time></trkpt><trkpt lat="43.36099259880685" lon="11.258251687525812"><ele>273.3333333333333</ele><time>2026-04-07T13:37:04.999Z</time></trkpt><trkpt lat="43.36086500501439" lon="11.258409149459737"><ele>274.0</ele><time>2026-04-07T13:37:05.999Z</time></trkpt><trkpt lat="43.36073637169326" lon="11.258566751854827"><ele>274.0</ele><time>2026-04-07T13:37:06.999Z</time></trkpt><trkpt lat="43.360603707793516" lon="11.258716421139551"><ele>274.0</ele><time>2026-04-07T13:37:07.999Z</time></trkpt><trkpt lat="43.36047215228527" lon="11.258835065817008"><ele>274.0</ele><time>2026-04-07T13:37:08.999Z</time></trkpt><trkpt lat="43.360350958838374" lon="11.2589307238855"><ele>273.66666666666663</ele><time>2026-04-07T13:37:09.999Z</time></trkpt><trkpt lat="43.36019867109138" lon="11.258942401469373"><ele>273.3333333333333</ele><time>2026-04-07T13:37:10.999Z</time></trkpt><trkpt lat="43.360033190824176" lon="11.258973685125406"><ele>273.0</ele><time>2026-04-07T13:37:11.999Z</time></trkpt><trkpt lat="43.35986391456238" lon="11.25903386965456"><ele>272.0</ele><time>2026-04-07T13:37:12.999Z</time></trkpt><trkpt lat="43.359682522985075" lon="11.259123628294269"><ele>271.0</ele><time>2026-04-07T13:37:13.999Z</time></trkpt><trkpt lat="43.359511530634805" lon="11.25922360013382"><ele>270.0</ele><time>2026-04-07T13:37:14.999Z</time></trkpt><trkpt lat="43.35935652266642" lon="11.259323596630916"><ele>270.0</ele><time>2026-04-07T13:37:15.999Z</time></trkpt><trkpt lat="43.359215896020075" lon="11.259434399309436"><ele>270.0</ele><time>2026-04-07T13:37:16.999Z</time></trkpt><trkpt lat="43.3590743305907" lon="11.259565514103077"><ele>270.0</ele><time>2026-04-07T13:37:17.999Z</time></trkpt><trkpt lat="43.35893162229679" lon="11.259709259602568"><ele>270.0</ele><time>2026-04-07T13:37:18.999Z</time></trkpt><trkpt lat="43.35880202292507" lon="11.25983980091994"><ele>270.0</ele><time>2026-04-07T13:37:19.999Z</time></trkpt><trkpt lat="43.35867737664501" lon="11.259965355858556"><ele>270.0</ele><time>2026-04-07T13:37:20.999Z</time></trkpt><trkpt lat="43.3585450333687" lon="11.260098971262035"><ele>270.0</ele><time>2026-04-07T13:37:21.999Z</time></trkpt><trkpt lat="43.35840876460183" lon="11.260248584943984"><ele>270.0</ele><time>2026-04-07T13:37:22.999Z</time></trkpt><trkpt lat="43.358286508774796" lon="11.260423521688518"><ele>270.0</ele><time>2026-04-07T13:37:23.999Z</time></trkpt><trkpt lat="43.35816185105383" lon="11.260624438382493"><ele>269.3333333333333</ele><time>2026-04-07T13:37:24.999Z</time></trkpt><trkpt lat="43.35802635765729" lon="11.260843242798131"><ele>268.66666666666663</ele><time>2026-04-07T13:37:25.999Z</time></trkpt><trkpt lat="43.35788476336022" lon="11.261057901520555"><ele>268.0</ele><time>2026-04-07T13:37:26.999Z</time></trkpt><trkpt lat="43.357750971101176" lon="11.26122945471808"><ele>268.0</ele><time>2026-04-07T13:37:27.999Z</time></trkpt><trkpt lat="43.3576178504166" lon="11.261378511736345"><ele>268.0</ele><time>2026-04-07T13:37:29Z</time></trkpt><trkpt lat="43.35749033235949" lon="11.261519409023713"><ele>268.0</ele><time>2026-04-07T13:37:30Z</time></trkpt><trkpt lat="43.35737726878968" lon="11.261672209408436"><ele>268.0</ele><time>2026-04-07T13:37:31Z</time></trkpt><trkpt lat="43.35723751813892" lon="11.261797459909749"><ele>268.0</ele><time>2026-04-07T13:37:32Z</time></trkpt><trkpt lat="43.3570999074848" lon="11.261940728998818"><ele>268.0</ele><time>2026-04-07T13:37:33Z</time></trkpt><trkpt lat="43.35694799100647" lon="11.262068611277169"><ele>268.0</ele><time>2026-04-07T13:37:34Z</time></trkpt><trkpt lat="43.356774359255986" lon="11.262181658281351"><ele>268.0</ele><time>2026-04-07T13:37:35Z</time></trkpt><trkpt lat="43.35660737239933" lon="11.26226427215738"><ele>268.0</ele><time>2026-04-07T13:37:36Z</time></trkpt><trkpt lat="43.35644990775726" lon="11.262322920219434"><ele>269.3333333333333</ele><time>2026-04-07T13:37:37Z</time></trkpt><trkpt lat="43.35629579545113" lon="11.262359002846905"><ele>270.6666666666667</ele><time>2026-04-07T13:37:38Z</time></trkpt><trkpt lat="43.356128338574955" lon="11.26238373179483"><ele>272.0</ele><time>2026-04-07T13:37:39Z</time></trkpt><trkpt lat="43.35594456642329" lon="11.26241018634003"><ele>272.0</ele><time>2026-04-07T13:37:40Z</time></trkpt><trkpt lat="43.35575782594134" lon="11.262436884683359"><ele>272.0</ele><time>2026-04-07T13:37:41Z</time></trkpt><trkpt lat="43.35559281714463" lon="11.262460258021212"><ele>272.0</ele><time>2026-04-07T13:37:42Z</time></trkpt><trkpt lat="43.355433062477914" lon="11.262490229582378"><ele>272.0</ele><time>2026-04-07T13:37:43Z</time></trkpt><trkpt lat="43.35526341271327" lon="11.262535790408327"><ele>272.0</ele><time>2026-04-07T13:37:44Z</time></trkpt><trkpt lat="43.355101515611395" lon="11.262592905325027"><ele>272.0</ele><time>2026-04-07T13:37:45Z</time></trkpt><trkpt lat="43.35499658734073" lon="11.262633234266266"><ele>272.0</ele><time>2026-04-07T13:37:46Z</time></trkpt><trkpt lat="43.35490275831163" lon="11.262692781976403"><ele>272.0</ele><time>2026-04-07T13:37:47Z</time></trkpt><trkpt lat="43.35479663197811" lon="11.262711023654886"><ele>272.0</ele><time>2026-04-07T13:37:48Z</time></trkpt><trkpt lat="43.354683501876195" lon="11.262756913963106"><ele>272.0</ele><time>2026-04-07T13:37:49Z</time></trkpt><trkpt lat="43.3545606896677" lon="11.26282083087903"><ele>272.0</ele><time>2026-04-07T13:37:50Z</time></trkpt><trkpt lat="43.35441352442637" lon="11.262914696735969"><ele>271.0</ele><time>2026-04-07T13:37:51Z</time></trkpt><trkpt lat="43.35425853769491" lon="11.26304074302068"><ele>270.0</ele><time>2026-04-07T13:37:52Z</time></trkpt><trkpt lat="43.35412072701665" lon="11.263150360801038"><ele>269.0</ele><time>2026-04-07T13:37:53Z</time></trkpt><trkpt lat="43.353986699680455" lon="11.263245814564767"><ele>269.5</ele><time>2026-04-07T13:37:54Z</time></trkpt><trkpt lat="43.35386420891021" lon="11.2633475652573"><ele>270.0</ele><time>2026-04-07T13:37:55Z</time></trkpt><trkpt lat="43.35373924485885" lon="11.263426833074378"><ele>270.5</ele><time>2026-04-07T13:37:56Z</time></trkpt><trkpt lat="43.353606771654036" lon="11.26351431380346"><ele>271.0</ele><time>2026-04-07T13:37:57Z</time></trkpt><trkpt lat="43.35349468170491" lon="11.263681467286323"><ele>271.0</ele><time>2026-04-07T13:37:58Z</time></trkpt><trkpt lat="43.35338517850744" lon="11.263866549756349"><ele>271.0</ele><time>2026-04-07T13:37:59Z</time></trkpt><trkpt lat="43.353278617076285" lon="11.264048199283211"><ele>271.0</ele><time>2026-04-07T13:38:00Z</time></trkpt><trkpt lat="43.353200704878454" lon="11.264208328366228"><ele>270.5</ele><time>2026-04-07T13:38:01Z</time></trkpt><trkpt lat="43.35312977136981" lon="11.264354370003115"><ele>270.0</ele><time>2026-04-07T13:38:02Z</time></trkpt><trkpt lat="43.35306243743998" lon="11.26449324530581"><ele>269.5</ele><time>2026-04-07T13:38:03Z</time></trkpt><trkpt lat="43.35301274951234" lon="11.264637392352801"><ele>269.0</ele><time>2026-04-07T13:38:04Z</time></trkpt><trkpt lat="43.35294842589739" lon="11.264749364838028"><ele>269.8</ele><time>2026-04-07T13:38:05Z</time></trkpt><trkpt lat="43.3528937540529" lon="11.26487083188042"><ele>270.59999999999997</ele><time>2026-04-07T13:38:06Z</time></trkpt><trkpt lat="43.35283988507426" lon="11.264998656394674"><ele>271.4</ele><time>2026-04-07T13:38:07Z</time></trkpt><trkpt lat="43.352796184322905" lon="11.265108524527351"><ele>272.2</ele><time>2026-04-07T13:38:08Z</time></trkpt><trkpt lat="43.35275249227737" lon="11.265188275589079"><ele>273.0</ele><time>2026-04-07T13:38:09Z</time></trkpt><trkpt lat="43.35264233586296" lon="11.265259952793468"><ele>273.0</ele><time>2026-04-07T13:38:11Z</time></trkpt><trkpt lat="43.35255810186834" lon="11.265220541139568"><ele>273.0</ele><time>2026-04-07T13:38:12Z</time></trkpt><trkpt lat="43.352447262323736" lon="11.265223445258435"><ele>273.0</ele><time>2026-04-07T13:38:13Z</time></trkpt><trkpt lat="43.352326575471594" lon="11.265201745278983"><ele>273.0</ele><time>2026-04-07T13:38:14Z</time></trkpt><trkpt lat="43.352195686069564" lon="11.265200496981205"><ele>272.0</ele><time>2026-04-07T13:38:15Z</time></trkpt><trkpt lat="43.35206060746802" lon="11.26520537929121"><ele>271.0</ele><time>2026-04-07T13:38:16Z</time></trkpt><trkpt lat="43.351940601048064" lon="11.265196237086187"><ele>270.0</ele><time>2026-04-07T13:38:17Z</time></trkpt><trkpt lat="43.35180815860695" lon="11.265164455292412"><ele>269.0</ele><time>2026-04-07T13:38:18Z</time></trkpt><trkpt lat="43.35166312315475" lon="11.265158639589036"><ele>269.0</ele><time>2026-04-07T13:38:19Z</time></trkpt><trkpt lat="43.35151872369341" lon="11.265152849389292"><ele>269.0</ele><time>2026-04-07T13:38:20Z</time></trkpt><trkpt lat="43.3513557256963" lon="11.26516709239605"><ele>269.0</ele><time>2026-04-07T13:38:21Z</time></trkpt><trkpt lat="43.35118686935439" lon="11.265175937359944"><ele>268.6666666666667</ele><time>2026-04-07T13:38:22Z</time></trkpt><trkpt lat="43.35099517955552" lon="11.26519058671744"><ele>268.3333333333333</ele><time>2026-04-07T13:38:23Z</time></trkpt><trkpt lat="43.350794842689375" lon="11.265250980088009"><ele>268.0</ele><time>2026-04-07T13:38:24Z</time></trkpt><trkpt lat="43.35062332426096" lon="11.265308174889883"><ele>268.66666666666663</ele><time>2026-04-07T13:38:25Z</time></trkpt><trkpt lat="43.350465310306014" lon="11.265360866457073"><ele>269.3333333333333</ele><time>2026-04-07T13:38:26Z</time></trkpt><trkpt lat="43.35031725465217" lon="11.265410237321541"><ele>270.0</ele><time>2026-04-07T13:38:27Z</time></trkpt><trkpt lat="43.35016839957719" lon="11.265459874764712"><ele>270.0</ele><time>2026-04-07T13:38:28Z</time></trkpt><trkpt lat="43.35001488818743" lon="11.265531074317305"><ele>270.0</ele><time>2026-04-07T13:38:29Z</time></trkpt><trkpt lat="43.349848986519916" lon="11.265583056126268"><ele>270.0</ele><time>2026-04-07T13:38:30Z</time></trkpt><trkpt lat="43.3496651071789" lon="11.265639074343072"><ele>270.6666666666667</ele><time>2026-04-07T13:38:31Z</time></trkpt><trkpt lat="43.349494216678394" lon="11.265684589362152"><ele>271.33333333333337</ele><time>2026-04-07T13:38:32Z</time></trkpt><trkpt lat="43.3493416220965" lon="11.265721145153975"><ele>272.0</ele><time>2026-04-07T13:38:33Z</time></trkpt><trkpt lat="43.349193229209845" lon="11.265753451819318"><ele>272.0</ele><time>2026-04-07T13:38:34Z</time></trkpt><trkpt lat="43.3490343722651" lon="11.26575526266076"><ele>272.0</ele><time>2026-04-07T13:38:35Z</time></trkpt><trkpt lat="43.34887277009516" lon="11.265762583402088"><ele>272.0</ele><time>2026-04-07T13:38:36Z</time></trkpt><trkpt lat="43.34872674068923" lon="11.265775673505331"><ele>271.6666666666667</ele><time>2026-04-07T13:38:37Z</time></trkpt><trkpt lat="43.34856389710343" lon="11.265752610212465"><ele>271.3333333333333</ele><time>2026-04-07T13:38:38Z</time></trkpt><trkpt lat="43.34840914776535" lon="11.265731877359872"><ele>271.0</ele><time>2026-04-07T13:38:39Z</time></trkpt><trkpt lat="43.34826504893996" lon="11.265722727050735"><ele>271.0</ele><time>2026-04-07T13:38:40Z</time></trkpt><trkpt lat="43.34812587639758" lon="11.26572585233112"><ele>271.0</ele><time>2026-04-07T13:38:41Z</time></trkpt><trkpt lat="43.34798975999615" lon="11.265735119524976"><ele>271.0</ele><time>2026-04-07T13:38:42Z</time></trkpt><trkpt lat="43.34784044727062" lon="11.26581906520551"><ele>271.0</ele><time>2026-04-07T13:38:43Z</time></trkpt><trkpt lat="43.347690352226934" lon="11.265956656006374"><ele>271.0</ele><time>2026-04-07T13:38:44Z</time></trkpt><trkpt lat="43.34754951301676" lon="11.266128977465518"><ele>271.0</ele><time>2026-04-07T13:38:45Z</time></trkpt><trkpt lat="43.347414538299276" lon="11.266309201161583"><ele>271.0</ele><time>2026-04-07T13:38:46Z</time></trkpt><trkpt lat="43.34727347112087" lon="11.26650001059586"><ele>271.0</ele><time>2026-04-07T13:38:47Z</time></trkpt><trkpt lat="43.34713574598902" lon="11.266687845248722"><ele>271.0</ele><time>2026-04-07T13:38:48Z</time></trkpt><trkpt lat="43.34701877344352" lon="11.266852115996732"><ele>271.0</ele><time>2026-04-07T13:38:49Z</time></trkpt><trkpt lat="43.346907520837064" lon="11.267010968961792"><ele>271.0</ele><time>2026-04-07T13:38:49.999Z</time></trkpt><trkpt lat="43.3467945052113" lon="11.267178799021577"><ele>271.0</ele><time>2026-04-07T13:38:50.999Z</time></trkpt><trkpt lat="43.34667704708659" lon="11.267364487153227"><ele>271.0</ele><time>2026-04-07T13:38:51.999Z</time></trkpt><trkpt lat="43.34656253148941" lon="11.267567289163072"><ele>271.0</ele><time>2026-04-07T13:38:52.999Z</time></trkpt><trkpt lat="43.34646300041512" lon="11.26775738004047"><ele>271.0</ele><time>2026-04-07T13:38:53.999Z</time></trkpt><trkpt lat="43.34637132919421" lon="11.267936965412073"><ele>271.0</ele><time>2026-04-07T13:38:54.999Z</time></trkpt><trkpt lat="43.34628580106515" lon="11.268107281401315"><ele>271.5</ele><time>2026-04-07T13:38:55.999Z</time></trkpt><trkpt lat="43.346206929504355" lon="11.268261278332131"><ele>272.0</ele><time>2026-04-07T13:38:56.999Z</time></trkpt><trkpt lat="43.3461247165271" lon="11.268405063278054"><ele>272.5</ele><time>2026-04-07T13:38:57.999Z</time></trkpt><trkpt lat="43.346019321375955" lon="11.268545697099905"><ele>273.0</ele><time>2026-04-07T13:38:58.999Z</time></trkpt><trkpt lat="43.34590710845541" lon="11.268652157715326"><ele>273.0</ele><time>2026-04-07T13:38:59.999Z</time></trkpt><trkpt lat="43.34579126950888" lon="11.268717975086396"><ele>273.0</ele><time>2026-04-07T13:39:00.999Z</time></trkpt><trkpt lat="43.34565838688935" lon="11.268758652599265"><ele>273.0</ele><time>2026-04-07T13:39:01.999Z</time></trkpt><trkpt lat="43.34551834429801" lon="11.268770656964373"><ele>273.0</ele><time>2026-04-07T13:39:02.999Z</time></trkpt><trkpt lat="43.34539142100019" lon="11.268802182359085"><ele>273.0</ele><time>2026-04-07T13:39:03.999Z</time></trkpt><trkpt lat="43.34527306644462" lon="11.268806485693794"><ele>273.0</ele><time>2026-04-07T13:39:04.999Z</time></trkpt><trkpt lat="43.34516342909913" lon="11.26881102207915"><ele>273.0</ele><time>2026-04-07T13:39:05.999Z</time></trkpt><trkpt lat="43.34505347127739" lon="11.268810443552564"><ele>273.0</ele><time>2026-04-07T13:39:06.999Z</time></trkpt><trkpt lat="43.34494590459942" lon="11.268767227632209"><ele>273.0</ele><time>2026-04-07T13:39:07.999Z</time></trkpt><trkpt lat="43.34484142257492" lon="11.268679130233034"><ele>273.0</ele><time>2026-04-07T13:39:08.999Z</time></trkpt><trkpt lat="43.34475727523806" lon="11.268548014957666"><ele>273.0</ele><time>2026-04-07T13:39:09.999Z</time></trkpt><trkpt lat="43.34470916758696" lon="11.268390385036295"><ele>273.0</ele><time>2026-04-07T13:39:10.999Z</time></trkpt><trkpt lat="43.344680169980535" lon="11.268184300872836"><ele>276.3333333333333</ele><time>2026-04-07T13:39:11.999Z</time></trkpt><trkpt lat="43.34465554301289" lon="11.2679791524875"><ele>279.66666666666663</ele><time>2026-04-07T13:39:12.999Z</time></trkpt><trkpt lat="43.344625600878565" lon="11.267775514374025"><ele>283.0</ele><time>2026-04-07T13:39:13.999Z</time></trkpt><trkpt lat="43.3445810516099" lon="11.267568747888324"><ele>283.0</ele><time>2026-04-07T13:39:14.999Z</time></trkpt><trkpt lat="43.34451321632717" lon="11.267363170003767"><ele>283.0</ele><time>2026-04-07T13:39:15.999Z</time></trkpt><trkpt lat="43.3444275061877" lon="11.267160488472594"><ele>283.0</ele><time>2026-04-07T13:39:16.999Z</time></trkpt><trkpt lat="43.34433405303343" lon="11.26698015538125"><ele>281.25</ele><time>2026-04-07T13:39:17.999Z</time></trkpt><trkpt lat="43.34424576324267" lon="11.266824663598483"><ele>279.5</ele><time>2026-04-07T13:39:18.999Z</time></trkpt><trkpt lat="43.34416750859798" lon="11.266681691876208"><ele>277.75</ele><time>2026-04-07T13:39:19.999Z</time></trkpt><trkpt lat="43.344094582941885" lon="11.266541031593194"><ele>276.0</ele><time>2026-04-07T13:39:20.999Z</time></trkpt><trkpt lat="43.34402521035531" lon="11.266386057818044"><ele>275.6666666666667</ele><time>2026-04-07T13:39:21.999Z</time></trkpt><trkpt lat="43.34390357770586" lon="11.266244739079175"><ele>275.33333333333337</ele><time>2026-04-07T13:39:22.999Z</time></trkpt><trkpt lat="43.34377733082444" lon="11.266108061234439"><ele>275.0</ele><time>2026-04-07T13:39:23.999Z</time></trkpt><trkpt lat="43.34362397593264" lon="11.265990870304512"><ele>275.0</ele><time>2026-04-07T13:39:24.999Z</time></trkpt><trkpt lat="43.34346727093852" lon="11.265885872954144"><ele>275.0</ele><time>2026-04-07T13:39:25.999Z</time></trkpt><trkpt lat="43.34333335920847" lon="11.265791078978836"><ele>275.0</ele><time>2026-04-07T13:39:26.999Z</time></trkpt><trkpt lat="43.34321182369419" lon="11.265706514444545"><ele>275.0</ele><time>2026-04-07T13:39:27.999Z</time></trkpt><trkpt lat="43.343087727810996" lon="11.265616827101585"><ele>275.0</ele><time>2026-04-07T13:39:28.999Z</time></trkpt><trkpt lat="43.34294213047544" lon="11.26551955246159"><ele>275.0</ele><time>2026-04-07T13:39:29.999Z</time></trkpt><trkpt lat="43.34280321370663" lon="11.265421529245637"><ele>273.33333333333337</ele><time>2026-04-07T13:39:30.999Z</time></trkpt><trkpt lat="43.34265556027103" lon="11.265319796854769"><ele>271.6666666666667</ele><time>2026-04-07T13:39:31.999Z</time></trkpt><trkpt lat="43.34249995468977" lon="11.265217316771608"><ele>270.0</ele><time>2026-04-07T13:39:32.999Z</time></trkpt><trkpt lat="43.342333905882946" lon="11.265106028888422"><ele>270.3333333333333</ele><time>2026-04-07T13:39:33.999Z</time></trkpt><trkpt lat="43.342167593315104" lon="11.26499227232336"><ele>270.66666666666663</ele><time>2026-04-07T13:39:35Z</time></trkpt><trkpt lat="43.3420132747926" lon="11.26488492622492"><ele>271.0</ele><time>2026-04-07T13:39:36Z</time></trkpt><trkpt lat="43.34186929330228" lon="11.26478317826489"><ele>270.66666666666663</ele><time>2026-04-07T13:39:37Z</time></trkpt><trkpt lat="43.3417278719326" lon="11.264693209483962"><ele>270.3333333333333</ele><time>2026-04-07T13:39:38Z</time></trkpt><trkpt lat="43.341577231282216" lon="11.264593312856194"><ele>270.0</ele><time>2026-04-07T13:39:39Z</time></trkpt><trkpt lat="43.34141619277021" lon="11.264486082679964"><ele>270.0</ele><time>2026-04-07T13:39:40Z</time></trkpt><trkpt lat="43.34127635942059" lon="11.264385541390213"><ele>270.0</ele><time>2026-04-07T13:39:41Z</time></trkpt><trkpt lat="43.34115036306487" lon="11.264291709454264"><ele>270.0</ele><time>2026-04-07T13:39:42Z</time></trkpt><trkpt lat="43.34101549304971" lon="11.26418033967608"><ele>270.0</ele><time>2026-04-07T13:39:43Z</time></trkpt><trkpt lat="43.34088009444404" lon="11.264038502191568"><ele>270.0</ele><time>2026-04-07T13:39:44Z</time></trkpt><trkpt lat="43.34074902791958" lon="11.26386398573446"><ele>270.0</ele><time>2026-04-07T13:39:45Z</time></trkpt><trkpt lat="43.34063375046906" lon="11.263680755163987"><ele>269.0</ele><time>2026-04-07T13:39:46Z</time></trkpt><trkpt lat="43.34053326312144" lon="11.263503360134635"><ele>268.0</ele><time>2026-04-07T13:39:47Z</time></trkpt><trkpt lat="43.34043620174022" lon="11.263330152046702"><ele>267.0</ele><time>2026-04-07T13:39:48Z</time></trkpt><trkpt lat="43.34033546739926" lon="11.263150433190999"><ele>266.3333333333333</ele><time>2026-04-07T13:39:49Z</time></trkpt><trkpt lat="43.34023816790794" lon="11.262986562445757"><ele>265.66666666666663</ele><time>2026-04-07T13:39:50Z</time></trkpt><trkpt lat="43.34013816606333" lon="11.26281418436377"><ele>265.0</ele><time>2026-04-07T13:39:51Z</time></trkpt><trkpt lat="43.34004129114309" lon="11.262634637096983"><ele>265.0</ele><time>2026-04-07T13:39:52Z</time></trkpt><trkpt lat="43.33993728844706" lon="11.262449888567335"><ele>265.0</ele><time>2026-04-07T13:39:53Z</time></trkpt><trkpt lat="43.33983457381715" lon="11.262266117433297"><ele>265.0</ele><time>2026-04-07T13:39:54Z</time></trkpt><trkpt lat="43.339740572700975" lon="11.262096356438299"><ele>264.5</ele><time>2026-04-07T13:39:55Z</time></trkpt><trkpt lat="43.339649675725205" lon="11.26194041415428"><ele>264.0</ele><time>2026-04-07T13:39:56Z</time></trkpt><trkpt lat="43.339558007819974" lon="11.261789208059284"><ele>263.5</ele><time>2026-04-07T13:39:57Z</time></trkpt><trkpt lat="43.3394472265484" lon="11.261645578158095"><ele>263.0</ele><time>2026-04-07T13:39:58Z</time></trkpt><trkpt lat="43.33929726044273" lon="11.261503776671901"><ele>262.6666666666667</ele><time>2026-04-07T13:39:59Z</time></trkpt><trkpt lat="43.33912587803614" lon="11.261391167845554"><ele>262.3333333333333</ele><time>2026-04-07T13:40:00Z</time></trkpt><trkpt lat="43.33896404924909" lon="11.261325654712143"><ele>262.0</ele><time>2026-04-07T13:40:01Z</time></trkpt><trkpt lat="43.33879367071163" lon="11.26126625333213"><ele>261.66666666666663</ele><time>2026-04-07T13:40:02Z</time></trkpt><trkpt lat="43.33861183355609" lon="11.261209301583976"><ele>261.3333333333333</ele><time>2026-04-07T13:40:03Z</time></trkpt><trkpt lat="43.3384220102379" lon="11.261148695966588"><ele>261.0</ele><time>2026-04-07T13:40:04Z</time></trkpt><trkpt lat="43.33825403074276" lon="11.261093088109037"><ele>261.0</ele><time>2026-04-07T13:40:05Z</time></trkpt><trkpt lat="43.338098414572336" lon="11.261051846520862"><ele>261.0</ele><time>2026-04-07T13:40:06Z</time></trkpt><trkpt lat="43.33794643005868" lon="11.261015597303748"><ele>261.0</ele><time>2026-04-07T13:40:07Z</time></trkpt><trkpt lat="43.33777751457145" lon="11.260973229571547"><ele>261.0</ele><time>2026-04-07T13:40:08Z</time></trkpt><trkpt lat="43.33760884859287" lon="11.260935245023548"><ele>261.0</ele><time>2026-04-07T13:40:09Z</time></trkpt><trkpt lat="43.33745901849616" lon="11.260913253467127"><ele>261.0</ele><time>2026-04-07T13:40:10Z</time></trkpt><trkpt lat="43.33730130071266" lon="11.260913691098471"><ele>261.6666666666667</ele><time>2026-04-07T13:40:11Z</time></trkpt><trkpt lat="43.33712257800046" lon="11.260913761742838"><ele>262.33333333333337</ele><time>2026-04-07T13:40:12Z</time></trkpt><trkpt lat="43.33692738852287" lon="11.26095660568113"><ele>263.0</ele><time>2026-04-07T13:40:13Z</time></trkpt><trkpt lat="43.336755852544535" lon="11.260997359159116"><ele>263.0</ele><time>2026-04-07T13:40:14Z</time></trkpt><trkpt lat="43.33660002701233" lon="11.261034342777615"><ele>263.0</ele><time>2026-04-07T13:40:15Z</time></trkpt><trkpt lat="43.336447730586436" lon="11.26107263631638"><ele>263.0</ele><time>2026-04-07T13:40:16Z</time></trkpt><trkpt lat="43.33627565573441" lon="11.261116517377594"><ele>262.0</ele><time>2026-04-07T13:40:17Z</time></trkpt><trkpt lat="43.3360916335293" lon="11.26116344510594"><ele>261.0</ele><time>2026-04-07T13:40:18Z</time></trkpt><trkpt lat="43.335920485775844" lon="11.261205558097286"><ele>260.0</ele><time>2026-04-07T13:40:19Z</time></trkpt><trkpt lat="43.33575524356509" lon="11.26124616112368"><ele>260.0</ele><time>2026-04-07T13:40:20Z</time></trkpt><trkpt lat="43.335596608246426" lon="11.26128652839282"><ele>260.0</ele><time>2026-04-07T13:40:21Z</time></trkpt><trkpt lat="43.335411948318935" lon="11.261324210921966"><ele>260.0</ele><time>2026-04-07T13:40:22Z</time></trkpt><trkpt lat="43.33523011956931" lon="11.261347152173373"><ele>259.6666666666667</ele><time>2026-04-07T13:40:23Z</time></trkpt><trkpt lat="43.3350696006646" lon="11.261343747752282"><ele>259.3333333333333</ele><time>2026-04-07T13:40:24Z</time></trkpt><trkpt lat="43.33491787175621" lon="11.26130905979871"><ele>259.0</ele><time>2026-04-07T13:40:25Z</time></trkpt><trkpt lat="43.33478021313983" lon="11.261269069182317"><ele>262.3333333333333</ele><time>2026-04-07T13:40:26Z</time></trkpt><trkpt lat="43.33465993329836" lon="11.261182446710428"><ele>265.6666666666667</ele><time>2026-04-07T13:40:27Z</time></trkpt><trkpt lat="43.33453516282498" lon="11.261048561405959"><ele>269.0</ele><time>2026-04-07T13:40:28Z</time></trkpt><trkpt lat="43.33441490816336" lon="11.260884789466543"><ele>269.0</ele><time>2026-04-07T13:40:29Z</time></trkpt><trkpt lat="43.33431608399284" lon="11.260736599459129"><ele>269.0</ele><time>2026-04-07T13:40:30Z</time></trkpt><trkpt lat="43.3342212424775" lon="11.260602825458486"><ele>269.0</ele><time>2026-04-07T13:40:31Z</time></trkpt><trkpt lat="43.334125368644074" lon="11.26047436844836"><ele>269.0</ele><time>2026-04-07T13:40:32Z</time></trkpt><trkpt lat="43.334034199185645" lon="11.260363984348482"><ele>268.75</ele><time>2026-04-07T13:40:33Z</time></trkpt><trkpt lat="43.333948089101646" lon="11.260252513105451"><ele>268.5</ele><time>2026-04-07T13:40:34Z</time></trkpt><trkpt lat="43.333841311398594" lon="11.260147932638128"><ele>268.25</ele><time>2026-04-07T13:40:35Z</time></trkpt><trkpt lat="43.33371524455834" lon="11.260069442325847"><ele>268.0</ele><time>2026-04-07T13:40:36Z</time></trkpt><trkpt lat="43.33360353642919" lon="11.260051152574482"><ele>268.0</ele><time>2026-04-07T13:40:37Z</time></trkpt><trkpt lat="43.33349091504299" lon="11.260040587770076"><ele>268.0</ele><time>2026-04-07T13:40:38Z</time></trkpt><trkpt lat="43.33336432869374" lon="11.260079439777224"><ele>268.0</ele><time>2026-04-07T13:40:39Z</time></trkpt><trkpt lat="43.33323082155432" lon="11.260137987037693"><ele>268.0</ele><time>2026-04-07T13:40:40Z</time></trkpt><trkpt lat="43.333100114031346" lon="11.260210771783042"><ele>267.25</ele><time>2026-04-07T13:40:41Z</time></trkpt><trkpt lat="43.332987855148566" lon="11.260295618044534"><ele>266.5</ele><time>2026-04-07T13:40:42Z</time></trkpt><trkpt lat="43.33287559854152" lon="11.260413945958199"><ele>265.75</ele><time>2026-04-07T13:40:43Z</time></trkpt><trkpt lat="43.33277058851885" lon="11.260571536072957"><ele>265.0</ele><time>2026-04-07T13:40:44Z</time></trkpt><trkpt lat="43.332693239816756" lon="11.260729497568315"><ele>265.0</ele><time>2026-04-07T13:40:45Z</time></trkpt><trkpt lat="43.332626097875504" lon="11.260914547084463"><ele>265.0</ele><time>2026-04-07T13:40:46Z</time></trkpt><trkpt lat="43.33255983093085" lon="11.261133690998399"><ele>265.0</ele><time>2026-04-07T13:40:47Z</time></trkpt><trkpt lat="43.33250045196198" lon="11.26133576448904"><ele>265.0</ele><time>2026-04-07T13:40:48Z</time></trkpt><trkpt lat="43.33243991921208" lon="11.26151969446963"><ele>265.0</ele><time>2026-04-07T13:40:49Z</time></trkpt><trkpt lat="43.33237311634881" lon="11.261688785592035"><ele>265.0</ele><time>2026-04-07T13:40:50Z</time></trkpt><trkpt lat="43.332298846557705" lon="11.26183827518562"><ele>265.0</ele><time>2026-04-07T13:40:51Z</time></trkpt><trkpt lat="43.332199519363954" lon="11.26199257481759"><ele>265.0</ele><time>2026-04-07T13:40:52Z</time></trkpt><trkpt lat="43.33208135377921" lon="11.262163066803309"><ele>265.0</ele><time>2026-04-07T13:40:53Z</time></trkpt><trkpt lat="43.331982350932506" lon="11.262305910651042"><ele>265.0</ele><time>2026-04-07T13:40:54Z</time></trkpt><trkpt lat="43.331899463933134" lon="11.2624254270692"><ele>265.0</ele><time>2026-04-07T13:40:55Z</time></trkpt><trkpt lat="43.33180684338106" lon="11.26255882062882"><ele>267.0</ele><time>2026-04-07T13:40:56Z</time></trkpt><trkpt lat="43.3317011072397" lon="11.262710674846206"><ele>269.0</ele><time>2026-04-07T13:40:57Z</time></trkpt><trkpt lat="43.331597106904894" lon="11.26285843797471"><ele>271.0</ele><time>2026-04-07T13:40:57.999Z</time></trkpt><trkpt lat="43.331513544963066" lon="11.262977222782201"><ele>273.0</ele><time>2026-04-07T13:40:58.999Z</time></trkpt><trkpt lat="43.33142704902973" lon="11.263101465980766"><ele>275.0</ele><time>2026-04-07T13:40:59.999Z</time></trkpt><trkpt lat="43.331333365176114" lon="11.263236033838623"><ele>277.0</ele><time>2026-04-07T13:41:00.999Z</time></trkpt><trkpt lat="43.3312354232172" lon="11.263376718309996"><ele>279.0</ele><time>2026-04-07T13:41:01.999Z</time></trkpt><trkpt lat="43.33113905401701" lon="11.26351552108983"><ele>281.0</ele><time>2026-04-07T13:41:02.999Z</time></trkpt><trkpt lat="43.33105787428486" lon="11.263633150484448"><ele>281.0</ele><time>2026-04-07T13:41:03.999Z</time></trkpt><trkpt lat="43.33097027950668" lon="11.2637600751363"><ele>281.0</ele><time>2026-04-07T13:41:04.999Z</time></trkpt><trkpt lat="43.330867152491614" lon="11.263909505931567"><ele>281.0</ele><time>2026-04-07T13:41:05.999Z</time></trkpt><trkpt lat="43.33077262727694" lon="11.264046473057421"><ele>281.0</ele><time>2026-04-07T13:41:06.999Z</time></trkpt><trkpt lat="43.330695956174765" lon="11.264181739544801"><ele>282.25</ele><time>2026-04-07T13:41:07.999Z</time></trkpt><trkpt lat="43.33060607698566" lon="11.26430760346515"><ele>283.5</ele><time>2026-04-07T13:41:08.999Z</time></trkpt><trkpt lat="43.330513208783074" lon="11.264412981819476"><ele>284.75</ele><time>2026-04-07T13:41:09.999Z</time></trkpt><trkpt lat="43.33040261696495" lon="11.264517688185759"><ele>286.0</ele><time>2026-04-07T13:41:10.999Z</time></trkpt><trkpt lat="43.33027426557149" lon="11.264614671418716"><ele>286.0</ele><time>2026-04-07T13:41:11.999Z</time></trkpt><trkpt lat="43.330149163813324" lon="11.264688465181946"><ele>286.0</ele><time>2026-04-07T13:41:12.999Z</time></trkpt><trkpt lat="43.33002720920189" lon="11.264735367116744"><ele>286.0</ele><time>2026-04-07T13:41:13.999Z</time></trkpt><trkpt lat="43.329910773988104" lon="11.264761162344533"><ele>286.0</ele><time>2026-04-07T13:41:14.999Z</time></trkpt><trkpt lat="43.32979637287421" lon="11.264771574479056"><ele>285.5</ele><time>2026-04-07T13:41:15.999Z</time></trkpt><trkpt lat="43.32967222973971" lon="11.264769787342615"><ele>285.0</ele><time>2026-04-07T13:41:16.999Z</time></trkpt><trkpt lat="43.32954128546795" lon="11.264760533611213"><ele>284.5</ele><time>2026-04-07T13:41:17.999Z</time></trkpt><trkpt lat="43.329400616835684" lon="11.264749922035733"><ele>284.0</ele><time>2026-04-07T13:41:18.999Z</time></trkpt><trkpt lat="43.329251989585494" lon="11.264737723164865"><ele>284.0</ele><time>2026-04-07T13:41:19.999Z</time></trkpt><trkpt lat="43.329103334078475" lon="11.26472208825239"><ele>284.0</ele><time>2026-04-07T13:41:20.999Z</time></trkpt><trkpt lat="43.3289690756976" lon="11.264687305333855"><ele>284.0</ele><time>2026-04-07T13:41:21.999Z</time></trkpt><trkpt lat="43.32884462871125" lon="11.26467454966155"><ele>284.0</ele><time>2026-04-07T13:41:22.999Z</time></trkpt><trkpt lat="43.328712106878676" lon="11.264656772557753"><ele>283.75</ele><time>2026-04-07T13:41:23.999Z</time></trkpt><trkpt lat="43.32857215751884" lon="11.264643498162755"><ele>283.5</ele><time>2026-04-07T13:41:24.999Z</time></trkpt><trkpt lat="43.32845041418843" lon="11.264628732910886"><ele>283.25</ele><time>2026-04-07T13:41:25.999Z</time></trkpt><trkpt lat="43.328336447314925" lon="11.26461520382676"><ele>283.0</ele><time>2026-04-07T13:41:26.999Z</time></trkpt><trkpt lat="43.32820602958094" lon="11.264609154616595"><ele>283.0</ele><time>2026-04-07T13:41:27.999Z</time></trkpt><trkpt lat="43.32806396325676" lon="11.264593094806646"><ele>283.0</ele><time>2026-04-07T13:41:28.999Z</time></trkpt><trkpt lat="43.327936702647584" lon="11.264583908767765"><ele>283.0</ele><time>2026-04-07T13:41:29.999Z</time></trkpt><trkpt lat="43.3278089173812" lon="11.264569937395466"><ele>283.0</ele><time>2026-04-07T13:41:30.999Z</time></trkpt><trkpt lat="43.327674355708204" lon="11.264553122128493"><ele>282.66666666666663</ele><time>2026-04-07T13:41:31.999Z</time></trkpt><trkpt lat="43.327510957760474" lon="11.264539240421113"><ele>282.3333333333333</ele><time>2026-04-07T13:41:32.999Z</time></trkpt><trkpt lat="43.327356548236324" lon="11.264525945691421"><ele>282.0</ele><time>2026-04-07T13:41:33.999Z</time></trkpt><trkpt lat="43.327218774061144" lon="11.264513483290095"><ele>281.25</ele><time>2026-04-07T13:41:34.999Z</time></trkpt><trkpt lat="43.32708557037986" lon="11.2645165435425"><ele>280.5</ele><time>2026-04-07T13:41:35.999Z</time></trkpt><trkpt lat="43.32695098730945" lon="11.264567390060268"><ele>279.75</ele><time>2026-04-07T13:41:36.999Z</time></trkpt><trkpt lat="43.32680166328227" lon="11.264603293836034"><ele>279.0</ele><time>2026-04-07T13:41:37.999Z</time></trkpt><trkpt lat="43.326645042561616" lon="11.264683814787242"><ele>279.0</ele><time>2026-04-07T13:41:38.999Z</time></trkpt><trkpt lat="43.32648489865512" lon="11.26477320335407"><ele>279.0</ele><time>2026-04-07T13:41:39.999Z</time></trkpt><trkpt lat="43.32634265850699" lon="11.264853682142347"><ele>279.0</ele><time>2026-04-07T13:41:41Z</time></trkpt><trkpt lat="43.32620822548083" lon="11.264929743676907"><ele>278.25</ele><time>2026-04-07T13:41:42Z</time></trkpt><trkpt lat="43.32607676395889" lon="11.265003124601632"><ele>277.5</ele><time>2026-04-07T13:41:43Z</time></trkpt><trkpt lat="43.3259411667805" lon="11.26507162620211"><ele>276.75</ele><time>2026-04-07T13:41:44Z</time></trkpt><trkpt lat="43.325795036242745" lon="11.265129171906835"><ele>276.0</ele><time>2026-04-07T13:41:45Z</time></trkpt><trkpt lat="43.325653868786375" lon="11.26516341974026"><ele>275.0</ele><time>2026-04-07T13:41:46Z</time></trkpt><trkpt lat="43.325520409506524" lon="11.26517261603982"><ele>274.0</ele><time>2026-04-07T13:41:47Z</time></trkpt><trkpt lat="43.32538227217666" lon="11.2651777727556"><ele>273.0</ele><time>2026-04-07T13:41:48Z</time></trkpt><trkpt lat="43.32524920864616" lon="11.265202871012344"><ele>272.0</ele><time>2026-04-07T13:41:49Z</time></trkpt><trkpt lat="43.32511599641265" lon="11.265204600586822"><ele>272.0</ele><time>2026-04-07T13:41:50Z</time></trkpt><trkpt lat="43.32497830898154" lon="11.26520466218994"><ele>272.0</ele><time>2026-04-07T13:41:51Z</time></trkpt><trkpt lat="43.32483705685057" lon="11.265198000566503"><ele>272.0</ele><time>2026-04-07T13:41:52Z</time></trkpt><trkpt lat="43.32469294661928" lon="11.265206495526744"><ele>272.0</ele><time>2026-04-07T13:41:53Z</time></trkpt><trkpt lat="43.3245454972589" lon="11.265213389639463"><ele>271.0</ele><time>2026-04-07T13:41:54Z</time></trkpt><trkpt lat="43.32440774555495" lon="11.265212979111409"><ele>270.0</ele><time>2026-04-07T13:41:55Z</time></trkpt><trkpt lat="43.324262298517034" lon="11.265264896978227"><ele>269.0</ele><time>2026-04-07T13:41:56Z</time></trkpt><trkpt lat="43.32411072081676" lon="11.265344257826358"><ele>269.0</ele><time>2026-04-07T13:41:57Z</time></trkpt><trkpt lat="43.32395761777861" lon="11.265463357687638"><ele>269.0</ele><time>2026-04-07T13:41:58Z</time></trkpt><trkpt lat="43.32379636150816" lon="11.265593857013636"><ele>269.0</ele><time>2026-04-07T13:41:59Z</time></trkpt><trkpt lat="43.323640226027976" lon="11.26572731895014"><ele>270.0</ele><time>2026-04-07T13:42:00Z</time></trkpt><trkpt lat="43.323512621294" lon="11.265838869950748"><ele>271.0</ele><time>2026-04-07T13:42:01Z</time></trkpt><trkpt lat="43.32339626244014" lon="11.265937520339362"><ele>272.0</ele><time>2026-04-07T13:42:02Z</time></trkpt><trkpt lat="43.32327479175566" lon="11.26603138917597"><ele>273.0</ele><time>2026-04-07T13:42:03Z</time></trkpt><trkpt lat="43.323128652574795" lon="11.266093925488258"><ele>275.0</ele><time>2026-04-07T13:42:04Z</time></trkpt><trkpt lat="43.32296221714054" lon="11.266164059454143"><ele>277.0</ele><time>2026-04-07T13:42:05Z</time></trkpt><trkpt lat="43.322806640053834" lon="11.26621949632253"><ele>279.0</ele><time>2026-04-07T13:42:06Z</time></trkpt><trkpt lat="43.32267617962968" lon="11.266286712952063"><ele>279.0</ele><time>2026-04-07T13:42:07Z</time></trkpt><trkpt lat="43.32253868006841" lon="11.26631400392092"><ele>279.0</ele><time>2026-04-07T13:42:08Z</time></trkpt><trkpt lat="43.322371061042496" lon="11.266372472426376"><ele>279.0</ele><time>2026-04-07T13:42:09Z</time></trkpt><trkpt lat="43.32221294869161" lon="11.266427624873563"><ele>279.5</ele><time>2026-04-07T13:42:10Z</time></trkpt><trkpt lat="43.32209035246893" lon="11.266470388639185"><ele>280.0</ele><time>2026-04-07T13:42:11Z</time></trkpt><trkpt lat="43.32196830296439" lon="11.26651296168385"><ele>280.5</ele><time>2026-04-07T13:42:12Z</time></trkpt><trkpt lat="43.32182827711412" lon="11.266561805208482"><ele>281.0</ele><time>2026-04-07T13:42:13Z</time></trkpt><trkpt lat="43.32167871069837" lon="11.266614090873686"><ele>281.0</ele><time>2026-04-07T13:42:14Z</time></trkpt><trkpt lat="43.32156122358054" lon="11.266676692013203"><ele>281.0</ele><time>2026-04-07T13:42:15Z</time></trkpt><trkpt lat="43.3214435487955" lon="11.266711513014137"><ele>281.0</ele><time>2026-04-07T13:42:16Z</time></trkpt><trkpt lat="43.321328529571595" lon="11.266756932870988"><ele>281.0</ele><time>2026-04-07T13:42:17Z</time></trkpt><trkpt lat="43.32120148997563" lon="11.26681608384172"><ele>281.25</ele><time>2026-04-07T13:42:18Z</time></trkpt><trkpt lat="43.32108076830488" lon="11.26693651720037"><ele>281.5</ele><time>2026-04-07T13:42:19Z</time></trkpt><trkpt lat="43.320988823303985" lon="11.267086115591653"><ele>281.75</ele><time>2026-04-07T13:42:20Z</time></trkpt><trkpt lat="43.32091393904697" lon="11.267263120596978"><ele>282.0</ele><time>2026-04-07T13:42:21Z</time></trkpt><trkpt lat="43.320857776928065" lon="11.267473155963732"><ele>282.0</ele><time>2026-04-07T13:42:22Z</time></trkpt><trkpt lat="43.32082227255635" lon="11.267657353544903"><ele>282.0</ele><time>2026-04-07T13:42:23Z</time></trkpt><trkpt lat="43.3207934858231" lon="11.267819907037428"><ele>282.0</ele><time>2026-04-07T13:42:24Z</time></trkpt><trkpt lat="43.32076528831013" lon="11.267977256233548"><ele>282.0</ele><time>2026-04-07T13:42:25Z</time></trkpt><trkpt lat="43.320719511168704" lon="11.26814907146201"><ele>282.5</ele><time>2026-04-07T13:42:26Z</time></trkpt><trkpt lat="43.32064970700254" lon="11.268312544244036"><ele>283.0</ele><time>2026-04-07T13:42:27Z</time></trkpt><trkpt lat="43.32056087835581" lon="11.26843341523887"><ele>283.5</ele><time>2026-04-07T13:42:28Z</time></trkpt><trkpt lat="43.320465738765066" lon="11.268536393067023"><ele>284.0</ele><time>2026-04-07T13:42:29Z</time></trkpt><trkpt lat="43.3203587081626" lon="11.268629644806701"><ele>284.0</ele><time>2026-04-07T13:42:30Z</time></trkpt><trkpt lat="43.320235306346916" lon="11.268729845988844"><ele>284.0</ele><time>2026-04-07T13:42:31Z</time></trkpt><trkpt lat="43.320123804544956" lon="11.268817439074576"><ele>284.0</ele><time>2026-04-07T13:42:32Z</time></trkpt><trkpt lat="43.320018703781244" lon="11.268898131575643"><ele>284.0</ele><time>2026-04-07T13:42:33Z</time></trkpt><trkpt lat="43.31989701698708" lon="11.26899249408969"><ele>281.6666666666667</ele><time>2026-04-07T13:42:34Z</time></trkpt><trkpt lat="43.31977512124563" lon="11.269089908542709"><ele>279.3333333333333</ele><time>2026-04-07T13:42:35Z</time></trkpt><trkpt lat="43.31964621695057" lon="11.269201865269336"><ele>277.0</ele><time>2026-04-07T13:42:36Z</time></trkpt><trkpt lat="43.31951326459342" lon="11.269335844505914"><ele>276.66666666666663</ele><time>2026-04-07T13:42:37Z</time></trkpt><trkpt lat="43.31939442629068" lon="11.26950695634938"><ele>276.3333333333333</ele><time>2026-04-07T13:42:38Z</time></trkpt><trkpt lat="43.31926612372648" lon="11.26967717613494"><ele>276.0</ele><time>2026-04-07T13:42:39Z</time></trkpt><trkpt lat="43.319128741775444" lon="11.269836237568262"><ele>275.6666666666667</ele><time>2026-04-07T13:42:40Z</time></trkpt><trkpt lat="43.319013678932016" lon="11.26999490758133"><ele>275.33333333333337</ele><time>2026-04-07T13:42:41Z</time></trkpt><trkpt lat="43.3189027625652" lon="11.27014785991514"><ele>275.0</ele><time>2026-04-07T13:42:42Z</time></trkpt><trkpt lat="43.31879019782505" lon="11.270303085167072"><ele>276.33333333333337</ele><time>2026-04-07T13:42:43Z</time></trkpt><trkpt lat="43.31868116327646" lon="11.270483463610795"><ele>277.6666666666667</ele><time>2026-04-07T13:42:44Z</time></trkpt><trkpt lat="43.3185458085672" lon="11.27063943321892"><ele>279.0</ele><time>2026-04-07T13:42:45Z</time></trkpt><trkpt lat="43.318415649000755" lon="11.270812636387129"><ele>277.0</ele><time>2026-04-07T13:42:46Z</time></trkpt><trkpt lat="43.318289544662086" lon="11.270972288963119"><ele>275.0</ele><time>2026-04-07T13:42:47Z</time></trkpt><trkpt lat="43.31817148193001" lon="11.271116404366897"><ele>273.0</ele><time>2026-04-07T13:42:48Z</time></trkpt><trkpt lat="43.31805536947689" lon="11.271255052734757"><ele>273.0</ele><time>2026-04-07T13:42:49Z</time></trkpt><trkpt lat="43.31795448568482" lon="11.2714016367571"><ele>273.0</ele><time>2026-04-07T13:42:50Z</time></trkpt><trkpt lat="43.31784120672428" lon="11.271530473310772"><ele>273.0</ele><time>2026-04-07T13:42:51Z</time></trkpt><trkpt lat="43.317717230096775" lon="11.27167619496113"><ele>272.6666666666667</ele><time>2026-04-07T13:42:52Z</time></trkpt><trkpt lat="43.31760114636236" lon="11.271825254938097"><ele>272.33333333333337</ele><time>2026-04-07T13:42:53Z</time></trkpt><trkpt lat="43.31749702153143" lon="11.271972463864131"><ele>272.0</ele><time>2026-04-07T13:42:54Z</time></trkpt><trkpt lat="43.317394059391695" lon="11.272131956211265"><ele>273.0</ele><time>2026-04-07T13:42:55Z</time></trkpt><trkpt lat="43.31730931700779" lon="11.272339357864363"><ele>274.0</ele><time>2026-04-07T13:42:56Z</time></trkpt><trkpt lat="43.3172429117644" lon="11.272565607945047"><ele>275.0</ele><time>2026-04-07T13:42:57Z</time></trkpt><trkpt lat="43.31720081447836" lon="11.27277784026052"><ele>275.0</ele><time>2026-04-07T13:42:58Z</time></trkpt><trkpt lat="43.317186867887116" lon="11.272976031495944"><ele>275.0</ele><time>2026-04-07T13:42:59Z</time></trkpt><trkpt lat="43.317159660549926" lon="11.27314870924531"><ele>275.0</ele><time>2026-04-07T13:43:00Z</time></trkpt><trkpt lat="43.31712210746125" lon="11.273302434503249"><ele>275.0</ele><time>2026-04-07T13:43:01Z</time></trkpt><trkpt lat="43.317100719175336" lon="11.2734436625844"><ele>274.0</ele><time>2026-04-07T13:43:02Z</time></trkpt><trkpt lat="43.317081176215936" lon="11.27357057954077"><ele>273.0</ele><time>2026-04-07T13:43:03Z</time></trkpt><trkpt lat="43.31705994140714" lon="11.273693207058354"><ele>272.0</ele><time>2026-04-07T13:43:03.999Z</time></trkpt><trkpt lat="43.31703584936731" lon="11.273817308228576"><ele>271.0</ele><time>2026-04-07T13:43:04.999Z</time></trkpt><trkpt lat="43.31700524709888" lon="11.27392703830932"><ele>270.0</ele><time>2026-04-07T13:43:05.999Z</time></trkpt><trkpt lat="43.317023351331095" lon="11.274083464828285"><ele>269.4</ele><time>2026-04-07T13:43:06.999Z</time></trkpt><trkpt lat="43.316981528456026" lon="11.274236457613169"><ele>268.8</ele><time>2026-04-07T13:43:07.999Z</time></trkpt><trkpt lat="43.31695384544132" lon="11.274394610496493"><ele>268.2</ele><time>2026-04-07T13:43:08.999Z</time></trkpt><trkpt lat="43.316922987878904" lon="11.274531635182994"><ele>267.6</ele><time>2026-04-07T13:43:09.999Z</time></trkpt><trkpt lat="43.316897491791295" lon="11.274631337413483"><ele>267.0</ele><time>2026-04-07T13:43:10.999Z</time></trkpt><trkpt lat="43.316857069281674" lon="11.274741574423345"><ele>267.0</ele><time>2026-04-07T13:43:18.999Z</time></trkpt><trkpt lat="43.316816192707165" lon="11.27483781410586"><ele>267.0</ele><time>2026-04-07T13:43:19.999Z</time></trkpt><trkpt lat="43.31679576429498" lon="11.274982397840096"><ele>267.0</ele><time>2026-04-07T13:43:20.999Z</time></trkpt><trkpt lat="43.31674584166793" lon="11.275088538245667"><ele>267.0</ele><time>2026-04-07T13:43:21.999Z</time></trkpt><trkpt lat="43.31667520677637" lon="11.27519609675058"><ele>267.0</ele><time>2026-04-07T13:43:22.999Z</time></trkpt><trkpt lat="43.31657437457833" lon="11.275316422125192"><ele>267.0</ele><time>2026-04-07T13:43:23.999Z</time></trkpt><trkpt lat="43.31644432074095" lon="11.275376655540336"><ele>267.0</ele><time>2026-04-07T13:43:24.999Z</time></trkpt><trkpt lat="43.31630125312735" lon="11.275454288437913"><ele>267.0</ele><time>2026-04-07T13:43:25.999Z</time></trkpt><trkpt lat="43.31614718418146" lon="11.27554175329948"><ele>269.25</ele><time>2026-04-07T13:43:26.999Z</time></trkpt><trkpt lat="43.315995244269516" lon="11.27563939881998"><ele>271.5</ele><time>2026-04-07T13:43:27.999Z</time></trkpt><trkpt lat="43.3158789034422" lon="11.275729710367981"><ele>273.75</ele><time>2026-04-07T13:43:28.999Z</time></trkpt><trkpt lat="43.31579043546268" lon="11.275827962109952"><ele>276.0</ele><time>2026-04-07T13:43:29.999Z</time></trkpt><trkpt lat="43.315720013088104" lon="11.275942092177852"><ele>276.0</ele><time>2026-04-07T13:43:30.999Z</time></trkpt><trkpt lat="43.31566975933028" lon="11.276080810310454"><ele>276.0</ele><time>2026-04-07T13:43:31.999Z</time></trkpt><trkpt lat="43.315638424738324" lon="11.27623732023226"><ele>276.0</ele><time>2026-04-07T13:43:32.999Z</time></trkpt><trkpt lat="43.31562447812309" lon="11.276429529126181"><ele>276.0</ele><time>2026-04-07T13:43:33.999Z</time></trkpt><trkpt lat="43.31563570013388" lon="11.276646071075726"><ele>278.0</ele><time>2026-04-07T13:43:34.999Z</time></trkpt><trkpt lat="43.31567053848664" lon="11.276837692003758"><ele>280.0</ele><time>2026-04-07T13:43:35.999Z</time></trkpt><trkpt lat="43.315703824683034" lon="11.276998069484705"><ele>282.0</ele><time>2026-04-07T13:43:36.999Z</time></trkpt><trkpt lat="43.31573790097567" lon="11.277162627132714"><ele>284.0</ele><time>2026-04-07T13:43:37.999Z</time></trkpt><trkpt lat="43.31575683379874" lon="11.27732179822147"><ele>284.75</ele><time>2026-04-07T13:43:38.999Z</time></trkpt><trkpt lat="43.315756142882364" lon="11.277464933110641"><ele>285.5</ele><time>2026-04-07T13:43:39.999Z</time></trkpt><trkpt lat="43.31574087502017" lon="11.277632141633244"><ele>286.25</ele><time>2026-04-07T13:43:40.999Z</time></trkpt><trkpt lat="43.31571994549398" lon="11.277808152834533"><ele>287.0</ele><time>2026-04-07T13:43:41.999Z</time></trkpt><trkpt lat="43.3156997341316" lon="11.27797671041211"><ele>288.5</ele><time>2026-04-07T13:43:42.999Z</time></trkpt><trkpt lat="43.31567870979888" lon="11.278130411578788"><ele>290.0</ele><time>2026-04-07T13:43:43.999Z</time></trkpt><trkpt lat="43.31565333083575" lon="11.278297090437368"><ele>291.5</ele><time>2026-04-07T13:43:44.999Z</time></trkpt><trkpt lat="43.31561478484485" lon="11.278476848615913"><ele>293.0</ele><time>2026-04-07T13:43:45.999Z</time></trkpt><trkpt lat="43.3155558045361" lon="11.278653500272151"><ele>293.0</ele><time>2026-04-07T13:43:47Z</time></trkpt><trkpt lat="43.315473833469696" lon="11.278837110916129"><ele>293.0</ele><time>2026-04-07T13:43:48Z</time></trkpt><trkpt lat="43.31537245526437" lon="11.279035909934143"><ele>293.0</ele><time>2026-04-07T13:43:49Z</time></trkpt><trkpt lat="43.31528184401505" lon="11.279197651939985"><ele>295.0</ele><time>2026-04-07T13:43:50Z</time></trkpt><trkpt lat="43.31520350788714" lon="11.279338311749568"><ele>297.0</ele><time>2026-04-07T13:43:51Z</time></trkpt><trkpt lat="43.31512357501446" lon="11.279484943282876"><ele>299.0</ele><time>2026-04-07T13:43:52Z</time></trkpt><trkpt lat="43.31503259777259" lon="11.279652127391788"><ele>301.0</ele><time>2026-04-07T13:43:53Z</time></trkpt><trkpt lat="43.314943526186724" lon="11.279808045579527"><ele>302.0</ele><time>2026-04-07T13:43:54Z</time></trkpt><trkpt lat="43.31487074908462" lon="11.279936145125044"><ele>303.0</ele><time>2026-04-07T13:43:55Z</time></trkpt><trkpt lat="43.31477989601871" lon="11.280059465843435"><ele>304.0</ele><time>2026-04-07T13:43:56Z</time></trkpt><trkpt lat="43.314662328814144" lon="11.280150856256972"><ele>305.0</ele><time>2026-04-07T13:43:57Z</time></trkpt><trkpt lat="43.314536939136154" lon="11.280240323956356"><ele>305.75</ele><time>2026-04-07T13:43:58Z</time></trkpt><trkpt lat="43.31440502375912" lon="11.280339156805125"><ele>306.5</ele><time>2026-04-07T13:43:59Z</time></trkpt><trkpt lat="43.31429930552852" lon="11.28042057951163"><ele>307.25</ele><time>2026-04-07T13:44:00Z</time></trkpt><trkpt lat="43.31418815542598" lon="11.280502824064197"><ele>308.0</ele><time>2026-04-07T13:44:01Z</time></trkpt><trkpt lat="43.31408615824965" lon="11.28063903004087"><ele>309.6666666666667</ele><time>2026-04-07T13:44:02Z</time></trkpt><trkpt lat="43.314000525655736" lon="11.280805919226287"><ele>311.3333333333333</ele><time>2026-04-07T13:44:03Z</time></trkpt><trkpt lat="43.3139470930494" lon="11.280997908648146"><ele>313.0</ele><time>2026-04-07T13:44:04Z</time></trkpt><trkpt lat="43.31392426284194" lon="11.281208470386408"><ele>314.3333333333333</ele><time>2026-04-07T13:44:05Z</time></trkpt><trkpt lat="43.31392658210965" lon="11.281433449461076"><ele>315.6666666666667</ele><time>2026-04-07T13:44:06Z</time></trkpt><trkpt lat="43.313933811671724" lon="11.281663619366345"><ele>317.0</ele><time>2026-04-07T13:44:07Z</time></trkpt><trkpt lat="43.31394143212725" lon="11.281906234660918"><ele>317.0</ele><time>2026-04-07T13:44:08Z</time></trkpt><trkpt lat="43.31394977878964" lon="11.282166758716976"><ele>317.0</ele><time>2026-04-07T13:44:09Z</time></trkpt><trkpt lat="43.31395707445456" lon="11.28239416772232"><ele>317.0</ele><time>2026-04-07T13:44:10Z</time></trkpt><trkpt lat="43.31396582385497" lon="11.282589214207112"><ele>318.25</ele><time>2026-04-07T13:44:11Z</time></trkpt><trkpt lat="43.313980747231284" lon="11.282759614402682"><ele>319.5</ele><time>2026-04-07T13:44:12Z</time></trkpt><trkpt lat="43.31403735094703" lon="11.282914860010651"><ele>320.75</ele><time>2026-04-07T13:44:13Z</time></trkpt><trkpt lat="43.31410988604999" lon="11.283091470496249"><ele>322.0</ele><time>2026-04-07T13:44:14Z</time></trkpt><trkpt lat="43.314188078248385" lon="11.283283901941445"><ele>323.66666666666663</ele><time>2026-04-07T13:44:15Z</time></trkpt><trkpt lat="43.31427620592229" lon="11.283467090409458"><ele>325.3333333333333</ele><time>2026-04-07T13:44:16Z</time></trkpt><trkpt lat="43.314373241882066" lon="11.283672374176907"><ele>327.0</ele><time>2026-04-07T13:44:17Z</time></trkpt><trkpt lat="43.31446093537526" lon="11.283860911776843"><ele>329.5</ele><time>2026-04-07T13:44:18Z</time></trkpt><trkpt lat="43.31453485692699" lon="11.284019493533831"><ele>332.0</ele><time>2026-04-07T13:44:19Z</time></trkpt><trkpt lat="43.31459980718044" lon="11.284175046941895"><ele>334.5</ele><time>2026-04-07T13:44:20Z</time></trkpt><trkpt lat="43.3146459679471" lon="11.28432247345828"><ele>337.0</ele><time>2026-04-07T13:44:21Z</time></trkpt><trkpt lat="43.314678123509324" lon="11.28448232924562"><ele>337.0</ele><time>2026-04-07T13:44:22Z</time></trkpt><trkpt lat="43.31469632453845" lon="11.284652622522445"><ele>337.0</ele><time>2026-04-07T13:44:23Z</time></trkpt><trkpt lat="43.31468942708514" lon="11.284835848150403"><ele>337.0</ele><time>2026-04-07T13:44:24Z</time></trkpt><trkpt lat="43.314666796804566" lon="11.285027660158729"><ele>337.0</ele><time>2026-04-07T13:44:25Z</time></trkpt><trkpt lat="43.3146335527682" lon="11.28522788205109"><ele>338.75</ele><time>2026-04-07T13:44:26Z</time></trkpt><trkpt lat="43.3146331414226" lon="11.285444927311882"><ele>340.5</ele><time>2026-04-07T13:44:27Z</time></trkpt><trkpt lat="43.3146347769992" lon="11.285632505211481"><ele>342.25</ele><time>2026-04-07T13:44:28Z</time></trkpt><trkpt lat="43.31463432521049" lon="11.285802593541735"><ele>344.0</ele><time>2026-04-07T13:44:29Z</time></trkpt><trkpt lat="43.31468133628238" lon="11.285951327037221"><ele>345.1666666666667</ele><time>2026-04-07T13:44:30Z</time></trkpt><trkpt lat="43.31470885997142" lon="11.286065517923811"><ele>346.33333333333337</ele><time>2026-04-07T13:44:31Z</time></trkpt><trkpt lat="43.3147128399186" lon="11.286182268888213"><ele>347.5</ele><time>2026-04-07T13:44:32Z</time></trkpt><trkpt lat="43.3147239714802" lon="11.286299373572731"><ele>348.6666666666667</ele><time>2026-04-07T13:44:33Z</time></trkpt><trkpt lat="43.314724072084786" lon="11.286415812309297"><ele>349.8333333333333</ele><time>2026-04-07T13:44:34Z</time></trkpt><trkpt lat="43.31472177652363" lon="11.286507972022918"><ele>351.0</ele><time>2026-04-07T13:44:35Z</time></trkpt><trkpt lat="43.31471411019782" lon="11.286601768633165"><ele>352.0</ele><time>2026-04-07T13:44:36Z</time></trkpt><trkpt lat="43.31467997848872" lon="11.286744662853215"><ele>353.0</ele><time>2026-04-07T13:44:38Z</time></trkpt><trkpt lat="43.314568207969174" lon="11.286873211996928"><ele>354.0</ele><time>2026-04-07T13:44:40Z</time></trkpt><trkpt lat="43.314480670167974" lon="11.286969024506822"><ele>355.0</ele><time>2026-04-07T13:44:41Z</time></trkpt><trkpt lat="43.3143791061623" lon="11.287083146639612"><ele>355.0</ele><time>2026-04-07T13:44:42Z</time></trkpt><trkpt lat="43.314298429596235" lon="11.28717415937775"><ele>355.0</ele><time>2026-04-07T13:44:43Z</time></trkpt><trkpt lat="43.31424786132695" lon="11.287262018314143"><ele>355.0</ele><time>2026-04-07T13:44:44Z</time></trkpt><trkpt lat="43.3141936585857" lon="11.287313182215907"><ele>355.0</ele><time>2026-04-07T13:44:45Z</time></trkpt><trkpt lat="43.31410431586457" lon="11.287417049806992"><ele>355.0</ele><time>2026-04-07T13:44:47Z</time></trkpt><trkpt lat="43.31403903933033" lon="11.287479252175773"><ele>355.0</ele><time>2026-04-07T13:44:49Z</time></trkpt><trkpt lat="43.31409902191724" lon="11.287652675963626"><ele>355.0</ele><time>2026-04-07T13:44:50Z</time></trkpt><trkpt lat="43.314153308140355" lon="11.28772799294564"><ele>355.0</ele><time>2026-04-07T13:44:51Z</time></trkpt><trkpt lat="43.3141886615195" lon="11.287832500245395"><ele>355.0</ele><time>2026-04-07T13:44:52Z</time></trkpt><trkpt lat="43.31425493252503" lon="11.287954678440116"><ele>355.0</ele><time>2026-04-07T13:44:53Z</time></trkpt><trkpt lat="43.314321946819184" lon="11.288079261702336"><ele>355.0</ele><time>2026-04-07T13:44:54Z</time></trkpt><trkpt lat="43.314395581927236" lon="11.288213157879246"><ele>355.0</ele><time>2026-04-07T13:44:55Z</time></trkpt><trkpt lat="43.31448827092993" lon="11.288339479939562"><ele>355.0</ele><time>2026-04-07T13:44:56Z</time></trkpt><trkpt lat="43.3145741091041" lon="11.288493623611316"><ele>355.0</ele><time>2026-04-07T13:44:57Z</time></trkpt><trkpt lat="43.31466832815543" lon="11.288655196635911"><ele>355.0</ele><time>2026-04-07T13:44:58Z</time></trkpt><trkpt lat="43.31475383294324" lon="11.288794691516669"><ele>354.4</ele><time>2026-04-07T13:44:59Z</time></trkpt><trkpt lat="43.31482884119667" lon="11.288922995846134"><ele>353.8</ele><time>2026-04-07T13:45:00Z</time></trkpt><trkpt lat="43.31489800748239" lon="11.289039158442947"><ele>353.20000000000005</ele><time>2026-04-07T13:45:01Z</time></trkpt><trkpt lat="43.3149607220178" lon="11.289156996207733"><ele>352.6</ele><time>2026-04-07T13:45:02Z</time></trkpt><trkpt lat="43.31501566060244" lon="11.289267855169664"><ele>352.0</ele><time>2026-04-07T13:45:03Z</time></trkpt><trkpt lat="43.31506654489325" lon="11.289392517861579"><ele>352.0</ele><time>2026-04-07T13:45:04Z</time></trkpt><trkpt lat="43.315108577883265" lon="11.28953293871896"><ele>352.0</ele><time>2026-04-07T13:45:05Z</time></trkpt><trkpt lat="43.31515126364492" lon="11.289689418180386"><ele>352.0</ele><time>2026-04-07T13:45:06Z</time></trkpt><trkpt lat="43.31519334455052" lon="11.289859688541409"><ele>352.0</ele><time>2026-04-07T13:45:07Z</time></trkpt><trkpt lat="43.31523120067379" lon="11.290047500300718"><ele>352.40000000000003</ele><time>2026-04-07T13:45:08Z</time></trkpt><trkpt lat="43.315276872145354" lon="11.290210562952575"><ele>352.8</ele><time>2026-04-07T13:45:08.999Z</time></trkpt><trkpt lat="43.31531819281846" lon="11.290343902827818"><ele>353.2</ele><time>2026-04-07T13:45:09.999Z</time></trkpt><trkpt lat="43.31533876626312" lon="11.290458391391224"><ele>353.6</ele><time>2026-04-07T13:45:10.999Z</time></trkpt><trkpt lat="43.31536946913087" lon="11.29056458725481"><ele>354.0</ele><time>2026-04-07T13:45:11.999Z</time></trkpt><trkpt lat="43.31541274202774" lon="11.290695444386298"><ele>354.0</ele><time>2026-04-07T13:45:12.999Z</time></trkpt><trkpt lat="43.31547510322288" lon="11.290846317639083"><ele>354.0</ele><time>2026-04-07T13:45:13.999Z</time></trkpt><trkpt lat="43.31553017473173" lon="11.29098013871156"><ele>354.0</ele><time>2026-04-07T13:45:14.999Z</time></trkpt><trkpt lat="43.315586176650164" lon="11.291117757836723"><ele>354.0</ele><time>2026-04-07T13:45:15.999Z</time></trkpt><trkpt lat="43.31564581973823" lon="11.29127064263549"><ele>354.0</ele><time>2026-04-07T13:45:16.999Z</time></trkpt><trkpt lat="43.315691743606855" lon="11.291420827819934"><ele>354.0</ele><time>2026-04-07T13:45:17.999Z</time></trkpt><trkpt lat="43.315723352896526" lon="11.29156284825956"><ele>354.0</ele><time>2026-04-07T13:45:18.999Z</time></trkpt><trkpt lat="43.31575341483022" lon="11.291711509123298"><ele>354.0</ele><time>2026-04-07T13:45:19.999Z</time></trkpt><trkpt lat="43.31575078086449" lon="11.2918784539776"><ele>354.0</ele><time>2026-04-07T13:45:20.999Z</time></trkpt><trkpt lat="43.315751505911905" lon="11.292025267425167"><ele>354.0</ele><time>2026-04-07T13:45:21.999Z</time></trkpt><trkpt lat="43.31575267743571" lon="11.292168232707338"><ele>354.0</ele><time>2026-04-07T13:45:22.999Z</time></trkpt><trkpt lat="43.31576022333752" lon="11.292305062172396"><ele>354.0</ele><time>2026-04-07T13:45:23.999Z</time></trkpt><trkpt lat="43.31576205550075" lon="11.292436013020282"><ele>354.0</ele><time>2026-04-07T13:45:24.999Z</time></trkpt><trkpt lat="43.315766151740156" lon="11.292562869850231"><ele>353.2</ele><time>2026-04-07T13:45:25.999Z</time></trkpt><trkpt lat="43.31578339100088" lon="11.292698481228198"><ele>352.4</ele><time>2026-04-07T13:45:26.999Z</time></trkpt><trkpt lat="43.31582649903678" lon="11.292828406522831"><ele>351.6</ele><time>2026-04-07T13:45:27.999Z</time></trkpt><trkpt lat="43.31589255490773" lon="11.292947379456598"><ele>350.8</ele><time>2026-04-07T13:45:28.999Z</time></trkpt><trkpt lat="43.315981898720885" lon="11.293051484826613"><ele>350.0</ele><time>2026-04-07T13:45:29.999Z</time></trkpt><trkpt lat="43.316072960606384" lon="11.29314116617322"><ele>348.2</ele><time>2026-04-07T13:45:30.999Z</time></trkpt><trkpt lat="43.31615689731228" lon="11.293220665242881"><ele>346.4</ele><time>2026-04-07T13:45:31.999Z</time></trkpt><trkpt lat="43.316237481564855" lon="11.293300195132405"><ele>344.6</ele><time>2026-04-07T13:45:32.999Z</time></trkpt><trkpt lat="43.31632895040124" lon="11.293354514952016"><ele>342.8</ele><time>2026-04-07T13:45:33.999Z</time></trkpt><trkpt lat="43.31641850017234" lon="11.293387174346126"><ele>341.0</ele><time>2026-04-07T13:45:34.999Z</time></trkpt><trkpt lat="43.31650449927849" lon="11.293409890729047"><ele>341.0</ele><time>2026-04-07T13:45:35.999Z</time></trkpt><trkpt lat="43.316586074076696" lon="11.293458859317392"><ele>341.0</ele><time>2026-04-07T13:45:36.999Z</time></trkpt><trkpt lat="43.31666623136149" lon="11.293484387121268"><ele>341.0</ele><time>2026-04-07T13:45:37.999Z</time></trkpt><trkpt lat="43.31673969237941" lon="11.293507020680961"><ele>341.0</ele><time>2026-04-07T13:45:38.999Z</time></trkpt><trkpt lat="43.31682211354792" lon="11.293510298115192"><ele>341.0</ele><time>2026-04-07T13:45:39.999Z</time></trkpt><trkpt lat="43.316904074323475" lon="11.29355706567641"><ele>341.0</ele><time>2026-04-07T13:45:40.999Z</time></trkpt><trkpt lat="43.31696512674596" lon="11.293616474171353"><ele>341.0</ele><time>2026-04-07T13:45:41.999Z</time></trkpt><trkpt lat="43.317020792079795" lon="11.293693568280808"><ele>341.0</ele><time>2026-04-07T13:45:42.999Z</time></trkpt><trkpt lat="43.31704716650176" lon="11.293811411616145"><ele>341.0</ele><time>2026-04-07T13:45:43.999Z</time></trkpt><trkpt lat="43.31706460585887" lon="11.293923311273733"><ele>341.0</ele><time>2026-04-07T13:45:44.999Z</time></trkpt><trkpt lat="43.31706024094585" lon="11.294035033769823"><ele>341.0</ele><time>2026-04-07T13:45:45.999Z</time></trkpt><trkpt lat="43.31703713600431" lon="11.294163683655173"><ele>341.0</ele><time>2026-04-07T13:45:46.999Z</time></trkpt><trkpt lat="43.316991760609135" lon="11.294259517091534"><ele>340.0</ele><time>2026-04-07T13:45:47.999Z</time></trkpt><trkpt lat="43.31693432475974" lon="11.294335485401021"><ele>339.0</ele><time>2026-04-07T13:45:48.999Z</time></trkpt><trkpt lat="43.31685434603683" lon="11.29439591633732"><ele>338.0</ele><time>2026-04-07T13:45:49.999Z</time></trkpt><trkpt lat="43.316741310843035" lon="11.294463362468512"><ele>337.0</ele><time>2026-04-07T13:45:50.999Z</time></trkpt><trkpt lat="43.31663178183245" lon="11.294540814507736"><ele>336.0</ele><time>2026-04-07T13:45:51.999Z</time></trkpt><trkpt lat="43.316529797375026" lon="11.29458581729594"><ele>336.0</ele><time>2026-04-07T13:45:53Z</time></trkpt><trkpt lat="43.316444764340694" lon="11.294621532381395"><ele>336.0</ele><time>2026-04-07T13:45:54Z</time></trkpt><trkpt lat="43.316372907690265" lon="11.294649866094476"><ele>336.0</ele><time>2026-04-07T13:45:55Z</time></trkpt><trkpt lat="43.316290031687466" lon="11.29467326532704"><ele>336.0</ele><time>2026-04-07T13:45:56Z</time></trkpt><trkpt lat="43.31620711229396" lon="11.294699453927256"><ele>336.0</ele><time>2026-04-07T13:45:57Z</time></trkpt><trkpt lat="43.31613003977741" lon="11.294733977589269"><ele>336.0</ele><time>2026-04-07T13:45:58Z</time></trkpt><trkpt lat="43.31608420672162" lon="11.294838411934334"><ele>333.6</ele><time>2026-04-07T13:45:59Z</time></trkpt><trkpt lat="43.316028741079265" lon="11.294931243116869"><ele>331.20000000000005</ele><time>2026-04-07T13:46:00Z</time></trkpt><trkpt lat="43.315980415606255" lon="11.295057824838993"><ele>328.79999999999995</ele><time>2026-04-07T13:46:01Z</time></trkpt><trkpt lat="43.31593997145561" lon="11.295171131344379"><ele>326.4</ele><time>2026-04-07T13:46:02Z</time></trkpt><trkpt lat="43.31590348641282" lon="11.295285643985013"><ele>324.0</ele><time>2026-04-07T13:46:03Z</time></trkpt><trkpt lat="43.31587671276525" lon="11.295427361074308"><ele>324.0</ele><time>2026-04-07T13:46:04Z</time></trkpt><trkpt lat="43.31586867540461" lon="11.295570339070931"><ele>324.0</ele><time>2026-04-07T13:46:05Z</time></trkpt><trkpt lat="43.315867141521274" lon="11.295693670423589"><ele>324.0</ele><time>2026-04-07T13:46:06Z</time></trkpt><trkpt lat="43.31587305527161" lon="11.295800800258496"><ele>324.0</ele><time>2026-04-07T13:46:07Z</time></trkpt><trkpt lat="43.315878109231136" lon="11.295895528889233"><ele>324.0</ele><time>2026-04-07T13:46:08Z</time></trkpt><trkpt lat="43.31590111732008" lon="11.29599405933988"><ele>324.0</ele><time>2026-04-07T13:46:09Z</time></trkpt><trkpt lat="43.31589589107173" lon="11.296102117960949"><ele>323.6666666666667</ele><time>2026-04-07T13:46:10Z</time></trkpt><trkpt lat="43.31589000993371" lon="11.29621805485757"><ele>323.3333333333333</ele><time>2026-04-07T13:46:11Z</time></trkpt><trkpt lat="43.31587324693361" lon="11.296335208132056"><ele>323.0</ele><time>2026-04-07T13:46:12Z</time></trkpt><trkpt lat="43.31585781460288" lon="11.29644915638686"><ele>322.66666666666663</ele><time>2026-04-07T13:46:13Z</time></trkpt><trkpt lat="43.31582378039838" lon="11.296561874398567"><ele>322.3333333333333</ele><time>2026-04-07T13:46:14Z</time></trkpt><trkpt lat="43.315803091238365" lon="11.296683453485505"><ele>322.0</ele><time>2026-04-07T13:46:15Z</time></trkpt><trkpt lat="43.31577850530231" lon="11.296807719974032"><ele>321.8333333333333</ele><time>2026-04-07T13:46:16Z</time></trkpt><trkpt lat="43.31577218662887" lon="11.296944348378352"><ele>321.66666666666663</ele><time>2026-04-07T13:46:17Z</time></trkpt><trkpt lat="43.31574295888878" lon="11.297061569712978"><ele>321.5</ele><time>2026-04-07T13:46:18Z</time></trkpt><trkpt lat="43.31569892238795" lon="11.297165851776008"><ele>321.3333333333333</ele><time>2026-04-07T13:46:19Z</time></trkpt><trkpt lat="43.31566788448625" lon="11.297265128964671"><ele>321.1666666666667</ele><time>2026-04-07T13:46:20Z</time></trkpt><trkpt lat="43.31564767333004" lon="11.297377178448146"><ele>321.0</ele><time>2026-04-07T13:46:21Z</time></trkpt><trkpt lat="43.31560195111334" lon="11.297491371185759"><ele>320.0</ele><time>2026-04-07T13:46:22Z</time></trkpt><trkpt lat="43.31557325713766" lon="11.29762403315805"><ele>319.0</ele><time>2026-04-07T13:46:23Z</time></trkpt><trkpt lat="43.315556891765006" lon="11.297752500273267"><ele>318.0</ele><time>2026-04-07T13:46:24Z</time></trkpt><trkpt lat="43.315551887441124" lon="11.297875464793847"><ele>317.0</ele><time>2026-04-07T13:46:25Z</time></trkpt><trkpt lat="43.31554507711309" lon="11.297996961844971"><ele>316.0</ele><time>2026-04-07T13:46:26Z</time></trkpt><trkpt lat="43.315535539763474" lon="11.298121200585562"><ele>313.6</ele><time>2026-04-07T13:46:27Z</time></trkpt><trkpt lat="43.315513698168" lon="11.29825817393127"><ele>311.20000000000005</ele><time>2026-04-07T13:46:28Z</time></trkpt><trkpt lat="43.31545146615849" lon="11.298398341326271"><ele>308.79999999999995</ele><time>2026-04-07T13:46:29Z</time></trkpt><trkpt lat="43.31540893652197" lon="11.298532178870461"><ele>306.4</ele><time>2026-04-07T13:46:30Z</time></trkpt><trkpt lat="43.31538067158611" lon="11.298672086357056"><ele>304.0</ele><time>2026-04-07T13:46:31Z</time></trkpt><trkpt lat="43.31533176222189" lon="11.29879280623354"><ele>303.2</ele><time>2026-04-07T13:46:32Z</time></trkpt><trkpt lat="43.3152873364192" lon="11.298917892243852"><ele>302.4</ele><time>2026-04-07T13:46:33Z</time></trkpt><trkpt lat="43.31522968491671" lon="11.299026706706"><ele>301.6</ele><time>2026-04-07T13:46:34Z</time></trkpt><trkpt lat="43.3151733714702" lon="11.299151762853919"><ele>300.8</ele><time>2026-04-07T13:46:35Z</time></trkpt><trkpt lat="43.31511965242991" lon="11.299275783360029"><ele>300.0</ele><time>2026-04-07T13:46:36Z</time></trkpt><trkpt lat="43.315078795626206" lon="11.29940016431719"><ele>300.0</ele><time>2026-04-07T13:46:37Z</time></trkpt><trkpt lat="43.315053974138614" lon="11.29953717373719"><ele>300.0</ele><time>2026-04-07T13:46:38Z</time></trkpt><trkpt lat="43.315011201003465" lon="11.299660818405613"><ele>300.0</ele><time>2026-04-07T13:46:39Z</time></trkpt><trkpt lat="43.31495844678119" lon="11.299766159849474"><ele>300.0</ele><time>2026-04-07T13:46:40Z</time></trkpt><trkpt lat="43.31489343755869" lon="11.299852370229617"><ele>300.0</ele><time>2026-04-07T13:46:41Z</time></trkpt><trkpt lat="43.3148139030771" lon="11.299931018615162"><ele>297.8</ele><time>2026-04-07T13:46:42Z</time></trkpt><trkpt lat="43.31471250014912" lon="11.30001215410983"><ele>295.6</ele><time>2026-04-07T13:46:43Z</time></trkpt><trkpt lat="43.314611732821376" lon="11.30005661040674"><ele>293.4</ele><time>2026-04-07T13:46:44Z</time></trkpt><trkpt lat="43.314524013981824" lon="11.300113860506631"><ele>291.2</ele><time>2026-04-07T13:46:45Z</time></trkpt><trkpt lat="43.314436102613975" lon="11.300178868960556"><ele>289.0</ele><time>2026-04-07T13:46:46Z</time></trkpt><trkpt lat="43.314341075609526" lon="11.300255711880279"><ele>289.0</ele><time>2026-04-07T13:46:47Z</time></trkpt><trkpt lat="43.31424653832742" lon="11.300336635645694"><ele>289.0</ele><time>2026-04-07T13:46:48Z</time></trkpt><trkpt lat="43.314159851135116" lon="11.300411857303912"><ele>289.0</ele><time>2026-04-07T13:46:49Z</time></trkpt><trkpt lat="43.314080809046956" lon="11.300496420897469"><ele>289.0</ele><time>2026-04-07T13:46:50Z</time></trkpt><trkpt lat="43.31400273219634" lon="11.300565252256972"><ele>289.0</ele><time>2026-04-07T13:46:51Z</time></trkpt><trkpt lat="43.31392552929264" lon="11.300642246537594"><ele>286.75</ele><time>2026-04-07T13:46:52Z</time></trkpt><trkpt lat="43.31384349295785" lon="11.300735415878135"><ele>284.5</ele><time>2026-04-07T13:46:53Z</time></trkpt><trkpt lat="43.31376900807564" lon="11.300856506496604"><ele>282.25</ele><time>2026-04-07T13:46:54Z</time></trkpt><trkpt lat="43.313698134608416" lon="11.3010084653489"><ele>280.0</ele><time>2026-04-07T13:46:55Z</time></trkpt><trkpt lat="43.31364151716401" lon="11.301158965999939"><ele>280.0</ele><time>2026-04-07T13:46:56Z</time></trkpt><trkpt lat="43.31359226043855" lon="11.301296273678092"><ele>280.0</ele><time>2026-04-07T13:46:57Z</time></trkpt><trkpt lat="43.31354724884472" lon="11.301426700059793"><ele>280.0</ele><time>2026-04-07T13:46:58Z</time></trkpt><trkpt lat="43.313504038387286" lon="11.301553940828214"><ele>280.0</ele><time>2026-04-07T13:46:59Z</time></trkpt><trkpt lat="43.313459145887315" lon="11.301674503319111"><ele>280.0</ele><time>2026-04-07T13:47:00Z</time></trkpt><trkpt lat="43.31342638135901" lon="11.30178646732364"><ele>280.4</ele><time>2026-04-07T13:47:01Z</time></trkpt><trkpt lat="43.31340149051116" lon="11.301915862277731"><ele>280.8</ele><time>2026-04-07T13:47:02Z</time></trkpt><trkpt lat="43.313422151913045" lon="11.302071062579635"><ele>281.2</ele><time>2026-04-07T13:47:03Z</time></trkpt><trkpt lat="43.313480474168536" lon="11.302210170208792"><ele>281.6</ele><time>2026-04-07T13:47:04Z</time></trkpt><trkpt lat="43.313520908920665" lon="11.302351304791445"><ele>282.0</ele><time>2026-04-07T13:47:05Z</time></trkpt><trkpt lat="43.31355092831595" lon="11.302492910768"><ele>281.2</ele><time>2026-04-07T13:47:06Z</time></trkpt><trkpt lat="43.313565058908004" lon="11.30261820960092"><ele>280.4</ele><time>2026-04-07T13:47:07Z</time></trkpt><trkpt lat="43.313582262970606" lon="11.302735847969881"><ele>279.6</ele><time>2026-04-07T13:47:08Z</time></trkpt><trkpt lat="43.31362280829347" lon="11.30284920071634"><ele>278.8</ele><time>2026-04-07T13:47:09Z</time></trkpt><trkpt lat="43.31366942123072" lon="11.302965773420318"><ele>278.0</ele><time>2026-04-07T13:47:10Z</time></trkpt><trkpt lat="43.313704254112295" lon="11.303082614367142"><ele>277.0</ele><time>2026-04-07T13:47:11Z</time></trkpt><trkpt lat="43.31371199227142" lon="11.303205456202614"><ele>276.0</ele><time>2026-04-07T13:47:12Z</time></trkpt><trkpt lat="43.313693207521275" lon="11.303313219914626"><ele>275.0</ele><time>2026-04-07T13:47:13Z</time></trkpt><trkpt lat="43.31365492885456" lon="11.303413086898235"><ele>274.0</ele><time>2026-04-07T13:47:14Z</time></trkpt><trkpt lat="43.31358902284176" lon="11.303516687834248"><ele>273.0</ele><time>2026-04-07T13:47:14.999Z</time></trkpt><trkpt lat="43.31350603970157" lon="11.303595972796403"><ele>273.0</ele><time>2026-04-07T13:47:15.999Z</time></trkpt><trkpt lat="43.31343697109047" lon="11.30371448441801"><ele>273.0</ele><time>2026-04-07T13:47:16.999Z</time></trkpt><trkpt lat="43.31337089610625" lon="11.303811681849051"><ele>273.0</ele><time>2026-04-07T13:47:17.999Z</time></trkpt><trkpt lat="43.313303360498786" lon="11.303914350682907"><ele>273.0</ele><time>2026-04-07T13:47:18.999Z</time></trkpt><trkpt lat="43.313257471257955" lon="11.304060630472067"><ele>273.0</ele><time>2026-04-07T13:47:19.999Z</time></trkpt><trkpt lat="43.313264331957285" lon="11.30423388910706"><ele>273.5</ele><time>2026-04-07T13:47:20.999Z</time></trkpt><trkpt lat="43.313267863525" lon="11.304407030833215"><ele>274.0</ele><time>2026-04-07T13:47:21.999Z</time></trkpt><trkpt lat="43.313261464133696" lon="11.304570449790731"><ele>274.5</ele><time>2026-04-07T13:47:22.999Z</time></trkpt><trkpt lat="43.31322487179943" lon="11.304712901502882"><ele>275.0</ele><time>2026-04-07T13:47:23.999Z</time></trkpt><trkpt lat="43.31319658689338" lon="11.304854294804741"><ele>275.0</ele><time>2026-04-07T13:47:24.999Z</time></trkpt><trkpt lat="43.31319182786258" lon="11.30502442920027"><ele>275.0</ele><time>2026-04-07T13:47:25.999Z</time></trkpt><trkpt lat="43.31317465860775" lon="11.305202116150374"><ele>275.0</ele><time>2026-04-07T13:47:26.999Z</time></trkpt><trkpt lat="43.31315871928759" lon="11.305350539353197"><ele>275.0</ele><time>2026-04-07T13:47:27.999Z</time></trkpt><trkpt lat="43.31313638293737" lon="11.30549715694081"><ele>274.0</ele><time>2026-04-07T13:47:28.999Z</time></trkpt><trkpt lat="43.313114044181674" lon="11.305628019184027"><ele>273.0</ele><time>2026-04-07T13:47:29.999Z</time></trkpt><trkpt lat="43.31310401582153" lon="11.305759624791413"><ele>272.0</ele><time>2026-04-07T13:47:30.999Z</time></trkpt><trkpt lat="43.31311490907379" lon="11.305903679808774"><ele>271.0</ele><time>2026-04-07T13:47:31.999Z</time></trkpt><trkpt lat="43.31313889738242" lon="11.30602444346965"><ele>270.0</ele><time>2026-04-07T13:47:32.999Z</time></trkpt><trkpt lat="43.31315897792421" lon="11.306136740595823"><ele>270.0</ele><time>2026-04-07T13:47:33.999Z</time></trkpt><trkpt lat="43.313175299290634" lon="11.306243357921517"><ele>270.0</ele><time>2026-04-07T13:47:34.999Z</time></trkpt><trkpt lat="43.31319069484958" lon="11.306334658689623"><ele>270.0</ele><time>2026-04-07T13:47:35.999Z</time></trkpt><trkpt lat="43.31320196489294" lon="11.306424544837526"><ele>270.0</ele><time>2026-04-07T13:47:36.999Z</time></trkpt><trkpt lat="43.31322363578237" lon="11.306513187123484"><ele>270.0</ele><time>2026-04-07T13:47:37.999Z</time></trkpt><trkpt lat="43.31327769242203" lon="11.306575986581237"><ele>270.0</ele><time>2026-04-07T13:47:38.999Z</time></trkpt><trkpt lat="43.31335322473077" lon="11.306623458769534"><ele>270.0</ele><time>2026-04-07T13:47:39.999Z</time></trkpt><trkpt lat="43.31344129725206" lon="11.306654831637257"><ele>267.8</ele><time>2026-04-07T13:47:40.999Z</time></trkpt><trkpt lat="43.313541609635124" lon="11.306660348414894"><ele>265.6</ele><time>2026-04-07T13:47:41.999Z</time></trkpt><trkpt lat="43.31365450659656" lon="11.306632464790699"><ele>263.4</ele><time>2026-04-07T13:47:42.999Z</time></trkpt><trkpt lat="43.31375996709015" lon="11.30658396801097"><ele>261.2</ele><time>2026-04-07T13:47:43.999Z</time></trkpt><trkpt lat="43.31383242593007" lon="11.306525890252102"><ele>259.0</ele><time>2026-04-07T13:47:44.999Z</time></trkpt><trkpt lat="43.313904675401396" lon="11.30647618203237"><ele>258.7142857142857</ele><time>2026-04-07T13:47:45.999Z</time></trkpt><trkpt lat="43.313972015816816" lon="11.306431187371777"><ele>258.42857142857144</ele><time>2026-04-07T13:47:46.999Z</time></trkpt><trkpt lat="43.31403964400683" lon="11.306382746331145"><ele>258.1428571428571</ele><time>2026-04-07T13:47:47.999Z</time></trkpt><trkpt lat="43.31411134287469" lon="11.306333402342515"><ele>257.8571428571429</ele><time>2026-04-07T13:47:48.999Z</time></trkpt><trkpt lat="43.314181759376474" lon="11.306286652512677"><ele>257.57142857142856</ele><time>2026-04-07T13:47:49.999Z</time></trkpt><trkpt lat="43.31424308547316" lon="11.306252130029629"><ele>257.2857142857143</ele><time>2026-04-07T13:47:50.999Z</time></trkpt><trkpt lat="43.31430515989019" lon="11.30622901279398"><ele>257.0</ele><time>2026-04-07T13:47:51.999Z</time></trkpt><trkpt lat="43.314415201689705" lon="11.30625380038121"><ele>257.0</ele><time>2026-04-07T13:47:53.999Z</time></trkpt><trkpt lat="43.3144959164863" lon="11.306394505622153"><ele>257.0</ele><time>2026-04-07T13:47:55.999Z</time></trkpt><trkpt lat="43.31450170081655" lon="11.30648876363851"><ele>257.0</ele><time>2026-04-07T13:47:56.999Z</time></trkpt><trkpt lat="43.31447554696784" lon="11.306574209569774"><ele>257.0</ele><time>2026-04-07T13:47:57.999Z</time></trkpt><trkpt lat="43.31441863102347" lon="11.306650087027432"><ele>257.0</ele><time>2026-04-07T13:47:59Z</time></trkpt><trkpt lat="43.31433412643092" lon="11.306720681841135"><ele>257.0</ele><time>2026-04-07T13:48:00Z</time></trkpt><trkpt lat="43.31423515527913" lon="11.306813456713847"><ele>257.0</ele><time>2026-04-07T13:48:01Z</time></trkpt><trkpt lat="43.31412098492491" lon="11.306939239102798"><ele>257.0</ele><time>2026-04-07T13:48:02Z</time></trkpt><trkpt lat="43.31397582193706" lon="11.307060849353038"><ele>257.0</ele><time>2026-04-07T13:48:03Z</time></trkpt><trkpt lat="43.31383134168173" lon="11.307234989371771"><ele>253.0</ele><time>2026-04-07T13:48:04Z</time></trkpt><trkpt lat="43.313681603861745" lon="11.307414945561572"><ele>249.0</ele><time>2026-04-07T13:48:05Z</time></trkpt><trkpt lat="43.31350801508432" lon="11.307610006720918"><ele>245.0</ele><time>2026-04-07T13:48:06Z</time></trkpt><trkpt lat="43.3133333859368" lon="11.30780866157517"><ele>245.0</ele><time>2026-04-07T13:48:07Z</time></trkpt><trkpt lat="43.31318084512273" lon="11.30798588181419"><ele>245.0</ele><time>2026-04-07T13:48:08Z</time></trkpt><trkpt lat="43.31304096164537" lon="11.30814983440221"><ele>245.0</ele><time>2026-04-07T13:48:09Z</time></trkpt><trkpt lat="43.3129059553673" lon="11.308304895413324"><ele>245.33333333333334</ele><time>2026-04-07T13:48:10Z</time></trkpt><trkpt lat="43.31277261781292" lon="11.308457892742899"><ele>245.66666666666669</ele><time>2026-04-07T13:48:11Z</time></trkpt><trkpt lat="43.312634585939776" lon="11.308612468219945"><ele>246.0</ele><time>2026-04-07T13:48:12Z</time></trkpt><trkpt lat="43.31248890690538" lon="11.308777179144945"><ele>244.66666666666669</ele><time>2026-04-07T13:48:13Z</time></trkpt><trkpt lat="43.312353451868915" lon="11.308936223789576"><ele>243.33333333333334</ele><time>2026-04-07T13:48:14Z</time></trkpt><trkpt lat="43.312221020993235" lon="11.309087194470456"><ele>242.0</ele><time>2026-04-07T13:48:15Z</time></trkpt><trkpt lat="43.31208314792611" lon="11.309250150421033"><ele>242.0</ele><time>2026-04-07T13:48:16Z</time></trkpt><trkpt lat="43.3119492322886" lon="11.30940771178644"><ele>242.0</ele><time>2026-04-07T13:48:17Z</time></trkpt><trkpt lat="43.31182009020617" lon="11.309554058048782"><ele>242.0</ele><time>2026-04-07T13:48:18Z</time></trkpt><trkpt lat="43.31168114689923" lon="11.309717137024993"><ele>240.33333333333334</ele><time>2026-04-07T13:48:19Z</time></trkpt><trkpt lat="43.31154571578303" lon="11.309882537628216"><ele>238.66666666666669</ele><time>2026-04-07T13:48:20Z</time></trkpt><trkpt lat="43.3114227279407" lon="11.31003034854003"><ele>237.0</ele><time>2026-04-07T13:48:21Z</time></trkpt><trkpt lat="43.3113059295211" lon="11.310163904871558"><ele>237.75</ele><time>2026-04-07T13:48:22Z</time></trkpt><trkpt lat="43.31119705866346" lon="11.310283885551732"><ele>238.5</ele><time>2026-04-07T13:48:23Z</time></trkpt><trkpt lat="43.31108715599248" lon="11.310416767332697"><ele>239.25</ele><time>2026-04-07T13:48:24Z</time></trkpt><trkpt lat="43.3109974957995" lon="11.31057771344106"><ele>240.0</ele><time>2026-04-07T13:48:25Z</time></trkpt><trkpt lat="43.31093680151989" lon="11.310761423654476"><ele>240.0</ele><time>2026-04-07T13:48:26Z</time></trkpt><trkpt lat="43.31091322743378" lon="11.310936243109133"><ele>240.0</ele><time>2026-04-07T13:48:27Z</time></trkpt><trkpt lat="43.310916179530494" lon="11.311124788026769"><ele>240.0</ele><time>2026-04-07T13:48:28Z</time></trkpt><trkpt lat="43.310953177850855" lon="11.311315211723974"><ele>240.0</ele><time>2026-04-07T13:48:29Z</time></trkpt><trkpt lat="43.311024134841006" lon="11.311492662789215"><ele>239.75</ele><time>2026-04-07T13:48:30Z</time></trkpt><trkpt lat="43.31112170929246" lon="11.311672423097365"><ele>239.5</ele><time>2026-04-07T13:48:31Z</time></trkpt><trkpt lat="43.311194661617826" lon="11.31183845720553"><ele>239.25</ele><time>2026-04-07T13:48:32Z</time></trkpt><trkpt lat="43.31124962386846" lon="11.311997134015542"><ele>239.0</ele><time>2026-04-07T13:48:33Z</time></trkpt><trkpt lat="43.31126631215963" lon="11.312184796222752"><ele>240.25</ele><time>2026-04-07T13:48:34Z</time></trkpt><trkpt lat="43.31127540011937" lon="11.312375090286158"><ele>241.5</ele><time>2026-04-07T13:48:35Z</time></trkpt><trkpt lat="43.31127664883454" lon="11.312573733366902"><ele>242.75</ele><time>2026-04-07T13:48:36Z</time></trkpt><trkpt lat="43.31127259780435" lon="11.312744200370425"><ele>244.0</ele><time>2026-04-07T13:48:37Z</time></trkpt><trkpt lat="43.31126971646387" lon="11.312903062812458"><ele>244.0</ele><time>2026-04-07T13:48:38Z</time></trkpt><trkpt lat="43.31131219280851" lon="11.3130648530301"><ele>244.0</ele><time>2026-04-07T13:48:39Z</time></trkpt><trkpt lat="43.31132240299186" lon="11.313251668860659"><ele>244.0</ele><time>2026-04-07T13:48:40Z</time></trkpt><trkpt lat="43.31132493528945" lon="11.313440477459551"><ele>244.0</ele><time>2026-04-07T13:48:41Z</time></trkpt><trkpt lat="43.31129668635638" lon="11.313618500787026"><ele>245.0</ele><time>2026-04-07T13:48:42Z</time></trkpt><trkpt lat="43.3112262758667" lon="11.313768502358089"><ele>246.0</ele><time>2026-04-07T13:48:43Z</time></trkpt><trkpt lat="43.311158040836844" lon="11.313912054914345"><ele>247.0</ele><time>2026-04-07T13:48:44Z</time></trkpt><trkpt lat="43.31107547424885" lon="11.314055788338145"><ele>248.0</ele><time>2026-04-07T13:48:45Z</time></trkpt><trkpt lat="43.31100245047158" lon="11.31419409501455"><ele>249.25</ele><time>2026-04-07T13:48:46Z</time></trkpt><trkpt lat="43.31093005388828" lon="11.314338400835409"><ele>250.5</ele><time>2026-04-07T13:48:47Z</time></trkpt><trkpt lat="43.31086905637849" lon="11.314530063860099"><ele>251.75</ele><time>2026-04-07T13:48:48Z</time></trkpt><trkpt lat="43.310806711520186" lon="11.314680877909032"><ele>253.0</ele><time>2026-04-07T13:48:49Z</time></trkpt><trkpt lat="43.310753853128844" lon="11.314827876351275"><ele>253.60000000000002</ele><time>2026-04-07T13:48:50Z</time></trkpt><trkpt lat="43.3107125705691" lon="11.314967792052443"><ele>254.20000000000002</ele><time>2026-04-07T13:48:51Z</time></trkpt><trkpt lat="43.310645814607106" lon="11.315069802366438"><ele>254.8</ele><time>2026-04-07T13:48:52Z</time></trkpt><trkpt lat="43.31060617164252" lon="11.31521137672249"><ele>255.4</ele><time>2026-04-07T13:48:54Z</time></trkpt><trkpt lat="43.31057681885428" lon="11.315294045316898"><ele>256.0</ele><time>2026-04-07T13:48:55Z</time></trkpt><trkpt lat="43.310542870565136" lon="11.31539818569096"><ele>253.99999999999997</ele><time>2026-04-07T13:48:56Z</time></trkpt><trkpt lat="43.3105067513825" lon="11.315504272316073"><ele>252.0</ele><time>2026-04-07T13:48:57Z</time></trkpt><trkpt lat="43.310477473870726" lon="11.315599077781085"><ele>250.0</ele><time>2026-04-07T13:48:58Z</time></trkpt><trkpt lat="43.310455977184645" lon="11.315696290404075"><ele>248.0</ele><time>2026-04-07T13:48:59Z</time></trkpt><trkpt lat="43.3104407818462" lon="11.315822374302995"><ele>245.99999999999997</ele><time>2026-04-07T13:49:00Z</time></trkpt><trkpt lat="43.31043700112012" lon="11.31594436486956"><ele>244.0</ele><time>2026-04-07T13:49:01Z</time></trkpt><trkpt lat="43.31043825699558" lon="11.316066375456987"><ele>243.66666666666666</ele><time>2026-04-07T13:49:02Z</time></trkpt><trkpt lat="43.31043856099414" lon="11.316204974830931"><ele>243.33333333333331</ele><time>2026-04-07T13:49:03Z</time></trkpt><trkpt lat="43.31043682215995" lon="11.316316117465076"><ele>243.0</ele><time>2026-04-07T13:49:04Z</time></trkpt><trkpt lat="43.31043052930739" lon="11.316405496312614"><ele>242.66666666666669</ele><time>2026-04-07T13:49:05Z</time></trkpt><trkpt lat="43.3104211809797" lon="11.316529277206596"><ele>242.33333333333334</ele><time>2026-04-07T13:49:07Z</time></trkpt><trkpt lat="43.310407961324785" lon="11.31662729664708"><ele>242.0</ele><time>2026-04-07T13:49:12Z</time></trkpt><trkpt lat="43.31031780050768" lon="11.31672559135864"><ele>241.50000000000003</ele><time>2026-04-07T13:49:22Z</time></trkpt><trkpt lat="43.310219699516196" lon="11.316705529133705"><ele>241.0</ele><time>2026-04-07T13:49:23.999Z</time></trkpt><trkpt lat="43.31015451717275" lon="11.316683849768028"><ele>240.5</ele><time>2026-04-07T13:49:24.999Z</time></trkpt><trkpt lat="43.310093541458606" lon="11.316658357200913"><ele>240.0</ele><time>2026-04-07T13:49:25.999Z</time></trkpt><trkpt lat="43.30996364386276" lon="11.316613882241665"><ele>239.50000000000003</ele><time>2026-04-07T13:49:27.999Z</time></trkpt><trkpt lat="43.30988815398314" lon="11.316591044637706"><ele>239.0</ele><time>2026-04-07T13:49:28.999Z</time></trkpt><trkpt lat="43.309818742666366" lon="11.31656068857029"><ele>239.00000000000003</ele><time>2026-04-07T13:49:29.999Z</time></trkpt><trkpt lat="43.30976232736071" lon="11.316522281459063"><ele>239.0</ele><time>2026-04-07T13:49:30.999Z</time></trkpt><trkpt lat="43.30970229291099" lon="11.316461772703288"><ele>239.0</ele><time>2026-04-07T13:49:31.999Z</time></trkpt><trkpt lat="43.30963539134639" lon="11.31640021256283"><ele>239.0</ele><time>2026-04-07T13:49:32.999Z</time></trkpt><trkpt lat="43.30957221445473" lon="11.316354137505934"><ele>239.00000000000003</ele><time>2026-04-07T13:49:33.999Z</time></trkpt><trkpt lat="43.30944108859036" lon="11.316326027720509"><ele>239.0</ele><time>2026-04-07T13:49:35.999Z</time></trkpt><trkpt lat="43.3093759520206" lon="11.316379995878624"><ele>239.16666666666669</ele><time>2026-04-07T13:49:36.999Z</time></trkpt><trkpt lat="43.309313239716246" lon="11.31644974784668"><ele>239.33333333333334</ele><time>2026-04-07T13:49:37.999Z</time></trkpt><trkpt lat="43.30927205714164" lon="11.316576455394005"><ele>239.5</ele><time>2026-04-07T13:49:38.999Z</time></trkpt><trkpt lat="43.30921950854842" lon="11.316642587571927"><ele>239.66666666666669</ele><time>2026-04-07T13:49:39.999Z</time></trkpt><trkpt lat="43.30911576030664" lon="11.316717268721849"><ele>239.83333333333334</ele><time>2026-04-07T13:49:41.999Z</time></trkpt><trkpt lat="43.30904222752198" lon="11.316704055860269"><ele>240.0</ele><time>2026-04-07T13:49:42.999Z</time></trkpt><trkpt lat="43.30895440837745" lon="11.316660415259863"><ele>239.8</ele><time>2026-04-07T13:49:43.999Z</time></trkpt><trkpt lat="43.308867075992794" lon="11.316596650343167"><ele>239.6</ele><time>2026-04-07T13:49:44.999Z</time></trkpt><trkpt lat="43.30877777122638" lon="11.31652466081872"><ele>239.39999999999998</ele><time>2026-04-07T13:49:45.999Z</time></trkpt><trkpt lat="43.30869983245158" lon="11.31645431591194"><ele>239.2</ele><time>2026-04-07T13:49:46.999Z</time></trkpt><trkpt lat="43.308629325914985" lon="11.316388252467208"><ele>239.0</ele><time>2026-04-07T13:49:47.999Z</time></trkpt><trkpt lat="43.30857158209655" lon="11.316332175331137"><ele>238.16666666666669</ele><time>2026-04-07T13:49:48.999Z</time></trkpt><trkpt lat="43.30851664050311" lon="11.316286539771426"><ele>237.33333333333334</ele><time>2026-04-07T13:49:49.999Z</time></trkpt><trkpt lat="43.30840750465493" lon="11.316229222823555"><ele>236.5</ele><time>2026-04-07T13:49:51.999Z</time></trkpt><trkpt lat="43.308325939488626" lon="11.316198308603175"><ele>235.66666666666669</ele><time>2026-04-07T13:49:52.999Z</time></trkpt><trkpt lat="43.30824236773181" lon="11.31618245539605"><ele>234.83333333333334</ele><time>2026-04-07T13:49:53.999Z</time></trkpt><trkpt lat="43.30815348793214" lon="11.316181006586707"><ele>234.0</ele><time>2026-04-07T13:49:54.999Z</time></trkpt><trkpt lat="43.30805584250965" lon="11.316187018124687"><ele>233.39999999999998</ele><time>2026-04-07T13:49:55.999Z</time></trkpt><trkpt lat="43.30795078792574" lon="11.316191289616903"><ele>232.79999999999998</ele><time>2026-04-07T13:49:56.999Z</time></trkpt><trkpt lat="43.30785350818914" lon="11.316201836995642"><ele>232.20000000000002</ele><time>2026-04-07T13:49:57.999Z</time></trkpt><trkpt lat="43.30776636601144" lon="11.316220170062964"><ele>231.60000000000002</ele><time>2026-04-07T13:49:58.999Z</time></trkpt><trkpt lat="43.30767438472321" lon="11.316247181976482"><ele>231.0</ele><time>2026-04-07T13:49:59.999Z</time></trkpt><trkpt lat="43.307585875760104" lon="11.316293666924745"><ele>231.0</ele><time>2026-04-07T13:50:00.999Z</time></trkpt><trkpt lat="43.307514249993986" lon="11.31635914904631"><ele>231.0</ele><time>2026-04-07T13:50:01.999Z</time></trkpt><trkpt lat="43.30743213074473" lon="11.316422069063254"><ele>231.0</ele><time>2026-04-07T13:50:02.999Z</time></trkpt><trkpt lat="43.30736653383807" lon="11.316521228733686"><ele>231.0</ele><time>2026-04-07T13:50:03.999Z</time></trkpt><trkpt lat="43.307292653739744" lon="11.316573646168164"><ele>231.0</ele><time>2026-04-07T13:50:05Z</time></trkpt><trkpt lat="43.30723031314975" lon="11.3166413953272"><ele>231.0</ele><time>2026-04-07T13:50:06Z</time></trkpt><trkpt lat="43.307166232413486" lon="11.316737353207778"><ele>231.0</ele><time>2026-04-07T13:50:07Z</time></trkpt><trkpt lat="43.307085998262366" lon="11.316821683210033"><ele>231.00000000000003</ele><time>2026-04-07T13:50:08Z</time></trkpt><trkpt lat="43.307004966271435" lon="11.316904912536113"><ele>231.00000000000003</ele><time>2026-04-07T13:50:09Z</time></trkpt><trkpt lat="43.30693715180158" lon="11.316975825030527"><ele>231.0</ele><time>2026-04-07T13:50:10Z</time></trkpt><trkpt lat="43.306869519930565" lon="11.317046986218054"><ele>231.0</ele><time>2026-04-07T13:50:11Z</time></trkpt><trkpt lat="43.306799126251036" lon="11.317126643986107"><ele>231.0</ele><time>2026-04-07T13:50:12Z</time></trkpt><trkpt lat="43.30672325457988" lon="11.317213391931856"><ele>231.0</ele><time>2026-04-07T13:50:13Z</time></trkpt><trkpt lat="43.30664846906148" lon="11.317299022930275"><ele>231.0</ele><time>2026-04-07T13:50:14Z</time></trkpt><trkpt lat="43.30658390509154" lon="11.317374121385141"><ele>231.0</ele><time>2026-04-07T13:50:15Z</time></trkpt><trkpt lat="43.30652523823499" lon="11.31744115454777"><ele>231.0</ele><time>2026-04-07T13:50:16Z</time></trkpt><trkpt lat="43.306464802897736" lon="11.317513628906188"><ele>231.0</ele><time>2026-04-07T13:50:17Z</time></trkpt><trkpt lat="43.30640027627367" lon="11.317597760575746"><ele>230.4</ele><time>2026-04-07T13:50:18Z</time></trkpt><trkpt lat="43.30634587575622" lon="11.317667858758574"><ele>229.8</ele><time>2026-04-07T13:50:19Z</time></trkpt><trkpt lat="43.30627746806129" lon="11.317793820605726"><ele>229.20000000000002</ele><time>2026-04-07T13:50:21Z</time></trkpt><trkpt lat="43.306296603556284" lon="11.317966875994001"><ele>228.60000000000002</ele><time>2026-04-07T13:50:23Z</time></trkpt><trkpt lat="43.30633104192415" lon="11.31806215522327"><ele>228.0</ele><time>2026-04-07T13:50:24Z</time></trkpt><trkpt lat="43.306407903646644" lon="11.318087486518902"><ele>228.66666666666666</ele><time>2026-04-07T13:50:25Z</time></trkpt><trkpt lat="43.30647102876215" lon="11.318072609186041"><ele>229.33333333333331</ele><time>2026-04-07T13:50:26Z</time></trkpt><trkpt lat="43.30653085402941" lon="11.318018918855847"><ele>230.0</ele><time>2026-04-07T13:50:27Z</time></trkpt><trkpt lat="43.30658245667643" lon="11.317928007377564"><ele>230.66666666666666</ele><time>2026-04-07T13:50:28Z</time></trkpt><trkpt lat="43.30659487413956" lon="11.31783555473479"><ele>231.33333333333331</ele><time>2026-04-07T13:50:29Z</time></trkpt><trkpt lat="43.30670783141836" lon="11.317711033028601"><ele>232.0</ele><time>2026-04-07T13:50:31Z</time></trkpt><trkpt lat="43.306817454746806" lon="11.317659060822372"><ele>232.0</ele><time>2026-04-07T13:50:33Z</time></trkpt><trkpt lat="43.30688559443074" lon="11.31767013131834"><ele>232.0</ele><time>2026-04-07T13:50:34Z</time></trkpt><trkpt lat="43.30696108435597" lon="11.317713258142764"><ele>232.0</ele><time>2026-04-07T13:50:35Z</time></trkpt><trkpt lat="43.30702507740943" lon="11.317747074410814"><ele>232.0</ele><time>2026-04-07T13:50:36Z</time></trkpt><trkpt lat="43.30711311584443" lon="11.317777026767958"><ele>232.0</ele><time>2026-04-07T13:50:38Z</time></trkpt><trkpt lat="43.307221199068806" lon="11.317644751827078"><ele>232.49999999999997</ele><time>2026-04-07T13:50:41Z</time></trkpt><trkpt lat="43.30727676298347" lon="11.317575271331433"><ele>233.0</ele><time>2026-04-07T13:50:42Z</time></trkpt><trkpt lat="43.307327583031785" lon="11.317487115276052"><ele>233.5</ele><time>2026-04-07T13:50:43Z</time></trkpt><trkpt lat="43.30738379152589" lon="11.31739166786557"><ele>234.0</ele><time>2026-04-07T13:50:44Z</time></trkpt><trkpt lat="43.3074401831827" lon="11.31727383578421"><ele>234.49999999999997</ele><time>2026-04-07T13:50:45Z</time></trkpt><trkpt lat="43.30749435967572" lon="11.317199501715143"><ele>235.0</ele><time>2026-04-07T13:50:46Z</time></trkpt><trkpt lat="43.307536394790226" lon="11.317132663449978"><ele>235.0</ele><time>2026-04-07T13:50:47Z</time></trkpt><trkpt lat="43.30763372021257" lon="11.317004507030045"><ele>235.0</ele><time>2026-04-07T13:50:49Z</time></trkpt><trkpt lat="43.30769018307987" lon="11.316928190574174"><ele>235.0</ele><time>2026-04-07T13:50:50Z</time></trkpt><trkpt lat="43.30775312142253" lon="11.31686301343334"><ele>235.0</ele><time>2026-04-07T13:50:51Z</time></trkpt><trkpt lat="43.307803894143284" lon="11.316798217795645"><ele>235.0</ele><time>2026-04-07T13:50:52Z</time></trkpt><trkpt lat="43.30791490908802" lon="11.316715642142388"><ele>235.0</ele><time>2026-04-07T13:50:54Z</time></trkpt><trkpt lat="43.307994628450416" lon="11.316648120011545"><ele>235.0</ele><time>2026-04-07T13:50:56Z</time></trkpt><trkpt lat="43.30805973639639" lon="11.316579993981298"><ele>235.0</ele><time>2026-04-07T13:50:59Z</time></trkpt><trkpt lat="43.30797374888242" lon="11.316396824683022"><ele>235.0</ele><time>2026-04-07T13:51:09Z</time></trkpt><trkpt lat="43.30802989776568" lon="11.316354690589684"><ele>235.0</ele><time>2026-04-07T13:53:13Z</time></trkpt><trkpt lat="43.308095980552835" lon="11.316361793300947"><ele>234.0</ele><time>2026-04-07T13:53:15Z</time></trkpt></trkseg></trk></gpx>